<?xml version="1.0" encoding="UTF-8"?>
<gpx xmlns="http://www.topografix.com/GPX/1/1" creator="GPSies http://www.gpsies.com - 2009-01-05-09-10-41" version="1.1" xmlns:xsi="http://www.w3.org/2001/XMLSchema-instance" xsi:schemaLocation="http://www.topografix.com/GPX/1/1 http://www.topografix.com/GPX/1/1/gpx.xsd">
  <metadata>
    <name>2009-01-05-09-10-41</name>
    <copyright author="GPSies.com" />
    <link href="http://www.gpsies.com/">
      <text>2009-01-05-09-10-41 on GPSies.com</text>
    </link>
    <time>2009-01-05T16:05:04Z</time>
  </metadata>
  <trk>
    <name>2009-01-05-09-10-41 on GPSies.com</name>
    <trkseg>
      <trkpt lat="27.77236600" lon="-15.5469040">
        <ele>73.624000</ele>
        <time>2009-01-05T09:10:42Z</time>
      </trkpt>
      <trkpt lat="27.77236500" lon="-15.5469080">
        <ele>73.633000</ele>
        <time>2009-01-05T09:10:43Z</time>
      </trkpt>
      <trkpt lat="27.77236600" lon="-15.5469090">
        <ele>73.637000</ele>
        <time>2009-01-05T09:10:44Z</time>
      </trkpt>
    </trkseg>
    <trkseg>
      <trkpt lat="27.77237800" lon="-15.5468970">
        <ele>73.899000</ele>
        <time>2009-01-05T09:10:49Z</time>
      </trkpt>
      <trkpt lat="27.77238000" lon="-15.5468940">
        <ele>73.744000</ele>
        <time>2009-01-05T09:10:50Z</time>
      </trkpt>
      <trkpt lat="27.77238000" lon="-15.5468880">
        <ele>74.077000</ele>
        <time>2009-01-05T09:10:51Z</time>
      </trkpt>
      <trkpt lat="27.77238300" lon="-15.5468690">
        <ele>73.890000</ele>
        <time>2009-01-05T09:10:52Z</time>
      </trkpt>
      <trkpt lat="27.77238800" lon="-15.5468460">
        <ele>74.050000</ele>
        <time>2009-01-05T09:10:53Z</time>
      </trkpt>
      <trkpt lat="27.77239800" lon="-15.5468240">
        <ele>73.990000</ele>
        <time>2009-01-05T09:10:54Z</time>
      </trkpt>
      <trkpt lat="27.77240400" lon="-15.5468050">
        <ele>73.826000</ele>
        <time>2009-01-05T09:10:55Z</time>
      </trkpt>
      <trkpt lat="27.77239300" lon="-15.5467940">
        <ele>74.146000</ele>
        <time>2009-01-05T09:10:56Z</time>
      </trkpt>
      <trkpt lat="27.77238700" lon="-15.5467810">
        <ele>73.985000</ele>
        <time>2009-01-05T09:10:57Z</time>
      </trkpt>
      <trkpt lat="27.77238700" lon="-15.5467690">
        <ele>74.043000</ele>
        <time>2009-01-05T09:10:58Z</time>
      </trkpt>
      <trkpt lat="27.77237700" lon="-15.5467510">
        <ele>74.027000</ele>
        <time>2009-01-05T09:10:59Z</time>
      </trkpt>
      <trkpt lat="27.77236700" lon="-15.5467300">
        <ele>73.853000</ele>
        <time>2009-01-05T09:11:00Z</time>
      </trkpt>
      <trkpt lat="27.77235900" lon="-15.5466980">
        <ele>73.836000</ele>
        <time>2009-01-05T09:11:01Z</time>
      </trkpt>
      <trkpt lat="27.77235200" lon="-15.5466540">
        <ele>73.758000</ele>
        <time>2009-01-05T09:11:02Z</time>
      </trkpt>
      <trkpt lat="27.77234100" lon="-15.5465980">
        <ele>73.916000</ele>
        <time>2009-01-05T09:11:03Z</time>
      </trkpt>
      <trkpt lat="27.77233300" lon="-15.5465460">
        <ele>73.867000</ele>
        <time>2009-01-05T09:11:04Z</time>
      </trkpt>
      <trkpt lat="27.77232400" lon="-15.5464950">
        <ele>73.914000</ele>
        <time>2009-01-05T09:11:05Z</time>
      </trkpt>
      <trkpt lat="27.77231300" lon="-15.5464490">
        <ele>73.869000</ele>
        <time>2009-01-05T09:11:06Z</time>
      </trkpt>
      <trkpt lat="27.77229900" lon="-15.5464020">
        <ele>74.046000</ele>
        <time>2009-01-05T09:11:07Z</time>
      </trkpt>
      <trkpt lat="27.77227800" lon="-15.5463540">
        <ele>74.017000</ele>
        <time>2009-01-05T09:11:08Z</time>
      </trkpt>
      <trkpt lat="27.77227000" lon="-15.5463200">
        <ele>74.025000</ele>
        <time>2009-01-05T09:11:09Z</time>
      </trkpt>
      <trkpt lat="27.77230600" lon="-15.5463030">
        <ele>74.121000</ele>
        <time>2009-01-05T09:11:10Z</time>
      </trkpt>
      <trkpt lat="27.77230000" lon="-15.5462850">
        <ele>73.939000</ele>
        <time>2009-01-05T09:11:11Z</time>
      </trkpt>
      <trkpt lat="27.77227200" lon="-15.5462600">
        <ele>73.664000</ele>
        <time>2009-01-05T09:11:12Z</time>
      </trkpt>
      <trkpt lat="27.77223600" lon="-15.5462420">
        <ele>73.743000</ele>
        <time>2009-01-05T09:11:13Z</time>
      </trkpt>
      <trkpt lat="27.77219400" lon="-15.5462310">
        <ele>73.868000</ele>
        <time>2009-01-05T09:11:14Z</time>
      </trkpt>
      <trkpt lat="27.77216900" lon="-15.5462400">
        <ele>73.874000</ele>
        <time>2009-01-05T09:11:15Z</time>
      </trkpt>
      <trkpt lat="27.77214100" lon="-15.5462300">
        <ele>73.978000</ele>
        <time>2009-01-05T09:11:16Z</time>
      </trkpt>
      <trkpt lat="27.77210800" lon="-15.5462120">
        <ele>73.775000</ele>
        <time>2009-01-05T09:11:17Z</time>
      </trkpt>
      <trkpt lat="27.77206700" lon="-15.5462010">
        <ele>73.660000</ele>
        <time>2009-01-05T09:11:18Z</time>
      </trkpt>
      <trkpt lat="27.77201500" lon="-15.5462040">
        <ele>73.246000</ele>
        <time>2009-01-05T09:11:19Z</time>
      </trkpt>
      <trkpt lat="27.77195300" lon="-15.5462150">
        <ele>73.060000</ele>
        <time>2009-01-05T09:11:20Z</time>
      </trkpt>
      <trkpt lat="27.77188400" lon="-15.5462290">
        <ele>72.875000</ele>
        <time>2009-01-05T09:11:21Z</time>
      </trkpt>
      <trkpt lat="27.77181100" lon="-15.5462430">
        <ele>71.934000</ele>
        <time>2009-01-05T09:11:22Z</time>
      </trkpt>
      <trkpt lat="27.77173200" lon="-15.5462570">
        <ele>71.484000</ele>
        <time>2009-01-05T09:11:23Z</time>
      </trkpt>
      <trkpt lat="27.77164800" lon="-15.5462830">
        <ele>70.478000</ele>
        <time>2009-01-05T09:11:24Z</time>
      </trkpt>
      <trkpt lat="27.77158400" lon="-15.5463630">
        <ele>69.369000</ele>
        <time>2009-01-05T09:11:25Z</time>
      </trkpt>
      <trkpt lat="27.77152100" lon="-15.5464890">
        <ele>68.883000</ele>
        <time>2009-01-05T09:11:26Z</time>
      </trkpt>
      <trkpt lat="27.77147500" lon="-15.5465980">
        <ele>68.201000</ele>
        <time>2009-01-05T09:11:27Z</time>
      </trkpt>
      <trkpt lat="27.77144200" lon="-15.5467150">
        <ele>67.053000</ele>
        <time>2009-01-05T09:11:28Z</time>
      </trkpt>
      <trkpt lat="27.77140200" lon="-15.5468680">
        <ele>65.660000</ele>
        <time>2009-01-05T09:11:29Z</time>
      </trkpt>
      <trkpt lat="27.77138200" lon="-15.5469950">
        <ele>63.933000</ele>
        <time>2009-01-05T09:11:30Z</time>
      </trkpt>
      <trkpt lat="27.77136900" lon="-15.5471150">
        <ele>63.267000</ele>
        <time>2009-01-05T09:11:31Z</time>
      </trkpt>
      <trkpt lat="27.77135000" lon="-15.5472070">
        <ele>61.619000</ele>
        <time>2009-01-05T09:11:32Z</time>
      </trkpt>
      <trkpt lat="27.77130600" lon="-15.5473100">
        <ele>61.389000</ele>
        <time>2009-01-05T09:11:33Z</time>
      </trkpt>
      <trkpt lat="27.77124100" lon="-15.5473970">
        <ele>61.178000</ele>
        <time>2009-01-05T09:11:34Z</time>
      </trkpt>
      <trkpt lat="27.77116600" lon="-15.5474750">
        <ele>60.852000</ele>
        <time>2009-01-05T09:11:35Z</time>
      </trkpt>
      <trkpt lat="27.77109300" lon="-15.5475130">
        <ele>60.741000</ele>
        <time>2009-01-05T09:11:36Z</time>
      </trkpt>
      <trkpt lat="27.77101700" lon="-15.5475270">
        <ele>60.582000</ele>
        <time>2009-01-05T09:11:37Z</time>
      </trkpt>
      <trkpt lat="27.77093300" lon="-15.5475360">
        <ele>61.144000</ele>
        <time>2009-01-05T09:11:38Z</time>
      </trkpt>
      <trkpt lat="27.77085400" lon="-15.5475440">
        <ele>61.223000</ele>
        <time>2009-01-05T09:11:39Z</time>
      </trkpt>
      <trkpt lat="27.77077600" lon="-15.5475440">
        <ele>61.101000</ele>
        <time>2009-01-05T09:11:40Z</time>
      </trkpt>
      <trkpt lat="27.77070100" lon="-15.5475450">
        <ele>61.237000</ele>
        <time>2009-01-05T09:11:41Z</time>
      </trkpt>
      <trkpt lat="27.77062300" lon="-15.5475510">
        <ele>61.225000</ele>
        <time>2009-01-05T09:11:42Z</time>
      </trkpt>
      <trkpt lat="27.77054500" lon="-15.5475520">
        <ele>61.010000</ele>
        <time>2009-01-05T09:11:43Z</time>
      </trkpt>
      <trkpt lat="27.77046400" lon="-15.5475560">
        <ele>60.652000</ele>
        <time>2009-01-05T09:11:44Z</time>
      </trkpt>
      <trkpt lat="27.77038200" lon="-15.5475640">
        <ele>60.312000</ele>
        <time>2009-01-05T09:11:45Z</time>
      </trkpt>
      <trkpt lat="27.77030000" lon="-15.5475840">
        <ele>60.366000</ele>
        <time>2009-01-05T09:11:46Z</time>
      </trkpt>
      <trkpt lat="27.77021900" lon="-15.5476150">
        <ele>60.156000</ele>
        <time>2009-01-05T09:11:47Z</time>
      </trkpt>
      <trkpt lat="27.77013800" lon="-15.5476520">
        <ele>59.713000</ele>
        <time>2009-01-05T09:11:48Z</time>
      </trkpt>
      <trkpt lat="27.77006000" lon="-15.5476940">
        <ele>59.579000</ele>
        <time>2009-01-05T09:11:49Z</time>
      </trkpt>
      <trkpt lat="27.76998500" lon="-15.5477410">
        <ele>59.236000</ele>
        <time>2009-01-05T09:11:50Z</time>
      </trkpt>
      <trkpt lat="27.76991600" lon="-15.5478000">
        <ele>59.383000</ele>
        <time>2009-01-05T09:11:51Z</time>
      </trkpt>
      <trkpt lat="27.76986100" lon="-15.5478650">
        <ele>59.442000</ele>
        <time>2009-01-05T09:11:52Z</time>
      </trkpt>
      <trkpt lat="27.76981800" lon="-15.5479300">
        <ele>59.593000</ele>
        <time>2009-01-05T09:11:53Z</time>
      </trkpt>
      <trkpt lat="27.76978300" lon="-15.5479950">
        <ele>59.689000</ele>
        <time>2009-01-05T09:11:54Z</time>
      </trkpt>
      <trkpt lat="27.76975400" lon="-15.5480540">
        <ele>59.687000</ele>
        <time>2009-01-05T09:11:55Z</time>
      </trkpt>
      <trkpt lat="27.76972200" lon="-15.5481050">
        <ele>59.463000</ele>
        <time>2009-01-05T09:11:56Z</time>
      </trkpt>
      <trkpt lat="27.76966900" lon="-15.5481530">
        <ele>59.904000</ele>
        <time>2009-01-05T09:11:57Z</time>
      </trkpt>
      <trkpt lat="27.76961300" lon="-15.5481590">
        <ele>59.420000</ele>
        <time>2009-01-05T09:11:58Z</time>
      </trkpt>
      <trkpt lat="27.76955700" lon="-15.5481390">
        <ele>58.993000</ele>
        <time>2009-01-05T09:11:59Z</time>
      </trkpt>
      <trkpt lat="27.76949400" lon="-15.5481390">
        <ele>58.661000</ele>
        <time>2009-01-05T09:12:00Z</time>
      </trkpt>
      <trkpt lat="27.76943500" lon="-15.5481740">
        <ele>58.438000</ele>
        <time>2009-01-05T09:12:01Z</time>
      </trkpt>
      <trkpt lat="27.76939100" lon="-15.5482310">
        <ele>58.564000</ele>
        <time>2009-01-05T09:12:02Z</time>
      </trkpt>
      <trkpt lat="27.76935500" lon="-15.5482960">
        <ele>57.926000</ele>
        <time>2009-01-05T09:12:03Z</time>
      </trkpt>
      <trkpt lat="27.76931900" lon="-15.5483680">
        <ele>58.016000</ele>
        <time>2009-01-05T09:12:04Z</time>
      </trkpt>
      <trkpt lat="27.76929000" lon="-15.5484460">
        <ele>58.234000</ele>
        <time>2009-01-05T09:12:05Z</time>
      </trkpt>
      <trkpt lat="27.76926700" lon="-15.5485300">
        <ele>58.514000</ele>
        <time>2009-01-05T09:12:06Z</time>
      </trkpt>
      <trkpt lat="27.76924900" lon="-15.5486120">
        <ele>57.998000</ele>
        <time>2009-01-05T09:12:07Z</time>
      </trkpt>
      <trkpt lat="27.76922900" lon="-15.5486980">
        <ele>57.646000</ele>
        <time>2009-01-05T09:12:08Z</time>
      </trkpt>
      <trkpt lat="27.76921000" lon="-15.5487830">
        <ele>58.108000</ele>
        <time>2009-01-05T09:12:09Z</time>
      </trkpt>
      <trkpt lat="27.76919200" lon="-15.5488670">
        <ele>57.656000</ele>
        <time>2009-01-05T09:12:10Z</time>
      </trkpt>
      <trkpt lat="27.76917100" lon="-15.5489510">
        <ele>57.972000</ele>
        <time>2009-01-05T09:12:11Z</time>
      </trkpt>
      <trkpt lat="27.76914600" lon="-15.5490340">
        <ele>58.157000</ele>
        <time>2009-01-05T09:12:12Z</time>
      </trkpt>
      <trkpt lat="27.76912100" lon="-15.5491170">
        <ele>57.828000</ele>
        <time>2009-01-05T09:12:13Z</time>
      </trkpt>
      <trkpt lat="27.76909700" lon="-15.5492000">
        <ele>57.898000</ele>
        <time>2009-01-05T09:12:14Z</time>
      </trkpt>
      <trkpt lat="27.76906900" lon="-15.5492820">
        <ele>57.799000</ele>
        <time>2009-01-05T09:12:15Z</time>
      </trkpt>
      <trkpt lat="27.76903900" lon="-15.5493650">
        <ele>57.451000</ele>
        <time>2009-01-05T09:12:16Z</time>
      </trkpt>
      <trkpt lat="27.76900800" lon="-15.5494470">
        <ele>57.571000</ele>
        <time>2009-01-05T09:12:17Z</time>
      </trkpt>
      <trkpt lat="27.76897600" lon="-15.5495310">
        <ele>57.092000</ele>
        <time>2009-01-05T09:12:18Z</time>
      </trkpt>
      <trkpt lat="27.76894200" lon="-15.5496150">
        <ele>57.475000</ele>
        <time>2009-01-05T09:12:19Z</time>
      </trkpt>
      <trkpt lat="27.76890800" lon="-15.5496990">
        <ele>57.093000</ele>
        <time>2009-01-05T09:12:20Z</time>
      </trkpt>
      <trkpt lat="27.76887000" lon="-15.5497840">
        <ele>56.803000</ele>
        <time>2009-01-05T09:12:21Z</time>
      </trkpt>
      <trkpt lat="27.76883100" lon="-15.5498690">
        <ele>56.587000</ele>
        <time>2009-01-05T09:12:22Z</time>
      </trkpt>
      <trkpt lat="27.76878900" lon="-15.5499560">
        <ele>56.127000</ele>
        <time>2009-01-05T09:12:23Z</time>
      </trkpt>
      <trkpt lat="27.76874500" lon="-15.5500450">
        <ele>55.308000</ele>
        <time>2009-01-05T09:12:24Z</time>
      </trkpt>
      <trkpt lat="27.76869800" lon="-15.5501350">
        <ele>55.213000</ele>
        <time>2009-01-05T09:12:25Z</time>
      </trkpt>
      <trkpt lat="27.76865100" lon="-15.5502260">
        <ele>54.499000</ele>
        <time>2009-01-05T09:12:26Z</time>
      </trkpt>
      <trkpt lat="27.76860100" lon="-15.5503200">
        <ele>54.208000</ele>
        <time>2009-01-05T09:12:27Z</time>
      </trkpt>
      <trkpt lat="27.76854900" lon="-15.5504150">
        <ele>53.807000</ele>
        <time>2009-01-05T09:12:28Z</time>
      </trkpt>
      <trkpt lat="27.76849700" lon="-15.5505120">
        <ele>52.995000</ele>
        <time>2009-01-05T09:12:29Z</time>
      </trkpt>
      <trkpt lat="27.76844600" lon="-15.5506120">
        <ele>52.461000</ele>
        <time>2009-01-05T09:12:30Z</time>
      </trkpt>
      <trkpt lat="27.76839500" lon="-15.5507120">
        <ele>51.493000</ele>
        <time>2009-01-05T09:12:31Z</time>
      </trkpt>
      <trkpt lat="27.76834100" lon="-15.5508140">
        <ele>51.121000</ele>
        <time>2009-01-05T09:12:32Z</time>
      </trkpt>
      <trkpt lat="27.76828700" lon="-15.5509160">
        <ele>50.713000</ele>
        <time>2009-01-05T09:12:33Z</time>
      </trkpt>
      <trkpt lat="27.76823300" lon="-15.5510190">
        <ele>50.406000</ele>
        <time>2009-01-05T09:12:34Z</time>
      </trkpt>
      <trkpt lat="27.76817900" lon="-15.5511220">
        <ele>49.753000</ele>
        <time>2009-01-05T09:12:35Z</time>
      </trkpt>
      <trkpt lat="27.76812300" lon="-15.5512250">
        <ele>49.060000</ele>
        <time>2009-01-05T09:12:36Z</time>
      </trkpt>
      <trkpt lat="27.76806800" lon="-15.5513280">
        <ele>48.676000</ele>
        <time>2009-01-05T09:12:37Z</time>
      </trkpt>
      <trkpt lat="27.76801200" lon="-15.5514310">
        <ele>47.933000</ele>
        <time>2009-01-05T09:12:38Z</time>
      </trkpt>
      <trkpt lat="27.76795700" lon="-15.5515340">
        <ele>47.686000</ele>
        <time>2009-01-05T09:12:39Z</time>
      </trkpt>
      <trkpt lat="27.76790300" lon="-15.5516370">
        <ele>47.355000</ele>
        <time>2009-01-05T09:12:40Z</time>
      </trkpt>
      <trkpt lat="27.76784900" lon="-15.5517400">
        <ele>47.037000</ele>
        <time>2009-01-05T09:12:41Z</time>
      </trkpt>
      <trkpt lat="27.76779500" lon="-15.5518430">
        <ele>46.494000</ele>
        <time>2009-01-05T09:12:42Z</time>
      </trkpt>
      <trkpt lat="27.76774100" lon="-15.5519440">
        <ele>46.115000</ele>
        <time>2009-01-05T09:12:43Z</time>
      </trkpt>
      <trkpt lat="27.76768700" lon="-15.5520460">
        <ele>46.037000</ele>
        <time>2009-01-05T09:12:44Z</time>
      </trkpt>
      <trkpt lat="27.76763400" lon="-15.5521480">
        <ele>45.502000</ele>
        <time>2009-01-05T09:12:45Z</time>
      </trkpt>
      <trkpt lat="27.76758100" lon="-15.5522490">
        <ele>45.096000</ele>
        <time>2009-01-05T09:12:46Z</time>
      </trkpt>
      <trkpt lat="27.76752700" lon="-15.5523500">
        <ele>44.482000</ele>
        <time>2009-01-05T09:12:47Z</time>
      </trkpt>
      <trkpt lat="27.76747300" lon="-15.5524500">
        <ele>44.100000</ele>
        <time>2009-01-05T09:12:48Z</time>
      </trkpt>
      <trkpt lat="27.76742000" lon="-15.5525500">
        <ele>44.196000</ele>
        <time>2009-01-05T09:12:49Z</time>
      </trkpt>
      <trkpt lat="27.76736700" lon="-15.5526500">
        <ele>43.418000</ele>
        <time>2009-01-05T09:12:50Z</time>
      </trkpt>
      <trkpt lat="27.76731400" lon="-15.5527520">
        <ele>43.165000</ele>
        <time>2009-01-05T09:12:51Z</time>
      </trkpt>
      <trkpt lat="27.76726100" lon="-15.5528540">
        <ele>42.598000</ele>
        <time>2009-01-05T09:12:52Z</time>
      </trkpt>
      <trkpt lat="27.76720800" lon="-15.5529550">
        <ele>42.255000</ele>
        <time>2009-01-05T09:12:53Z</time>
      </trkpt>
      <trkpt lat="27.76715600" lon="-15.5530550">
        <ele>42.578000</ele>
        <time>2009-01-05T09:12:54Z</time>
      </trkpt>
      <trkpt lat="27.76710400" lon="-15.5531550">
        <ele>41.363000</ele>
        <time>2009-01-05T09:12:55Z</time>
      </trkpt>
      <trkpt lat="27.76705300" lon="-15.5532520">
        <ele>41.017000</ele>
        <time>2009-01-05T09:12:56Z</time>
      </trkpt>
      <trkpt lat="27.76700300" lon="-15.5533490">
        <ele>40.346000</ele>
        <time>2009-01-05T09:12:57Z</time>
      </trkpt>
      <trkpt lat="27.76695300" lon="-15.5534460">
        <ele>40.878000</ele>
        <time>2009-01-05T09:12:58Z</time>
      </trkpt>
      <trkpt lat="27.76690400" lon="-15.5535400">
        <ele>41.171000</ele>
        <time>2009-01-05T09:12:59Z</time>
      </trkpt>
      <trkpt lat="27.76685600" lon="-15.5536330">
        <ele>40.482000</ele>
        <time>2009-01-05T09:13:00Z</time>
      </trkpt>
      <trkpt lat="27.76680800" lon="-15.5537240">
        <ele>40.563000</ele>
        <time>2009-01-05T09:13:01Z</time>
      </trkpt>
      <trkpt lat="27.76676100" lon="-15.5538120">
        <ele>40.724000</ele>
        <time>2009-01-05T09:13:02Z</time>
      </trkpt>
      <trkpt lat="27.76671600" lon="-15.5538990">
        <ele>40.243000</ele>
        <time>2009-01-05T09:13:03Z</time>
      </trkpt>
      <trkpt lat="27.76667100" lon="-15.5539850">
        <ele>40.116000</ele>
        <time>2009-01-05T09:13:04Z</time>
      </trkpt>
      <trkpt lat="27.76662800" lon="-15.5540700">
        <ele>40.101000</ele>
        <time>2009-01-05T09:13:05Z</time>
      </trkpt>
      <trkpt lat="27.76658800" lon="-15.5541520">
        <ele>39.876000</ele>
        <time>2009-01-05T09:13:06Z</time>
      </trkpt>
      <trkpt lat="27.76654600" lon="-15.5542340">
        <ele>40.056000</ele>
        <time>2009-01-05T09:13:07Z</time>
      </trkpt>
      <trkpt lat="27.76650500" lon="-15.5543170">
        <ele>39.480000</ele>
        <time>2009-01-05T09:13:08Z</time>
      </trkpt>
      <trkpt lat="27.76646300" lon="-15.5543980">
        <ele>39.139000</ele>
        <time>2009-01-05T09:13:09Z</time>
      </trkpt>
      <trkpt lat="27.76642000" lon="-15.5544790">
        <ele>39.835000</ele>
        <time>2009-01-05T09:13:10Z</time>
      </trkpt>
      <trkpt lat="27.76637900" lon="-15.5545600">
        <ele>39.528000</ele>
        <time>2009-01-05T09:13:11Z</time>
      </trkpt>
      <trkpt lat="27.76633800" lon="-15.5546400">
        <ele>39.312000</ele>
        <time>2009-01-05T09:13:12Z</time>
      </trkpt>
      <trkpt lat="27.76629800" lon="-15.5547190">
        <ele>40.340000</ele>
        <time>2009-01-05T09:13:13Z</time>
      </trkpt>
      <trkpt lat="27.76625900" lon="-15.5547980">
        <ele>40.209000</ele>
        <time>2009-01-05T09:13:14Z</time>
      </trkpt>
      <trkpt lat="27.76622100" lon="-15.5548760">
        <ele>40.000000</ele>
        <time>2009-01-05T09:13:15Z</time>
      </trkpt>
      <trkpt lat="27.76618500" lon="-15.5549520">
        <ele>40.417000</ele>
        <time>2009-01-05T09:13:16Z</time>
      </trkpt>
      <trkpt lat="27.76614900" lon="-15.5550270">
        <ele>40.164000</ele>
        <time>2009-01-05T09:13:17Z</time>
      </trkpt>
      <trkpt lat="27.76611400" lon="-15.5551000">
        <ele>40.328000</ele>
        <time>2009-01-05T09:13:18Z</time>
      </trkpt>
      <trkpt lat="27.76607900" lon="-15.5551720">
        <ele>40.114000</ele>
        <time>2009-01-05T09:13:19Z</time>
      </trkpt>
      <trkpt lat="27.76604500" lon="-15.5552430">
        <ele>39.889000</ele>
        <time>2009-01-05T09:13:20Z</time>
      </trkpt>
      <trkpt lat="27.76601300" lon="-15.5553120">
        <ele>40.515000</ele>
        <time>2009-01-05T09:13:21Z</time>
      </trkpt>
      <trkpt lat="27.76598200" lon="-15.5553810">
        <ele>39.997000</ele>
        <time>2009-01-05T09:13:22Z</time>
      </trkpt>
      <trkpt lat="27.76595100" lon="-15.5554490">
        <ele>39.804000</ele>
        <time>2009-01-05T09:13:23Z</time>
      </trkpt>
      <trkpt lat="27.76592100" lon="-15.5555160">
        <ele>40.164000</ele>
        <time>2009-01-05T09:13:24Z</time>
      </trkpt>
      <trkpt lat="27.76589200" lon="-15.5555830">
        <ele>39.868000</ele>
        <time>2009-01-05T09:13:25Z</time>
      </trkpt>
      <trkpt lat="27.76586500" lon="-15.5556500">
        <ele>40.050000</ele>
        <time>2009-01-05T09:13:26Z</time>
      </trkpt>
      <trkpt lat="27.76583900" lon="-15.5557170">
        <ele>39.572000</ele>
        <time>2009-01-05T09:13:27Z</time>
      </trkpt>
      <trkpt lat="27.76581400" lon="-15.5557830">
        <ele>39.564000</ele>
        <time>2009-01-05T09:13:28Z</time>
      </trkpt>
      <trkpt lat="27.76579100" lon="-15.5558480">
        <ele>40.312000</ele>
        <time>2009-01-05T09:13:29Z</time>
      </trkpt>
      <trkpt lat="27.76576900" lon="-15.5559140">
        <ele>38.981000</ele>
        <time>2009-01-05T09:13:30Z</time>
      </trkpt>
      <trkpt lat="27.76575000" lon="-15.5559800">
        <ele>39.531000</ele>
        <time>2009-01-05T09:13:31Z</time>
      </trkpt>
      <trkpt lat="27.76573200" lon="-15.5560450">
        <ele>38.815000</ele>
        <time>2009-01-05T09:13:32Z</time>
      </trkpt>
      <trkpt lat="27.76571600" lon="-15.5561120">
        <ele>38.892000</ele>
        <time>2009-01-05T09:13:33Z</time>
      </trkpt>
      <trkpt lat="27.76570200" lon="-15.5561780">
        <ele>38.920000</ele>
        <time>2009-01-05T09:13:34Z</time>
      </trkpt>
      <trkpt lat="27.76568800" lon="-15.5562430">
        <ele>38.719000</ele>
        <time>2009-01-05T09:13:35Z</time>
      </trkpt>
      <trkpt lat="27.76567400" lon="-15.5563100">
        <ele>38.966000</ele>
        <time>2009-01-05T09:13:36Z</time>
      </trkpt>
      <trkpt lat="27.76566000" lon="-15.5563780">
        <ele>38.586000</ele>
        <time>2009-01-05T09:13:37Z</time>
      </trkpt>
      <trkpt lat="27.76564500" lon="-15.5564460">
        <ele>38.568000</ele>
        <time>2009-01-05T09:13:38Z</time>
      </trkpt>
      <trkpt lat="27.76563200" lon="-15.5565130">
        <ele>38.616000</ele>
        <time>2009-01-05T09:13:39Z</time>
      </trkpt>
      <trkpt lat="27.76561900" lon="-15.5565830">
        <ele>38.945000</ele>
        <time>2009-01-05T09:13:40Z</time>
      </trkpt>
      <trkpt lat="27.76560700" lon="-15.5566530">
        <ele>38.694000</ele>
        <time>2009-01-05T09:13:41Z</time>
      </trkpt>
      <trkpt lat="27.76559500" lon="-15.5567240">
        <ele>38.560000</ele>
        <time>2009-01-05T09:13:42Z</time>
      </trkpt>
      <trkpt lat="27.76558300" lon="-15.5567950">
        <ele>38.491000</ele>
        <time>2009-01-05T09:13:43Z</time>
      </trkpt>
      <trkpt lat="27.76557100" lon="-15.5568670">
        <ele>38.447000</ele>
        <time>2009-01-05T09:13:44Z</time>
      </trkpt>
      <trkpt lat="27.76555900" lon="-15.5569400">
        <ele>38.416000</ele>
        <time>2009-01-05T09:13:45Z</time>
      </trkpt>
      <trkpt lat="27.76554900" lon="-15.5570130">
        <ele>38.498000</ele>
        <time>2009-01-05T09:13:46Z</time>
      </trkpt>
      <trkpt lat="27.76554100" lon="-15.5570870">
        <ele>38.306000</ele>
        <time>2009-01-05T09:13:47Z</time>
      </trkpt>
      <trkpt lat="27.76553500" lon="-15.5571610">
        <ele>38.377000</ele>
        <time>2009-01-05T09:13:48Z</time>
      </trkpt>
      <trkpt lat="27.76552800" lon="-15.5572360">
        <ele>37.926000</ele>
        <time>2009-01-05T09:13:49Z</time>
      </trkpt>
      <trkpt lat="27.76552200" lon="-15.5573120">
        <ele>38.243000</ele>
        <time>2009-01-05T09:13:50Z</time>
      </trkpt>
      <trkpt lat="27.76552100" lon="-15.5573870">
        <ele>38.368000</ele>
        <time>2009-01-05T09:13:51Z</time>
      </trkpt>
      <trkpt lat="27.76552100" lon="-15.5574620">
        <ele>38.263000</ele>
        <time>2009-01-05T09:13:52Z</time>
      </trkpt>
      <trkpt lat="27.76552200" lon="-15.5575380">
        <ele>37.761000</ele>
        <time>2009-01-05T09:13:53Z</time>
      </trkpt>
      <trkpt lat="27.76552400" lon="-15.5576140">
        <ele>38.062000</ele>
        <time>2009-01-05T09:13:54Z</time>
      </trkpt>
      <trkpt lat="27.76553000" lon="-15.5576870">
        <ele>38.081000</ele>
        <time>2009-01-05T09:13:55Z</time>
      </trkpt>
      <trkpt lat="27.76553600" lon="-15.5577580">
        <ele>38.345000</ele>
        <time>2009-01-05T09:13:56Z</time>
      </trkpt>
      <trkpt lat="27.76554300" lon="-15.5578270">
        <ele>38.486000</ele>
        <time>2009-01-05T09:13:57Z</time>
      </trkpt>
      <trkpt lat="27.76555100" lon="-15.5578920">
        <ele>38.956000</ele>
        <time>2009-01-05T09:13:58Z</time>
      </trkpt>
      <trkpt lat="27.76555900" lon="-15.5579520">
        <ele>39.136000</ele>
        <time>2009-01-05T09:13:59Z</time>
      </trkpt>
      <trkpt lat="27.76556700" lon="-15.5580100">
        <ele>39.411000</ele>
        <time>2009-01-05T09:14:00Z</time>
      </trkpt>
      <trkpt lat="27.76557700" lon="-15.5580660">
        <ele>39.513000</ele>
        <time>2009-01-05T09:14:01Z</time>
      </trkpt>
      <trkpt lat="27.76558600" lon="-15.5581220">
        <ele>39.653000</ele>
        <time>2009-01-05T09:14:02Z</time>
      </trkpt>
      <trkpt lat="27.76559600" lon="-15.5581780">
        <ele>40.102000</ele>
        <time>2009-01-05T09:14:03Z</time>
      </trkpt>
      <trkpt lat="27.76560700" lon="-15.5582340">
        <ele>40.175000</ele>
        <time>2009-01-05T09:14:04Z</time>
      </trkpt>
      <trkpt lat="27.76561800" lon="-15.5582900">
        <ele>40.415000</ele>
        <time>2009-01-05T09:14:05Z</time>
      </trkpt>
      <trkpt lat="27.76562800" lon="-15.5583450">
        <ele>40.737000</ele>
        <time>2009-01-05T09:14:06Z</time>
      </trkpt>
      <trkpt lat="27.76563700" lon="-15.5584010">
        <ele>40.828000</ele>
        <time>2009-01-05T09:14:07Z</time>
      </trkpt>
      <trkpt lat="27.76564600" lon="-15.5584560">
        <ele>41.171000</ele>
        <time>2009-01-05T09:14:08Z</time>
      </trkpt>
      <trkpt lat="27.76565600" lon="-15.5585100">
        <ele>41.397000</ele>
        <time>2009-01-05T09:14:09Z</time>
      </trkpt>
      <trkpt lat="27.76566600" lon="-15.5585630">
        <ele>41.686000</ele>
        <time>2009-01-05T09:14:10Z</time>
      </trkpt>
      <trkpt lat="27.76567400" lon="-15.5586150">
        <ele>41.994000</ele>
        <time>2009-01-05T09:14:11Z</time>
      </trkpt>
      <trkpt lat="27.76568300" lon="-15.5586690">
        <ele>42.201000</ele>
        <time>2009-01-05T09:14:12Z</time>
      </trkpt>
      <trkpt lat="27.76569200" lon="-15.5587210">
        <ele>42.368000</ele>
        <time>2009-01-05T09:14:13Z</time>
      </trkpt>
      <trkpt lat="27.76570200" lon="-15.5587730">
        <ele>42.425000</ele>
        <time>2009-01-05T09:14:14Z</time>
      </trkpt>
      <trkpt lat="27.76571100" lon="-15.5588250">
        <ele>43.277000</ele>
        <time>2009-01-05T09:14:15Z</time>
      </trkpt>
      <trkpt lat="27.76572200" lon="-15.5588760">
        <ele>43.055000</ele>
        <time>2009-01-05T09:14:16Z</time>
      </trkpt>
      <trkpt lat="27.76573100" lon="-15.5589270">
        <ele>43.484000</ele>
        <time>2009-01-05T09:14:17Z</time>
      </trkpt>
      <trkpt lat="27.76574000" lon="-15.5589760">
        <ele>43.839000</ele>
        <time>2009-01-05T09:14:18Z</time>
      </trkpt>
      <trkpt lat="27.76574900" lon="-15.5590250">
        <ele>44.421000</ele>
        <time>2009-01-05T09:14:19Z</time>
      </trkpt>
      <trkpt lat="27.76575700" lon="-15.5590740">
        <ele>44.242000</ele>
        <time>2009-01-05T09:14:20Z</time>
      </trkpt>
      <trkpt lat="27.76576500" lon="-15.5591220">
        <ele>44.380000</ele>
        <time>2009-01-05T09:14:21Z</time>
      </trkpt>
      <trkpt lat="27.76577400" lon="-15.5591710">
        <ele>44.454000</ele>
        <time>2009-01-05T09:14:22Z</time>
      </trkpt>
      <trkpt lat="27.76578300" lon="-15.5592190">
        <ele>44.656000</ele>
        <time>2009-01-05T09:14:23Z</time>
      </trkpt>
      <trkpt lat="27.76579200" lon="-15.5592670">
        <ele>44.789000</ele>
        <time>2009-01-05T09:14:24Z</time>
      </trkpt>
      <trkpt lat="27.76580000" lon="-15.5593140">
        <ele>44.890000</ele>
        <time>2009-01-05T09:14:25Z</time>
      </trkpt>
      <trkpt lat="27.76580800" lon="-15.5593600">
        <ele>45.498000</ele>
        <time>2009-01-05T09:14:26Z</time>
      </trkpt>
      <trkpt lat="27.76581600" lon="-15.5594060">
        <ele>45.552000</ele>
        <time>2009-01-05T09:14:27Z</time>
      </trkpt>
      <trkpt lat="27.76582400" lon="-15.5594530">
        <ele>45.489000</ele>
        <time>2009-01-05T09:14:28Z</time>
      </trkpt>
      <trkpt lat="27.76583100" lon="-15.5594990">
        <ele>45.976000</ele>
        <time>2009-01-05T09:14:29Z</time>
      </trkpt>
      <trkpt lat="27.76583800" lon="-15.5595450">
        <ele>45.919000</ele>
        <time>2009-01-05T09:14:30Z</time>
      </trkpt>
      <trkpt lat="27.76584300" lon="-15.5595900">
        <ele>46.195000</ele>
        <time>2009-01-05T09:14:31Z</time>
      </trkpt>
      <trkpt lat="27.76584700" lon="-15.5596360">
        <ele>46.148000</ele>
        <time>2009-01-05T09:14:32Z</time>
      </trkpt>
      <trkpt lat="27.76585100" lon="-15.5596810">
        <ele>46.147000</ele>
        <time>2009-01-05T09:14:33Z</time>
      </trkpt>
      <trkpt lat="27.76585400" lon="-15.5597270">
        <ele>47.400000</ele>
        <time>2009-01-05T09:14:34Z</time>
      </trkpt>
      <trkpt lat="27.76585700" lon="-15.5597730">
        <ele>47.283000</ele>
        <time>2009-01-05T09:14:35Z</time>
      </trkpt>
      <trkpt lat="27.76585900" lon="-15.5598190">
        <ele>47.051000</ele>
        <time>2009-01-05T09:14:36Z</time>
      </trkpt>
      <trkpt lat="27.76586000" lon="-15.5598660">
        <ele>46.994000</ele>
        <time>2009-01-05T09:14:37Z</time>
      </trkpt>
      <trkpt lat="27.76586100" lon="-15.5599140">
        <ele>47.177000</ele>
        <time>2009-01-05T09:14:38Z</time>
      </trkpt>
      <trkpt lat="27.76586100" lon="-15.5599610">
        <ele>47.834000</ele>
        <time>2009-01-05T09:14:39Z</time>
      </trkpt>
      <trkpt lat="27.76586000" lon="-15.5600070">
        <ele>48.102000</ele>
        <time>2009-01-05T09:14:40Z</time>
      </trkpt>
      <trkpt lat="27.76585700" lon="-15.5600540">
        <ele>47.832000</ele>
        <time>2009-01-05T09:14:41Z</time>
      </trkpt>
      <trkpt lat="27.76585400" lon="-15.5601020">
        <ele>48.108000</ele>
        <time>2009-01-05T09:14:42Z</time>
      </trkpt>
      <trkpt lat="27.76585000" lon="-15.5601490">
        <ele>48.368000</ele>
        <time>2009-01-05T09:14:43Z</time>
      </trkpt>
      <trkpt lat="27.76584400" lon="-15.5601970">
        <ele>48.523000</ele>
        <time>2009-01-05T09:14:44Z</time>
      </trkpt>
      <trkpt lat="27.76583700" lon="-15.5602460">
        <ele>48.609000</ele>
        <time>2009-01-05T09:14:45Z</time>
      </trkpt>
      <trkpt lat="27.76583000" lon="-15.5602930">
        <ele>48.785000</ele>
        <time>2009-01-05T09:14:46Z</time>
      </trkpt>
      <trkpt lat="27.76582200" lon="-15.5603400">
        <ele>49.307000</ele>
        <time>2009-01-05T09:14:47Z</time>
      </trkpt>
      <trkpt lat="27.76581200" lon="-15.5603870">
        <ele>49.185000</ele>
        <time>2009-01-05T09:14:48Z</time>
      </trkpt>
      <trkpt lat="27.76580100" lon="-15.5604340">
        <ele>49.699000</ele>
        <time>2009-01-05T09:14:49Z</time>
      </trkpt>
      <trkpt lat="27.76578900" lon="-15.5604810">
        <ele>49.434000</ele>
        <time>2009-01-05T09:14:50Z</time>
      </trkpt>
      <trkpt lat="27.76577700" lon="-15.5605280">
        <ele>49.351000</ele>
        <time>2009-01-05T09:14:51Z</time>
      </trkpt>
      <trkpt lat="27.76576400" lon="-15.5605740">
        <ele>50.463000</ele>
        <time>2009-01-05T09:14:52Z</time>
      </trkpt>
      <trkpt lat="27.76575000" lon="-15.5606210">
        <ele>49.808000</ele>
        <time>2009-01-05T09:14:53Z</time>
      </trkpt>
      <trkpt lat="27.76573600" lon="-15.5606680">
        <ele>49.611000</ele>
        <time>2009-01-05T09:14:54Z</time>
      </trkpt>
      <trkpt lat="27.76572100" lon="-15.5607140">
        <ele>50.419000</ele>
        <time>2009-01-05T09:14:55Z</time>
      </trkpt>
      <trkpt lat="27.76570600" lon="-15.5607610">
        <ele>50.213000</ele>
        <time>2009-01-05T09:14:56Z</time>
      </trkpt>
      <trkpt lat="27.76569000" lon="-15.5608060">
        <ele>51.332000</ele>
        <time>2009-01-05T09:14:57Z</time>
      </trkpt>
      <trkpt lat="27.76567300" lon="-15.5608510">
        <ele>50.135000</ele>
        <time>2009-01-05T09:14:58Z</time>
      </trkpt>
      <trkpt lat="27.76565600" lon="-15.5608960">
        <ele>51.432000</ele>
        <time>2009-01-05T09:14:59Z</time>
      </trkpt>
      <trkpt lat="27.76564000" lon="-15.5609410">
        <ele>50.861000</ele>
        <time>2009-01-05T09:15:00Z</time>
      </trkpt>
      <trkpt lat="27.76562400" lon="-15.5609870">
        <ele>51.124000</ele>
        <time>2009-01-05T09:15:01Z</time>
      </trkpt>
      <trkpt lat="27.76560900" lon="-15.5610310">
        <ele>51.193000</ele>
        <time>2009-01-05T09:15:02Z</time>
      </trkpt>
      <trkpt lat="27.76559300" lon="-15.5610760">
        <ele>51.192000</ele>
        <time>2009-01-05T09:15:03Z</time>
      </trkpt>
      <trkpt lat="27.76557700" lon="-15.5611200">
        <ele>52.334000</ele>
        <time>2009-01-05T09:15:04Z</time>
      </trkpt>
      <trkpt lat="27.76556100" lon="-15.5611640">
        <ele>51.401000</ele>
        <time>2009-01-05T09:15:05Z</time>
      </trkpt>
      <trkpt lat="27.76554300" lon="-15.5612080">
        <ele>51.781000</ele>
        <time>2009-01-05T09:15:06Z</time>
      </trkpt>
      <trkpt lat="27.76552600" lon="-15.5612510">
        <ele>52.156000</ele>
        <time>2009-01-05T09:15:07Z</time>
      </trkpt>
      <trkpt lat="27.76551000" lon="-15.5612940">
        <ele>52.655000</ele>
        <time>2009-01-05T09:15:08Z</time>
      </trkpt>
      <trkpt lat="27.76549400" lon="-15.5613370">
        <ele>52.526000</ele>
        <time>2009-01-05T09:15:09Z</time>
      </trkpt>
      <trkpt lat="27.76547800" lon="-15.5613800">
        <ele>52.816000</ele>
        <time>2009-01-05T09:15:10Z</time>
      </trkpt>
      <trkpt lat="27.76546200" lon="-15.5614220">
        <ele>52.700000</ele>
        <time>2009-01-05T09:15:11Z</time>
      </trkpt>
      <trkpt lat="27.76544700" lon="-15.5614640">
        <ele>52.666000</ele>
        <time>2009-01-05T09:15:12Z</time>
      </trkpt>
      <trkpt lat="27.76543200" lon="-15.5615050">
        <ele>52.835000</ele>
        <time>2009-01-05T09:15:13Z</time>
      </trkpt>
      <trkpt lat="27.76541700" lon="-15.5615470">
        <ele>53.055000</ele>
        <time>2009-01-05T09:15:14Z</time>
      </trkpt>
      <trkpt lat="27.76540100" lon="-15.5615880">
        <ele>53.470000</ele>
        <time>2009-01-05T09:15:15Z</time>
      </trkpt>
      <trkpt lat="27.76538500" lon="-15.5616300">
        <ele>53.535000</ele>
        <time>2009-01-05T09:15:16Z</time>
      </trkpt>
      <trkpt lat="27.76537000" lon="-15.5616710">
        <ele>53.599000</ele>
        <time>2009-01-05T09:15:17Z</time>
      </trkpt>
      <trkpt lat="27.76535600" lon="-15.5617120">
        <ele>53.692000</ele>
        <time>2009-01-05T09:15:18Z</time>
      </trkpt>
      <trkpt lat="27.76534000" lon="-15.5617530">
        <ele>53.896000</ele>
        <time>2009-01-05T09:15:19Z</time>
      </trkpt>
      <trkpt lat="27.76532500" lon="-15.5617940">
        <ele>54.175000</ele>
        <time>2009-01-05T09:15:20Z</time>
      </trkpt>
      <trkpt lat="27.76530900" lon="-15.5618340">
        <ele>54.174000</ele>
        <time>2009-01-05T09:15:21Z</time>
      </trkpt>
      <trkpt lat="27.76529400" lon="-15.5618740">
        <ele>54.199000</ele>
        <time>2009-01-05T09:15:22Z</time>
      </trkpt>
      <trkpt lat="27.76527900" lon="-15.5619140">
        <ele>54.541000</ele>
        <time>2009-01-05T09:15:23Z</time>
      </trkpt>
      <trkpt lat="27.76526400" lon="-15.5619540">
        <ele>54.722000</ele>
        <time>2009-01-05T09:15:24Z</time>
      </trkpt>
      <trkpt lat="27.76524900" lon="-15.5619940">
        <ele>54.938000</ele>
        <time>2009-01-05T09:15:25Z</time>
      </trkpt>
      <trkpt lat="27.76523500" lon="-15.5620350">
        <ele>55.191000</ele>
        <time>2009-01-05T09:15:26Z</time>
      </trkpt>
      <trkpt lat="27.76522100" lon="-15.5620760">
        <ele>55.314000</ele>
        <time>2009-01-05T09:15:27Z</time>
      </trkpt>
      <trkpt lat="27.76520600" lon="-15.5621160">
        <ele>55.366000</ele>
        <time>2009-01-05T09:15:28Z</time>
      </trkpt>
      <trkpt lat="27.76519100" lon="-15.5621560">
        <ele>55.569000</ele>
        <time>2009-01-05T09:15:29Z</time>
      </trkpt>
      <trkpt lat="27.76517600" lon="-15.5621970">
        <ele>55.515000</ele>
        <time>2009-01-05T09:15:30Z</time>
      </trkpt>
      <trkpt lat="27.76516100" lon="-15.5622370">
        <ele>55.948000</ele>
        <time>2009-01-05T09:15:31Z</time>
      </trkpt>
      <trkpt lat="27.76514500" lon="-15.5622780">
        <ele>56.378000</ele>
        <time>2009-01-05T09:15:32Z</time>
      </trkpt>
      <trkpt lat="27.76513000" lon="-15.5623200">
        <ele>56.235000</ele>
        <time>2009-01-05T09:15:33Z</time>
      </trkpt>
      <trkpt lat="27.76511600" lon="-15.5623620">
        <ele>56.894000</ele>
        <time>2009-01-05T09:15:34Z</time>
      </trkpt>
      <trkpt lat="27.76510100" lon="-15.5624040">
        <ele>57.021000</ele>
        <time>2009-01-05T09:15:35Z</time>
      </trkpt>
      <trkpt lat="27.76508500" lon="-15.5624460">
        <ele>56.893000</ele>
        <time>2009-01-05T09:15:36Z</time>
      </trkpt>
      <trkpt lat="27.76506900" lon="-15.5624880">
        <ele>57.077000</ele>
        <time>2009-01-05T09:15:37Z</time>
      </trkpt>
      <trkpt lat="27.76505400" lon="-15.5625280">
        <ele>57.404000</ele>
        <time>2009-01-05T09:15:38Z</time>
      </trkpt>
      <trkpt lat="27.76503900" lon="-15.5625690">
        <ele>57.642000</ele>
        <time>2009-01-05T09:15:39Z</time>
      </trkpt>
      <trkpt lat="27.76502500" lon="-15.5626100">
        <ele>57.908000</ele>
        <time>2009-01-05T09:15:40Z</time>
      </trkpt>
      <trkpt lat="27.76501000" lon="-15.5626510">
        <ele>58.240000</ele>
        <time>2009-01-05T09:15:41Z</time>
      </trkpt>
      <trkpt lat="27.76499400" lon="-15.5626940">
        <ele>58.346000</ele>
        <time>2009-01-05T09:15:42Z</time>
      </trkpt>
      <trkpt lat="27.76497900" lon="-15.5627370">
        <ele>58.787000</ele>
        <time>2009-01-05T09:15:43Z</time>
      </trkpt>
      <trkpt lat="27.76496400" lon="-15.5627800">
        <ele>58.971000</ele>
        <time>2009-01-05T09:15:44Z</time>
      </trkpt>
      <trkpt lat="27.76494900" lon="-15.5628240">
        <ele>59.056000</ele>
        <time>2009-01-05T09:15:45Z</time>
      </trkpt>
      <trkpt lat="27.76493300" lon="-15.5628670">
        <ele>58.915000</ele>
        <time>2009-01-05T09:15:46Z</time>
      </trkpt>
      <trkpt lat="27.76491700" lon="-15.5629110">
        <ele>58.704000</ele>
        <time>2009-01-05T09:15:47Z</time>
      </trkpt>
      <trkpt lat="27.76490100" lon="-15.5629550">
        <ele>59.737000</ele>
        <time>2009-01-05T09:15:48Z</time>
      </trkpt>
      <trkpt lat="27.76488400" lon="-15.5629990">
        <ele>59.447000</ele>
        <time>2009-01-05T09:15:49Z</time>
      </trkpt>
      <trkpt lat="27.76486700" lon="-15.5630420">
        <ele>59.035000</ele>
        <time>2009-01-05T09:15:50Z</time>
      </trkpt>
      <trkpt lat="27.76485000" lon="-15.5630870">
        <ele>60.041000</ele>
        <time>2009-01-05T09:15:51Z</time>
      </trkpt>
      <trkpt lat="27.76483400" lon="-15.5631310">
        <ele>59.494000</ele>
        <time>2009-01-05T09:15:52Z</time>
      </trkpt>
      <trkpt lat="27.76481900" lon="-15.5631770">
        <ele>59.724000</ele>
        <time>2009-01-05T09:15:53Z</time>
      </trkpt>
      <trkpt lat="27.76480300" lon="-15.5632230">
        <ele>59.650000</ele>
        <time>2009-01-05T09:15:54Z</time>
      </trkpt>
      <trkpt lat="27.76478700" lon="-15.5632700">
        <ele>59.587000</ele>
        <time>2009-01-05T09:15:55Z</time>
      </trkpt>
      <trkpt lat="27.76477100" lon="-15.5633170">
        <ele>59.696000</ele>
        <time>2009-01-05T09:15:56Z</time>
      </trkpt>
      <trkpt lat="27.76475500" lon="-15.5633650">
        <ele>59.775000</ele>
        <time>2009-01-05T09:15:57Z</time>
      </trkpt>
      <trkpt lat="27.76473900" lon="-15.5634130">
        <ele>60.204000</ele>
        <time>2009-01-05T09:15:58Z</time>
      </trkpt>
      <trkpt lat="27.76472400" lon="-15.5634630">
        <ele>60.598000</ele>
        <time>2009-01-05T09:15:59Z</time>
      </trkpt>
      <trkpt lat="27.76470800" lon="-15.5635120">
        <ele>60.143000</ele>
        <time>2009-01-05T09:16:00Z</time>
      </trkpt>
      <trkpt lat="27.76469200" lon="-15.5635630">
        <ele>60.172000</ele>
        <time>2009-01-05T09:16:01Z</time>
      </trkpt>
      <trkpt lat="27.76467700" lon="-15.5636130">
        <ele>59.757000</ele>
        <time>2009-01-05T09:16:02Z</time>
      </trkpt>
      <trkpt lat="27.76466300" lon="-15.5636640">
        <ele>60.619000</ele>
        <time>2009-01-05T09:16:03Z</time>
      </trkpt>
      <trkpt lat="27.76465000" lon="-15.5637150">
        <ele>60.740000</ele>
        <time>2009-01-05T09:16:04Z</time>
      </trkpt>
      <trkpt lat="27.76463800" lon="-15.5637650">
        <ele>60.719000</ele>
        <time>2009-01-05T09:16:05Z</time>
      </trkpt>
      <trkpt lat="27.76462700" lon="-15.5638170">
        <ele>60.103000</ele>
        <time>2009-01-05T09:16:06Z</time>
      </trkpt>
      <trkpt lat="27.76461700" lon="-15.5638680">
        <ele>60.367000</ele>
        <time>2009-01-05T09:16:07Z</time>
      </trkpt>
      <trkpt lat="27.76460800" lon="-15.5639190">
        <ele>60.977000</ele>
        <time>2009-01-05T09:16:08Z</time>
      </trkpt>
      <trkpt lat="27.76460100" lon="-15.5639680">
        <ele>60.415000</ele>
        <time>2009-01-05T09:16:09Z</time>
      </trkpt>
      <trkpt lat="27.76459500" lon="-15.5640170">
        <ele>60.705000</ele>
        <time>2009-01-05T09:16:10Z</time>
      </trkpt>
      <trkpt lat="27.76458800" lon="-15.5640650">
        <ele>60.626000</ele>
        <time>2009-01-05T09:16:11Z</time>
      </trkpt>
      <trkpt lat="27.76458300" lon="-15.5641150">
        <ele>60.731000</ele>
        <time>2009-01-05T09:16:12Z</time>
      </trkpt>
      <trkpt lat="27.76457800" lon="-15.5641630">
        <ele>61.043000</ele>
        <time>2009-01-05T09:16:13Z</time>
      </trkpt>
      <trkpt lat="27.76457300" lon="-15.5642120">
        <ele>60.855000</ele>
        <time>2009-01-05T09:16:14Z</time>
      </trkpt>
      <trkpt lat="27.76456800" lon="-15.5642610">
        <ele>61.095000</ele>
        <time>2009-01-05T09:16:15Z</time>
      </trkpt>
      <trkpt lat="27.76456500" lon="-15.5643100">
        <ele>61.256000</ele>
        <time>2009-01-05T09:16:16Z</time>
      </trkpt>
      <trkpt lat="27.76456200" lon="-15.5643590">
        <ele>61.206000</ele>
        <time>2009-01-05T09:16:17Z</time>
      </trkpt>
      <trkpt lat="27.76456000" lon="-15.5644050">
        <ele>61.235000</ele>
        <time>2009-01-05T09:16:18Z</time>
      </trkpt>
      <trkpt lat="27.76455700" lon="-15.5644520">
        <ele>61.475000</ele>
        <time>2009-01-05T09:16:19Z</time>
      </trkpt>
      <trkpt lat="27.76455500" lon="-15.5644990">
        <ele>61.182000</ele>
        <time>2009-01-05T09:16:20Z</time>
      </trkpt>
      <trkpt lat="27.76455400" lon="-15.5645450">
        <ele>62.051000</ele>
        <time>2009-01-05T09:16:21Z</time>
      </trkpt>
      <trkpt lat="27.76455400" lon="-15.5645910">
        <ele>61.761000</ele>
        <time>2009-01-05T09:16:22Z</time>
      </trkpt>
      <trkpt lat="27.76455300" lon="-15.5646370">
        <ele>62.220000</ele>
        <time>2009-01-05T09:16:23Z</time>
      </trkpt>
      <trkpt lat="27.76455200" lon="-15.5646820">
        <ele>61.998000</ele>
        <time>2009-01-05T09:16:24Z</time>
      </trkpt>
      <trkpt lat="27.76455200" lon="-15.5647280">
        <ele>61.847000</ele>
        <time>2009-01-05T09:16:25Z</time>
      </trkpt>
      <trkpt lat="27.76455200" lon="-15.5647730">
        <ele>62.235000</ele>
        <time>2009-01-05T09:16:26Z</time>
      </trkpt>
      <trkpt lat="27.76455300" lon="-15.5648190">
        <ele>62.108000</ele>
        <time>2009-01-05T09:16:27Z</time>
      </trkpt>
      <trkpt lat="27.76455500" lon="-15.5648650">
        <ele>62.270000</ele>
        <time>2009-01-05T09:16:28Z</time>
      </trkpt>
      <trkpt lat="27.76455700" lon="-15.5649100">
        <ele>62.473000</ele>
        <time>2009-01-05T09:16:29Z</time>
      </trkpt>
      <trkpt lat="27.76455800" lon="-15.5649550">
        <ele>62.674000</ele>
        <time>2009-01-05T09:16:30Z</time>
      </trkpt>
      <trkpt lat="27.76456000" lon="-15.5650010">
        <ele>62.753000</ele>
        <time>2009-01-05T09:16:31Z</time>
      </trkpt>
      <trkpt lat="27.76456100" lon="-15.5650470">
        <ele>62.912000</ele>
        <time>2009-01-05T09:16:32Z</time>
      </trkpt>
      <trkpt lat="27.76456300" lon="-15.5650920">
        <ele>63.480000</ele>
        <time>2009-01-05T09:16:33Z</time>
      </trkpt>
      <trkpt lat="27.76456400" lon="-15.5651380">
        <ele>63.763000</ele>
        <time>2009-01-05T09:16:34Z</time>
      </trkpt>
      <trkpt lat="27.76456500" lon="-15.5651840">
        <ele>63.834000</ele>
        <time>2009-01-05T09:16:35Z</time>
      </trkpt>
      <trkpt lat="27.76456500" lon="-15.5652310">
        <ele>63.202000</ele>
        <time>2009-01-05T09:16:36Z</time>
      </trkpt>
      <trkpt lat="27.76456600" lon="-15.5652780">
        <ele>63.075000</ele>
        <time>2009-01-05T09:16:37Z</time>
      </trkpt>
      <trkpt lat="27.76456700" lon="-15.5653260">
        <ele>63.432000</ele>
        <time>2009-01-05T09:16:38Z</time>
      </trkpt>
      <trkpt lat="27.76456700" lon="-15.5653740">
        <ele>63.715000</ele>
        <time>2009-01-05T09:16:39Z</time>
      </trkpt>
      <trkpt lat="27.76456900" lon="-15.5654230">
        <ele>63.535000</ele>
        <time>2009-01-05T09:16:40Z</time>
      </trkpt>
      <trkpt lat="27.76457000" lon="-15.5654720">
        <ele>63.533000</ele>
        <time>2009-01-05T09:16:41Z</time>
      </trkpt>
      <trkpt lat="27.76457200" lon="-15.5655200">
        <ele>63.520000</ele>
        <time>2009-01-05T09:16:42Z</time>
      </trkpt>
      <trkpt lat="27.76457300" lon="-15.5655690">
        <ele>63.740000</ele>
        <time>2009-01-05T09:16:43Z</time>
      </trkpt>
      <trkpt lat="27.76457500" lon="-15.5656170">
        <ele>63.574000</ele>
        <time>2009-01-05T09:16:44Z</time>
      </trkpt>
      <trkpt lat="27.76457600" lon="-15.5656660">
        <ele>64.140000</ele>
        <time>2009-01-05T09:16:45Z</time>
      </trkpt>
      <trkpt lat="27.76457800" lon="-15.5657140">
        <ele>64.159000</ele>
        <time>2009-01-05T09:16:46Z</time>
      </trkpt>
      <trkpt lat="27.76457900" lon="-15.5657640">
        <ele>64.086000</ele>
        <time>2009-01-05T09:16:47Z</time>
      </trkpt>
      <trkpt lat="27.76458300" lon="-15.5658130">
        <ele>64.626000</ele>
        <time>2009-01-05T09:16:48Z</time>
      </trkpt>
      <trkpt lat="27.76458500" lon="-15.5658620">
        <ele>64.825000</ele>
        <time>2009-01-05T09:16:49Z</time>
      </trkpt>
      <trkpt lat="27.76458700" lon="-15.5659120">
        <ele>64.411000</ele>
        <time>2009-01-05T09:16:50Z</time>
      </trkpt>
      <trkpt lat="27.76458800" lon="-15.5659610">
        <ele>64.551000</ele>
        <time>2009-01-05T09:16:51Z</time>
      </trkpt>
      <trkpt lat="27.76459000" lon="-15.5660100">
        <ele>64.409000</ele>
        <time>2009-01-05T09:16:52Z</time>
      </trkpt>
      <trkpt lat="27.76459200" lon="-15.5660600">
        <ele>64.814000</ele>
        <time>2009-01-05T09:16:53Z</time>
      </trkpt>
      <trkpt lat="27.76459400" lon="-15.5661090">
        <ele>65.040000</ele>
        <time>2009-01-05T09:16:54Z</time>
      </trkpt>
      <trkpt lat="27.76459700" lon="-15.5661580">
        <ele>65.170000</ele>
        <time>2009-01-05T09:16:55Z</time>
      </trkpt>
      <trkpt lat="27.76459900" lon="-15.5662080">
        <ele>65.232000</ele>
        <time>2009-01-05T09:16:56Z</time>
      </trkpt>
      <trkpt lat="27.76460000" lon="-15.5662570">
        <ele>65.404000</ele>
        <time>2009-01-05T09:16:57Z</time>
      </trkpt>
      <trkpt lat="27.76460200" lon="-15.5663050">
        <ele>65.503000</ele>
        <time>2009-01-05T09:16:58Z</time>
      </trkpt>
      <trkpt lat="27.76460500" lon="-15.5663530">
        <ele>65.649000</ele>
        <time>2009-01-05T09:16:59Z</time>
      </trkpt>
      <trkpt lat="27.76460800" lon="-15.5664030">
        <ele>65.681000</ele>
        <time>2009-01-05T09:17:00Z</time>
      </trkpt>
      <trkpt lat="27.76461100" lon="-15.5664520">
        <ele>65.693000</ele>
        <time>2009-01-05T09:17:01Z</time>
      </trkpt>
      <trkpt lat="27.76461300" lon="-15.5665030">
        <ele>65.720000</ele>
        <time>2009-01-05T09:17:02Z</time>
      </trkpt>
      <trkpt lat="27.76461500" lon="-15.5665530">
        <ele>66.089000</ele>
        <time>2009-01-05T09:17:03Z</time>
      </trkpt>
      <trkpt lat="27.76461700" lon="-15.5666030">
        <ele>65.778000</ele>
        <time>2009-01-05T09:17:04Z</time>
      </trkpt>
      <trkpt lat="27.76462000" lon="-15.5666530">
        <ele>65.936000</ele>
        <time>2009-01-05T09:17:05Z</time>
      </trkpt>
      <trkpt lat="27.76462200" lon="-15.5667030">
        <ele>67.153000</ele>
        <time>2009-01-05T09:17:06Z</time>
      </trkpt>
      <trkpt lat="27.76462400" lon="-15.5667530">
        <ele>66.211000</ele>
        <time>2009-01-05T09:17:07Z</time>
      </trkpt>
      <trkpt lat="27.76462600" lon="-15.5668030">
        <ele>66.571000</ele>
        <time>2009-01-05T09:17:08Z</time>
      </trkpt>
      <trkpt lat="27.76462800" lon="-15.5668520">
        <ele>66.359000</ele>
        <time>2009-01-05T09:17:09Z</time>
      </trkpt>
      <trkpt lat="27.76463100" lon="-15.5669040">
        <ele>65.998000</ele>
        <time>2009-01-05T09:17:10Z</time>
      </trkpt>
      <trkpt lat="27.76463300" lon="-15.5669550">
        <ele>67.282000</ele>
        <time>2009-01-05T09:17:11Z</time>
      </trkpt>
      <trkpt lat="27.76463500" lon="-15.5670070">
        <ele>66.705000</ele>
        <time>2009-01-05T09:17:12Z</time>
      </trkpt>
      <trkpt lat="27.76463700" lon="-15.5670600">
        <ele>66.247000</ele>
        <time>2009-01-05T09:17:13Z</time>
      </trkpt>
      <trkpt lat="27.76463900" lon="-15.5671120">
        <ele>66.802000</ele>
        <time>2009-01-05T09:17:14Z</time>
      </trkpt>
      <trkpt lat="27.76464100" lon="-15.5671650">
        <ele>66.717000</ele>
        <time>2009-01-05T09:17:15Z</time>
      </trkpt>
      <trkpt lat="27.76464300" lon="-15.5672180">
        <ele>66.759000</ele>
        <time>2009-01-05T09:17:16Z</time>
      </trkpt>
      <trkpt lat="27.76464500" lon="-15.5672710">
        <ele>66.642000</ele>
        <time>2009-01-05T09:17:17Z</time>
      </trkpt>
      <trkpt lat="27.76464800" lon="-15.5673230">
        <ele>66.624000</ele>
        <time>2009-01-05T09:17:18Z</time>
      </trkpt>
      <trkpt lat="27.76465000" lon="-15.5673760">
        <ele>66.915000</ele>
        <time>2009-01-05T09:17:19Z</time>
      </trkpt>
      <trkpt lat="27.76465200" lon="-15.5674280">
        <ele>66.322000</ele>
        <time>2009-01-05T09:17:20Z</time>
      </trkpt>
      <trkpt lat="27.76465400" lon="-15.5674810">
        <ele>67.490000</ele>
        <time>2009-01-05T09:17:21Z</time>
      </trkpt>
      <trkpt lat="27.76465600" lon="-15.5675330">
        <ele>67.515000</ele>
        <time>2009-01-05T09:17:22Z</time>
      </trkpt>
      <trkpt lat="27.76465700" lon="-15.5675850">
        <ele>67.401000</ele>
        <time>2009-01-05T09:17:23Z</time>
      </trkpt>
      <trkpt lat="27.76466000" lon="-15.5676380">
        <ele>67.367000</ele>
        <time>2009-01-05T09:17:24Z</time>
      </trkpt>
      <trkpt lat="27.76466200" lon="-15.5676900">
        <ele>67.359000</ele>
        <time>2009-01-05T09:17:25Z</time>
      </trkpt>
      <trkpt lat="27.76466400" lon="-15.5677430">
        <ele>67.944000</ele>
        <time>2009-01-05T09:17:26Z</time>
      </trkpt>
      <trkpt lat="27.76466600" lon="-15.5677950">
        <ele>67.662000</ele>
        <time>2009-01-05T09:17:27Z</time>
      </trkpt>
      <trkpt lat="27.76466800" lon="-15.5678480">
        <ele>67.712000</ele>
        <time>2009-01-05T09:17:28Z</time>
      </trkpt>
      <trkpt lat="27.76467100" lon="-15.5679020">
        <ele>67.760000</ele>
        <time>2009-01-05T09:17:29Z</time>
      </trkpt>
      <trkpt lat="27.76467200" lon="-15.5679560">
        <ele>68.065000</ele>
        <time>2009-01-05T09:17:30Z</time>
      </trkpt>
      <trkpt lat="27.76467400" lon="-15.5680100">
        <ele>68.454000</ele>
        <time>2009-01-05T09:17:31Z</time>
      </trkpt>
      <trkpt lat="27.76467600" lon="-15.5680630">
        <ele>68.349000</ele>
        <time>2009-01-05T09:17:32Z</time>
      </trkpt>
      <trkpt lat="27.76467800" lon="-15.5681160">
        <ele>68.262000</ele>
        <time>2009-01-05T09:17:33Z</time>
      </trkpt>
      <trkpt lat="27.76468000" lon="-15.5681680">
        <ele>68.348000</ele>
        <time>2009-01-05T09:17:34Z</time>
      </trkpt>
      <trkpt lat="27.76468200" lon="-15.5682210">
        <ele>68.285000</ele>
        <time>2009-01-05T09:17:35Z</time>
      </trkpt>
      <trkpt lat="27.76468300" lon="-15.5682730">
        <ele>68.820000</ele>
        <time>2009-01-05T09:17:36Z</time>
      </trkpt>
      <trkpt lat="27.76468500" lon="-15.5683250">
        <ele>69.037000</ele>
        <time>2009-01-05T09:17:37Z</time>
      </trkpt>
      <trkpt lat="27.76468700" lon="-15.5683770">
        <ele>68.636000</ele>
        <time>2009-01-05T09:17:38Z</time>
      </trkpt>
      <trkpt lat="27.76468900" lon="-15.5684290">
        <ele>69.017000</ele>
        <time>2009-01-05T09:17:39Z</time>
      </trkpt>
      <trkpt lat="27.76469000" lon="-15.5684820">
        <ele>68.986000</ele>
        <time>2009-01-05T09:17:40Z</time>
      </trkpt>
      <trkpt lat="27.76469000" lon="-15.5685340">
        <ele>68.791000</ele>
        <time>2009-01-05T09:17:41Z</time>
      </trkpt>
      <trkpt lat="27.76469100" lon="-15.5685870">
        <ele>68.824000</ele>
        <time>2009-01-05T09:17:42Z</time>
      </trkpt>
      <trkpt lat="27.76469300" lon="-15.5686400">
        <ele>69.689000</ele>
        <time>2009-01-05T09:17:43Z</time>
      </trkpt>
      <trkpt lat="27.76469400" lon="-15.5686920">
        <ele>69.383000</ele>
        <time>2009-01-05T09:17:44Z</time>
      </trkpt>
      <trkpt lat="27.76469700" lon="-15.5687450">
        <ele>69.553000</ele>
        <time>2009-01-05T09:17:45Z</time>
      </trkpt>
      <trkpt lat="27.76469900" lon="-15.5687970">
        <ele>69.610000</ele>
        <time>2009-01-05T09:17:46Z</time>
      </trkpt>
      <trkpt lat="27.76470200" lon="-15.5688490">
        <ele>69.674000</ele>
        <time>2009-01-05T09:17:47Z</time>
      </trkpt>
      <trkpt lat="27.76470400" lon="-15.5689030">
        <ele>69.850000</ele>
        <time>2009-01-05T09:17:48Z</time>
      </trkpt>
      <trkpt lat="27.76470600" lon="-15.5689560">
        <ele>69.853000</ele>
        <time>2009-01-05T09:17:49Z</time>
      </trkpt>
      <trkpt lat="27.76470800" lon="-15.5690090">
        <ele>69.976000</ele>
        <time>2009-01-05T09:17:50Z</time>
      </trkpt>
      <trkpt lat="27.76471000" lon="-15.5690630">
        <ele>69.937000</ele>
        <time>2009-01-05T09:17:51Z</time>
      </trkpt>
      <trkpt lat="27.76471200" lon="-15.5691170">
        <ele>69.870000</ele>
        <time>2009-01-05T09:17:52Z</time>
      </trkpt>
      <trkpt lat="27.76471400" lon="-15.5691700">
        <ele>70.207000</ele>
        <time>2009-01-05T09:17:53Z</time>
      </trkpt>
      <trkpt lat="27.76471600" lon="-15.5692230">
        <ele>69.775000</ele>
        <time>2009-01-05T09:17:54Z</time>
      </trkpt>
      <trkpt lat="27.76471700" lon="-15.5692760">
        <ele>70.135000</ele>
        <time>2009-01-05T09:17:55Z</time>
      </trkpt>
      <trkpt lat="27.76471700" lon="-15.5693300">
        <ele>70.102000</ele>
        <time>2009-01-05T09:17:56Z</time>
      </trkpt>
      <trkpt lat="27.76471700" lon="-15.5693840">
        <ele>70.191000</ele>
        <time>2009-01-05T09:17:57Z</time>
      </trkpt>
      <trkpt lat="27.76471700" lon="-15.5694390">
        <ele>70.639000</ele>
        <time>2009-01-05T09:17:58Z</time>
      </trkpt>
      <trkpt lat="27.76472000" lon="-15.5694940">
        <ele>70.598000</ele>
        <time>2009-01-05T09:17:59Z</time>
      </trkpt>
      <trkpt lat="27.76472400" lon="-15.5695500">
        <ele>70.692000</ele>
        <time>2009-01-05T09:18:00Z</time>
      </trkpt>
      <trkpt lat="27.76472700" lon="-15.5696060">
        <ele>71.013000</ele>
        <time>2009-01-05T09:18:01Z</time>
      </trkpt>
      <trkpt lat="27.76472800" lon="-15.5696610">
        <ele>70.824000</ele>
        <time>2009-01-05T09:18:02Z</time>
      </trkpt>
      <trkpt lat="27.76472900" lon="-15.5697170">
        <ele>71.151000</ele>
        <time>2009-01-05T09:18:03Z</time>
      </trkpt>
      <trkpt lat="27.76473000" lon="-15.5697720">
        <ele>70.967000</ele>
        <time>2009-01-05T09:18:04Z</time>
      </trkpt>
      <trkpt lat="27.76473200" lon="-15.5698270">
        <ele>70.860000</ele>
        <time>2009-01-05T09:18:05Z</time>
      </trkpt>
      <trkpt lat="27.76473300" lon="-15.5698830">
        <ele>71.298000</ele>
        <time>2009-01-05T09:18:06Z</time>
      </trkpt>
      <trkpt lat="27.76473400" lon="-15.5699380">
        <ele>71.300000</ele>
        <time>2009-01-05T09:18:07Z</time>
      </trkpt>
      <trkpt lat="27.76473600" lon="-15.5699940">
        <ele>71.550000</ele>
        <time>2009-01-05T09:18:08Z</time>
      </trkpt>
      <trkpt lat="27.76473900" lon="-15.5700480">
        <ele>71.400000</ele>
        <time>2009-01-05T09:18:09Z</time>
      </trkpt>
      <trkpt lat="27.76474100" lon="-15.5701030">
        <ele>71.582000</ele>
        <time>2009-01-05T09:18:10Z</time>
      </trkpt>
      <trkpt lat="27.76474300" lon="-15.5701570">
        <ele>71.506000</ele>
        <time>2009-01-05T09:18:11Z</time>
      </trkpt>
      <trkpt lat="27.76474500" lon="-15.5702120">
        <ele>71.416000</ele>
        <time>2009-01-05T09:18:12Z</time>
      </trkpt>
      <trkpt lat="27.76474800" lon="-15.5702670">
        <ele>71.578000</ele>
        <time>2009-01-05T09:18:13Z</time>
      </trkpt>
      <trkpt lat="27.76475000" lon="-15.5703220">
        <ele>71.511000</ele>
        <time>2009-01-05T09:18:14Z</time>
      </trkpt>
      <trkpt lat="27.76475100" lon="-15.5703770">
        <ele>71.756000</ele>
        <time>2009-01-05T09:18:15Z</time>
      </trkpt>
      <trkpt lat="27.76475200" lon="-15.5704330">
        <ele>71.930000</ele>
        <time>2009-01-05T09:18:16Z</time>
      </trkpt>
      <trkpt lat="27.76475400" lon="-15.5704880">
        <ele>71.802000</ele>
        <time>2009-01-05T09:18:17Z</time>
      </trkpt>
      <trkpt lat="27.76476200" lon="-15.5705430">
        <ele>71.904000</ele>
        <time>2009-01-05T09:18:18Z</time>
      </trkpt>
      <trkpt lat="27.76476300" lon="-15.5705960">
        <ele>72.323000</ele>
        <time>2009-01-05T09:18:19Z</time>
      </trkpt>
      <trkpt lat="27.76476500" lon="-15.5706510">
        <ele>72.296000</ele>
        <time>2009-01-05T09:18:20Z</time>
      </trkpt>
      <trkpt lat="27.76476600" lon="-15.5707060">
        <ele>72.051000</ele>
        <time>2009-01-05T09:18:21Z</time>
      </trkpt>
      <trkpt lat="27.76476900" lon="-15.5707600">
        <ele>72.343000</ele>
        <time>2009-01-05T09:18:22Z</time>
      </trkpt>
      <trkpt lat="27.76477200" lon="-15.5708150">
        <ele>72.451000</ele>
        <time>2009-01-05T09:18:23Z</time>
      </trkpt>
      <trkpt lat="27.76477500" lon="-15.5708690">
        <ele>72.460000</ele>
        <time>2009-01-05T09:18:24Z</time>
      </trkpt>
      <trkpt lat="27.76477700" lon="-15.5709230">
        <ele>72.599000</ele>
        <time>2009-01-05T09:18:25Z</time>
      </trkpt>
      <trkpt lat="27.76478000" lon="-15.5709760">
        <ele>72.598000</ele>
        <time>2009-01-05T09:18:26Z</time>
      </trkpt>
      <trkpt lat="27.76478200" lon="-15.5710300">
        <ele>72.898000</ele>
        <time>2009-01-05T09:18:27Z</time>
      </trkpt>
      <trkpt lat="27.76478300" lon="-15.5710830">
        <ele>73.323000</ele>
        <time>2009-01-05T09:18:28Z</time>
      </trkpt>
      <trkpt lat="27.76478400" lon="-15.5711350">
        <ele>73.461000</ele>
        <time>2009-01-05T09:18:29Z</time>
      </trkpt>
      <trkpt lat="27.76478600" lon="-15.5711880">
        <ele>73.270000</ele>
        <time>2009-01-05T09:18:30Z</time>
      </trkpt>
      <trkpt lat="27.76478700" lon="-15.5712410">
        <ele>73.318000</ele>
        <time>2009-01-05T09:18:31Z</time>
      </trkpt>
      <trkpt lat="27.76478800" lon="-15.5712930">
        <ele>73.602000</ele>
        <time>2009-01-05T09:18:32Z</time>
      </trkpt>
      <trkpt lat="27.76478900" lon="-15.5713450">
        <ele>73.371000</ele>
        <time>2009-01-05T09:18:33Z</time>
      </trkpt>
      <trkpt lat="27.76479100" lon="-15.5713970">
        <ele>73.108000</ele>
        <time>2009-01-05T09:18:34Z</time>
      </trkpt>
      <trkpt lat="27.76479200" lon="-15.5714490">
        <ele>73.455000</ele>
        <time>2009-01-05T09:18:35Z</time>
      </trkpt>
      <trkpt lat="27.76479300" lon="-15.5715010">
        <ele>73.531000</ele>
        <time>2009-01-05T09:18:36Z</time>
      </trkpt>
      <trkpt lat="27.76479400" lon="-15.5715520">
        <ele>73.738000</ele>
        <time>2009-01-05T09:18:37Z</time>
      </trkpt>
      <trkpt lat="27.76479600" lon="-15.5716030">
        <ele>73.570000</ele>
        <time>2009-01-05T09:18:38Z</time>
      </trkpt>
      <trkpt lat="27.76479700" lon="-15.5716540">
        <ele>73.571000</ele>
        <time>2009-01-05T09:18:39Z</time>
      </trkpt>
      <trkpt lat="27.76479900" lon="-15.5717050">
        <ele>73.906000</ele>
        <time>2009-01-05T09:18:40Z</time>
      </trkpt>
      <trkpt lat="27.76480100" lon="-15.5717560">
        <ele>73.778000</ele>
        <time>2009-01-05T09:18:41Z</time>
      </trkpt>
      <trkpt lat="27.76480300" lon="-15.5718070">
        <ele>73.933000</ele>
        <time>2009-01-05T09:18:42Z</time>
      </trkpt>
      <trkpt lat="27.76480400" lon="-15.5718590">
        <ele>74.129000</ele>
        <time>2009-01-05T09:18:43Z</time>
      </trkpt>
      <trkpt lat="27.76480500" lon="-15.5719120">
        <ele>73.991000</ele>
        <time>2009-01-05T09:18:44Z</time>
      </trkpt>
      <trkpt lat="27.76480700" lon="-15.5719650">
        <ele>74.058000</ele>
        <time>2009-01-05T09:18:45Z</time>
      </trkpt>
      <trkpt lat="27.76480900" lon="-15.5720190">
        <ele>73.965000</ele>
        <time>2009-01-05T09:18:46Z</time>
      </trkpt>
      <trkpt lat="27.76481000" lon="-15.5720730">
        <ele>74.342000</ele>
        <time>2009-01-05T09:18:47Z</time>
      </trkpt>
      <trkpt lat="27.76481200" lon="-15.5721270">
        <ele>74.623000</ele>
        <time>2009-01-05T09:18:48Z</time>
      </trkpt>
      <trkpt lat="27.76481300" lon="-15.5721810">
        <ele>74.363000</ele>
        <time>2009-01-05T09:18:49Z</time>
      </trkpt>
      <trkpt lat="27.76481400" lon="-15.5722340">
        <ele>74.653000</ele>
        <time>2009-01-05T09:18:50Z</time>
      </trkpt>
      <trkpt lat="27.76481500" lon="-15.5722860">
        <ele>74.750000</ele>
        <time>2009-01-05T09:18:51Z</time>
      </trkpt>
      <trkpt lat="27.76481500" lon="-15.5723380">
        <ele>74.669000</ele>
        <time>2009-01-05T09:18:52Z</time>
      </trkpt>
      <trkpt lat="27.76481600" lon="-15.5723900">
        <ele>74.932000</ele>
        <time>2009-01-05T09:18:53Z</time>
      </trkpt>
      <trkpt lat="27.76481800" lon="-15.5724420">
        <ele>75.365000</ele>
        <time>2009-01-05T09:18:54Z</time>
      </trkpt>
      <trkpt lat="27.76481900" lon="-15.5724930">
        <ele>74.938000</ele>
        <time>2009-01-05T09:18:55Z</time>
      </trkpt>
      <trkpt lat="27.76482000" lon="-15.5725440">
        <ele>74.980000</ele>
        <time>2009-01-05T09:18:56Z</time>
      </trkpt>
      <trkpt lat="27.76482100" lon="-15.5725960">
        <ele>75.169000</ele>
        <time>2009-01-05T09:18:57Z</time>
      </trkpt>
      <trkpt lat="27.76482200" lon="-15.5726480">
        <ele>75.707000</ele>
        <time>2009-01-05T09:18:58Z</time>
      </trkpt>
      <trkpt lat="27.76482100" lon="-15.5726990">
        <ele>75.421000</ele>
        <time>2009-01-05T09:18:59Z</time>
      </trkpt>
      <trkpt lat="27.76481400" lon="-15.5727600">
        <ele>75.647000</ele>
        <time>2009-01-05T09:19:00Z</time>
      </trkpt>
      <trkpt lat="27.76481000" lon="-15.5728190">
        <ele>75.668000</ele>
        <time>2009-01-05T09:19:01Z</time>
      </trkpt>
      <trkpt lat="27.76481300" lon="-15.5728700">
        <ele>75.683000</ele>
        <time>2009-01-05T09:19:02Z</time>
      </trkpt>
      <trkpt lat="27.76481500" lon="-15.5729210">
        <ele>75.790000</ele>
        <time>2009-01-05T09:19:03Z</time>
      </trkpt>
      <trkpt lat="27.76481600" lon="-15.5729730">
        <ele>75.977000</ele>
        <time>2009-01-05T09:19:04Z</time>
      </trkpt>
      <trkpt lat="27.76481800" lon="-15.5730240">
        <ele>75.924000</ele>
        <time>2009-01-05T09:19:05Z</time>
      </trkpt>
      <trkpt lat="27.76482000" lon="-15.5730750">
        <ele>75.952000</ele>
        <time>2009-01-05T09:19:06Z</time>
      </trkpt>
      <trkpt lat="27.76482100" lon="-15.5731270">
        <ele>76.147000</ele>
        <time>2009-01-05T09:19:07Z</time>
      </trkpt>
      <trkpt lat="27.76482200" lon="-15.5731780">
        <ele>76.394000</ele>
        <time>2009-01-05T09:19:08Z</time>
      </trkpt>
      <trkpt lat="27.76482400" lon="-15.5732290">
        <ele>76.922000</ele>
        <time>2009-01-05T09:19:09Z</time>
      </trkpt>
      <trkpt lat="27.76482500" lon="-15.5732800">
        <ele>76.562000</ele>
        <time>2009-01-05T09:19:10Z</time>
      </trkpt>
      <trkpt lat="27.76482600" lon="-15.5733320">
        <ele>76.902000</ele>
        <time>2009-01-05T09:19:11Z</time>
      </trkpt>
      <trkpt lat="27.76482800" lon="-15.5733840">
        <ele>76.872000</ele>
        <time>2009-01-05T09:19:12Z</time>
      </trkpt>
      <trkpt lat="27.76483000" lon="-15.5734360">
        <ele>76.918000</ele>
        <time>2009-01-05T09:19:13Z</time>
      </trkpt>
      <trkpt lat="27.76483200" lon="-15.5734890">
        <ele>77.509000</ele>
        <time>2009-01-05T09:19:14Z</time>
      </trkpt>
      <trkpt lat="27.76483400" lon="-15.5735410">
        <ele>77.144000</ele>
        <time>2009-01-05T09:19:15Z</time>
      </trkpt>
      <trkpt lat="27.76483600" lon="-15.5735930">
        <ele>77.257000</ele>
        <time>2009-01-05T09:19:16Z</time>
      </trkpt>
      <trkpt lat="27.76483700" lon="-15.5736450">
        <ele>77.259000</ele>
        <time>2009-01-05T09:19:17Z</time>
      </trkpt>
      <trkpt lat="27.76483900" lon="-15.5736980">
        <ele>77.671000</ele>
        <time>2009-01-05T09:19:18Z</time>
      </trkpt>
      <trkpt lat="27.76484100" lon="-15.5737500">
        <ele>78.273000</ele>
        <time>2009-01-05T09:19:19Z</time>
      </trkpt>
      <trkpt lat="27.76484300" lon="-15.5738010">
        <ele>77.936000</ele>
        <time>2009-01-05T09:19:20Z</time>
      </trkpt>
      <trkpt lat="27.76484300" lon="-15.5738530">
        <ele>78.179000</ele>
        <time>2009-01-05T09:19:21Z</time>
      </trkpt>
      <trkpt lat="27.76484400" lon="-15.5739040">
        <ele>78.067000</ele>
        <time>2009-01-05T09:19:22Z</time>
      </trkpt>
      <trkpt lat="27.76484400" lon="-15.5739560">
        <ele>77.972000</ele>
        <time>2009-01-05T09:19:23Z</time>
      </trkpt>
      <trkpt lat="27.76484300" lon="-15.5740080">
        <ele>78.257000</ele>
        <time>2009-01-05T09:19:24Z</time>
      </trkpt>
      <trkpt lat="27.76484100" lon="-15.5740590">
        <ele>78.455000</ele>
        <time>2009-01-05T09:19:25Z</time>
      </trkpt>
      <trkpt lat="27.76483900" lon="-15.5741100">
        <ele>78.491000</ele>
        <time>2009-01-05T09:19:26Z</time>
      </trkpt>
      <trkpt lat="27.76483600" lon="-15.5741600">
        <ele>79.009000</ele>
        <time>2009-01-05T09:19:27Z</time>
      </trkpt>
      <trkpt lat="27.76483200" lon="-15.5742100">
        <ele>79.077000</ele>
        <time>2009-01-05T09:19:28Z</time>
      </trkpt>
      <trkpt lat="27.76482800" lon="-15.5742600">
        <ele>79.172000</ele>
        <time>2009-01-05T09:19:29Z</time>
      </trkpt>
      <trkpt lat="27.76482200" lon="-15.5743110">
        <ele>79.119000</ele>
        <time>2009-01-05T09:19:30Z</time>
      </trkpt>
      <trkpt lat="27.76481500" lon="-15.5743630">
        <ele>79.552000</ele>
        <time>2009-01-05T09:19:31Z</time>
      </trkpt>
      <trkpt lat="27.76480700" lon="-15.5744160">
        <ele>79.414000</ele>
        <time>2009-01-05T09:19:32Z</time>
      </trkpt>
      <trkpt lat="27.76479800" lon="-15.5744690">
        <ele>79.712000</ele>
        <time>2009-01-05T09:19:33Z</time>
      </trkpt>
      <trkpt lat="27.76478800" lon="-15.5745230">
        <ele>79.505000</ele>
        <time>2009-01-05T09:19:34Z</time>
      </trkpt>
      <trkpt lat="27.76477600" lon="-15.5745760">
        <ele>79.481000</ele>
        <time>2009-01-05T09:19:35Z</time>
      </trkpt>
      <trkpt lat="27.76476300" lon="-15.5746300">
        <ele>79.615000</ele>
        <time>2009-01-05T09:19:36Z</time>
      </trkpt>
      <trkpt lat="27.76475000" lon="-15.5746830">
        <ele>79.990000</ele>
        <time>2009-01-05T09:19:37Z</time>
      </trkpt>
      <trkpt lat="27.76473700" lon="-15.5747380">
        <ele>79.389000</ele>
        <time>2009-01-05T09:19:38Z</time>
      </trkpt>
      <trkpt lat="27.76472400" lon="-15.5747950">
        <ele>79.153000</ele>
        <time>2009-01-05T09:19:39Z</time>
      </trkpt>
      <trkpt lat="27.76470800" lon="-15.5748520">
        <ele>78.968000</ele>
        <time>2009-01-05T09:19:40Z</time>
      </trkpt>
      <trkpt lat="27.76469100" lon="-15.5749090">
        <ele>79.641000</ele>
        <time>2009-01-05T09:19:41Z</time>
      </trkpt>
      <trkpt lat="27.76467500" lon="-15.5749680">
        <ele>79.134000</ele>
        <time>2009-01-05T09:19:42Z</time>
      </trkpt>
      <trkpt lat="27.76465900" lon="-15.5750260">
        <ele>79.260000</ele>
        <time>2009-01-05T09:19:43Z</time>
      </trkpt>
      <trkpt lat="27.76464300" lon="-15.5750840">
        <ele>79.053000</ele>
        <time>2009-01-05T09:19:44Z</time>
      </trkpt>
      <trkpt lat="27.76462600" lon="-15.5751430">
        <ele>79.300000</ele>
        <time>2009-01-05T09:19:45Z</time>
      </trkpt>
      <trkpt lat="27.76460800" lon="-15.5752010">
        <ele>79.255000</ele>
        <time>2009-01-05T09:19:46Z</time>
      </trkpt>
      <trkpt lat="27.76458900" lon="-15.5752610">
        <ele>79.283000</ele>
        <time>2009-01-05T09:19:47Z</time>
      </trkpt>
      <trkpt lat="27.76457100" lon="-15.5753200">
        <ele>79.197000</ele>
        <time>2009-01-05T09:19:48Z</time>
      </trkpt>
      <trkpt lat="27.76455300" lon="-15.5753790">
        <ele>79.360000</ele>
        <time>2009-01-05T09:19:49Z</time>
      </trkpt>
      <trkpt lat="27.76453300" lon="-15.5754410">
        <ele>79.110000</ele>
        <time>2009-01-05T09:19:50Z</time>
      </trkpt>
      <trkpt lat="27.76451300" lon="-15.5755030">
        <ele>79.426000</ele>
        <time>2009-01-05T09:19:51Z</time>
      </trkpt>
      <trkpt lat="27.76449400" lon="-15.5755650">
        <ele>79.518000</ele>
        <time>2009-01-05T09:19:52Z</time>
      </trkpt>
      <trkpt lat="27.76447500" lon="-15.5756270">
        <ele>79.414000</ele>
        <time>2009-01-05T09:19:53Z</time>
      </trkpt>
      <trkpt lat="27.76445600" lon="-15.5756890">
        <ele>79.586000</ele>
        <time>2009-01-05T09:19:54Z</time>
      </trkpt>
      <trkpt lat="27.76443600" lon="-15.5757520">
        <ele>79.477000</ele>
        <time>2009-01-05T09:19:55Z</time>
      </trkpt>
      <trkpt lat="27.76441600" lon="-15.5758160">
        <ele>79.172000</ele>
        <time>2009-01-05T09:19:56Z</time>
      </trkpt>
      <trkpt lat="27.76439500" lon="-15.5758800">
        <ele>79.877000</ele>
        <time>2009-01-05T09:19:57Z</time>
      </trkpt>
      <trkpt lat="27.76437000" lon="-15.5759420">
        <ele>79.338000</ele>
        <time>2009-01-05T09:19:58Z</time>
      </trkpt>
      <trkpt lat="27.76434300" lon="-15.5760050">
        <ele>79.517000</ele>
        <time>2009-01-05T09:19:59Z</time>
      </trkpt>
      <trkpt lat="27.76431400" lon="-15.5760680">
        <ele>79.470000</ele>
        <time>2009-01-05T09:20:00Z</time>
      </trkpt>
      <trkpt lat="27.76428900" lon="-15.5761330">
        <ele>79.781000</ele>
        <time>2009-01-05T09:20:01Z</time>
      </trkpt>
      <trkpt lat="27.76426700" lon="-15.5762000">
        <ele>80.061000</ele>
        <time>2009-01-05T09:20:02Z</time>
      </trkpt>
      <trkpt lat="27.76424700" lon="-15.5762670">
        <ele>79.890000</ele>
        <time>2009-01-05T09:20:03Z</time>
      </trkpt>
      <trkpt lat="27.76422600" lon="-15.5763340">
        <ele>79.990000</ele>
        <time>2009-01-05T09:20:04Z</time>
      </trkpt>
      <trkpt lat="27.76420400" lon="-15.5764020">
        <ele>80.000000</ele>
        <time>2009-01-05T09:20:05Z</time>
      </trkpt>
      <trkpt lat="27.76418300" lon="-15.5764690">
        <ele>79.686000</ele>
        <time>2009-01-05T09:20:06Z</time>
      </trkpt>
      <trkpt lat="27.76416300" lon="-15.5765370">
        <ele>80.027000</ele>
        <time>2009-01-05T09:20:07Z</time>
      </trkpt>
      <trkpt lat="27.76414300" lon="-15.5766040">
        <ele>80.152000</ele>
        <time>2009-01-05T09:20:08Z</time>
      </trkpt>
      <trkpt lat="27.76412300" lon="-15.5766730">
        <ele>79.940000</ele>
        <time>2009-01-05T09:20:09Z</time>
      </trkpt>
      <trkpt lat="27.76410300" lon="-15.5767400">
        <ele>80.252000</ele>
        <time>2009-01-05T09:20:10Z</time>
      </trkpt>
      <trkpt lat="27.76408200" lon="-15.5768070">
        <ele>80.115000</ele>
        <time>2009-01-05T09:20:11Z</time>
      </trkpt>
      <trkpt lat="27.76406200" lon="-15.5768740">
        <ele>80.538000</ele>
        <time>2009-01-05T09:20:12Z</time>
      </trkpt>
      <trkpt lat="27.76404400" lon="-15.5769400">
        <ele>80.285000</ele>
        <time>2009-01-05T09:20:13Z</time>
      </trkpt>
      <trkpt lat="27.76402600" lon="-15.5770080">
        <ele>80.562000</ele>
        <time>2009-01-05T09:20:14Z</time>
      </trkpt>
      <trkpt lat="27.76400900" lon="-15.5770760">
        <ele>80.634000</ele>
        <time>2009-01-05T09:20:15Z</time>
      </trkpt>
      <trkpt lat="27.76399300" lon="-15.5771440">
        <ele>80.558000</ele>
        <time>2009-01-05T09:20:16Z</time>
      </trkpt>
      <trkpt lat="27.76397600" lon="-15.5772140">
        <ele>80.439000</ele>
        <time>2009-01-05T09:20:17Z</time>
      </trkpt>
      <trkpt lat="27.76396000" lon="-15.5772840">
        <ele>80.455000</ele>
        <time>2009-01-05T09:20:18Z</time>
      </trkpt>
      <trkpt lat="27.76394700" lon="-15.5773560">
        <ele>80.601000</ele>
        <time>2009-01-05T09:20:19Z</time>
      </trkpt>
      <trkpt lat="27.76393500" lon="-15.5774280">
        <ele>80.422000</ele>
        <time>2009-01-05T09:20:20Z</time>
      </trkpt>
      <trkpt lat="27.76392500" lon="-15.5775010">
        <ele>80.142000</ele>
        <time>2009-01-05T09:20:21Z</time>
      </trkpt>
      <trkpt lat="27.76391700" lon="-15.5775760">
        <ele>80.166000</ele>
        <time>2009-01-05T09:20:22Z</time>
      </trkpt>
      <trkpt lat="27.76391000" lon="-15.5776530">
        <ele>80.632000</ele>
        <time>2009-01-05T09:20:23Z</time>
      </trkpt>
      <trkpt lat="27.76390400" lon="-15.5777320">
        <ele>80.584000</ele>
        <time>2009-01-05T09:20:24Z</time>
      </trkpt>
      <trkpt lat="27.76390000" lon="-15.5778120">
        <ele>80.193000</ele>
        <time>2009-01-05T09:20:25Z</time>
      </trkpt>
      <trkpt lat="27.76389600" lon="-15.5778940">
        <ele>80.391000</ele>
        <time>2009-01-05T09:20:26Z</time>
      </trkpt>
      <trkpt lat="27.76389300" lon="-15.5779780">
        <ele>79.731000</ele>
        <time>2009-01-05T09:20:27Z</time>
      </trkpt>
      <trkpt lat="27.76389200" lon="-15.5780650">
        <ele>78.980000</ele>
        <time>2009-01-05T09:20:28Z</time>
      </trkpt>
      <trkpt lat="27.76389100" lon="-15.5781540">
        <ele>78.449000</ele>
        <time>2009-01-05T09:20:29Z</time>
      </trkpt>
      <trkpt lat="27.76389000" lon="-15.5782460">
        <ele>79.511000</ele>
        <time>2009-01-05T09:20:30Z</time>
      </trkpt>
      <trkpt lat="27.76389000" lon="-15.5783380">
        <ele>78.578000</ele>
        <time>2009-01-05T09:20:31Z</time>
      </trkpt>
      <trkpt lat="27.76388800" lon="-15.5784300">
        <ele>77.816000</ele>
        <time>2009-01-05T09:20:32Z</time>
      </trkpt>
      <trkpt lat="27.76388600" lon="-15.5785240">
        <ele>77.712000</ele>
        <time>2009-01-05T09:20:33Z</time>
      </trkpt>
      <trkpt lat="27.76388500" lon="-15.5786160">
        <ele>77.360000</ele>
        <time>2009-01-05T09:20:34Z</time>
      </trkpt>
      <trkpt lat="27.76388000" lon="-15.5787110">
        <ele>76.768000</ele>
        <time>2009-01-05T09:20:35Z</time>
      </trkpt>
      <trkpt lat="27.76387700" lon="-15.5788020">
        <ele>76.823000</ele>
        <time>2009-01-05T09:20:36Z</time>
      </trkpt>
      <trkpt lat="27.76387700" lon="-15.5788880">
        <ele>76.856000</ele>
        <time>2009-01-05T09:20:37Z</time>
      </trkpt>
      <trkpt lat="27.76387800" lon="-15.5789710">
        <ele>76.944000</ele>
        <time>2009-01-05T09:20:38Z</time>
      </trkpt>
      <trkpt lat="27.76387800" lon="-15.5790490">
        <ele>76.944000</ele>
        <time>2009-01-05T09:20:39Z</time>
      </trkpt>
      <trkpt lat="27.76389400" lon="-15.5791240">
        <ele>76.987000</ele>
        <time>2009-01-05T09:20:40Z</time>
      </trkpt>
      <trkpt lat="27.76392300" lon="-15.5791610">
        <ele>76.958000</ele>
        <time>2009-01-05T09:20:41Z</time>
      </trkpt>
      <trkpt lat="27.76391900" lon="-15.5792490">
        <ele>77.252000</ele>
        <time>2009-01-05T09:20:42Z</time>
      </trkpt>
      <trkpt lat="27.76391300" lon="-15.5793290">
        <ele>77.413000</ele>
        <time>2009-01-05T09:20:43Z</time>
      </trkpt>
      <trkpt lat="27.76390700" lon="-15.5794010">
        <ele>77.434000</ele>
        <time>2009-01-05T09:20:44Z</time>
      </trkpt>
      <trkpt lat="27.76390200" lon="-15.5794700">
        <ele>77.559000</ele>
        <time>2009-01-05T09:20:45Z</time>
      </trkpt>
      <trkpt lat="27.76389800" lon="-15.5795360">
        <ele>77.714000</ele>
        <time>2009-01-05T09:20:46Z</time>
      </trkpt>
      <trkpt lat="27.76389600" lon="-15.5796010">
        <ele>78.127000</ele>
        <time>2009-01-05T09:20:47Z</time>
      </trkpt>
      <trkpt lat="27.76389500" lon="-15.5796640">
        <ele>78.666000</ele>
        <time>2009-01-05T09:20:48Z</time>
      </trkpt>
      <trkpt lat="27.76389400" lon="-15.5797250">
        <ele>78.793000</ele>
        <time>2009-01-05T09:20:49Z</time>
      </trkpt>
      <trkpt lat="27.76389500" lon="-15.5797850">
        <ele>79.155000</ele>
        <time>2009-01-05T09:20:50Z</time>
      </trkpt>
      <trkpt lat="27.76389400" lon="-15.5798420">
        <ele>79.752000</ele>
        <time>2009-01-05T09:20:51Z</time>
      </trkpt>
      <trkpt lat="27.76389200" lon="-15.5798980">
        <ele>80.028000</ele>
        <time>2009-01-05T09:20:52Z</time>
      </trkpt>
      <trkpt lat="27.76389500" lon="-15.5799490">
        <ele>80.276000</ele>
        <time>2009-01-05T09:20:53Z</time>
      </trkpt>
      <trkpt lat="27.76389800" lon="-15.5799990">
        <ele>80.650000</ele>
        <time>2009-01-05T09:20:54Z</time>
      </trkpt>
      <trkpt lat="27.76389900" lon="-15.5800490">
        <ele>80.809000</ele>
        <time>2009-01-05T09:20:55Z</time>
      </trkpt>
      <trkpt lat="27.76389800" lon="-15.5800990">
        <ele>81.007000</ele>
        <time>2009-01-05T09:20:56Z</time>
      </trkpt>
      <trkpt lat="27.76389900" lon="-15.5801470">
        <ele>81.539000</ele>
        <time>2009-01-05T09:20:57Z</time>
      </trkpt>
      <trkpt lat="27.76389900" lon="-15.5801970">
        <ele>81.173000</ele>
        <time>2009-01-05T09:20:58Z</time>
      </trkpt>
      <trkpt lat="27.76389900" lon="-15.5802480">
        <ele>81.422000</ele>
        <time>2009-01-05T09:20:59Z</time>
      </trkpt>
      <trkpt lat="27.76389900" lon="-15.5802990">
        <ele>82.020000</ele>
        <time>2009-01-05T09:21:00Z</time>
      </trkpt>
      <trkpt lat="27.76390000" lon="-15.5803510">
        <ele>82.066000</ele>
        <time>2009-01-05T09:21:01Z</time>
      </trkpt>
      <trkpt lat="27.76390000" lon="-15.5804030">
        <ele>82.505000</ele>
        <time>2009-01-05T09:21:02Z</time>
      </trkpt>
      <trkpt lat="27.76390000" lon="-15.5804570">
        <ele>82.446000</ele>
        <time>2009-01-05T09:21:03Z</time>
      </trkpt>
      <trkpt lat="27.76390100" lon="-15.5805110">
        <ele>82.261000</ele>
        <time>2009-01-05T09:21:04Z</time>
      </trkpt>
      <trkpt lat="27.76390200" lon="-15.5805640">
        <ele>82.722000</ele>
        <time>2009-01-05T09:21:05Z</time>
      </trkpt>
      <trkpt lat="27.76390800" lon="-15.5806160">
        <ele>82.897000</ele>
        <time>2009-01-05T09:21:06Z</time>
      </trkpt>
      <trkpt lat="27.76392000" lon="-15.5806710">
        <ele>82.945000</ele>
        <time>2009-01-05T09:21:07Z</time>
      </trkpt>
      <trkpt lat="27.76393500" lon="-15.5807290">
        <ele>83.400000</ele>
        <time>2009-01-05T09:21:08Z</time>
      </trkpt>
      <trkpt lat="27.76394900" lon="-15.5807900">
        <ele>83.655000</ele>
        <time>2009-01-05T09:21:09Z</time>
      </trkpt>
      <trkpt lat="27.76396000" lon="-15.5808550">
        <ele>83.290000</ele>
        <time>2009-01-05T09:21:10Z</time>
      </trkpt>
      <trkpt lat="27.76397000" lon="-15.5809200">
        <ele>83.586000</ele>
        <time>2009-01-05T09:21:11Z</time>
      </trkpt>
      <trkpt lat="27.76398100" lon="-15.5809850">
        <ele>83.700000</ele>
        <time>2009-01-05T09:21:12Z</time>
      </trkpt>
      <trkpt lat="27.76399300" lon="-15.5810490">
        <ele>83.706000</ele>
        <time>2009-01-05T09:21:13Z</time>
      </trkpt>
      <trkpt lat="27.76400700" lon="-15.5811120">
        <ele>83.814000</ele>
        <time>2009-01-05T09:21:14Z</time>
      </trkpt>
      <trkpt lat="27.76402400" lon="-15.5811740">
        <ele>83.712000</ele>
        <time>2009-01-05T09:21:15Z</time>
      </trkpt>
      <trkpt lat="27.76404200" lon="-15.5812350">
        <ele>84.191000</ele>
        <time>2009-01-05T09:21:16Z</time>
      </trkpt>
      <trkpt lat="27.76406100" lon="-15.5812960">
        <ele>84.070000</ele>
        <time>2009-01-05T09:21:17Z</time>
      </trkpt>
      <trkpt lat="27.76407900" lon="-15.5813570">
        <ele>83.980000</ele>
        <time>2009-01-05T09:21:18Z</time>
      </trkpt>
      <trkpt lat="27.76409500" lon="-15.5814170">
        <ele>83.960000</ele>
        <time>2009-01-05T09:21:19Z</time>
      </trkpt>
      <trkpt lat="27.76411000" lon="-15.5814780">
        <ele>84.151000</ele>
        <time>2009-01-05T09:21:20Z</time>
      </trkpt>
      <trkpt lat="27.76412600" lon="-15.5815380">
        <ele>84.382000</ele>
        <time>2009-01-05T09:21:21Z</time>
      </trkpt>
      <trkpt lat="27.76414500" lon="-15.5815970">
        <ele>84.369000</ele>
        <time>2009-01-05T09:21:22Z</time>
      </trkpt>
      <trkpt lat="27.76416300" lon="-15.5816570">
        <ele>84.587000</ele>
        <time>2009-01-05T09:21:23Z</time>
      </trkpt>
      <trkpt lat="27.76418100" lon="-15.5817170">
        <ele>84.247000</ele>
        <time>2009-01-05T09:21:24Z</time>
      </trkpt>
      <trkpt lat="27.76420100" lon="-15.5817770">
        <ele>84.197000</ele>
        <time>2009-01-05T09:21:25Z</time>
      </trkpt>
      <trkpt lat="27.76422200" lon="-15.5818380">
        <ele>84.267000</ele>
        <time>2009-01-05T09:21:26Z</time>
      </trkpt>
      <trkpt lat="27.76424400" lon="-15.5818980">
        <ele>83.996000</ele>
        <time>2009-01-05T09:21:27Z</time>
      </trkpt>
      <trkpt lat="27.76426600" lon="-15.5819580">
        <ele>84.449000</ele>
        <time>2009-01-05T09:21:28Z</time>
      </trkpt>
      <trkpt lat="27.76428700" lon="-15.5820190">
        <ele>84.400000</ele>
        <time>2009-01-05T09:21:29Z</time>
      </trkpt>
      <trkpt lat="27.76430800" lon="-15.5820800">
        <ele>84.296000</ele>
        <time>2009-01-05T09:21:30Z</time>
      </trkpt>
      <trkpt lat="27.76432900" lon="-15.5821400">
        <ele>84.202000</ele>
        <time>2009-01-05T09:21:31Z</time>
      </trkpt>
      <trkpt lat="27.76435000" lon="-15.5822010">
        <ele>84.338000</ele>
        <time>2009-01-05T09:21:32Z</time>
      </trkpt>
      <trkpt lat="27.76437200" lon="-15.5822610">
        <ele>84.736000</ele>
        <time>2009-01-05T09:21:33Z</time>
      </trkpt>
      <trkpt lat="27.76439400" lon="-15.5823220">
        <ele>84.243000</ele>
        <time>2009-01-05T09:21:34Z</time>
      </trkpt>
      <trkpt lat="27.76441600" lon="-15.5823830">
        <ele>84.871000</ele>
        <time>2009-01-05T09:21:35Z</time>
      </trkpt>
      <trkpt lat="27.76443700" lon="-15.5824450">
        <ele>84.875000</ele>
        <time>2009-01-05T09:21:36Z</time>
      </trkpt>
      <trkpt lat="27.76445900" lon="-15.5825060">
        <ele>84.636000</ele>
        <time>2009-01-05T09:21:37Z</time>
      </trkpt>
      <trkpt lat="27.76448100" lon="-15.5825680">
        <ele>84.831000</ele>
        <time>2009-01-05T09:21:38Z</time>
      </trkpt>
      <trkpt lat="27.76450300" lon="-15.5826300">
        <ele>84.748000</ele>
        <time>2009-01-05T09:21:39Z</time>
      </trkpt>
      <trkpt lat="27.76452400" lon="-15.5826910">
        <ele>84.723000</ele>
        <time>2009-01-05T09:21:40Z</time>
      </trkpt>
      <trkpt lat="27.76454600" lon="-15.5827520">
        <ele>84.772000</ele>
        <time>2009-01-05T09:21:41Z</time>
      </trkpt>
      <trkpt lat="27.76456700" lon="-15.5828140">
        <ele>85.228000</ele>
        <time>2009-01-05T09:21:42Z</time>
      </trkpt>
      <trkpt lat="27.76458800" lon="-15.5828750">
        <ele>84.836000</ele>
        <time>2009-01-05T09:21:43Z</time>
      </trkpt>
      <trkpt lat="27.76461000" lon="-15.5829360">
        <ele>84.925000</ele>
        <time>2009-01-05T09:21:44Z</time>
      </trkpt>
      <trkpt lat="27.76463200" lon="-15.5829970">
        <ele>85.196000</ele>
        <time>2009-01-05T09:21:45Z</time>
      </trkpt>
      <trkpt lat="27.76465300" lon="-15.5830580">
        <ele>85.045000</ele>
        <time>2009-01-05T09:21:46Z</time>
      </trkpt>
      <trkpt lat="27.76467300" lon="-15.5831190">
        <ele>85.046000</ele>
        <time>2009-01-05T09:21:47Z</time>
      </trkpt>
      <trkpt lat="27.76469500" lon="-15.5831790">
        <ele>85.384000</ele>
        <time>2009-01-05T09:21:48Z</time>
      </trkpt>
      <trkpt lat="27.76471700" lon="-15.5832400">
        <ele>85.293000</ele>
        <time>2009-01-05T09:21:49Z</time>
      </trkpt>
      <trkpt lat="27.76473900" lon="-15.5833000">
        <ele>85.411000</ele>
        <time>2009-01-05T09:21:50Z</time>
      </trkpt>
      <trkpt lat="27.76476000" lon="-15.5833600">
        <ele>85.296000</ele>
        <time>2009-01-05T09:21:51Z</time>
      </trkpt>
      <trkpt lat="27.76478200" lon="-15.5834200">
        <ele>85.311000</ele>
        <time>2009-01-05T09:21:52Z</time>
      </trkpt>
      <trkpt lat="27.76480400" lon="-15.5834800">
        <ele>85.730000</ele>
        <time>2009-01-05T09:21:53Z</time>
      </trkpt>
      <trkpt lat="27.76482600" lon="-15.5835410">
        <ele>85.336000</ele>
        <time>2009-01-05T09:21:54Z</time>
      </trkpt>
      <trkpt lat="27.76484800" lon="-15.5836020">
        <ele>85.602000</ele>
        <time>2009-01-05T09:21:55Z</time>
      </trkpt>
      <trkpt lat="27.76487000" lon="-15.5836630">
        <ele>85.696000</ele>
        <time>2009-01-05T09:21:56Z</time>
      </trkpt>
      <trkpt lat="27.76489100" lon="-15.5837260">
        <ele>85.804000</ele>
        <time>2009-01-05T09:21:57Z</time>
      </trkpt>
      <trkpt lat="27.76491100" lon="-15.5837890">
        <ele>85.555000</ele>
        <time>2009-01-05T09:21:58Z</time>
      </trkpt>
      <trkpt lat="27.76493000" lon="-15.5838540">
        <ele>85.784000</ele>
        <time>2009-01-05T09:21:59Z</time>
      </trkpt>
      <trkpt lat="27.76494700" lon="-15.5839220">
        <ele>85.070000</ele>
        <time>2009-01-05T09:22:00Z</time>
      </trkpt>
      <trkpt lat="27.76496100" lon="-15.5839910">
        <ele>85.043000</ele>
        <time>2009-01-05T09:22:01Z</time>
      </trkpt>
      <trkpt lat="27.76497300" lon="-15.5840620">
        <ele>84.463000</ele>
        <time>2009-01-05T09:22:02Z</time>
      </trkpt>
      <trkpt lat="27.76498200" lon="-15.5841350">
        <ele>84.024000</ele>
        <time>2009-01-05T09:22:03Z</time>
      </trkpt>
      <trkpt lat="27.76499000" lon="-15.5842080">
        <ele>83.762000</ele>
        <time>2009-01-05T09:22:04Z</time>
      </trkpt>
      <trkpt lat="27.76499600" lon="-15.5842840">
        <ele>83.672000</ele>
        <time>2009-01-05T09:22:05Z</time>
      </trkpt>
      <trkpt lat="27.76499700" lon="-15.5843610">
        <ele>83.970000</ele>
        <time>2009-01-05T09:22:06Z</time>
      </trkpt>
      <trkpt lat="27.76499400" lon="-15.5844410">
        <ele>83.568000</ele>
        <time>2009-01-05T09:22:07Z</time>
      </trkpt>
      <trkpt lat="27.76498600" lon="-15.5845240">
        <ele>83.052000</ele>
        <time>2009-01-05T09:22:08Z</time>
      </trkpt>
      <trkpt lat="27.76497300" lon="-15.5846110">
        <ele>82.702000</ele>
        <time>2009-01-05T09:22:09Z</time>
      </trkpt>
      <trkpt lat="27.76495600" lon="-15.5846990">
        <ele>82.707000</ele>
        <time>2009-01-05T09:22:10Z</time>
      </trkpt>
      <trkpt lat="27.76493300" lon="-15.5847880">
        <ele>82.460000</ele>
        <time>2009-01-05T09:22:11Z</time>
      </trkpt>
      <trkpt lat="27.76490600" lon="-15.5848790">
        <ele>81.426000</ele>
        <time>2009-01-05T09:22:12Z</time>
      </trkpt>
      <trkpt lat="27.76487600" lon="-15.5849700">
        <ele>81.379000</ele>
        <time>2009-01-05T09:22:13Z</time>
      </trkpt>
      <trkpt lat="27.76484100" lon="-15.5850610">
        <ele>80.995000</ele>
        <time>2009-01-05T09:22:14Z</time>
      </trkpt>
      <trkpt lat="27.76480100" lon="-15.5851500">
        <ele>80.432000</ele>
        <time>2009-01-05T09:22:15Z</time>
      </trkpt>
      <trkpt lat="27.76475600" lon="-15.5852380">
        <ele>80.268000</ele>
        <time>2009-01-05T09:22:16Z</time>
      </trkpt>
      <trkpt lat="27.76470600" lon="-15.5853270">
        <ele>79.583000</ele>
        <time>2009-01-05T09:22:17Z</time>
      </trkpt>
      <trkpt lat="27.76465200" lon="-15.5854170">
        <ele>78.668000</ele>
        <time>2009-01-05T09:22:18Z</time>
      </trkpt>
      <trkpt lat="27.76459500" lon="-15.5855080">
        <ele>77.859000</ele>
        <time>2009-01-05T09:22:19Z</time>
      </trkpt>
      <trkpt lat="27.76453400" lon="-15.5856010">
        <ele>77.222000</ele>
        <time>2009-01-05T09:22:20Z</time>
      </trkpt>
      <trkpt lat="27.76447100" lon="-15.5856970">
        <ele>76.620000</ele>
        <time>2009-01-05T09:22:21Z</time>
      </trkpt>
      <trkpt lat="27.76440600" lon="-15.5857960">
        <ele>75.702000</ele>
        <time>2009-01-05T09:22:22Z</time>
      </trkpt>
      <trkpt lat="27.76433800" lon="-15.5858960">
        <ele>74.584000</ele>
        <time>2009-01-05T09:22:23Z</time>
      </trkpt>
      <trkpt lat="27.76426900" lon="-15.5859980">
        <ele>73.744000</ele>
        <time>2009-01-05T09:22:24Z</time>
      </trkpt>
      <trkpt lat="27.76419700" lon="-15.5861020">
        <ele>72.922000</ele>
        <time>2009-01-05T09:22:25Z</time>
      </trkpt>
      <trkpt lat="27.76412300" lon="-15.5862080">
        <ele>72.530000</ele>
        <time>2009-01-05T09:22:26Z</time>
      </trkpt>
      <trkpt lat="27.76405000" lon="-15.5863150">
        <ele>71.822000</ele>
        <time>2009-01-05T09:22:27Z</time>
      </trkpt>
      <trkpt lat="27.76397600" lon="-15.5864230">
        <ele>71.137000</ele>
        <time>2009-01-05T09:22:28Z</time>
      </trkpt>
      <trkpt lat="27.76390200" lon="-15.5865320">
        <ele>70.510000</ele>
        <time>2009-01-05T09:22:29Z</time>
      </trkpt>
      <trkpt lat="27.76382600" lon="-15.5866410">
        <ele>69.736000</ele>
        <time>2009-01-05T09:22:30Z</time>
      </trkpt>
      <trkpt lat="27.76375100" lon="-15.5867500">
        <ele>69.296000</ele>
        <time>2009-01-05T09:22:31Z</time>
      </trkpt>
      <trkpt lat="27.76367600" lon="-15.5868600">
        <ele>68.337000</ele>
        <time>2009-01-05T09:22:32Z</time>
      </trkpt>
      <trkpt lat="27.76360100" lon="-15.5869700">
        <ele>67.525000</ele>
        <time>2009-01-05T09:22:33Z</time>
      </trkpt>
      <trkpt lat="27.76352600" lon="-15.5870800">
        <ele>66.748000</ele>
        <time>2009-01-05T09:22:34Z</time>
      </trkpt>
      <trkpt lat="27.76345100" lon="-15.5871910">
        <ele>66.240000</ele>
        <time>2009-01-05T09:22:35Z</time>
      </trkpt>
      <trkpt lat="27.76337600" lon="-15.5873010">
        <ele>66.118000</ele>
        <time>2009-01-05T09:22:36Z</time>
      </trkpt>
      <trkpt lat="27.76330000" lon="-15.5874120">
        <ele>64.619000</ele>
        <time>2009-01-05T09:22:37Z</time>
      </trkpt>
      <trkpt lat="27.76322500" lon="-15.5875220">
        <ele>63.726000</ele>
        <time>2009-01-05T09:22:38Z</time>
      </trkpt>
      <trkpt lat="27.76314900" lon="-15.5876330">
        <ele>62.943000</ele>
        <time>2009-01-05T09:22:39Z</time>
      </trkpt>
      <trkpt lat="27.76307600" lon="-15.5877470">
        <ele>62.317000</ele>
        <time>2009-01-05T09:22:40Z</time>
      </trkpt>
      <trkpt lat="27.76300700" lon="-15.5878660">
        <ele>61.637000</ele>
        <time>2009-01-05T09:22:41Z</time>
      </trkpt>
      <trkpt lat="27.76294300" lon="-15.5879880">
        <ele>60.456000</ele>
        <time>2009-01-05T09:22:42Z</time>
      </trkpt>
      <trkpt lat="27.76288500" lon="-15.5881150">
        <ele>59.552000</ele>
        <time>2009-01-05T09:22:43Z</time>
      </trkpt>
      <trkpt lat="27.76283700" lon="-15.5882450">
        <ele>59.395000</ele>
        <time>2009-01-05T09:22:44Z</time>
      </trkpt>
      <trkpt lat="27.76279800" lon="-15.5883770">
        <ele>59.289000</ele>
        <time>2009-01-05T09:22:45Z</time>
      </trkpt>
      <trkpt lat="27.76276500" lon="-15.5885090">
        <ele>58.507000</ele>
        <time>2009-01-05T09:22:46Z</time>
      </trkpt>
      <trkpt lat="27.76273700" lon="-15.5886390">
        <ele>57.993000</ele>
        <time>2009-01-05T09:22:47Z</time>
      </trkpt>
      <trkpt lat="27.76271400" lon="-15.5887650">
        <ele>58.165000</ele>
        <time>2009-01-05T09:22:48Z</time>
      </trkpt>
      <trkpt lat="27.76269400" lon="-15.5888860">
        <ele>57.250000</ele>
        <time>2009-01-05T09:22:49Z</time>
      </trkpt>
      <trkpt lat="27.76267800" lon="-15.5890030">
        <ele>57.242000</ele>
        <time>2009-01-05T09:22:50Z</time>
      </trkpt>
      <trkpt lat="27.76266600" lon="-15.5891170">
        <ele>57.297000</ele>
        <time>2009-01-05T09:22:51Z</time>
      </trkpt>
      <trkpt lat="27.76265500" lon="-15.5892280">
        <ele>56.782000</ele>
        <time>2009-01-05T09:22:52Z</time>
      </trkpt>
      <trkpt lat="27.76264300" lon="-15.5893350">
        <ele>56.681000</ele>
        <time>2009-01-05T09:22:53Z</time>
      </trkpt>
      <trkpt lat="27.76262900" lon="-15.5894400">
        <ele>56.718000</ele>
        <time>2009-01-05T09:22:54Z</time>
      </trkpt>
      <trkpt lat="27.76261400" lon="-15.5895430">
        <ele>56.459000</ele>
        <time>2009-01-05T09:22:55Z</time>
      </trkpt>
      <trkpt lat="27.76259700" lon="-15.5896450">
        <ele>56.076000</ele>
        <time>2009-01-05T09:22:56Z</time>
      </trkpt>
      <trkpt lat="27.76258100" lon="-15.5897460">
        <ele>55.870000</ele>
        <time>2009-01-05T09:22:57Z</time>
      </trkpt>
      <trkpt lat="27.76256300" lon="-15.5898450">
        <ele>56.293000</ele>
        <time>2009-01-05T09:22:58Z</time>
      </trkpt>
      <trkpt lat="27.76254500" lon="-15.5899440">
        <ele>55.908000</ele>
        <time>2009-01-05T09:22:59Z</time>
      </trkpt>
      <trkpt lat="27.76252600" lon="-15.5900410">
        <ele>56.001000</ele>
        <time>2009-01-05T09:23:00Z</time>
      </trkpt>
      <trkpt lat="27.76250600" lon="-15.5901360">
        <ele>55.642000</ele>
        <time>2009-01-05T09:23:01Z</time>
      </trkpt>
      <trkpt lat="27.76248600" lon="-15.5902310">
        <ele>55.959000</ele>
        <time>2009-01-05T09:23:02Z</time>
      </trkpt>
      <trkpt lat="27.76246900" lon="-15.5903260">
        <ele>55.611000</ele>
        <time>2009-01-05T09:23:03Z</time>
      </trkpt>
      <trkpt lat="27.76245300" lon="-15.5904200">
        <ele>55.653000</ele>
        <time>2009-01-05T09:23:04Z</time>
      </trkpt>
      <trkpt lat="27.76243700" lon="-15.5905130">
        <ele>55.579000</ele>
        <time>2009-01-05T09:23:05Z</time>
      </trkpt>
      <trkpt lat="27.76242200" lon="-15.5906060">
        <ele>55.466000</ele>
        <time>2009-01-05T09:23:06Z</time>
      </trkpt>
      <trkpt lat="27.76240800" lon="-15.5906980">
        <ele>55.134000</ele>
        <time>2009-01-05T09:23:07Z</time>
      </trkpt>
      <trkpt lat="27.76239300" lon="-15.5907890">
        <ele>55.261000</ele>
        <time>2009-01-05T09:23:08Z</time>
      </trkpt>
      <trkpt lat="27.76237900" lon="-15.5908800">
        <ele>54.794000</ele>
        <time>2009-01-05T09:23:09Z</time>
      </trkpt>
      <trkpt lat="27.76236500" lon="-15.5909700">
        <ele>54.672000</ele>
        <time>2009-01-05T09:23:10Z</time>
      </trkpt>
      <trkpt lat="27.76235100" lon="-15.5910600">
        <ele>54.803000</ele>
        <time>2009-01-05T09:23:11Z</time>
      </trkpt>
      <trkpt lat="27.76233700" lon="-15.5911490">
        <ele>54.523000</ele>
        <time>2009-01-05T09:23:12Z</time>
      </trkpt>
      <trkpt lat="27.76232400" lon="-15.5912380">
        <ele>54.521000</ele>
        <time>2009-01-05T09:23:13Z</time>
      </trkpt>
      <trkpt lat="27.76231100" lon="-15.5913260">
        <ele>54.675000</ele>
        <time>2009-01-05T09:23:14Z</time>
      </trkpt>
      <trkpt lat="27.76229700" lon="-15.5914140">
        <ele>54.800000</ele>
        <time>2009-01-05T09:23:15Z</time>
      </trkpt>
      <trkpt lat="27.76228400" lon="-15.5915010">
        <ele>54.510000</ele>
        <time>2009-01-05T09:23:16Z</time>
      </trkpt>
      <trkpt lat="27.76226900" lon="-15.5915870">
        <ele>54.413000</ele>
        <time>2009-01-05T09:23:17Z</time>
      </trkpt>
      <trkpt lat="27.76225400" lon="-15.5916730">
        <ele>54.709000</ele>
        <time>2009-01-05T09:23:18Z</time>
      </trkpt>
      <trkpt lat="27.76224000" lon="-15.5917590">
        <ele>54.187000</ele>
        <time>2009-01-05T09:23:19Z</time>
      </trkpt>
      <trkpt lat="27.76222600" lon="-15.5918430">
        <ele>54.325000</ele>
        <time>2009-01-05T09:23:20Z</time>
      </trkpt>
      <trkpt lat="27.76221400" lon="-15.5919280">
        <ele>54.056000</ele>
        <time>2009-01-05T09:23:21Z</time>
      </trkpt>
      <trkpt lat="27.76220000" lon="-15.5920120">
        <ele>54.038000</ele>
        <time>2009-01-05T09:23:22Z</time>
      </trkpt>
      <trkpt lat="27.76218700" lon="-15.5920950">
        <ele>54.086000</ele>
        <time>2009-01-05T09:23:23Z</time>
      </trkpt>
      <trkpt lat="27.76217500" lon="-15.5921780">
        <ele>54.084000</ele>
        <time>2009-01-05T09:23:24Z</time>
      </trkpt>
      <trkpt lat="27.76216100" lon="-15.5922610">
        <ele>54.080000</ele>
        <time>2009-01-05T09:23:25Z</time>
      </trkpt>
      <trkpt lat="27.76214800" lon="-15.5923420">
        <ele>53.967000</ele>
        <time>2009-01-05T09:23:26Z</time>
      </trkpt>
      <trkpt lat="27.76213500" lon="-15.5924230">
        <ele>54.081000</ele>
        <time>2009-01-05T09:23:27Z</time>
      </trkpt>
      <trkpt lat="27.76212200" lon="-15.5925040">
        <ele>53.778000</ele>
        <time>2009-01-05T09:23:28Z</time>
      </trkpt>
      <trkpt lat="27.76211000" lon="-15.5925860">
        <ele>53.998000</ele>
        <time>2009-01-05T09:23:29Z</time>
      </trkpt>
      <trkpt lat="27.76210200" lon="-15.5926690">
        <ele>54.414000</ele>
        <time>2009-01-05T09:23:30Z</time>
      </trkpt>
      <trkpt lat="27.76210800" lon="-15.5927510">
        <ele>54.406000</ele>
        <time>2009-01-05T09:23:31Z</time>
      </trkpt>
      <trkpt lat="27.76213000" lon="-15.5928300">
        <ele>54.557000</ele>
        <time>2009-01-05T09:23:32Z</time>
      </trkpt>
      <trkpt lat="27.76215900" lon="-15.5929050">
        <ele>54.048000</ele>
        <time>2009-01-05T09:23:33Z</time>
      </trkpt>
      <trkpt lat="27.76217600" lon="-15.5929820">
        <ele>54.154000</ele>
        <time>2009-01-05T09:23:34Z</time>
      </trkpt>
      <trkpt lat="27.76217500" lon="-15.5930620">
        <ele>54.047000</ele>
        <time>2009-01-05T09:23:35Z</time>
      </trkpt>
      <trkpt lat="27.76215600" lon="-15.5931390">
        <ele>53.994000</ele>
        <time>2009-01-05T09:23:36Z</time>
      </trkpt>
      <trkpt lat="27.76212200" lon="-15.5932090">
        <ele>54.215000</ele>
        <time>2009-01-05T09:23:37Z</time>
      </trkpt>
      <trkpt lat="27.76207500" lon="-15.5932720">
        <ele>54.511000</ele>
        <time>2009-01-05T09:23:38Z</time>
      </trkpt>
      <trkpt lat="27.76202800" lon="-15.5933370">
        <ele>54.353000</ele>
        <time>2009-01-05T09:23:39Z</time>
      </trkpt>
      <trkpt lat="27.76199500" lon="-15.5934110">
        <ele>54.158000</ele>
        <time>2009-01-05T09:23:40Z</time>
      </trkpt>
      <trkpt lat="27.76197600" lon="-15.5934900">
        <ele>53.937000</ele>
        <time>2009-01-05T09:23:41Z</time>
      </trkpt>
      <trkpt lat="27.76196200" lon="-15.5935710">
        <ele>54.126000</ele>
        <time>2009-01-05T09:23:42Z</time>
      </trkpt>
      <trkpt lat="27.76195000" lon="-15.5936520">
        <ele>54.222000</ele>
        <time>2009-01-05T09:23:43Z</time>
      </trkpt>
      <trkpt lat="27.76193700" lon="-15.5937320">
        <ele>54.228000</ele>
        <time>2009-01-05T09:23:44Z</time>
      </trkpt>
      <trkpt lat="27.76192400" lon="-15.5938120">
        <ele>54.038000</ele>
        <time>2009-01-05T09:23:45Z</time>
      </trkpt>
      <trkpt lat="27.76191100" lon="-15.5938910">
        <ele>54.079000</ele>
        <time>2009-01-05T09:23:46Z</time>
      </trkpt>
      <trkpt lat="27.76189900" lon="-15.5939700">
        <ele>53.768000</ele>
        <time>2009-01-05T09:23:47Z</time>
      </trkpt>
      <trkpt lat="27.76188700" lon="-15.5940480">
        <ele>54.115000</ele>
        <time>2009-01-05T09:23:48Z</time>
      </trkpt>
      <trkpt lat="27.76187500" lon="-15.5941250">
        <ele>54.084000</ele>
        <time>2009-01-05T09:23:49Z</time>
      </trkpt>
      <trkpt lat="27.76186300" lon="-15.5942030">
        <ele>54.051000</ele>
        <time>2009-01-05T09:23:50Z</time>
      </trkpt>
      <trkpt lat="27.76185000" lon="-15.5942800">
        <ele>53.946000</ele>
        <time>2009-01-05T09:23:51Z</time>
      </trkpt>
      <trkpt lat="27.76183700" lon="-15.5943570">
        <ele>53.854000</ele>
        <time>2009-01-05T09:23:52Z</time>
      </trkpt>
      <trkpt lat="27.76182500" lon="-15.5944330">
        <ele>54.212000</ele>
        <time>2009-01-05T09:23:53Z</time>
      </trkpt>
      <trkpt lat="27.76181200" lon="-15.5945110">
        <ele>53.915000</ele>
        <time>2009-01-05T09:23:54Z</time>
      </trkpt>
      <trkpt lat="27.76179800" lon="-15.5945880">
        <ele>53.802000</ele>
        <time>2009-01-05T09:23:55Z</time>
      </trkpt>
      <trkpt lat="27.76178600" lon="-15.5946640">
        <ele>54.006000</ele>
        <time>2009-01-05T09:23:56Z</time>
      </trkpt>
      <trkpt lat="27.76177300" lon="-15.5947410">
        <ele>53.717000</ele>
        <time>2009-01-05T09:23:57Z</time>
      </trkpt>
      <trkpt lat="27.76176100" lon="-15.5948180">
        <ele>54.127000</ele>
        <time>2009-01-05T09:23:58Z</time>
      </trkpt>
      <trkpt lat="27.76174900" lon="-15.5948940">
        <ele>54.575000</ele>
        <time>2009-01-05T09:23:59Z</time>
      </trkpt>
      <trkpt lat="27.76173600" lon="-15.5949690">
        <ele>54.504000</ele>
        <time>2009-01-05T09:24:00Z</time>
      </trkpt>
      <trkpt lat="27.76172400" lon="-15.5950430">
        <ele>54.061000</ele>
        <time>2009-01-05T09:24:01Z</time>
      </trkpt>
      <trkpt lat="27.76171200" lon="-15.5951180">
        <ele>54.374000</ele>
        <time>2009-01-05T09:24:02Z</time>
      </trkpt>
      <trkpt lat="27.76169900" lon="-15.5951920">
        <ele>54.338000</ele>
        <time>2009-01-05T09:24:03Z</time>
      </trkpt>
      <trkpt lat="27.76168700" lon="-15.5952650">
        <ele>53.918000</ele>
        <time>2009-01-05T09:24:04Z</time>
      </trkpt>
      <trkpt lat="27.76167400" lon="-15.5953390">
        <ele>54.025000</ele>
        <time>2009-01-05T09:24:05Z</time>
      </trkpt>
      <trkpt lat="27.76166200" lon="-15.5954120">
        <ele>53.698000</ele>
        <time>2009-01-05T09:24:06Z</time>
      </trkpt>
      <trkpt lat="27.76164900" lon="-15.5954860">
        <ele>53.767000</ele>
        <time>2009-01-05T09:24:07Z</time>
      </trkpt>
      <trkpt lat="27.76163700" lon="-15.5955580">
        <ele>53.663000</ele>
        <time>2009-01-05T09:24:08Z</time>
      </trkpt>
      <trkpt lat="27.76162400" lon="-15.5956310">
        <ele>53.748000</ele>
        <time>2009-01-05T09:24:09Z</time>
      </trkpt>
      <trkpt lat="27.76161100" lon="-15.5957030">
        <ele>53.654000</ele>
        <time>2009-01-05T09:24:10Z</time>
      </trkpt>
      <trkpt lat="27.76159900" lon="-15.5957750">
        <ele>53.841000</ele>
        <time>2009-01-05T09:24:11Z</time>
      </trkpt>
      <trkpt lat="27.76158800" lon="-15.5958460">
        <ele>53.913000</ele>
        <time>2009-01-05T09:24:12Z</time>
      </trkpt>
      <trkpt lat="27.76157600" lon="-15.5959180">
        <ele>53.951000</ele>
        <time>2009-01-05T09:24:13Z</time>
      </trkpt>
      <trkpt lat="27.76156400" lon="-15.5959890">
        <ele>53.809000</ele>
        <time>2009-01-05T09:24:14Z</time>
      </trkpt>
      <trkpt lat="27.76155300" lon="-15.5960590">
        <ele>53.797000</ele>
        <time>2009-01-05T09:24:15Z</time>
      </trkpt>
      <trkpt lat="27.76154100" lon="-15.5961290">
        <ele>53.959000</ele>
        <time>2009-01-05T09:24:16Z</time>
      </trkpt>
      <trkpt lat="27.76152900" lon="-15.5961990">
        <ele>54.568000</ele>
        <time>2009-01-05T09:24:17Z</time>
      </trkpt>
      <trkpt lat="27.76151600" lon="-15.5962680">
        <ele>54.094000</ele>
        <time>2009-01-05T09:24:18Z</time>
      </trkpt>
      <trkpt lat="27.76150400" lon="-15.5963380">
        <ele>53.836000</ele>
        <time>2009-01-05T09:24:19Z</time>
      </trkpt>
      <trkpt lat="27.76149200" lon="-15.5964080">
        <ele>53.715000</ele>
        <time>2009-01-05T09:24:20Z</time>
      </trkpt>
      <trkpt lat="27.76148000" lon="-15.5964780">
        <ele>53.711000</ele>
        <time>2009-01-05T09:24:21Z</time>
      </trkpt>
      <trkpt lat="27.76146800" lon="-15.5965480">
        <ele>53.929000</ele>
        <time>2009-01-05T09:24:22Z</time>
      </trkpt>
      <trkpt lat="27.76145600" lon="-15.5966170">
        <ele>53.706000</ele>
        <time>2009-01-05T09:24:23Z</time>
      </trkpt>
      <trkpt lat="27.76144300" lon="-15.5966880">
        <ele>53.548000</ele>
        <time>2009-01-05T09:24:24Z</time>
      </trkpt>
      <trkpt lat="27.76142900" lon="-15.5967590">
        <ele>53.140000</ele>
        <time>2009-01-05T09:24:25Z</time>
      </trkpt>
      <trkpt lat="27.76141800" lon="-15.5968300">
        <ele>53.995000</ele>
        <time>2009-01-05T09:24:26Z</time>
      </trkpt>
      <trkpt lat="27.76140800" lon="-15.5969000">
        <ele>53.632000</ele>
        <time>2009-01-05T09:24:27Z</time>
      </trkpt>
      <trkpt lat="27.76139700" lon="-15.5969700">
        <ele>53.723000</ele>
        <time>2009-01-05T09:24:28Z</time>
      </trkpt>
      <trkpt lat="27.76138600" lon="-15.5970380">
        <ele>53.925000</ele>
        <time>2009-01-05T09:24:29Z</time>
      </trkpt>
      <trkpt lat="27.76137400" lon="-15.5971030">
        <ele>53.503000</ele>
        <time>2009-01-05T09:24:30Z</time>
      </trkpt>
      <trkpt lat="27.76136000" lon="-15.5971670">
        <ele>53.166000</ele>
        <time>2009-01-05T09:24:31Z</time>
      </trkpt>
      <trkpt lat="27.76134200" lon="-15.5972310">
        <ele>53.099000</ele>
        <time>2009-01-05T09:24:32Z</time>
      </trkpt>
      <trkpt lat="27.76132300" lon="-15.5972960">
        <ele>53.323000</ele>
        <time>2009-01-05T09:24:33Z</time>
      </trkpt>
      <trkpt lat="27.76130300" lon="-15.5973610">
        <ele>53.380000</ele>
        <time>2009-01-05T09:24:34Z</time>
      </trkpt>
      <trkpt lat="27.76128000" lon="-15.5974270">
        <ele>53.202000</ele>
        <time>2009-01-05T09:24:35Z</time>
      </trkpt>
      <trkpt lat="27.76125700" lon="-15.5974920">
        <ele>53.761000</ele>
        <time>2009-01-05T09:24:36Z</time>
      </trkpt>
      <trkpt lat="27.76123200" lon="-15.5975570">
        <ele>53.264000</ele>
        <time>2009-01-05T09:24:37Z</time>
      </trkpt>
      <trkpt lat="27.76120600" lon="-15.5976220">
        <ele>53.365000</ele>
        <time>2009-01-05T09:24:38Z</time>
      </trkpt>
      <trkpt lat="27.76117800" lon="-15.5976860">
        <ele>53.359000</ele>
        <time>2009-01-05T09:24:39Z</time>
      </trkpt>
      <trkpt lat="27.76114900" lon="-15.5977490">
        <ele>53.440000</ele>
        <time>2009-01-05T09:24:40Z</time>
      </trkpt>
      <trkpt lat="27.76112800" lon="-15.5978140">
        <ele>53.040000</ele>
        <time>2009-01-05T09:24:41Z</time>
      </trkpt>
      <trkpt lat="27.76112200" lon="-15.5978810">
        <ele>53.121000</ele>
        <time>2009-01-05T09:24:42Z</time>
      </trkpt>
      <trkpt lat="27.76113200" lon="-15.5979470">
        <ele>53.400000</ele>
        <time>2009-01-05T09:24:43Z</time>
      </trkpt>
      <trkpt lat="27.76114700" lon="-15.5980120">
        <ele>52.998000</ele>
        <time>2009-01-05T09:24:44Z</time>
      </trkpt>
      <trkpt lat="27.76116100" lon="-15.5980780">
        <ele>52.761000</ele>
        <time>2009-01-05T09:24:45Z</time>
      </trkpt>
      <trkpt lat="27.76117000" lon="-15.5981450">
        <ele>53.062000</ele>
        <time>2009-01-05T09:24:46Z</time>
      </trkpt>
      <trkpt lat="27.76117400" lon="-15.5982130">
        <ele>53.035000</ele>
        <time>2009-01-05T09:24:47Z</time>
      </trkpt>
      <trkpt lat="27.76116700" lon="-15.5982810">
        <ele>52.862000</ele>
        <time>2009-01-05T09:24:48Z</time>
      </trkpt>
      <trkpt lat="27.76114800" lon="-15.5983470">
        <ele>52.969000</ele>
        <time>2009-01-05T09:24:49Z</time>
      </trkpt>
      <trkpt lat="27.76111800" lon="-15.5984090">
        <ele>52.821000</ele>
        <time>2009-01-05T09:24:50Z</time>
      </trkpt>
      <trkpt lat="27.76107900" lon="-15.5984660">
        <ele>52.629000</ele>
        <time>2009-01-05T09:24:51Z</time>
      </trkpt>
      <trkpt lat="27.76103200" lon="-15.5985150">
        <ele>52.478000</ele>
        <time>2009-01-05T09:24:52Z</time>
      </trkpt>
      <trkpt lat="27.76097600" lon="-15.5985540">
        <ele>52.409000</ele>
        <time>2009-01-05T09:24:53Z</time>
      </trkpt>
      <trkpt lat="27.76091400" lon="-15.5985800">
        <ele>52.297000</ele>
        <time>2009-01-05T09:24:54Z</time>
      </trkpt>
      <trkpt lat="27.76084800" lon="-15.5985960">
        <ele>52.526000</ele>
        <time>2009-01-05T09:24:55Z</time>
      </trkpt>
      <trkpt lat="27.76078000" lon="-15.5986030">
        <ele>52.264000</ele>
        <time>2009-01-05T09:24:56Z</time>
      </trkpt>
      <trkpt lat="27.76071200" lon="-15.5986070">
        <ele>52.491000</ele>
        <time>2009-01-05T09:24:57Z</time>
      </trkpt>
      <trkpt lat="27.76064300" lon="-15.5986130">
        <ele>52.300000</ele>
        <time>2009-01-05T09:24:58Z</time>
      </trkpt>
      <trkpt lat="27.76057300" lon="-15.5986230">
        <ele>52.030000</ele>
        <time>2009-01-05T09:24:59Z</time>
      </trkpt>
      <trkpt lat="27.76050300" lon="-15.5986410">
        <ele>51.981000</ele>
        <time>2009-01-05T09:25:00Z</time>
      </trkpt>
      <trkpt lat="27.76043500" lon="-15.5986670">
        <ele>52.285000</ele>
        <time>2009-01-05T09:25:01Z</time>
      </trkpt>
      <trkpt lat="27.76036900" lon="-15.5987020">
        <ele>51.912000</ele>
        <time>2009-01-05T09:25:02Z</time>
      </trkpt>
      <trkpt lat="27.76030500" lon="-15.5987420">
        <ele>51.713000</ele>
        <time>2009-01-05T09:25:03Z</time>
      </trkpt>
      <trkpt lat="27.76024100" lon="-15.5987830">
        <ele>51.622000</ele>
        <time>2009-01-05T09:25:04Z</time>
      </trkpt>
      <trkpt lat="27.76017500" lon="-15.5988230">
        <ele>51.492000</ele>
        <time>2009-01-05T09:25:05Z</time>
      </trkpt>
      <trkpt lat="27.76010800" lon="-15.5988610">
        <ele>51.314000</ele>
        <time>2009-01-05T09:25:06Z</time>
      </trkpt>
      <trkpt lat="27.76003900" lon="-15.5988970">
        <ele>50.978000</ele>
        <time>2009-01-05T09:25:07Z</time>
      </trkpt>
      <trkpt lat="27.75996900" lon="-15.5989290">
        <ele>50.907000</ele>
        <time>2009-01-05T09:25:08Z</time>
      </trkpt>
      <trkpt lat="27.75989800" lon="-15.5989600">
        <ele>50.917000</ele>
        <time>2009-01-05T09:25:09Z</time>
      </trkpt>
      <trkpt lat="27.75982600" lon="-15.5989890">
        <ele>50.666000</ele>
        <time>2009-01-05T09:25:10Z</time>
      </trkpt>
      <trkpt lat="27.75975200" lon="-15.5990180">
        <ele>50.515000</ele>
        <time>2009-01-05T09:25:11Z</time>
      </trkpt>
      <trkpt lat="27.75967800" lon="-15.5990480">
        <ele>50.372000</ele>
        <time>2009-01-05T09:25:12Z</time>
      </trkpt>
      <trkpt lat="27.75960400" lon="-15.5990780">
        <ele>50.364000</ele>
        <time>2009-01-05T09:25:13Z</time>
      </trkpt>
      <trkpt lat="27.75953000" lon="-15.5991080">
        <ele>50.499000</ele>
        <time>2009-01-05T09:25:14Z</time>
      </trkpt>
      <trkpt lat="27.75945600" lon="-15.5991380">
        <ele>50.055000</ele>
        <time>2009-01-05T09:25:15Z</time>
      </trkpt>
      <trkpt lat="27.75938300" lon="-15.5991690">
        <ele>49.772000</ele>
        <time>2009-01-05T09:25:16Z</time>
      </trkpt>
      <trkpt lat="27.75931000" lon="-15.5991970">
        <ele>49.941000</ele>
        <time>2009-01-05T09:25:17Z</time>
      </trkpt>
      <trkpt lat="27.75923800" lon="-15.5992260">
        <ele>49.468000</ele>
        <time>2009-01-05T09:25:18Z</time>
      </trkpt>
      <trkpt lat="27.75916500" lon="-15.5992550">
        <ele>49.494000</ele>
        <time>2009-01-05T09:25:19Z</time>
      </trkpt>
      <trkpt lat="27.75909300" lon="-15.5992860">
        <ele>49.687000</ele>
        <time>2009-01-05T09:25:20Z</time>
      </trkpt>
      <trkpt lat="27.75902300" lon="-15.5993190">
        <ele>49.788000</ele>
        <time>2009-01-05T09:25:21Z</time>
      </trkpt>
      <trkpt lat="27.75895300" lon="-15.5993510">
        <ele>49.349000</ele>
        <time>2009-01-05T09:25:22Z</time>
      </trkpt>
      <trkpt lat="27.75888300" lon="-15.5993800">
        <ele>49.126000</ele>
        <time>2009-01-05T09:25:23Z</time>
      </trkpt>
      <trkpt lat="27.75881200" lon="-15.5994100">
        <ele>49.436000</ele>
        <time>2009-01-05T09:25:24Z</time>
      </trkpt>
      <trkpt lat="27.75874000" lon="-15.5994410">
        <ele>49.007000</ele>
        <time>2009-01-05T09:25:25Z</time>
      </trkpt>
      <trkpt lat="27.75866800" lon="-15.5994710">
        <ele>49.282000</ele>
        <time>2009-01-05T09:25:26Z</time>
      </trkpt>
      <trkpt lat="27.75859600" lon="-15.5995000">
        <ele>49.121000</ele>
        <time>2009-01-05T09:25:27Z</time>
      </trkpt>
      <trkpt lat="27.75852400" lon="-15.5995290">
        <ele>49.202000</ele>
        <time>2009-01-05T09:25:28Z</time>
      </trkpt>
      <trkpt lat="27.75845200" lon="-15.5995580">
        <ele>49.181000</ele>
        <time>2009-01-05T09:25:29Z</time>
      </trkpt>
      <trkpt lat="27.75838000" lon="-15.5995870">
        <ele>49.329000</ele>
        <time>2009-01-05T09:25:30Z</time>
      </trkpt>
      <trkpt lat="27.75830800" lon="-15.5996170">
        <ele>49.344000</ele>
        <time>2009-01-05T09:25:31Z</time>
      </trkpt>
      <trkpt lat="27.75823600" lon="-15.5996460">
        <ele>49.523000</ele>
        <time>2009-01-05T09:25:32Z</time>
      </trkpt>
      <trkpt lat="27.75816500" lon="-15.5996740">
        <ele>49.747000</ele>
        <time>2009-01-05T09:25:33Z</time>
      </trkpt>
      <trkpt lat="27.75809400" lon="-15.5997030">
        <ele>49.300000</ele>
        <time>2009-01-05T09:25:34Z</time>
      </trkpt>
      <trkpt lat="27.75802400" lon="-15.5997320">
        <ele>49.291000</ele>
        <time>2009-01-05T09:25:35Z</time>
      </trkpt>
      <trkpt lat="27.75795400" lon="-15.5997620">
        <ele>49.145000</ele>
        <time>2009-01-05T09:25:36Z</time>
      </trkpt>
      <trkpt lat="27.75788400" lon="-15.5997900">
        <ele>49.237000</ele>
        <time>2009-01-05T09:25:37Z</time>
      </trkpt>
      <trkpt lat="27.75781500" lon="-15.5998190">
        <ele>48.990000</ele>
        <time>2009-01-05T09:25:38Z</time>
      </trkpt>
      <trkpt lat="27.75774600" lon="-15.5998480">
        <ele>48.709000</ele>
        <time>2009-01-05T09:25:39Z</time>
      </trkpt>
      <trkpt lat="27.75767600" lon="-15.5998760">
        <ele>48.811000</ele>
        <time>2009-01-05T09:25:40Z</time>
      </trkpt>
      <trkpt lat="27.75760700" lon="-15.5999040">
        <ele>48.647000</ele>
        <time>2009-01-05T09:25:41Z</time>
      </trkpt>
      <trkpt lat="27.75753800" lon="-15.5999330">
        <ele>48.620000</ele>
        <time>2009-01-05T09:25:42Z</time>
      </trkpt>
      <trkpt lat="27.75746900" lon="-15.5999610">
        <ele>48.323000</ele>
        <time>2009-01-05T09:25:43Z</time>
      </trkpt>
      <trkpt lat="27.75739900" lon="-15.5999910">
        <ele>48.262000</ele>
        <time>2009-01-05T09:25:44Z</time>
      </trkpt>
      <trkpt lat="27.75733100" lon="-15.6000200">
        <ele>48.398000</ele>
        <time>2009-01-05T09:25:45Z</time>
      </trkpt>
      <trkpt lat="27.75726300" lon="-15.6000490">
        <ele>48.139000</ele>
        <time>2009-01-05T09:25:46Z</time>
      </trkpt>
      <trkpt lat="27.75719400" lon="-15.6000770">
        <ele>47.993000</ele>
        <time>2009-01-05T09:25:47Z</time>
      </trkpt>
      <trkpt lat="27.75712500" lon="-15.6001050">
        <ele>48.082000</ele>
        <time>2009-01-05T09:25:48Z</time>
      </trkpt>
      <trkpt lat="27.75705500" lon="-15.6001330">
        <ele>47.505000</ele>
        <time>2009-01-05T09:25:49Z</time>
      </trkpt>
      <trkpt lat="27.75698500" lon="-15.6001620">
        <ele>47.523000</ele>
        <time>2009-01-05T09:25:50Z</time>
      </trkpt>
      <trkpt lat="27.75691500" lon="-15.6001910">
        <ele>47.364000</ele>
        <time>2009-01-05T09:25:51Z</time>
      </trkpt>
      <trkpt lat="27.75684500" lon="-15.6002210">
        <ele>47.250000</ele>
        <time>2009-01-05T09:25:52Z</time>
      </trkpt>
      <trkpt lat="27.75677300" lon="-15.6002510">
        <ele>47.263000</ele>
        <time>2009-01-05T09:25:53Z</time>
      </trkpt>
      <trkpt lat="27.75670200" lon="-15.6002810">
        <ele>47.254000</ele>
        <time>2009-01-05T09:25:54Z</time>
      </trkpt>
      <trkpt lat="27.75663000" lon="-15.6003110">
        <ele>47.449000</ele>
        <time>2009-01-05T09:25:55Z</time>
      </trkpt>
      <trkpt lat="27.75655800" lon="-15.6003410">
        <ele>47.089000</ele>
        <time>2009-01-05T09:25:56Z</time>
      </trkpt>
      <trkpt lat="27.75648600" lon="-15.6003710">
        <ele>46.509000</ele>
        <time>2009-01-05T09:25:57Z</time>
      </trkpt>
      <trkpt lat="27.75641400" lon="-15.6004000">
        <ele>47.172000</ele>
        <time>2009-01-05T09:25:58Z</time>
      </trkpt>
      <trkpt lat="27.75634200" lon="-15.6004300">
        <ele>46.680000</ele>
        <time>2009-01-05T09:25:59Z</time>
      </trkpt>
      <trkpt lat="27.75627100" lon="-15.6004590">
        <ele>46.393000</ele>
        <time>2009-01-05T09:26:00Z</time>
      </trkpt>
      <trkpt lat="27.75619900" lon="-15.6004870">
        <ele>46.260000</ele>
        <time>2009-01-05T09:26:01Z</time>
      </trkpt>
      <trkpt lat="27.75612800" lon="-15.6005160">
        <ele>45.953000</ele>
        <time>2009-01-05T09:26:02Z</time>
      </trkpt>
      <trkpt lat="27.75605700" lon="-15.6005460">
        <ele>45.619000</ele>
        <time>2009-01-05T09:26:03Z</time>
      </trkpt>
      <trkpt lat="27.75598600" lon="-15.6005750">
        <ele>45.291000</ele>
        <time>2009-01-05T09:26:04Z</time>
      </trkpt>
      <trkpt lat="27.75591500" lon="-15.6006040">
        <ele>45.192000</ele>
        <time>2009-01-05T09:26:05Z</time>
      </trkpt>
      <trkpt lat="27.75584400" lon="-15.6006340">
        <ele>44.895000</ele>
        <time>2009-01-05T09:26:06Z</time>
      </trkpt>
      <trkpt lat="27.75577300" lon="-15.6006640">
        <ele>46.041000</ele>
        <time>2009-01-05T09:26:07Z</time>
      </trkpt>
      <trkpt lat="27.75570200" lon="-15.6006930">
        <ele>45.305000</ele>
        <time>2009-01-05T09:26:08Z</time>
      </trkpt>
      <trkpt lat="27.75563100" lon="-15.6007230">
        <ele>45.029000</ele>
        <time>2009-01-05T09:26:09Z</time>
      </trkpt>
      <trkpt lat="27.75556000" lon="-15.6007520">
        <ele>44.798000</ele>
        <time>2009-01-05T09:26:10Z</time>
      </trkpt>
      <trkpt lat="27.75548800" lon="-15.6007810">
        <ele>45.230000</ele>
        <time>2009-01-05T09:26:11Z</time>
      </trkpt>
      <trkpt lat="27.75506200" lon="-15.6009600">
        <ele>44.460000</ele>
        <time>2009-01-05T09:26:17Z</time>
      </trkpt>
      <trkpt lat="27.75499000" lon="-15.6009890">
        <ele>44.460000</ele>
        <time>2009-01-05T09:26:18Z</time>
      </trkpt>
      <trkpt lat="27.75491800" lon="-15.6010170">
        <ele>44.217000</ele>
        <time>2009-01-05T09:26:19Z</time>
      </trkpt>
      <trkpt lat="27.75484700" lon="-15.6010470">
        <ele>44.431000</ele>
        <time>2009-01-05T09:26:20Z</time>
      </trkpt>
      <trkpt lat="27.75477500" lon="-15.6010780">
        <ele>44.326000</ele>
        <time>2009-01-05T09:26:21Z</time>
      </trkpt>
      <trkpt lat="27.75470500" lon="-15.6011090">
        <ele>44.113000</ele>
        <time>2009-01-05T09:26:22Z</time>
      </trkpt>
      <trkpt lat="27.75463400" lon="-15.6011390">
        <ele>43.736000</ele>
        <time>2009-01-05T09:26:23Z</time>
      </trkpt>
      <trkpt lat="27.75456300" lon="-15.6011690">
        <ele>43.951000</ele>
        <time>2009-01-05T09:26:24Z</time>
      </trkpt>
      <trkpt lat="27.75449200" lon="-15.6012010">
        <ele>44.025000</ele>
        <time>2009-01-05T09:26:25Z</time>
      </trkpt>
      <trkpt lat="27.75442300" lon="-15.6012350">
        <ele>43.960000</ele>
        <time>2009-01-05T09:26:26Z</time>
      </trkpt>
      <trkpt lat="27.75435400" lon="-15.6012690">
        <ele>43.902000</ele>
        <time>2009-01-05T09:26:27Z</time>
      </trkpt>
      <trkpt lat="27.75428800" lon="-15.6013070">
        <ele>43.561000</ele>
        <time>2009-01-05T09:26:28Z</time>
      </trkpt>
      <trkpt lat="27.75422500" lon="-15.6013510">
        <ele>43.510000</ele>
        <time>2009-01-05T09:26:29Z</time>
      </trkpt>
      <trkpt lat="27.75416700" lon="-15.6014020">
        <ele>43.417000</ele>
        <time>2009-01-05T09:26:30Z</time>
      </trkpt>
      <trkpt lat="27.75411500" lon="-15.6014610">
        <ele>43.642000</ele>
        <time>2009-01-05T09:26:31Z</time>
      </trkpt>
      <trkpt lat="27.75407100" lon="-15.6015260">
        <ele>43.808000</ele>
        <time>2009-01-05T09:26:32Z</time>
      </trkpt>
      <trkpt lat="27.75403300" lon="-15.6015970">
        <ele>43.876000</ele>
        <time>2009-01-05T09:26:33Z</time>
      </trkpt>
      <trkpt lat="27.75400100" lon="-15.6016690">
        <ele>43.664000</ele>
        <time>2009-01-05T09:26:34Z</time>
      </trkpt>
      <trkpt lat="27.75397000" lon="-15.6017410">
        <ele>43.737000</ele>
        <time>2009-01-05T09:26:35Z</time>
      </trkpt>
      <trkpt lat="27.75393400" lon="-15.6018060">
        <ele>43.802000</ele>
        <time>2009-01-05T09:26:36Z</time>
      </trkpt>
      <trkpt lat="27.75389000" lon="-15.6018630">
        <ele>43.604000</ele>
        <time>2009-01-05T09:26:37Z</time>
      </trkpt>
      <trkpt lat="27.75383900" lon="-15.6019110">
        <ele>43.664000</ele>
        <time>2009-01-05T09:26:38Z</time>
      </trkpt>
      <trkpt lat="27.75378500" lon="-15.6019540">
        <ele>43.894000</ele>
        <time>2009-01-05T09:26:39Z</time>
      </trkpt>
      <trkpt lat="27.75373200" lon="-15.6019970">
        <ele>43.851000</ele>
        <time>2009-01-05T09:26:40Z</time>
      </trkpt>
      <trkpt lat="27.75368300" lon="-15.6020430">
        <ele>44.115000</ele>
        <time>2009-01-05T09:26:41Z</time>
      </trkpt>
      <trkpt lat="27.75364000" lon="-15.6020940">
        <ele>44.369000</ele>
        <time>2009-01-05T09:26:42Z</time>
      </trkpt>
      <trkpt lat="27.75360600" lon="-15.6021490">
        <ele>44.593000</ele>
        <time>2009-01-05T09:26:43Z</time>
      </trkpt>
      <trkpt lat="27.75358100" lon="-15.6022060">
        <ele>44.892000</ele>
        <time>2009-01-05T09:26:44Z</time>
      </trkpt>
      <trkpt lat="27.75356000" lon="-15.6022620">
        <ele>45.148000</ele>
        <time>2009-01-05T09:26:45Z</time>
      </trkpt>
      <trkpt lat="27.75354000" lon="-15.6023160">
        <ele>45.714000</ele>
        <time>2009-01-05T09:26:46Z</time>
      </trkpt>
      <trkpt lat="27.75352100" lon="-15.6023700">
        <ele>45.872000</ele>
        <time>2009-01-05T09:26:47Z</time>
      </trkpt>
      <trkpt lat="27.75350200" lon="-15.6024210">
        <ele>46.300000</ele>
        <time>2009-01-05T09:26:48Z</time>
      </trkpt>
      <trkpt lat="27.75348300" lon="-15.6024710">
        <ele>46.248000</ele>
        <time>2009-01-05T09:26:49Z</time>
      </trkpt>
      <trkpt lat="27.75346600" lon="-15.6025210">
        <ele>46.324000</ele>
        <time>2009-01-05T09:26:50Z</time>
      </trkpt>
      <trkpt lat="27.75344900" lon="-15.6025700">
        <ele>46.679000</ele>
        <time>2009-01-05T09:26:51Z</time>
      </trkpt>
      <trkpt lat="27.75343300" lon="-15.6026170">
        <ele>46.716000</ele>
        <time>2009-01-05T09:26:52Z</time>
      </trkpt>
      <trkpt lat="27.75341600" lon="-15.6026630">
        <ele>47.213000</ele>
        <time>2009-01-05T09:26:53Z</time>
      </trkpt>
      <trkpt lat="27.75339800" lon="-15.6027090">
        <ele>47.179000</ele>
        <time>2009-01-05T09:26:54Z</time>
      </trkpt>
      <trkpt lat="27.75337900" lon="-15.6027540">
        <ele>47.357000</ele>
        <time>2009-01-05T09:26:55Z</time>
      </trkpt>
      <trkpt lat="27.75336400" lon="-15.6028000">
        <ele>47.936000</ele>
        <time>2009-01-05T09:26:56Z</time>
      </trkpt>
      <trkpt lat="27.75335000" lon="-15.6028460">
        <ele>47.963000</ele>
        <time>2009-01-05T09:26:57Z</time>
      </trkpt>
      <trkpt lat="27.75333900" lon="-15.6028910">
        <ele>48.083000</ele>
        <time>2009-01-05T09:26:58Z</time>
      </trkpt>
      <trkpt lat="27.75332700" lon="-15.6029340">
        <ele>48.464000</ele>
        <time>2009-01-05T09:26:59Z</time>
      </trkpt>
      <trkpt lat="27.75331500" lon="-15.6029780">
        <ele>48.528000</ele>
        <time>2009-01-05T09:27:00Z</time>
      </trkpt>
      <trkpt lat="27.75330200" lon="-15.6030210">
        <ele>48.638000</ele>
        <time>2009-01-05T09:27:01Z</time>
      </trkpt>
      <trkpt lat="27.75328900" lon="-15.6030640">
        <ele>48.736000</ele>
        <time>2009-01-05T09:27:02Z</time>
      </trkpt>
      <trkpt lat="27.75327500" lon="-15.6031060">
        <ele>49.234000</ele>
        <time>2009-01-05T09:27:03Z</time>
      </trkpt>
      <trkpt lat="27.75326200" lon="-15.6031490">
        <ele>49.436000</ele>
        <time>2009-01-05T09:27:04Z</time>
      </trkpt>
      <trkpt lat="27.75325000" lon="-15.6031920">
        <ele>49.759000</ele>
        <time>2009-01-05T09:27:05Z</time>
      </trkpt>
      <trkpt lat="27.75323800" lon="-15.6032340">
        <ele>49.679000</ele>
        <time>2009-01-05T09:27:06Z</time>
      </trkpt>
      <trkpt lat="27.75322700" lon="-15.6032760">
        <ele>50.063000</ele>
        <time>2009-01-05T09:27:07Z</time>
      </trkpt>
      <trkpt lat="27.75321600" lon="-15.6033180">
        <ele>50.170000</ele>
        <time>2009-01-05T09:27:08Z</time>
      </trkpt>
      <trkpt lat="27.75320600" lon="-15.6033600">
        <ele>50.681000</ele>
        <time>2009-01-05T09:27:09Z</time>
      </trkpt>
      <trkpt lat="27.75319400" lon="-15.6034000">
        <ele>50.709000</ele>
        <time>2009-01-05T09:27:10Z</time>
      </trkpt>
      <trkpt lat="27.75318200" lon="-15.6034410">
        <ele>50.719000</ele>
        <time>2009-01-05T09:27:11Z</time>
      </trkpt>
      <trkpt lat="27.75317000" lon="-15.6034810">
        <ele>50.956000</ele>
        <time>2009-01-05T09:27:12Z</time>
      </trkpt>
      <trkpt lat="27.75315800" lon="-15.6035220">
        <ele>51.573000</ele>
        <time>2009-01-05T09:27:13Z</time>
      </trkpt>
      <trkpt lat="27.75314600" lon="-15.6035630">
        <ele>51.466000</ele>
        <time>2009-01-05T09:27:14Z</time>
      </trkpt>
      <trkpt lat="27.75313500" lon="-15.6036040">
        <ele>51.632000</ele>
        <time>2009-01-05T09:27:15Z</time>
      </trkpt>
      <trkpt lat="27.75312300" lon="-15.6036450">
        <ele>51.771000</ele>
        <time>2009-01-05T09:27:16Z</time>
      </trkpt>
      <trkpt lat="27.75311100" lon="-15.6036850">
        <ele>51.987000</ele>
        <time>2009-01-05T09:27:17Z</time>
      </trkpt>
      <trkpt lat="27.75309800" lon="-15.6037250">
        <ele>52.076000</ele>
        <time>2009-01-05T09:27:18Z</time>
      </trkpt>
      <trkpt lat="27.75308600" lon="-15.6037640">
        <ele>52.234000</ele>
        <time>2009-01-05T09:27:19Z</time>
      </trkpt>
      <trkpt lat="27.75307400" lon="-15.6038040">
        <ele>52.205000</ele>
        <time>2009-01-05T09:27:20Z</time>
      </trkpt>
      <trkpt lat="27.75306300" lon="-15.6038430">
        <ele>52.688000</ele>
        <time>2009-01-05T09:27:21Z</time>
      </trkpt>
      <trkpt lat="27.75305200" lon="-15.6038800">
        <ele>52.563000</ele>
        <time>2009-01-05T09:27:22Z</time>
      </trkpt>
      <trkpt lat="27.75304100" lon="-15.6039180">
        <ele>52.933000</ele>
        <time>2009-01-05T09:27:23Z</time>
      </trkpt>
      <trkpt lat="27.75303000" lon="-15.6039550">
        <ele>52.936000</ele>
        <time>2009-01-05T09:27:24Z</time>
      </trkpt>
      <trkpt lat="27.75301800" lon="-15.6039910">
        <ele>53.218000</ele>
        <time>2009-01-05T09:27:25Z</time>
      </trkpt>
      <trkpt lat="27.75300600" lon="-15.6040280">
        <ele>53.400000</ele>
        <time>2009-01-05T09:27:26Z</time>
      </trkpt>
      <trkpt lat="27.75299300" lon="-15.6040640">
        <ele>53.778000</ele>
        <time>2009-01-05T09:27:27Z</time>
      </trkpt>
      <trkpt lat="27.75297900" lon="-15.6041000">
        <ele>53.846000</ele>
        <time>2009-01-05T09:27:28Z</time>
      </trkpt>
      <trkpt lat="27.75296300" lon="-15.6041360">
        <ele>53.928000</ele>
        <time>2009-01-05T09:27:29Z</time>
      </trkpt>
      <trkpt lat="27.75294600" lon="-15.6041720">
        <ele>54.409000</ele>
        <time>2009-01-05T09:27:30Z</time>
      </trkpt>
      <trkpt lat="27.75292700" lon="-15.6042070">
        <ele>54.758000</ele>
        <time>2009-01-05T09:27:31Z</time>
      </trkpt>
      <trkpt lat="27.75290700" lon="-15.6042410">
        <ele>54.530000</ele>
        <time>2009-01-05T09:27:32Z</time>
      </trkpt>
      <trkpt lat="27.75288600" lon="-15.6042730">
        <ele>54.882000</ele>
        <time>2009-01-05T09:27:33Z</time>
      </trkpt>
      <trkpt lat="27.75286300" lon="-15.6043050">
        <ele>55.247000</ele>
        <time>2009-01-05T09:27:34Z</time>
      </trkpt>
      <trkpt lat="27.75283800" lon="-15.6043350">
        <ele>55.308000</ele>
        <time>2009-01-05T09:27:35Z</time>
      </trkpt>
      <trkpt lat="27.75281300" lon="-15.6043630">
        <ele>55.294000</ele>
        <time>2009-01-05T09:27:36Z</time>
      </trkpt>
      <trkpt lat="27.75278600" lon="-15.6043890">
        <ele>55.533000</ele>
        <time>2009-01-05T09:27:37Z</time>
      </trkpt>
      <trkpt lat="27.75275700" lon="-15.6044110">
        <ele>55.977000</ele>
        <time>2009-01-05T09:27:38Z</time>
      </trkpt>
      <trkpt lat="27.75272600" lon="-15.6044320">
        <ele>56.268000</ele>
        <time>2009-01-05T09:27:39Z</time>
      </trkpt>
      <trkpt lat="27.75269400" lon="-15.6044520">
        <ele>56.202000</ele>
        <time>2009-01-05T09:27:40Z</time>
      </trkpt>
      <trkpt lat="27.75266100" lon="-15.6044700">
        <ele>56.554000</ele>
        <time>2009-01-05T09:27:41Z</time>
      </trkpt>
      <trkpt lat="27.75262700" lon="-15.6044860">
        <ele>56.789000</ele>
        <time>2009-01-05T09:27:42Z</time>
      </trkpt>
      <trkpt lat="27.75259200" lon="-15.6044980">
        <ele>57.072000</ele>
        <time>2009-01-05T09:27:43Z</time>
      </trkpt>
      <trkpt lat="27.75255700" lon="-15.6045090">
        <ele>57.318000</ele>
        <time>2009-01-05T09:27:44Z</time>
      </trkpt>
      <trkpt lat="27.75252100" lon="-15.6045190">
        <ele>57.517000</ele>
        <time>2009-01-05T09:27:45Z</time>
      </trkpt>
      <trkpt lat="27.75248400" lon="-15.6045270">
        <ele>57.578000</ele>
        <time>2009-01-05T09:27:46Z</time>
      </trkpt>
      <trkpt lat="27.75244700" lon="-15.6045340">
        <ele>57.692000</ele>
        <time>2009-01-05T09:27:47Z</time>
      </trkpt>
      <trkpt lat="27.75240900" lon="-15.6045400">
        <ele>57.850000</ele>
        <time>2009-01-05T09:27:48Z</time>
      </trkpt>
      <trkpt lat="27.75237200" lon="-15.6045460">
        <ele>58.186000</ele>
        <time>2009-01-05T09:27:49Z</time>
      </trkpt>
      <trkpt lat="27.75233400" lon="-15.6045520">
        <ele>58.274000</ele>
        <time>2009-01-05T09:27:50Z</time>
      </trkpt>
      <trkpt lat="27.75229600" lon="-15.6045580">
        <ele>58.562000</ele>
        <time>2009-01-05T09:27:51Z</time>
      </trkpt>
      <trkpt lat="27.75225800" lon="-15.6045650">
        <ele>58.716000</ele>
        <time>2009-01-05T09:27:52Z</time>
      </trkpt>
      <trkpt lat="27.75222100" lon="-15.6045720">
        <ele>58.764000</ele>
        <time>2009-01-05T09:27:53Z</time>
      </trkpt>
      <trkpt lat="27.75218600" lon="-15.6045800">
        <ele>59.076000</ele>
        <time>2009-01-05T09:27:54Z</time>
      </trkpt>
      <trkpt lat="27.75214900" lon="-15.6045880">
        <ele>58.841000</ele>
        <time>2009-01-05T09:27:55Z</time>
      </trkpt>
      <trkpt lat="27.75211300" lon="-15.6045960">
        <ele>59.599000</ele>
        <time>2009-01-05T09:27:56Z</time>
      </trkpt>
      <trkpt lat="27.75207800" lon="-15.6046070">
        <ele>59.449000</ele>
        <time>2009-01-05T09:27:57Z</time>
      </trkpt>
      <trkpt lat="27.75204200" lon="-15.6046180">
        <ele>59.806000</ele>
        <time>2009-01-05T09:27:58Z</time>
      </trkpt>
      <trkpt lat="27.75200700" lon="-15.6046300">
        <ele>59.756000</ele>
        <time>2009-01-05T09:27:59Z</time>
      </trkpt>
      <trkpt lat="27.75197200" lon="-15.6046460">
        <ele>60.079000</ele>
        <time>2009-01-05T09:28:00Z</time>
      </trkpt>
      <trkpt lat="27.75193800" lon="-15.6046650">
        <ele>60.669000</ele>
        <time>2009-01-05T09:28:01Z</time>
      </trkpt>
      <trkpt lat="27.75190600" lon="-15.6046860">
        <ele>60.934000</ele>
        <time>2009-01-05T09:28:02Z</time>
      </trkpt>
      <trkpt lat="27.75187500" lon="-15.6047100">
        <ele>60.887000</ele>
        <time>2009-01-05T09:28:03Z</time>
      </trkpt>
      <trkpt lat="27.75184600" lon="-15.6047340">
        <ele>61.146000</ele>
        <time>2009-01-05T09:28:04Z</time>
      </trkpt>
      <trkpt lat="27.75181900" lon="-15.6047610">
        <ele>61.559000</ele>
        <time>2009-01-05T09:28:05Z</time>
      </trkpt>
      <trkpt lat="27.75179400" lon="-15.6047910">
        <ele>61.568000</ele>
        <time>2009-01-05T09:28:06Z</time>
      </trkpt>
      <trkpt lat="27.75177100" lon="-15.6048240">
        <ele>61.769000</ele>
        <time>2009-01-05T09:28:07Z</time>
      </trkpt>
      <trkpt lat="27.75174900" lon="-15.6048590">
        <ele>61.946000</ele>
        <time>2009-01-05T09:28:08Z</time>
      </trkpt>
      <trkpt lat="27.75172900" lon="-15.6048960">
        <ele>62.045000</ele>
        <time>2009-01-05T09:28:09Z</time>
      </trkpt>
      <trkpt lat="27.75171000" lon="-15.6049330">
        <ele>62.347000</ele>
        <time>2009-01-05T09:28:10Z</time>
      </trkpt>
      <trkpt lat="27.75169200" lon="-15.6049710">
        <ele>62.754000</ele>
        <time>2009-01-05T09:28:11Z</time>
      </trkpt>
      <trkpt lat="27.75167500" lon="-15.6050120">
        <ele>63.029000</ele>
        <time>2009-01-05T09:28:12Z</time>
      </trkpt>
      <trkpt lat="27.75165800" lon="-15.6050540">
        <ele>62.948000</ele>
        <time>2009-01-05T09:28:13Z</time>
      </trkpt>
      <trkpt lat="27.75164400" lon="-15.6050970">
        <ele>63.181000</ele>
        <time>2009-01-05T09:28:14Z</time>
      </trkpt>
      <trkpt lat="27.75163200" lon="-15.6051430">
        <ele>63.205000</ele>
        <time>2009-01-05T09:28:15Z</time>
      </trkpt>
      <trkpt lat="27.75162100" lon="-15.6051890">
        <ele>63.723000</ele>
        <time>2009-01-05T09:28:16Z</time>
      </trkpt>
      <trkpt lat="27.75161200" lon="-15.6052360">
        <ele>63.761000</ele>
        <time>2009-01-05T09:28:17Z</time>
      </trkpt>
      <trkpt lat="27.75160300" lon="-15.6052860">
        <ele>63.584000</ele>
        <time>2009-01-05T09:28:18Z</time>
      </trkpt>
      <trkpt lat="27.75159600" lon="-15.6053380">
        <ele>63.697000</ele>
        <time>2009-01-05T09:28:19Z</time>
      </trkpt>
      <trkpt lat="27.75158700" lon="-15.6053920">
        <ele>63.568000</ele>
        <time>2009-01-05T09:28:20Z</time>
      </trkpt>
      <trkpt lat="27.75157700" lon="-15.6054470">
        <ele>63.581000</ele>
        <time>2009-01-05T09:28:21Z</time>
      </trkpt>
      <trkpt lat="27.75156800" lon="-15.6055040">
        <ele>63.853000</ele>
        <time>2009-01-05T09:28:22Z</time>
      </trkpt>
      <trkpt lat="27.75156000" lon="-15.6055610">
        <ele>63.898000</ele>
        <time>2009-01-05T09:28:23Z</time>
      </trkpt>
      <trkpt lat="27.75155100" lon="-15.6056190">
        <ele>63.872000</ele>
        <time>2009-01-05T09:28:24Z</time>
      </trkpt>
      <trkpt lat="27.75154100" lon="-15.6056780">
        <ele>63.655000</ele>
        <time>2009-01-05T09:28:25Z</time>
      </trkpt>
      <trkpt lat="27.75153200" lon="-15.6057390">
        <ele>63.198000</ele>
        <time>2009-01-05T09:28:26Z</time>
      </trkpt>
      <trkpt lat="27.75152300" lon="-15.6058010">
        <ele>62.904000</ele>
        <time>2009-01-05T09:28:27Z</time>
      </trkpt>
      <trkpt lat="27.75151400" lon="-15.6058640">
        <ele>64.231000</ele>
        <time>2009-01-05T09:28:28Z</time>
      </trkpt>
      <trkpt lat="27.75150400" lon="-15.6059280">
        <ele>64.538000</ele>
        <time>2009-01-05T09:28:29Z</time>
      </trkpt>
      <trkpt lat="27.75149300" lon="-15.6059930">
        <ele>64.279000</ele>
        <time>2009-01-05T09:28:30Z</time>
      </trkpt>
      <trkpt lat="27.75148200" lon="-15.6060590">
        <ele>63.668000</ele>
        <time>2009-01-05T09:28:31Z</time>
      </trkpt>
      <trkpt lat="27.75147200" lon="-15.6061250">
        <ele>63.704000</ele>
        <time>2009-01-05T09:28:32Z</time>
      </trkpt>
      <trkpt lat="27.75146200" lon="-15.6061910">
        <ele>63.652000</ele>
        <time>2009-01-05T09:28:33Z</time>
      </trkpt>
      <trkpt lat="27.75145200" lon="-15.6062580">
        <ele>63.387000</ele>
        <time>2009-01-05T09:28:34Z</time>
      </trkpt>
      <trkpt lat="27.75144100" lon="-15.6063260">
        <ele>63.707000</ele>
        <time>2009-01-05T09:28:35Z</time>
      </trkpt>
      <trkpt lat="27.75143100" lon="-15.6063950">
        <ele>63.832000</ele>
        <time>2009-01-05T09:28:36Z</time>
      </trkpt>
      <trkpt lat="27.75142000" lon="-15.6064640">
        <ele>63.982000</ele>
        <time>2009-01-05T09:28:37Z</time>
      </trkpt>
      <trkpt lat="27.75140900" lon="-15.6065330">
        <ele>63.372000</ele>
        <time>2009-01-05T09:28:38Z</time>
      </trkpt>
      <trkpt lat="27.75139900" lon="-15.6066040">
        <ele>63.536000</ele>
        <time>2009-01-05T09:28:39Z</time>
      </trkpt>
      <trkpt lat="27.75138700" lon="-15.6066760">
        <ele>63.428000</ele>
        <time>2009-01-05T09:28:40Z</time>
      </trkpt>
      <trkpt lat="27.75137400" lon="-15.6067500">
        <ele>62.807000</ele>
        <time>2009-01-05T09:28:41Z</time>
      </trkpt>
      <trkpt lat="27.75136100" lon="-15.6068250">
        <ele>62.920000</ele>
        <time>2009-01-05T09:28:42Z</time>
      </trkpt>
      <trkpt lat="27.75134900" lon="-15.6069000">
        <ele>62.762000</ele>
        <time>2009-01-05T09:28:43Z</time>
      </trkpt>
      <trkpt lat="27.75133700" lon="-15.6069760">
        <ele>62.595000</ele>
        <time>2009-01-05T09:28:44Z</time>
      </trkpt>
      <trkpt lat="27.75132500" lon="-15.6070520">
        <ele>62.794000</ele>
        <time>2009-01-05T09:28:45Z</time>
      </trkpt>
      <trkpt lat="27.75131300" lon="-15.6071280">
        <ele>62.569000</ele>
        <time>2009-01-05T09:28:46Z</time>
      </trkpt>
      <trkpt lat="27.75130200" lon="-15.6072050">
        <ele>62.844000</ele>
        <time>2009-01-05T09:28:47Z</time>
      </trkpt>
      <trkpt lat="27.75128900" lon="-15.6072820">
        <ele>62.379000</ele>
        <time>2009-01-05T09:28:48Z</time>
      </trkpt>
      <trkpt lat="27.75127700" lon="-15.6073590">
        <ele>62.168000</ele>
        <time>2009-01-05T09:28:49Z</time>
      </trkpt>
      <trkpt lat="27.75126500" lon="-15.6074360">
        <ele>62.173000</ele>
        <time>2009-01-05T09:28:50Z</time>
      </trkpt>
      <trkpt lat="27.75125200" lon="-15.6075140">
        <ele>62.071000</ele>
        <time>2009-01-05T09:28:51Z</time>
      </trkpt>
      <trkpt lat="27.75123900" lon="-15.6075910">
        <ele>62.256000</ele>
        <time>2009-01-05T09:28:52Z</time>
      </trkpt>
      <trkpt lat="27.75122600" lon="-15.6076670">
        <ele>61.709000</ele>
        <time>2009-01-05T09:28:53Z</time>
      </trkpt>
      <trkpt lat="27.75121500" lon="-15.6077450">
        <ele>61.490000</ele>
        <time>2009-01-05T09:28:54Z</time>
      </trkpt>
      <trkpt lat="27.75120900" lon="-15.6078220">
        <ele>61.358000</ele>
        <time>2009-01-05T09:28:55Z</time>
      </trkpt>
      <trkpt lat="27.75121100" lon="-15.6079000">
        <ele>61.554000</ele>
        <time>2009-01-05T09:28:56Z</time>
      </trkpt>
      <trkpt lat="27.75122000" lon="-15.6079750">
        <ele>61.533000</ele>
        <time>2009-01-05T09:28:57Z</time>
      </trkpt>
      <trkpt lat="27.75123300" lon="-15.6080490">
        <ele>61.335000</ele>
        <time>2009-01-05T09:28:58Z</time>
      </trkpt>
      <trkpt lat="27.75124200" lon="-15.6081220">
        <ele>61.288000</ele>
        <time>2009-01-05T09:28:59Z</time>
      </trkpt>
      <trkpt lat="27.75123800" lon="-15.6081950">
        <ele>61.484000</ele>
        <time>2009-01-05T09:29:00Z</time>
      </trkpt>
      <trkpt lat="27.75122100" lon="-15.6082640">
        <ele>61.368000</ele>
        <time>2009-01-05T09:29:01Z</time>
      </trkpt>
      <trkpt lat="27.75119300" lon="-15.6083310">
        <ele>61.287000</ele>
        <time>2009-01-05T09:29:02Z</time>
      </trkpt>
      <trkpt lat="27.75116100" lon="-15.6083960">
        <ele>61.081000</ele>
        <time>2009-01-05T09:29:03Z</time>
      </trkpt>
      <trkpt lat="27.75112800" lon="-15.6084620">
        <ele>61.103000</ele>
        <time>2009-01-05T09:29:04Z</time>
      </trkpt>
      <trkpt lat="27.75110100" lon="-15.6085320">
        <ele>61.603000</ele>
        <time>2009-01-05T09:29:05Z</time>
      </trkpt>
      <trkpt lat="27.75108200" lon="-15.6086060">
        <ele>61.255000</ele>
        <time>2009-01-05T09:29:06Z</time>
      </trkpt>
      <trkpt lat="27.75106700" lon="-15.6086820">
        <ele>61.017000</ele>
        <time>2009-01-05T09:29:07Z</time>
      </trkpt>
      <trkpt lat="27.75105300" lon="-15.6087570">
        <ele>60.452000</ele>
        <time>2009-01-05T09:29:08Z</time>
      </trkpt>
      <trkpt lat="27.75103900" lon="-15.6088340">
        <ele>60.407000</ele>
        <time>2009-01-05T09:29:09Z</time>
      </trkpt>
      <trkpt lat="27.75102600" lon="-15.6089090">
        <ele>60.463000</ele>
        <time>2009-01-05T09:29:10Z</time>
      </trkpt>
      <trkpt lat="27.75101300" lon="-15.6089840">
        <ele>60.564000</ele>
        <time>2009-01-05T09:29:11Z</time>
      </trkpt>
      <trkpt lat="27.75100000" lon="-15.6090580">
        <ele>59.965000</ele>
        <time>2009-01-05T09:29:12Z</time>
      </trkpt>
      <trkpt lat="27.75098700" lon="-15.6091300">
        <ele>60.212000</ele>
        <time>2009-01-05T09:29:13Z</time>
      </trkpt>
      <trkpt lat="27.75097600" lon="-15.6092020">
        <ele>60.194000</ele>
        <time>2009-01-05T09:29:14Z</time>
      </trkpt>
      <trkpt lat="27.75096500" lon="-15.6092710">
        <ele>60.480000</ele>
        <time>2009-01-05T09:29:15Z</time>
      </trkpt>
      <trkpt lat="27.75095300" lon="-15.6093380">
        <ele>60.597000</ele>
        <time>2009-01-05T09:29:16Z</time>
      </trkpt>
      <trkpt lat="27.75094300" lon="-15.6094030">
        <ele>60.625000</ele>
        <time>2009-01-05T09:29:17Z</time>
      </trkpt>
      <trkpt lat="27.75093500" lon="-15.6094670">
        <ele>60.655000</ele>
        <time>2009-01-05T09:29:18Z</time>
      </trkpt>
      <trkpt lat="27.75092500" lon="-15.6095290">
        <ele>61.457000</ele>
        <time>2009-01-05T09:29:19Z</time>
      </trkpt>
      <trkpt lat="27.75091500" lon="-15.6095900">
        <ele>61.461000</ele>
        <time>2009-01-05T09:29:20Z</time>
      </trkpt>
      <trkpt lat="27.75090400" lon="-15.6096490">
        <ele>61.602000</ele>
        <time>2009-01-05T09:29:21Z</time>
      </trkpt>
      <trkpt lat="27.75089500" lon="-15.6097070">
        <ele>61.574000</ele>
        <time>2009-01-05T09:29:22Z</time>
      </trkpt>
      <trkpt lat="27.75088400" lon="-15.6097640">
        <ele>62.220000</ele>
        <time>2009-01-05T09:29:23Z</time>
      </trkpt>
      <trkpt lat="27.75087400" lon="-15.6098190">
        <ele>62.314000</ele>
        <time>2009-01-05T09:29:24Z</time>
      </trkpt>
      <trkpt lat="27.75086600" lon="-15.6098730">
        <ele>62.851000</ele>
        <time>2009-01-05T09:29:25Z</time>
      </trkpt>
      <trkpt lat="27.75085800" lon="-15.6099270">
        <ele>62.715000</ele>
        <time>2009-01-05T09:29:26Z</time>
      </trkpt>
      <trkpt lat="27.75085000" lon="-15.6099790">
        <ele>62.692000</ele>
        <time>2009-01-05T09:29:27Z</time>
      </trkpt>
      <trkpt lat="27.75084100" lon="-15.6100310">
        <ele>63.232000</ele>
        <time>2009-01-05T09:29:28Z</time>
      </trkpt>
      <trkpt lat="27.75083200" lon="-15.6100830">
        <ele>63.440000</ele>
        <time>2009-01-05T09:29:29Z</time>
      </trkpt>
      <trkpt lat="27.75082300" lon="-15.6101350">
        <ele>63.467000</ele>
        <time>2009-01-05T09:29:30Z</time>
      </trkpt>
      <trkpt lat="27.75081500" lon="-15.6101870">
        <ele>63.537000</ele>
        <time>2009-01-05T09:29:31Z</time>
      </trkpt>
      <trkpt lat="27.75080700" lon="-15.6102400">
        <ele>63.531000</ele>
        <time>2009-01-05T09:29:32Z</time>
      </trkpt>
      <trkpt lat="27.75079900" lon="-15.6102920">
        <ele>64.023000</ele>
        <time>2009-01-05T09:29:33Z</time>
      </trkpt>
      <trkpt lat="27.75079000" lon="-15.6103440">
        <ele>63.927000</ele>
        <time>2009-01-05T09:29:34Z</time>
      </trkpt>
      <trkpt lat="27.75078100" lon="-15.6103970">
        <ele>64.139000</ele>
        <time>2009-01-05T09:29:35Z</time>
      </trkpt>
      <trkpt lat="27.75077300" lon="-15.6104510">
        <ele>64.117000</ele>
        <time>2009-01-05T09:29:36Z</time>
      </trkpt>
      <trkpt lat="27.75076600" lon="-15.6105060">
        <ele>64.279000</ele>
        <time>2009-01-05T09:29:37Z</time>
      </trkpt>
      <trkpt lat="27.75075700" lon="-15.6105630">
        <ele>63.932000</ele>
        <time>2009-01-05T09:29:38Z</time>
      </trkpt>
      <trkpt lat="27.75074700" lon="-15.6106210">
        <ele>64.507000</ele>
        <time>2009-01-05T09:29:39Z</time>
      </trkpt>
      <trkpt lat="27.75073800" lon="-15.6106810">
        <ele>64.561000</ele>
        <time>2009-01-05T09:29:40Z</time>
      </trkpt>
      <trkpt lat="27.75073100" lon="-15.6107440">
        <ele>64.546000</ele>
        <time>2009-01-05T09:29:41Z</time>
      </trkpt>
      <trkpt lat="27.75072500" lon="-15.6108070">
        <ele>64.508000</ele>
        <time>2009-01-05T09:29:42Z</time>
      </trkpt>
      <trkpt lat="27.75072200" lon="-15.6108720">
        <ele>64.514000</ele>
        <time>2009-01-05T09:29:43Z</time>
      </trkpt>
      <trkpt lat="27.75072400" lon="-15.6109380">
        <ele>64.351000</ele>
        <time>2009-01-05T09:29:44Z</time>
      </trkpt>
      <trkpt lat="27.75073000" lon="-15.6110030">
        <ele>64.391000</ele>
        <time>2009-01-05T09:29:45Z</time>
      </trkpt>
      <trkpt lat="27.75074000" lon="-15.6110690">
        <ele>64.189000</ele>
        <time>2009-01-05T09:29:46Z</time>
      </trkpt>
      <trkpt lat="27.75075200" lon="-15.6111350">
        <ele>64.103000</ele>
        <time>2009-01-05T09:29:47Z</time>
      </trkpt>
      <trkpt lat="27.75076600" lon="-15.6112050">
        <ele>63.797000</ele>
        <time>2009-01-05T09:29:48Z</time>
      </trkpt>
      <trkpt lat="27.75078200" lon="-15.6112790">
        <ele>63.557000</ele>
        <time>2009-01-05T09:29:49Z</time>
      </trkpt>
      <trkpt lat="27.75080000" lon="-15.6113580">
        <ele>63.122000</ele>
        <time>2009-01-05T09:29:50Z</time>
      </trkpt>
      <trkpt lat="27.75081900" lon="-15.6114410">
        <ele>62.795000</ele>
        <time>2009-01-05T09:29:51Z</time>
      </trkpt>
      <trkpt lat="27.75084000" lon="-15.6115270">
        <ele>62.571000</ele>
        <time>2009-01-05T09:29:52Z</time>
      </trkpt>
      <trkpt lat="27.75086200" lon="-15.6116170">
        <ele>62.246000</ele>
        <time>2009-01-05T09:29:53Z</time>
      </trkpt>
      <trkpt lat="27.75088300" lon="-15.6117090">
        <ele>61.274000</ele>
        <time>2009-01-05T09:29:54Z</time>
      </trkpt>
      <trkpt lat="27.75090500" lon="-15.6118040">
        <ele>60.907000</ele>
        <time>2009-01-05T09:29:55Z</time>
      </trkpt>
      <trkpt lat="27.75092800" lon="-15.6119020">
        <ele>60.109000</ele>
        <time>2009-01-05T09:29:56Z</time>
      </trkpt>
      <trkpt lat="27.75095200" lon="-15.6120010">
        <ele>59.827000</ele>
        <time>2009-01-05T09:29:57Z</time>
      </trkpt>
      <trkpt lat="27.75097600" lon="-15.6121040">
        <ele>59.381000</ele>
        <time>2009-01-05T09:29:58Z</time>
      </trkpt>
      <trkpt lat="27.75100000" lon="-15.6122080">
        <ele>58.604000</ele>
        <time>2009-01-05T09:29:59Z</time>
      </trkpt>
      <trkpt lat="27.75102400" lon="-15.6123150">
        <ele>58.887000</ele>
        <time>2009-01-05T09:30:00Z</time>
      </trkpt>
      <trkpt lat="27.75104900" lon="-15.6124240">
        <ele>57.966000</ele>
        <time>2009-01-05T09:30:01Z</time>
      </trkpt>
      <trkpt lat="27.75107400" lon="-15.6125340">
        <ele>57.493000</ele>
        <time>2009-01-05T09:30:02Z</time>
      </trkpt>
      <trkpt lat="27.75110000" lon="-15.6126450">
        <ele>57.139000</ele>
        <time>2009-01-05T09:30:03Z</time>
      </trkpt>
      <trkpt lat="27.75112500" lon="-15.6127560">
        <ele>56.420000</ele>
        <time>2009-01-05T09:30:04Z</time>
      </trkpt>
      <trkpt lat="27.75115100" lon="-15.6128650">
        <ele>56.431000</ele>
        <time>2009-01-05T09:30:05Z</time>
      </trkpt>
      <trkpt lat="27.75117600" lon="-15.6129730">
        <ele>56.283000</ele>
        <time>2009-01-05T09:30:06Z</time>
      </trkpt>
      <trkpt lat="27.75120000" lon="-15.6130800">
        <ele>55.885000</ele>
        <time>2009-01-05T09:30:07Z</time>
      </trkpt>
      <trkpt lat="27.75122400" lon="-15.6131840">
        <ele>55.766000</ele>
        <time>2009-01-05T09:30:08Z</time>
      </trkpt>
      <trkpt lat="27.75124800" lon="-15.6132870">
        <ele>55.851000</ele>
        <time>2009-01-05T09:30:09Z</time>
      </trkpt>
      <trkpt lat="27.75127200" lon="-15.6133890">
        <ele>55.780000</ele>
        <time>2009-01-05T09:30:10Z</time>
      </trkpt>
      <trkpt lat="27.75129600" lon="-15.6134900">
        <ele>55.220000</ele>
        <time>2009-01-05T09:30:11Z</time>
      </trkpt>
      <trkpt lat="27.75131900" lon="-15.6135910">
        <ele>55.416000</ele>
        <time>2009-01-05T09:30:12Z</time>
      </trkpt>
      <trkpt lat="27.75134200" lon="-15.6136900">
        <ele>55.557000</ele>
        <time>2009-01-05T09:30:13Z</time>
      </trkpt>
      <trkpt lat="27.75136600" lon="-15.6137880">
        <ele>55.079000</ele>
        <time>2009-01-05T09:30:14Z</time>
      </trkpt>
      <trkpt lat="27.75138800" lon="-15.6138850">
        <ele>54.873000</ele>
        <time>2009-01-05T09:30:15Z</time>
      </trkpt>
      <trkpt lat="27.75141000" lon="-15.6139810">
        <ele>54.525000</ele>
        <time>2009-01-05T09:30:16Z</time>
      </trkpt>
      <trkpt lat="27.75143200" lon="-15.6140770">
        <ele>54.293000</ele>
        <time>2009-01-05T09:30:17Z</time>
      </trkpt>
      <trkpt lat="27.75145400" lon="-15.6141730">
        <ele>54.330000</ele>
        <time>2009-01-05T09:30:18Z</time>
      </trkpt>
      <trkpt lat="27.75147700" lon="-15.6142680">
        <ele>54.125000</ele>
        <time>2009-01-05T09:30:19Z</time>
      </trkpt>
      <trkpt lat="27.75150000" lon="-15.6143620">
        <ele>54.287000</ele>
        <time>2009-01-05T09:30:20Z</time>
      </trkpt>
      <trkpt lat="27.75152200" lon="-15.6144560">
        <ele>54.160000</ele>
        <time>2009-01-05T09:30:21Z</time>
      </trkpt>
      <trkpt lat="27.75154300" lon="-15.6145500">
        <ele>53.720000</ele>
        <time>2009-01-05T09:30:22Z</time>
      </trkpt>
      <trkpt lat="27.75156400" lon="-15.6146440">
        <ele>53.837000</ele>
        <time>2009-01-05T09:30:23Z</time>
      </trkpt>
      <trkpt lat="27.75158300" lon="-15.6147390">
        <ele>54.126000</ele>
        <time>2009-01-05T09:30:24Z</time>
      </trkpt>
      <trkpt lat="27.75160000" lon="-15.6148330">
        <ele>54.343000</ele>
        <time>2009-01-05T09:30:25Z</time>
      </trkpt>
      <trkpt lat="27.75162100" lon="-15.6149230">
        <ele>55.271000</ele>
        <time>2009-01-05T09:30:26Z</time>
      </trkpt>
      <trkpt lat="27.75164600" lon="-15.6150080">
        <ele>55.962000</ele>
        <time>2009-01-05T09:30:27Z</time>
      </trkpt>
      <trkpt lat="27.75167100" lon="-15.6150900">
        <ele>55.772000</ele>
        <time>2009-01-05T09:30:28Z</time>
      </trkpt>
      <trkpt lat="27.75169300" lon="-15.6151710">
        <ele>56.645000</ele>
        <time>2009-01-05T09:30:29Z</time>
      </trkpt>
      <trkpt lat="27.75171200" lon="-15.6152520">
        <ele>56.693000</ele>
        <time>2009-01-05T09:30:30Z</time>
      </trkpt>
      <trkpt lat="27.75172900" lon="-15.6153330">
        <ele>57.180000</ele>
        <time>2009-01-05T09:30:31Z</time>
      </trkpt>
      <trkpt lat="27.75174600" lon="-15.6154130">
        <ele>57.297000</ele>
        <time>2009-01-05T09:30:32Z</time>
      </trkpt>
      <trkpt lat="27.75176400" lon="-15.6154930">
        <ele>57.829000</ele>
        <time>2009-01-05T09:30:33Z</time>
      </trkpt>
      <trkpt lat="27.75178200" lon="-15.6155740">
        <ele>58.406000</ele>
        <time>2009-01-05T09:30:34Z</time>
      </trkpt>
      <trkpt lat="27.75180100" lon="-15.6156540">
        <ele>58.303000</ele>
        <time>2009-01-05T09:30:35Z</time>
      </trkpt>
      <trkpt lat="27.75181900" lon="-15.6157340">
        <ele>58.806000</ele>
        <time>2009-01-05T09:30:36Z</time>
      </trkpt>
      <trkpt lat="27.75183700" lon="-15.6158140">
        <ele>59.341000</ele>
        <time>2009-01-05T09:30:37Z</time>
      </trkpt>
      <trkpt lat="27.75185600" lon="-15.6158940">
        <ele>59.923000</ele>
        <time>2009-01-05T09:30:38Z</time>
      </trkpt>
      <trkpt lat="27.75187500" lon="-15.6159730">
        <ele>60.138000</ele>
        <time>2009-01-05T09:30:39Z</time>
      </trkpt>
      <trkpt lat="27.75189300" lon="-15.6160530">
        <ele>60.387000</ele>
        <time>2009-01-05T09:30:40Z</time>
      </trkpt>
      <trkpt lat="27.75191200" lon="-15.6161320">
        <ele>61.107000</ele>
        <time>2009-01-05T09:30:41Z</time>
      </trkpt>
      <trkpt lat="27.75192900" lon="-15.6162110">
        <ele>61.502000</ele>
        <time>2009-01-05T09:30:42Z</time>
      </trkpt>
      <trkpt lat="27.75194600" lon="-15.6162910">
        <ele>61.764000</ele>
        <time>2009-01-05T09:30:43Z</time>
      </trkpt>
      <trkpt lat="27.75196500" lon="-15.6163680">
        <ele>61.834000</ele>
        <time>2009-01-05T09:30:44Z</time>
      </trkpt>
      <trkpt lat="27.75198400" lon="-15.6164460">
        <ele>62.326000</ele>
        <time>2009-01-05T09:30:45Z</time>
      </trkpt>
      <trkpt lat="27.75200300" lon="-15.6165230">
        <ele>62.613000</ele>
        <time>2009-01-05T09:30:46Z</time>
      </trkpt>
      <trkpt lat="27.75202100" lon="-15.6166000">
        <ele>63.137000</ele>
        <time>2009-01-05T09:30:47Z</time>
      </trkpt>
      <trkpt lat="27.75203900" lon="-15.6166770">
        <ele>63.292000</ele>
        <time>2009-01-05T09:30:48Z</time>
      </trkpt>
      <trkpt lat="27.75205600" lon="-15.6167530">
        <ele>63.656000</ele>
        <time>2009-01-05T09:30:49Z</time>
      </trkpt>
      <trkpt lat="27.75207300" lon="-15.6168300">
        <ele>64.127000</ele>
        <time>2009-01-05T09:30:50Z</time>
      </trkpt>
      <trkpt lat="27.75209100" lon="-15.6169050">
        <ele>64.662000</ele>
        <time>2009-01-05T09:30:51Z</time>
      </trkpt>
      <trkpt lat="27.75210900" lon="-15.6169810">
        <ele>64.963000</ele>
        <time>2009-01-05T09:30:52Z</time>
      </trkpt>
      <trkpt lat="27.75212700" lon="-15.6170560">
        <ele>65.878000</ele>
        <time>2009-01-05T09:30:53Z</time>
      </trkpt>
      <trkpt lat="27.75214400" lon="-15.6171320">
        <ele>65.737000</ele>
        <time>2009-01-05T09:30:54Z</time>
      </trkpt>
      <trkpt lat="27.75216100" lon="-15.6172070">
        <ele>66.412000</ele>
        <time>2009-01-05T09:30:55Z</time>
      </trkpt>
      <trkpt lat="27.75217700" lon="-15.6172810">
        <ele>66.796000</ele>
        <time>2009-01-05T09:30:56Z</time>
      </trkpt>
      <trkpt lat="27.75219500" lon="-15.6173560">
        <ele>67.503000</ele>
        <time>2009-01-05T09:30:57Z</time>
      </trkpt>
      <trkpt lat="27.75221200" lon="-15.6174290">
        <ele>68.398000</ele>
        <time>2009-01-05T09:30:58Z</time>
      </trkpt>
      <trkpt lat="27.75223000" lon="-15.6175020">
        <ele>68.132000</ele>
        <time>2009-01-05T09:30:59Z</time>
      </trkpt>
      <trkpt lat="27.75224700" lon="-15.6175740">
        <ele>68.630000</ele>
        <time>2009-01-05T09:31:00Z</time>
      </trkpt>
      <trkpt lat="27.75226400" lon="-15.6176450">
        <ele>68.801000</ele>
        <time>2009-01-05T09:31:01Z</time>
      </trkpt>
      <trkpt lat="27.75228100" lon="-15.6177160">
        <ele>69.199000</ele>
        <time>2009-01-05T09:31:02Z</time>
      </trkpt>
      <trkpt lat="27.75229800" lon="-15.6177870">
        <ele>70.125000</ele>
        <time>2009-01-05T09:31:03Z</time>
      </trkpt>
      <trkpt lat="27.75231500" lon="-15.6178570">
        <ele>70.042000</ele>
        <time>2009-01-05T09:31:04Z</time>
      </trkpt>
      <trkpt lat="27.75233100" lon="-15.6179270">
        <ele>70.281000</ele>
        <time>2009-01-05T09:31:05Z</time>
      </trkpt>
      <trkpt lat="27.75234600" lon="-15.6179970">
        <ele>70.888000</ele>
        <time>2009-01-05T09:31:06Z</time>
      </trkpt>
      <trkpt lat="27.75236200" lon="-15.6180670">
        <ele>71.252000</ele>
        <time>2009-01-05T09:31:07Z</time>
      </trkpt>
      <trkpt lat="27.75237900" lon="-15.6181380">
        <ele>71.544000</ele>
        <time>2009-01-05T09:31:08Z</time>
      </trkpt>
      <trkpt lat="27.75239500" lon="-15.6182080">
        <ele>71.979000</ele>
        <time>2009-01-05T09:31:09Z</time>
      </trkpt>
      <trkpt lat="27.75241200" lon="-15.6182770">
        <ele>72.112000</ele>
        <time>2009-01-05T09:31:10Z</time>
      </trkpt>
      <trkpt lat="27.75242900" lon="-15.6183460">
        <ele>72.547000</ele>
        <time>2009-01-05T09:31:11Z</time>
      </trkpt>
      <trkpt lat="27.75244700" lon="-15.6184150">
        <ele>72.636000</ele>
        <time>2009-01-05T09:31:12Z</time>
      </trkpt>
      <trkpt lat="27.75246400" lon="-15.6184850">
        <ele>73.136000</ele>
        <time>2009-01-05T09:31:13Z</time>
      </trkpt>
      <trkpt lat="27.75248100" lon="-15.6185560">
        <ele>72.747000</ele>
        <time>2009-01-05T09:31:14Z</time>
      </trkpt>
      <trkpt lat="27.75249800" lon="-15.6186280">
        <ele>72.740000</ele>
        <time>2009-01-05T09:31:15Z</time>
      </trkpt>
      <trkpt lat="27.75251400" lon="-15.6187020">
        <ele>72.868000</ele>
        <time>2009-01-05T09:31:16Z</time>
      </trkpt>
      <trkpt lat="27.75253000" lon="-15.6187760">
        <ele>73.326000</ele>
        <time>2009-01-05T09:31:17Z</time>
      </trkpt>
      <trkpt lat="27.75254700" lon="-15.6188510">
        <ele>72.833000</ele>
        <time>2009-01-05T09:31:18Z</time>
      </trkpt>
      <trkpt lat="27.75256400" lon="-15.6189260">
        <ele>73.194000</ele>
        <time>2009-01-05T09:31:19Z</time>
      </trkpt>
      <trkpt lat="27.75258300" lon="-15.6190010">
        <ele>73.129000</ele>
        <time>2009-01-05T09:31:20Z</time>
      </trkpt>
      <trkpt lat="27.75260200" lon="-15.6190760">
        <ele>72.781000</ele>
        <time>2009-01-05T09:31:21Z</time>
      </trkpt>
      <trkpt lat="27.75262100" lon="-15.6191500">
        <ele>72.718000</ele>
        <time>2009-01-05T09:31:22Z</time>
      </trkpt>
      <trkpt lat="27.75264000" lon="-15.6192240">
        <ele>72.828000</ele>
        <time>2009-01-05T09:31:23Z</time>
      </trkpt>
      <trkpt lat="27.75265800" lon="-15.6193000">
        <ele>72.758000</ele>
        <time>2009-01-05T09:31:24Z</time>
      </trkpt>
      <trkpt lat="27.75267600" lon="-15.6193760">
        <ele>72.703000</ele>
        <time>2009-01-05T09:31:25Z</time>
      </trkpt>
      <trkpt lat="27.75269300" lon="-15.6194550">
        <ele>72.628000</ele>
        <time>2009-01-05T09:31:26Z</time>
      </trkpt>
      <trkpt lat="27.75271000" lon="-15.6195340">
        <ele>72.428000</ele>
        <time>2009-01-05T09:31:27Z</time>
      </trkpt>
      <trkpt lat="27.75272900" lon="-15.6196150">
        <ele>72.218000</ele>
        <time>2009-01-05T09:31:28Z</time>
      </trkpt>
      <trkpt lat="27.75274900" lon="-15.6196980">
        <ele>72.111000</ele>
        <time>2009-01-05T09:31:29Z</time>
      </trkpt>
      <trkpt lat="27.75276900" lon="-15.6197820">
        <ele>71.829000</ele>
        <time>2009-01-05T09:31:30Z</time>
      </trkpt>
      <trkpt lat="27.75279000" lon="-15.6198680">
        <ele>71.656000</ele>
        <time>2009-01-05T09:31:31Z</time>
      </trkpt>
      <trkpt lat="27.75281100" lon="-15.6199560">
        <ele>71.422000</ele>
        <time>2009-01-05T09:31:32Z</time>
      </trkpt>
      <trkpt lat="27.75283400" lon="-15.6200450">
        <ele>70.797000</ele>
        <time>2009-01-05T09:31:33Z</time>
      </trkpt>
      <trkpt lat="27.75285600" lon="-15.6201380">
        <ele>70.291000</ele>
        <time>2009-01-05T09:31:34Z</time>
      </trkpt>
      <trkpt lat="27.75287900" lon="-15.6202330">
        <ele>70.054000</ele>
        <time>2009-01-05T09:31:35Z</time>
      </trkpt>
      <trkpt lat="27.75290200" lon="-15.6203310">
        <ele>69.498000</ele>
        <time>2009-01-05T09:31:36Z</time>
      </trkpt>
      <trkpt lat="27.75292500" lon="-15.6204310">
        <ele>68.986000</ele>
        <time>2009-01-05T09:31:37Z</time>
      </trkpt>
      <trkpt lat="27.75295000" lon="-15.6205340">
        <ele>68.620000</ele>
        <time>2009-01-05T09:31:38Z</time>
      </trkpt>
      <trkpt lat="27.75297500" lon="-15.6206400">
        <ele>67.820000</ele>
        <time>2009-01-05T09:31:39Z</time>
      </trkpt>
      <trkpt lat="27.75299900" lon="-15.6207490">
        <ele>67.065000</ele>
        <time>2009-01-05T09:31:40Z</time>
      </trkpt>
      <trkpt lat="27.75302300" lon="-15.6208600">
        <ele>66.480000</ele>
        <time>2009-01-05T09:31:41Z</time>
      </trkpt>
      <trkpt lat="27.75304600" lon="-15.6209740">
        <ele>66.052000</ele>
        <time>2009-01-05T09:31:42Z</time>
      </trkpt>
      <trkpt lat="27.75306800" lon="-15.6210900">
        <ele>65.636000</ele>
        <time>2009-01-05T09:31:43Z</time>
      </trkpt>
      <trkpt lat="27.75308800" lon="-15.6212070">
        <ele>64.762000</ele>
        <time>2009-01-05T09:31:44Z</time>
      </trkpt>
      <trkpt lat="27.75310600" lon="-15.6213240">
        <ele>64.512000</ele>
        <time>2009-01-05T09:31:45Z</time>
      </trkpt>
      <trkpt lat="27.75312400" lon="-15.6214410">
        <ele>64.116000</ele>
        <time>2009-01-05T09:31:46Z</time>
      </trkpt>
      <trkpt lat="27.75314100" lon="-15.6215560">
        <ele>63.742000</ele>
        <time>2009-01-05T09:31:47Z</time>
      </trkpt>
      <trkpt lat="27.75315700" lon="-15.6216700">
        <ele>63.550000</ele>
        <time>2009-01-05T09:31:48Z</time>
      </trkpt>
      <trkpt lat="27.75317100" lon="-15.6217830">
        <ele>63.236000</ele>
        <time>2009-01-05T09:31:49Z</time>
      </trkpt>
      <trkpt lat="27.75318300" lon="-15.6218950">
        <ele>63.213000</ele>
        <time>2009-01-05T09:31:50Z</time>
      </trkpt>
      <trkpt lat="27.75319500" lon="-15.6220050">
        <ele>63.008000</ele>
        <time>2009-01-05T09:31:51Z</time>
      </trkpt>
      <trkpt lat="27.75320400" lon="-15.6221120">
        <ele>63.303000</ele>
        <time>2009-01-05T09:31:52Z</time>
      </trkpt>
      <trkpt lat="27.75321400" lon="-15.6222160">
        <ele>63.304000</ele>
        <time>2009-01-05T09:31:53Z</time>
      </trkpt>
      <trkpt lat="27.75322200" lon="-15.6223160">
        <ele>64.505000</ele>
        <time>2009-01-05T09:31:54Z</time>
      </trkpt>
      <trkpt lat="27.75323100" lon="-15.6224140">
        <ele>64.369000</ele>
        <time>2009-01-05T09:31:55Z</time>
      </trkpt>
      <trkpt lat="27.75324000" lon="-15.6225070">
        <ele>64.837000</ele>
        <time>2009-01-05T09:31:56Z</time>
      </trkpt>
      <trkpt lat="27.75324500" lon="-15.6225950">
        <ele>65.108000</ele>
        <time>2009-01-05T09:31:57Z</time>
      </trkpt>
      <trkpt lat="27.75324700" lon="-15.6226780">
        <ele>65.307000</ele>
        <time>2009-01-05T09:31:58Z</time>
      </trkpt>
      <trkpt lat="27.75324900" lon="-15.6227580">
        <ele>65.482000</ele>
        <time>2009-01-05T09:31:59Z</time>
      </trkpt>
      <trkpt lat="27.75325100" lon="-15.6228330">
        <ele>66.036000</ele>
        <time>2009-01-05T09:32:00Z</time>
      </trkpt>
      <trkpt lat="27.75325300" lon="-15.6229050">
        <ele>66.632000</ele>
        <time>2009-01-05T09:32:01Z</time>
      </trkpt>
      <trkpt lat="27.75325500" lon="-15.6229750">
        <ele>66.786000</ele>
        <time>2009-01-05T09:32:02Z</time>
      </trkpt>
      <trkpt lat="27.75325500" lon="-15.6230410">
        <ele>67.174000</ele>
        <time>2009-01-05T09:32:03Z</time>
      </trkpt>
      <trkpt lat="27.75325400" lon="-15.6231070">
        <ele>67.471000</ele>
        <time>2009-01-05T09:32:04Z</time>
      </trkpt>
      <trkpt lat="27.75325300" lon="-15.6231710">
        <ele>68.231000</ele>
        <time>2009-01-05T09:32:05Z</time>
      </trkpt>
      <trkpt lat="27.75325200" lon="-15.6232350">
        <ele>68.018000</ele>
        <time>2009-01-05T09:32:06Z</time>
      </trkpt>
      <trkpt lat="27.75325200" lon="-15.6232970">
        <ele>68.373000</ele>
        <time>2009-01-05T09:32:07Z</time>
      </trkpt>
      <trkpt lat="27.75325100" lon="-15.6233590">
        <ele>68.544000</ele>
        <time>2009-01-05T09:32:08Z</time>
      </trkpt>
      <trkpt lat="27.75324800" lon="-15.6234210">
        <ele>68.875000</ele>
        <time>2009-01-05T09:32:09Z</time>
      </trkpt>
      <trkpt lat="27.75324600" lon="-15.6234830">
        <ele>68.961000</ele>
        <time>2009-01-05T09:32:10Z</time>
      </trkpt>
      <trkpt lat="27.75324300" lon="-15.6235450">
        <ele>69.179000</ele>
        <time>2009-01-05T09:32:11Z</time>
      </trkpt>
      <trkpt lat="27.75324000" lon="-15.6236070">
        <ele>69.331000</ele>
        <time>2009-01-05T09:32:12Z</time>
      </trkpt>
      <trkpt lat="27.75323600" lon="-15.6236700">
        <ele>69.385000</ele>
        <time>2009-01-05T09:32:13Z</time>
      </trkpt>
      <trkpt lat="27.75323200" lon="-15.6237330">
        <ele>69.495000</ele>
        <time>2009-01-05T09:32:14Z</time>
      </trkpt>
      <trkpt lat="27.75322600" lon="-15.6237960">
        <ele>69.866000</ele>
        <time>2009-01-05T09:32:15Z</time>
      </trkpt>
      <trkpt lat="27.75322100" lon="-15.6238600">
        <ele>69.706000</ele>
        <time>2009-01-05T09:32:16Z</time>
      </trkpt>
      <trkpt lat="27.75321500" lon="-15.6239250">
        <ele>69.708000</ele>
        <time>2009-01-05T09:32:17Z</time>
      </trkpt>
      <trkpt lat="27.75321000" lon="-15.6239920">
        <ele>70.042000</ele>
        <time>2009-01-05T09:32:18Z</time>
      </trkpt>
      <trkpt lat="27.75320500" lon="-15.6240610">
        <ele>69.840000</ele>
        <time>2009-01-05T09:32:19Z</time>
      </trkpt>
      <trkpt lat="27.75320000" lon="-15.6241300">
        <ele>69.836000</ele>
        <time>2009-01-05T09:32:20Z</time>
      </trkpt>
      <trkpt lat="27.75319300" lon="-15.6242010">
        <ele>69.930000</ele>
        <time>2009-01-05T09:32:21Z</time>
      </trkpt>
      <trkpt lat="27.75318600" lon="-15.6242740">
        <ele>69.730000</ele>
        <time>2009-01-05T09:32:22Z</time>
      </trkpt>
      <trkpt lat="27.75317800" lon="-15.6243480">
        <ele>69.795000</ele>
        <time>2009-01-05T09:32:23Z</time>
      </trkpt>
      <trkpt lat="27.75316900" lon="-15.6244250">
        <ele>69.519000</ele>
        <time>2009-01-05T09:32:24Z</time>
      </trkpt>
      <trkpt lat="27.75316000" lon="-15.6245050">
        <ele>69.322000</ele>
        <time>2009-01-05T09:32:25Z</time>
      </trkpt>
      <trkpt lat="27.75314900" lon="-15.6245880">
        <ele>69.321000</ele>
        <time>2009-01-05T09:32:26Z</time>
      </trkpt>
      <trkpt lat="27.75313600" lon="-15.6246740">
        <ele>68.976000</ele>
        <time>2009-01-05T09:32:27Z</time>
      </trkpt>
      <trkpt lat="27.75312200" lon="-15.6247630">
        <ele>68.380000</ele>
        <time>2009-01-05T09:32:28Z</time>
      </trkpt>
      <trkpt lat="27.75310700" lon="-15.6248550">
        <ele>68.096000</ele>
        <time>2009-01-05T09:32:29Z</time>
      </trkpt>
      <trkpt lat="27.75309100" lon="-15.6249500">
        <ele>67.535000</ele>
        <time>2009-01-05T09:32:30Z</time>
      </trkpt>
      <trkpt lat="27.75307400" lon="-15.6250480">
        <ele>66.984000</ele>
        <time>2009-01-05T09:32:31Z</time>
      </trkpt>
      <trkpt lat="27.75305500" lon="-15.6251510">
        <ele>67.038000</ele>
        <time>2009-01-05T09:32:32Z</time>
      </trkpt>
      <trkpt lat="27.75303400" lon="-15.6252560">
        <ele>66.136000</ele>
        <time>2009-01-05T09:32:33Z</time>
      </trkpt>
      <trkpt lat="27.75301200" lon="-15.6253650">
        <ele>65.378000</ele>
        <time>2009-01-05T09:32:34Z</time>
      </trkpt>
      <trkpt lat="27.75298700" lon="-15.6254760">
        <ele>64.629000</ele>
        <time>2009-01-05T09:32:35Z</time>
      </trkpt>
      <trkpt lat="27.75296200" lon="-15.6255900">
        <ele>63.525000</ele>
        <time>2009-01-05T09:32:36Z</time>
      </trkpt>
      <trkpt lat="27.75293700" lon="-15.6257060">
        <ele>63.608000</ele>
        <time>2009-01-05T09:32:37Z</time>
      </trkpt>
      <trkpt lat="27.75291100" lon="-15.6258220">
        <ele>62.724000</ele>
        <time>2009-01-05T09:32:38Z</time>
      </trkpt>
      <trkpt lat="27.75288300" lon="-15.6259380">
        <ele>62.421000</ele>
        <time>2009-01-05T09:32:39Z</time>
      </trkpt>
      <trkpt lat="27.75285300" lon="-15.6260530">
        <ele>61.965000</ele>
        <time>2009-01-05T09:32:40Z</time>
      </trkpt>
      <trkpt lat="27.75282300" lon="-15.6261660">
        <ele>61.463000</ele>
        <time>2009-01-05T09:32:41Z</time>
      </trkpt>
      <trkpt lat="27.75279300" lon="-15.6262760">
        <ele>61.293000</ele>
        <time>2009-01-05T09:32:42Z</time>
      </trkpt>
      <trkpt lat="27.75276500" lon="-15.6263840">
        <ele>61.024000</ele>
        <time>2009-01-05T09:32:43Z</time>
      </trkpt>
      <trkpt lat="27.75273700" lon="-15.6264880">
        <ele>60.893000</ele>
        <time>2009-01-05T09:32:44Z</time>
      </trkpt>
      <trkpt lat="27.75271000" lon="-15.6265890">
        <ele>60.918000</ele>
        <time>2009-01-05T09:32:45Z</time>
      </trkpt>
      <trkpt lat="27.75268500" lon="-15.6266880">
        <ele>60.501000</ele>
        <time>2009-01-05T09:32:46Z</time>
      </trkpt>
      <trkpt lat="27.75266500" lon="-15.6267840">
        <ele>60.772000</ele>
        <time>2009-01-05T09:32:47Z</time>
      </trkpt>
      <trkpt lat="27.75265400" lon="-15.6268770">
        <ele>61.035000</ele>
        <time>2009-01-05T09:32:48Z</time>
      </trkpt>
      <trkpt lat="27.75265100" lon="-15.6269670">
        <ele>61.382000</ele>
        <time>2009-01-05T09:32:49Z</time>
      </trkpt>
      <trkpt lat="27.75265200" lon="-15.6270540">
        <ele>61.859000</ele>
        <time>2009-01-05T09:32:50Z</time>
      </trkpt>
      <trkpt lat="27.75265200" lon="-15.6271380">
        <ele>61.805000</ele>
        <time>2009-01-05T09:32:51Z</time>
      </trkpt>
      <trkpt lat="27.75264300" lon="-15.6272200">
        <ele>61.795000</ele>
        <time>2009-01-05T09:32:52Z</time>
      </trkpt>
      <trkpt lat="27.75262400" lon="-15.6272980">
        <ele>62.024000</ele>
        <time>2009-01-05T09:32:53Z</time>
      </trkpt>
      <trkpt lat="27.75259200" lon="-15.6273690">
        <ele>62.012000</ele>
        <time>2009-01-05T09:32:54Z</time>
      </trkpt>
      <trkpt lat="27.75255000" lon="-15.6274320">
        <ele>62.008000</ele>
        <time>2009-01-05T09:32:55Z</time>
      </trkpt>
      <trkpt lat="27.75250300" lon="-15.6274900">
        <ele>62.400000</ele>
        <time>2009-01-05T09:32:56Z</time>
      </trkpt>
      <trkpt lat="27.75245700" lon="-15.6275450">
        <ele>62.570000</ele>
        <time>2009-01-05T09:32:57Z</time>
      </trkpt>
      <trkpt lat="27.75241500" lon="-15.6276010">
        <ele>63.016000</ele>
        <time>2009-01-05T09:32:58Z</time>
      </trkpt>
      <trkpt lat="27.75238000" lon="-15.6276590">
        <ele>63.604000</ele>
        <time>2009-01-05T09:32:59Z</time>
      </trkpt>
      <trkpt lat="27.75235500" lon="-15.6277200">
        <ele>63.816000</ele>
        <time>2009-01-05T09:33:00Z</time>
      </trkpt>
      <trkpt lat="27.75233600" lon="-15.6277810">
        <ele>63.973000</ele>
        <time>2009-01-05T09:33:01Z</time>
      </trkpt>
      <trkpt lat="27.75231800" lon="-15.6278400">
        <ele>64.418000</ele>
        <time>2009-01-05T09:33:02Z</time>
      </trkpt>
      <trkpt lat="27.75230100" lon="-15.6278970">
        <ele>64.700000</ele>
        <time>2009-01-05T09:33:03Z</time>
      </trkpt>
      <trkpt lat="27.75228300" lon="-15.6279520">
        <ele>65.124000</ele>
        <time>2009-01-05T09:33:04Z</time>
      </trkpt>
      <trkpt lat="27.75226700" lon="-15.6280060">
        <ele>65.651000</ele>
        <time>2009-01-05T09:33:05Z</time>
      </trkpt>
      <trkpt lat="27.75225200" lon="-15.6280590">
        <ele>65.740000</ele>
        <time>2009-01-05T09:33:06Z</time>
      </trkpt>
      <trkpt lat="27.75223600" lon="-15.6281130">
        <ele>65.728000</ele>
        <time>2009-01-05T09:33:07Z</time>
      </trkpt>
      <trkpt lat="27.75221900" lon="-15.6281660">
        <ele>66.300000</ele>
        <time>2009-01-05T09:33:08Z</time>
      </trkpt>
      <trkpt lat="27.75220100" lon="-15.6282200">
        <ele>66.798000</ele>
        <time>2009-01-05T09:33:09Z</time>
      </trkpt>
      <trkpt lat="27.75218400" lon="-15.6282720">
        <ele>67.032000</ele>
        <time>2009-01-05T09:33:10Z</time>
      </trkpt>
      <trkpt lat="27.75216800" lon="-15.6283260">
        <ele>66.742000</ele>
        <time>2009-01-05T09:33:11Z</time>
      </trkpt>
      <trkpt lat="27.75215300" lon="-15.6283810">
        <ele>67.135000</ele>
        <time>2009-01-05T09:33:12Z</time>
      </trkpt>
      <trkpt lat="27.75213500" lon="-15.6284360">
        <ele>67.012000</ele>
        <time>2009-01-05T09:33:13Z</time>
      </trkpt>
      <trkpt lat="27.75211700" lon="-15.6284930">
        <ele>67.058000</ele>
        <time>2009-01-05T09:33:14Z</time>
      </trkpt>
      <trkpt lat="27.75209700" lon="-15.6285510">
        <ele>67.083000</ele>
        <time>2009-01-05T09:33:15Z</time>
      </trkpt>
      <trkpt lat="27.75207700" lon="-15.6286130">
        <ele>66.954000</ele>
        <time>2009-01-05T09:33:16Z</time>
      </trkpt>
      <trkpt lat="27.75205600" lon="-15.6286800">
        <ele>66.242000</ele>
        <time>2009-01-05T09:33:17Z</time>
      </trkpt>
      <trkpt lat="27.75203300" lon="-15.6287520">
        <ele>65.611000</ele>
        <time>2009-01-05T09:33:18Z</time>
      </trkpt>
      <trkpt lat="27.75200900" lon="-15.6288300">
        <ele>65.020000</ele>
        <time>2009-01-05T09:33:19Z</time>
      </trkpt>
      <trkpt lat="27.75198100" lon="-15.6289110">
        <ele>64.718000</ele>
        <time>2009-01-05T09:33:20Z</time>
      </trkpt>
      <trkpt lat="27.75194800" lon="-15.6289940">
        <ele>64.434000</ele>
        <time>2009-01-05T09:33:21Z</time>
      </trkpt>
      <trkpt lat="27.75190800" lon="-15.6290770">
        <ele>64.015000</ele>
        <time>2009-01-05T09:33:22Z</time>
      </trkpt>
      <trkpt lat="27.75186100" lon="-15.6291580">
        <ele>63.554000</ele>
        <time>2009-01-05T09:33:23Z</time>
      </trkpt>
      <trkpt lat="27.75180500" lon="-15.6292350">
        <ele>63.169000</ele>
        <time>2009-01-05T09:33:24Z</time>
      </trkpt>
      <trkpt lat="27.75174200" lon="-15.6293060">
        <ele>62.726000</ele>
        <time>2009-01-05T09:33:25Z</time>
      </trkpt>
      <trkpt lat="27.75167200" lon="-15.6293680">
        <ele>62.328000</ele>
        <time>2009-01-05T09:33:26Z</time>
      </trkpt>
      <trkpt lat="27.75159900" lon="-15.6294240">
        <ele>62.207000</ele>
        <time>2009-01-05T09:33:27Z</time>
      </trkpt>
      <trkpt lat="27.75152500" lon="-15.6294730">
        <ele>62.441000</ele>
        <time>2009-01-05T09:33:28Z</time>
      </trkpt>
      <trkpt lat="27.75145200" lon="-15.6295190">
        <ele>62.744000</ele>
        <time>2009-01-05T09:33:29Z</time>
      </trkpt>
      <trkpt lat="27.75138200" lon="-15.6295630">
        <ele>63.175000</ele>
        <time>2009-01-05T09:33:30Z</time>
      </trkpt>
      <trkpt lat="27.75131800" lon="-15.6296060">
        <ele>63.362000</ele>
        <time>2009-01-05T09:33:31Z</time>
      </trkpt>
      <trkpt lat="27.75125800" lon="-15.6296450">
        <ele>64.174000</ele>
        <time>2009-01-05T09:33:32Z</time>
      </trkpt>
      <trkpt lat="27.75120200" lon="-15.6296820">
        <ele>64.363000</ele>
        <time>2009-01-05T09:33:33Z</time>
      </trkpt>
      <trkpt lat="27.75115000" lon="-15.6297150">
        <ele>65.117000</ele>
        <time>2009-01-05T09:33:34Z</time>
      </trkpt>
      <trkpt lat="27.75109900" lon="-15.6297440">
        <ele>65.697000</ele>
        <time>2009-01-05T09:33:35Z</time>
      </trkpt>
      <trkpt lat="27.75104900" lon="-15.6297740">
        <ele>65.827000</ele>
        <time>2009-01-05T09:33:36Z</time>
      </trkpt>
      <trkpt lat="27.75100300" lon="-15.6298060">
        <ele>66.172000</ele>
        <time>2009-01-05T09:33:37Z</time>
      </trkpt>
      <trkpt lat="27.75096000" lon="-15.6298390">
        <ele>66.517000</ele>
        <time>2009-01-05T09:33:38Z</time>
      </trkpt>
      <trkpt lat="27.75091800" lon="-15.6298740">
        <ele>67.097000</ele>
        <time>2009-01-05T09:33:39Z</time>
      </trkpt>
      <trkpt lat="27.75087900" lon="-15.6299080">
        <ele>67.613000</ele>
        <time>2009-01-05T09:33:40Z</time>
      </trkpt>
      <trkpt lat="27.75084200" lon="-15.6299430">
        <ele>68.040000</ele>
        <time>2009-01-05T09:33:41Z</time>
      </trkpt>
      <trkpt lat="27.75080900" lon="-15.6299810">
        <ele>68.589000</ele>
        <time>2009-01-05T09:33:42Z</time>
      </trkpt>
      <trkpt lat="27.75077900" lon="-15.6300210">
        <ele>68.881000</ele>
        <time>2009-01-05T09:33:43Z</time>
      </trkpt>
      <trkpt lat="27.75075300" lon="-15.6300650">
        <ele>69.363000</ele>
        <time>2009-01-05T09:33:44Z</time>
      </trkpt>
      <trkpt lat="27.75073400" lon="-15.6301130">
        <ele>69.499000</ele>
        <time>2009-01-05T09:33:45Z</time>
      </trkpt>
      <trkpt lat="27.75072100" lon="-15.6301640">
        <ele>69.686000</ele>
        <time>2009-01-05T09:33:46Z</time>
      </trkpt>
      <trkpt lat="27.75071400" lon="-15.6302150">
        <ele>70.123000</ele>
        <time>2009-01-05T09:33:47Z</time>
      </trkpt>
      <trkpt lat="27.75071000" lon="-15.6302660">
        <ele>70.379000</ele>
        <time>2009-01-05T09:33:48Z</time>
      </trkpt>
      <trkpt lat="27.75071100" lon="-15.6303150">
        <ele>70.644000</ele>
        <time>2009-01-05T09:33:49Z</time>
      </trkpt>
      <trkpt lat="27.75071600" lon="-15.6303650">
        <ele>70.712000</ele>
        <time>2009-01-05T09:33:50Z</time>
      </trkpt>
      <trkpt lat="27.75072700" lon="-15.6304150">
        <ele>71.287000</ele>
        <time>2009-01-05T09:33:51Z</time>
      </trkpt>
      <trkpt lat="27.75074000" lon="-15.6304640">
        <ele>71.777000</ele>
        <time>2009-01-05T09:33:52Z</time>
      </trkpt>
      <trkpt lat="27.75075400" lon="-15.6305150">
        <ele>71.570000</ele>
        <time>2009-01-05T09:33:53Z</time>
      </trkpt>
      <trkpt lat="27.75077000" lon="-15.6305690">
        <ele>71.601000</ele>
        <time>2009-01-05T09:33:54Z</time>
      </trkpt>
      <trkpt lat="27.75078800" lon="-15.6306240">
        <ele>71.378000</ele>
        <time>2009-01-05T09:33:55Z</time>
      </trkpt>
      <trkpt lat="27.75080800" lon="-15.6306810">
        <ele>71.469000</ele>
        <time>2009-01-05T09:33:56Z</time>
      </trkpt>
      <trkpt lat="27.75083000" lon="-15.6307410">
        <ele>71.375000</ele>
        <time>2009-01-05T09:33:57Z</time>
      </trkpt>
      <trkpt lat="27.75085300" lon="-15.6308010">
        <ele>71.266000</ele>
        <time>2009-01-05T09:33:58Z</time>
      </trkpt>
      <trkpt lat="27.75087500" lon="-15.6308650">
        <ele>71.468000</ele>
        <time>2009-01-05T09:33:59Z</time>
      </trkpt>
      <trkpt lat="27.75089700" lon="-15.6309300">
        <ele>71.216000</ele>
        <time>2009-01-05T09:34:00Z</time>
      </trkpt>
      <trkpt lat="27.75092000" lon="-15.6309970">
        <ele>70.874000</ele>
        <time>2009-01-05T09:34:01Z</time>
      </trkpt>
      <trkpt lat="27.75094300" lon="-15.6310660">
        <ele>70.862000</ele>
        <time>2009-01-05T09:34:02Z</time>
      </trkpt>
      <trkpt lat="27.75096800" lon="-15.6311370">
        <ele>70.671000</ele>
        <time>2009-01-05T09:34:03Z</time>
      </trkpt>
      <trkpt lat="27.75099400" lon="-15.6312080">
        <ele>70.794000</ele>
        <time>2009-01-05T09:34:04Z</time>
      </trkpt>
      <trkpt lat="27.75102000" lon="-15.6312800">
        <ele>70.745000</ele>
        <time>2009-01-05T09:34:05Z</time>
      </trkpt>
      <trkpt lat="27.75104600" lon="-15.6313530">
        <ele>70.709000</ele>
        <time>2009-01-05T09:34:06Z</time>
      </trkpt>
      <trkpt lat="27.75107200" lon="-15.6314260">
        <ele>70.454000</ele>
        <time>2009-01-05T09:34:07Z</time>
      </trkpt>
      <trkpt lat="27.75109800" lon="-15.6315000">
        <ele>70.516000</ele>
        <time>2009-01-05T09:34:08Z</time>
      </trkpt>
      <trkpt lat="27.75112400" lon="-15.6315740">
        <ele>70.356000</ele>
        <time>2009-01-05T09:34:09Z</time>
      </trkpt>
      <trkpt lat="27.75115100" lon="-15.6316500">
        <ele>70.280000</ele>
        <time>2009-01-05T09:34:10Z</time>
      </trkpt>
      <trkpt lat="27.75117700" lon="-15.6317250">
        <ele>70.540000</ele>
        <time>2009-01-05T09:34:11Z</time>
      </trkpt>
      <trkpt lat="27.75120400" lon="-15.6317990">
        <ele>70.432000</ele>
        <time>2009-01-05T09:34:12Z</time>
      </trkpt>
      <trkpt lat="27.75123100" lon="-15.6318710">
        <ele>70.349000</ele>
        <time>2009-01-05T09:34:13Z</time>
      </trkpt>
      <trkpt lat="27.75125800" lon="-15.6319430">
        <ele>70.278000</ele>
        <time>2009-01-05T09:34:14Z</time>
      </trkpt>
      <trkpt lat="27.75128400" lon="-15.6320140">
        <ele>70.281000</ele>
        <time>2009-01-05T09:34:15Z</time>
      </trkpt>
      <trkpt lat="27.75130900" lon="-15.6320850">
        <ele>70.248000</ele>
        <time>2009-01-05T09:34:16Z</time>
      </trkpt>
      <trkpt lat="27.75133300" lon="-15.6321570">
        <ele>70.175000</ele>
        <time>2009-01-05T09:34:17Z</time>
      </trkpt>
      <trkpt lat="27.75135800" lon="-15.6322280">
        <ele>70.321000</ele>
        <time>2009-01-05T09:34:18Z</time>
      </trkpt>
      <trkpt lat="27.75138200" lon="-15.6322990">
        <ele>70.200000</ele>
        <time>2009-01-05T09:34:19Z</time>
      </trkpt>
      <trkpt lat="27.75140600" lon="-15.6323700">
        <ele>70.201000</ele>
        <time>2009-01-05T09:34:20Z</time>
      </trkpt>
      <trkpt lat="27.75143100" lon="-15.6324410">
        <ele>70.424000</ele>
        <time>2009-01-05T09:34:21Z</time>
      </trkpt>
      <trkpt lat="27.75145600" lon="-15.6325110">
        <ele>70.298000</ele>
        <time>2009-01-05T09:34:22Z</time>
      </trkpt>
      <trkpt lat="27.75148100" lon="-15.6325820">
        <ele>70.512000</ele>
        <time>2009-01-05T09:34:23Z</time>
      </trkpt>
      <trkpt lat="27.75150600" lon="-15.6326520">
        <ele>70.447000</ele>
        <time>2009-01-05T09:34:24Z</time>
      </trkpt>
      <trkpt lat="27.75153200" lon="-15.6327220">
        <ele>70.173000</ele>
        <time>2009-01-05T09:34:25Z</time>
      </trkpt>
      <trkpt lat="27.75155700" lon="-15.6327920">
        <ele>70.300000</ele>
        <time>2009-01-05T09:34:26Z</time>
      </trkpt>
      <trkpt lat="27.75158500" lon="-15.6328610">
        <ele>70.295000</ele>
        <time>2009-01-05T09:34:27Z</time>
      </trkpt>
      <trkpt lat="27.75161800" lon="-15.6329260">
        <ele>70.478000</ele>
        <time>2009-01-05T09:34:28Z</time>
      </trkpt>
      <trkpt lat="27.75165900" lon="-15.6329860">
        <ele>70.503000</ele>
        <time>2009-01-05T09:34:29Z</time>
      </trkpt>
      <trkpt lat="27.75170700" lon="-15.6330400">
        <ele>70.395000</ele>
        <time>2009-01-05T09:34:30Z</time>
      </trkpt>
      <trkpt lat="27.75176100" lon="-15.6330870">
        <ele>70.395000</ele>
        <time>2009-01-05T09:34:31Z</time>
      </trkpt>
      <trkpt lat="27.75182200" lon="-15.6331270">
        <ele>70.007000</ele>
        <time>2009-01-05T09:34:32Z</time>
      </trkpt>
      <trkpt lat="27.75188900" lon="-15.6331600">
        <ele>69.764000</ele>
        <time>2009-01-05T09:34:33Z</time>
      </trkpt>
      <trkpt lat="27.75196100" lon="-15.6331860">
        <ele>69.707000</ele>
        <time>2009-01-05T09:34:34Z</time>
      </trkpt>
      <trkpt lat="27.75203700" lon="-15.6332080">
        <ele>69.421000</ele>
        <time>2009-01-05T09:34:35Z</time>
      </trkpt>
      <trkpt lat="27.75211600" lon="-15.6332300">
        <ele>69.030000</ele>
        <time>2009-01-05T09:34:36Z</time>
      </trkpt>
      <trkpt lat="27.75219700" lon="-15.6332520">
        <ele>68.591000</ele>
        <time>2009-01-05T09:34:37Z</time>
      </trkpt>
      <trkpt lat="27.75228000" lon="-15.6332740">
        <ele>68.009000</ele>
        <time>2009-01-05T09:34:38Z</time>
      </trkpt>
      <trkpt lat="27.75236600" lon="-15.6332960">
        <ele>67.943000</ele>
        <time>2009-01-05T09:34:39Z</time>
      </trkpt>
      <trkpt lat="27.75245200" lon="-15.6333170">
        <ele>67.549000</ele>
        <time>2009-01-05T09:34:40Z</time>
      </trkpt>
      <trkpt lat="27.75253800" lon="-15.6333390">
        <ele>67.207000</ele>
        <time>2009-01-05T09:34:41Z</time>
      </trkpt>
      <trkpt lat="27.75262300" lon="-15.6333680">
        <ele>66.960000</ele>
        <time>2009-01-05T09:34:42Z</time>
      </trkpt>
      <trkpt lat="27.75270400" lon="-15.6334040">
        <ele>66.724000</ele>
        <time>2009-01-05T09:34:43Z</time>
      </trkpt>
      <trkpt lat="27.75278200" lon="-15.6334460">
        <ele>66.795000</ele>
        <time>2009-01-05T09:34:44Z</time>
      </trkpt>
      <trkpt lat="27.75285300" lon="-15.6334980">
        <ele>66.775000</ele>
        <time>2009-01-05T09:34:45Z</time>
      </trkpt>
      <trkpt lat="27.75291900" lon="-15.6335580">
        <ele>66.552000</ele>
        <time>2009-01-05T09:34:46Z</time>
      </trkpt>
      <trkpt lat="27.75297900" lon="-15.6336240">
        <ele>66.387000</ele>
        <time>2009-01-05T09:34:47Z</time>
      </trkpt>
      <trkpt lat="27.75303900" lon="-15.6336910">
        <ele>66.544000</ele>
        <time>2009-01-05T09:34:48Z</time>
      </trkpt>
      <trkpt lat="27.75309800" lon="-15.6337590">
        <ele>66.024000</ele>
        <time>2009-01-05T09:34:49Z</time>
      </trkpt>
      <trkpt lat="27.75315600" lon="-15.6338270">
        <ele>66.250000</ele>
        <time>2009-01-05T09:34:50Z</time>
      </trkpt>
      <trkpt lat="27.75321400" lon="-15.6338960">
        <ele>65.860000</ele>
        <time>2009-01-05T09:34:51Z</time>
      </trkpt>
      <trkpt lat="27.75327100" lon="-15.6339660">
        <ele>65.792000</ele>
        <time>2009-01-05T09:34:52Z</time>
      </trkpt>
      <trkpt lat="27.75332900" lon="-15.6340340">
        <ele>65.603000</ele>
        <time>2009-01-05T09:34:53Z</time>
      </trkpt>
      <trkpt lat="27.75338800" lon="-15.6341020">
        <ele>65.136000</ele>
        <time>2009-01-05T09:34:54Z</time>
      </trkpt>
      <trkpt lat="27.75344600" lon="-15.6341700">
        <ele>64.934000</ele>
        <time>2009-01-05T09:34:55Z</time>
      </trkpt>
      <trkpt lat="27.75350400" lon="-15.6342380">
        <ele>64.914000</ele>
        <time>2009-01-05T09:34:56Z</time>
      </trkpt>
      <trkpt lat="27.75356200" lon="-15.6343050">
        <ele>64.582000</ele>
        <time>2009-01-05T09:34:57Z</time>
      </trkpt>
      <trkpt lat="27.75362100" lon="-15.6343730">
        <ele>64.339000</ele>
        <time>2009-01-05T09:34:58Z</time>
      </trkpt>
      <trkpt lat="27.75368100" lon="-15.6344400">
        <ele>64.253000</ele>
        <time>2009-01-05T09:34:59Z</time>
      </trkpt>
      <trkpt lat="27.75374000" lon="-15.6345060">
        <ele>64.299000</ele>
        <time>2009-01-05T09:35:00Z</time>
      </trkpt>
      <trkpt lat="27.75379800" lon="-15.6345720">
        <ele>64.067000</ele>
        <time>2009-01-05T09:35:01Z</time>
      </trkpt>
      <trkpt lat="27.75385500" lon="-15.6346410">
        <ele>63.976000</ele>
        <time>2009-01-05T09:35:02Z</time>
      </trkpt>
      <trkpt lat="27.75390900" lon="-15.6347100">
        <ele>63.662000</ele>
        <time>2009-01-05T09:35:03Z</time>
      </trkpt>
      <trkpt lat="27.75396100" lon="-15.6347810">
        <ele>63.634000</ele>
        <time>2009-01-05T09:35:04Z</time>
      </trkpt>
      <trkpt lat="27.75401100" lon="-15.6348540">
        <ele>63.193000</ele>
        <time>2009-01-05T09:35:05Z</time>
      </trkpt>
      <trkpt lat="27.75405600" lon="-15.6349290">
        <ele>63.411000</ele>
        <time>2009-01-05T09:35:06Z</time>
      </trkpt>
      <trkpt lat="27.75409600" lon="-15.6350060">
        <ele>63.134000</ele>
        <time>2009-01-05T09:35:07Z</time>
      </trkpt>
      <trkpt lat="27.75413000" lon="-15.6350860">
        <ele>63.376000</ele>
        <time>2009-01-05T09:35:08Z</time>
      </trkpt>
      <trkpt lat="27.75415700" lon="-15.6351660">
        <ele>63.350000</ele>
        <time>2009-01-05T09:35:09Z</time>
      </trkpt>
      <trkpt lat="27.75417700" lon="-15.6352460">
        <ele>63.348000</ele>
        <time>2009-01-05T09:35:10Z</time>
      </trkpt>
      <trkpt lat="27.75419000" lon="-15.6353250">
        <ele>63.547000</ele>
        <time>2009-01-05T09:35:11Z</time>
      </trkpt>
      <trkpt lat="27.75419800" lon="-15.6354010">
        <ele>63.599000</ele>
        <time>2009-01-05T09:35:12Z</time>
      </trkpt>
      <trkpt lat="27.75420100" lon="-15.6354740">
        <ele>63.922000</ele>
        <time>2009-01-05T09:35:13Z</time>
      </trkpt>
      <trkpt lat="27.75420000" lon="-15.6355430">
        <ele>64.056000</ele>
        <time>2009-01-05T09:35:14Z</time>
      </trkpt>
      <trkpt lat="27.75419500" lon="-15.6356090">
        <ele>64.604000</ele>
        <time>2009-01-05T09:35:15Z</time>
      </trkpt>
      <trkpt lat="27.75418800" lon="-15.6356680">
        <ele>64.603000</ele>
        <time>2009-01-05T09:35:16Z</time>
      </trkpt>
      <trkpt lat="27.75417700" lon="-15.6357240">
        <ele>65.218000</ele>
        <time>2009-01-05T09:35:17Z</time>
      </trkpt>
      <trkpt lat="27.75416200" lon="-15.6357780">
        <ele>65.396000</ele>
        <time>2009-01-05T09:35:18Z</time>
      </trkpt>
      <trkpt lat="27.75414500" lon="-15.6358320">
        <ele>65.858000</ele>
        <time>2009-01-05T09:35:19Z</time>
      </trkpt>
      <trkpt lat="27.75412700" lon="-15.6358850">
        <ele>66.272000</ele>
        <time>2009-01-05T09:35:20Z</time>
      </trkpt>
      <trkpt lat="27.75410700" lon="-15.6359380">
        <ele>66.713000</ele>
        <time>2009-01-05T09:35:21Z</time>
      </trkpt>
      <trkpt lat="27.75408600" lon="-15.6359890">
        <ele>67.050000</ele>
        <time>2009-01-05T09:35:22Z</time>
      </trkpt>
      <trkpt lat="27.75406300" lon="-15.6360400">
        <ele>67.071000</ele>
        <time>2009-01-05T09:35:23Z</time>
      </trkpt>
      <trkpt lat="27.75404000" lon="-15.6360910">
        <ele>67.607000</ele>
        <time>2009-01-05T09:35:24Z</time>
      </trkpt>
      <trkpt lat="27.75401600" lon="-15.6361410">
        <ele>67.826000</ele>
        <time>2009-01-05T09:35:25Z</time>
      </trkpt>
      <trkpt lat="27.75399100" lon="-15.6361910">
        <ele>68.362000</ele>
        <time>2009-01-05T09:35:26Z</time>
      </trkpt>
      <trkpt lat="27.75396500" lon="-15.6362400">
        <ele>68.824000</ele>
        <time>2009-01-05T09:35:27Z</time>
      </trkpt>
      <trkpt lat="27.75394100" lon="-15.6362900">
        <ele>68.787000</ele>
        <time>2009-01-05T09:35:28Z</time>
      </trkpt>
      <trkpt lat="27.75391800" lon="-15.6363400">
        <ele>69.318000</ele>
        <time>2009-01-05T09:35:29Z</time>
      </trkpt>
      <trkpt lat="27.75389400" lon="-15.6363900">
        <ele>69.587000</ele>
        <time>2009-01-05T09:35:30Z</time>
      </trkpt>
      <trkpt lat="27.75386900" lon="-15.6364380">
        <ele>69.944000</ele>
        <time>2009-01-05T09:35:31Z</time>
      </trkpt>
      <trkpt lat="27.75384500" lon="-15.6364870">
        <ele>70.433000</ele>
        <time>2009-01-05T09:35:32Z</time>
      </trkpt>
      <trkpt lat="27.75382100" lon="-15.6365350">
        <ele>70.441000</ele>
        <time>2009-01-05T09:35:33Z</time>
      </trkpt>
      <trkpt lat="27.75379700" lon="-15.6365840">
        <ele>70.861000</ele>
        <time>2009-01-05T09:35:34Z</time>
      </trkpt>
      <trkpt lat="27.75377200" lon="-15.6366320">
        <ele>71.314000</ele>
        <time>2009-01-05T09:35:35Z</time>
      </trkpt>
      <trkpt lat="27.75374600" lon="-15.6366790">
        <ele>71.972000</ele>
        <time>2009-01-05T09:35:36Z</time>
      </trkpt>
      <trkpt lat="27.75371900" lon="-15.6367260">
        <ele>71.933000</ele>
        <time>2009-01-05T09:35:37Z</time>
      </trkpt>
      <trkpt lat="27.75369100" lon="-15.6367710">
        <ele>72.356000</ele>
        <time>2009-01-05T09:35:38Z</time>
      </trkpt>
      <trkpt lat="27.75366100" lon="-15.6368160">
        <ele>72.666000</ele>
        <time>2009-01-05T09:35:39Z</time>
      </trkpt>
      <trkpt lat="27.75363000" lon="-15.6368590">
        <ele>73.076000</ele>
        <time>2009-01-05T09:35:40Z</time>
      </trkpt>
      <trkpt lat="27.75359700" lon="-15.6369000">
        <ele>73.362000</ele>
        <time>2009-01-05T09:35:41Z</time>
      </trkpt>
      <trkpt lat="27.75356400" lon="-15.6369410">
        <ele>73.508000</ele>
        <time>2009-01-05T09:35:42Z</time>
      </trkpt>
      <trkpt lat="27.75353200" lon="-15.6369810">
        <ele>73.844000</ele>
        <time>2009-01-05T09:35:43Z</time>
      </trkpt>
      <trkpt lat="27.75350000" lon="-15.6370210">
        <ele>74.062000</ele>
        <time>2009-01-05T09:35:44Z</time>
      </trkpt>
      <trkpt lat="27.75346800" lon="-15.6370600">
        <ele>74.575000</ele>
        <time>2009-01-05T09:35:45Z</time>
      </trkpt>
      <trkpt lat="27.75343700" lon="-15.6371000">
        <ele>74.853000</ele>
        <time>2009-01-05T09:35:46Z</time>
      </trkpt>
      <trkpt lat="27.75340700" lon="-15.6371400">
        <ele>75.251000</ele>
        <time>2009-01-05T09:35:47Z</time>
      </trkpt>
      <trkpt lat="27.75337700" lon="-15.6371800">
        <ele>75.392000</ele>
        <time>2009-01-05T09:35:48Z</time>
      </trkpt>
      <trkpt lat="27.75334700" lon="-15.6372210">
        <ele>75.802000</ele>
        <time>2009-01-05T09:35:49Z</time>
      </trkpt>
      <trkpt lat="27.75331800" lon="-15.6372610">
        <ele>76.215000</ele>
        <time>2009-01-05T09:35:50Z</time>
      </trkpt>
      <trkpt lat="27.75329000" lon="-15.6373020">
        <ele>76.452000</ele>
        <time>2009-01-05T09:35:51Z</time>
      </trkpt>
      <trkpt lat="27.75326400" lon="-15.6373450">
        <ele>76.875000</ele>
        <time>2009-01-05T09:35:52Z</time>
      </trkpt>
      <trkpt lat="27.75324000" lon="-15.6373890">
        <ele>77.083000</ele>
        <time>2009-01-05T09:35:53Z</time>
      </trkpt>
      <trkpt lat="27.75322000" lon="-15.6374360">
        <ele>77.435000</ele>
        <time>2009-01-05T09:35:54Z</time>
      </trkpt>
      <trkpt lat="27.75320600" lon="-15.6374840">
        <ele>77.745000</ele>
        <time>2009-01-05T09:35:55Z</time>
      </trkpt>
      <trkpt lat="27.75319900" lon="-15.6375350">
        <ele>78.034000</ele>
        <time>2009-01-05T09:35:56Z</time>
      </trkpt>
      <trkpt lat="27.75319900" lon="-15.6375860">
        <ele>78.287000</ele>
        <time>2009-01-05T09:35:57Z</time>
      </trkpt>
      <trkpt lat="27.75320900" lon="-15.6376360">
        <ele>78.769000</ele>
        <time>2009-01-05T09:35:58Z</time>
      </trkpt>
      <trkpt lat="27.75322500" lon="-15.6376830">
        <ele>79.180000</ele>
        <time>2009-01-05T09:35:59Z</time>
      </trkpt>
      <trkpt lat="27.75324700" lon="-15.6377300">
        <ele>79.345000</ele>
        <time>2009-01-05T09:36:00Z</time>
      </trkpt>
      <trkpt lat="27.75327300" lon="-15.6377740">
        <ele>79.702000</ele>
        <time>2009-01-05T09:36:01Z</time>
      </trkpt>
      <trkpt lat="27.75330300" lon="-15.6378170">
        <ele>79.915000</ele>
        <time>2009-01-05T09:36:02Z</time>
      </trkpt>
      <trkpt lat="27.75333800" lon="-15.6378570">
        <ele>79.794000</ele>
        <time>2009-01-05T09:36:03Z</time>
      </trkpt>
      <trkpt lat="27.75337800" lon="-15.6378930">
        <ele>79.914000</ele>
        <time>2009-01-05T09:36:04Z</time>
      </trkpt>
      <trkpt lat="27.75342300" lon="-15.6379260">
        <ele>79.978000</ele>
        <time>2009-01-05T09:36:05Z</time>
      </trkpt>
      <trkpt lat="27.75347200" lon="-15.6379550">
        <ele>79.648000</ele>
        <time>2009-01-05T09:36:06Z</time>
      </trkpt>
      <trkpt lat="27.75352600" lon="-15.6379820">
        <ele>79.572000</ele>
        <time>2009-01-05T09:36:07Z</time>
      </trkpt>
      <trkpt lat="27.75358300" lon="-15.6380100">
        <ele>79.615000</ele>
        <time>2009-01-05T09:36:08Z</time>
      </trkpt>
      <trkpt lat="27.75364300" lon="-15.6380390">
        <ele>79.621000</ele>
        <time>2009-01-05T09:36:09Z</time>
      </trkpt>
      <trkpt lat="27.75370700" lon="-15.6380700">
        <ele>79.370000</ele>
        <time>2009-01-05T09:36:10Z</time>
      </trkpt>
      <trkpt lat="27.75377400" lon="-15.6381030">
        <ele>78.944000</ele>
        <time>2009-01-05T09:36:11Z</time>
      </trkpt>
      <trkpt lat="27.75384200" lon="-15.6381420">
        <ele>78.630000</ele>
        <time>2009-01-05T09:36:12Z</time>
      </trkpt>
      <trkpt lat="27.75390700" lon="-15.6381910">
        <ele>78.355000</ele>
        <time>2009-01-05T09:36:13Z</time>
      </trkpt>
      <trkpt lat="27.75397000" lon="-15.6382500">
        <ele>77.935000</ele>
        <time>2009-01-05T09:36:14Z</time>
      </trkpt>
      <trkpt lat="27.75403100" lon="-15.6383170">
        <ele>77.255000</ele>
        <time>2009-01-05T09:36:15Z</time>
      </trkpt>
      <trkpt lat="27.75409100" lon="-15.6383900">
        <ele>76.734000</ele>
        <time>2009-01-05T09:36:16Z</time>
      </trkpt>
      <trkpt lat="27.75415200" lon="-15.6384670">
        <ele>76.657000</ele>
        <time>2009-01-05T09:36:17Z</time>
      </trkpt>
      <trkpt lat="27.75421400" lon="-15.6385460">
        <ele>76.099000</ele>
        <time>2009-01-05T09:36:18Z</time>
      </trkpt>
      <trkpt lat="27.75427700" lon="-15.6386280">
        <ele>75.614000</ele>
        <time>2009-01-05T09:36:19Z</time>
      </trkpt>
      <trkpt lat="27.75434000" lon="-15.6387120">
        <ele>75.000000</ele>
        <time>2009-01-05T09:36:20Z</time>
      </trkpt>
      <trkpt lat="27.75440500" lon="-15.6387990">
        <ele>74.203000</ele>
        <time>2009-01-05T09:36:21Z</time>
      </trkpt>
      <trkpt lat="27.75447100" lon="-15.6388860">
        <ele>73.901000</ele>
        <time>2009-01-05T09:36:22Z</time>
      </trkpt>
      <trkpt lat="27.75454100" lon="-15.6389730">
        <ele>73.424000</ele>
        <time>2009-01-05T09:36:23Z</time>
      </trkpt>
      <trkpt lat="27.75461600" lon="-15.6390570">
        <ele>73.011000</ele>
        <time>2009-01-05T09:36:24Z</time>
      </trkpt>
      <trkpt lat="27.75469800" lon="-15.6391350">
        <ele>72.264000</ele>
        <time>2009-01-05T09:36:25Z</time>
      </trkpt>
      <trkpt lat="27.75478800" lon="-15.6392040">
        <ele>71.798000</ele>
        <time>2009-01-05T09:36:26Z</time>
      </trkpt>
      <trkpt lat="27.75488400" lon="-15.6392660">
        <ele>71.112000</ele>
        <time>2009-01-05T09:36:27Z</time>
      </trkpt>
      <trkpt lat="27.75498400" lon="-15.6393240">
        <ele>70.542000</ele>
        <time>2009-01-05T09:36:28Z</time>
      </trkpt>
      <trkpt lat="27.75508500" lon="-15.6393810">
        <ele>69.911000</ele>
        <time>2009-01-05T09:36:29Z</time>
      </trkpt>
      <trkpt lat="27.75518600" lon="-15.6394380">
        <ele>69.375000</ele>
        <time>2009-01-05T09:36:30Z</time>
      </trkpt>
      <trkpt lat="27.75528900" lon="-15.6394960">
        <ele>68.068000</ele>
        <time>2009-01-05T09:36:31Z</time>
      </trkpt>
      <trkpt lat="27.75539300" lon="-15.6395550">
        <ele>68.037000</ele>
        <time>2009-01-05T09:36:32Z</time>
      </trkpt>
      <trkpt lat="27.75549800" lon="-15.6396130">
        <ele>67.028000</ele>
        <time>2009-01-05T09:36:33Z</time>
      </trkpt>
      <trkpt lat="27.75560500" lon="-15.6396710">
        <ele>66.371000</ele>
        <time>2009-01-05T09:36:34Z</time>
      </trkpt>
      <trkpt lat="27.75571300" lon="-15.6397250">
        <ele>64.624000</ele>
        <time>2009-01-05T09:36:35Z</time>
      </trkpt>
      <trkpt lat="27.75582300" lon="-15.6397750">
        <ele>63.148000</ele>
        <time>2009-01-05T09:36:36Z</time>
      </trkpt>
      <trkpt lat="27.75593800" lon="-15.6398170">
        <ele>62.939000</ele>
        <time>2009-01-05T09:36:37Z</time>
      </trkpt>
      <trkpt lat="27.75605700" lon="-15.6398480">
        <ele>62.639000</ele>
        <time>2009-01-05T09:36:38Z</time>
      </trkpt>
      <trkpt lat="27.75617700" lon="-15.6398710">
        <ele>61.424000</ele>
        <time>2009-01-05T09:36:39Z</time>
      </trkpt>
      <trkpt lat="27.75629900" lon="-15.6398910">
        <ele>60.272000</ele>
        <time>2009-01-05T09:36:40Z</time>
      </trkpt>
      <trkpt lat="27.75641800" lon="-15.6399240">
        <ele>59.063000</ele>
        <time>2009-01-05T09:36:41Z</time>
      </trkpt>
      <trkpt lat="27.75653300" lon="-15.6399930">
        <ele>58.775000</ele>
        <time>2009-01-05T09:36:42Z</time>
      </trkpt>
      <trkpt lat="27.75662800" lon="-15.6400920">
        <ele>57.441000</ele>
        <time>2009-01-05T09:36:43Z</time>
      </trkpt>
      <trkpt lat="27.75668700" lon="-15.6402180">
        <ele>55.954000</ele>
        <time>2009-01-05T09:36:44Z</time>
      </trkpt>
      <trkpt lat="27.75671600" lon="-15.6403610">
        <ele>55.336000</ele>
        <time>2009-01-05T09:36:45Z</time>
      </trkpt>
      <trkpt lat="27.75668800" lon="-15.6405140">
        <ele>53.951000</ele>
        <time>2009-01-05T09:36:46Z</time>
      </trkpt>
      <trkpt lat="27.75661700" lon="-15.6406460">
        <ele>53.563000</ele>
        <time>2009-01-05T09:36:47Z</time>
      </trkpt>
      <trkpt lat="27.75652100" lon="-15.6407650">
        <ele>52.678000</ele>
        <time>2009-01-05T09:36:48Z</time>
      </trkpt>
      <trkpt lat="27.75640800" lon="-15.6408550">
        <ele>52.213000</ele>
        <time>2009-01-05T09:36:49Z</time>
      </trkpt>
      <trkpt lat="27.75629200" lon="-15.6409320">
        <ele>51.753000</ele>
        <time>2009-01-05T09:36:50Z</time>
      </trkpt>
      <trkpt lat="27.75617700" lon="-15.6409880">
        <ele>51.811000</ele>
        <time>2009-01-05T09:36:51Z</time>
      </trkpt>
      <trkpt lat="27.75606400" lon="-15.6410400">
        <ele>51.518000</ele>
        <time>2009-01-05T09:36:52Z</time>
      </trkpt>
      <trkpt lat="27.75595200" lon="-15.6410870">
        <ele>51.000000</ele>
        <time>2009-01-05T09:36:53Z</time>
      </trkpt>
      <trkpt lat="27.75584100" lon="-15.6411310">
        <ele>50.672000</ele>
        <time>2009-01-05T09:36:54Z</time>
      </trkpt>
      <trkpt lat="27.75572800" lon="-15.6411690">
        <ele>49.842000</ele>
        <time>2009-01-05T09:36:55Z</time>
      </trkpt>
      <trkpt lat="27.75561400" lon="-15.6412030">
        <ele>49.617000</ele>
        <time>2009-01-05T09:36:56Z</time>
      </trkpt>
      <trkpt lat="27.75550100" lon="-15.6412350">
        <ele>49.057000</ele>
        <time>2009-01-05T09:36:57Z</time>
      </trkpt>
      <trkpt lat="27.75539000" lon="-15.6412670">
        <ele>48.584000</ele>
        <time>2009-01-05T09:36:58Z</time>
      </trkpt>
      <trkpt lat="27.75527900" lon="-15.6412980">
        <ele>48.331000</ele>
        <time>2009-01-05T09:36:59Z</time>
      </trkpt>
      <trkpt lat="27.75517000" lon="-15.6413290">
        <ele>47.962000</ele>
        <time>2009-01-05T09:37:00Z</time>
      </trkpt>
      <trkpt lat="27.75506100" lon="-15.6413590">
        <ele>47.492000</ele>
        <time>2009-01-05T09:37:01Z</time>
      </trkpt>
      <trkpt lat="27.75495400" lon="-15.6413920">
        <ele>47.194000</ele>
        <time>2009-01-05T09:37:02Z</time>
      </trkpt>
      <trkpt lat="27.75484800" lon="-15.6414300">
        <ele>47.164000</ele>
        <time>2009-01-05T09:37:03Z</time>
      </trkpt>
      <trkpt lat="27.75474700" lon="-15.6414770">
        <ele>46.911000</ele>
        <time>2009-01-05T09:37:04Z</time>
      </trkpt>
      <trkpt lat="27.75465000" lon="-15.6415340">
        <ele>46.497000</ele>
        <time>2009-01-05T09:37:05Z</time>
      </trkpt>
      <trkpt lat="27.75455700" lon="-15.6415970">
        <ele>46.392000</ele>
        <time>2009-01-05T09:37:06Z</time>
      </trkpt>
      <trkpt lat="27.75446400" lon="-15.6416610">
        <ele>45.883000</ele>
        <time>2009-01-05T09:37:07Z</time>
      </trkpt>
      <trkpt lat="27.75437100" lon="-15.6417230">
        <ele>45.808000</ele>
        <time>2009-01-05T09:37:08Z</time>
      </trkpt>
      <trkpt lat="27.75427900" lon="-15.6417850">
        <ele>45.154000</ele>
        <time>2009-01-05T09:37:09Z</time>
      </trkpt>
      <trkpt lat="27.75418600" lon="-15.6418480">
        <ele>44.793000</ele>
        <time>2009-01-05T09:37:10Z</time>
      </trkpt>
      <trkpt lat="27.75409500" lon="-15.6419110">
        <ele>44.467000</ele>
        <time>2009-01-05T09:37:11Z</time>
      </trkpt>
      <trkpt lat="27.75400300" lon="-15.6419740">
        <ele>44.064000</ele>
        <time>2009-01-05T09:37:12Z</time>
      </trkpt>
      <trkpt lat="27.75391100" lon="-15.6420350">
        <ele>43.566000</ele>
        <time>2009-01-05T09:37:13Z</time>
      </trkpt>
      <trkpt lat="27.75381800" lon="-15.6420960">
        <ele>43.163000</ele>
        <time>2009-01-05T09:37:14Z</time>
      </trkpt>
      <trkpt lat="27.75372500" lon="-15.6421560">
        <ele>42.874000</ele>
        <time>2009-01-05T09:37:15Z</time>
      </trkpt>
      <trkpt lat="27.75363300" lon="-15.6422180">
        <ele>42.582000</ele>
        <time>2009-01-05T09:37:16Z</time>
      </trkpt>
      <trkpt lat="27.75354700" lon="-15.6422880">
        <ele>42.504000</ele>
        <time>2009-01-05T09:37:17Z</time>
      </trkpt>
      <trkpt lat="27.75347400" lon="-15.6423750">
        <ele>42.149000</ele>
        <time>2009-01-05T09:37:18Z</time>
      </trkpt>
      <trkpt lat="27.75344500" lon="-15.6424960">
        <ele>41.667000</ele>
        <time>2009-01-05T09:37:19Z</time>
      </trkpt>
      <trkpt lat="27.75345300" lon="-15.6426270">
        <ele>41.370000</ele>
        <time>2009-01-05T09:37:20Z</time>
      </trkpt>
      <trkpt lat="27.75350900" lon="-15.6427270">
        <ele>41.704000</ele>
        <time>2009-01-05T09:37:21Z</time>
      </trkpt>
      <trkpt lat="27.75358200" lon="-15.6428140">
        <ele>40.932000</ele>
        <time>2009-01-05T09:37:22Z</time>
      </trkpt>
      <trkpt lat="27.75366400" lon="-15.6428910">
        <ele>40.661000</ele>
        <time>2009-01-05T09:37:23Z</time>
      </trkpt>
      <trkpt lat="27.75374500" lon="-15.6429680">
        <ele>40.211000</ele>
        <time>2009-01-05T09:37:24Z</time>
      </trkpt>
      <trkpt lat="27.75382200" lon="-15.6430470">
        <ele>40.191000</ele>
        <time>2009-01-05T09:37:25Z</time>
      </trkpt>
      <trkpt lat="27.75389700" lon="-15.6431280">
        <ele>39.793000</ele>
        <time>2009-01-05T09:37:26Z</time>
      </trkpt>
      <trkpt lat="27.75396800" lon="-15.6432100">
        <ele>39.738000</ele>
        <time>2009-01-05T09:37:27Z</time>
      </trkpt>
      <trkpt lat="27.75403100" lon="-15.6432960">
        <ele>39.383000</ele>
        <time>2009-01-05T09:37:28Z</time>
      </trkpt>
      <trkpt lat="27.75407900" lon="-15.6433880">
        <ele>39.405000</ele>
        <time>2009-01-05T09:37:29Z</time>
      </trkpt>
      <trkpt lat="27.75411200" lon="-15.6434860">
        <ele>39.530000</ele>
        <time>2009-01-05T09:37:30Z</time>
      </trkpt>
      <trkpt lat="27.75412800" lon="-15.6435890">
        <ele>39.224000</ele>
        <time>2009-01-05T09:37:31Z</time>
      </trkpt>
      <trkpt lat="27.75412800" lon="-15.6436910">
        <ele>39.450000</ele>
        <time>2009-01-05T09:37:32Z</time>
      </trkpt>
      <trkpt lat="27.75411300" lon="-15.6437920">
        <ele>39.409000</ele>
        <time>2009-01-05T09:37:33Z</time>
      </trkpt>
      <trkpt lat="27.75408600" lon="-15.6438880">
        <ele>39.460000</ele>
        <time>2009-01-05T09:37:34Z</time>
      </trkpt>
      <trkpt lat="27.75404700" lon="-15.6439800">
        <ele>39.578000</ele>
        <time>2009-01-05T09:37:35Z</time>
      </trkpt>
      <trkpt lat="27.75399600" lon="-15.6440630">
        <ele>39.706000</ele>
        <time>2009-01-05T09:37:36Z</time>
      </trkpt>
      <trkpt lat="27.75393600" lon="-15.6441340">
        <ele>39.598000</ele>
        <time>2009-01-05T09:37:37Z</time>
      </trkpt>
      <trkpt lat="27.75386800" lon="-15.6441920">
        <ele>39.724000</ele>
        <time>2009-01-05T09:37:38Z</time>
      </trkpt>
      <trkpt lat="27.75379700" lon="-15.6442360">
        <ele>40.156000</ele>
        <time>2009-01-05T09:37:39Z</time>
      </trkpt>
      <trkpt lat="27.75372500" lon="-15.6442660">
        <ele>40.525000</ele>
        <time>2009-01-05T09:37:40Z</time>
      </trkpt>
      <trkpt lat="27.75365300" lon="-15.6442850">
        <ele>40.791000</ele>
        <time>2009-01-05T09:37:41Z</time>
      </trkpt>
      <trkpt lat="27.75358200" lon="-15.6442940">
        <ele>41.125000</ele>
        <time>2009-01-05T09:37:42Z</time>
      </trkpt>
      <trkpt lat="27.75351100" lon="-15.6442950">
        <ele>41.679000</ele>
        <time>2009-01-05T09:37:43Z</time>
      </trkpt>
      <trkpt lat="27.75344200" lon="-15.6442910">
        <ele>42.017000</ele>
        <time>2009-01-05T09:37:44Z</time>
      </trkpt>
      <trkpt lat="27.75337300" lon="-15.6442860">
        <ele>42.492000</ele>
        <time>2009-01-05T09:37:45Z</time>
      </trkpt>
      <trkpt lat="27.75330700" lon="-15.6442810">
        <ele>42.691000</ele>
        <time>2009-01-05T09:37:46Z</time>
      </trkpt>
      <trkpt lat="27.75324100" lon="-15.6442750">
        <ele>43.042000</ele>
        <time>2009-01-05T09:37:47Z</time>
      </trkpt>
      <trkpt lat="27.75317600" lon="-15.6442700">
        <ele>43.482000</ele>
        <time>2009-01-05T09:37:48Z</time>
      </trkpt>
      <trkpt lat="27.75311300" lon="-15.6442670">
        <ele>43.506000</ele>
        <time>2009-01-05T09:37:49Z</time>
      </trkpt>
      <trkpt lat="27.75305000" lon="-15.6442660">
        <ele>44.361000</ele>
        <time>2009-01-05T09:37:50Z</time>
      </trkpt>
      <trkpt lat="27.75298800" lon="-15.6442690">
        <ele>44.519000</ele>
        <time>2009-01-05T09:37:51Z</time>
      </trkpt>
      <trkpt lat="27.75292700" lon="-15.6442740">
        <ele>44.759000</ele>
        <time>2009-01-05T09:37:52Z</time>
      </trkpt>
      <trkpt lat="27.75286700" lon="-15.6442830">
        <ele>45.279000</ele>
        <time>2009-01-05T09:37:53Z</time>
      </trkpt>
      <trkpt lat="27.75280900" lon="-15.6442950">
        <ele>45.834000</ele>
        <time>2009-01-05T09:37:54Z</time>
      </trkpt>
      <trkpt lat="27.75275200" lon="-15.6443080">
        <ele>46.433000</ele>
        <time>2009-01-05T09:37:55Z</time>
      </trkpt>
      <trkpt lat="27.75269600" lon="-15.6443230">
        <ele>46.541000</ele>
        <time>2009-01-05T09:37:56Z</time>
      </trkpt>
      <trkpt lat="27.75264200" lon="-15.6443400">
        <ele>46.988000</ele>
        <time>2009-01-05T09:37:57Z</time>
      </trkpt>
      <trkpt lat="27.75258800" lon="-15.6443570">
        <ele>47.344000</ele>
        <time>2009-01-05T09:37:58Z</time>
      </trkpt>
      <trkpt lat="27.75253500" lon="-15.6443750">
        <ele>47.651000</ele>
        <time>2009-01-05T09:37:59Z</time>
      </trkpt>
      <trkpt lat="27.75248300" lon="-15.6443930">
        <ele>47.968000</ele>
        <time>2009-01-05T09:38:00Z</time>
      </trkpt>
      <trkpt lat="27.75243200" lon="-15.6444100">
        <ele>48.065000</ele>
        <time>2009-01-05T09:38:01Z</time>
      </trkpt>
      <trkpt lat="27.75238100" lon="-15.6444270">
        <ele>48.607000</ele>
        <time>2009-01-05T09:38:02Z</time>
      </trkpt>
      <trkpt lat="27.75233000" lon="-15.6444440">
        <ele>49.014000</ele>
        <time>2009-01-05T09:38:03Z</time>
      </trkpt>
      <trkpt lat="27.75228000" lon="-15.6444610">
        <ele>49.373000</ele>
        <time>2009-01-05T09:38:04Z</time>
      </trkpt>
      <trkpt lat="27.75223000" lon="-15.6444800">
        <ele>49.894000</ele>
        <time>2009-01-05T09:38:05Z</time>
      </trkpt>
      <trkpt lat="27.75218100" lon="-15.6444980">
        <ele>49.987000</ele>
        <time>2009-01-05T09:38:06Z</time>
      </trkpt>
      <trkpt lat="27.75213200" lon="-15.6445160">
        <ele>50.438000</ele>
        <time>2009-01-05T09:38:07Z</time>
      </trkpt>
      <trkpt lat="27.75208400" lon="-15.6445340">
        <ele>50.808000</ele>
        <time>2009-01-05T09:38:08Z</time>
      </trkpt>
      <trkpt lat="27.75203600" lon="-15.6445510">
        <ele>50.903000</ele>
        <time>2009-01-05T09:38:09Z</time>
      </trkpt>
      <trkpt lat="27.75198800" lon="-15.6445700">
        <ele>51.585000</ele>
        <time>2009-01-05T09:38:10Z</time>
      </trkpt>
      <trkpt lat="27.75194200" lon="-15.6445890">
        <ele>51.662000</ele>
        <time>2009-01-05T09:38:11Z</time>
      </trkpt>
      <trkpt lat="27.75189600" lon="-15.6446120">
        <ele>51.892000</ele>
        <time>2009-01-05T09:38:12Z</time>
      </trkpt>
      <trkpt lat="27.75185300" lon="-15.6446390">
        <ele>52.309000</ele>
        <time>2009-01-05T09:38:13Z</time>
      </trkpt>
      <trkpt lat="27.75181300" lon="-15.6446700">
        <ele>52.682000</ele>
        <time>2009-01-05T09:38:14Z</time>
      </trkpt>
      <trkpt lat="27.75177600" lon="-15.6447070">
        <ele>52.925000</ele>
        <time>2009-01-05T09:38:15Z</time>
      </trkpt>
      <trkpt lat="27.75174500" lon="-15.6447500">
        <ele>53.422000</ele>
        <time>2009-01-05T09:38:16Z</time>
      </trkpt>
      <trkpt lat="27.75172200" lon="-15.6447970">
        <ele>54.032000</ele>
        <time>2009-01-05T09:38:17Z</time>
      </trkpt>
      <trkpt lat="27.75170600" lon="-15.6448470">
        <ele>54.239000</ele>
        <time>2009-01-05T09:38:18Z</time>
      </trkpt>
      <trkpt lat="27.75169600" lon="-15.6448990">
        <ele>54.709000</ele>
        <time>2009-01-05T09:38:19Z</time>
      </trkpt>
      <trkpt lat="27.75169000" lon="-15.6449530">
        <ele>54.812000</ele>
        <time>2009-01-05T09:38:20Z</time>
      </trkpt>
      <trkpt lat="27.75168900" lon="-15.6450070">
        <ele>54.994000</ele>
        <time>2009-01-05T09:38:21Z</time>
      </trkpt>
      <trkpt lat="27.75169000" lon="-15.6450630">
        <ele>55.327000</ele>
        <time>2009-01-05T09:38:22Z</time>
      </trkpt>
      <trkpt lat="27.75169300" lon="-15.6451200">
        <ele>55.224000</ele>
        <time>2009-01-05T09:38:23Z</time>
      </trkpt>
      <trkpt lat="27.75169800" lon="-15.6451790">
        <ele>55.486000</ele>
        <time>2009-01-05T09:38:24Z</time>
      </trkpt>
      <trkpt lat="27.75170700" lon="-15.6452390">
        <ele>55.663000</ele>
        <time>2009-01-05T09:38:25Z</time>
      </trkpt>
      <trkpt lat="27.75171900" lon="-15.6453010">
        <ele>55.418000</ele>
        <time>2009-01-05T09:38:26Z</time>
      </trkpt>
      <trkpt lat="27.75173700" lon="-15.6453650">
        <ele>55.679000</ele>
        <time>2009-01-05T09:38:27Z</time>
      </trkpt>
      <trkpt lat="27.75176400" lon="-15.6454290">
        <ele>55.561000</ele>
        <time>2009-01-05T09:38:28Z</time>
      </trkpt>
      <trkpt lat="27.75180100" lon="-15.6454910">
        <ele>55.529000</ele>
        <time>2009-01-05T09:38:29Z</time>
      </trkpt>
      <trkpt lat="27.75184500" lon="-15.6455500">
        <ele>55.341000</ele>
        <time>2009-01-05T09:38:30Z</time>
      </trkpt>
      <trkpt lat="27.75189500" lon="-15.6456070">
        <ele>55.262000</ele>
        <time>2009-01-05T09:38:31Z</time>
      </trkpt>
      <trkpt lat="27.75194600" lon="-15.6456640">
        <ele>54.971000</ele>
        <time>2009-01-05T09:38:32Z</time>
      </trkpt>
      <trkpt lat="27.75199800" lon="-15.6457230">
        <ele>54.942000</ele>
        <time>2009-01-05T09:38:33Z</time>
      </trkpt>
      <trkpt lat="27.75205400" lon="-15.6457820">
        <ele>54.858000</ele>
        <time>2009-01-05T09:38:34Z</time>
      </trkpt>
      <trkpt lat="27.75211100" lon="-15.6458430">
        <ele>54.815000</ele>
        <time>2009-01-05T09:38:35Z</time>
      </trkpt>
      <trkpt lat="27.75217000" lon="-15.6459030">
        <ele>54.760000</ele>
        <time>2009-01-05T09:38:36Z</time>
      </trkpt>
      <trkpt lat="27.75222900" lon="-15.6459640">
        <ele>54.543000</ele>
        <time>2009-01-05T09:38:37Z</time>
      </trkpt>
      <trkpt lat="27.75228900" lon="-15.6460250">
        <ele>54.365000</ele>
        <time>2009-01-05T09:38:38Z</time>
      </trkpt>
      <trkpt lat="27.75234800" lon="-15.6460880">
        <ele>54.344000</ele>
        <time>2009-01-05T09:38:39Z</time>
      </trkpt>
      <trkpt lat="27.75240500" lon="-15.6461530">
        <ele>54.338000</ele>
        <time>2009-01-05T09:38:40Z</time>
      </trkpt>
      <trkpt lat="27.75245900" lon="-15.6462210">
        <ele>54.343000</ele>
        <time>2009-01-05T09:38:41Z</time>
      </trkpt>
      <trkpt lat="27.75250700" lon="-15.6462930">
        <ele>54.047000</ele>
        <time>2009-01-05T09:38:42Z</time>
      </trkpt>
      <trkpt lat="27.75254500" lon="-15.6463710">
        <ele>54.525000</ele>
        <time>2009-01-05T09:38:43Z</time>
      </trkpt>
      <trkpt lat="27.75256900" lon="-15.6464550">
        <ele>54.255000</ele>
        <time>2009-01-05T09:38:44Z</time>
      </trkpt>
      <trkpt lat="27.75257800" lon="-15.6465440">
        <ele>53.900000</ele>
        <time>2009-01-05T09:38:45Z</time>
      </trkpt>
      <trkpt lat="27.75257400" lon="-15.6466340">
        <ele>53.746000</ele>
        <time>2009-01-05T09:38:46Z</time>
      </trkpt>
      <trkpt lat="27.75256300" lon="-15.6467270">
        <ele>53.939000</ele>
        <time>2009-01-05T09:38:47Z</time>
      </trkpt>
      <trkpt lat="27.75255100" lon="-15.6468200">
        <ele>53.255000</ele>
        <time>2009-01-05T09:38:48Z</time>
      </trkpt>
      <trkpt lat="27.75254000" lon="-15.6469150">
        <ele>52.937000</ele>
        <time>2009-01-05T09:38:49Z</time>
      </trkpt>
      <trkpt lat="27.75252800" lon="-15.6470100">
        <ele>53.225000</ele>
        <time>2009-01-05T09:38:50Z</time>
      </trkpt>
      <trkpt lat="27.75251800" lon="-15.6471070">
        <ele>53.207000</ele>
        <time>2009-01-05T09:38:51Z</time>
      </trkpt>
      <trkpt lat="27.75251000" lon="-15.6472050">
        <ele>53.138000</ele>
        <time>2009-01-05T09:38:52Z</time>
      </trkpt>
      <trkpt lat="27.75250500" lon="-15.6473040">
        <ele>52.631000</ele>
        <time>2009-01-05T09:38:53Z</time>
      </trkpt>
      <trkpt lat="27.75250500" lon="-15.6474040">
        <ele>52.102000</ele>
        <time>2009-01-05T09:38:54Z</time>
      </trkpt>
      <trkpt lat="27.75250900" lon="-15.6475050">
        <ele>52.290000</ele>
        <time>2009-01-05T09:38:55Z</time>
      </trkpt>
      <trkpt lat="27.75252000" lon="-15.6476060">
        <ele>51.931000</ele>
        <time>2009-01-05T09:38:56Z</time>
      </trkpt>
      <trkpt lat="27.75253800" lon="-15.6477070">
        <ele>51.741000</ele>
        <time>2009-01-05T09:38:57Z</time>
      </trkpt>
      <trkpt lat="27.75256100" lon="-15.6478090">
        <ele>51.223000</ele>
        <time>2009-01-05T09:38:58Z</time>
      </trkpt>
      <trkpt lat="27.75258800" lon="-15.6479120">
        <ele>50.013000</ele>
        <time>2009-01-05T09:38:59Z</time>
      </trkpt>
      <trkpt lat="27.75261800" lon="-15.6480170">
        <ele>50.211000</ele>
        <time>2009-01-05T09:39:00Z</time>
      </trkpt>
      <trkpt lat="27.75265100" lon="-15.6481290">
        <ele>49.871000</ele>
        <time>2009-01-05T09:39:01Z</time>
      </trkpt>
      <trkpt lat="27.75269400" lon="-15.6482450">
        <ele>49.364000</ele>
        <time>2009-01-05T09:39:02Z</time>
      </trkpt>
      <trkpt lat="27.75275700" lon="-15.6483580">
        <ele>48.069000</ele>
        <time>2009-01-05T09:39:03Z</time>
      </trkpt>
      <trkpt lat="27.75283800" lon="-15.6484650">
        <ele>47.300000</ele>
        <time>2009-01-05T09:39:04Z</time>
      </trkpt>
      <trkpt lat="27.75293400" lon="-15.6485690">
        <ele>47.021000</ele>
        <time>2009-01-05T09:39:05Z</time>
      </trkpt>
      <trkpt lat="27.75303800" lon="-15.6486700">
        <ele>45.576000</ele>
        <time>2009-01-05T09:39:06Z</time>
      </trkpt>
      <trkpt lat="27.75314700" lon="-15.6487740">
        <ele>44.873000</ele>
        <time>2009-01-05T09:39:07Z</time>
      </trkpt>
      <trkpt lat="27.75325900" lon="-15.6488790">
        <ele>43.774000</ele>
        <time>2009-01-05T09:39:08Z</time>
      </trkpt>
      <trkpt lat="27.75337400" lon="-15.6489860">
        <ele>41.964000</ele>
        <time>2009-01-05T09:39:09Z</time>
      </trkpt>
      <trkpt lat="27.75349000" lon="-15.6490960">
        <ele>41.638000</ele>
        <time>2009-01-05T09:39:10Z</time>
      </trkpt>
      <trkpt lat="27.75360700" lon="-15.6492090">
        <ele>40.718000</ele>
        <time>2009-01-05T09:39:11Z</time>
      </trkpt>
      <trkpt lat="27.75372500" lon="-15.6493230">
        <ele>39.341000</ele>
        <time>2009-01-05T09:39:12Z</time>
      </trkpt>
      <trkpt lat="27.75384100" lon="-15.6494370">
        <ele>37.762000</ele>
        <time>2009-01-05T09:39:13Z</time>
      </trkpt>
      <trkpt lat="27.75396100" lon="-15.6495500">
        <ele>36.792000</ele>
        <time>2009-01-05T09:39:14Z</time>
      </trkpt>
      <trkpt lat="27.75407900" lon="-15.6496640">
        <ele>36.291000</ele>
        <time>2009-01-05T09:39:15Z</time>
      </trkpt>
      <trkpt lat="27.75418900" lon="-15.6497880">
        <ele>35.262000</ele>
        <time>2009-01-05T09:39:16Z</time>
      </trkpt>
      <trkpt lat="27.75428000" lon="-15.6499290">
        <ele>33.950000</ele>
        <time>2009-01-05T09:39:17Z</time>
      </trkpt>
      <trkpt lat="27.75435300" lon="-15.6500810">
        <ele>32.751000</ele>
        <time>2009-01-05T09:39:18Z</time>
      </trkpt>
      <trkpt lat="27.75441300" lon="-15.6502420">
        <ele>31.541000</ele>
        <time>2009-01-05T09:39:19Z</time>
      </trkpt>
      <trkpt lat="27.75446800" lon="-15.6504050">
        <ele>30.382000</ele>
        <time>2009-01-05T09:39:20Z</time>
      </trkpt>
      <trkpt lat="27.75452200" lon="-15.6505680">
        <ele>28.998000</ele>
        <time>2009-01-05T09:39:21Z</time>
      </trkpt>
      <trkpt lat="27.75457500" lon="-15.6507300">
        <ele>28.129000</ele>
        <time>2009-01-05T09:39:22Z</time>
      </trkpt>
      <trkpt lat="27.75462600" lon="-15.6508880">
        <ele>27.841000</ele>
        <time>2009-01-05T09:39:23Z</time>
      </trkpt>
      <trkpt lat="27.75468000" lon="-15.6510400">
        <ele>26.944000</ele>
        <time>2009-01-05T09:39:24Z</time>
      </trkpt>
      <trkpt lat="27.75473200" lon="-15.6511870">
        <ele>27.158000</ele>
        <time>2009-01-05T09:39:25Z</time>
      </trkpt>
      <trkpt lat="27.75478400" lon="-15.6513290">
        <ele>26.913000</ele>
        <time>2009-01-05T09:39:26Z</time>
      </trkpt>
      <trkpt lat="27.75483500" lon="-15.6514660">
        <ele>26.800000</ele>
        <time>2009-01-05T09:39:27Z</time>
      </trkpt>
      <trkpt lat="27.75488400" lon="-15.6515990">
        <ele>26.689000</ele>
        <time>2009-01-05T09:39:28Z</time>
      </trkpt>
      <trkpt lat="27.75493200" lon="-15.6517260">
        <ele>26.596000</ele>
        <time>2009-01-05T09:39:29Z</time>
      </trkpt>
      <trkpt lat="27.75497800" lon="-15.6518500">
        <ele>26.551000</ele>
        <time>2009-01-05T09:39:30Z</time>
      </trkpt>
      <trkpt lat="27.75502400" lon="-15.6519690">
        <ele>26.660000</ele>
        <time>2009-01-05T09:39:31Z</time>
      </trkpt>
      <trkpt lat="27.75506800" lon="-15.6520850">
        <ele>26.435000</ele>
        <time>2009-01-05T09:39:32Z</time>
      </trkpt>
      <trkpt lat="27.75511100" lon="-15.6521980">
        <ele>26.522000</ele>
        <time>2009-01-05T09:39:33Z</time>
      </trkpt>
      <trkpt lat="27.75515100" lon="-15.6523080">
        <ele>26.245000</ele>
        <time>2009-01-05T09:39:34Z</time>
      </trkpt>
      <trkpt lat="27.75518900" lon="-15.6524160">
        <ele>26.356000</ele>
        <time>2009-01-05T09:39:35Z</time>
      </trkpt>
      <trkpt lat="27.75523000" lon="-15.6525190">
        <ele>26.165000</ele>
        <time>2009-01-05T09:39:36Z</time>
      </trkpt>
      <trkpt lat="27.75527200" lon="-15.6526170">
        <ele>25.914000</ele>
        <time>2009-01-05T09:39:37Z</time>
      </trkpt>
      <trkpt lat="27.75531300" lon="-15.6527120">
        <ele>26.353000</ele>
        <time>2009-01-05T09:39:38Z</time>
      </trkpt>
      <trkpt lat="27.75535300" lon="-15.6528040">
        <ele>26.399000</ele>
        <time>2009-01-05T09:39:39Z</time>
      </trkpt>
      <trkpt lat="27.75539300" lon="-15.6528930">
        <ele>26.262000</ele>
        <time>2009-01-05T09:39:40Z</time>
      </trkpt>
      <trkpt lat="27.75543500" lon="-15.6529780">
        <ele>26.590000</ele>
        <time>2009-01-05T09:39:41Z</time>
      </trkpt>
      <trkpt lat="27.75547700" lon="-15.6530640">
        <ele>26.358000</ele>
        <time>2009-01-05T09:39:42Z</time>
      </trkpt>
      <trkpt lat="27.75552100" lon="-15.6531480">
        <ele>26.313000</ele>
        <time>2009-01-05T09:39:43Z</time>
      </trkpt>
      <trkpt lat="27.75556500" lon="-15.6532310">
        <ele>26.129000</ele>
        <time>2009-01-05T09:39:44Z</time>
      </trkpt>
      <trkpt lat="27.75560900" lon="-15.6533150">
        <ele>26.436000</ele>
        <time>2009-01-05T09:39:45Z</time>
      </trkpt>
      <trkpt lat="27.75565200" lon="-15.6533980">
        <ele>26.381000</ele>
        <time>2009-01-05T09:39:46Z</time>
      </trkpt>
      <trkpt lat="27.75569500" lon="-15.6534800">
        <ele>26.495000</ele>
        <time>2009-01-05T09:39:47Z</time>
      </trkpt>
      <trkpt lat="27.75573500" lon="-15.6535610">
        <ele>26.641000</ele>
        <time>2009-01-05T09:39:48Z</time>
      </trkpt>
      <trkpt lat="27.75577700" lon="-15.6536410">
        <ele>26.737000</ele>
        <time>2009-01-05T09:39:49Z</time>
      </trkpt>
      <trkpt lat="27.75581800" lon="-15.6537200">
        <ele>26.441000</ele>
        <time>2009-01-05T09:39:50Z</time>
      </trkpt>
      <trkpt lat="27.75585900" lon="-15.6537980">
        <ele>26.519000</ele>
        <time>2009-01-05T09:39:51Z</time>
      </trkpt>
      <trkpt lat="27.75590100" lon="-15.6538730">
        <ele>26.773000</ele>
        <time>2009-01-05T09:39:52Z</time>
      </trkpt>
      <trkpt lat="27.75594400" lon="-15.6539490">
        <ele>26.761000</ele>
        <time>2009-01-05T09:39:53Z</time>
      </trkpt>
      <trkpt lat="27.75598500" lon="-15.6540240">
        <ele>26.844000</ele>
        <time>2009-01-05T09:39:54Z</time>
      </trkpt>
      <trkpt lat="27.75602600" lon="-15.6541000">
        <ele>26.581000</ele>
        <time>2009-01-05T09:39:55Z</time>
      </trkpt>
      <trkpt lat="27.75606700" lon="-15.6541760">
        <ele>26.846000</ele>
        <time>2009-01-05T09:39:56Z</time>
      </trkpt>
      <trkpt lat="27.75610800" lon="-15.6542510">
        <ele>27.002000</ele>
        <time>2009-01-05T09:39:57Z</time>
      </trkpt>
      <trkpt lat="27.75614800" lon="-15.6543260">
        <ele>26.905000</ele>
        <time>2009-01-05T09:39:58Z</time>
      </trkpt>
      <trkpt lat="27.75618800" lon="-15.6543990">
        <ele>27.197000</ele>
        <time>2009-01-05T09:39:59Z</time>
      </trkpt>
      <trkpt lat="27.75622900" lon="-15.6544710">
        <ele>27.108000</ele>
        <time>2009-01-05T09:40:00Z</time>
      </trkpt>
      <trkpt lat="27.75626800" lon="-15.6545420">
        <ele>27.244000</ele>
        <time>2009-01-05T09:40:01Z</time>
      </trkpt>
      <trkpt lat="27.75630700" lon="-15.6546130">
        <ele>27.477000</ele>
        <time>2009-01-05T09:40:02Z</time>
      </trkpt>
      <trkpt lat="27.75634500" lon="-15.6546830">
        <ele>27.738000</ele>
        <time>2009-01-05T09:40:03Z</time>
      </trkpt>
      <trkpt lat="27.75638300" lon="-15.6547530">
        <ele>27.887000</ele>
        <time>2009-01-05T09:40:04Z</time>
      </trkpt>
      <trkpt lat="27.75642100" lon="-15.6548210">
        <ele>27.999000</ele>
        <time>2009-01-05T09:40:05Z</time>
      </trkpt>
      <trkpt lat="27.75645700" lon="-15.6548890">
        <ele>28.163000</ele>
        <time>2009-01-05T09:40:06Z</time>
      </trkpt>
      <trkpt lat="27.75649300" lon="-15.6549560">
        <ele>28.558000</ele>
        <time>2009-01-05T09:40:07Z</time>
      </trkpt>
      <trkpt lat="27.75652700" lon="-15.6550220">
        <ele>28.707000</ele>
        <time>2009-01-05T09:40:08Z</time>
      </trkpt>
      <trkpt lat="27.75656200" lon="-15.6550850">
        <ele>28.841000</ele>
        <time>2009-01-05T09:40:09Z</time>
      </trkpt>
      <trkpt lat="27.75659600" lon="-15.6551450">
        <ele>28.955000</ele>
        <time>2009-01-05T09:40:10Z</time>
      </trkpt>
      <trkpt lat="27.75662800" lon="-15.6552030">
        <ele>29.044000</ele>
        <time>2009-01-05T09:40:11Z</time>
      </trkpt>
      <trkpt lat="27.75665900" lon="-15.6552610">
        <ele>29.032000</ele>
        <time>2009-01-05T09:40:12Z</time>
      </trkpt>
      <trkpt lat="27.75669100" lon="-15.6553180">
        <ele>29.337000</ele>
        <time>2009-01-05T09:40:13Z</time>
      </trkpt>
      <trkpt lat="27.75672300" lon="-15.6553740">
        <ele>29.508000</ele>
        <time>2009-01-05T09:40:14Z</time>
      </trkpt>
      <trkpt lat="27.75675400" lon="-15.6554300">
        <ele>29.713000</ele>
        <time>2009-01-05T09:40:15Z</time>
      </trkpt>
      <trkpt lat="27.75678500" lon="-15.6554870">
        <ele>30.122000</ele>
        <time>2009-01-05T09:40:16Z</time>
      </trkpt>
      <trkpt lat="27.75681600" lon="-15.6555430">
        <ele>29.857000</ele>
        <time>2009-01-05T09:40:17Z</time>
      </trkpt>
      <trkpt lat="27.75684700" lon="-15.6555980">
        <ele>29.969000</ele>
        <time>2009-01-05T09:40:18Z</time>
      </trkpt>
      <trkpt lat="27.75687600" lon="-15.6556540">
        <ele>30.296000</ele>
        <time>2009-01-05T09:40:19Z</time>
      </trkpt>
      <trkpt lat="27.75690400" lon="-15.6557090">
        <ele>30.620000</ele>
        <time>2009-01-05T09:40:20Z</time>
      </trkpt>
      <trkpt lat="27.75693000" lon="-15.6557660">
        <ele>30.788000</ele>
        <time>2009-01-05T09:40:21Z</time>
      </trkpt>
      <trkpt lat="27.75695200" lon="-15.6558230">
        <ele>31.327000</ele>
        <time>2009-01-05T09:40:22Z</time>
      </trkpt>
      <trkpt lat="27.75697000" lon="-15.6558820">
        <ele>31.587000</ele>
        <time>2009-01-05T09:40:23Z</time>
      </trkpt>
      <trkpt lat="27.75698400" lon="-15.6559420">
        <ele>31.800000</ele>
        <time>2009-01-05T09:40:24Z</time>
      </trkpt>
      <trkpt lat="27.75699300" lon="-15.6560030">
        <ele>31.971000</ele>
        <time>2009-01-05T09:40:25Z</time>
      </trkpt>
      <trkpt lat="27.75699500" lon="-15.6560650">
        <ele>32.113000</ele>
        <time>2009-01-05T09:40:26Z</time>
      </trkpt>
      <trkpt lat="27.75699100" lon="-15.6561270">
        <ele>32.258000</ele>
        <time>2009-01-05T09:40:27Z</time>
      </trkpt>
      <trkpt lat="27.75698000" lon="-15.6561880">
        <ele>32.455000</ele>
        <time>2009-01-05T09:40:28Z</time>
      </trkpt>
      <trkpt lat="27.75696500" lon="-15.6562490">
        <ele>32.502000</ele>
        <time>2009-01-05T09:40:29Z</time>
      </trkpt>
      <trkpt lat="27.75694600" lon="-15.6563080">
        <ele>33.073000</ele>
        <time>2009-01-05T09:40:30Z</time>
      </trkpt>
      <trkpt lat="27.75692200" lon="-15.6563660">
        <ele>33.202000</ele>
        <time>2009-01-05T09:40:31Z</time>
      </trkpt>
      <trkpt lat="27.75689500" lon="-15.6564220">
        <ele>33.284000</ele>
        <time>2009-01-05T09:40:32Z</time>
      </trkpt>
      <trkpt lat="27.75686600" lon="-15.6564780">
        <ele>33.389000</ele>
        <time>2009-01-05T09:40:33Z</time>
      </trkpt>
      <trkpt lat="27.75683600" lon="-15.6565330">
        <ele>33.312000</ele>
        <time>2009-01-05T09:40:34Z</time>
      </trkpt>
      <trkpt lat="27.75680700" lon="-15.6565880">
        <ele>33.732000</ele>
        <time>2009-01-05T09:40:35Z</time>
      </trkpt>
      <trkpt lat="27.75678000" lon="-15.6566450">
        <ele>33.938000</ele>
        <time>2009-01-05T09:40:36Z</time>
      </trkpt>
      <trkpt lat="27.75675800" lon="-15.6567020">
        <ele>34.258000</ele>
        <time>2009-01-05T09:40:37Z</time>
      </trkpt>
      <trkpt lat="27.75674000" lon="-15.6567610">
        <ele>34.591000</ele>
        <time>2009-01-05T09:40:38Z</time>
      </trkpt>
      <trkpt lat="27.75672700" lon="-15.6568220">
        <ele>34.723000</ele>
        <time>2009-01-05T09:40:39Z</time>
      </trkpt>
      <trkpt lat="27.75672000" lon="-15.6568830">
        <ele>35.043000</ele>
        <time>2009-01-05T09:40:40Z</time>
      </trkpt>
      <trkpt lat="27.75672000" lon="-15.6569450">
        <ele>35.156000</ele>
        <time>2009-01-05T09:40:41Z</time>
      </trkpt>
      <trkpt lat="27.75672600" lon="-15.6570050">
        <ele>35.442000</ele>
        <time>2009-01-05T09:40:42Z</time>
      </trkpt>
      <trkpt lat="27.75673800" lon="-15.6570650">
        <ele>35.685000</ele>
        <time>2009-01-05T09:40:43Z</time>
      </trkpt>
      <trkpt lat="27.75675400" lon="-15.6571240">
        <ele>35.669000</ele>
        <time>2009-01-05T09:40:44Z</time>
      </trkpt>
      <trkpt lat="27.75677300" lon="-15.6571800">
        <ele>35.794000</ele>
        <time>2009-01-05T09:40:45Z</time>
      </trkpt>
      <trkpt lat="27.75679500" lon="-15.6572360">
        <ele>35.805000</ele>
        <time>2009-01-05T09:40:46Z</time>
      </trkpt>
      <trkpt lat="27.75681800" lon="-15.6572920">
        <ele>36.064000</ele>
        <time>2009-01-05T09:40:47Z</time>
      </trkpt>
      <trkpt lat="27.75684200" lon="-15.6573470">
        <ele>36.474000</ele>
        <time>2009-01-05T09:40:48Z</time>
      </trkpt>
      <trkpt lat="27.75686500" lon="-15.6574020">
        <ele>36.554000</ele>
        <time>2009-01-05T09:40:49Z</time>
      </trkpt>
      <trkpt lat="27.75688900" lon="-15.6574570">
        <ele>36.554000</ele>
        <time>2009-01-05T09:40:50Z</time>
      </trkpt>
      <trkpt lat="27.75691300" lon="-15.6575110">
        <ele>36.741000</ele>
        <time>2009-01-05T09:40:51Z</time>
      </trkpt>
      <trkpt lat="27.75693700" lon="-15.6575650">
        <ele>37.154000</ele>
        <time>2009-01-05T09:40:52Z</time>
      </trkpt>
      <trkpt lat="27.75696100" lon="-15.6576180">
        <ele>37.577000</ele>
        <time>2009-01-05T09:40:53Z</time>
      </trkpt>
      <trkpt lat="27.75698600" lon="-15.6576720">
        <ele>37.720000</ele>
        <time>2009-01-05T09:40:54Z</time>
      </trkpt>
      <trkpt lat="27.75700900" lon="-15.6577250">
        <ele>37.979000</ele>
        <time>2009-01-05T09:40:55Z</time>
      </trkpt>
      <trkpt lat="27.75703200" lon="-15.6577790">
        <ele>38.113000</ele>
        <time>2009-01-05T09:40:56Z</time>
      </trkpt>
      <trkpt lat="27.75705500" lon="-15.6578340">
        <ele>38.560000</ele>
        <time>2009-01-05T09:40:57Z</time>
      </trkpt>
      <trkpt lat="27.75707800" lon="-15.6578880">
        <ele>38.644000</ele>
        <time>2009-01-05T09:40:58Z</time>
      </trkpt>
      <trkpt lat="27.75710300" lon="-15.6579410">
        <ele>38.716000</ele>
        <time>2009-01-05T09:40:59Z</time>
      </trkpt>
      <trkpt lat="27.75712700" lon="-15.6579950">
        <ele>38.731000</ele>
        <time>2009-01-05T09:41:00Z</time>
      </trkpt>
      <trkpt lat="27.75715100" lon="-15.6580480">
        <ele>39.217000</ele>
        <time>2009-01-05T09:41:01Z</time>
      </trkpt>
      <trkpt lat="27.75717500" lon="-15.6581020">
        <ele>39.547000</ele>
        <time>2009-01-05T09:41:02Z</time>
      </trkpt>
      <trkpt lat="27.75719900" lon="-15.6581550">
        <ele>39.880000</ele>
        <time>2009-01-05T09:41:03Z</time>
      </trkpt>
      <trkpt lat="27.75722300" lon="-15.6582080">
        <ele>40.136000</ele>
        <time>2009-01-05T09:41:04Z</time>
      </trkpt>
      <trkpt lat="27.75724700" lon="-15.6582620">
        <ele>40.006000</ele>
        <time>2009-01-05T09:41:05Z</time>
      </trkpt>
      <trkpt lat="27.75727200" lon="-15.6583150">
        <ele>40.542000</ele>
        <time>2009-01-05T09:41:06Z</time>
      </trkpt>
      <trkpt lat="27.75729700" lon="-15.6583710">
        <ele>40.185000</ele>
        <time>2009-01-05T09:41:07Z</time>
      </trkpt>
      <trkpt lat="27.75732300" lon="-15.6584290">
        <ele>39.820000</ele>
        <time>2009-01-05T09:41:08Z</time>
      </trkpt>
      <trkpt lat="27.75735000" lon="-15.6584900">
        <ele>39.867000</ele>
        <time>2009-01-05T09:41:09Z</time>
      </trkpt>
      <trkpt lat="27.75737900" lon="-15.6585540">
        <ele>40.102000</ele>
        <time>2009-01-05T09:41:10Z</time>
      </trkpt>
      <trkpt lat="27.75740900" lon="-15.6586190">
        <ele>39.895000</ele>
        <time>2009-01-05T09:41:11Z</time>
      </trkpt>
      <trkpt lat="27.75743800" lon="-15.6586880">
        <ele>39.358000</ele>
        <time>2009-01-05T09:41:12Z</time>
      </trkpt>
      <trkpt lat="27.75746800" lon="-15.6587590">
        <ele>39.167000</ele>
        <time>2009-01-05T09:41:13Z</time>
      </trkpt>
      <trkpt lat="27.75750000" lon="-15.6588300">
        <ele>38.970000</ele>
        <time>2009-01-05T09:41:14Z</time>
      </trkpt>
      <trkpt lat="27.75753300" lon="-15.6589030">
        <ele>38.914000</ele>
        <time>2009-01-05T09:41:15Z</time>
      </trkpt>
      <trkpt lat="27.75756700" lon="-15.6589770">
        <ele>38.625000</ele>
        <time>2009-01-05T09:41:16Z</time>
      </trkpt>
      <trkpt lat="27.75760100" lon="-15.6590530">
        <ele>38.576000</ele>
        <time>2009-01-05T09:41:17Z</time>
      </trkpt>
      <trkpt lat="27.75763500" lon="-15.6591290">
        <ele>38.055000</ele>
        <time>2009-01-05T09:41:18Z</time>
      </trkpt>
      <trkpt lat="27.75766900" lon="-15.6592070">
        <ele>38.209000</ele>
        <time>2009-01-05T09:41:19Z</time>
      </trkpt>
      <trkpt lat="27.75770300" lon="-15.6592850">
        <ele>38.184000</ele>
        <time>2009-01-05T09:41:20Z</time>
      </trkpt>
      <trkpt lat="27.75773700" lon="-15.6593640">
        <ele>37.818000</ele>
        <time>2009-01-05T09:41:21Z</time>
      </trkpt>
      <trkpt lat="27.75777200" lon="-15.6594430">
        <ele>37.727000</ele>
        <time>2009-01-05T09:41:22Z</time>
      </trkpt>
      <trkpt lat="27.75780800" lon="-15.6595230">
        <ele>37.384000</ele>
        <time>2009-01-05T09:41:23Z</time>
      </trkpt>
      <trkpt lat="27.75784400" lon="-15.6596040">
        <ele>37.565000</ele>
        <time>2009-01-05T09:41:24Z</time>
      </trkpt>
      <trkpt lat="27.75788100" lon="-15.6596850">
        <ele>37.780000</ele>
        <time>2009-01-05T09:41:25Z</time>
      </trkpt>
      <trkpt lat="27.75791700" lon="-15.6597660">
        <ele>36.610000</ele>
        <time>2009-01-05T09:41:26Z</time>
      </trkpt>
      <trkpt lat="27.75795400" lon="-15.6598480">
        <ele>36.650000</ele>
        <time>2009-01-05T09:41:27Z</time>
      </trkpt>
      <trkpt lat="27.75799100" lon="-15.6599300">
        <ele>36.442000</ele>
        <time>2009-01-05T09:41:28Z</time>
      </trkpt>
      <trkpt lat="27.75803000" lon="-15.6600120">
        <ele>36.290000</ele>
        <time>2009-01-05T09:41:29Z</time>
      </trkpt>
      <trkpt lat="27.75806700" lon="-15.6600940">
        <ele>35.881000</ele>
        <time>2009-01-05T09:41:30Z</time>
      </trkpt>
      <trkpt lat="27.75810400" lon="-15.6601770">
        <ele>36.196000</ele>
        <time>2009-01-05T09:41:31Z</time>
      </trkpt>
      <trkpt lat="27.75814000" lon="-15.6602590">
        <ele>35.723000</ele>
        <time>2009-01-05T09:41:32Z</time>
      </trkpt>
      <trkpt lat="27.75817700" lon="-15.6603410">
        <ele>36.030000</ele>
        <time>2009-01-05T09:41:33Z</time>
      </trkpt>
      <trkpt lat="27.75821300" lon="-15.6604230">
        <ele>36.010000</ele>
        <time>2009-01-05T09:41:34Z</time>
      </trkpt>
      <trkpt lat="27.75824300" lon="-15.6605080">
        <ele>35.606000</ele>
        <time>2009-01-05T09:41:35Z</time>
      </trkpt>
      <trkpt lat="27.75826500" lon="-15.6605960">
        <ele>35.672000</ele>
        <time>2009-01-05T09:41:36Z</time>
      </trkpt>
      <trkpt lat="27.75827500" lon="-15.6606850">
        <ele>35.929000</ele>
        <time>2009-01-05T09:41:37Z</time>
      </trkpt>
      <trkpt lat="27.75827400" lon="-15.6607750">
        <ele>35.554000</ele>
        <time>2009-01-05T09:41:38Z</time>
      </trkpt>
      <trkpt lat="27.75826300" lon="-15.6608640">
        <ele>35.601000</ele>
        <time>2009-01-05T09:41:39Z</time>
      </trkpt>
      <trkpt lat="27.75824200" lon="-15.6609490">
        <ele>35.444000</ele>
        <time>2009-01-05T09:41:40Z</time>
      </trkpt>
      <trkpt lat="27.75821100" lon="-15.6610270">
        <ele>35.743000</ele>
        <time>2009-01-05T09:41:41Z</time>
      </trkpt>
      <trkpt lat="27.75817100" lon="-15.6610970">
        <ele>36.325000</ele>
        <time>2009-01-05T09:41:42Z</time>
      </trkpt>
      <trkpt lat="27.75812500" lon="-15.6611570">
        <ele>36.414000</ele>
        <time>2009-01-05T09:41:43Z</time>
      </trkpt>
      <trkpt lat="27.75807500" lon="-15.6612100">
        <ele>36.885000</ele>
        <time>2009-01-05T09:41:44Z</time>
      </trkpt>
      <trkpt lat="27.75802400" lon="-15.6612560">
        <ele>37.003000</ele>
        <time>2009-01-05T09:41:45Z</time>
      </trkpt>
      <trkpt lat="27.75797000" lon="-15.6612990">
        <ele>37.218000</ele>
        <time>2009-01-05T09:41:46Z</time>
      </trkpt>
      <trkpt lat="27.75791800" lon="-15.6613410">
        <ele>37.622000</ele>
        <time>2009-01-05T09:41:47Z</time>
      </trkpt>
      <trkpt lat="27.75786800" lon="-15.6613840">
        <ele>37.748000</ele>
        <time>2009-01-05T09:41:48Z</time>
      </trkpt>
      <trkpt lat="27.75781900" lon="-15.6614270">
        <ele>38.268000</ele>
        <time>2009-01-05T09:41:49Z</time>
      </trkpt>
      <trkpt lat="27.75777200" lon="-15.6614700">
        <ele>38.796000</ele>
        <time>2009-01-05T09:41:50Z</time>
      </trkpt>
      <trkpt lat="27.75772500" lon="-15.6615110">
        <ele>39.023000</ele>
        <time>2009-01-05T09:41:51Z</time>
      </trkpt>
      <trkpt lat="27.75767900" lon="-15.6615500">
        <ele>39.623000</ele>
        <time>2009-01-05T09:41:52Z</time>
      </trkpt>
      <trkpt lat="27.75763300" lon="-15.6615860">
        <ele>39.602000</ele>
        <time>2009-01-05T09:41:53Z</time>
      </trkpt>
      <trkpt lat="27.75758700" lon="-15.6616220">
        <ele>40.017000</ele>
        <time>2009-01-05T09:41:54Z</time>
      </trkpt>
      <trkpt lat="27.75754200" lon="-15.6616590">
        <ele>40.528000</ele>
        <time>2009-01-05T09:41:55Z</time>
      </trkpt>
      <trkpt lat="27.75749700" lon="-15.6616980">
        <ele>41.023000</ele>
        <time>2009-01-05T09:41:56Z</time>
      </trkpt>
      <trkpt lat="27.75745200" lon="-15.6617350">
        <ele>41.227000</ele>
        <time>2009-01-05T09:41:57Z</time>
      </trkpt>
      <trkpt lat="27.75740800" lon="-15.6617710">
        <ele>41.819000</ele>
        <time>2009-01-05T09:41:58Z</time>
      </trkpt>
      <trkpt lat="27.75736400" lon="-15.6618090">
        <ele>41.931000</ele>
        <time>2009-01-05T09:41:59Z</time>
      </trkpt>
      <trkpt lat="27.75732100" lon="-15.6618460">
        <ele>42.326000</ele>
        <time>2009-01-05T09:42:00Z</time>
      </trkpt>
      <trkpt lat="27.75727800" lon="-15.6618820">
        <ele>42.887000</ele>
        <time>2009-01-05T09:42:01Z</time>
      </trkpt>
      <trkpt lat="27.75723600" lon="-15.6619180">
        <ele>43.377000</ele>
        <time>2009-01-05T09:42:02Z</time>
      </trkpt>
      <trkpt lat="27.75719300" lon="-15.6619530">
        <ele>43.534000</ele>
        <time>2009-01-05T09:42:03Z</time>
      </trkpt>
      <trkpt lat="27.75715100" lon="-15.6619870">
        <ele>43.911000</ele>
        <time>2009-01-05T09:42:04Z</time>
      </trkpt>
      <trkpt lat="27.75710900" lon="-15.6620230">
        <ele>44.173000</ele>
        <time>2009-01-05T09:42:05Z</time>
      </trkpt>
      <trkpt lat="27.75706800" lon="-15.6620580">
        <ele>44.722000</ele>
        <time>2009-01-05T09:42:06Z</time>
      </trkpt>
      <trkpt lat="27.75702800" lon="-15.6620930">
        <ele>44.935000</ele>
        <time>2009-01-05T09:42:07Z</time>
      </trkpt>
      <trkpt lat="27.75698700" lon="-15.6621280">
        <ele>44.957000</ele>
        <time>2009-01-05T09:42:08Z</time>
      </trkpt>
      <trkpt lat="27.75694700" lon="-15.6621630">
        <ele>45.630000</ele>
        <time>2009-01-05T09:42:09Z</time>
      </trkpt>
      <trkpt lat="27.75690800" lon="-15.6621980">
        <ele>45.986000</ele>
        <time>2009-01-05T09:42:10Z</time>
      </trkpt>
      <trkpt lat="27.75686800" lon="-15.6622310">
        <ele>46.291000</ele>
        <time>2009-01-05T09:42:11Z</time>
      </trkpt>
      <trkpt lat="27.75683000" lon="-15.6622650">
        <ele>46.719000</ele>
        <time>2009-01-05T09:42:12Z</time>
      </trkpt>
      <trkpt lat="27.75679100" lon="-15.6622980">
        <ele>46.898000</ele>
        <time>2009-01-05T09:42:13Z</time>
      </trkpt>
      <trkpt lat="27.75675100" lon="-15.6623290">
        <ele>47.372000</ele>
        <time>2009-01-05T09:42:14Z</time>
      </trkpt>
      <trkpt lat="27.75671100" lon="-15.6623610">
        <ele>47.794000</ele>
        <time>2009-01-05T09:42:15Z</time>
      </trkpt>
      <trkpt lat="27.75667200" lon="-15.6623940">
        <ele>48.251000</ele>
        <time>2009-01-05T09:42:16Z</time>
      </trkpt>
      <trkpt lat="27.75663400" lon="-15.6624280">
        <ele>48.480000</ele>
        <time>2009-01-05T09:42:17Z</time>
      </trkpt>
      <trkpt lat="27.75659800" lon="-15.6624620">
        <ele>48.688000</ele>
        <time>2009-01-05T09:42:18Z</time>
      </trkpt>
      <trkpt lat="27.75656300" lon="-15.6624960">
        <ele>49.089000</ele>
        <time>2009-01-05T09:42:19Z</time>
      </trkpt>
      <trkpt lat="27.75653000" lon="-15.6625320">
        <ele>49.892000</ele>
        <time>2009-01-05T09:42:20Z</time>
      </trkpt>
      <trkpt lat="27.75649800" lon="-15.6625690">
        <ele>50.183000</ele>
        <time>2009-01-05T09:42:21Z</time>
      </trkpt>
      <trkpt lat="27.75646800" lon="-15.6626100">
        <ele>50.766000</ele>
        <time>2009-01-05T09:42:22Z</time>
      </trkpt>
      <trkpt lat="27.75644000" lon="-15.6626510">
        <ele>51.072000</ele>
        <time>2009-01-05T09:42:23Z</time>
      </trkpt>
      <trkpt lat="27.75641500" lon="-15.6626940">
        <ele>51.690000</ele>
        <time>2009-01-05T09:42:24Z</time>
      </trkpt>
      <trkpt lat="27.75639100" lon="-15.6627390">
        <ele>51.912000</ele>
        <time>2009-01-05T09:42:25Z</time>
      </trkpt>
      <trkpt lat="27.75637100" lon="-15.6627850">
        <ele>52.318000</ele>
        <time>2009-01-05T09:42:26Z</time>
      </trkpt>
      <trkpt lat="27.75635300" lon="-15.6628320">
        <ele>52.796000</ele>
        <time>2009-01-05T09:42:27Z</time>
      </trkpt>
      <trkpt lat="27.75633700" lon="-15.6628810">
        <ele>53.090000</ele>
        <time>2009-01-05T09:42:28Z</time>
      </trkpt>
      <trkpt lat="27.75632300" lon="-15.6629310">
        <ele>53.512000</ele>
        <time>2009-01-05T09:42:29Z</time>
      </trkpt>
      <trkpt lat="27.75631200" lon="-15.6629820">
        <ele>54.006000</ele>
        <time>2009-01-05T09:42:30Z</time>
      </trkpt>
      <trkpt lat="27.75630100" lon="-15.6630340">
        <ele>54.395000</ele>
        <time>2009-01-05T09:42:31Z</time>
      </trkpt>
      <trkpt lat="27.75628900" lon="-15.6630850">
        <ele>54.545000</ele>
        <time>2009-01-05T09:42:32Z</time>
      </trkpt>
      <trkpt lat="27.75627200" lon="-15.6631340">
        <ele>54.677000</ele>
        <time>2009-01-05T09:42:33Z</time>
      </trkpt>
      <trkpt lat="27.75625100" lon="-15.6631830">
        <ele>55.015000</ele>
        <time>2009-01-05T09:42:34Z</time>
      </trkpt>
      <trkpt lat="27.75622900" lon="-15.6632310">
        <ele>55.350000</ele>
        <time>2009-01-05T09:42:35Z</time>
      </trkpt>
      <trkpt lat="27.75620700" lon="-15.6632800">
        <ele>55.535000</ele>
        <time>2009-01-05T09:42:36Z</time>
      </trkpt>
      <trkpt lat="27.75618300" lon="-15.6633290">
        <ele>55.680000</ele>
        <time>2009-01-05T09:42:37Z</time>
      </trkpt>
      <trkpt lat="27.75615600" lon="-15.6633760">
        <ele>55.675000</ele>
        <time>2009-01-05T09:42:38Z</time>
      </trkpt>
      <trkpt lat="27.75612800" lon="-15.6634240">
        <ele>56.048000</ele>
        <time>2009-01-05T09:42:39Z</time>
      </trkpt>
      <trkpt lat="27.75610300" lon="-15.6634730">
        <ele>56.338000</ele>
        <time>2009-01-05T09:42:40Z</time>
      </trkpt>
      <trkpt lat="27.75608000" lon="-15.6635250">
        <ele>56.759000</ele>
        <time>2009-01-05T09:42:41Z</time>
      </trkpt>
      <trkpt lat="27.75606300" lon="-15.6635820">
        <ele>56.674000</ele>
        <time>2009-01-05T09:42:42Z</time>
      </trkpt>
      <trkpt lat="27.75605100" lon="-15.6636420">
        <ele>56.450000</ele>
        <time>2009-01-05T09:42:43Z</time>
      </trkpt>
      <trkpt lat="27.75604900" lon="-15.6637050">
        <ele>57.007000</ele>
        <time>2009-01-05T09:42:44Z</time>
      </trkpt>
      <trkpt lat="27.75605800" lon="-15.6637680">
        <ele>56.965000</ele>
        <time>2009-01-05T09:42:45Z</time>
      </trkpt>
      <trkpt lat="27.75607600" lon="-15.6638300">
        <ele>56.463000</ele>
        <time>2009-01-05T09:42:46Z</time>
      </trkpt>
      <trkpt lat="27.75610400" lon="-15.6638890">
        <ele>56.486000</ele>
        <time>2009-01-05T09:42:47Z</time>
      </trkpt>
      <trkpt lat="27.75613900" lon="-15.6639460">
        <ele>56.623000</ele>
        <time>2009-01-05T09:42:48Z</time>
      </trkpt>
      <trkpt lat="27.75617900" lon="-15.6640010">
        <ele>56.742000</ele>
        <time>2009-01-05T09:42:49Z</time>
      </trkpt>
      <trkpt lat="27.75622600" lon="-15.6640530">
        <ele>56.247000</ele>
        <time>2009-01-05T09:42:50Z</time>
      </trkpt>
      <trkpt lat="27.75627800" lon="-15.6641040">
        <ele>55.873000</ele>
        <time>2009-01-05T09:42:51Z</time>
      </trkpt>
      <trkpt lat="27.75633500" lon="-15.6641550">
        <ele>55.502000</ele>
        <time>2009-01-05T09:42:52Z</time>
      </trkpt>
      <trkpt lat="27.75639400" lon="-15.6642090">
        <ele>55.149000</ele>
        <time>2009-01-05T09:42:53Z</time>
      </trkpt>
      <trkpt lat="27.75645800" lon="-15.6642670">
        <ele>54.862000</ele>
        <time>2009-01-05T09:42:54Z</time>
      </trkpt>
      <trkpt lat="27.75652400" lon="-15.6643270">
        <ele>54.121000</ele>
        <time>2009-01-05T09:42:55Z</time>
      </trkpt>
      <trkpt lat="27.75659400" lon="-15.6643890">
        <ele>53.067000</ele>
        <time>2009-01-05T09:42:56Z</time>
      </trkpt>
      <trkpt lat="27.75666400" lon="-15.6644550">
        <ele>53.165000</ele>
        <time>2009-01-05T09:42:57Z</time>
      </trkpt>
      <trkpt lat="27.75673000" lon="-15.6645280">
        <ele>52.336000</ele>
        <time>2009-01-05T09:42:58Z</time>
      </trkpt>
      <trkpt lat="27.75678600" lon="-15.6646090">
        <ele>52.088000</ele>
        <time>2009-01-05T09:42:59Z</time>
      </trkpt>
      <trkpt lat="27.75683000" lon="-15.6646960">
        <ele>51.681000</ele>
        <time>2009-01-05T09:43:00Z</time>
      </trkpt>
      <trkpt lat="27.75685900" lon="-15.6647860">
        <ele>51.868000</ele>
        <time>2009-01-05T09:43:01Z</time>
      </trkpt>
      <trkpt lat="27.75686900" lon="-15.6648780">
        <ele>51.615000</ele>
        <time>2009-01-05T09:43:02Z</time>
      </trkpt>
      <trkpt lat="27.75686500" lon="-15.6649670">
        <ele>51.364000</ele>
        <time>2009-01-05T09:43:03Z</time>
      </trkpt>
      <trkpt lat="27.75685200" lon="-15.6650520">
        <ele>51.712000</ele>
        <time>2009-01-05T09:43:04Z</time>
      </trkpt>
      <trkpt lat="27.75683300" lon="-15.6651350">
        <ele>51.665000</ele>
        <time>2009-01-05T09:43:05Z</time>
      </trkpt>
      <trkpt lat="27.75680900" lon="-15.6652170">
        <ele>51.845000</ele>
        <time>2009-01-05T09:43:06Z</time>
      </trkpt>
      <trkpt lat="27.75678200" lon="-15.6652970">
        <ele>52.646000</ele>
        <time>2009-01-05T09:43:07Z</time>
      </trkpt>
      <trkpt lat="27.75675500" lon="-15.6653770">
        <ele>52.450000</ele>
        <time>2009-01-05T09:43:08Z</time>
      </trkpt>
      <trkpt lat="27.75672600" lon="-15.6654550">
        <ele>52.244000</ele>
        <time>2009-01-05T09:43:09Z</time>
      </trkpt>
      <trkpt lat="27.75669800" lon="-15.6655330">
        <ele>52.644000</ele>
        <time>2009-01-05T09:43:10Z</time>
      </trkpt>
      <trkpt lat="27.75667200" lon="-15.6656100">
        <ele>53.406000</ele>
        <time>2009-01-05T09:43:11Z</time>
      </trkpt>
      <trkpt lat="27.75664500" lon="-15.6656860">
        <ele>53.562000</ele>
        <time>2009-01-05T09:43:12Z</time>
      </trkpt>
      <trkpt lat="27.75661800" lon="-15.6657610">
        <ele>54.060000</ele>
        <time>2009-01-05T09:43:13Z</time>
      </trkpt>
      <trkpt lat="27.75659200" lon="-15.6658350">
        <ele>54.201000</ele>
        <time>2009-01-05T09:43:14Z</time>
      </trkpt>
      <trkpt lat="27.75656300" lon="-15.6659060">
        <ele>54.178000</ele>
        <time>2009-01-05T09:43:15Z</time>
      </trkpt>
      <trkpt lat="27.75653000" lon="-15.6659730">
        <ele>55.260000</ele>
        <time>2009-01-05T09:43:16Z</time>
      </trkpt>
      <trkpt lat="27.75649300" lon="-15.6660370">
        <ele>55.494000</ele>
        <time>2009-01-05T09:43:17Z</time>
      </trkpt>
      <trkpt lat="27.75645000" lon="-15.6660980">
        <ele>55.609000</ele>
        <time>2009-01-05T09:43:18Z</time>
      </trkpt>
      <trkpt lat="27.75640300" lon="-15.6661530">
        <ele>56.115000</ele>
        <time>2009-01-05T09:43:19Z</time>
      </trkpt>
      <trkpt lat="27.75634800" lon="-15.6662000">
        <ele>56.428000</ele>
        <time>2009-01-05T09:43:20Z</time>
      </trkpt>
      <trkpt lat="27.75629000" lon="-15.6662390">
        <ele>56.580000</ele>
        <time>2009-01-05T09:43:21Z</time>
      </trkpt>
      <trkpt lat="27.75623000" lon="-15.6662720">
        <ele>57.079000</ele>
        <time>2009-01-05T09:43:22Z</time>
      </trkpt>
      <trkpt lat="27.75616800" lon="-15.6662990">
        <ele>57.252000</ele>
        <time>2009-01-05T09:43:23Z</time>
      </trkpt>
      <trkpt lat="27.75610500" lon="-15.6663240">
        <ele>57.624000</ele>
        <time>2009-01-05T09:43:24Z</time>
      </trkpt>
      <trkpt lat="27.75604300" lon="-15.6663510">
        <ele>58.057000</ele>
        <time>2009-01-05T09:43:25Z</time>
      </trkpt>
      <trkpt lat="27.75598300" lon="-15.6663820">
        <ele>58.263000</ele>
        <time>2009-01-05T09:43:26Z</time>
      </trkpt>
      <trkpt lat="27.75592600" lon="-15.6664220">
        <ele>58.197000</ele>
        <time>2009-01-05T09:43:27Z</time>
      </trkpt>
      <trkpt lat="27.75587500" lon="-15.6664710">
        <ele>58.598000</ele>
        <time>2009-01-05T09:43:28Z</time>
      </trkpt>
      <trkpt lat="27.75583100" lon="-15.6665290">
        <ele>58.606000</ele>
        <time>2009-01-05T09:43:29Z</time>
      </trkpt>
      <trkpt lat="27.75581000" lon="-15.6670080">
        <ele>59.100000</ele>
        <time>2009-01-05T09:43:35Z</time>
      </trkpt>
      <trkpt lat="27.75581500" lon="-15.6670930">
        <ele>59.100000</ele>
        <time>2009-01-05T09:43:36Z</time>
      </trkpt>
      <trkpt lat="27.75581500" lon="-15.6671790">
        <ele>59.251000</ele>
        <time>2009-01-05T09:43:37Z</time>
      </trkpt>
      <trkpt lat="27.75581200" lon="-15.6672670">
        <ele>59.605000</ele>
        <time>2009-01-05T09:43:38Z</time>
      </trkpt>
      <trkpt lat="27.75580800" lon="-15.6673550">
        <ele>59.832000</ele>
        <time>2009-01-05T09:43:39Z</time>
      </trkpt>
      <trkpt lat="27.75580600" lon="-15.6674440">
        <ele>59.674000</ele>
        <time>2009-01-05T09:43:40Z</time>
      </trkpt>
      <trkpt lat="27.75580500" lon="-15.6675320">
        <ele>59.900000</ele>
        <time>2009-01-05T09:43:41Z</time>
      </trkpt>
      <trkpt lat="27.75580600" lon="-15.6676190">
        <ele>59.853000</ele>
        <time>2009-01-05T09:43:42Z</time>
      </trkpt>
      <trkpt lat="27.75580500" lon="-15.6677040">
        <ele>59.953000</ele>
        <time>2009-01-05T09:43:43Z</time>
      </trkpt>
      <trkpt lat="27.75579700" lon="-15.6677890">
        <ele>60.084000</ele>
        <time>2009-01-05T09:43:44Z</time>
      </trkpt>
      <trkpt lat="27.75578200" lon="-15.6678710">
        <ele>60.245000</ele>
        <time>2009-01-05T09:43:45Z</time>
      </trkpt>
      <trkpt lat="27.75575900" lon="-15.6679510">
        <ele>60.554000</ele>
        <time>2009-01-05T09:43:46Z</time>
      </trkpt>
      <trkpt lat="27.75573100" lon="-15.6680300">
        <ele>60.472000</ele>
        <time>2009-01-05T09:43:47Z</time>
      </trkpt>
      <trkpt lat="27.75570200" lon="-15.6681070">
        <ele>60.393000</ele>
        <time>2009-01-05T09:43:48Z</time>
      </trkpt>
      <trkpt lat="27.75567000" lon="-15.6681810">
        <ele>60.509000</ele>
        <time>2009-01-05T09:43:49Z</time>
      </trkpt>
      <trkpt lat="27.75563600" lon="-15.6682560">
        <ele>60.567000</ele>
        <time>2009-01-05T09:43:50Z</time>
      </trkpt>
      <trkpt lat="27.75559800" lon="-15.6683280">
        <ele>60.512000</ele>
        <time>2009-01-05T09:43:51Z</time>
      </trkpt>
      <trkpt lat="27.75555500" lon="-15.6683980">
        <ele>60.587000</ele>
        <time>2009-01-05T09:43:52Z</time>
      </trkpt>
      <trkpt lat="27.75550200" lon="-15.6684650">
        <ele>60.141000</ele>
        <time>2009-01-05T09:43:53Z</time>
      </trkpt>
      <trkpt lat="27.75544300" lon="-15.6685310">
        <ele>59.542000</ele>
        <time>2009-01-05T09:43:54Z</time>
      </trkpt>
      <trkpt lat="27.75538000" lon="-15.6686010">
        <ele>59.324000</ele>
        <time>2009-01-05T09:43:55Z</time>
      </trkpt>
      <trkpt lat="27.75531300" lon="-15.6686700">
        <ele>59.074000</ele>
        <time>2009-01-05T09:43:56Z</time>
      </trkpt>
      <trkpt lat="27.75524800" lon="-15.6687500">
        <ele>58.676000</ele>
        <time>2009-01-05T09:43:57Z</time>
      </trkpt>
      <trkpt lat="27.75518100" lon="-15.6688290">
        <ele>58.363000</ele>
        <time>2009-01-05T09:43:58Z</time>
      </trkpt>
      <trkpt lat="27.75511900" lon="-15.6689170">
        <ele>58.180000</ele>
        <time>2009-01-05T09:43:59Z</time>
      </trkpt>
      <trkpt lat="27.75506500" lon="-15.6690130">
        <ele>57.710000</ele>
        <time>2009-01-05T09:44:00Z</time>
      </trkpt>
      <trkpt lat="27.75502300" lon="-15.6691200">
        <ele>57.671000</ele>
        <time>2009-01-05T09:44:01Z</time>
      </trkpt>
      <trkpt lat="27.75499100" lon="-15.6692330">
        <ele>56.710000</ele>
        <time>2009-01-05T09:44:02Z</time>
      </trkpt>
      <trkpt lat="27.75496300" lon="-15.6693480">
        <ele>56.387000</ele>
        <time>2009-01-05T09:44:03Z</time>
      </trkpt>
      <trkpt lat="27.75493400" lon="-15.6694640">
        <ele>55.322000</ele>
        <time>2009-01-05T09:44:04Z</time>
      </trkpt>
      <trkpt lat="27.75490900" lon="-15.6695820">
        <ele>54.774000</ele>
        <time>2009-01-05T09:44:05Z</time>
      </trkpt>
      <trkpt lat="27.75489200" lon="-15.6697010">
        <ele>54.955000</ele>
        <time>2009-01-05T09:44:06Z</time>
      </trkpt>
      <trkpt lat="27.75488600" lon="-15.6698220">
        <ele>54.819000</ele>
        <time>2009-01-05T09:44:07Z</time>
      </trkpt>
      <trkpt lat="27.75489000" lon="-15.6699440">
        <ele>53.510000</ele>
        <time>2009-01-05T09:44:08Z</time>
      </trkpt>
      <trkpt lat="27.75490100" lon="-15.6700670">
        <ele>52.884000</ele>
        <time>2009-01-05T09:44:09Z</time>
      </trkpt>
      <trkpt lat="27.75492700" lon="-15.6701880">
        <ele>51.939000</ele>
        <time>2009-01-05T09:44:10Z</time>
      </trkpt>
      <trkpt lat="27.75497600" lon="-15.6702980">
        <ele>51.483000</ele>
        <time>2009-01-05T09:44:11Z</time>
      </trkpt>
      <trkpt lat="27.75509400" lon="-15.6703670">
        <ele>50.596000</ele>
        <time>2009-01-05T09:44:12Z</time>
      </trkpt>
      <trkpt lat="27.75522400" lon="-15.6703930">
        <ele>49.836000</ele>
        <time>2009-01-05T09:44:13Z</time>
      </trkpt>
      <trkpt lat="27.75534300" lon="-15.6703700">
        <ele>49.479000</ele>
        <time>2009-01-05T09:44:14Z</time>
      </trkpt>
      <trkpt lat="27.75545700" lon="-15.6703070">
        <ele>48.552000</ele>
        <time>2009-01-05T09:44:15Z</time>
      </trkpt>
      <trkpt lat="27.75555600" lon="-15.6702260">
        <ele>48.509000</ele>
        <time>2009-01-05T09:44:16Z</time>
      </trkpt>
      <trkpt lat="27.75564700" lon="-15.6701390">
        <ele>47.256000</ele>
        <time>2009-01-05T09:44:17Z</time>
      </trkpt>
      <trkpt lat="27.75576200" lon="-15.6700630">
        <ele>46.069000</ele>
        <time>2009-01-05T09:44:18Z</time>
      </trkpt>
      <trkpt lat="27.75586100" lon="-15.6699940">
        <ele>44.752000</ele>
        <time>2009-01-05T09:44:19Z</time>
      </trkpt>
      <trkpt lat="27.75596300" lon="-15.6699390">
        <ele>44.119000</ele>
        <time>2009-01-05T09:44:20Z</time>
      </trkpt>
      <trkpt lat="27.75607200" lon="-15.6699000">
        <ele>43.811000</ele>
        <time>2009-01-05T09:44:21Z</time>
      </trkpt>
      <trkpt lat="27.75618500" lon="-15.6698720">
        <ele>43.450000</ele>
        <time>2009-01-05T09:44:22Z</time>
      </trkpt>
      <trkpt lat="27.75630000" lon="-15.6698520">
        <ele>42.484000</ele>
        <time>2009-01-05T09:44:23Z</time>
      </trkpt>
      <trkpt lat="27.75641700" lon="-15.6698400">
        <ele>41.187000</ele>
        <time>2009-01-05T09:44:24Z</time>
      </trkpt>
      <trkpt lat="27.75653700" lon="-15.6698300">
        <ele>40.220000</ele>
        <time>2009-01-05T09:44:25Z</time>
      </trkpt>
      <trkpt lat="27.75665800" lon="-15.6698200">
        <ele>38.942000</ele>
        <time>2009-01-05T09:44:26Z</time>
      </trkpt>
      <trkpt lat="27.75677800" lon="-15.6698090">
        <ele>38.092000</ele>
        <time>2009-01-05T09:44:27Z</time>
      </trkpt>
      <trkpt lat="27.75689900" lon="-15.6697990">
        <ele>37.350000</ele>
        <time>2009-01-05T09:44:28Z</time>
      </trkpt>
      <trkpt lat="27.75702000" lon="-15.6697890">
        <ele>36.790000</ele>
        <time>2009-01-05T09:44:29Z</time>
      </trkpt>
      <trkpt lat="27.75714100" lon="-15.6697790">
        <ele>36.490000</ele>
        <time>2009-01-05T09:44:30Z</time>
      </trkpt>
      <trkpt lat="27.75726100" lon="-15.6697670">
        <ele>35.790000</ele>
        <time>2009-01-05T09:44:31Z</time>
      </trkpt>
      <trkpt lat="27.75738200" lon="-15.6697540">
        <ele>34.958000</ele>
        <time>2009-01-05T09:44:32Z</time>
      </trkpt>
      <trkpt lat="27.75750200" lon="-15.6697400">
        <ele>34.105000</ele>
        <time>2009-01-05T09:44:33Z</time>
      </trkpt>
      <trkpt lat="27.75762300" lon="-15.6697240">
        <ele>33.619000</ele>
        <time>2009-01-05T09:44:34Z</time>
      </trkpt>
      <trkpt lat="27.75774400" lon="-15.6697080">
        <ele>33.184000</ele>
        <time>2009-01-05T09:44:35Z</time>
      </trkpt>
      <trkpt lat="27.75786500" lon="-15.6696910">
        <ele>32.722000</ele>
        <time>2009-01-05T09:44:36Z</time>
      </trkpt>
      <trkpt lat="27.75798600" lon="-15.6696720">
        <ele>31.517000</ele>
        <time>2009-01-05T09:44:37Z</time>
      </trkpt>
      <trkpt lat="27.75810800" lon="-15.6696500">
        <ele>30.656000</ele>
        <time>2009-01-05T09:44:38Z</time>
      </trkpt>
      <trkpt lat="27.75823300" lon="-15.6696260">
        <ele>29.879000</ele>
        <time>2009-01-05T09:44:39Z</time>
      </trkpt>
      <trkpt lat="27.75835500" lon="-15.6696040">
        <ele>29.578000</ele>
        <time>2009-01-05T09:44:40Z</time>
      </trkpt>
      <trkpt lat="27.75847900" lon="-15.6695980">
        <ele>29.296000</ele>
        <time>2009-01-05T09:44:41Z</time>
      </trkpt>
      <trkpt lat="27.75860200" lon="-15.6696110">
        <ele>28.403000</ele>
        <time>2009-01-05T09:44:42Z</time>
      </trkpt>
      <trkpt lat="27.75871700" lon="-15.6696430">
        <ele>27.906000</ele>
        <time>2009-01-05T09:44:43Z</time>
      </trkpt>
      <trkpt lat="27.75882800" lon="-15.6696870">
        <ele>27.735000</ele>
        <time>2009-01-05T09:44:44Z</time>
      </trkpt>
      <trkpt lat="27.75894000" lon="-15.6697210">
        <ele>27.419000</ele>
        <time>2009-01-05T09:44:45Z</time>
      </trkpt>
      <trkpt lat="27.75905500" lon="-15.6697300">
        <ele>27.132000</ele>
        <time>2009-01-05T09:44:46Z</time>
      </trkpt>
      <trkpt lat="27.75916900" lon="-15.6697190">
        <ele>27.302000</ele>
        <time>2009-01-05T09:44:47Z</time>
      </trkpt>
      <trkpt lat="27.75928100" lon="-15.6696980">
        <ele>27.352000</ele>
        <time>2009-01-05T09:44:48Z</time>
      </trkpt>
      <trkpt lat="27.75938700" lon="-15.6696760">
        <ele>28.092000</ele>
        <time>2009-01-05T09:44:49Z</time>
      </trkpt>
      <trkpt lat="27.75948800" lon="-15.6696550">
        <ele>28.180000</ele>
        <time>2009-01-05T09:44:50Z</time>
      </trkpt>
      <trkpt lat="27.75958600" lon="-15.6696350">
        <ele>27.823000</ele>
        <time>2009-01-05T09:44:51Z</time>
      </trkpt>
      <trkpt lat="27.75968100" lon="-15.6696150">
        <ele>27.609000</ele>
        <time>2009-01-05T09:44:52Z</time>
      </trkpt>
      <trkpt lat="27.75977300" lon="-15.6695970">
        <ele>27.094000</ele>
        <time>2009-01-05T09:44:53Z</time>
      </trkpt>
      <trkpt lat="27.75986400" lon="-15.6695810">
        <ele>27.302000</ele>
        <time>2009-01-05T09:44:54Z</time>
      </trkpt>
      <trkpt lat="27.75995300" lon="-15.6695650">
        <ele>27.282000</ele>
        <time>2009-01-05T09:44:55Z</time>
      </trkpt>
      <trkpt lat="27.76003900" lon="-15.6695480">
        <ele>27.179000</ele>
        <time>2009-01-05T09:44:56Z</time>
      </trkpt>
      <trkpt lat="27.76012500" lon="-15.6695320">
        <ele>27.158000</ele>
        <time>2009-01-05T09:44:57Z</time>
      </trkpt>
      <trkpt lat="27.76021100" lon="-15.6695170">
        <ele>27.180000</ele>
        <time>2009-01-05T09:44:58Z</time>
      </trkpt>
      <trkpt lat="27.76029600" lon="-15.6695050">
        <ele>27.212000</ele>
        <time>2009-01-05T09:44:59Z</time>
      </trkpt>
      <trkpt lat="27.76037900" lon="-15.6694940">
        <ele>27.342000</ele>
        <time>2009-01-05T09:45:00Z</time>
      </trkpt>
      <trkpt lat="27.76046200" lon="-15.6694840">
        <ele>27.161000</ele>
        <time>2009-01-05T09:45:01Z</time>
      </trkpt>
      <trkpt lat="27.76054200" lon="-15.6694760">
        <ele>27.484000</ele>
        <time>2009-01-05T09:45:02Z</time>
      </trkpt>
      <trkpt lat="27.76062300" lon="-15.6694690">
        <ele>27.532000</ele>
        <time>2009-01-05T09:45:03Z</time>
      </trkpt>
      <trkpt lat="27.76070200" lon="-15.6694640">
        <ele>27.073000</ele>
        <time>2009-01-05T09:45:04Z</time>
      </trkpt>
      <trkpt lat="27.76078100" lon="-15.6694590">
        <ele>26.728000</ele>
        <time>2009-01-05T09:45:05Z</time>
      </trkpt>
      <trkpt lat="27.76086000" lon="-15.6694530">
        <ele>27.017000</ele>
        <time>2009-01-05T09:45:06Z</time>
      </trkpt>
      <trkpt lat="27.76093700" lon="-15.6694430">
        <ele>27.243000</ele>
        <time>2009-01-05T09:45:07Z</time>
      </trkpt>
      <trkpt lat="27.76101300" lon="-15.6694280">
        <ele>27.414000</ele>
        <time>2009-01-05T09:45:08Z</time>
      </trkpt>
      <trkpt lat="27.76108600" lon="-15.6694070">
        <ele>27.312000</ele>
        <time>2009-01-05T09:45:09Z</time>
      </trkpt>
      <trkpt lat="27.76115800" lon="-15.6693840">
        <ele>27.397000</ele>
        <time>2009-01-05T09:45:10Z</time>
      </trkpt>
      <trkpt lat="27.76122800" lon="-15.6693570">
        <ele>27.533000</ele>
        <time>2009-01-05T09:45:11Z</time>
      </trkpt>
      <trkpt lat="27.76129500" lon="-15.6693260">
        <ele>27.833000</ele>
        <time>2009-01-05T09:45:12Z</time>
      </trkpt>
      <trkpt lat="27.76135800" lon="-15.6692900">
        <ele>27.916000</ele>
        <time>2009-01-05T09:45:13Z</time>
      </trkpt>
      <trkpt lat="27.76142200" lon="-15.6692510">
        <ele>27.790000</ele>
        <time>2009-01-05T09:45:14Z</time>
      </trkpt>
      <trkpt lat="27.76148100" lon="-15.6692090">
        <ele>27.804000</ele>
        <time>2009-01-05T09:45:15Z</time>
      </trkpt>
      <trkpt lat="27.76154200" lon="-15.6691660">
        <ele>28.019000</ele>
        <time>2009-01-05T09:45:16Z</time>
      </trkpt>
      <trkpt lat="27.76160200" lon="-15.6691240">
        <ele>27.815000</ele>
        <time>2009-01-05T09:45:17Z</time>
      </trkpt>
      <trkpt lat="27.76166300" lon="-15.6690850">
        <ele>28.159000</ele>
        <time>2009-01-05T09:45:18Z</time>
      </trkpt>
      <trkpt lat="27.76172500" lon="-15.6690490">
        <ele>28.242000</ele>
        <time>2009-01-05T09:45:19Z</time>
      </trkpt>
      <trkpt lat="27.76178900" lon="-15.6690140">
        <ele>28.259000</ele>
        <time>2009-01-05T09:45:20Z</time>
      </trkpt>
      <trkpt lat="27.76185100" lon="-15.6689790">
        <ele>28.266000</ele>
        <time>2009-01-05T09:45:21Z</time>
      </trkpt>
      <trkpt lat="27.76191400" lon="-15.6689480">
        <ele>28.291000</ele>
        <time>2009-01-05T09:45:22Z</time>
      </trkpt>
      <trkpt lat="27.76197700" lon="-15.6689200">
        <ele>28.181000</ele>
        <time>2009-01-05T09:45:23Z</time>
      </trkpt>
      <trkpt lat="27.76204000" lon="-15.6688960">
        <ele>28.241000</ele>
        <time>2009-01-05T09:45:24Z</time>
      </trkpt>
      <trkpt lat="27.76210500" lon="-15.6688740">
        <ele>28.335000</ele>
        <time>2009-01-05T09:45:25Z</time>
      </trkpt>
      <trkpt lat="27.76217100" lon="-15.6688520">
        <ele>28.606000</ele>
        <time>2009-01-05T09:45:26Z</time>
      </trkpt>
      <trkpt lat="27.76223700" lon="-15.6688300">
        <ele>28.751000</ele>
        <time>2009-01-05T09:45:27Z</time>
      </trkpt>
      <trkpt lat="27.76230100" lon="-15.6688060">
        <ele>28.552000</ele>
        <time>2009-01-05T09:45:28Z</time>
      </trkpt>
      <trkpt lat="27.76236600" lon="-15.6687830">
        <ele>28.823000</ele>
        <time>2009-01-05T09:45:29Z</time>
      </trkpt>
      <trkpt lat="27.76243000" lon="-15.6687600">
        <ele>29.182000</ele>
        <time>2009-01-05T09:45:30Z</time>
      </trkpt>
      <trkpt lat="27.76249400" lon="-15.6687360">
        <ele>29.078000</ele>
        <time>2009-01-05T09:45:31Z</time>
      </trkpt>
      <trkpt lat="27.76255700" lon="-15.6687130">
        <ele>29.244000</ele>
        <time>2009-01-05T09:45:32Z</time>
      </trkpt>
      <trkpt lat="27.76261900" lon="-15.6686900">
        <ele>29.053000</ele>
        <time>2009-01-05T09:45:33Z</time>
      </trkpt>
      <trkpt lat="27.76268200" lon="-15.6686670">
        <ele>29.039000</ele>
        <time>2009-01-05T09:45:34Z</time>
      </trkpt>
      <trkpt lat="27.76274500" lon="-15.6686450">
        <ele>29.327000</ele>
        <time>2009-01-05T09:45:35Z</time>
      </trkpt>
      <trkpt lat="27.76280600" lon="-15.6686230">
        <ele>29.488000</ele>
        <time>2009-01-05T09:45:36Z</time>
      </trkpt>
      <trkpt lat="27.76286800" lon="-15.6686030">
        <ele>29.431000</ele>
        <time>2009-01-05T09:45:37Z</time>
      </trkpt>
      <trkpt lat="27.76292900" lon="-15.6685860">
        <ele>29.708000</ele>
        <time>2009-01-05T09:45:38Z</time>
      </trkpt>
      <trkpt lat="27.76299100" lon="-15.6685700">
        <ele>29.578000</ele>
        <time>2009-01-05T09:45:39Z</time>
      </trkpt>
      <trkpt lat="27.76305200" lon="-15.6685560">
        <ele>29.911000</ele>
        <time>2009-01-05T09:45:40Z</time>
      </trkpt>
      <trkpt lat="27.76311400" lon="-15.6685420">
        <ele>29.556000</ele>
        <time>2009-01-05T09:45:41Z</time>
      </trkpt>
      <trkpt lat="27.76317600" lon="-15.6685290">
        <ele>29.593000</ele>
        <time>2009-01-05T09:45:42Z</time>
      </trkpt>
      <trkpt lat="27.76323700" lon="-15.6685160">
        <ele>29.843000</ele>
        <time>2009-01-05T09:45:43Z</time>
      </trkpt>
      <trkpt lat="27.76329900" lon="-15.6685050">
        <ele>29.930000</ele>
        <time>2009-01-05T09:45:44Z</time>
      </trkpt>
      <trkpt lat="27.76336100" lon="-15.6684940">
        <ele>29.993000</ele>
        <time>2009-01-05T09:45:45Z</time>
      </trkpt>
      <trkpt lat="27.76342300" lon="-15.6684810">
        <ele>29.977000</ele>
        <time>2009-01-05T09:45:46Z</time>
      </trkpt>
      <trkpt lat="27.76348500" lon="-15.6684680">
        <ele>30.063000</ele>
        <time>2009-01-05T09:45:47Z</time>
      </trkpt>
      <trkpt lat="27.76354600" lon="-15.6684570">
        <ele>30.264000</ele>
        <time>2009-01-05T09:45:48Z</time>
      </trkpt>
      <trkpt lat="27.76360800" lon="-15.6684450">
        <ele>30.253000</ele>
        <time>2009-01-05T09:45:49Z</time>
      </trkpt>
      <trkpt lat="27.76366900" lon="-15.6684330">
        <ele>30.329000</ele>
        <time>2009-01-05T09:45:50Z</time>
      </trkpt>
      <trkpt lat="27.76373000" lon="-15.6684220">
        <ele>30.300000</ele>
        <time>2009-01-05T09:45:51Z</time>
      </trkpt>
      <trkpt lat="27.76379000" lon="-15.6684100">
        <ele>30.183000</ele>
        <time>2009-01-05T09:45:52Z</time>
      </trkpt>
      <trkpt lat="27.76385100" lon="-15.6683970">
        <ele>30.407000</ele>
        <time>2009-01-05T09:45:53Z</time>
      </trkpt>
      <trkpt lat="27.76391100" lon="-15.6683840">
        <ele>30.594000</ele>
        <time>2009-01-05T09:45:54Z</time>
      </trkpt>
      <trkpt lat="27.76397100" lon="-15.6683710">
        <ele>30.422000</ele>
        <time>2009-01-05T09:45:55Z</time>
      </trkpt>
      <trkpt lat="27.76403100" lon="-15.6683570">
        <ele>30.583000</ele>
        <time>2009-01-05T09:45:56Z</time>
      </trkpt>
      <trkpt lat="27.76409100" lon="-15.6683420">
        <ele>30.424000</ele>
        <time>2009-01-05T09:45:57Z</time>
      </trkpt>
      <trkpt lat="27.76415100" lon="-15.6683280">
        <ele>30.543000</ele>
        <time>2009-01-05T09:45:58Z</time>
      </trkpt>
      <trkpt lat="27.76421200" lon="-15.6683140">
        <ele>30.717000</ele>
        <time>2009-01-05T09:45:59Z</time>
      </trkpt>
      <trkpt lat="27.76427200" lon="-15.6683000">
        <ele>30.524000</ele>
        <time>2009-01-05T09:46:00Z</time>
      </trkpt>
      <trkpt lat="27.76433300" lon="-15.6682860">
        <ele>30.637000</ele>
        <time>2009-01-05T09:46:01Z</time>
      </trkpt>
      <trkpt lat="27.76439300" lon="-15.6682720">
        <ele>30.764000</ele>
        <time>2009-01-05T09:46:02Z</time>
      </trkpt>
      <trkpt lat="27.76445300" lon="-15.6682590">
        <ele>30.854000</ele>
        <time>2009-01-05T09:46:03Z</time>
      </trkpt>
      <trkpt lat="27.76451300" lon="-15.6682450">
        <ele>31.046000</ele>
        <time>2009-01-05T09:46:04Z</time>
      </trkpt>
      <trkpt lat="27.76457200" lon="-15.6682300">
        <ele>30.964000</ele>
        <time>2009-01-05T09:46:05Z</time>
      </trkpt>
      <trkpt lat="27.76462900" lon="-15.6682140">
        <ele>31.197000</ele>
        <time>2009-01-05T09:46:06Z</time>
      </trkpt>
      <trkpt lat="27.76468500" lon="-15.6681980">
        <ele>31.321000</ele>
        <time>2009-01-05T09:46:07Z</time>
      </trkpt>
      <trkpt lat="27.76474100" lon="-15.6681800">
        <ele>31.421000</ele>
        <time>2009-01-05T09:46:08Z</time>
      </trkpt>
      <trkpt lat="27.76479500" lon="-15.6681630">
        <ele>31.521000</ele>
        <time>2009-01-05T09:46:09Z</time>
      </trkpt>
      <trkpt lat="27.76484800" lon="-15.6681450">
        <ele>31.830000</ele>
        <time>2009-01-05T09:46:10Z</time>
      </trkpt>
      <trkpt lat="27.76489900" lon="-15.6681260">
        <ele>32.192000</ele>
        <time>2009-01-05T09:46:11Z</time>
      </trkpt>
      <trkpt lat="27.76495100" lon="-15.6681070">
        <ele>32.142000</ele>
        <time>2009-01-05T09:46:12Z</time>
      </trkpt>
      <trkpt lat="27.76500100" lon="-15.6680890">
        <ele>32.256000</ele>
        <time>2009-01-05T09:46:13Z</time>
      </trkpt>
      <trkpt lat="27.76504900" lon="-15.6680710">
        <ele>33.105000</ele>
        <time>2009-01-05T09:46:14Z</time>
      </trkpt>
      <trkpt lat="27.76509500" lon="-15.6680520">
        <ele>33.430000</ele>
        <time>2009-01-05T09:46:15Z</time>
      </trkpt>
      <trkpt lat="27.76514000" lon="-15.6680310">
        <ele>33.785000</ele>
        <time>2009-01-05T09:46:16Z</time>
      </trkpt>
      <trkpt lat="27.76518200" lon="-15.6680080">
        <ele>34.047000</ele>
        <time>2009-01-05T09:46:17Z</time>
      </trkpt>
      <trkpt lat="27.76522400" lon="-15.6679850">
        <ele>34.185000</ele>
        <time>2009-01-05T09:46:18Z</time>
      </trkpt>
      <trkpt lat="27.76526500" lon="-15.6679620">
        <ele>35.044000</ele>
        <time>2009-01-05T09:46:19Z</time>
      </trkpt>
      <trkpt lat="27.76530500" lon="-15.6679400">
        <ele>35.452000</ele>
        <time>2009-01-05T09:46:20Z</time>
      </trkpt>
      <trkpt lat="27.76534400" lon="-15.6679180">
        <ele>35.748000</ele>
        <time>2009-01-05T09:46:21Z</time>
      </trkpt>
      <trkpt lat="27.76538100" lon="-15.6678930">
        <ele>36.161000</ele>
        <time>2009-01-05T09:46:22Z</time>
      </trkpt>
      <trkpt lat="27.76541600" lon="-15.6678660">
        <ele>36.336000</ele>
        <time>2009-01-05T09:46:23Z</time>
      </trkpt>
      <trkpt lat="27.76545100" lon="-15.6678380">
        <ele>36.733000</ele>
        <time>2009-01-05T09:46:24Z</time>
      </trkpt>
      <trkpt lat="27.76548500" lon="-15.6678090">
        <ele>37.157000</ele>
        <time>2009-01-05T09:46:25Z</time>
      </trkpt>
      <trkpt lat="27.76552000" lon="-15.6677810">
        <ele>37.171000</ele>
        <time>2009-01-05T09:46:26Z</time>
      </trkpt>
      <trkpt lat="27.76555400" lon="-15.6677520">
        <ele>37.473000</ele>
        <time>2009-01-05T09:46:27Z</time>
      </trkpt>
      <trkpt lat="27.76558900" lon="-15.6677230">
        <ele>37.970000</ele>
        <time>2009-01-05T09:46:28Z</time>
      </trkpt>
      <trkpt lat="27.76562300" lon="-15.6676940">
        <ele>38.048000</ele>
        <time>2009-01-05T09:46:29Z</time>
      </trkpt>
      <trkpt lat="27.76565500" lon="-15.6676630">
        <ele>38.532000</ele>
        <time>2009-01-05T09:46:30Z</time>
      </trkpt>
      <trkpt lat="27.76568700" lon="-15.6676310">
        <ele>38.834000</ele>
        <time>2009-01-05T09:46:31Z</time>
      </trkpt>
      <trkpt lat="27.76571900" lon="-15.6675990">
        <ele>39.324000</ele>
        <time>2009-01-05T09:46:32Z</time>
      </trkpt>
      <trkpt lat="27.76575100" lon="-15.6675670">
        <ele>39.189000</ele>
        <time>2009-01-05T09:46:33Z</time>
      </trkpt>
      <trkpt lat="27.76578300" lon="-15.6675350">
        <ele>39.541000</ele>
        <time>2009-01-05T09:46:34Z</time>
      </trkpt>
      <trkpt lat="27.76581700" lon="-15.6675030">
        <ele>39.819000</ele>
        <time>2009-01-05T09:46:35Z</time>
      </trkpt>
      <trkpt lat="27.76585200" lon="-15.6674700">
        <ele>39.960000</ele>
        <time>2009-01-05T09:46:36Z</time>
      </trkpt>
      <trkpt lat="27.76588600" lon="-15.6674380">
        <ele>40.724000</ele>
        <time>2009-01-05T09:46:37Z</time>
      </trkpt>
      <trkpt lat="27.76591800" lon="-15.6674070">
        <ele>40.550000</ele>
        <time>2009-01-05T09:46:38Z</time>
      </trkpt>
      <trkpt lat="27.76629000" lon="-15.6668400">
        <ele>40.649000</ele>
        <time>2009-01-05T09:46:50Z</time>
      </trkpt>
      <trkpt lat="27.76636000" lon="-15.6668330">
        <ele>40.616000</ele>
        <time>2009-01-05T09:46:51Z</time>
      </trkpt>
      <trkpt lat="27.76639100" lon="-15.6668000">
        <ele>40.598000</ele>
        <time>2009-01-05T09:46:52Z</time>
      </trkpt>
      <trkpt lat="27.76642600" lon="-15.6667540">
        <ele>40.593000</ele>
        <time>2009-01-05T09:46:53Z</time>
      </trkpt>
      <trkpt lat="27.76645900" lon="-15.6667030">
        <ele>40.818000</ele>
        <time>2009-01-05T09:46:54Z</time>
      </trkpt>
      <trkpt lat="27.76649200" lon="-15.6666510">
        <ele>40.837000</ele>
        <time>2009-01-05T09:46:55Z</time>
      </trkpt>
      <trkpt lat="27.76652600" lon="-15.6665980">
        <ele>40.810000</ele>
        <time>2009-01-05T09:46:56Z</time>
      </trkpt>
      <trkpt lat="27.76655400" lon="-15.6665430">
        <ele>40.956000</ele>
        <time>2009-01-05T09:46:57Z</time>
      </trkpt>
      <trkpt lat="27.76659400" lon="-15.6664940">
        <ele>40.982000</ele>
        <time>2009-01-05T09:46:58Z</time>
      </trkpt>
      <trkpt lat="27.76662100" lon="-15.6664410">
        <ele>40.885000</ele>
        <time>2009-01-05T09:46:59Z</time>
      </trkpt>
      <trkpt lat="27.76665200" lon="-15.6663870">
        <ele>40.822000</ele>
        <time>2009-01-05T09:47:00Z</time>
      </trkpt>
      <trkpt lat="27.76668000" lon="-15.6663330">
        <ele>40.922000</ele>
        <time>2009-01-05T09:47:01Z</time>
      </trkpt>
      <trkpt lat="27.76670800" lon="-15.6662790">
        <ele>41.074000</ele>
        <time>2009-01-05T09:47:02Z</time>
      </trkpt>
      <trkpt lat="27.76673700" lon="-15.6662250">
        <ele>40.863000</ele>
        <time>2009-01-05T09:47:03Z</time>
      </trkpt>
      <trkpt lat="27.76677100" lon="-15.6661730">
        <ele>41.284000</ele>
        <time>2009-01-05T09:47:04Z</time>
      </trkpt>
      <trkpt lat="27.76680400" lon="-15.6661200">
        <ele>41.113000</ele>
        <time>2009-01-05T09:47:05Z</time>
      </trkpt>
      <trkpt lat="27.76683900" lon="-15.6660680">
        <ele>41.396000</ele>
        <time>2009-01-05T09:47:06Z</time>
      </trkpt>
      <trkpt lat="27.76687800" lon="-15.6660200">
        <ele>41.375000</ele>
        <time>2009-01-05T09:47:07Z</time>
      </trkpt>
      <trkpt lat="27.76692000" lon="-15.6659770">
        <ele>41.178000</ele>
        <time>2009-01-05T09:47:08Z</time>
      </trkpt>
      <trkpt lat="27.76696700" lon="-15.6659400">
        <ele>41.247000</ele>
        <time>2009-01-05T09:47:09Z</time>
      </trkpt>
      <trkpt lat="27.76701800" lon="-15.6659090">
        <ele>41.021000</ele>
        <time>2009-01-05T09:47:10Z</time>
      </trkpt>
      <trkpt lat="27.76707300" lon="-15.6658850">
        <ele>41.146000</ele>
        <time>2009-01-05T09:47:11Z</time>
      </trkpt>
      <trkpt lat="27.76713000" lon="-15.6658650">
        <ele>41.181000</ele>
        <time>2009-01-05T09:47:12Z</time>
      </trkpt>
      <trkpt lat="27.76718900" lon="-15.6658510">
        <ele>40.946000</ele>
        <time>2009-01-05T09:47:13Z</time>
      </trkpt>
      <trkpt lat="27.76724900" lon="-15.6658470">
        <ele>40.942000</ele>
        <time>2009-01-05T09:47:14Z</time>
      </trkpt>
      <trkpt lat="27.76730900" lon="-15.6658540">
        <ele>40.956000</ele>
        <time>2009-01-05T09:47:15Z</time>
      </trkpt>
      <trkpt lat="27.76736600" lon="-15.6658730">
        <ele>40.885000</ele>
        <time>2009-01-05T09:47:16Z</time>
      </trkpt>
      <trkpt lat="27.76742100" lon="-15.6659010">
        <ele>40.958000</ele>
        <time>2009-01-05T09:47:17Z</time>
      </trkpt>
      <trkpt lat="27.76747400" lon="-15.6659320">
        <ele>41.273000</ele>
        <time>2009-01-05T09:47:18Z</time>
      </trkpt>
      <trkpt lat="27.76752600" lon="-15.6659640">
        <ele>41.488000</ele>
        <time>2009-01-05T09:47:19Z</time>
      </trkpt>
      <trkpt lat="27.76758100" lon="-15.6659950">
        <ele>41.607000</ele>
        <time>2009-01-05T09:47:20Z</time>
      </trkpt>
      <trkpt lat="27.76763200" lon="-15.6660220">
        <ele>41.798000</ele>
        <time>2009-01-05T09:47:21Z</time>
      </trkpt>
      <trkpt lat="27.76768400" lon="-15.6660430">
        <ele>42.068000</ele>
        <time>2009-01-05T09:47:22Z</time>
      </trkpt>
      <trkpt lat="27.76773700" lon="-15.6660570">
        <ele>42.338000</ele>
        <time>2009-01-05T09:47:23Z</time>
      </trkpt>
      <trkpt lat="27.76779100" lon="-15.6660670">
        <ele>42.386000</ele>
        <time>2009-01-05T09:47:24Z</time>
      </trkpt>
      <trkpt lat="27.76784400" lon="-15.6660740">
        <ele>42.405000</ele>
        <time>2009-01-05T09:47:25Z</time>
      </trkpt>
      <trkpt lat="27.76789800" lon="-15.6660790">
        <ele>42.643000</ele>
        <time>2009-01-05T09:47:26Z</time>
      </trkpt>
      <trkpt lat="27.76795200" lon="-15.6660870">
        <ele>42.580000</ele>
        <time>2009-01-05T09:47:27Z</time>
      </trkpt>
      <trkpt lat="27.76800600" lon="-15.6660970">
        <ele>42.741000</ele>
        <time>2009-01-05T09:47:28Z</time>
      </trkpt>
      <trkpt lat="27.76805800" lon="-15.6661070">
        <ele>43.188000</ele>
        <time>2009-01-05T09:47:29Z</time>
      </trkpt>
      <trkpt lat="27.76811100" lon="-15.6661200">
        <ele>43.278000</ele>
        <time>2009-01-05T09:47:30Z</time>
      </trkpt>
      <trkpt lat="27.76816100" lon="-15.6661370">
        <ele>43.122000</ele>
        <time>2009-01-05T09:47:31Z</time>
      </trkpt>
      <trkpt lat="27.76821000" lon="-15.6661570">
        <ele>43.487000</ele>
        <time>2009-01-05T09:47:32Z</time>
      </trkpt>
      <trkpt lat="27.76825700" lon="-15.6661790">
        <ele>43.128000</ele>
        <time>2009-01-05T09:47:33Z</time>
      </trkpt>
      <trkpt lat="27.76830400" lon="-15.6662000">
        <ele>43.744000</ele>
        <time>2009-01-05T09:47:34Z</time>
      </trkpt>
      <trkpt lat="27.76834900" lon="-15.6662240">
        <ele>43.808000</ele>
        <time>2009-01-05T09:47:35Z</time>
      </trkpt>
      <trkpt lat="27.76839200" lon="-15.6662520">
        <ele>44.326000</ele>
        <time>2009-01-05T09:47:36Z</time>
      </trkpt>
      <trkpt lat="27.76843500" lon="-15.6662780">
        <ele>44.411000</ele>
        <time>2009-01-05T09:47:37Z</time>
      </trkpt>
      <trkpt lat="27.76847600" lon="-15.6663050">
        <ele>44.496000</ele>
        <time>2009-01-05T09:47:38Z</time>
      </trkpt>
      <trkpt lat="27.76851800" lon="-15.6663320">
        <ele>44.586000</ele>
        <time>2009-01-05T09:47:39Z</time>
      </trkpt>
      <trkpt lat="27.76856000" lon="-15.6663590">
        <ele>44.978000</ele>
        <time>2009-01-05T09:47:40Z</time>
      </trkpt>
      <trkpt lat="27.76860300" lon="-15.6663860">
        <ele>44.925000</ele>
        <time>2009-01-05T09:47:41Z</time>
      </trkpt>
      <trkpt lat="27.76864600" lon="-15.6664140">
        <ele>45.150000</ele>
        <time>2009-01-05T09:47:42Z</time>
      </trkpt>
      <trkpt lat="27.76868900" lon="-15.6664410">
        <ele>45.105000</ele>
        <time>2009-01-05T09:47:43Z</time>
      </trkpt>
      <trkpt lat="27.76873300" lon="-15.6664690">
        <ele>45.156000</ele>
        <time>2009-01-05T09:47:44Z</time>
      </trkpt>
      <trkpt lat="27.76877800" lon="-15.6664950">
        <ele>45.182000</ele>
        <time>2009-01-05T09:47:45Z</time>
      </trkpt>
      <trkpt lat="27.76882700" lon="-15.6665180">
        <ele>45.272000</ele>
        <time>2009-01-05T09:47:46Z</time>
      </trkpt>
      <trkpt lat="27.76887900" lon="-15.6665390">
        <ele>45.132000</ele>
        <time>2009-01-05T09:47:47Z</time>
      </trkpt>
      <trkpt lat="27.76893600" lon="-15.6665560">
        <ele>45.135000</ele>
        <time>2009-01-05T09:47:48Z</time>
      </trkpt>
      <trkpt lat="27.76899800" lon="-15.6665680">
        <ele>45.085000</ele>
        <time>2009-01-05T09:47:49Z</time>
      </trkpt>
      <trkpt lat="27.76906400" lon="-15.6665750">
        <ele>44.807000</ele>
        <time>2009-01-05T09:47:50Z</time>
      </trkpt>
      <trkpt lat="27.76913200" lon="-15.6665760">
        <ele>44.556000</ele>
        <time>2009-01-05T09:47:51Z</time>
      </trkpt>
      <trkpt lat="27.76920100" lon="-15.6665710">
        <ele>44.426000</ele>
        <time>2009-01-05T09:47:52Z</time>
      </trkpt>
      <trkpt lat="27.76927100" lon="-15.6665610">
        <ele>44.643000</ele>
        <time>2009-01-05T09:47:53Z</time>
      </trkpt>
      <trkpt lat="27.76933900" lon="-15.6665480">
        <ele>44.199000</ele>
        <time>2009-01-05T09:47:54Z</time>
      </trkpt>
      <trkpt lat="27.76940700" lon="-15.6665340">
        <ele>44.412000</ele>
        <time>2009-01-05T09:47:55Z</time>
      </trkpt>
      <trkpt lat="27.76947500" lon="-15.6665190">
        <ele>44.047000</ele>
        <time>2009-01-05T09:47:56Z</time>
      </trkpt>
      <trkpt lat="27.76954100" lon="-15.6665020">
        <ele>44.189000</ele>
        <time>2009-01-05T09:47:57Z</time>
      </trkpt>
      <trkpt lat="27.76960700" lon="-15.6664850">
        <ele>43.977000</ele>
        <time>2009-01-05T09:47:58Z</time>
      </trkpt>
      <trkpt lat="27.76967300" lon="-15.6664690">
        <ele>44.153000</ele>
        <time>2009-01-05T09:47:59Z</time>
      </trkpt>
      <trkpt lat="27.76973900" lon="-15.6664540">
        <ele>44.007000</ele>
        <time>2009-01-05T09:48:00Z</time>
      </trkpt>
      <trkpt lat="27.76980500" lon="-15.6664380">
        <ele>44.007000</ele>
        <time>2009-01-05T09:48:01Z</time>
      </trkpt>
      <trkpt lat="27.76987100" lon="-15.6664230">
        <ele>43.987000</ele>
        <time>2009-01-05T09:48:02Z</time>
      </trkpt>
      <trkpt lat="27.76993700" lon="-15.6664070">
        <ele>44.047000</ele>
        <time>2009-01-05T09:48:03Z</time>
      </trkpt>
      <trkpt lat="27.77000300" lon="-15.6663920">
        <ele>43.986000</ele>
        <time>2009-01-05T09:48:04Z</time>
      </trkpt>
      <trkpt lat="27.77006900" lon="-15.6663770">
        <ele>44.017000</ele>
        <time>2009-01-05T09:48:05Z</time>
      </trkpt>
      <trkpt lat="27.77013500" lon="-15.6663640">
        <ele>43.598000</ele>
        <time>2009-01-05T09:48:06Z</time>
      </trkpt>
      <trkpt lat="27.77020100" lon="-15.6663510">
        <ele>43.539000</ele>
        <time>2009-01-05T09:48:07Z</time>
      </trkpt>
      <trkpt lat="27.77026800" lon="-15.6663360">
        <ele>43.221000</ele>
        <time>2009-01-05T09:48:08Z</time>
      </trkpt>
      <trkpt lat="27.77033500" lon="-15.6663210">
        <ele>43.143000</ele>
        <time>2009-01-05T09:48:09Z</time>
      </trkpt>
      <trkpt lat="27.77040300" lon="-15.6663060">
        <ele>43.103000</ele>
        <time>2009-01-05T09:48:10Z</time>
      </trkpt>
      <trkpt lat="27.77047300" lon="-15.6662890">
        <ele>43.199000</ele>
        <time>2009-01-05T09:48:11Z</time>
      </trkpt>
      <trkpt lat="27.77054200" lon="-15.6662690">
        <ele>43.090000</ele>
        <time>2009-01-05T09:48:12Z</time>
      </trkpt>
      <trkpt lat="27.77061100" lon="-15.6662460">
        <ele>43.015000</ele>
        <time>2009-01-05T09:48:13Z</time>
      </trkpt>
      <trkpt lat="27.77068000" lon="-15.6662210">
        <ele>42.718000</ele>
        <time>2009-01-05T09:48:14Z</time>
      </trkpt>
      <trkpt lat="27.77074900" lon="-15.6661940">
        <ele>42.381000</ele>
        <time>2009-01-05T09:48:15Z</time>
      </trkpt>
      <trkpt lat="27.77082000" lon="-15.6661650">
        <ele>42.250000</ele>
        <time>2009-01-05T09:48:16Z</time>
      </trkpt>
      <trkpt lat="27.77089100" lon="-15.6661360">
        <ele>41.736000</ele>
        <time>2009-01-05T09:48:17Z</time>
      </trkpt>
      <trkpt lat="27.77096300" lon="-15.6661070">
        <ele>41.909000</ele>
        <time>2009-01-05T09:48:18Z</time>
      </trkpt>
      <trkpt lat="27.77103400" lon="-15.6660780">
        <ele>41.845000</ele>
        <time>2009-01-05T09:48:19Z</time>
      </trkpt>
      <trkpt lat="27.77110600" lon="-15.6660500">
        <ele>41.886000</ele>
        <time>2009-01-05T09:48:20Z</time>
      </trkpt>
      <trkpt lat="27.77117800" lon="-15.6660220">
        <ele>41.705000</ele>
        <time>2009-01-05T09:48:21Z</time>
      </trkpt>
      <trkpt lat="27.77125000" lon="-15.6659960">
        <ele>41.548000</ele>
        <time>2009-01-05T09:48:22Z</time>
      </trkpt>
      <trkpt lat="27.77132200" lon="-15.6659710">
        <ele>41.362000</ele>
        <time>2009-01-05T09:48:23Z</time>
      </trkpt>
      <trkpt lat="27.77139500" lon="-15.6659480">
        <ele>41.295000</ele>
        <time>2009-01-05T09:48:24Z</time>
      </trkpt>
      <trkpt lat="27.77146800" lon="-15.6659250">
        <ele>41.260000</ele>
        <time>2009-01-05T09:48:25Z</time>
      </trkpt>
      <trkpt lat="27.77154100" lon="-15.6659050">
        <ele>41.233000</ele>
        <time>2009-01-05T09:48:26Z</time>
      </trkpt>
      <trkpt lat="27.77161400" lon="-15.6658850">
        <ele>40.994000</ele>
        <time>2009-01-05T09:48:27Z</time>
      </trkpt>
      <trkpt lat="27.77168700" lon="-15.6658680">
        <ele>41.056000</ele>
        <time>2009-01-05T09:48:28Z</time>
      </trkpt>
      <trkpt lat="27.77176000" lon="-15.6658510">
        <ele>41.048000</ele>
        <time>2009-01-05T09:48:29Z</time>
      </trkpt>
      <trkpt lat="27.77183300" lon="-15.6658360">
        <ele>40.862000</ele>
        <time>2009-01-05T09:48:30Z</time>
      </trkpt>
      <trkpt lat="27.77190600" lon="-15.6658220">
        <ele>40.761000</ele>
        <time>2009-01-05T09:48:31Z</time>
      </trkpt>
      <trkpt lat="27.77197800" lon="-15.6658110">
        <ele>40.892000</ele>
        <time>2009-01-05T09:48:32Z</time>
      </trkpt>
      <trkpt lat="27.77204900" lon="-15.6657990">
        <ele>40.971000</ele>
        <time>2009-01-05T09:48:33Z</time>
      </trkpt>
      <trkpt lat="27.77211900" lon="-15.6657900">
        <ele>41.000000</ele>
        <time>2009-01-05T09:48:34Z</time>
      </trkpt>
      <trkpt lat="27.77219000" lon="-15.6657810">
        <ele>40.988000</ele>
        <time>2009-01-05T09:48:35Z</time>
      </trkpt>
      <trkpt lat="27.77225800" lon="-15.6657720">
        <ele>41.130000</ele>
        <time>2009-01-05T09:48:36Z</time>
      </trkpt>
      <trkpt lat="27.77232700" lon="-15.6657650">
        <ele>41.244000</ele>
        <time>2009-01-05T09:48:37Z</time>
      </trkpt>
      <trkpt lat="27.77239500" lon="-15.6657590">
        <ele>41.536000</ele>
        <time>2009-01-05T09:48:38Z</time>
      </trkpt>
      <trkpt lat="27.77246400" lon="-15.6657570">
        <ele>41.179000</ele>
        <time>2009-01-05T09:48:39Z</time>
      </trkpt>
      <trkpt lat="27.77253200" lon="-15.6657570">
        <ele>41.136000</ele>
        <time>2009-01-05T09:48:40Z</time>
      </trkpt>
      <trkpt lat="27.77260100" lon="-15.6657600">
        <ele>41.160000</ele>
        <time>2009-01-05T09:48:41Z</time>
      </trkpt>
      <trkpt lat="27.77267000" lon="-15.6657630">
        <ele>40.985000</ele>
        <time>2009-01-05T09:48:42Z</time>
      </trkpt>
      <trkpt lat="27.77273900" lon="-15.6657690">
        <ele>41.066000</ele>
        <time>2009-01-05T09:48:43Z</time>
      </trkpt>
      <trkpt lat="27.77280800" lon="-15.6657800">
        <ele>41.201000</ele>
        <time>2009-01-05T09:48:44Z</time>
      </trkpt>
      <trkpt lat="27.77287600" lon="-15.6657940">
        <ele>40.965000</ele>
        <time>2009-01-05T09:48:45Z</time>
      </trkpt>
      <trkpt lat="27.77294500" lon="-15.6658110">
        <ele>41.136000</ele>
        <time>2009-01-05T09:48:46Z</time>
      </trkpt>
      <trkpt lat="27.77301400" lon="-15.6658310">
        <ele>41.064000</ele>
        <time>2009-01-05T09:48:47Z</time>
      </trkpt>
      <trkpt lat="27.77308300" lon="-15.6658520">
        <ele>41.196000</ele>
        <time>2009-01-05T09:48:48Z</time>
      </trkpt>
      <trkpt lat="27.77315100" lon="-15.6658760">
        <ele>40.910000</ele>
        <time>2009-01-05T09:48:49Z</time>
      </trkpt>
      <trkpt lat="27.77322000" lon="-15.6659000">
        <ele>40.798000</ele>
        <time>2009-01-05T09:48:50Z</time>
      </trkpt>
      <trkpt lat="27.77328800" lon="-15.6659230">
        <ele>40.969000</ele>
        <time>2009-01-05T09:48:51Z</time>
      </trkpt>
      <trkpt lat="27.77335600" lon="-15.6659470">
        <ele>40.662000</ele>
        <time>2009-01-05T09:48:52Z</time>
      </trkpt>
      <trkpt lat="27.77342300" lon="-15.6659720">
        <ele>40.827000</ele>
        <time>2009-01-05T09:48:53Z</time>
      </trkpt>
      <trkpt lat="27.77349200" lon="-15.6659980">
        <ele>40.800000</ele>
        <time>2009-01-05T09:48:54Z</time>
      </trkpt>
      <trkpt lat="27.77356000" lon="-15.6660240">
        <ele>40.640000</ele>
        <time>2009-01-05T09:48:55Z</time>
      </trkpt>
      <trkpt lat="27.77363100" lon="-15.6660540">
        <ele>40.851000</ele>
        <time>2009-01-05T09:48:56Z</time>
      </trkpt>
      <trkpt lat="27.77369900" lon="-15.6660820">
        <ele>40.615000</ele>
        <time>2009-01-05T09:48:57Z</time>
      </trkpt>
      <trkpt lat="27.77376600" lon="-15.6661130">
        <ele>40.624000</ele>
        <time>2009-01-05T09:48:58Z</time>
      </trkpt>
      <trkpt lat="27.77383300" lon="-15.6661450">
        <ele>40.499000</ele>
        <time>2009-01-05T09:48:59Z</time>
      </trkpt>
      <trkpt lat="27.77390200" lon="-15.6661800">
        <ele>40.472000</ele>
        <time>2009-01-05T09:49:00Z</time>
      </trkpt>
      <trkpt lat="27.77397000" lon="-15.6662140">
        <ele>40.363000</ele>
        <time>2009-01-05T09:49:01Z</time>
      </trkpt>
      <trkpt lat="27.77403700" lon="-15.6662470">
        <ele>40.676000</ele>
        <time>2009-01-05T09:49:02Z</time>
      </trkpt>
      <trkpt lat="27.77410500" lon="-15.6662790">
        <ele>40.803000</ele>
        <time>2009-01-05T09:49:03Z</time>
      </trkpt>
      <trkpt lat="27.77417200" lon="-15.6663100">
        <ele>40.673000</ele>
        <time>2009-01-05T09:49:04Z</time>
      </trkpt>
      <trkpt lat="27.77423800" lon="-15.6663400">
        <ele>40.664000</ele>
        <time>2009-01-05T09:49:05Z</time>
      </trkpt>
      <trkpt lat="27.77430400" lon="-15.6663690">
        <ele>41.026000</ele>
        <time>2009-01-05T09:49:06Z</time>
      </trkpt>
      <trkpt lat="27.77436800" lon="-15.6663990">
        <ele>40.740000</ele>
        <time>2009-01-05T09:49:07Z</time>
      </trkpt>
      <trkpt lat="27.77443300" lon="-15.6664290">
        <ele>40.655000</ele>
        <time>2009-01-05T09:49:08Z</time>
      </trkpt>
      <trkpt lat="27.77449700" lon="-15.6664570">
        <ele>41.011000</ele>
        <time>2009-01-05T09:49:09Z</time>
      </trkpt>
      <trkpt lat="27.77456000" lon="-15.6664850">
        <ele>41.006000</ele>
        <time>2009-01-05T09:49:10Z</time>
      </trkpt>
      <trkpt lat="27.77462300" lon="-15.6665120">
        <ele>41.077000</ele>
        <time>2009-01-05T09:49:11Z</time>
      </trkpt>
      <trkpt lat="27.77468400" lon="-15.6665380">
        <ele>40.762000</ele>
        <time>2009-01-05T09:49:12Z</time>
      </trkpt>
      <trkpt lat="27.77474600" lon="-15.6665640">
        <ele>41.100000</ele>
        <time>2009-01-05T09:49:13Z</time>
      </trkpt>
      <trkpt lat="27.77480800" lon="-15.6665900">
        <ele>40.809000</ele>
        <time>2009-01-05T09:49:14Z</time>
      </trkpt>
      <trkpt lat="27.77486800" lon="-15.6666160">
        <ele>41.142000</ele>
        <time>2009-01-05T09:49:15Z</time>
      </trkpt>
      <trkpt lat="27.77492900" lon="-15.6666400">
        <ele>41.073000</ele>
        <time>2009-01-05T09:49:16Z</time>
      </trkpt>
      <trkpt lat="27.77499000" lon="-15.6666630">
        <ele>41.215000</ele>
        <time>2009-01-05T09:49:17Z</time>
      </trkpt>
      <trkpt lat="27.77505200" lon="-15.6666820">
        <ele>41.284000</ele>
        <time>2009-01-05T09:49:18Z</time>
      </trkpt>
      <trkpt lat="27.77511500" lon="-15.6667000">
        <ele>41.397000</ele>
        <time>2009-01-05T09:49:19Z</time>
      </trkpt>
      <trkpt lat="27.77517600" lon="-15.6667150">
        <ele>41.416000</ele>
        <time>2009-01-05T09:49:20Z</time>
      </trkpt>
      <trkpt lat="27.77523800" lon="-15.6667290">
        <ele>41.489000</ele>
        <time>2009-01-05T09:49:21Z</time>
      </trkpt>
      <trkpt lat="27.77529900" lon="-15.6667400">
        <ele>41.420000</ele>
        <time>2009-01-05T09:49:22Z</time>
      </trkpt>
      <trkpt lat="27.77536100" lon="-15.6667490">
        <ele>41.573000</ele>
        <time>2009-01-05T09:49:23Z</time>
      </trkpt>
      <trkpt lat="27.77542200" lon="-15.6667540">
        <ele>41.859000</ele>
        <time>2009-01-05T09:49:24Z</time>
      </trkpt>
      <trkpt lat="27.77548500" lon="-15.6667560">
        <ele>41.605000</ele>
        <time>2009-01-05T09:49:25Z</time>
      </trkpt>
      <trkpt lat="27.77554700" lon="-15.6667550">
        <ele>41.966000</ele>
        <time>2009-01-05T09:49:26Z</time>
      </trkpt>
      <trkpt lat="27.77560900" lon="-15.6667550">
        <ele>41.993000</ele>
        <time>2009-01-05T09:49:27Z</time>
      </trkpt>
      <trkpt lat="27.77567100" lon="-15.6667530">
        <ele>42.172000</ele>
        <time>2009-01-05T09:49:28Z</time>
      </trkpt>
      <trkpt lat="27.77573300" lon="-15.6667470">
        <ele>42.134000</ele>
        <time>2009-01-05T09:49:29Z</time>
      </trkpt>
      <trkpt lat="27.77579400" lon="-15.6667360">
        <ele>42.121000</ele>
        <time>2009-01-05T09:49:30Z</time>
      </trkpt>
      <trkpt lat="27.77585500" lon="-15.6667200">
        <ele>42.326000</ele>
        <time>2009-01-05T09:49:31Z</time>
      </trkpt>
      <trkpt lat="27.77591300" lon="-15.6667000">
        <ele>42.276000</ele>
        <time>2009-01-05T09:49:32Z</time>
      </trkpt>
      <trkpt lat="27.77597000" lon="-15.6666760">
        <ele>42.299000</ele>
        <time>2009-01-05T09:49:33Z</time>
      </trkpt>
      <trkpt lat="27.77602700" lon="-15.6666500">
        <ele>42.166000</ele>
        <time>2009-01-05T09:49:34Z</time>
      </trkpt>
      <trkpt lat="27.77608400" lon="-15.6666220">
        <ele>42.588000</ele>
        <time>2009-01-05T09:49:35Z</time>
      </trkpt>
      <trkpt lat="27.77614000" lon="-15.6665920">
        <ele>42.584000</ele>
        <time>2009-01-05T09:49:36Z</time>
      </trkpt>
      <trkpt lat="27.77619400" lon="-15.6665600">
        <ele>42.684000</ele>
        <time>2009-01-05T09:49:37Z</time>
      </trkpt>
      <trkpt lat="27.77624700" lon="-15.6665280">
        <ele>42.482000</ele>
        <time>2009-01-05T09:49:38Z</time>
      </trkpt>
      <trkpt lat="27.77630000" lon="-15.6664970">
        <ele>42.965000</ele>
        <time>2009-01-05T09:49:39Z</time>
      </trkpt>
      <trkpt lat="27.77635300" lon="-15.6664660">
        <ele>43.194000</ele>
        <time>2009-01-05T09:49:40Z</time>
      </trkpt>
      <trkpt lat="27.77640600" lon="-15.6664370">
        <ele>42.937000</ele>
        <time>2009-01-05T09:49:41Z</time>
      </trkpt>
      <trkpt lat="27.77646000" lon="-15.6664100">
        <ele>43.338000</ele>
        <time>2009-01-05T09:49:42Z</time>
      </trkpt>
      <trkpt lat="27.77651300" lon="-15.6663850">
        <ele>43.308000</ele>
        <time>2009-01-05T09:49:43Z</time>
      </trkpt>
      <trkpt lat="27.77656700" lon="-15.6663620">
        <ele>43.526000</ele>
        <time>2009-01-05T09:49:44Z</time>
      </trkpt>
      <trkpt lat="27.77662100" lon="-15.6663410">
        <ele>43.514000</ele>
        <time>2009-01-05T09:49:45Z</time>
      </trkpt>
      <trkpt lat="27.77667400" lon="-15.6663220">
        <ele>43.545000</ele>
        <time>2009-01-05T09:49:46Z</time>
      </trkpt>
      <trkpt lat="27.77672600" lon="-15.6663030">
        <ele>43.872000</ele>
        <time>2009-01-05T09:49:47Z</time>
      </trkpt>
      <trkpt lat="27.77677800" lon="-15.6662850">
        <ele>43.839000</ele>
        <time>2009-01-05T09:49:48Z</time>
      </trkpt>
      <trkpt lat="27.77683000" lon="-15.6662680">
        <ele>43.746000</ele>
        <time>2009-01-05T09:49:49Z</time>
      </trkpt>
      <trkpt lat="27.77688300" lon="-15.6662510">
        <ele>43.819000</ele>
        <time>2009-01-05T09:49:50Z</time>
      </trkpt>
      <trkpt lat="27.77693600" lon="-15.6662340">
        <ele>43.966000</ele>
        <time>2009-01-05T09:49:51Z</time>
      </trkpt>
      <trkpt lat="27.77699000" lon="-15.6662190">
        <ele>43.815000</ele>
        <time>2009-01-05T09:49:52Z</time>
      </trkpt>
      <trkpt lat="27.77704400" lon="-15.6662060">
        <ele>43.904000</ele>
        <time>2009-01-05T09:49:53Z</time>
      </trkpt>
      <trkpt lat="27.77709800" lon="-15.6661950">
        <ele>44.255000</ele>
        <time>2009-01-05T09:49:54Z</time>
      </trkpt>
      <trkpt lat="27.77715300" lon="-15.6661860">
        <ele>44.434000</ele>
        <time>2009-01-05T09:49:55Z</time>
      </trkpt>
      <trkpt lat="27.77720800" lon="-15.6661800">
        <ele>44.700000</ele>
        <time>2009-01-05T09:49:56Z</time>
      </trkpt>
      <trkpt lat="27.77726300" lon="-15.6661760">
        <ele>44.538000</ele>
        <time>2009-01-05T09:49:57Z</time>
      </trkpt>
      <trkpt lat="27.77731900" lon="-15.6661730">
        <ele>44.691000</ele>
        <time>2009-01-05T09:49:58Z</time>
      </trkpt>
      <trkpt lat="27.77737400" lon="-15.6661730">
        <ele>44.804000</ele>
        <time>2009-01-05T09:49:59Z</time>
      </trkpt>
      <trkpt lat="27.77743000" lon="-15.6661730">
        <ele>44.671000</ele>
        <time>2009-01-05T09:50:00Z</time>
      </trkpt>
      <trkpt lat="27.77748700" lon="-15.6661720">
        <ele>44.776000</ele>
        <time>2009-01-05T09:50:01Z</time>
      </trkpt>
      <trkpt lat="27.77754300" lon="-15.6661700">
        <ele>45.211000</ele>
        <time>2009-01-05T09:50:02Z</time>
      </trkpt>
      <trkpt lat="27.77760000" lon="-15.6661700">
        <ele>45.129000</ele>
        <time>2009-01-05T09:50:03Z</time>
      </trkpt>
      <trkpt lat="27.77765700" lon="-15.6661710">
        <ele>45.030000</ele>
        <time>2009-01-05T09:50:04Z</time>
      </trkpt>
      <trkpt lat="27.77771500" lon="-15.6661730">
        <ele>45.159000</ele>
        <time>2009-01-05T09:50:05Z</time>
      </trkpt>
      <trkpt lat="27.77777400" lon="-15.6661730">
        <ele>44.765000</ele>
        <time>2009-01-05T09:50:06Z</time>
      </trkpt>
      <trkpt lat="27.77783300" lon="-15.6661740">
        <ele>45.068000</ele>
        <time>2009-01-05T09:50:07Z</time>
      </trkpt>
      <trkpt lat="27.77789200" lon="-15.6661750">
        <ele>45.276000</ele>
        <time>2009-01-05T09:50:08Z</time>
      </trkpt>
      <trkpt lat="27.77795000" lon="-15.6661760">
        <ele>45.386000</ele>
        <time>2009-01-05T09:50:09Z</time>
      </trkpt>
      <trkpt lat="27.77800900" lon="-15.6661790">
        <ele>45.513000</ele>
        <time>2009-01-05T09:50:10Z</time>
      </trkpt>
      <trkpt lat="27.77806700" lon="-15.6661820">
        <ele>45.707000</ele>
        <time>2009-01-05T09:50:11Z</time>
      </trkpt>
      <trkpt lat="27.77812600" lon="-15.6661860">
        <ele>45.540000</ele>
        <time>2009-01-05T09:50:12Z</time>
      </trkpt>
      <trkpt lat="27.77818500" lon="-15.6661920">
        <ele>45.550000</ele>
        <time>2009-01-05T09:50:13Z</time>
      </trkpt>
      <trkpt lat="27.77824300" lon="-15.6661980">
        <ele>45.544000</ele>
        <time>2009-01-05T09:50:14Z</time>
      </trkpt>
      <trkpt lat="27.77830200" lon="-15.6662060">
        <ele>45.398000</ele>
        <time>2009-01-05T09:50:15Z</time>
      </trkpt>
      <trkpt lat="27.77836100" lon="-15.6662140">
        <ele>45.440000</ele>
        <time>2009-01-05T09:50:16Z</time>
      </trkpt>
      <trkpt lat="27.77841900" lon="-15.6662240">
        <ele>45.666000</ele>
        <time>2009-01-05T09:50:17Z</time>
      </trkpt>
      <trkpt lat="27.77847700" lon="-15.6662350">
        <ele>45.605000</ele>
        <time>2009-01-05T09:50:18Z</time>
      </trkpt>
      <trkpt lat="27.77853500" lon="-15.6662480">
        <ele>45.631000</ele>
        <time>2009-01-05T09:50:19Z</time>
      </trkpt>
      <trkpt lat="27.77859300" lon="-15.6662620">
        <ele>45.535000</ele>
        <time>2009-01-05T09:50:20Z</time>
      </trkpt>
      <trkpt lat="27.77865200" lon="-15.6662760">
        <ele>45.643000</ele>
        <time>2009-01-05T09:50:21Z</time>
      </trkpt>
      <trkpt lat="27.77871100" lon="-15.6662930">
        <ele>45.642000</ele>
        <time>2009-01-05T09:50:22Z</time>
      </trkpt>
      <trkpt lat="27.77876800" lon="-15.6663120">
        <ele>45.958000</ele>
        <time>2009-01-05T09:50:23Z</time>
      </trkpt>
      <trkpt lat="27.77882500" lon="-15.6663370">
        <ele>45.736000</ele>
        <time>2009-01-05T09:50:24Z</time>
      </trkpt>
      <trkpt lat="27.77887800" lon="-15.6663670">
        <ele>45.521000</ele>
        <time>2009-01-05T09:50:25Z</time>
      </trkpt>
      <trkpt lat="27.77893100" lon="-15.6664010">
        <ele>46.048000</ele>
        <time>2009-01-05T09:50:26Z</time>
      </trkpt>
      <trkpt lat="27.77898400" lon="-15.6664370">
        <ele>46.011000</ele>
        <time>2009-01-05T09:50:27Z</time>
      </trkpt>
      <trkpt lat="27.77903700" lon="-15.6664730">
        <ele>46.232000</ele>
        <time>2009-01-05T09:50:28Z</time>
      </trkpt>
      <trkpt lat="27.77908800" lon="-15.6665100">
        <ele>46.125000</ele>
        <time>2009-01-05T09:50:29Z</time>
      </trkpt>
      <trkpt lat="27.77913800" lon="-15.6665480">
        <ele>46.156000</ele>
        <time>2009-01-05T09:50:30Z</time>
      </trkpt>
      <trkpt lat="27.77918600" lon="-15.6665860">
        <ele>46.243000</ele>
        <time>2009-01-05T09:50:31Z</time>
      </trkpt>
      <trkpt lat="27.77923300" lon="-15.6666260">
        <ele>46.263000</ele>
        <time>2009-01-05T09:50:32Z</time>
      </trkpt>
      <trkpt lat="27.77927900" lon="-15.6666660">
        <ele>46.688000</ele>
        <time>2009-01-05T09:50:33Z</time>
      </trkpt>
      <trkpt lat="27.77932500" lon="-15.6667040">
        <ele>46.616000</ele>
        <time>2009-01-05T09:50:34Z</time>
      </trkpt>
      <trkpt lat="27.77936900" lon="-15.6667420">
        <ele>46.943000</ele>
        <time>2009-01-05T09:50:35Z</time>
      </trkpt>
      <trkpt lat="27.77941400" lon="-15.6667800">
        <ele>46.559000</ele>
        <time>2009-01-05T09:50:36Z</time>
      </trkpt>
      <trkpt lat="27.77945900" lon="-15.6668180">
        <ele>46.788000</ele>
        <time>2009-01-05T09:50:37Z</time>
      </trkpt>
      <trkpt lat="27.77950200" lon="-15.6668580">
        <ele>46.925000</ele>
        <time>2009-01-05T09:50:38Z</time>
      </trkpt>
      <trkpt lat="27.77954700" lon="-15.6668970">
        <ele>46.610000</ele>
        <time>2009-01-05T09:50:39Z</time>
      </trkpt>
      <trkpt lat="27.77959200" lon="-15.6669370">
        <ele>47.040000</ele>
        <time>2009-01-05T09:50:40Z</time>
      </trkpt>
      <trkpt lat="27.77963700" lon="-15.6669760">
        <ele>47.219000</ele>
        <time>2009-01-05T09:50:41Z</time>
      </trkpt>
      <trkpt lat="27.77968100" lon="-15.6670150">
        <ele>46.973000</ele>
        <time>2009-01-05T09:50:42Z</time>
      </trkpt>
      <trkpt lat="27.77972500" lon="-15.6670560">
        <ele>46.859000</ele>
        <time>2009-01-05T09:50:43Z</time>
      </trkpt>
      <trkpt lat="27.77976800" lon="-15.6670970">
        <ele>47.088000</ele>
        <time>2009-01-05T09:50:44Z</time>
      </trkpt>
      <trkpt lat="27.77981100" lon="-15.6671400">
        <ele>47.048000</ele>
        <time>2009-01-05T09:50:45Z</time>
      </trkpt>
      <trkpt lat="27.77985300" lon="-15.6671830">
        <ele>47.047000</ele>
        <time>2009-01-05T09:50:46Z</time>
      </trkpt>
      <trkpt lat="27.77989500" lon="-15.6672270">
        <ele>47.250000</ele>
        <time>2009-01-05T09:50:47Z</time>
      </trkpt>
      <trkpt lat="27.77993800" lon="-15.6672720">
        <ele>47.480000</ele>
        <time>2009-01-05T09:50:48Z</time>
      </trkpt>
      <trkpt lat="27.77998000" lon="-15.6673170">
        <ele>47.371000</ele>
        <time>2009-01-05T09:50:49Z</time>
      </trkpt>
      <trkpt lat="27.78002300" lon="-15.6673620">
        <ele>47.344000</ele>
        <time>2009-01-05T09:50:50Z</time>
      </trkpt>
      <trkpt lat="27.78006500" lon="-15.6674070">
        <ele>47.563000</ele>
        <time>2009-01-05T09:50:51Z</time>
      </trkpt>
      <trkpt lat="27.78010600" lon="-15.6674520">
        <ele>47.652000</ele>
        <time>2009-01-05T09:50:52Z</time>
      </trkpt>
      <trkpt lat="27.78014600" lon="-15.6674990">
        <ele>47.747000</ele>
        <time>2009-01-05T09:50:53Z</time>
      </trkpt>
      <trkpt lat="27.78018600" lon="-15.6675460">
        <ele>47.635000</ele>
        <time>2009-01-05T09:50:54Z</time>
      </trkpt>
      <trkpt lat="27.78022500" lon="-15.6675940">
        <ele>47.962000</ele>
        <time>2009-01-05T09:50:55Z</time>
      </trkpt>
      <trkpt lat="27.78026300" lon="-15.6676410">
        <ele>48.218000</ele>
        <time>2009-01-05T09:50:56Z</time>
      </trkpt>
      <trkpt lat="27.78030200" lon="-15.6676880">
        <ele>48.270000</ele>
        <time>2009-01-05T09:50:57Z</time>
      </trkpt>
      <trkpt lat="27.78034000" lon="-15.6677350">
        <ele>48.021000</ele>
        <time>2009-01-05T09:50:58Z</time>
      </trkpt>
      <trkpt lat="27.78037900" lon="-15.6677810">
        <ele>47.988000</ele>
        <time>2009-01-05T09:50:59Z</time>
      </trkpt>
      <trkpt lat="27.78041600" lon="-15.6678280">
        <ele>48.094000</ele>
        <time>2009-01-05T09:51:00Z</time>
      </trkpt>
      <trkpt lat="27.78045300" lon="-15.6678770">
        <ele>48.508000</ele>
        <time>2009-01-05T09:51:01Z</time>
      </trkpt>
      <trkpt lat="27.78049000" lon="-15.6679270">
        <ele>48.484000</ele>
        <time>2009-01-05T09:51:02Z</time>
      </trkpt>
      <trkpt lat="27.78052900" lon="-15.6679760">
        <ele>48.050000</ele>
        <time>2009-01-05T09:51:03Z</time>
      </trkpt>
      <trkpt lat="27.78056700" lon="-15.6680250">
        <ele>48.313000</ele>
        <time>2009-01-05T09:51:04Z</time>
      </trkpt>
      <trkpt lat="27.78060500" lon="-15.6680740">
        <ele>48.617000</ele>
        <time>2009-01-05T09:51:05Z</time>
      </trkpt>
      <trkpt lat="27.78064200" lon="-15.6681240">
        <ele>48.630000</ele>
        <time>2009-01-05T09:51:06Z</time>
      </trkpt>
      <trkpt lat="27.78067700" lon="-15.6681760">
        <ele>48.519000</ele>
        <time>2009-01-05T09:51:07Z</time>
      </trkpt>
      <trkpt lat="27.78071200" lon="-15.6682290">
        <ele>48.648000</ele>
        <time>2009-01-05T09:51:08Z</time>
      </trkpt>
      <trkpt lat="27.78074700" lon="-15.6682810">
        <ele>48.664000</ele>
        <time>2009-01-05T09:51:09Z</time>
      </trkpt>
      <trkpt lat="27.78078200" lon="-15.6683340">
        <ele>48.727000</ele>
        <time>2009-01-05T09:51:10Z</time>
      </trkpt>
      <trkpt lat="27.78081600" lon="-15.6683890">
        <ele>48.957000</ele>
        <time>2009-01-05T09:51:11Z</time>
      </trkpt>
      <trkpt lat="27.78084900" lon="-15.6684430">
        <ele>48.852000</ele>
        <time>2009-01-05T09:51:12Z</time>
      </trkpt>
      <trkpt lat="27.78088100" lon="-15.6684970">
        <ele>48.947000</ele>
        <time>2009-01-05T09:51:13Z</time>
      </trkpt>
      <trkpt lat="27.78091500" lon="-15.6685510">
        <ele>49.039000</ele>
        <time>2009-01-05T09:51:14Z</time>
      </trkpt>
      <trkpt lat="27.78094900" lon="-15.6686050">
        <ele>49.475000</ele>
        <time>2009-01-05T09:51:15Z</time>
      </trkpt>
      <trkpt lat="27.78098200" lon="-15.6686600">
        <ele>49.396000</ele>
        <time>2009-01-05T09:51:16Z</time>
      </trkpt>
      <trkpt lat="27.78101400" lon="-15.6687150">
        <ele>49.375000</ele>
        <time>2009-01-05T09:51:17Z</time>
      </trkpt>
      <trkpt lat="27.78104500" lon="-15.6687710">
        <ele>49.508000</ele>
        <time>2009-01-05T09:51:18Z</time>
      </trkpt>
      <trkpt lat="27.78107800" lon="-15.6688270">
        <ele>49.569000</ele>
        <time>2009-01-05T09:51:19Z</time>
      </trkpt>
      <trkpt lat="27.78111000" lon="-15.6688830">
        <ele>49.778000</ele>
        <time>2009-01-05T09:51:20Z</time>
      </trkpt>
      <trkpt lat="27.78114100" lon="-15.6689400">
        <ele>49.588000</ele>
        <time>2009-01-05T09:51:21Z</time>
      </trkpt>
      <trkpt lat="27.78117300" lon="-15.6689960">
        <ele>49.506000</ele>
        <time>2009-01-05T09:51:22Z</time>
      </trkpt>
      <trkpt lat="27.78120600" lon="-15.6690510">
        <ele>49.776000</ele>
        <time>2009-01-05T09:51:23Z</time>
      </trkpt>
      <trkpt lat="27.78124200" lon="-15.6691040">
        <ele>49.610000</ele>
        <time>2009-01-05T09:51:24Z</time>
      </trkpt>
      <trkpt lat="27.78127900" lon="-15.6691560">
        <ele>49.700000</ele>
        <time>2009-01-05T09:51:25Z</time>
      </trkpt>
      <trkpt lat="27.78131800" lon="-15.6692070">
        <ele>49.957000</ele>
        <time>2009-01-05T09:51:26Z</time>
      </trkpt>
      <trkpt lat="27.78135800" lon="-15.6692550">
        <ele>49.973000</ele>
        <time>2009-01-05T09:51:27Z</time>
      </trkpt>
      <trkpt lat="27.78139900" lon="-15.6693030">
        <ele>49.855000</ele>
        <time>2009-01-05T09:51:28Z</time>
      </trkpt>
      <trkpt lat="27.78144100" lon="-15.6693490">
        <ele>50.223000</ele>
        <time>2009-01-05T09:51:29Z</time>
      </trkpt>
      <trkpt lat="27.78148300" lon="-15.6693940">
        <ele>50.353000</ele>
        <time>2009-01-05T09:51:30Z</time>
      </trkpt>
      <trkpt lat="27.78152600" lon="-15.6694390">
        <ele>50.734000</ele>
        <time>2009-01-05T09:51:31Z</time>
      </trkpt>
      <trkpt lat="27.78157000" lon="-15.6694820">
        <ele>51.242000</ele>
        <time>2009-01-05T09:51:32Z</time>
      </trkpt>
      <trkpt lat="27.78161300" lon="-15.6695240">
        <ele>50.986000</ele>
        <time>2009-01-05T09:51:33Z</time>
      </trkpt>
      <trkpt lat="27.78165700" lon="-15.6695670">
        <ele>51.044000</ele>
        <time>2009-01-05T09:51:34Z</time>
      </trkpt>
      <trkpt lat="27.78169900" lon="-15.6696100">
        <ele>51.465000</ele>
        <time>2009-01-05T09:51:35Z</time>
      </trkpt>
      <trkpt lat="27.78174100" lon="-15.6696530">
        <ele>51.566000</ele>
        <time>2009-01-05T09:51:36Z</time>
      </trkpt>
      <trkpt lat="27.78178300" lon="-15.6696950">
        <ele>51.736000</ele>
        <time>2009-01-05T09:51:37Z</time>
      </trkpt>
      <trkpt lat="27.78182500" lon="-15.6697370">
        <ele>51.768000</ele>
        <time>2009-01-05T09:51:38Z</time>
      </trkpt>
      <trkpt lat="27.78186800" lon="-15.6697780">
        <ele>52.394000</ele>
        <time>2009-01-05T09:51:39Z</time>
      </trkpt>
      <trkpt lat="27.78191100" lon="-15.6698190">
        <ele>52.310000</ele>
        <time>2009-01-05T09:51:40Z</time>
      </trkpt>
      <trkpt lat="27.78195600" lon="-15.6698560">
        <ele>52.152000</ele>
        <time>2009-01-05T09:51:41Z</time>
      </trkpt>
      <trkpt lat="27.78200300" lon="-15.6698920">
        <ele>52.353000</ele>
        <time>2009-01-05T09:51:42Z</time>
      </trkpt>
      <trkpt lat="27.78205100" lon="-15.6699260">
        <ele>52.560000</ele>
        <time>2009-01-05T09:51:43Z</time>
      </trkpt>
      <trkpt lat="27.78210100" lon="-15.6699560">
        <ele>52.359000</ele>
        <time>2009-01-05T09:51:44Z</time>
      </trkpt>
      <trkpt lat="27.78215300" lon="-15.6699830">
        <ele>52.235000</ele>
        <time>2009-01-05T09:51:45Z</time>
      </trkpt>
      <trkpt lat="27.78220600" lon="-15.6700070">
        <ele>52.461000</ele>
        <time>2009-01-05T09:51:46Z</time>
      </trkpt>
      <trkpt lat="27.78226000" lon="-15.6700290">
        <ele>52.834000</ele>
        <time>2009-01-05T09:51:47Z</time>
      </trkpt>
      <trkpt lat="27.78231400" lon="-15.6700500">
        <ele>53.006000</ele>
        <time>2009-01-05T09:51:48Z</time>
      </trkpt>
      <trkpt lat="27.78236800" lon="-15.6700700">
        <ele>52.964000</ele>
        <time>2009-01-05T09:51:49Z</time>
      </trkpt>
      <trkpt lat="27.78242300" lon="-15.6700900">
        <ele>53.001000</ele>
        <time>2009-01-05T09:51:50Z</time>
      </trkpt>
      <trkpt lat="27.78247900" lon="-15.6701090">
        <ele>52.893000</ele>
        <time>2009-01-05T09:51:51Z</time>
      </trkpt>
      <trkpt lat="27.78253500" lon="-15.6701280">
        <ele>53.137000</ele>
        <time>2009-01-05T09:51:52Z</time>
      </trkpt>
      <trkpt lat="27.78259100" lon="-15.6701480">
        <ele>53.079000</ele>
        <time>2009-01-05T09:51:53Z</time>
      </trkpt>
      <trkpt lat="27.78264600" lon="-15.6701700">
        <ele>53.068000</ele>
        <time>2009-01-05T09:51:54Z</time>
      </trkpt>
      <trkpt lat="27.78270200" lon="-15.6701920">
        <ele>53.325000</ele>
        <time>2009-01-05T09:51:55Z</time>
      </trkpt>
      <trkpt lat="27.78275800" lon="-15.6702110">
        <ele>53.394000</ele>
        <time>2009-01-05T09:51:56Z</time>
      </trkpt>
      <trkpt lat="27.78281600" lon="-15.6702240">
        <ele>53.497000</ele>
        <time>2009-01-05T09:51:57Z</time>
      </trkpt>
      <trkpt lat="27.78287600" lon="-15.6702300">
        <ele>53.198000</ele>
        <time>2009-01-05T09:51:58Z</time>
      </trkpt>
      <trkpt lat="27.78293500" lon="-15.6702290">
        <ele>53.338000</ele>
        <time>2009-01-05T09:51:59Z</time>
      </trkpt>
      <trkpt lat="27.78299400" lon="-15.6702240">
        <ele>53.204000</ele>
        <time>2009-01-05T09:52:00Z</time>
      </trkpt>
      <trkpt lat="27.78305300" lon="-15.6702160">
        <ele>53.505000</ele>
        <time>2009-01-05T09:52:01Z</time>
      </trkpt>
      <trkpt lat="27.78311100" lon="-15.6702060">
        <ele>53.722000</ele>
        <time>2009-01-05T09:52:02Z</time>
      </trkpt>
      <trkpt lat="27.78317000" lon="-15.6701940">
        <ele>53.870000</ele>
        <time>2009-01-05T09:52:03Z</time>
      </trkpt>
      <trkpt lat="27.78322800" lon="-15.6701800">
        <ele>53.798000</ele>
        <time>2009-01-05T09:52:04Z</time>
      </trkpt>
      <trkpt lat="27.78328500" lon="-15.6701630">
        <ele>53.796000</ele>
        <time>2009-01-05T09:52:05Z</time>
      </trkpt>
      <trkpt lat="27.78334000" lon="-15.6701440">
        <ele>54.049000</ele>
        <time>2009-01-05T09:52:06Z</time>
      </trkpt>
      <trkpt lat="27.78339600" lon="-15.6701230">
        <ele>53.861000</ele>
        <time>2009-01-05T09:52:07Z</time>
      </trkpt>
      <trkpt lat="27.78345100" lon="-15.6701010">
        <ele>53.850000</ele>
        <time>2009-01-05T09:52:08Z</time>
      </trkpt>
      <trkpt lat="27.78350500" lon="-15.6700780">
        <ele>54.167000</ele>
        <time>2009-01-05T09:52:09Z</time>
      </trkpt>
      <trkpt lat="27.78355900" lon="-15.6700540">
        <ele>54.035000</ele>
        <time>2009-01-05T09:52:10Z</time>
      </trkpt>
      <trkpt lat="27.78361300" lon="-15.6700300">
        <ele>54.616000</ele>
        <time>2009-01-05T09:52:11Z</time>
      </trkpt>
      <trkpt lat="27.78366600" lon="-15.6700060">
        <ele>54.645000</ele>
        <time>2009-01-05T09:52:12Z</time>
      </trkpt>
      <trkpt lat="27.78371800" lon="-15.6699820">
        <ele>54.631000</ele>
        <time>2009-01-05T09:52:13Z</time>
      </trkpt>
      <trkpt lat="27.78376900" lon="-15.6699570">
        <ele>54.536000</ele>
        <time>2009-01-05T09:52:14Z</time>
      </trkpt>
      <trkpt lat="27.78382000" lon="-15.6699320">
        <ele>54.617000</ele>
        <time>2009-01-05T09:52:15Z</time>
      </trkpt>
      <trkpt lat="27.78387100" lon="-15.6699070">
        <ele>54.725000</ele>
        <time>2009-01-05T09:52:16Z</time>
      </trkpt>
      <trkpt lat="27.78392200" lon="-15.6698840">
        <ele>54.963000</ele>
        <time>2009-01-05T09:52:17Z</time>
      </trkpt>
      <trkpt lat="27.78397300" lon="-15.6698590">
        <ele>54.693000</ele>
        <time>2009-01-05T09:52:18Z</time>
      </trkpt>
      <trkpt lat="27.78402500" lon="-15.6698340">
        <ele>54.893000</ele>
        <time>2009-01-05T09:52:19Z</time>
      </trkpt>
      <trkpt lat="27.78407700" lon="-15.6698130">
        <ele>54.896000</ele>
        <time>2009-01-05T09:52:20Z</time>
      </trkpt>
      <trkpt lat="27.78413200" lon="-15.6697950">
        <ele>54.991000</ele>
        <time>2009-01-05T09:52:21Z</time>
      </trkpt>
      <trkpt lat="27.78418600" lon="-15.6697800">
        <ele>55.381000</ele>
        <time>2009-01-05T09:52:22Z</time>
      </trkpt>
      <trkpt lat="27.78424200" lon="-15.6697670">
        <ele>55.360000</ele>
        <time>2009-01-05T09:52:23Z</time>
      </trkpt>
      <trkpt lat="27.78429800" lon="-15.6697550">
        <ele>55.542000</ele>
        <time>2009-01-05T09:52:24Z</time>
      </trkpt>
      <trkpt lat="27.78435500" lon="-15.6697430">
        <ele>55.339000</ele>
        <time>2009-01-05T09:52:25Z</time>
      </trkpt>
      <trkpt lat="27.78441200" lon="-15.6697320">
        <ele>55.420000</ele>
        <time>2009-01-05T09:52:26Z</time>
      </trkpt>
      <trkpt lat="27.78447000" lon="-15.6697230">
        <ele>55.446000</ele>
        <time>2009-01-05T09:52:27Z</time>
      </trkpt>
      <trkpt lat="27.78452800" lon="-15.6697150">
        <ele>55.845000</ele>
        <time>2009-01-05T09:52:28Z</time>
      </trkpt>
      <trkpt lat="27.78458500" lon="-15.6697080">
        <ele>55.745000</ele>
        <time>2009-01-05T09:52:29Z</time>
      </trkpt>
      <trkpt lat="27.78464300" lon="-15.6697020">
        <ele>55.824000</ele>
        <time>2009-01-05T09:52:30Z</time>
      </trkpt>
      <trkpt lat="27.78470000" lon="-15.6696950">
        <ele>55.760000</ele>
        <time>2009-01-05T09:52:31Z</time>
      </trkpt>
      <trkpt lat="27.78475600" lon="-15.6696890">
        <ele>55.746000</ele>
        <time>2009-01-05T09:52:32Z</time>
      </trkpt>
      <trkpt lat="27.78481200" lon="-15.6696830">
        <ele>55.841000</ele>
        <time>2009-01-05T09:52:33Z</time>
      </trkpt>
      <trkpt lat="27.78486800" lon="-15.6696770">
        <ele>56.433000</ele>
        <time>2009-01-05T09:52:34Z</time>
      </trkpt>
      <trkpt lat="27.78492400" lon="-15.6696700">
        <ele>56.145000</ele>
        <time>2009-01-05T09:52:35Z</time>
      </trkpt>
      <trkpt lat="27.78497900" lon="-15.6696630">
        <ele>56.599000</ele>
        <time>2009-01-05T09:52:36Z</time>
      </trkpt>
      <trkpt lat="27.78503300" lon="-15.6696560">
        <ele>56.514000</ele>
        <time>2009-01-05T09:52:37Z</time>
      </trkpt>
      <trkpt lat="27.78508700" lon="-15.6696480">
        <ele>56.556000</ele>
        <time>2009-01-05T09:52:38Z</time>
      </trkpt>
      <trkpt lat="27.78514000" lon="-15.6696410">
        <ele>56.926000</ele>
        <time>2009-01-05T09:52:39Z</time>
      </trkpt>
      <trkpt lat="27.78519400" lon="-15.6696330">
        <ele>56.648000</ele>
        <time>2009-01-05T09:52:40Z</time>
      </trkpt>
      <trkpt lat="27.78524800" lon="-15.6696250">
        <ele>57.102000</ele>
        <time>2009-01-05T09:52:41Z</time>
      </trkpt>
      <trkpt lat="27.78530100" lon="-15.6696180">
        <ele>57.081000</ele>
        <time>2009-01-05T09:52:42Z</time>
      </trkpt>
      <trkpt lat="27.78535500" lon="-15.6696120">
        <ele>57.535000</ele>
        <time>2009-01-05T09:52:43Z</time>
      </trkpt>
      <trkpt lat="27.78540900" lon="-15.6696060">
        <ele>57.632000</ele>
        <time>2009-01-05T09:52:44Z</time>
      </trkpt>
      <trkpt lat="27.78546300" lon="-15.6696020">
        <ele>57.547000</ele>
        <time>2009-01-05T09:52:45Z</time>
      </trkpt>
      <trkpt lat="27.78551800" lon="-15.6695970">
        <ele>57.415000</ele>
        <time>2009-01-05T09:52:46Z</time>
      </trkpt>
      <trkpt lat="27.78557300" lon="-15.6695930">
        <ele>57.459000</ele>
        <time>2009-01-05T09:52:47Z</time>
      </trkpt>
      <trkpt lat="27.78562900" lon="-15.6695890">
        <ele>57.044000</ele>
        <time>2009-01-05T09:52:48Z</time>
      </trkpt>
      <trkpt lat="27.78568700" lon="-15.6695850">
        <ele>57.065000</ele>
        <time>2009-01-05T09:52:49Z</time>
      </trkpt>
      <trkpt lat="27.78574600" lon="-15.6695800">
        <ele>57.232000</ele>
        <time>2009-01-05T09:52:50Z</time>
      </trkpt>
      <trkpt lat="27.78580500" lon="-15.6695750">
        <ele>57.427000</ele>
        <time>2009-01-05T09:52:51Z</time>
      </trkpt>
      <trkpt lat="27.78586500" lon="-15.6695700">
        <ele>57.430000</ele>
        <time>2009-01-05T09:52:52Z</time>
      </trkpt>
      <trkpt lat="27.78592500" lon="-15.6695640">
        <ele>57.628000</ele>
        <time>2009-01-05T09:52:53Z</time>
      </trkpt>
      <trkpt lat="27.78598400" lon="-15.6695580">
        <ele>57.457000</ele>
        <time>2009-01-05T09:52:54Z</time>
      </trkpt>
      <trkpt lat="27.78604300" lon="-15.6695510">
        <ele>57.430000</ele>
        <time>2009-01-05T09:52:55Z</time>
      </trkpt>
      <trkpt lat="27.78610100" lon="-15.6695430">
        <ele>57.919000</ele>
        <time>2009-01-05T09:52:56Z</time>
      </trkpt>
      <trkpt lat="27.78616000" lon="-15.6695340">
        <ele>58.255000</ele>
        <time>2009-01-05T09:52:57Z</time>
      </trkpt>
      <trkpt lat="27.78621800" lon="-15.6695260">
        <ele>58.115000</ele>
        <time>2009-01-05T09:52:58Z</time>
      </trkpt>
      <trkpt lat="27.78627700" lon="-15.6695190">
        <ele>58.075000</ele>
        <time>2009-01-05T09:52:59Z</time>
      </trkpt>
      <trkpt lat="27.78633400" lon="-15.6695120">
        <ele>58.823000</ele>
        <time>2009-01-05T09:53:00Z</time>
      </trkpt>
      <trkpt lat="27.78639100" lon="-15.6695070">
        <ele>58.392000</ele>
        <time>2009-01-05T09:53:01Z</time>
      </trkpt>
      <trkpt lat="27.78644800" lon="-15.6695020">
        <ele>58.146000</ele>
        <time>2009-01-05T09:53:02Z</time>
      </trkpt>
      <trkpt lat="27.78650500" lon="-15.6694990">
        <ele>58.273000</ele>
        <time>2009-01-05T09:53:03Z</time>
      </trkpt>
      <trkpt lat="27.78656300" lon="-15.6694940">
        <ele>58.218000</ele>
        <time>2009-01-05T09:53:04Z</time>
      </trkpt>
      <trkpt lat="27.78662100" lon="-15.6694890">
        <ele>58.255000</ele>
        <time>2009-01-05T09:53:05Z</time>
      </trkpt>
      <trkpt lat="27.78668000" lon="-15.6694830">
        <ele>58.284000</ele>
        <time>2009-01-05T09:53:06Z</time>
      </trkpt>
      <trkpt lat="27.78674000" lon="-15.6694780">
        <ele>58.329000</ele>
        <time>2009-01-05T09:53:07Z</time>
      </trkpt>
      <trkpt lat="27.78679900" lon="-15.6694720">
        <ele>58.475000</ele>
        <time>2009-01-05T09:53:08Z</time>
      </trkpt>
      <trkpt lat="27.78685900" lon="-15.6694670">
        <ele>58.565000</ele>
        <time>2009-01-05T09:53:09Z</time>
      </trkpt>
      <trkpt lat="27.78691800" lon="-15.6694620">
        <ele>58.674000</ele>
        <time>2009-01-05T09:53:10Z</time>
      </trkpt>
      <trkpt lat="27.78697800" lon="-15.6694580">
        <ele>58.471000</ele>
        <time>2009-01-05T09:53:11Z</time>
      </trkpt>
      <trkpt lat="27.78703700" lon="-15.6694550">
        <ele>58.788000</ele>
        <time>2009-01-05T09:53:12Z</time>
      </trkpt>
      <trkpt lat="27.78709600" lon="-15.6694510">
        <ele>58.781000</ele>
        <time>2009-01-05T09:53:13Z</time>
      </trkpt>
      <trkpt lat="27.78715400" lon="-15.6694470">
        <ele>58.639000</ele>
        <time>2009-01-05T09:53:14Z</time>
      </trkpt>
      <trkpt lat="27.78721300" lon="-15.6694420">
        <ele>59.030000</ele>
        <time>2009-01-05T09:53:15Z</time>
      </trkpt>
      <trkpt lat="27.78727100" lon="-15.6694380">
        <ele>58.957000</ele>
        <time>2009-01-05T09:53:16Z</time>
      </trkpt>
      <trkpt lat="27.78732800" lon="-15.6694340">
        <ele>59.055000</ele>
        <time>2009-01-05T09:53:17Z</time>
      </trkpt>
      <trkpt lat="27.78738400" lon="-15.6694310">
        <ele>59.063000</ele>
        <time>2009-01-05T09:53:18Z</time>
      </trkpt>
      <trkpt lat="27.78744000" lon="-15.6694260">
        <ele>59.378000</ele>
        <time>2009-01-05T09:53:19Z</time>
      </trkpt>
      <trkpt lat="27.78749500" lon="-15.6694220">
        <ele>59.197000</ele>
        <time>2009-01-05T09:53:20Z</time>
      </trkpt>
      <trkpt lat="27.78755000" lon="-15.6694180">
        <ele>59.353000</ele>
        <time>2009-01-05T09:53:21Z</time>
      </trkpt>
      <trkpt lat="27.78760400" lon="-15.6694150">
        <ele>59.491000</ele>
        <time>2009-01-05T09:53:22Z</time>
      </trkpt>
      <trkpt lat="27.78765800" lon="-15.6694120">
        <ele>59.627000</ele>
        <time>2009-01-05T09:53:23Z</time>
      </trkpt>
      <trkpt lat="27.78771300" lon="-15.6694090">
        <ele>59.566000</ele>
        <time>2009-01-05T09:53:24Z</time>
      </trkpt>
      <trkpt lat="27.78776800" lon="-15.6694070">
        <ele>59.773000</ele>
        <time>2009-01-05T09:53:25Z</time>
      </trkpt>
      <trkpt lat="27.78782300" lon="-15.6694050">
        <ele>60.046000</ele>
        <time>2009-01-05T09:53:26Z</time>
      </trkpt>
      <trkpt lat="27.78787800" lon="-15.6694050">
        <ele>59.936000</ele>
        <time>2009-01-05T09:53:27Z</time>
      </trkpt>
      <trkpt lat="27.78793200" lon="-15.6694040">
        <ele>60.066000</ele>
        <time>2009-01-05T09:53:28Z</time>
      </trkpt>
      <trkpt lat="27.78798700" lon="-15.6694040">
        <ele>60.016000</ele>
        <time>2009-01-05T09:53:29Z</time>
      </trkpt>
      <trkpt lat="27.78804200" lon="-15.6694040">
        <ele>60.300000</ele>
        <time>2009-01-05T09:53:30Z</time>
      </trkpt>
      <trkpt lat="27.78809800" lon="-15.6694040">
        <ele>60.287000</ele>
        <time>2009-01-05T09:53:31Z</time>
      </trkpt>
      <trkpt lat="27.78815400" lon="-15.6694050">
        <ele>60.171000</ele>
        <time>2009-01-05T09:53:32Z</time>
      </trkpt>
      <trkpt lat="27.78821000" lon="-15.6694060">
        <ele>60.550000</ele>
        <time>2009-01-05T09:53:33Z</time>
      </trkpt>
      <trkpt lat="27.78826700" lon="-15.6694070">
        <ele>60.389000</ele>
        <time>2009-01-05T09:53:34Z</time>
      </trkpt>
      <trkpt lat="27.78832500" lon="-15.6694090">
        <ele>60.466000</ele>
        <time>2009-01-05T09:53:35Z</time>
      </trkpt>
      <trkpt lat="27.78838200" lon="-15.6694140">
        <ele>60.147000</ele>
        <time>2009-01-05T09:53:36Z</time>
      </trkpt>
      <trkpt lat="27.78844000" lon="-15.6694210">
        <ele>60.391000</ele>
        <time>2009-01-05T09:53:37Z</time>
      </trkpt>
      <trkpt lat="27.78849800" lon="-15.6694300">
        <ele>60.431000</ele>
        <time>2009-01-05T09:53:38Z</time>
      </trkpt>
      <trkpt lat="27.78855500" lon="-15.6694400">
        <ele>60.376000</ele>
        <time>2009-01-05T09:53:39Z</time>
      </trkpt>
      <trkpt lat="27.78861100" lon="-15.6694530">
        <ele>60.540000</ele>
        <time>2009-01-05T09:53:40Z</time>
      </trkpt>
      <trkpt lat="27.78866700" lon="-15.6694690">
        <ele>60.543000</ele>
        <time>2009-01-05T09:53:41Z</time>
      </trkpt>
      <trkpt lat="27.78872200" lon="-15.6694880">
        <ele>60.602000</ele>
        <time>2009-01-05T09:53:42Z</time>
      </trkpt>
      <trkpt lat="27.78877700" lon="-15.6695120">
        <ele>60.703000</ele>
        <time>2009-01-05T09:53:43Z</time>
      </trkpt>
      <trkpt lat="27.78883000" lon="-15.6695380">
        <ele>60.637000</ele>
        <time>2009-01-05T09:53:44Z</time>
      </trkpt>
      <trkpt lat="27.78888100" lon="-15.6695690">
        <ele>60.915000</ele>
        <time>2009-01-05T09:53:45Z</time>
      </trkpt>
      <trkpt lat="27.78893100" lon="-15.6696030">
        <ele>60.886000</ele>
        <time>2009-01-05T09:53:46Z</time>
      </trkpt>
      <trkpt lat="27.78898000" lon="-15.6696390">
        <ele>60.939000</ele>
        <time>2009-01-05T09:53:47Z</time>
      </trkpt>
      <trkpt lat="27.78902800" lon="-15.6696760">
        <ele>60.973000</ele>
        <time>2009-01-05T09:53:48Z</time>
      </trkpt>
      <trkpt lat="27.78907600" lon="-15.6697120">
        <ele>60.979000</ele>
        <time>2009-01-05T09:53:49Z</time>
      </trkpt>
      <trkpt lat="27.78912300" lon="-15.6697480">
        <ele>61.381000</ele>
        <time>2009-01-05T09:53:50Z</time>
      </trkpt>
      <trkpt lat="27.78917100" lon="-15.6697840">
        <ele>61.254000</ele>
        <time>2009-01-05T09:53:51Z</time>
      </trkpt>
      <trkpt lat="27.78921900" lon="-15.6698190">
        <ele>61.508000</ele>
        <time>2009-01-05T09:53:52Z</time>
      </trkpt>
      <trkpt lat="27.78926500" lon="-15.6698530">
        <ele>61.466000</ele>
        <time>2009-01-05T09:53:53Z</time>
      </trkpt>
      <trkpt lat="27.78931200" lon="-15.6698870">
        <ele>61.770000</ele>
        <time>2009-01-05T09:53:54Z</time>
      </trkpt>
      <trkpt lat="27.78935700" lon="-15.6699210">
        <ele>62.116000</ele>
        <time>2009-01-05T09:53:55Z</time>
      </trkpt>
      <trkpt lat="27.78940300" lon="-15.6699550">
        <ele>62.024000</ele>
        <time>2009-01-05T09:53:56Z</time>
      </trkpt>
      <trkpt lat="27.78944700" lon="-15.6699890">
        <ele>62.496000</ele>
        <time>2009-01-05T09:53:57Z</time>
      </trkpt>
      <trkpt lat="27.78949100" lon="-15.6700230">
        <ele>62.113000</ele>
        <time>2009-01-05T09:53:58Z</time>
      </trkpt>
      <trkpt lat="27.78953400" lon="-15.6700570">
        <ele>62.232000</ele>
        <time>2009-01-05T09:53:59Z</time>
      </trkpt>
      <trkpt lat="27.78957700" lon="-15.6700900">
        <ele>62.161000</ele>
        <time>2009-01-05T09:54:00Z</time>
      </trkpt>
      <trkpt lat="27.78962000" lon="-15.6701230">
        <ele>62.222000</ele>
        <time>2009-01-05T09:54:01Z</time>
      </trkpt>
      <trkpt lat="27.78966200" lon="-15.6701580">
        <ele>62.272000</ele>
        <time>2009-01-05T09:54:02Z</time>
      </trkpt>
      <trkpt lat="27.78970500" lon="-15.6701930">
        <ele>62.468000</ele>
        <time>2009-01-05T09:54:03Z</time>
      </trkpt>
      <trkpt lat="27.78974700" lon="-15.6702280">
        <ele>62.888000</ele>
        <time>2009-01-05T09:54:04Z</time>
      </trkpt>
      <trkpt lat="27.78979100" lon="-15.6702650">
        <ele>63.047000</ele>
        <time>2009-01-05T09:54:05Z</time>
      </trkpt>
      <trkpt lat="27.78983600" lon="-15.6703010">
        <ele>62.746000</ele>
        <time>2009-01-05T09:54:06Z</time>
      </trkpt>
      <trkpt lat="27.78988100" lon="-15.6703360">
        <ele>63.375000</ele>
        <time>2009-01-05T09:54:07Z</time>
      </trkpt>
      <trkpt lat="27.78992600" lon="-15.6703720">
        <ele>62.982000</ele>
        <time>2009-01-05T09:54:08Z</time>
      </trkpt>
      <trkpt lat="27.78997000" lon="-15.6704080">
        <ele>63.206000</ele>
        <time>2009-01-05T09:54:09Z</time>
      </trkpt>
      <trkpt lat="27.79001400" lon="-15.6704430">
        <ele>63.140000</ele>
        <time>2009-01-05T09:54:10Z</time>
      </trkpt>
      <trkpt lat="27.79005900" lon="-15.6704780">
        <ele>63.178000</ele>
        <time>2009-01-05T09:54:11Z</time>
      </trkpt>
      <trkpt lat="27.79010500" lon="-15.6705100">
        <ele>63.326000</ele>
        <time>2009-01-05T09:54:12Z</time>
      </trkpt>
      <trkpt lat="27.79015300" lon="-15.6705420">
        <ele>63.585000</ele>
        <time>2009-01-05T09:54:13Z</time>
      </trkpt>
      <trkpt lat="27.79020100" lon="-15.6705720">
        <ele>63.665000</ele>
        <time>2009-01-05T09:54:14Z</time>
      </trkpt>
      <trkpt lat="27.79024900" lon="-15.6706010">
        <ele>63.636000</ele>
        <time>2009-01-05T09:54:15Z</time>
      </trkpt>
      <trkpt lat="27.79029900" lon="-15.6706280">
        <ele>63.705000</ele>
        <time>2009-01-05T09:54:16Z</time>
      </trkpt>
      <trkpt lat="27.79034900" lon="-15.6706520">
        <ele>64.012000</ele>
        <time>2009-01-05T09:54:17Z</time>
      </trkpt>
      <trkpt lat="27.79040100" lon="-15.6706740">
        <ele>63.719000</ele>
        <time>2009-01-05T09:54:18Z</time>
      </trkpt>
      <trkpt lat="27.79045400" lon="-15.6706940">
        <ele>63.933000</ele>
        <time>2009-01-05T09:54:19Z</time>
      </trkpt>
      <trkpt lat="27.79050600" lon="-15.6707140">
        <ele>63.976000</ele>
        <time>2009-01-05T09:54:20Z</time>
      </trkpt>
      <trkpt lat="27.79055900" lon="-15.6707340">
        <ele>64.095000</ele>
        <time>2009-01-05T09:54:21Z</time>
      </trkpt>
      <trkpt lat="27.79061300" lon="-15.6707520">
        <ele>64.634000</ele>
        <time>2009-01-05T09:54:22Z</time>
      </trkpt>
      <trkpt lat="27.79066700" lon="-15.6707700">
        <ele>64.600000</ele>
        <time>2009-01-05T09:54:23Z</time>
      </trkpt>
      <trkpt lat="27.79072200" lon="-15.6707880">
        <ele>64.378000</ele>
        <time>2009-01-05T09:54:24Z</time>
      </trkpt>
      <trkpt lat="27.79077700" lon="-15.6708060">
        <ele>64.542000</ele>
        <time>2009-01-05T09:54:25Z</time>
      </trkpt>
      <trkpt lat="27.79083200" lon="-15.6708220">
        <ele>63.744000</ele>
        <time>2009-01-05T09:54:26Z</time>
      </trkpt>
      <trkpt lat="27.79088100" lon="-15.6708400">
        <ele>64.523000</ele>
        <time>2009-01-05T09:54:27Z</time>
      </trkpt>
      <trkpt lat="27.79093200" lon="-15.6708570">
        <ele>65.156000</ele>
        <time>2009-01-05T09:54:28Z</time>
      </trkpt>
      <trkpt lat="27.79098800" lon="-15.6708720">
        <ele>64.471000</ele>
        <time>2009-01-05T09:54:29Z</time>
      </trkpt>
      <trkpt lat="27.79104500" lon="-15.6708850">
        <ele>64.217000</ele>
        <time>2009-01-05T09:54:30Z</time>
      </trkpt>
      <trkpt lat="27.79110200" lon="-15.6708990">
        <ele>64.722000</ele>
        <time>2009-01-05T09:54:31Z</time>
      </trkpt>
      <trkpt lat="27.79115800" lon="-15.6709120">
        <ele>65.774000</ele>
        <time>2009-01-05T09:54:32Z</time>
      </trkpt>
      <trkpt lat="27.79121400" lon="-15.6709240">
        <ele>64.194000</ele>
        <time>2009-01-05T09:54:33Z</time>
      </trkpt>
      <trkpt lat="27.79127100" lon="-15.6709370">
        <ele>64.262000</ele>
        <time>2009-01-05T09:54:34Z</time>
      </trkpt>
      <trkpt lat="27.79132800" lon="-15.6709500">
        <ele>64.209000</ele>
        <time>2009-01-05T09:54:35Z</time>
      </trkpt>
      <trkpt lat="27.79138600" lon="-15.6709630">
        <ele>64.666000</ele>
        <time>2009-01-05T09:54:36Z</time>
      </trkpt>
      <trkpt lat="27.79144500" lon="-15.6709760">
        <ele>64.601000</ele>
        <time>2009-01-05T09:54:37Z</time>
      </trkpt>
      <trkpt lat="27.79150300" lon="-15.6709900">
        <ele>64.376000</ele>
        <time>2009-01-05T09:54:38Z</time>
      </trkpt>
      <trkpt lat="27.79156200" lon="-15.6710030">
        <ele>64.551000</ele>
        <time>2009-01-05T09:54:39Z</time>
      </trkpt>
      <trkpt lat="27.79162200" lon="-15.6710150">
        <ele>64.538000</ele>
        <time>2009-01-05T09:54:40Z</time>
      </trkpt>
      <trkpt lat="27.79168000" lon="-15.6710260">
        <ele>64.546000</ele>
        <time>2009-01-05T09:54:41Z</time>
      </trkpt>
      <trkpt lat="27.79173900" lon="-15.6710380">
        <ele>64.303000</ele>
        <time>2009-01-05T09:54:42Z</time>
      </trkpt>
      <trkpt lat="27.79179700" lon="-15.6710510">
        <ele>64.547000</ele>
        <time>2009-01-05T09:54:43Z</time>
      </trkpt>
      <trkpt lat="27.79185500" lon="-15.6710630">
        <ele>64.523000</ele>
        <time>2009-01-05T09:54:44Z</time>
      </trkpt>
      <trkpt lat="27.79191400" lon="-15.6710730">
        <ele>64.442000</ele>
        <time>2009-01-05T09:54:45Z</time>
      </trkpt>
      <trkpt lat="27.79197300" lon="-15.6710820">
        <ele>64.532000</ele>
        <time>2009-01-05T09:54:46Z</time>
      </trkpt>
      <trkpt lat="27.79203300" lon="-15.6710870">
        <ele>64.699000</ele>
        <time>2009-01-05T09:54:47Z</time>
      </trkpt>
      <trkpt lat="27.79209400" lon="-15.6710900">
        <ele>64.673000</ele>
        <time>2009-01-05T09:54:48Z</time>
      </trkpt>
      <trkpt lat="27.79215300" lon="-15.6710940">
        <ele>64.964000</ele>
        <time>2009-01-05T09:54:49Z</time>
      </trkpt>
      <trkpt lat="27.79221300" lon="-15.6710980">
        <ele>65.033000</ele>
        <time>2009-01-05T09:54:50Z</time>
      </trkpt>
      <trkpt lat="27.79227100" lon="-15.6711010">
        <ele>64.956000</ele>
        <time>2009-01-05T09:54:51Z</time>
      </trkpt>
      <trkpt lat="27.79233000" lon="-15.6711030">
        <ele>65.001000</ele>
        <time>2009-01-05T09:54:52Z</time>
      </trkpt>
      <trkpt lat="27.79238900" lon="-15.6711050">
        <ele>65.091000</ele>
        <time>2009-01-05T09:54:53Z</time>
      </trkpt>
      <trkpt lat="27.79244700" lon="-15.6711080">
        <ele>64.795000</ele>
        <time>2009-01-05T09:54:54Z</time>
      </trkpt>
      <trkpt lat="27.79250500" lon="-15.6711110">
        <ele>65.118000</ele>
        <time>2009-01-05T09:54:55Z</time>
      </trkpt>
      <trkpt lat="27.79256200" lon="-15.6711130">
        <ele>65.242000</ele>
        <time>2009-01-05T09:54:56Z</time>
      </trkpt>
      <trkpt lat="27.79262000" lon="-15.6711160">
        <ele>65.232000</ele>
        <time>2009-01-05T09:54:57Z</time>
      </trkpt>
      <trkpt lat="27.79267700" lon="-15.6711180">
        <ele>65.049000</ele>
        <time>2009-01-05T09:54:58Z</time>
      </trkpt>
      <trkpt lat="27.79273500" lon="-15.6711190">
        <ele>65.478000</ele>
        <time>2009-01-05T09:54:59Z</time>
      </trkpt>
      <trkpt lat="27.79279300" lon="-15.6711190">
        <ele>65.285000</ele>
        <time>2009-01-05T09:55:00Z</time>
      </trkpt>
      <trkpt lat="27.79285000" lon="-15.6711190">
        <ele>65.359000</ele>
        <time>2009-01-05T09:55:01Z</time>
      </trkpt>
      <trkpt lat="27.79290800" lon="-15.6711180">
        <ele>65.568000</ele>
        <time>2009-01-05T09:55:02Z</time>
      </trkpt>
      <trkpt lat="27.79296600" lon="-15.6711160">
        <ele>65.502000</ele>
        <time>2009-01-05T09:55:03Z</time>
      </trkpt>
      <trkpt lat="27.79302400" lon="-15.6711120">
        <ele>65.724000</ele>
        <time>2009-01-05T09:55:04Z</time>
      </trkpt>
      <trkpt lat="27.79308100" lon="-15.6711060">
        <ele>65.814000</ele>
        <time>2009-01-05T09:55:05Z</time>
      </trkpt>
      <trkpt lat="27.79313900" lon="-15.6710980">
        <ele>65.563000</ele>
        <time>2009-01-05T09:55:06Z</time>
      </trkpt>
      <trkpt lat="27.79319400" lon="-15.6710880">
        <ele>65.922000</ele>
        <time>2009-01-05T09:55:07Z</time>
      </trkpt>
      <trkpt lat="27.79325000" lon="-15.6710770">
        <ele>65.999000</ele>
        <time>2009-01-05T09:55:08Z</time>
      </trkpt>
      <trkpt lat="27.79330600" lon="-15.6710660">
        <ele>65.957000</ele>
        <time>2009-01-05T09:55:09Z</time>
      </trkpt>
      <trkpt lat="27.79336200" lon="-15.6710550">
        <ele>66.279000</ele>
        <time>2009-01-05T09:55:10Z</time>
      </trkpt>
      <trkpt lat="27.79341800" lon="-15.6710430">
        <ele>66.211000</ele>
        <time>2009-01-05T09:55:11Z</time>
      </trkpt>
      <trkpt lat="27.79347300" lon="-15.6710310">
        <ele>66.219000</ele>
        <time>2009-01-05T09:55:12Z</time>
      </trkpt>
      <trkpt lat="27.79352800" lon="-15.6710170">
        <ele>66.285000</ele>
        <time>2009-01-05T09:55:13Z</time>
      </trkpt>
      <trkpt lat="27.79358300" lon="-15.6710030">
        <ele>66.359000</ele>
        <time>2009-01-05T09:55:14Z</time>
      </trkpt>
      <trkpt lat="27.79363800" lon="-15.6709890">
        <ele>66.339000</ele>
        <time>2009-01-05T09:55:15Z</time>
      </trkpt>
      <trkpt lat="27.79369300" lon="-15.6709750">
        <ele>66.415000</ele>
        <time>2009-01-05T09:55:16Z</time>
      </trkpt>
      <trkpt lat="27.79374900" lon="-15.6709610">
        <ele>66.522000</ele>
        <time>2009-01-05T09:55:17Z</time>
      </trkpt>
      <trkpt lat="27.79380500" lon="-15.6709460">
        <ele>66.958000</ele>
        <time>2009-01-05T09:55:18Z</time>
      </trkpt>
      <trkpt lat="27.79386100" lon="-15.6709310">
        <ele>66.805000</ele>
        <time>2009-01-05T09:55:19Z</time>
      </trkpt>
      <trkpt lat="27.79391800" lon="-15.6709160">
        <ele>66.911000</ele>
        <time>2009-01-05T09:55:20Z</time>
      </trkpt>
      <trkpt lat="27.79397400" lon="-15.6709000">
        <ele>67.046000</ele>
        <time>2009-01-05T09:55:21Z</time>
      </trkpt>
      <trkpt lat="27.79403100" lon="-15.6708840">
        <ele>67.010000</ele>
        <time>2009-01-05T09:55:22Z</time>
      </trkpt>
      <trkpt lat="27.79408700" lon="-15.6708670">
        <ele>67.169000</ele>
        <time>2009-01-05T09:55:23Z</time>
      </trkpt>
      <trkpt lat="27.79414300" lon="-15.6708490">
        <ele>67.272000</ele>
        <time>2009-01-05T09:55:24Z</time>
      </trkpt>
      <trkpt lat="27.79419900" lon="-15.6708310">
        <ele>67.040000</ele>
        <time>2009-01-05T09:55:25Z</time>
      </trkpt>
      <trkpt lat="27.79425400" lon="-15.6708110">
        <ele>67.181000</ele>
        <time>2009-01-05T09:55:26Z</time>
      </trkpt>
      <trkpt lat="27.79430900" lon="-15.6707880">
        <ele>67.419000</ele>
        <time>2009-01-05T09:55:27Z</time>
      </trkpt>
      <trkpt lat="27.79436200" lon="-15.6707620">
        <ele>67.309000</ele>
        <time>2009-01-05T09:55:28Z</time>
      </trkpt>
      <trkpt lat="27.79441500" lon="-15.6707330">
        <ele>67.413000</ele>
        <time>2009-01-05T09:55:29Z</time>
      </trkpt>
      <trkpt lat="27.79446800" lon="-15.6707020">
        <ele>67.789000</ele>
        <time>2009-01-05T09:55:30Z</time>
      </trkpt>
      <trkpt lat="27.79452000" lon="-15.6706700">
        <ele>67.876000</ele>
        <time>2009-01-05T09:55:31Z</time>
      </trkpt>
      <trkpt lat="27.79457100" lon="-15.6706360">
        <ele>67.840000</ele>
        <time>2009-01-05T09:55:32Z</time>
      </trkpt>
      <trkpt lat="27.79462300" lon="-15.6706030">
        <ele>68.049000</ele>
        <time>2009-01-05T09:55:33Z</time>
      </trkpt>
      <trkpt lat="27.79467500" lon="-15.6705710">
        <ele>68.288000</ele>
        <time>2009-01-05T09:55:34Z</time>
      </trkpt>
      <trkpt lat="27.79472700" lon="-15.6705380">
        <ele>68.098000</ele>
        <time>2009-01-05T09:55:35Z</time>
      </trkpt>
      <trkpt lat="27.79477900" lon="-15.6705040">
        <ele>67.831000</ele>
        <time>2009-01-05T09:55:36Z</time>
      </trkpt>
      <trkpt lat="27.79483100" lon="-15.6704700">
        <ele>68.519000</ele>
        <time>2009-01-05T09:55:37Z</time>
      </trkpt>
      <trkpt lat="27.79488300" lon="-15.6704370">
        <ele>68.528000</ele>
        <time>2009-01-05T09:55:38Z</time>
      </trkpt>
      <trkpt lat="27.79493600" lon="-15.6704050">
        <ele>68.399000</ele>
        <time>2009-01-05T09:55:39Z</time>
      </trkpt>
      <trkpt lat="27.79498900" lon="-15.6703740">
        <ele>68.222000</ele>
        <time>2009-01-05T09:55:40Z</time>
      </trkpt>
      <trkpt lat="27.79504400" lon="-15.6703430">
        <ele>68.313000</ele>
        <time>2009-01-05T09:55:41Z</time>
      </trkpt>
      <trkpt lat="27.79509800" lon="-15.6703110">
        <ele>68.522000</ele>
        <time>2009-01-05T09:55:42Z</time>
      </trkpt>
      <trkpt lat="27.79515200" lon="-15.6702790">
        <ele>68.515000</ele>
        <time>2009-01-05T09:55:43Z</time>
      </trkpt>
      <trkpt lat="27.79520600" lon="-15.6702480">
        <ele>68.299000</ele>
        <time>2009-01-05T09:55:44Z</time>
      </trkpt>
      <trkpt lat="27.79526000" lon="-15.6702190">
        <ele>68.461000</ele>
        <time>2009-01-05T09:55:45Z</time>
      </trkpt>
      <trkpt lat="27.79531500" lon="-15.6701930">
        <ele>68.896000</ele>
        <time>2009-01-05T09:55:46Z</time>
      </trkpt>
      <trkpt lat="27.79537100" lon="-15.6701700">
        <ele>68.643000</ele>
        <time>2009-01-05T09:55:47Z</time>
      </trkpt>
      <trkpt lat="27.79542900" lon="-15.6701520">
        <ele>68.755000</ele>
        <time>2009-01-05T09:55:48Z</time>
      </trkpt>
      <trkpt lat="27.79548800" lon="-15.6701380">
        <ele>68.832000</ele>
        <time>2009-01-05T09:55:49Z</time>
      </trkpt>
      <trkpt lat="27.79554800" lon="-15.6701290">
        <ele>68.902000</ele>
        <time>2009-01-05T09:55:50Z</time>
      </trkpt>
      <trkpt lat="27.79560700" lon="-15.6701230">
        <ele>68.882000</ele>
        <time>2009-01-05T09:55:51Z</time>
      </trkpt>
      <trkpt lat="27.79566600" lon="-15.6701210">
        <ele>69.150000</ele>
        <time>2009-01-05T09:55:52Z</time>
      </trkpt>
      <trkpt lat="27.79572400" lon="-15.6701220">
        <ele>69.238000</ele>
        <time>2009-01-05T09:55:53Z</time>
      </trkpt>
      <trkpt lat="27.79578000" lon="-15.6701260">
        <ele>69.297000</ele>
        <time>2009-01-05T09:55:54Z</time>
      </trkpt>
      <trkpt lat="27.79583700" lon="-15.6701330">
        <ele>69.352000</ele>
        <time>2009-01-05T09:55:55Z</time>
      </trkpt>
      <trkpt lat="27.79589300" lon="-15.6701460">
        <ele>69.475000</ele>
        <time>2009-01-05T09:55:56Z</time>
      </trkpt>
      <trkpt lat="27.79594900" lon="-15.6701620">
        <ele>69.701000</ele>
        <time>2009-01-05T09:55:57Z</time>
      </trkpt>
      <trkpt lat="27.79600500" lon="-15.6701840">
        <ele>69.769000</ele>
        <time>2009-01-05T09:55:58Z</time>
      </trkpt>
      <trkpt lat="27.79605900" lon="-15.6702090">
        <ele>70.299000</ele>
        <time>2009-01-05T09:55:59Z</time>
      </trkpt>
      <trkpt lat="27.79611300" lon="-15.6702350">
        <ele>70.155000</ele>
        <time>2009-01-05T09:56:00Z</time>
      </trkpt>
      <trkpt lat="27.79616700" lon="-15.6702600">
        <ele>70.310000</ele>
        <time>2009-01-05T09:56:01Z</time>
      </trkpt>
      <trkpt lat="27.79622200" lon="-15.6702840">
        <ele>70.634000</ele>
        <time>2009-01-05T09:56:02Z</time>
      </trkpt>
      <trkpt lat="27.79627700" lon="-15.6703070">
        <ele>70.718000</ele>
        <time>2009-01-05T09:56:03Z</time>
      </trkpt>
      <trkpt lat="27.79633200" lon="-15.6703320">
        <ele>70.670000</ele>
        <time>2009-01-05T09:56:04Z</time>
      </trkpt>
      <trkpt lat="27.79638800" lon="-15.6703580">
        <ele>71.092000</ele>
        <time>2009-01-05T09:56:05Z</time>
      </trkpt>
      <trkpt lat="27.79644400" lon="-15.6703810">
        <ele>70.978000</ele>
        <time>2009-01-05T09:56:06Z</time>
      </trkpt>
      <trkpt lat="27.79649900" lon="-15.6704000">
        <ele>71.270000</ele>
        <time>2009-01-05T09:56:07Z</time>
      </trkpt>
      <trkpt lat="27.79655500" lon="-15.6704200">
        <ele>71.549000</ele>
        <time>2009-01-05T09:56:08Z</time>
      </trkpt>
      <trkpt lat="27.79661200" lon="-15.6704360">
        <ele>71.646000</ele>
        <time>2009-01-05T09:56:09Z</time>
      </trkpt>
      <trkpt lat="27.79667100" lon="-15.6704450">
        <ele>71.946000</ele>
        <time>2009-01-05T09:56:10Z</time>
      </trkpt>
      <trkpt lat="27.79673000" lon="-15.6704460">
        <ele>72.025000</ele>
        <time>2009-01-05T09:56:11Z</time>
      </trkpt>
      <trkpt lat="27.79679100" lon="-15.6704400">
        <ele>71.963000</ele>
        <time>2009-01-05T09:56:12Z</time>
      </trkpt>
      <trkpt lat="27.79685100" lon="-15.6704300">
        <ele>72.139000</ele>
        <time>2009-01-05T09:56:13Z</time>
      </trkpt>
      <trkpt lat="27.79691200" lon="-15.6704170">
        <ele>71.976000</ele>
        <time>2009-01-05T09:56:14Z</time>
      </trkpt>
      <trkpt lat="27.79697300" lon="-15.6704020">
        <ele>71.946000</ele>
        <time>2009-01-05T09:56:15Z</time>
      </trkpt>
      <trkpt lat="27.79703300" lon="-15.6703850">
        <ele>72.061000</ele>
        <time>2009-01-05T09:56:16Z</time>
      </trkpt>
      <trkpt lat="27.79709200" lon="-15.6703670">
        <ele>71.909000</ele>
        <time>2009-01-05T09:56:17Z</time>
      </trkpt>
      <trkpt lat="27.79715000" lon="-15.6703460">
        <ele>71.905000</ele>
        <time>2009-01-05T09:56:18Z</time>
      </trkpt>
      <trkpt lat="27.79720800" lon="-15.6703230">
        <ele>71.682000</ele>
        <time>2009-01-05T09:56:19Z</time>
      </trkpt>
      <trkpt lat="27.79726500" lon="-15.6703010">
        <ele>72.299000</ele>
        <time>2009-01-05T09:56:20Z</time>
      </trkpt>
      <trkpt lat="27.79732200" lon="-15.6702800">
        <ele>72.369000</ele>
        <time>2009-01-05T09:56:21Z</time>
      </trkpt>
      <trkpt lat="27.79737900" lon="-15.6702580">
        <ele>72.724000</ele>
        <time>2009-01-05T09:56:22Z</time>
      </trkpt>
      <trkpt lat="27.79743500" lon="-15.6702360">
        <ele>72.860000</ele>
        <time>2009-01-05T09:56:23Z</time>
      </trkpt>
      <trkpt lat="27.79749100" lon="-15.6702130">
        <ele>72.613000</ele>
        <time>2009-01-05T09:56:24Z</time>
      </trkpt>
      <trkpt lat="27.79754700" lon="-15.6701910">
        <ele>72.836000</ele>
        <time>2009-01-05T09:56:25Z</time>
      </trkpt>
      <trkpt lat="27.79760400" lon="-15.6701690">
        <ele>72.785000</ele>
        <time>2009-01-05T09:56:26Z</time>
      </trkpt>
      <trkpt lat="27.79766100" lon="-15.6701470">
        <ele>72.564000</ele>
        <time>2009-01-05T09:56:27Z</time>
      </trkpt>
      <trkpt lat="27.79771900" lon="-15.6701240">
        <ele>72.814000</ele>
        <time>2009-01-05T09:56:28Z</time>
      </trkpt>
      <trkpt lat="27.79777700" lon="-15.6701010">
        <ele>72.774000</ele>
        <time>2009-01-05T09:56:29Z</time>
      </trkpt>
      <trkpt lat="27.79783500" lon="-15.6700770">
        <ele>73.206000</ele>
        <time>2009-01-05T09:56:30Z</time>
      </trkpt>
      <trkpt lat="27.79789300" lon="-15.6700520">
        <ele>73.276000</ele>
        <time>2009-01-05T09:56:31Z</time>
      </trkpt>
      <trkpt lat="27.79795200" lon="-15.6700270">
        <ele>73.232000</ele>
        <time>2009-01-05T09:56:32Z</time>
      </trkpt>
      <trkpt lat="27.79801000" lon="-15.6700020">
        <ele>73.244000</ele>
        <time>2009-01-05T09:56:33Z</time>
      </trkpt>
      <trkpt lat="27.79806800" lon="-15.6699770">
        <ele>73.391000</ele>
        <time>2009-01-05T09:56:34Z</time>
      </trkpt>
      <trkpt lat="27.79812600" lon="-15.6699520">
        <ele>73.297000</ele>
        <time>2009-01-05T09:56:35Z</time>
      </trkpt>
      <trkpt lat="27.79818400" lon="-15.6699260">
        <ele>73.647000</ele>
        <time>2009-01-05T09:56:36Z</time>
      </trkpt>
      <trkpt lat="27.79824100" lon="-15.6699000">
        <ele>73.897000</ele>
        <time>2009-01-05T09:56:37Z</time>
      </trkpt>
      <trkpt lat="27.79829900" lon="-15.6698740">
        <ele>73.727000</ele>
        <time>2009-01-05T09:56:38Z</time>
      </trkpt>
      <trkpt lat="27.79835600" lon="-15.6698500">
        <ele>73.863000</ele>
        <time>2009-01-05T09:56:39Z</time>
      </trkpt>
      <trkpt lat="27.79841300" lon="-15.6698270">
        <ele>74.020000</ele>
        <time>2009-01-05T09:56:40Z</time>
      </trkpt>
      <trkpt lat="27.79847200" lon="-15.6698050">
        <ele>74.064000</ele>
        <time>2009-01-05T09:56:41Z</time>
      </trkpt>
      <trkpt lat="27.79853100" lon="-15.6697850">
        <ele>74.168000</ele>
        <time>2009-01-05T09:56:42Z</time>
      </trkpt>
      <trkpt lat="27.79859100" lon="-15.6697680">
        <ele>74.450000</ele>
        <time>2009-01-05T09:56:43Z</time>
      </trkpt>
      <trkpt lat="27.79865300" lon="-15.6697520">
        <ele>74.335000</ele>
        <time>2009-01-05T09:56:44Z</time>
      </trkpt>
      <trkpt lat="27.79871500" lon="-15.6697360">
        <ele>74.508000</ele>
        <time>2009-01-05T09:56:45Z</time>
      </trkpt>
      <trkpt lat="27.79877800" lon="-15.6697170">
        <ele>74.161000</ele>
        <time>2009-01-05T09:56:46Z</time>
      </trkpt>
      <trkpt lat="27.79884100" lon="-15.6696950">
        <ele>74.286000</ele>
        <time>2009-01-05T09:56:47Z</time>
      </trkpt>
      <trkpt lat="27.79890300" lon="-15.6696720">
        <ele>74.595000</ele>
        <time>2009-01-05T09:56:48Z</time>
      </trkpt>
      <trkpt lat="27.79896300" lon="-15.6696500">
        <ele>74.250000</ele>
        <time>2009-01-05T09:56:49Z</time>
      </trkpt>
      <trkpt lat="27.79902400" lon="-15.6696270">
        <ele>74.278000</ele>
        <time>2009-01-05T09:56:50Z</time>
      </trkpt>
      <trkpt lat="27.79908400" lon="-15.6696040">
        <ele>74.462000</ele>
        <time>2009-01-05T09:56:51Z</time>
      </trkpt>
      <trkpt lat="27.79914400" lon="-15.6695810">
        <ele>74.509000</ele>
        <time>2009-01-05T09:56:52Z</time>
      </trkpt>
      <trkpt lat="27.79920300" lon="-15.6695570">
        <ele>74.613000</ele>
        <time>2009-01-05T09:56:53Z</time>
      </trkpt>
      <trkpt lat="27.79926200" lon="-15.6695320">
        <ele>74.834000</ele>
        <time>2009-01-05T09:56:54Z</time>
      </trkpt>
      <trkpt lat="27.79932100" lon="-15.6695070">
        <ele>74.884000</ele>
        <time>2009-01-05T09:56:55Z</time>
      </trkpt>
      <trkpt lat="27.79937900" lon="-15.6694820">
        <ele>74.851000</ele>
        <time>2009-01-05T09:56:56Z</time>
      </trkpt>
      <trkpt lat="27.79943600" lon="-15.6694580">
        <ele>75.101000</ele>
        <time>2009-01-05T09:56:57Z</time>
      </trkpt>
      <trkpt lat="27.79949200" lon="-15.6694330">
        <ele>75.092000</ele>
        <time>2009-01-05T09:56:58Z</time>
      </trkpt>
      <trkpt lat="27.79954800" lon="-15.6694080">
        <ele>75.139000</ele>
        <time>2009-01-05T09:56:59Z</time>
      </trkpt>
      <trkpt lat="27.79960300" lon="-15.6693840">
        <ele>75.315000</ele>
        <time>2009-01-05T09:57:00Z</time>
      </trkpt>
      <trkpt lat="27.79965900" lon="-15.6693590">
        <ele>75.515000</ele>
        <time>2009-01-05T09:57:01Z</time>
      </trkpt>
      <trkpt lat="27.79971300" lon="-15.6693350">
        <ele>75.440000</ele>
        <time>2009-01-05T09:57:02Z</time>
      </trkpt>
      <trkpt lat="27.79976800" lon="-15.6693100">
        <ele>75.958000</ele>
        <time>2009-01-05T09:57:03Z</time>
      </trkpt>
      <trkpt lat="27.79982100" lon="-15.6692870">
        <ele>75.727000</ele>
        <time>2009-01-05T09:57:04Z</time>
      </trkpt>
      <trkpt lat="27.79987400" lon="-15.6692640">
        <ele>75.901000</ele>
        <time>2009-01-05T09:57:05Z</time>
      </trkpt>
      <trkpt lat="27.79992700" lon="-15.6692430">
        <ele>75.937000</ele>
        <time>2009-01-05T09:57:06Z</time>
      </trkpt>
      <trkpt lat="27.79998000" lon="-15.6692240">
        <ele>76.367000</ele>
        <time>2009-01-05T09:57:07Z</time>
      </trkpt>
      <trkpt lat="27.80003500" lon="-15.6692070">
        <ele>76.692000</ele>
        <time>2009-01-05T09:57:08Z</time>
      </trkpt>
      <trkpt lat="27.80009000" lon="-15.6691930">
        <ele>76.768000</ele>
        <time>2009-01-05T09:57:09Z</time>
      </trkpt>
      <trkpt lat="27.80014500" lon="-15.6691800">
        <ele>76.801000</ele>
        <time>2009-01-05T09:57:10Z</time>
      </trkpt>
      <trkpt lat="27.80020000" lon="-15.6691690">
        <ele>77.189000</ele>
        <time>2009-01-05T09:57:11Z</time>
      </trkpt>
      <trkpt lat="27.80025600" lon="-15.6691570">
        <ele>77.154000</ele>
        <time>2009-01-05T09:57:12Z</time>
      </trkpt>
      <trkpt lat="27.80031200" lon="-15.6691450">
        <ele>77.132000</ele>
        <time>2009-01-05T09:57:13Z</time>
      </trkpt>
      <trkpt lat="27.80036800" lon="-15.6691340">
        <ele>77.290000</ele>
        <time>2009-01-05T09:57:14Z</time>
      </trkpt>
      <trkpt lat="27.80042500" lon="-15.6691250">
        <ele>77.482000</ele>
        <time>2009-01-05T09:57:15Z</time>
      </trkpt>
      <trkpt lat="27.80048100" lon="-15.6691190">
        <ele>77.667000</ele>
        <time>2009-01-05T09:57:16Z</time>
      </trkpt>
      <trkpt lat="27.80053700" lon="-15.6691130">
        <ele>77.661000</ele>
        <time>2009-01-05T09:57:17Z</time>
      </trkpt>
      <trkpt lat="27.80059300" lon="-15.6691080">
        <ele>77.679000</ele>
        <time>2009-01-05T09:57:18Z</time>
      </trkpt>
      <trkpt lat="27.80064800" lon="-15.6691040">
        <ele>77.932000</ele>
        <time>2009-01-05T09:57:19Z</time>
      </trkpt>
      <trkpt lat="27.80070400" lon="-15.6691000">
        <ele>78.074000</ele>
        <time>2009-01-05T09:57:20Z</time>
      </trkpt>
      <trkpt lat="27.80076000" lon="-15.6690960">
        <ele>77.862000</ele>
        <time>2009-01-05T09:57:21Z</time>
      </trkpt>
      <trkpt lat="27.80081600" lon="-15.6690930">
        <ele>78.247000</ele>
        <time>2009-01-05T09:57:22Z</time>
      </trkpt>
      <trkpt lat="27.80087100" lon="-15.6690890">
        <ele>78.281000</ele>
        <time>2009-01-05T09:57:23Z</time>
      </trkpt>
      <trkpt lat="27.80092700" lon="-15.6690860">
        <ele>78.481000</ele>
        <time>2009-01-05T09:57:24Z</time>
      </trkpt>
      <trkpt lat="27.80098200" lon="-15.6690830">
        <ele>78.308000</ele>
        <time>2009-01-05T09:57:25Z</time>
      </trkpt>
      <trkpt lat="27.80103700" lon="-15.6690800">
        <ele>78.419000</ele>
        <time>2009-01-05T09:57:26Z</time>
      </trkpt>
      <trkpt lat="27.80109300" lon="-15.6690790">
        <ele>78.215000</ele>
        <time>2009-01-05T09:57:27Z</time>
      </trkpt>
      <trkpt lat="27.80114900" lon="-15.6690770">
        <ele>78.872000</ele>
        <time>2009-01-05T09:57:28Z</time>
      </trkpt>
      <trkpt lat="27.80120600" lon="-15.6690750">
        <ele>78.888000</ele>
        <time>2009-01-05T09:57:29Z</time>
      </trkpt>
      <trkpt lat="27.80126200" lon="-15.6690720">
        <ele>78.670000</ele>
        <time>2009-01-05T09:57:30Z</time>
      </trkpt>
      <trkpt lat="27.80131800" lon="-15.6690700">
        <ele>78.844000</ele>
        <time>2009-01-05T09:57:31Z</time>
      </trkpt>
      <trkpt lat="27.80137500" lon="-15.6690680">
        <ele>78.968000</ele>
        <time>2009-01-05T09:57:32Z</time>
      </trkpt>
      <trkpt lat="27.80143200" lon="-15.6690670">
        <ele>79.104000</ele>
        <time>2009-01-05T09:57:33Z</time>
      </trkpt>
      <trkpt lat="27.80149000" lon="-15.6690660">
        <ele>79.048000</ele>
        <time>2009-01-05T09:57:34Z</time>
      </trkpt>
      <trkpt lat="27.80154700" lon="-15.6690670">
        <ele>79.077000</ele>
        <time>2009-01-05T09:57:35Z</time>
      </trkpt>
      <trkpt lat="27.80160500" lon="-15.6690690">
        <ele>78.923000</ele>
        <time>2009-01-05T09:57:36Z</time>
      </trkpt>
      <trkpt lat="27.80166300" lon="-15.6690710">
        <ele>79.287000</ele>
        <time>2009-01-05T09:57:37Z</time>
      </trkpt>
      <trkpt lat="27.80172100" lon="-15.6690730">
        <ele>79.347000</ele>
        <time>2009-01-05T09:57:38Z</time>
      </trkpt>
      <trkpt lat="27.80177900" lon="-15.6690740">
        <ele>79.296000</ele>
        <time>2009-01-05T09:57:39Z</time>
      </trkpt>
      <trkpt lat="27.80183700" lon="-15.6690750">
        <ele>79.385000</ele>
        <time>2009-01-05T09:57:40Z</time>
      </trkpt>
      <trkpt lat="27.80189400" lon="-15.6690750">
        <ele>79.226000</ele>
        <time>2009-01-05T09:57:41Z</time>
      </trkpt>
      <trkpt lat="27.80195200" lon="-15.6690750">
        <ele>79.162000</ele>
        <time>2009-01-05T09:57:42Z</time>
      </trkpt>
      <trkpt lat="27.80201000" lon="-15.6690760">
        <ele>79.259000</ele>
        <time>2009-01-05T09:57:43Z</time>
      </trkpt>
      <trkpt lat="27.80206800" lon="-15.6690780">
        <ele>79.847000</ele>
        <time>2009-01-05T09:57:44Z</time>
      </trkpt>
      <trkpt lat="27.80212600" lon="-15.6690810">
        <ele>79.725000</ele>
        <time>2009-01-05T09:57:45Z</time>
      </trkpt>
      <trkpt lat="27.80218300" lon="-15.6690830">
        <ele>79.553000</ele>
        <time>2009-01-05T09:57:46Z</time>
      </trkpt>
      <trkpt lat="27.80224000" lon="-15.6690850">
        <ele>79.235000</ele>
        <time>2009-01-05T09:57:47Z</time>
      </trkpt>
      <trkpt lat="27.80229600" lon="-15.6690860">
        <ele>79.718000</ele>
        <time>2009-01-05T09:57:48Z</time>
      </trkpt>
      <trkpt lat="27.80235300" lon="-15.6690870">
        <ele>80.137000</ele>
        <time>2009-01-05T09:57:49Z</time>
      </trkpt>
      <trkpt lat="27.80240900" lon="-15.6690870">
        <ele>79.579000</ele>
        <time>2009-01-05T09:57:50Z</time>
      </trkpt>
      <trkpt lat="27.80246500" lon="-15.6690880">
        <ele>80.128000</ele>
        <time>2009-01-05T09:57:51Z</time>
      </trkpt>
      <trkpt lat="27.80252100" lon="-15.6690880">
        <ele>80.019000</ele>
        <time>2009-01-05T09:57:52Z</time>
      </trkpt>
      <trkpt lat="27.80257700" lon="-15.6690900">
        <ele>79.957000</ele>
        <time>2009-01-05T09:57:53Z</time>
      </trkpt>
      <trkpt lat="27.80263300" lon="-15.6690920">
        <ele>80.350000</ele>
        <time>2009-01-05T09:57:54Z</time>
      </trkpt>
      <trkpt lat="27.80268900" lon="-15.6690930">
        <ele>80.204000</ele>
        <time>2009-01-05T09:57:55Z</time>
      </trkpt>
      <trkpt lat="27.80274500" lon="-15.6690920">
        <ele>80.151000</ele>
        <time>2009-01-05T09:57:56Z</time>
      </trkpt>
      <trkpt lat="27.80280000" lon="-15.6690870">
        <ele>80.525000</ele>
        <time>2009-01-05T09:57:57Z</time>
      </trkpt>
      <trkpt lat="27.80285400" lon="-15.6690750">
        <ele>80.712000</ele>
        <time>2009-01-05T09:57:58Z</time>
      </trkpt>
      <trkpt lat="27.80290900" lon="-15.6690600">
        <ele>80.828000</ele>
        <time>2009-01-05T09:57:59Z</time>
      </trkpt>
      <trkpt lat="27.80296300" lon="-15.6690450">
        <ele>80.761000</ele>
        <time>2009-01-05T09:58:00Z</time>
      </trkpt>
      <trkpt lat="27.80301800" lon="-15.6690310">
        <ele>80.810000</ele>
        <time>2009-01-05T09:58:01Z</time>
      </trkpt>
      <trkpt lat="27.80307400" lon="-15.6690190">
        <ele>80.826000</ele>
        <time>2009-01-05T09:58:02Z</time>
      </trkpt>
      <trkpt lat="27.80313000" lon="-15.6690080">
        <ele>80.975000</ele>
        <time>2009-01-05T09:58:03Z</time>
      </trkpt>
      <trkpt lat="27.80318600" lon="-15.6689990">
        <ele>80.599000</ele>
        <time>2009-01-05T09:58:04Z</time>
      </trkpt>
      <trkpt lat="27.80324300" lon="-15.6689900">
        <ele>80.908000</ele>
        <time>2009-01-05T09:58:05Z</time>
      </trkpt>
      <trkpt lat="27.80330000" lon="-15.6689830">
        <ele>80.627000</ele>
        <time>2009-01-05T09:58:06Z</time>
      </trkpt>
      <trkpt lat="27.80335600" lon="-15.6689750">
        <ele>80.820000</ele>
        <time>2009-01-05T09:58:07Z</time>
      </trkpt>
      <trkpt lat="27.80341300" lon="-15.6689680">
        <ele>80.983000</ele>
        <time>2009-01-05T09:58:08Z</time>
      </trkpt>
      <trkpt lat="27.80346900" lon="-15.6689600">
        <ele>80.882000</ele>
        <time>2009-01-05T09:58:09Z</time>
      </trkpt>
      <trkpt lat="27.80352500" lon="-15.6689510">
        <ele>80.876000</ele>
        <time>2009-01-05T09:58:10Z</time>
      </trkpt>
      <trkpt lat="27.80358000" lon="-15.6689420">
        <ele>81.072000</ele>
        <time>2009-01-05T09:58:11Z</time>
      </trkpt>
      <trkpt lat="27.80363600" lon="-15.6689330">
        <ele>81.304000</ele>
        <time>2009-01-05T09:58:12Z</time>
      </trkpt>
      <trkpt lat="27.80369200" lon="-15.6689240">
        <ele>81.298000</ele>
        <time>2009-01-05T09:58:13Z</time>
      </trkpt>
      <trkpt lat="27.80374700" lon="-15.6689130">
        <ele>81.535000</ele>
        <time>2009-01-05T09:58:14Z</time>
      </trkpt>
      <trkpt lat="27.80380100" lon="-15.6688990">
        <ele>81.392000</ele>
        <time>2009-01-05T09:58:15Z</time>
      </trkpt>
      <trkpt lat="27.80385600" lon="-15.6688840">
        <ele>81.130000</ele>
        <time>2009-01-05T09:58:16Z</time>
      </trkpt>
      <trkpt lat="27.80391100" lon="-15.6688670">
        <ele>81.526000</ele>
        <time>2009-01-05T09:58:17Z</time>
      </trkpt>
      <trkpt lat="27.80396500" lon="-15.6688510">
        <ele>81.409000</ele>
        <time>2009-01-05T09:58:18Z</time>
      </trkpt>
      <trkpt lat="27.80402000" lon="-15.6688350">
        <ele>81.697000</ele>
        <time>2009-01-05T09:58:19Z</time>
      </trkpt>
      <trkpt lat="27.80407500" lon="-15.6688200">
        <ele>81.649000</ele>
        <time>2009-01-05T09:58:20Z</time>
      </trkpt>
      <trkpt lat="27.80412900" lon="-15.6688040">
        <ele>81.958000</ele>
        <time>2009-01-05T09:58:21Z</time>
      </trkpt>
      <trkpt lat="27.80418300" lon="-15.6687880">
        <ele>82.201000</ele>
        <time>2009-01-05T09:58:22Z</time>
      </trkpt>
      <trkpt lat="27.80423600" lon="-15.6687710">
        <ele>82.015000</ele>
        <time>2009-01-05T09:58:23Z</time>
      </trkpt>
      <trkpt lat="27.80428900" lon="-15.6687550">
        <ele>82.250000</ele>
        <time>2009-01-05T09:58:24Z</time>
      </trkpt>
      <trkpt lat="27.80434100" lon="-15.6687400">
        <ele>82.469000</ele>
        <time>2009-01-05T09:58:25Z</time>
      </trkpt>
      <trkpt lat="27.80439400" lon="-15.6687250">
        <ele>82.505000</ele>
        <time>2009-01-05T09:58:26Z</time>
      </trkpt>
      <trkpt lat="27.80444700" lon="-15.6687100">
        <ele>82.629000</ele>
        <time>2009-01-05T09:58:27Z</time>
      </trkpt>
      <trkpt lat="27.80449900" lon="-15.6686950">
        <ele>82.731000</ele>
        <time>2009-01-05T09:58:28Z</time>
      </trkpt>
      <trkpt lat="27.80455100" lon="-15.6686810">
        <ele>82.609000</ele>
        <time>2009-01-05T09:58:29Z</time>
      </trkpt>
      <trkpt lat="27.80460400" lon="-15.6686680">
        <ele>82.846000</ele>
        <time>2009-01-05T09:58:30Z</time>
      </trkpt>
      <trkpt lat="27.80465600" lon="-15.6686540">
        <ele>82.724000</ele>
        <time>2009-01-05T09:58:31Z</time>
      </trkpt>
      <trkpt lat="27.80470800" lon="-15.6686400">
        <ele>82.874000</ele>
        <time>2009-01-05T09:58:32Z</time>
      </trkpt>
      <trkpt lat="27.80476100" lon="-15.6686260">
        <ele>83.011000</ele>
        <time>2009-01-05T09:58:33Z</time>
      </trkpt>
      <trkpt lat="27.80481300" lon="-15.6686120">
        <ele>82.873000</ele>
        <time>2009-01-05T09:58:34Z</time>
      </trkpt>
      <trkpt lat="27.80486600" lon="-15.6685990">
        <ele>83.127000</ele>
        <time>2009-01-05T09:58:35Z</time>
      </trkpt>
      <trkpt lat="27.80491800" lon="-15.6685870">
        <ele>83.010000</ele>
        <time>2009-01-05T09:58:36Z</time>
      </trkpt>
      <trkpt lat="27.80497000" lon="-15.6685740">
        <ele>82.978000</ele>
        <time>2009-01-05T09:58:37Z</time>
      </trkpt>
      <trkpt lat="27.80502200" lon="-15.6685600">
        <ele>83.131000</ele>
        <time>2009-01-05T09:58:38Z</time>
      </trkpt>
      <trkpt lat="27.80507400" lon="-15.6685460">
        <ele>83.133000</ele>
        <time>2009-01-05T09:58:39Z</time>
      </trkpt>
      <trkpt lat="27.80512600" lon="-15.6685320">
        <ele>83.465000</ele>
        <time>2009-01-05T09:58:40Z</time>
      </trkpt>
      <trkpt lat="27.80517900" lon="-15.6685200">
        <ele>83.716000</ele>
        <time>2009-01-05T09:58:41Z</time>
      </trkpt>
      <trkpt lat="27.80523200" lon="-15.6685070">
        <ele>83.573000</ele>
        <time>2009-01-05T09:58:42Z</time>
      </trkpt>
      <trkpt lat="27.80528500" lon="-15.6684930">
        <ele>83.657000</ele>
        <time>2009-01-05T09:58:43Z</time>
      </trkpt>
      <trkpt lat="27.80533800" lon="-15.6684760">
        <ele>83.580000</ele>
        <time>2009-01-05T09:58:44Z</time>
      </trkpt>
      <trkpt lat="27.80539000" lon="-15.6684580">
        <ele>83.640000</ele>
        <time>2009-01-05T09:58:45Z</time>
      </trkpt>
      <trkpt lat="27.80544200" lon="-15.6684390">
        <ele>83.626000</ele>
        <time>2009-01-05T09:58:46Z</time>
      </trkpt>
      <trkpt lat="27.80549400" lon="-15.6684200">
        <ele>83.946000</ele>
        <time>2009-01-05T09:58:47Z</time>
      </trkpt>
      <trkpt lat="27.80554600" lon="-15.6683990">
        <ele>83.850000</ele>
        <time>2009-01-05T09:58:48Z</time>
      </trkpt>
      <trkpt lat="27.80559800" lon="-15.6683760">
        <ele>83.805000</ele>
        <time>2009-01-05T09:58:49Z</time>
      </trkpt>
      <trkpt lat="27.80564900" lon="-15.6683510">
        <ele>84.201000</ele>
        <time>2009-01-05T09:58:50Z</time>
      </trkpt>
      <trkpt lat="27.80570000" lon="-15.6683250">
        <ele>84.193000</ele>
        <time>2009-01-05T09:58:51Z</time>
      </trkpt>
      <trkpt lat="27.80575000" lon="-15.6682970">
        <ele>84.199000</ele>
        <time>2009-01-05T09:58:52Z</time>
      </trkpt>
      <trkpt lat="27.80580000" lon="-15.6682670">
        <ele>84.220000</ele>
        <time>2009-01-05T09:58:53Z</time>
      </trkpt>
      <trkpt lat="27.80584800" lon="-15.6682350">
        <ele>84.655000</ele>
        <time>2009-01-05T09:58:54Z</time>
      </trkpt>
      <trkpt lat="27.80589800" lon="-15.6682040">
        <ele>84.618000</ele>
        <time>2009-01-05T09:58:55Z</time>
      </trkpt>
      <trkpt lat="27.80594800" lon="-15.6681750">
        <ele>84.322000</ele>
        <time>2009-01-05T09:58:56Z</time>
      </trkpt>
      <trkpt lat="27.80599800" lon="-15.6681460">
        <ele>84.174000</ele>
        <time>2009-01-05T09:58:57Z</time>
      </trkpt>
      <trkpt lat="27.80604800" lon="-15.6681160">
        <ele>84.536000</ele>
        <time>2009-01-05T09:58:58Z</time>
      </trkpt>
      <trkpt lat="27.80609600" lon="-15.6680860">
        <ele>84.861000</ele>
        <time>2009-01-05T09:58:59Z</time>
      </trkpt>
      <trkpt lat="27.80614300" lon="-15.6680550">
        <ele>84.576000</ele>
        <time>2009-01-05T09:59:00Z</time>
      </trkpt>
      <trkpt lat="27.80619000" lon="-15.6680240">
        <ele>84.795000</ele>
        <time>2009-01-05T09:59:01Z</time>
      </trkpt>
      <trkpt lat="27.80623600" lon="-15.6679930">
        <ele>84.975000</ele>
        <time>2009-01-05T09:59:02Z</time>
      </trkpt>
      <trkpt lat="27.80628300" lon="-15.6679620">
        <ele>85.036000</ele>
        <time>2009-01-05T09:59:03Z</time>
      </trkpt>
      <trkpt lat="27.80632900" lon="-15.6679310">
        <ele>84.967000</ele>
        <time>2009-01-05T09:59:04Z</time>
      </trkpt>
      <trkpt lat="27.80637600" lon="-15.6679000">
        <ele>85.350000</ele>
        <time>2009-01-05T09:59:05Z</time>
      </trkpt>
      <trkpt lat="27.80642200" lon="-15.6678690">
        <ele>85.483000</ele>
        <time>2009-01-05T09:59:06Z</time>
      </trkpt>
      <trkpt lat="27.80646800" lon="-15.6678370">
        <ele>85.570000</ele>
        <time>2009-01-05T09:59:07Z</time>
      </trkpt>
      <trkpt lat="27.80651400" lon="-15.6678060">
        <ele>85.739000</ele>
        <time>2009-01-05T09:59:08Z</time>
      </trkpt>
      <trkpt lat="27.80655900" lon="-15.6677750">
        <ele>85.784000</ele>
        <time>2009-01-05T09:59:09Z</time>
      </trkpt>
      <trkpt lat="27.80660700" lon="-15.6677440">
        <ele>85.851000</ele>
        <time>2009-01-05T09:59:10Z</time>
      </trkpt>
      <trkpt lat="27.80665400" lon="-15.6677140">
        <ele>85.843000</ele>
        <time>2009-01-05T09:59:11Z</time>
      </trkpt>
      <trkpt lat="27.80670000" lon="-15.6676830">
        <ele>86.208000</ele>
        <time>2009-01-05T09:59:12Z</time>
      </trkpt>
      <trkpt lat="27.80674700" lon="-15.6676530">
        <ele>86.401000</ele>
        <time>2009-01-05T09:59:13Z</time>
      </trkpt>
      <trkpt lat="27.80679300" lon="-15.6676230">
        <ele>86.684000</ele>
        <time>2009-01-05T09:59:14Z</time>
      </trkpt>
      <trkpt lat="27.80684000" lon="-15.6675940">
        <ele>86.661000</ele>
        <time>2009-01-05T09:59:15Z</time>
      </trkpt>
      <trkpt lat="27.80688900" lon="-15.6675660">
        <ele>86.891000</ele>
        <time>2009-01-05T09:59:16Z</time>
      </trkpt>
      <trkpt lat="27.80693900" lon="-15.6675400">
        <ele>87.100000</ele>
        <time>2009-01-05T09:59:17Z</time>
      </trkpt>
      <trkpt lat="27.80699200" lon="-15.6675160">
        <ele>86.836000</ele>
        <time>2009-01-05T09:59:18Z</time>
      </trkpt>
      <trkpt lat="27.80704700" lon="-15.6674960">
        <ele>86.944000</ele>
        <time>2009-01-05T09:59:19Z</time>
      </trkpt>
      <trkpt lat="27.80710300" lon="-15.6674790">
        <ele>86.910000</ele>
        <time>2009-01-05T09:59:20Z</time>
      </trkpt>
      <trkpt lat="27.80716100" lon="-15.6674660">
        <ele>87.000000</ele>
        <time>2009-01-05T09:59:21Z</time>
      </trkpt>
      <trkpt lat="27.80722000" lon="-15.6674590">
        <ele>87.072000</ele>
        <time>2009-01-05T09:59:22Z</time>
      </trkpt>
      <trkpt lat="27.80728000" lon="-15.6674580">
        <ele>87.091000</ele>
        <time>2009-01-05T09:59:23Z</time>
      </trkpt>
      <trkpt lat="27.80734000" lon="-15.6674620">
        <ele>87.382000</ele>
        <time>2009-01-05T09:59:24Z</time>
      </trkpt>
      <trkpt lat="27.80740000" lon="-15.6674710">
        <ele>87.565000</ele>
        <time>2009-01-05T09:59:25Z</time>
      </trkpt>
      <trkpt lat="27.80745900" lon="-15.6674840">
        <ele>87.364000</ele>
        <time>2009-01-05T09:59:26Z</time>
      </trkpt>
      <trkpt lat="27.80751700" lon="-15.6675010">
        <ele>87.341000</ele>
        <time>2009-01-05T09:59:27Z</time>
      </trkpt>
      <trkpt lat="27.80757400" lon="-15.6675190">
        <ele>87.484000</ele>
        <time>2009-01-05T09:59:28Z</time>
      </trkpt>
      <trkpt lat="27.80763200" lon="-15.6675380">
        <ele>87.659000</ele>
        <time>2009-01-05T09:59:29Z</time>
      </trkpt>
      <trkpt lat="27.80769000" lon="-15.6675540">
        <ele>87.464000</ele>
        <time>2009-01-05T09:59:30Z</time>
      </trkpt>
      <trkpt lat="27.80774900" lon="-15.6675670">
        <ele>87.618000</ele>
        <time>2009-01-05T09:59:31Z</time>
      </trkpt>
      <trkpt lat="27.80780800" lon="-15.6675750">
        <ele>87.570000</ele>
        <time>2009-01-05T09:59:32Z</time>
      </trkpt>
      <trkpt lat="27.80786800" lon="-15.6675790">
        <ele>87.582000</ele>
        <time>2009-01-05T09:59:33Z</time>
      </trkpt>
      <trkpt lat="27.80792800" lon="-15.6675800">
        <ele>87.852000</ele>
        <time>2009-01-05T09:59:34Z</time>
      </trkpt>
      <trkpt lat="27.80798700" lon="-15.6675790">
        <ele>87.818000</ele>
        <time>2009-01-05T09:59:35Z</time>
      </trkpt>
      <trkpt lat="27.80804700" lon="-15.6675770">
        <ele>87.731000</ele>
        <time>2009-01-05T09:59:36Z</time>
      </trkpt>
      <trkpt lat="27.80810800" lon="-15.6675720">
        <ele>87.708000</ele>
        <time>2009-01-05T09:59:37Z</time>
      </trkpt>
      <trkpt lat="27.80816800" lon="-15.6675660">
        <ele>87.605000</ele>
        <time>2009-01-05T09:59:38Z</time>
      </trkpt>
      <trkpt lat="27.80822700" lon="-15.6675580">
        <ele>87.870000</ele>
        <time>2009-01-05T09:59:39Z</time>
      </trkpt>
      <trkpt lat="27.80828500" lon="-15.6675480">
        <ele>88.095000</ele>
        <time>2009-01-05T09:59:40Z</time>
      </trkpt>
      <trkpt lat="27.80834200" lon="-15.6675360">
        <ele>88.111000</ele>
        <time>2009-01-05T09:59:41Z</time>
      </trkpt>
      <trkpt lat="27.80839800" lon="-15.6675250">
        <ele>88.059000</ele>
        <time>2009-01-05T09:59:42Z</time>
      </trkpt>
      <trkpt lat="27.80845500" lon="-15.6675140">
        <ele>88.369000</ele>
        <time>2009-01-05T09:59:43Z</time>
      </trkpt>
      <trkpt lat="27.80851100" lon="-15.6675040">
        <ele>88.528000</ele>
        <time>2009-01-05T09:59:44Z</time>
      </trkpt>
      <trkpt lat="27.80856800" lon="-15.6674920">
        <ele>88.510000</ele>
        <time>2009-01-05T09:59:45Z</time>
      </trkpt>
      <trkpt lat="27.80862300" lon="-15.6674810">
        <ele>88.534000</ele>
        <time>2009-01-05T09:59:46Z</time>
      </trkpt>
      <trkpt lat="27.80867900" lon="-15.6674710">
        <ele>88.682000</ele>
        <time>2009-01-05T09:59:47Z</time>
      </trkpt>
      <trkpt lat="27.80873600" lon="-15.6674640">
        <ele>88.958000</ele>
        <time>2009-01-05T09:59:48Z</time>
      </trkpt>
      <trkpt lat="27.80879400" lon="-15.6674600">
        <ele>89.051000</ele>
        <time>2009-01-05T09:59:49Z</time>
      </trkpt>
      <trkpt lat="27.80885200" lon="-15.6674590">
        <ele>89.138000</ele>
        <time>2009-01-05T09:59:50Z</time>
      </trkpt>
      <trkpt lat="27.80891100" lon="-15.6674610">
        <ele>89.223000</ele>
        <time>2009-01-05T09:59:51Z</time>
      </trkpt>
      <trkpt lat="27.80897000" lon="-15.6674640">
        <ele>88.999000</ele>
        <time>2009-01-05T09:59:52Z</time>
      </trkpt>
      <trkpt lat="27.80902900" lon="-15.6674700">
        <ele>89.251000</ele>
        <time>2009-01-05T09:59:53Z</time>
      </trkpt>
      <trkpt lat="27.80908800" lon="-15.6674780">
        <ele>89.085000</ele>
        <time>2009-01-05T09:59:54Z</time>
      </trkpt>
      <trkpt lat="27.80914600" lon="-15.6674880">
        <ele>89.152000</ele>
        <time>2009-01-05T09:59:55Z</time>
      </trkpt>
      <trkpt lat="27.80920400" lon="-15.6674990">
        <ele>89.350000</ele>
        <time>2009-01-05T09:59:56Z</time>
      </trkpt>
      <trkpt lat="27.80926200" lon="-15.6675090">
        <ele>89.383000</ele>
        <time>2009-01-05T09:59:57Z</time>
      </trkpt>
      <trkpt lat="27.80932000" lon="-15.6675200">
        <ele>89.431000</ele>
        <time>2009-01-05T09:59:58Z</time>
      </trkpt>
      <trkpt lat="27.80937700" lon="-15.6675300">
        <ele>89.664000</ele>
        <time>2009-01-05T09:59:59Z</time>
      </trkpt>
      <trkpt lat="27.80943300" lon="-15.6675380">
        <ele>89.794000</ele>
        <time>2009-01-05T10:00:00Z</time>
      </trkpt>
      <trkpt lat="27.80948900" lon="-15.6675420">
        <ele>89.668000</ele>
        <time>2009-01-05T10:00:01Z</time>
      </trkpt>
      <trkpt lat="27.80954500" lon="-15.6675400">
        <ele>89.957000</ele>
        <time>2009-01-05T10:00:02Z</time>
      </trkpt>
      <trkpt lat="27.80960000" lon="-15.6675340">
        <ele>89.907000</ele>
        <time>2009-01-05T10:00:03Z</time>
      </trkpt>
      <trkpt lat="27.80965600" lon="-15.6675230">
        <ele>90.034000</ele>
        <time>2009-01-05T10:00:04Z</time>
      </trkpt>
      <trkpt lat="27.80971200" lon="-15.6675090">
        <ele>90.244000</ele>
        <time>2009-01-05T10:00:05Z</time>
      </trkpt>
      <trkpt lat="27.80976700" lon="-15.6674920">
        <ele>90.115000</ele>
        <time>2009-01-05T10:00:06Z</time>
      </trkpt>
      <trkpt lat="27.80982100" lon="-15.6674720">
        <ele>90.393000</ele>
        <time>2009-01-05T10:00:07Z</time>
      </trkpt>
      <trkpt lat="27.80987600" lon="-15.6674510">
        <ele>90.425000</ele>
        <time>2009-01-05T10:00:08Z</time>
      </trkpt>
      <trkpt lat="27.80993000" lon="-15.6674290">
        <ele>90.425000</ele>
        <time>2009-01-05T10:00:09Z</time>
      </trkpt>
      <trkpt lat="27.80998300" lon="-15.6674050">
        <ele>90.463000</ele>
        <time>2009-01-05T10:00:10Z</time>
      </trkpt>
      <trkpt lat="27.81003800" lon="-15.6673800">
        <ele>90.654000</ele>
        <time>2009-01-05T10:00:11Z</time>
      </trkpt>
      <trkpt lat="27.81009000" lon="-15.6673540">
        <ele>90.715000</ele>
        <time>2009-01-05T10:00:12Z</time>
      </trkpt>
      <trkpt lat="27.81014300" lon="-15.6673280">
        <ele>90.689000</ele>
        <time>2009-01-05T10:00:13Z</time>
      </trkpt>
      <trkpt lat="27.81019400" lon="-15.6673000">
        <ele>90.972000</ele>
        <time>2009-01-05T10:00:14Z</time>
      </trkpt>
      <trkpt lat="27.81024300" lon="-15.6672690">
        <ele>91.155000</ele>
        <time>2009-01-05T10:00:15Z</time>
      </trkpt>
      <trkpt lat="27.81028900" lon="-15.6672350">
        <ele>91.071000</ele>
        <time>2009-01-05T10:00:16Z</time>
      </trkpt>
      <trkpt lat="27.81033700" lon="-15.6672000">
        <ele>91.251000</ele>
        <time>2009-01-05T10:00:17Z</time>
      </trkpt>
      <trkpt lat="27.81038200" lon="-15.6671630">
        <ele>91.218000</ele>
        <time>2009-01-05T10:00:18Z</time>
      </trkpt>
      <trkpt lat="27.81042200" lon="-15.6671250">
        <ele>91.773000</ele>
        <time>2009-01-05T10:00:19Z</time>
      </trkpt>
      <trkpt lat="27.81046700" lon="-15.6670860">
        <ele>91.892000</ele>
        <time>2009-01-05T10:00:20Z</time>
      </trkpt>
      <trkpt lat="27.81051000" lon="-15.6670470">
        <ele>91.853000</ele>
        <time>2009-01-05T10:00:21Z</time>
      </trkpt>
      <trkpt lat="27.81055300" lon="-15.6670080">
        <ele>92.041000</ele>
        <time>2009-01-05T10:00:22Z</time>
      </trkpt>
      <trkpt lat="27.81059700" lon="-15.6669680">
        <ele>92.118000</ele>
        <time>2009-01-05T10:00:23Z</time>
      </trkpt>
      <trkpt lat="27.81064100" lon="-15.6669270">
        <ele>92.512000</ele>
        <time>2009-01-05T10:00:24Z</time>
      </trkpt>
      <trkpt lat="27.81068500" lon="-15.6668870">
        <ele>92.999000</ele>
        <time>2009-01-05T10:00:25Z</time>
      </trkpt>
      <trkpt lat="27.81073100" lon="-15.6668480">
        <ele>93.253000</ele>
        <time>2009-01-05T10:00:26Z</time>
      </trkpt>
      <trkpt lat="27.81077600" lon="-15.6668080">
        <ele>93.222000</ele>
        <time>2009-01-05T10:00:27Z</time>
      </trkpt>
      <trkpt lat="27.81082100" lon="-15.6667670">
        <ele>93.166000</ele>
        <time>2009-01-05T10:00:28Z</time>
      </trkpt>
      <trkpt lat="27.81086600" lon="-15.6667250">
        <ele>93.380000</ele>
        <time>2009-01-05T10:00:29Z</time>
      </trkpt>
      <trkpt lat="27.81091200" lon="-15.6666830">
        <ele>93.449000</ele>
        <time>2009-01-05T10:00:30Z</time>
      </trkpt>
      <trkpt lat="27.81095800" lon="-15.6666420">
        <ele>93.262000</ele>
        <time>2009-01-05T10:00:31Z</time>
      </trkpt>
      <trkpt lat="27.81100500" lon="-15.6665990">
        <ele>93.288000</ele>
        <time>2009-01-05T10:00:32Z</time>
      </trkpt>
      <trkpt lat="27.81105000" lon="-15.6665560">
        <ele>93.455000</ele>
        <time>2009-01-05T10:00:33Z</time>
      </trkpt>
      <trkpt lat="27.81109500" lon="-15.6665120">
        <ele>93.059000</ele>
        <time>2009-01-05T10:00:34Z</time>
      </trkpt>
      <trkpt lat="27.81114000" lon="-15.6664670">
        <ele>93.109000</ele>
        <time>2009-01-05T10:00:35Z</time>
      </trkpt>
      <trkpt lat="27.81118600" lon="-15.6664210">
        <ele>93.299000</ele>
        <time>2009-01-05T10:00:36Z</time>
      </trkpt>
      <trkpt lat="27.81122900" lon="-15.6663730">
        <ele>93.387000</ele>
        <time>2009-01-05T10:00:37Z</time>
      </trkpt>
      <trkpt lat="27.81127100" lon="-15.6663230">
        <ele>93.331000</ele>
        <time>2009-01-05T10:00:38Z</time>
      </trkpt>
      <trkpt lat="27.81131400" lon="-15.6662730">
        <ele>93.418000</ele>
        <time>2009-01-05T10:00:39Z</time>
      </trkpt>
      <trkpt lat="27.81135600" lon="-15.6662200">
        <ele>93.413000</ele>
        <time>2009-01-05T10:00:40Z</time>
      </trkpt>
      <trkpt lat="27.81139600" lon="-15.6661670">
        <ele>93.309000</ele>
        <time>2009-01-05T10:00:41Z</time>
      </trkpt>
      <trkpt lat="27.81143500" lon="-15.6661120">
        <ele>93.404000</ele>
        <time>2009-01-05T10:00:42Z</time>
      </trkpt>
      <trkpt lat="27.81147200" lon="-15.6660560">
        <ele>93.245000</ele>
        <time>2009-01-05T10:00:43Z</time>
      </trkpt>
      <trkpt lat="27.81150800" lon="-15.6659980">
        <ele>93.662000</ele>
        <time>2009-01-05T10:00:44Z</time>
      </trkpt>
      <trkpt lat="27.81154400" lon="-15.6659400">
        <ele>93.941000</ele>
        <time>2009-01-05T10:00:45Z</time>
      </trkpt>
      <trkpt lat="27.81158000" lon="-15.6658830">
        <ele>93.404000</ele>
        <time>2009-01-05T10:00:46Z</time>
      </trkpt>
      <trkpt lat="27.81161500" lon="-15.6658270">
        <ele>93.271000</ele>
        <time>2009-01-05T10:00:47Z</time>
      </trkpt>
      <trkpt lat="27.81165200" lon="-15.6657690">
        <ele>93.765000</ele>
        <time>2009-01-05T10:00:48Z</time>
      </trkpt>
      <trkpt lat="27.81168900" lon="-15.6657130">
        <ele>93.547000</ele>
        <time>2009-01-05T10:00:49Z</time>
      </trkpt>
      <trkpt lat="27.81172800" lon="-15.6656590">
        <ele>93.427000</ele>
        <time>2009-01-05T10:00:50Z</time>
      </trkpt>
      <trkpt lat="27.81177000" lon="-15.6656080">
        <ele>93.580000</ele>
        <time>2009-01-05T10:00:51Z</time>
      </trkpt>
      <trkpt lat="27.81181300" lon="-15.6655590">
        <ele>93.846000</ele>
        <time>2009-01-05T10:00:52Z</time>
      </trkpt>
      <trkpt lat="27.81185400" lon="-15.6655100">
        <ele>93.837000</ele>
        <time>2009-01-05T10:00:53Z</time>
      </trkpt>
      <trkpt lat="27.81189400" lon="-15.6654630">
        <ele>93.747000</ele>
        <time>2009-01-05T10:00:54Z</time>
      </trkpt>
      <trkpt lat="27.81193600" lon="-15.6654170">
        <ele>93.767000</ele>
        <time>2009-01-05T10:00:55Z</time>
      </trkpt>
      <trkpt lat="27.81218600" lon="-15.6651350">
        <ele>94.028000</ele>
        <time>2009-01-05T10:01:01Z</time>
      </trkpt>
      <trkpt lat="27.81222800" lon="-15.6650870">
        <ele>94.197000</ele>
        <time>2009-01-05T10:01:02Z</time>
      </trkpt>
      <trkpt lat="27.81227000" lon="-15.6650400">
        <ele>94.472000</ele>
        <time>2009-01-05T10:01:03Z</time>
      </trkpt>
      <trkpt lat="27.81231300" lon="-15.6649930">
        <ele>94.435000</ele>
        <time>2009-01-05T10:01:04Z</time>
      </trkpt>
      <trkpt lat="27.81235700" lon="-15.6649470">
        <ele>94.437000</ele>
        <time>2009-01-05T10:01:05Z</time>
      </trkpt>
      <trkpt lat="27.81240300" lon="-15.6649020">
        <ele>94.482000</ele>
        <time>2009-01-05T10:01:06Z</time>
      </trkpt>
      <trkpt lat="27.81245100" lon="-15.6648610">
        <ele>94.727000</ele>
        <time>2009-01-05T10:01:07Z</time>
      </trkpt>
      <trkpt lat="27.81250200" lon="-15.6648240">
        <ele>94.774000</ele>
        <time>2009-01-05T10:01:08Z</time>
      </trkpt>
      <trkpt lat="27.81255400" lon="-15.6647940">
        <ele>95.254000</ele>
        <time>2009-01-05T10:01:09Z</time>
      </trkpt>
      <trkpt lat="27.81260700" lon="-15.6647670">
        <ele>95.292000</ele>
        <time>2009-01-05T10:01:10Z</time>
      </trkpt>
      <trkpt lat="27.81266100" lon="-15.6647440">
        <ele>95.627000</ele>
        <time>2009-01-05T10:01:11Z</time>
      </trkpt>
      <trkpt lat="27.81271500" lon="-15.6647240">
        <ele>95.758000</ele>
        <time>2009-01-05T10:01:12Z</time>
      </trkpt>
      <trkpt lat="27.81276900" lon="-15.6647050">
        <ele>95.994000</ele>
        <time>2009-01-05T10:01:13Z</time>
      </trkpt>
      <trkpt lat="27.81282200" lon="-15.6646860">
        <ele>96.062000</ele>
        <time>2009-01-05T10:01:14Z</time>
      </trkpt>
      <trkpt lat="27.81287400" lon="-15.6646670">
        <ele>96.436000</ele>
        <time>2009-01-05T10:01:15Z</time>
      </trkpt>
      <trkpt lat="27.81292600" lon="-15.6646480">
        <ele>96.495000</ele>
        <time>2009-01-05T10:01:16Z</time>
      </trkpt>
      <trkpt lat="27.81297800" lon="-15.6646280">
        <ele>96.600000</ele>
        <time>2009-01-05T10:01:17Z</time>
      </trkpt>
      <trkpt lat="27.81302900" lon="-15.6646080">
        <ele>96.707000</ele>
        <time>2009-01-05T10:01:18Z</time>
      </trkpt>
      <trkpt lat="27.81307900" lon="-15.6645890">
        <ele>97.091000</ele>
        <time>2009-01-05T10:01:19Z</time>
      </trkpt>
      <trkpt lat="27.81313000" lon="-15.6645700">
        <ele>97.125000</ele>
        <time>2009-01-05T10:01:20Z</time>
      </trkpt>
      <trkpt lat="27.81318000" lon="-15.6645510">
        <ele>97.343000</ele>
        <time>2009-01-05T10:01:21Z</time>
      </trkpt>
      <trkpt lat="27.81322900" lon="-15.6645310">
        <ele>97.564000</ele>
        <time>2009-01-05T10:01:22Z</time>
      </trkpt>
      <trkpt lat="27.81327800" lon="-15.6645110">
        <ele>97.631000</ele>
        <time>2009-01-05T10:01:23Z</time>
      </trkpt>
      <trkpt lat="27.81332600" lon="-15.6644920">
        <ele>98.095000</ele>
        <time>2009-01-05T10:01:24Z</time>
      </trkpt>
      <trkpt lat="27.81337300" lon="-15.6644750">
        <ele>98.256000</ele>
        <time>2009-01-05T10:01:25Z</time>
      </trkpt>
      <trkpt lat="27.81342100" lon="-15.6644570">
        <ele>98.308000</ele>
        <time>2009-01-05T10:01:26Z</time>
      </trkpt>
      <trkpt lat="27.81347000" lon="-15.6644400">
        <ele>98.560000</ele>
        <time>2009-01-05T10:01:27Z</time>
      </trkpt>
      <trkpt lat="27.81352100" lon="-15.6644250">
        <ele>98.993000</ele>
        <time>2009-01-05T10:01:28Z</time>
      </trkpt>
      <trkpt lat="27.81357200" lon="-15.6644130">
        <ele>99.362000</ele>
        <time>2009-01-05T10:01:29Z</time>
      </trkpt>
      <trkpt lat="27.81362400" lon="-15.6644010">
        <ele>99.631000</ele>
        <time>2009-01-05T10:01:30Z</time>
      </trkpt>
      <trkpt lat="27.81367600" lon="-15.6643890">
        <ele>99.847000</ele>
        <time>2009-01-05T10:01:31Z</time>
      </trkpt>
      <trkpt lat="27.81372500" lon="-15.6643760">
        <ele>100.18200</ele>
        <time>2009-01-05T10:01:32Z</time>
      </trkpt>
      <trkpt lat="27.81377500" lon="-15.6643660">
        <ele>100.47400</ele>
        <time>2009-01-05T10:01:33Z</time>
      </trkpt>
      <trkpt lat="27.81382600" lon="-15.6643550">
        <ele>100.80700</ele>
        <time>2009-01-05T10:01:34Z</time>
      </trkpt>
      <trkpt lat="27.81387500" lon="-15.6643460">
        <ele>100.90900</ele>
        <time>2009-01-05T10:01:35Z</time>
      </trkpt>
      <trkpt lat="27.81392200" lon="-15.6643370">
        <ele>100.93000</ele>
        <time>2009-01-05T10:01:36Z</time>
      </trkpt>
      <trkpt lat="27.81396800" lon="-15.6643290">
        <ele>101.28600</ele>
        <time>2009-01-05T10:01:37Z</time>
      </trkpt>
      <trkpt lat="27.81401400" lon="-15.6643200">
        <ele>101.81600</ele>
        <time>2009-01-05T10:01:38Z</time>
      </trkpt>
      <trkpt lat="27.81406000" lon="-15.6643100">
        <ele>101.73400</ele>
        <time>2009-01-05T10:01:39Z</time>
      </trkpt>
      <trkpt lat="27.81410600" lon="-15.6642970">
        <ele>102.01900</ele>
        <time>2009-01-05T10:01:40Z</time>
      </trkpt>
      <trkpt lat="27.81415400" lon="-15.6642850">
        <ele>102.16900</ele>
        <time>2009-01-05T10:01:41Z</time>
      </trkpt>
      <trkpt lat="27.81420100" lon="-15.6642720">
        <ele>102.30300</ele>
        <time>2009-01-05T10:01:42Z</time>
      </trkpt>
      <trkpt lat="27.81424700" lon="-15.6642590">
        <ele>102.36300</ele>
        <time>2009-01-05T10:01:43Z</time>
      </trkpt>
      <trkpt lat="27.81429300" lon="-15.6642460">
        <ele>102.34400</ele>
        <time>2009-01-05T10:01:44Z</time>
      </trkpt>
      <trkpt lat="27.81434000" lon="-15.6642340">
        <ele>102.24300</ele>
        <time>2009-01-05T10:01:45Z</time>
      </trkpt>
      <trkpt lat="27.81438900" lon="-15.6642220">
        <ele>102.61200</ele>
        <time>2009-01-05T10:01:46Z</time>
      </trkpt>
      <trkpt lat="27.81443900" lon="-15.6642080">
        <ele>102.96300</ele>
        <time>2009-01-05T10:01:47Z</time>
      </trkpt>
      <trkpt lat="27.81448800" lon="-15.6641930">
        <ele>102.84600</ele>
        <time>2009-01-05T10:01:48Z</time>
      </trkpt>
      <trkpt lat="27.81453600" lon="-15.6641760">
        <ele>102.89800</ele>
        <time>2009-01-05T10:01:49Z</time>
      </trkpt>
      <trkpt lat="27.81458500" lon="-15.6641610">
        <ele>102.63100</ele>
        <time>2009-01-05T10:01:50Z</time>
      </trkpt>
      <trkpt lat="27.81463400" lon="-15.6641460">
        <ele>102.91100</ele>
        <time>2009-01-05T10:01:51Z</time>
      </trkpt>
      <trkpt lat="27.81468400" lon="-15.6641300">
        <ele>103.03700</ele>
        <time>2009-01-05T10:01:52Z</time>
      </trkpt>
      <trkpt lat="27.81473400" lon="-15.6641140">
        <ele>103.01900</ele>
        <time>2009-01-05T10:01:53Z</time>
      </trkpt>
      <trkpt lat="27.81478500" lon="-15.6640980">
        <ele>103.28300</ele>
        <time>2009-01-05T10:01:54Z</time>
      </trkpt>
      <trkpt lat="27.81483600" lon="-15.6640800">
        <ele>103.27400</ele>
        <time>2009-01-05T10:01:55Z</time>
      </trkpt>
      <trkpt lat="27.81488900" lon="-15.6640610">
        <ele>103.23200</ele>
        <time>2009-01-05T10:01:56Z</time>
      </trkpt>
      <trkpt lat="27.81494100" lon="-15.6640410">
        <ele>103.22900</ele>
        <time>2009-01-05T10:01:57Z</time>
      </trkpt>
      <trkpt lat="27.81499400" lon="-15.6640200">
        <ele>103.39500</ele>
        <time>2009-01-05T10:01:58Z</time>
      </trkpt>
      <trkpt lat="27.81504800" lon="-15.6640000">
        <ele>103.33400</ele>
        <time>2009-01-05T10:01:59Z</time>
      </trkpt>
      <trkpt lat="27.81510100" lon="-15.6639790">
        <ele>103.35300</ele>
        <time>2009-01-05T10:02:00Z</time>
      </trkpt>
      <trkpt lat="27.81515600" lon="-15.6639580">
        <ele>103.24700</ele>
        <time>2009-01-05T10:02:01Z</time>
      </trkpt>
      <trkpt lat="27.81521100" lon="-15.6639400">
        <ele>103.58000</ele>
        <time>2009-01-05T10:02:02Z</time>
      </trkpt>
      <trkpt lat="27.81526700" lon="-15.6639260">
        <ele>103.56700</ele>
        <time>2009-01-05T10:02:03Z</time>
      </trkpt>
      <trkpt lat="27.81532400" lon="-15.6639150">
        <ele>103.54800</ele>
        <time>2009-01-05T10:02:04Z</time>
      </trkpt>
      <trkpt lat="27.81538200" lon="-15.6639050">
        <ele>103.32100</ele>
        <time>2009-01-05T10:02:05Z</time>
      </trkpt>
      <trkpt lat="27.81544100" lon="-15.6638970">
        <ele>103.24900</ele>
        <time>2009-01-05T10:02:06Z</time>
      </trkpt>
      <trkpt lat="27.81550300" lon="-15.6638910">
        <ele>103.19900</ele>
        <time>2009-01-05T10:02:07Z</time>
      </trkpt>
      <trkpt lat="27.81556600" lon="-15.6638860">
        <ele>103.12200</ele>
        <time>2009-01-05T10:02:08Z</time>
      </trkpt>
      <trkpt lat="27.81563000" lon="-15.6638810">
        <ele>102.88200</ele>
        <time>2009-01-05T10:02:09Z</time>
      </trkpt>
      <trkpt lat="27.81569500" lon="-15.6638750">
        <ele>102.87900</ele>
        <time>2009-01-05T10:02:10Z</time>
      </trkpt>
      <trkpt lat="27.81576300" lon="-15.6638710">
        <ele>102.56400</ele>
        <time>2009-01-05T10:02:11Z</time>
      </trkpt>
      <trkpt lat="27.81583100" lon="-15.6638670">
        <ele>102.49000</ele>
        <time>2009-01-05T10:02:12Z</time>
      </trkpt>
      <trkpt lat="27.81590100" lon="-15.6638620">
        <ele>102.40800</ele>
        <time>2009-01-05T10:02:13Z</time>
      </trkpt>
      <trkpt lat="27.81597200" lon="-15.6638570">
        <ele>102.28200</ele>
        <time>2009-01-05T10:02:14Z</time>
      </trkpt>
      <trkpt lat="27.81604400" lon="-15.6638510">
        <ele>102.26600</ele>
        <time>2009-01-05T10:02:15Z</time>
      </trkpt>
      <trkpt lat="27.81611600" lon="-15.6638440">
        <ele>102.30800</ele>
        <time>2009-01-05T10:02:16Z</time>
      </trkpt>
      <trkpt lat="27.81618800" lon="-15.6638360">
        <ele>101.88500</ele>
        <time>2009-01-05T10:02:17Z</time>
      </trkpt>
      <trkpt lat="27.81626000" lon="-15.6638280">
        <ele>101.79800</ele>
        <time>2009-01-05T10:02:18Z</time>
      </trkpt>
      <trkpt lat="27.81633200" lon="-15.6638220">
        <ele>101.99900</ele>
        <time>2009-01-05T10:02:19Z</time>
      </trkpt>
      <trkpt lat="27.81640400" lon="-15.6638170">
        <ele>101.95400</ele>
        <time>2009-01-05T10:02:20Z</time>
      </trkpt>
      <trkpt lat="27.81647500" lon="-15.6638110">
        <ele>102.07000</ele>
        <time>2009-01-05T10:02:21Z</time>
      </trkpt>
      <trkpt lat="27.81654600" lon="-15.6638050">
        <ele>102.07000</ele>
        <time>2009-01-05T10:02:22Z</time>
      </trkpt>
      <trkpt lat="27.81661600" lon="-15.6638000">
        <ele>102.11200</ele>
        <time>2009-01-05T10:02:23Z</time>
      </trkpt>
      <trkpt lat="27.81668500" lon="-15.6637970">
        <ele>102.29400</ele>
        <time>2009-01-05T10:02:24Z</time>
      </trkpt>
      <trkpt lat="27.81675200" lon="-15.6637970">
        <ele>102.35200</ele>
        <time>2009-01-05T10:02:25Z</time>
      </trkpt>
      <trkpt lat="27.81681800" lon="-15.6638000">
        <ele>102.37000</ele>
        <time>2009-01-05T10:02:26Z</time>
      </trkpt>
      <trkpt lat="27.81688400" lon="-15.6638060">
        <ele>102.33000</ele>
        <time>2009-01-05T10:02:27Z</time>
      </trkpt>
      <trkpt lat="27.81694800" lon="-15.6638130">
        <ele>102.36700</ele>
        <time>2009-01-05T10:02:28Z</time>
      </trkpt>
      <trkpt lat="27.81701000" lon="-15.6638210">
        <ele>102.68400</ele>
        <time>2009-01-05T10:02:29Z</time>
      </trkpt>
      <trkpt lat="27.81707400" lon="-15.6638290">
        <ele>102.76600</ele>
        <time>2009-01-05T10:02:30Z</time>
      </trkpt>
      <trkpt lat="27.81713700" lon="-15.6638360">
        <ele>102.97500</ele>
        <time>2009-01-05T10:02:31Z</time>
      </trkpt>
      <trkpt lat="27.81719900" lon="-15.6638420">
        <ele>103.27600</ele>
        <time>2009-01-05T10:02:32Z</time>
      </trkpt>
      <trkpt lat="27.81726100" lon="-15.6638480">
        <ele>103.29200</ele>
        <time>2009-01-05T10:02:33Z</time>
      </trkpt>
      <trkpt lat="27.81732200" lon="-15.6638530">
        <ele>103.48700</ele>
        <time>2009-01-05T10:02:34Z</time>
      </trkpt>
      <trkpt lat="27.81738400" lon="-15.6638580">
        <ele>103.53700</ele>
        <time>2009-01-05T10:02:35Z</time>
      </trkpt>
      <trkpt lat="27.81744600" lon="-15.6638610">
        <ele>103.68200</ele>
        <time>2009-01-05T10:02:36Z</time>
      </trkpt>
      <trkpt lat="27.81750800" lon="-15.6638610">
        <ele>103.93600</ele>
        <time>2009-01-05T10:02:37Z</time>
      </trkpt>
      <trkpt lat="27.81756900" lon="-15.6638590">
        <ele>104.01200</ele>
        <time>2009-01-05T10:02:38Z</time>
      </trkpt>
      <trkpt lat="27.81763100" lon="-15.6638540">
        <ele>103.99600</ele>
        <time>2009-01-05T10:02:39Z</time>
      </trkpt>
      <trkpt lat="27.81769300" lon="-15.6638470">
        <ele>104.23100</ele>
        <time>2009-01-05T10:02:40Z</time>
      </trkpt>
      <trkpt lat="27.81775600" lon="-15.6638380">
        <ele>104.25900</ele>
        <time>2009-01-05T10:02:41Z</time>
      </trkpt>
      <trkpt lat="27.81781900" lon="-15.6638280">
        <ele>104.41200</ele>
        <time>2009-01-05T10:02:42Z</time>
      </trkpt>
      <trkpt lat="27.81788200" lon="-15.6638180">
        <ele>104.07600</ele>
        <time>2009-01-05T10:02:43Z</time>
      </trkpt>
      <trkpt lat="27.81794700" lon="-15.6638090">
        <ele>104.30000</ele>
        <time>2009-01-05T10:02:44Z</time>
      </trkpt>
      <trkpt lat="27.81801200" lon="-15.6638010">
        <ele>104.19600</ele>
        <time>2009-01-05T10:02:45Z</time>
      </trkpt>
      <trkpt lat="27.81807800" lon="-15.6637960">
        <ele>104.48300</ele>
        <time>2009-01-05T10:02:46Z</time>
      </trkpt>
      <trkpt lat="27.81814300" lon="-15.6637940">
        <ele>104.57800</ele>
        <time>2009-01-05T10:02:47Z</time>
      </trkpt>
      <trkpt lat="27.81820900" lon="-15.6637930">
        <ele>104.73300</ele>
        <time>2009-01-05T10:02:48Z</time>
      </trkpt>
      <trkpt lat="27.81827400" lon="-15.6637960">
        <ele>104.67600</ele>
        <time>2009-01-05T10:02:49Z</time>
      </trkpt>
      <trkpt lat="27.81833900" lon="-15.6638020">
        <ele>104.64600</ele>
        <time>2009-01-05T10:02:50Z</time>
      </trkpt>
      <trkpt lat="27.81840300" lon="-15.6638100">
        <ele>104.67100</ele>
        <time>2009-01-05T10:02:51Z</time>
      </trkpt>
      <trkpt lat="27.81846700" lon="-15.6638210">
        <ele>104.81600</ele>
        <time>2009-01-05T10:02:52Z</time>
      </trkpt>
      <trkpt lat="27.81853000" lon="-15.6638360">
        <ele>104.79900</ele>
        <time>2009-01-05T10:02:53Z</time>
      </trkpt>
      <trkpt lat="27.81859200" lon="-15.6638560">
        <ele>105.23900</ele>
        <time>2009-01-05T10:02:54Z</time>
      </trkpt>
      <trkpt lat="27.81865300" lon="-15.6638800">
        <ele>105.13200</ele>
        <time>2009-01-05T10:02:55Z</time>
      </trkpt>
      <trkpt lat="27.81871600" lon="-15.6639060">
        <ele>105.13100</ele>
        <time>2009-01-05T10:02:56Z</time>
      </trkpt>
      <trkpt lat="27.81877800" lon="-15.6639340">
        <ele>105.23600</ele>
        <time>2009-01-05T10:02:57Z</time>
      </trkpt>
      <trkpt lat="27.81883900" lon="-15.6639620">
        <ele>105.22700</ele>
        <time>2009-01-05T10:02:58Z</time>
      </trkpt>
      <trkpt lat="27.81890000" lon="-15.6639900">
        <ele>105.25700</ele>
        <time>2009-01-05T10:02:59Z</time>
      </trkpt>
      <trkpt lat="27.81896100" lon="-15.6640180">
        <ele>105.71100</ele>
        <time>2009-01-05T10:03:00Z</time>
      </trkpt>
      <trkpt lat="27.81902100" lon="-15.6640460">
        <ele>105.54000</ele>
        <time>2009-01-05T10:03:01Z</time>
      </trkpt>
      <trkpt lat="27.81908100" lon="-15.6640740">
        <ele>105.61000</ele>
        <time>2009-01-05T10:03:02Z</time>
      </trkpt>
      <trkpt lat="27.81914100" lon="-15.6641020">
        <ele>105.87400</ele>
        <time>2009-01-05T10:03:03Z</time>
      </trkpt>
      <trkpt lat="27.81920100" lon="-15.6641290">
        <ele>105.84100</ele>
        <time>2009-01-05T10:03:04Z</time>
      </trkpt>
      <trkpt lat="27.81925900" lon="-15.6641570">
        <ele>105.78400</ele>
        <time>2009-01-05T10:03:05Z</time>
      </trkpt>
      <trkpt lat="27.81931700" lon="-15.6641850">
        <ele>105.86200</ele>
        <time>2009-01-05T10:03:06Z</time>
      </trkpt>
      <trkpt lat="27.81937500" lon="-15.6642130">
        <ele>106.28600</ele>
        <time>2009-01-05T10:03:07Z</time>
      </trkpt>
      <trkpt lat="27.81943200" lon="-15.6642400">
        <ele>106.37300</ele>
        <time>2009-01-05T10:03:08Z</time>
      </trkpt>
      <trkpt lat="27.81949000" lon="-15.6642640">
        <ele>106.34800</ele>
        <time>2009-01-05T10:03:09Z</time>
      </trkpt>
      <trkpt lat="27.81954700" lon="-15.6642890">
        <ele>106.33300</ele>
        <time>2009-01-05T10:03:10Z</time>
      </trkpt>
      <trkpt lat="27.81960300" lon="-15.6643130">
        <ele>106.76300</ele>
        <time>2009-01-05T10:03:11Z</time>
      </trkpt>
      <trkpt lat="27.81965800" lon="-15.6643370">
        <ele>106.93400</ele>
        <time>2009-01-05T10:03:12Z</time>
      </trkpt>
      <trkpt lat="27.81971400" lon="-15.6643600">
        <ele>107.15500</ele>
        <time>2009-01-05T10:03:13Z</time>
      </trkpt>
      <trkpt lat="27.81977000" lon="-15.6643850">
        <ele>107.28000</ele>
        <time>2009-01-05T10:03:14Z</time>
      </trkpt>
      <trkpt lat="27.81982600" lon="-15.6644090">
        <ele>107.60400</ele>
        <time>2009-01-05T10:03:15Z</time>
      </trkpt>
      <trkpt lat="27.81988100" lon="-15.6644340">
        <ele>107.43700</ele>
        <time>2009-01-05T10:03:16Z</time>
      </trkpt>
      <trkpt lat="27.81993800" lon="-15.6644590">
        <ele>107.62800</ele>
        <time>2009-01-05T10:03:17Z</time>
      </trkpt>
      <trkpt lat="27.81999400" lon="-15.6644830">
        <ele>107.99200</ele>
        <time>2009-01-05T10:03:18Z</time>
      </trkpt>
      <trkpt lat="27.82005000" lon="-15.6645070">
        <ele>108.03600</ele>
        <time>2009-01-05T10:03:19Z</time>
      </trkpt>
      <trkpt lat="27.82010400" lon="-15.6645310">
        <ele>107.97600</ele>
        <time>2009-01-05T10:03:20Z</time>
      </trkpt>
      <trkpt lat="27.82015800" lon="-15.6645560">
        <ele>108.20800</ele>
        <time>2009-01-05T10:03:21Z</time>
      </trkpt>
      <trkpt lat="27.82021000" lon="-15.6645810">
        <ele>108.45500</ele>
        <time>2009-01-05T10:03:22Z</time>
      </trkpt>
      <trkpt lat="27.82026100" lon="-15.6646070">
        <ele>108.87700</ele>
        <time>2009-01-05T10:03:23Z</time>
      </trkpt>
      <trkpt lat="27.82031200" lon="-15.6646320">
        <ele>108.89700</ele>
        <time>2009-01-05T10:03:24Z</time>
      </trkpt>
      <trkpt lat="27.82036300" lon="-15.6646550">
        <ele>109.15400</ele>
        <time>2009-01-05T10:03:25Z</time>
      </trkpt>
      <trkpt lat="27.82041300" lon="-15.6646790">
        <ele>109.02900</ele>
        <time>2009-01-05T10:03:26Z</time>
      </trkpt>
      <trkpt lat="27.82046400" lon="-15.6647020">
        <ele>108.93800</ele>
        <time>2009-01-05T10:03:27Z</time>
      </trkpt>
      <trkpt lat="27.82051500" lon="-15.6647250">
        <ele>109.16700</ele>
        <time>2009-01-05T10:03:28Z</time>
      </trkpt>
      <trkpt lat="27.82056500" lon="-15.6647500">
        <ele>109.43500</ele>
        <time>2009-01-05T10:03:29Z</time>
      </trkpt>
      <trkpt lat="27.82061600" lon="-15.6647790">
        <ele>109.50800</ele>
        <time>2009-01-05T10:03:30Z</time>
      </trkpt>
      <trkpt lat="27.82066700" lon="-15.6648090">
        <ele>109.37200</ele>
        <time>2009-01-05T10:03:31Z</time>
      </trkpt>
      <trkpt lat="27.82071900" lon="-15.6648410">
        <ele>109.65600</ele>
        <time>2009-01-05T10:03:32Z</time>
      </trkpt>
      <trkpt lat="27.82077100" lon="-15.6648730">
        <ele>109.71100</ele>
        <time>2009-01-05T10:03:33Z</time>
      </trkpt>
      <trkpt lat="27.82082200" lon="-15.6649070">
        <ele>109.66200</ele>
        <time>2009-01-05T10:03:34Z</time>
      </trkpt>
      <trkpt lat="27.82087400" lon="-15.6649400">
        <ele>109.79500</ele>
        <time>2009-01-05T10:03:35Z</time>
      </trkpt>
      <trkpt lat="27.82092600" lon="-15.6649720">
        <ele>109.69900</ele>
        <time>2009-01-05T10:03:36Z</time>
      </trkpt>
      <trkpt lat="27.82098000" lon="-15.6650040">
        <ele>109.70100</ele>
        <time>2009-01-05T10:03:37Z</time>
      </trkpt>
      <trkpt lat="27.82103500" lon="-15.6650320">
        <ele>109.83400</ele>
        <time>2009-01-05T10:03:38Z</time>
      </trkpt>
      <trkpt lat="27.82109000" lon="-15.6650600">
        <ele>109.78000</ele>
        <time>2009-01-05T10:03:39Z</time>
      </trkpt>
      <trkpt lat="27.82114600" lon="-15.6650850">
        <ele>109.67100</ele>
        <time>2009-01-05T10:03:40Z</time>
      </trkpt>
      <trkpt lat="27.82120200" lon="-15.6651100">
        <ele>109.70100</ele>
        <time>2009-01-05T10:03:41Z</time>
      </trkpt>
      <trkpt lat="27.82125700" lon="-15.6651340">
        <ele>109.86400</ele>
        <time>2009-01-05T10:03:42Z</time>
      </trkpt>
      <trkpt lat="27.82131200" lon="-15.6651590">
        <ele>110.04200</ele>
        <time>2009-01-05T10:03:43Z</time>
      </trkpt>
      <trkpt lat="27.82136600" lon="-15.6651840">
        <ele>110.15200</ele>
        <time>2009-01-05T10:03:44Z</time>
      </trkpt>
      <trkpt lat="27.82142100" lon="-15.6652100">
        <ele>109.88600</ele>
        <time>2009-01-05T10:03:45Z</time>
      </trkpt>
      <trkpt lat="27.82147400" lon="-15.6652360">
        <ele>110.19200</ele>
        <time>2009-01-05T10:03:46Z</time>
      </trkpt>
      <trkpt lat="27.82152700" lon="-15.6652610">
        <ele>110.15300</ele>
        <time>2009-01-05T10:03:47Z</time>
      </trkpt>
      <trkpt lat="27.82158000" lon="-15.6652850">
        <ele>110.51900</ele>
        <time>2009-01-05T10:03:48Z</time>
      </trkpt>
      <trkpt lat="27.82163300" lon="-15.6653100">
        <ele>110.74500</ele>
        <time>2009-01-05T10:03:49Z</time>
      </trkpt>
      <trkpt lat="27.82168600" lon="-15.6653350">
        <ele>110.64800</ele>
        <time>2009-01-05T10:03:50Z</time>
      </trkpt>
      <trkpt lat="27.82173900" lon="-15.6653610">
        <ele>110.69700</ele>
        <time>2009-01-05T10:03:51Z</time>
      </trkpt>
      <trkpt lat="27.82179300" lon="-15.6653850">
        <ele>110.70900</ele>
        <time>2009-01-05T10:03:52Z</time>
      </trkpt>
      <trkpt lat="27.82184600" lon="-15.6654100">
        <ele>111.31000</ele>
        <time>2009-01-05T10:03:53Z</time>
      </trkpt>
      <trkpt lat="27.82190000" lon="-15.6654340">
        <ele>111.16100</ele>
        <time>2009-01-05T10:03:54Z</time>
      </trkpt>
      <trkpt lat="27.82195500" lon="-15.6654580">
        <ele>110.83200</ele>
        <time>2009-01-05T10:03:55Z</time>
      </trkpt>
      <trkpt lat="27.82201200" lon="-15.6654800">
        <ele>111.33200</ele>
        <time>2009-01-05T10:03:56Z</time>
      </trkpt>
      <trkpt lat="27.82206900" lon="-15.6654990">
        <ele>110.88700</ele>
        <time>2009-01-05T10:03:57Z</time>
      </trkpt>
      <trkpt lat="27.82212600" lon="-15.6655180">
        <ele>111.31100</ele>
        <time>2009-01-05T10:03:58Z</time>
      </trkpt>
      <trkpt lat="27.82218300" lon="-15.6655370">
        <ele>111.17000</ele>
        <time>2009-01-05T10:03:59Z</time>
      </trkpt>
      <trkpt lat="27.82223900" lon="-15.6655580">
        <ele>111.43000</ele>
        <time>2009-01-05T10:04:00Z</time>
      </trkpt>
      <trkpt lat="27.82229600" lon="-15.6655810">
        <ele>111.41600</ele>
        <time>2009-01-05T10:04:01Z</time>
      </trkpt>
      <trkpt lat="27.82235000" lon="-15.6656060">
        <ele>111.34100</ele>
        <time>2009-01-05T10:04:02Z</time>
      </trkpt>
      <trkpt lat="27.82240200" lon="-15.6656350">
        <ele>111.46100</ele>
        <time>2009-01-05T10:04:03Z</time>
      </trkpt>
      <trkpt lat="27.82245400" lon="-15.6656670">
        <ele>111.81400</ele>
        <time>2009-01-05T10:04:04Z</time>
      </trkpt>
      <trkpt lat="27.82250400" lon="-15.6657000">
        <ele>111.72800</ele>
        <time>2009-01-05T10:04:05Z</time>
      </trkpt>
      <trkpt lat="27.82255400" lon="-15.6657350">
        <ele>111.79300</ele>
        <time>2009-01-05T10:04:06Z</time>
      </trkpt>
      <trkpt lat="27.82260200" lon="-15.6657690">
        <ele>111.74500</ele>
        <time>2009-01-05T10:04:07Z</time>
      </trkpt>
      <trkpt lat="27.82265200" lon="-15.6658030">
        <ele>112.04800</ele>
        <time>2009-01-05T10:04:08Z</time>
      </trkpt>
      <trkpt lat="27.82270200" lon="-15.6658350">
        <ele>112.02600</ele>
        <time>2009-01-05T10:04:09Z</time>
      </trkpt>
      <trkpt lat="27.82275400" lon="-15.6658630">
        <ele>112.05600</ele>
        <time>2009-01-05T10:04:10Z</time>
      </trkpt>
      <trkpt lat="27.82280700" lon="-15.6658880">
        <ele>112.33600</ele>
        <time>2009-01-05T10:04:11Z</time>
      </trkpt>
      <trkpt lat="27.82286100" lon="-15.6659100">
        <ele>112.54100</ele>
        <time>2009-01-05T10:04:12Z</time>
      </trkpt>
      <trkpt lat="27.82291500" lon="-15.6659300">
        <ele>112.44500</ele>
        <time>2009-01-05T10:04:13Z</time>
      </trkpt>
      <trkpt lat="27.82296900" lon="-15.6659500">
        <ele>112.61600</ele>
        <time>2009-01-05T10:04:14Z</time>
      </trkpt>
      <trkpt lat="27.82302300" lon="-15.6659680">
        <ele>113.03800</ele>
        <time>2009-01-05T10:04:15Z</time>
      </trkpt>
      <trkpt lat="27.82307600" lon="-15.6659850">
        <ele>112.81200</ele>
        <time>2009-01-05T10:04:16Z</time>
      </trkpt>
      <trkpt lat="27.82312900" lon="-15.6660020">
        <ele>113.20800</ele>
        <time>2009-01-05T10:04:17Z</time>
      </trkpt>
      <trkpt lat="27.82318400" lon="-15.6660200">
        <ele>113.19600</ele>
        <time>2009-01-05T10:04:18Z</time>
      </trkpt>
      <trkpt lat="27.82323800" lon="-15.6660390">
        <ele>113.19300</ele>
        <time>2009-01-05T10:04:19Z</time>
      </trkpt>
      <trkpt lat="27.82329400" lon="-15.6660560">
        <ele>113.37200</ele>
        <time>2009-01-05T10:04:20Z</time>
      </trkpt>
      <trkpt lat="27.82335000" lon="-15.6660710">
        <ele>113.35500</ele>
        <time>2009-01-05T10:04:21Z</time>
      </trkpt>
      <trkpt lat="27.82340700" lon="-15.6660860">
        <ele>113.50400</ele>
        <time>2009-01-05T10:04:22Z</time>
      </trkpt>
      <trkpt lat="27.82346300" lon="-15.6660980">
        <ele>113.71200</ele>
        <time>2009-01-05T10:04:23Z</time>
      </trkpt>
      <trkpt lat="27.82352100" lon="-15.6661060">
        <ele>113.86200</ele>
        <time>2009-01-05T10:04:24Z</time>
      </trkpt>
      <trkpt lat="27.82357800" lon="-15.6661100">
        <ele>113.94000</ele>
        <time>2009-01-05T10:04:25Z</time>
      </trkpt>
      <trkpt lat="27.82363500" lon="-15.6661100">
        <ele>113.66200</ele>
        <time>2009-01-05T10:04:26Z</time>
      </trkpt>
      <trkpt lat="27.82369100" lon="-15.6661000">
        <ele>113.95400</ele>
        <time>2009-01-05T10:04:27Z</time>
      </trkpt>
      <trkpt lat="27.82374500" lon="-15.6660810">
        <ele>113.91900</ele>
        <time>2009-01-05T10:04:28Z</time>
      </trkpt>
      <trkpt lat="27.82379600" lon="-15.6660570">
        <ele>114.21600</ele>
        <time>2009-01-05T10:04:29Z</time>
      </trkpt>
      <trkpt lat="27.82384700" lon="-15.6660320">
        <ele>114.10700</ele>
        <time>2009-01-05T10:04:30Z</time>
      </trkpt>
      <trkpt lat="27.82389600" lon="-15.6660050">
        <ele>114.37000</ele>
        <time>2009-01-05T10:04:31Z</time>
      </trkpt>
      <trkpt lat="27.82394300" lon="-15.6659760">
        <ele>114.29800</ele>
        <time>2009-01-05T10:04:32Z</time>
      </trkpt>
      <trkpt lat="27.82399100" lon="-15.6659460">
        <ele>114.70400</ele>
        <time>2009-01-05T10:04:33Z</time>
      </trkpt>
      <trkpt lat="27.82403600" lon="-15.6659140">
        <ele>114.94600</ele>
        <time>2009-01-05T10:04:34Z</time>
      </trkpt>
      <trkpt lat="27.82407900" lon="-15.6658750">
        <ele>115.04000</ele>
        <time>2009-01-05T10:04:35Z</time>
      </trkpt>
      <trkpt lat="27.82412100" lon="-15.6658320">
        <ele>115.21300</ele>
        <time>2009-01-05T10:04:36Z</time>
      </trkpt>
      <trkpt lat="27.82415900" lon="-15.6657870">
        <ele>115.28600</ele>
        <time>2009-01-05T10:04:37Z</time>
      </trkpt>
      <trkpt lat="27.82419300" lon="-15.6657390">
        <ele>115.26900</ele>
        <time>2009-01-05T10:04:38Z</time>
      </trkpt>
      <trkpt lat="27.82422500" lon="-15.6656890">
        <ele>115.45500</ele>
        <time>2009-01-05T10:04:39Z</time>
      </trkpt>
      <trkpt lat="27.82425600" lon="-15.6656390">
        <ele>115.73400</ele>
        <time>2009-01-05T10:04:40Z</time>
      </trkpt>
      <trkpt lat="27.82428500" lon="-15.6655880">
        <ele>115.78000</ele>
        <time>2009-01-05T10:04:41Z</time>
      </trkpt>
      <trkpt lat="27.82431200" lon="-15.6655350">
        <ele>115.78400</ele>
        <time>2009-01-05T10:04:42Z</time>
      </trkpt>
      <trkpt lat="27.82434000" lon="-15.6654800">
        <ele>115.74300</ele>
        <time>2009-01-05T10:04:43Z</time>
      </trkpt>
      <trkpt lat="27.82436800" lon="-15.6654240">
        <ele>115.72800</ele>
        <time>2009-01-05T10:04:44Z</time>
      </trkpt>
      <trkpt lat="27.82439500" lon="-15.6653670">
        <ele>116.03600</ele>
        <time>2009-01-05T10:04:45Z</time>
      </trkpt>
      <trkpt lat="27.82442100" lon="-15.6653100">
        <ele>115.93200</ele>
        <time>2009-01-05T10:04:46Z</time>
      </trkpt>
      <trkpt lat="27.82444600" lon="-15.6652520">
        <ele>116.26100</ele>
        <time>2009-01-05T10:04:47Z</time>
      </trkpt>
      <trkpt lat="27.82447300" lon="-15.6651940">
        <ele>116.20200</ele>
        <time>2009-01-05T10:04:48Z</time>
      </trkpt>
      <trkpt lat="27.82450300" lon="-15.6651380">
        <ele>116.23700</ele>
        <time>2009-01-05T10:04:49Z</time>
      </trkpt>
      <trkpt lat="27.82453700" lon="-15.6650840">
        <ele>116.49500</ele>
        <time>2009-01-05T10:04:50Z</time>
      </trkpt>
      <trkpt lat="27.82457400" lon="-15.6650330">
        <ele>116.77900</ele>
        <time>2009-01-05T10:04:51Z</time>
      </trkpt>
      <trkpt lat="27.82461400" lon="-15.6649840">
        <ele>116.69100</ele>
        <time>2009-01-05T10:04:52Z</time>
      </trkpt>
      <trkpt lat="27.82465500" lon="-15.6649360">
        <ele>116.67300</ele>
        <time>2009-01-05T10:04:53Z</time>
      </trkpt>
      <trkpt lat="27.82469500" lon="-15.6648870">
        <ele>116.52400</ele>
        <time>2009-01-05T10:04:54Z</time>
      </trkpt>
      <trkpt lat="27.82473500" lon="-15.6648390">
        <ele>116.70000</ele>
        <time>2009-01-05T10:04:55Z</time>
      </trkpt>
      <trkpt lat="27.82477400" lon="-15.6647890">
        <ele>116.89200</ele>
        <time>2009-01-05T10:04:56Z</time>
      </trkpt>
      <trkpt lat="27.82481000" lon="-15.6647370">
        <ele>116.94100</ele>
        <time>2009-01-05T10:04:57Z</time>
      </trkpt>
      <trkpt lat="27.82484300" lon="-15.6646830">
        <ele>117.45200</ele>
        <time>2009-01-05T10:04:58Z</time>
      </trkpt>
      <trkpt lat="27.82487300" lon="-15.6646270">
        <ele>117.08600</ele>
        <time>2009-01-05T10:04:59Z</time>
      </trkpt>
      <trkpt lat="27.82489700" lon="-15.6645680">
        <ele>117.49400</ele>
        <time>2009-01-05T10:05:00Z</time>
      </trkpt>
      <trkpt lat="27.82491400" lon="-15.6645060">
        <ele>117.90600</ele>
        <time>2009-01-05T10:05:01Z</time>
      </trkpt>
      <trkpt lat="27.82492600" lon="-15.6644440">
        <ele>118.09200</ele>
        <time>2009-01-05T10:05:02Z</time>
      </trkpt>
      <trkpt lat="27.82493700" lon="-15.6643810">
        <ele>118.16200</ele>
        <time>2009-01-05T10:05:03Z</time>
      </trkpt>
      <trkpt lat="27.82494600" lon="-15.6643190">
        <ele>118.28700</ele>
        <time>2009-01-05T10:05:04Z</time>
      </trkpt>
      <trkpt lat="27.82495600" lon="-15.6642560">
        <ele>118.05900</ele>
        <time>2009-01-05T10:05:05Z</time>
      </trkpt>
      <trkpt lat="27.82496600" lon="-15.6641930">
        <ele>118.57000</ele>
        <time>2009-01-05T10:05:06Z</time>
      </trkpt>
      <trkpt lat="27.82497800" lon="-15.6641290">
        <ele>118.48700</ele>
        <time>2009-01-05T10:05:07Z</time>
      </trkpt>
      <trkpt lat="27.82499500" lon="-15.6640660">
        <ele>118.76800</ele>
        <time>2009-01-05T10:05:08Z</time>
      </trkpt>
      <trkpt lat="27.82501000" lon="-15.6640030">
        <ele>118.58700</ele>
        <time>2009-01-05T10:05:09Z</time>
      </trkpt>
      <trkpt lat="27.82502500" lon="-15.6639420">
        <ele>118.60200</ele>
        <time>2009-01-05T10:05:10Z</time>
      </trkpt>
      <trkpt lat="27.82504200" lon="-15.6638800">
        <ele>118.77200</ele>
        <time>2009-01-05T10:05:11Z</time>
      </trkpt>
      <trkpt lat="27.82505900" lon="-15.6638180">
        <ele>118.78800</ele>
        <time>2009-01-05T10:05:12Z</time>
      </trkpt>
      <trkpt lat="27.82507700" lon="-15.6637560">
        <ele>118.95400</ele>
        <time>2009-01-05T10:05:13Z</time>
      </trkpt>
      <trkpt lat="27.82509900" lon="-15.6636960">
        <ele>118.95400</ele>
        <time>2009-01-05T10:05:14Z</time>
      </trkpt>
      <trkpt lat="27.82512200" lon="-15.6636350">
        <ele>119.13100</ele>
        <time>2009-01-05T10:05:15Z</time>
      </trkpt>
      <trkpt lat="27.82514600" lon="-15.6635740">
        <ele>119.46600</ele>
        <time>2009-01-05T10:05:16Z</time>
      </trkpt>
      <trkpt lat="27.82517100" lon="-15.6635120">
        <ele>119.38200</ele>
        <time>2009-01-05T10:05:17Z</time>
      </trkpt>
      <trkpt lat="27.82519600" lon="-15.6634490">
        <ele>119.73800</ele>
        <time>2009-01-05T10:05:18Z</time>
      </trkpt>
      <trkpt lat="27.82522000" lon="-15.6633860">
        <ele>119.53000</ele>
        <time>2009-01-05T10:05:19Z</time>
      </trkpt>
      <trkpt lat="27.82524500" lon="-15.6633220">
        <ele>119.55600</ele>
        <time>2009-01-05T10:05:20Z</time>
      </trkpt>
      <trkpt lat="27.82527200" lon="-15.6632580">
        <ele>119.95300</ele>
        <time>2009-01-05T10:05:21Z</time>
      </trkpt>
      <trkpt lat="27.82529900" lon="-15.6631950">
        <ele>119.78900</ele>
        <time>2009-01-05T10:05:22Z</time>
      </trkpt>
      <trkpt lat="27.82532700" lon="-15.6631310">
        <ele>120.19700</ele>
        <time>2009-01-05T10:05:23Z</time>
      </trkpt>
      <trkpt lat="27.82535400" lon="-15.6630670">
        <ele>119.99400</ele>
        <time>2009-01-05T10:05:24Z</time>
      </trkpt>
      <trkpt lat="27.82538200" lon="-15.6630030">
        <ele>120.10200</ele>
        <time>2009-01-05T10:05:25Z</time>
      </trkpt>
      <trkpt lat="27.82540900" lon="-15.6629370">
        <ele>120.22500</ele>
        <time>2009-01-05T10:05:26Z</time>
      </trkpt>
      <trkpt lat="27.82543700" lon="-15.6628710">
        <ele>120.05600</ele>
        <time>2009-01-05T10:05:27Z</time>
      </trkpt>
      <trkpt lat="27.82546400" lon="-15.6628050">
        <ele>120.29000</ele>
        <time>2009-01-05T10:05:28Z</time>
      </trkpt>
      <trkpt lat="27.82549200" lon="-15.6627400">
        <ele>120.20600</ele>
        <time>2009-01-05T10:05:29Z</time>
      </trkpt>
      <trkpt lat="27.82552000" lon="-15.6626760">
        <ele>120.09400</ele>
        <time>2009-01-05T10:05:30Z</time>
      </trkpt>
      <trkpt lat="27.82555100" lon="-15.6626130">
        <ele>120.52500</ele>
        <time>2009-01-05T10:05:31Z</time>
      </trkpt>
      <trkpt lat="27.82558400" lon="-15.6625530">
        <ele>120.48200</ele>
        <time>2009-01-05T10:05:32Z</time>
      </trkpt>
      <trkpt lat="27.82561900" lon="-15.6624950">
        <ele>120.54700</ele>
        <time>2009-01-05T10:05:33Z</time>
      </trkpt>
      <trkpt lat="27.82565500" lon="-15.6624400">
        <ele>120.26300</ele>
        <time>2009-01-05T10:05:34Z</time>
      </trkpt>
      <trkpt lat="27.82569300" lon="-15.6623860">
        <ele>120.67600</ele>
        <time>2009-01-05T10:05:35Z</time>
      </trkpt>
      <trkpt lat="27.82573100" lon="-15.6623340">
        <ele>120.80700</ele>
        <time>2009-01-05T10:05:36Z</time>
      </trkpt>
      <trkpt lat="27.82577000" lon="-15.6622840">
        <ele>120.95900</ele>
        <time>2009-01-05T10:05:37Z</time>
      </trkpt>
      <trkpt lat="27.82580800" lon="-15.6622350">
        <ele>121.07500</ele>
        <time>2009-01-05T10:05:38Z</time>
      </trkpt>
      <trkpt lat="27.82584800" lon="-15.6621890">
        <ele>121.48400</ele>
        <time>2009-01-05T10:05:39Z</time>
      </trkpt>
      <trkpt lat="27.82588900" lon="-15.6621440">
        <ele>121.85300</ele>
        <time>2009-01-05T10:05:40Z</time>
      </trkpt>
      <trkpt lat="27.82593200" lon="-15.6621020">
        <ele>121.65100</ele>
        <time>2009-01-05T10:05:41Z</time>
      </trkpt>
      <trkpt lat="27.82597400" lon="-15.6620620">
        <ele>122.03900</ele>
        <time>2009-01-05T10:05:42Z</time>
      </trkpt>
      <trkpt lat="27.82601800" lon="-15.6620220">
        <ele>121.67900</ele>
        <time>2009-01-05T10:05:43Z</time>
      </trkpt>
      <trkpt lat="27.82606200" lon="-15.6619830">
        <ele>121.88900</ele>
        <time>2009-01-05T10:05:44Z</time>
      </trkpt>
      <trkpt lat="27.82610800" lon="-15.6619430">
        <ele>121.87100</ele>
        <time>2009-01-05T10:05:45Z</time>
      </trkpt>
      <trkpt lat="27.82615400" lon="-15.6619050">
        <ele>121.68000</ele>
        <time>2009-01-05T10:05:46Z</time>
      </trkpt>
      <trkpt lat="27.82620200" lon="-15.6618660">
        <ele>121.82700</ele>
        <time>2009-01-05T10:05:47Z</time>
      </trkpt>
      <trkpt lat="27.82625100" lon="-15.6618290">
        <ele>122.04700</ele>
        <time>2009-01-05T10:05:48Z</time>
      </trkpt>
      <trkpt lat="27.82630000" lon="-15.6617940">
        <ele>122.12800</ele>
        <time>2009-01-05T10:05:49Z</time>
      </trkpt>
      <trkpt lat="27.82635200" lon="-15.6617630">
        <ele>122.14400</ele>
        <time>2009-01-05T10:05:50Z</time>
      </trkpt>
      <trkpt lat="27.82640500" lon="-15.6617350">
        <ele>122.28600</ele>
        <time>2009-01-05T10:05:51Z</time>
      </trkpt>
      <trkpt lat="27.82645900" lon="-15.6617110">
        <ele>122.40800</ele>
        <time>2009-01-05T10:05:52Z</time>
      </trkpt>
      <trkpt lat="27.82651400" lon="-15.6616890">
        <ele>122.44500</ele>
        <time>2009-01-05T10:05:53Z</time>
      </trkpt>
      <trkpt lat="27.82656900" lon="-15.6616730">
        <ele>122.97300</ele>
        <time>2009-01-05T10:05:54Z</time>
      </trkpt>
      <trkpt lat="27.82662500" lon="-15.6616600">
        <ele>122.83600</ele>
        <time>2009-01-05T10:05:55Z</time>
      </trkpt>
      <trkpt lat="27.82668100" lon="-15.6616490">
        <ele>123.10500</ele>
        <time>2009-01-05T10:05:56Z</time>
      </trkpt>
      <trkpt lat="27.82674200" lon="-15.6616430">
        <ele>123.34800</ele>
        <time>2009-01-05T10:05:57Z</time>
      </trkpt>
      <trkpt lat="27.82681900" lon="-15.6616420">
        <ele>123.79800</ele>
        <time>2009-01-05T10:05:58Z</time>
      </trkpt>
      <trkpt lat="27.82688700" lon="-15.6616410">
        <ele>123.74000</ele>
        <time>2009-01-05T10:05:59Z</time>
      </trkpt>
      <trkpt lat="27.82694200" lon="-15.6616390">
        <ele>124.16300</ele>
        <time>2009-01-05T10:06:00Z</time>
      </trkpt>
      <trkpt lat="27.82699300" lon="-15.6616390">
        <ele>123.94900</ele>
        <time>2009-01-05T10:06:01Z</time>
      </trkpt>
      <trkpt lat="27.82704400" lon="-15.6616400">
        <ele>124.05800</ele>
        <time>2009-01-05T10:06:02Z</time>
      </trkpt>
      <trkpt lat="27.82709500" lon="-15.6616430">
        <ele>124.29100</ele>
        <time>2009-01-05T10:06:03Z</time>
      </trkpt>
      <trkpt lat="27.82715000" lon="-15.6616500">
        <ele>124.38600</ele>
        <time>2009-01-05T10:06:04Z</time>
      </trkpt>
      <trkpt lat="27.82720200" lon="-15.6616600">
        <ele>124.48400</ele>
        <time>2009-01-05T10:06:05Z</time>
      </trkpt>
      <trkpt lat="27.82725500" lon="-15.6616750">
        <ele>124.63500</ele>
        <time>2009-01-05T10:06:06Z</time>
      </trkpt>
      <trkpt lat="27.82730500" lon="-15.6616940">
        <ele>125.22200</ele>
        <time>2009-01-05T10:06:07Z</time>
      </trkpt>
      <trkpt lat="27.82735700" lon="-15.6617160">
        <ele>124.68500</ele>
        <time>2009-01-05T10:06:08Z</time>
      </trkpt>
      <trkpt lat="27.82740900" lon="-15.6617390">
        <ele>124.63500</ele>
        <time>2009-01-05T10:06:09Z</time>
      </trkpt>
      <trkpt lat="27.82746000" lon="-15.6617630">
        <ele>125.06000</ele>
        <time>2009-01-05T10:06:10Z</time>
      </trkpt>
      <trkpt lat="27.82751200" lon="-15.6617880">
        <ele>125.04700</ele>
        <time>2009-01-05T10:06:11Z</time>
      </trkpt>
      <trkpt lat="27.82756300" lon="-15.6618140">
        <ele>125.17600</ele>
        <time>2009-01-05T10:06:12Z</time>
      </trkpt>
      <trkpt lat="27.82761500" lon="-15.6618410">
        <ele>125.36300</ele>
        <time>2009-01-05T10:06:13Z</time>
      </trkpt>
      <trkpt lat="27.82766600" lon="-15.6618680">
        <ele>125.46600</ele>
        <time>2009-01-05T10:06:14Z</time>
      </trkpt>
      <trkpt lat="27.82771800" lon="-15.6618960">
        <ele>125.43700</ele>
        <time>2009-01-05T10:06:15Z</time>
      </trkpt>
      <trkpt lat="27.82777100" lon="-15.6619210">
        <ele>125.19800</ele>
        <time>2009-01-05T10:06:16Z</time>
      </trkpt>
      <trkpt lat="27.82782600" lon="-15.6619450">
        <ele>125.46500</ele>
        <time>2009-01-05T10:06:17Z</time>
      </trkpt>
      <trkpt lat="27.82788100" lon="-15.6619700">
        <ele>125.66800</ele>
        <time>2009-01-05T10:06:18Z</time>
      </trkpt>
      <trkpt lat="27.82793600" lon="-15.6619960">
        <ele>126.05100</ele>
        <time>2009-01-05T10:06:19Z</time>
      </trkpt>
      <trkpt lat="27.82799100" lon="-15.6620210">
        <ele>125.82700</ele>
        <time>2009-01-05T10:06:20Z</time>
      </trkpt>
      <trkpt lat="27.82804800" lon="-15.6620430">
        <ele>126.04600</ele>
        <time>2009-01-05T10:06:21Z</time>
      </trkpt>
      <trkpt lat="27.82810600" lon="-15.6620620">
        <ele>126.13300</ele>
        <time>2009-01-05T10:06:22Z</time>
      </trkpt>
      <trkpt lat="27.82816500" lon="-15.6620770">
        <ele>126.14000</ele>
        <time>2009-01-05T10:06:23Z</time>
      </trkpt>
      <trkpt lat="27.82822400" lon="-15.6620890">
        <ele>126.29600</ele>
        <time>2009-01-05T10:06:24Z</time>
      </trkpt>
      <trkpt lat="27.82828300" lon="-15.6620970">
        <ele>126.38300</ele>
        <time>2009-01-05T10:06:25Z</time>
      </trkpt>
      <trkpt lat="27.82834300" lon="-15.6621020">
        <ele>126.39300</ele>
        <time>2009-01-05T10:06:26Z</time>
      </trkpt>
      <trkpt lat="27.82840100" lon="-15.6621040">
        <ele>126.51700</ele>
        <time>2009-01-05T10:06:27Z</time>
      </trkpt>
      <trkpt lat="27.82845900" lon="-15.6621000">
        <ele>126.85200</ele>
        <time>2009-01-05T10:06:28Z</time>
      </trkpt>
      <trkpt lat="27.82851500" lon="-15.6620910">
        <ele>126.96000</ele>
        <time>2009-01-05T10:06:29Z</time>
      </trkpt>
      <trkpt lat="27.82857000" lon="-15.6620790">
        <ele>126.88000</ele>
        <time>2009-01-05T10:06:30Z</time>
      </trkpt>
      <trkpt lat="27.82862500" lon="-15.6620650">
        <ele>127.18300</ele>
        <time>2009-01-05T10:06:31Z</time>
      </trkpt>
      <trkpt lat="27.82867900" lon="-15.6620520">
        <ele>127.57900</ele>
        <time>2009-01-05T10:06:32Z</time>
      </trkpt>
      <trkpt lat="27.82873000" lon="-15.6620390">
        <ele>127.68600</ele>
        <time>2009-01-05T10:06:33Z</time>
      </trkpt>
      <trkpt lat="27.82877900" lon="-15.6620260">
        <ele>127.61700</ele>
        <time>2009-01-05T10:06:34Z</time>
      </trkpt>
      <trkpt lat="27.82882800" lon="-15.6620110">
        <ele>127.70600</ele>
        <time>2009-01-05T10:06:35Z</time>
      </trkpt>
      <trkpt lat="27.82887600" lon="-15.6619950">
        <ele>128.21800</ele>
        <time>2009-01-05T10:06:36Z</time>
      </trkpt>
      <trkpt lat="27.82892200" lon="-15.6619780">
        <ele>128.31200</ele>
        <time>2009-01-05T10:06:37Z</time>
      </trkpt>
      <trkpt lat="27.82896800" lon="-15.6619610">
        <ele>128.62100</ele>
        <time>2009-01-05T10:06:38Z</time>
      </trkpt>
      <trkpt lat="27.82901400" lon="-15.6619470">
        <ele>128.62300</ele>
        <time>2009-01-05T10:06:39Z</time>
      </trkpt>
      <trkpt lat="27.82905700" lon="-15.6619320">
        <ele>129.31500</ele>
        <time>2009-01-05T10:06:40Z</time>
      </trkpt>
      <trkpt lat="27.82910300" lon="-15.6619150">
        <ele>129.35900</ele>
        <time>2009-01-05T10:06:41Z</time>
      </trkpt>
      <trkpt lat="27.82914800" lon="-15.6619020">
        <ele>129.44800</ele>
        <time>2009-01-05T10:06:42Z</time>
      </trkpt>
      <trkpt lat="27.82919300" lon="-15.6618900">
        <ele>129.89400</ele>
        <time>2009-01-05T10:06:43Z</time>
      </trkpt>
      <trkpt lat="27.82924000" lon="-15.6618820">
        <ele>130.01000</ele>
        <time>2009-01-05T10:06:44Z</time>
      </trkpt>
      <trkpt lat="27.82928700" lon="-15.6618750">
        <ele>130.48800</ele>
        <time>2009-01-05T10:06:45Z</time>
      </trkpt>
      <trkpt lat="27.82933200" lon="-15.6618650">
        <ele>130.52500</ele>
        <time>2009-01-05T10:06:46Z</time>
      </trkpt>
      <trkpt lat="27.82937500" lon="-15.6618580">
        <ele>130.63600</ele>
        <time>2009-01-05T10:06:47Z</time>
      </trkpt>
      <trkpt lat="27.82942000" lon="-15.6618520">
        <ele>130.91000</ele>
        <time>2009-01-05T10:06:48Z</time>
      </trkpt>
      <trkpt lat="27.82946500" lon="-15.6618500">
        <ele>131.13200</ele>
        <time>2009-01-05T10:06:49Z</time>
      </trkpt>
      <trkpt lat="27.82950900" lon="-15.6618440">
        <ele>131.20700</ele>
        <time>2009-01-05T10:06:50Z</time>
      </trkpt>
      <trkpt lat="27.82955400" lon="-15.6618310">
        <ele>131.27100</ele>
        <time>2009-01-05T10:06:51Z</time>
      </trkpt>
      <trkpt lat="27.82959800" lon="-15.6618160">
        <ele>131.68100</ele>
        <time>2009-01-05T10:06:52Z</time>
      </trkpt>
      <trkpt lat="27.82964300" lon="-15.6617950">
        <ele>131.84000</ele>
        <time>2009-01-05T10:06:53Z</time>
      </trkpt>
      <trkpt lat="27.82969000" lon="-15.6617690">
        <ele>131.61800</ele>
        <time>2009-01-05T10:06:54Z</time>
      </trkpt>
      <trkpt lat="27.82973300" lon="-15.6617370">
        <ele>131.14500</ele>
        <time>2009-01-05T10:06:55Z</time>
      </trkpt>
      <trkpt lat="27.82976600" lon="-15.6616950">
        <ele>131.34900</ele>
        <time>2009-01-05T10:06:56Z</time>
      </trkpt>
      <trkpt lat="27.82979600" lon="-15.6616510">
        <ele>131.51100</ele>
        <time>2009-01-05T10:06:57Z</time>
      </trkpt>
      <trkpt lat="27.82982700" lon="-15.6616070">
        <ele>131.36100</ele>
        <time>2009-01-05T10:06:58Z</time>
      </trkpt>
      <trkpt lat="27.82986100" lon="-15.6615620">
        <ele>131.46100</ele>
        <time>2009-01-05T10:06:59Z</time>
      </trkpt>
      <trkpt lat="27.82989100" lon="-15.6615130">
        <ele>131.62000</ele>
        <time>2009-01-05T10:07:00Z</time>
      </trkpt>
      <trkpt lat="27.82992100" lon="-15.6614600">
        <ele>131.83700</ele>
        <time>2009-01-05T10:07:01Z</time>
      </trkpt>
      <trkpt lat="27.82995100" lon="-15.6614040">
        <ele>131.96100</ele>
        <time>2009-01-05T10:07:02Z</time>
      </trkpt>
      <trkpt lat="27.82997700" lon="-15.6613470">
        <ele>131.84200</ele>
        <time>2009-01-05T10:07:03Z</time>
      </trkpt>
      <trkpt lat="27.82999800" lon="-15.6612860">
        <ele>131.63600</ele>
        <time>2009-01-05T10:07:04Z</time>
      </trkpt>
      <trkpt lat="27.83001500" lon="-15.6612240">
        <ele>131.59400</ele>
        <time>2009-01-05T10:07:05Z</time>
      </trkpt>
      <trkpt lat="27.83002600" lon="-15.6611620">
        <ele>131.85300</ele>
        <time>2009-01-05T10:07:06Z</time>
      </trkpt>
      <trkpt lat="27.83003700" lon="-15.6611010">
        <ele>131.88800</ele>
        <time>2009-01-05T10:07:07Z</time>
      </trkpt>
      <trkpt lat="27.83004900" lon="-15.6610400">
        <ele>132.06300</ele>
        <time>2009-01-05T10:07:08Z</time>
      </trkpt>
      <trkpt lat="27.83006200" lon="-15.6609800">
        <ele>132.11200</ele>
        <time>2009-01-05T10:07:09Z</time>
      </trkpt>
      <trkpt lat="27.83007300" lon="-15.6609200">
        <ele>132.29200</ele>
        <time>2009-01-05T10:07:10Z</time>
      </trkpt>
      <trkpt lat="27.83008900" lon="-15.6608620">
        <ele>132.16700</ele>
        <time>2009-01-05T10:07:11Z</time>
      </trkpt>
      <trkpt lat="27.83011100" lon="-15.6608080">
        <ele>132.26800</ele>
        <time>2009-01-05T10:07:12Z</time>
      </trkpt>
      <trkpt lat="27.83013900" lon="-15.6607580">
        <ele>132.47300</ele>
        <time>2009-01-05T10:07:13Z</time>
      </trkpt>
      <trkpt lat="27.83017000" lon="-15.6607100">
        <ele>132.43000</ele>
        <time>2009-01-05T10:07:14Z</time>
      </trkpt>
      <trkpt lat="27.83020600" lon="-15.6606660">
        <ele>132.74300</ele>
        <time>2009-01-05T10:07:15Z</time>
      </trkpt>
      <trkpt lat="27.83024300" lon="-15.6606230">
        <ele>132.67100</ele>
        <time>2009-01-05T10:07:16Z</time>
      </trkpt>
      <trkpt lat="27.83028600" lon="-15.6605820">
        <ele>132.71400</ele>
        <time>2009-01-05T10:07:17Z</time>
      </trkpt>
      <trkpt lat="27.83032800" lon="-15.6605420">
        <ele>132.69500</ele>
        <time>2009-01-05T10:07:18Z</time>
      </trkpt>
      <trkpt lat="27.83037200" lon="-15.6605040">
        <ele>132.60300</ele>
        <time>2009-01-05T10:07:19Z</time>
      </trkpt>
      <trkpt lat="27.83041900" lon="-15.6604690">
        <ele>133.01700</ele>
        <time>2009-01-05T10:07:20Z</time>
      </trkpt>
      <trkpt lat="27.83046600" lon="-15.6604370">
        <ele>132.99200</ele>
        <time>2009-01-05T10:07:21Z</time>
      </trkpt>
      <trkpt lat="27.83051400" lon="-15.6604080">
        <ele>132.99000</ele>
        <time>2009-01-05T10:07:22Z</time>
      </trkpt>
      <trkpt lat="27.83056300" lon="-15.6603790">
        <ele>133.14400</ele>
        <time>2009-01-05T10:07:23Z</time>
      </trkpt>
      <trkpt lat="27.83061000" lon="-15.6603490">
        <ele>133.12100</ele>
        <time>2009-01-05T10:07:24Z</time>
      </trkpt>
      <trkpt lat="27.83065800" lon="-15.6603200">
        <ele>133.18000</ele>
        <time>2009-01-05T10:07:25Z</time>
      </trkpt>
      <trkpt lat="27.83070600" lon="-15.6602900">
        <ele>133.03300</ele>
        <time>2009-01-05T10:07:26Z</time>
      </trkpt>
      <trkpt lat="27.83075700" lon="-15.6602590">
        <ele>133.12300</ele>
        <time>2009-01-05T10:07:27Z</time>
      </trkpt>
      <trkpt lat="27.83080700" lon="-15.6602260">
        <ele>133.23200</ele>
        <time>2009-01-05T10:07:28Z</time>
      </trkpt>
      <trkpt lat="27.83085600" lon="-15.6601920">
        <ele>133.09300</ele>
        <time>2009-01-05T10:07:29Z</time>
      </trkpt>
      <trkpt lat="27.83090600" lon="-15.6601570">
        <ele>133.19100</ele>
        <time>2009-01-05T10:07:30Z</time>
      </trkpt>
      <trkpt lat="27.83095500" lon="-15.6601230">
        <ele>132.93700</ele>
        <time>2009-01-05T10:07:31Z</time>
      </trkpt>
      <trkpt lat="27.83100300" lon="-15.6600880">
        <ele>133.11700</ele>
        <time>2009-01-05T10:07:32Z</time>
      </trkpt>
      <trkpt lat="27.83105200" lon="-15.6600550">
        <ele>133.16300</ele>
        <time>2009-01-05T10:07:33Z</time>
      </trkpt>
      <trkpt lat="27.83110200" lon="-15.6600240">
        <ele>133.31900</ele>
        <time>2009-01-05T10:07:34Z</time>
      </trkpt>
      <trkpt lat="27.83115300" lon="-15.6599950">
        <ele>133.60700</ele>
        <time>2009-01-05T10:07:35Z</time>
      </trkpt>
      <trkpt lat="27.83120500" lon="-15.6599710">
        <ele>133.83500</ele>
        <time>2009-01-05T10:07:36Z</time>
      </trkpt>
      <trkpt lat="27.83125700" lon="-15.6599500">
        <ele>134.07000</ele>
        <time>2009-01-05T10:07:37Z</time>
      </trkpt>
      <trkpt lat="27.83130900" lon="-15.6599310">
        <ele>134.15400</ele>
        <time>2009-01-05T10:07:38Z</time>
      </trkpt>
      <trkpt lat="27.83136200" lon="-15.6599150">
        <ele>133.98200</ele>
        <time>2009-01-05T10:07:39Z</time>
      </trkpt>
      <trkpt lat="27.83141600" lon="-15.6599040">
        <ele>134.04800</ele>
        <time>2009-01-05T10:07:40Z</time>
      </trkpt>
      <trkpt lat="27.83147100" lon="-15.6598960">
        <ele>134.60800</ele>
        <time>2009-01-05T10:07:41Z</time>
      </trkpt>
      <trkpt lat="27.83152500" lon="-15.6598890">
        <ele>134.72900</ele>
        <time>2009-01-05T10:07:42Z</time>
      </trkpt>
      <trkpt lat="27.83158000" lon="-15.6598820">
        <ele>134.47500</ele>
        <time>2009-01-05T10:07:43Z</time>
      </trkpt>
      <trkpt lat="27.83163500" lon="-15.6598740">
        <ele>134.74900</ele>
        <time>2009-01-05T10:07:44Z</time>
      </trkpt>
      <trkpt lat="27.83168900" lon="-15.6598660">
        <ele>134.83600</ele>
        <time>2009-01-05T10:07:45Z</time>
      </trkpt>
      <trkpt lat="27.83174400" lon="-15.6598580">
        <ele>134.58200</ele>
        <time>2009-01-05T10:07:46Z</time>
      </trkpt>
      <trkpt lat="27.83179900" lon="-15.6598500">
        <ele>134.68700</ele>
        <time>2009-01-05T10:07:47Z</time>
      </trkpt>
      <trkpt lat="27.83185400" lon="-15.6598400">
        <ele>135.11700</ele>
        <time>2009-01-05T10:07:48Z</time>
      </trkpt>
      <trkpt lat="27.83190800" lon="-15.6598240">
        <ele>134.94000</ele>
        <time>2009-01-05T10:07:49Z</time>
      </trkpt>
      <trkpt lat="27.83196000" lon="-15.6598050">
        <ele>135.09200</ele>
        <time>2009-01-05T10:07:50Z</time>
      </trkpt>
      <trkpt lat="27.83201200" lon="-15.6597820">
        <ele>135.19200</ele>
        <time>2009-01-05T10:07:51Z</time>
      </trkpt>
      <trkpt lat="27.83206200" lon="-15.6597550">
        <ele>135.24200</ele>
        <time>2009-01-05T10:07:52Z</time>
      </trkpt>
      <trkpt lat="27.83211000" lon="-15.6597230">
        <ele>135.30400</ele>
        <time>2009-01-05T10:07:53Z</time>
      </trkpt>
      <trkpt lat="27.83215800" lon="-15.6596910">
        <ele>135.27200</ele>
        <time>2009-01-05T10:07:54Z</time>
      </trkpt>
      <trkpt lat="27.83220500" lon="-15.6596620">
        <ele>135.54900</ele>
        <time>2009-01-05T10:07:55Z</time>
      </trkpt>
      <trkpt lat="27.83225300" lon="-15.6596370">
        <ele>135.70700</ele>
        <time>2009-01-05T10:07:56Z</time>
      </trkpt>
      <trkpt lat="27.83230100" lon="-15.6596170">
        <ele>135.88600</ele>
        <time>2009-01-05T10:07:57Z</time>
      </trkpt>
      <trkpt lat="27.83235100" lon="-15.6596000">
        <ele>136.25800</ele>
        <time>2009-01-05T10:07:58Z</time>
      </trkpt>
      <trkpt lat="27.83240100" lon="-15.6595850">
        <ele>136.09600</ele>
        <time>2009-01-05T10:07:59Z</time>
      </trkpt>
      <trkpt lat="27.83245200" lon="-15.6595730">
        <ele>136.32200</ele>
        <time>2009-01-05T10:08:00Z</time>
      </trkpt>
      <trkpt lat="27.83250500" lon="-15.6595610">
        <ele>136.84800</ele>
        <time>2009-01-05T10:08:01Z</time>
      </trkpt>
      <trkpt lat="27.83255700" lon="-15.6595510">
        <ele>136.68600</ele>
        <time>2009-01-05T10:08:02Z</time>
      </trkpt>
      <trkpt lat="27.83260900" lon="-15.6595400">
        <ele>137.07900</ele>
        <time>2009-01-05T10:08:03Z</time>
      </trkpt>
      <trkpt lat="27.83266100" lon="-15.6595280">
        <ele>136.90900</ele>
        <time>2009-01-05T10:08:04Z</time>
      </trkpt>
      <trkpt lat="27.83271200" lon="-15.6595160">
        <ele>136.89700</ele>
        <time>2009-01-05T10:08:05Z</time>
      </trkpt>
      <trkpt lat="27.83276400" lon="-15.6595060">
        <ele>137.28300</ele>
        <time>2009-01-05T10:08:06Z</time>
      </trkpt>
      <trkpt lat="27.83281500" lon="-15.6594960">
        <ele>137.09200</ele>
        <time>2009-01-05T10:08:07Z</time>
      </trkpt>
      <trkpt lat="27.83286500" lon="-15.6594850">
        <ele>137.38400</ele>
        <time>2009-01-05T10:08:08Z</time>
      </trkpt>
      <trkpt lat="27.83291600" lon="-15.6594750">
        <ele>137.66900</ele>
        <time>2009-01-05T10:08:09Z</time>
      </trkpt>
      <trkpt lat="27.83296600" lon="-15.6594630">
        <ele>137.60200</ele>
        <time>2009-01-05T10:08:10Z</time>
      </trkpt>
      <trkpt lat="27.83301600" lon="-15.6594520">
        <ele>137.80500</ele>
        <time>2009-01-05T10:08:11Z</time>
      </trkpt>
      <trkpt lat="27.83306600" lon="-15.6594410">
        <ele>138.05800</ele>
        <time>2009-01-05T10:08:12Z</time>
      </trkpt>
      <trkpt lat="27.83311800" lon="-15.6594320">
        <ele>138.27100</ele>
        <time>2009-01-05T10:08:13Z</time>
      </trkpt>
      <trkpt lat="27.83317000" lon="-15.6594220">
        <ele>138.31300</ele>
        <time>2009-01-05T10:08:14Z</time>
      </trkpt>
      <trkpt lat="27.83322300" lon="-15.6594120">
        <ele>138.49200</ele>
        <time>2009-01-05T10:08:15Z</time>
      </trkpt>
      <trkpt lat="27.83327600" lon="-15.6594010">
        <ele>138.63600</ele>
        <time>2009-01-05T10:08:16Z</time>
      </trkpt>
      <trkpt lat="27.83332800" lon="-15.6593890">
        <ele>138.49800</ele>
        <time>2009-01-05T10:08:17Z</time>
      </trkpt>
      <trkpt lat="27.83338100" lon="-15.6593730">
        <ele>138.80100</ele>
        <time>2009-01-05T10:08:18Z</time>
      </trkpt>
      <trkpt lat="27.83343300" lon="-15.6593580">
        <ele>138.95100</ele>
        <time>2009-01-05T10:08:19Z</time>
      </trkpt>
      <trkpt lat="27.83348600" lon="-15.6593430">
        <ele>139.11500</ele>
        <time>2009-01-05T10:08:20Z</time>
      </trkpt>
      <trkpt lat="27.83353300" lon="-15.6593340">
        <ele>139.21700</ele>
        <time>2009-01-05T10:08:21Z</time>
      </trkpt>
      <trkpt lat="27.83358100" lon="-15.6593210">
        <ele>139.53100</ele>
        <time>2009-01-05T10:08:22Z</time>
      </trkpt>
      <trkpt lat="27.83363100" lon="-15.6593070">
        <ele>139.49700</ele>
        <time>2009-01-05T10:08:23Z</time>
      </trkpt>
      <trkpt lat="27.83367600" lon="-15.6593000">
        <ele>139.61500</ele>
        <time>2009-01-05T10:08:24Z</time>
      </trkpt>
      <trkpt lat="27.83372500" lon="-15.6592950">
        <ele>139.69000</ele>
        <time>2009-01-05T10:08:25Z</time>
      </trkpt>
      <trkpt lat="27.83377800" lon="-15.6592850">
        <ele>139.83400</ele>
        <time>2009-01-05T10:08:26Z</time>
      </trkpt>
      <trkpt lat="27.83383300" lon="-15.6592760">
        <ele>140.18900</ele>
        <time>2009-01-05T10:08:27Z</time>
      </trkpt>
      <trkpt lat="27.83388500" lon="-15.6592660">
        <ele>140.31100</ele>
        <time>2009-01-05T10:08:28Z</time>
      </trkpt>
      <trkpt lat="27.83393700" lon="-15.6592570">
        <ele>140.32200</ele>
        <time>2009-01-05T10:08:29Z</time>
      </trkpt>
      <trkpt lat="27.83398800" lon="-15.6592500">
        <ele>140.29700</ele>
        <time>2009-01-05T10:08:30Z</time>
      </trkpt>
      <trkpt lat="27.83403900" lon="-15.6592440">
        <ele>140.42800</ele>
        <time>2009-01-05T10:08:31Z</time>
      </trkpt>
      <trkpt lat="27.83409000" lon="-15.6592360">
        <ele>140.33200</ele>
        <time>2009-01-05T10:08:32Z</time>
      </trkpt>
      <trkpt lat="27.83414300" lon="-15.6592310">
        <ele>140.48100</ele>
        <time>2009-01-05T10:08:33Z</time>
      </trkpt>
      <trkpt lat="27.83419500" lon="-15.6592320">
        <ele>140.78100</ele>
        <time>2009-01-05T10:08:34Z</time>
      </trkpt>
      <trkpt lat="27.83424800" lon="-15.6592360">
        <ele>140.70400</ele>
        <time>2009-01-05T10:08:35Z</time>
      </trkpt>
      <trkpt lat="27.83430000" lon="-15.6592430">
        <ele>140.84500</ele>
        <time>2009-01-05T10:08:36Z</time>
      </trkpt>
      <trkpt lat="27.83435300" lon="-15.6592530">
        <ele>140.97700</ele>
        <time>2009-01-05T10:08:37Z</time>
      </trkpt>
      <trkpt lat="27.83440700" lon="-15.6592650">
        <ele>141.08900</ele>
        <time>2009-01-05T10:08:38Z</time>
      </trkpt>
      <trkpt lat="27.83446000" lon="-15.6592790">
        <ele>141.31600</ele>
        <time>2009-01-05T10:08:39Z</time>
      </trkpt>
      <trkpt lat="27.83451300" lon="-15.6592940">
        <ele>141.38600</ele>
        <time>2009-01-05T10:08:40Z</time>
      </trkpt>
      <trkpt lat="27.83456700" lon="-15.6593060">
        <ele>141.59200</ele>
        <time>2009-01-05T10:08:41Z</time>
      </trkpt>
      <trkpt lat="27.83462000" lon="-15.6593130">
        <ele>141.25000</ele>
        <time>2009-01-05T10:08:42Z</time>
      </trkpt>
      <trkpt lat="27.83467200" lon="-15.6593110">
        <ele>141.40200</ele>
        <time>2009-01-05T10:08:43Z</time>
      </trkpt>
      <trkpt lat="27.83474800" lon="-15.6592750">
        <ele>141.54200</ele>
        <time>2009-01-05T10:08:44Z</time>
      </trkpt>
      <trkpt lat="27.83480300" lon="-15.6592640">
        <ele>141.90400</ele>
        <time>2009-01-05T10:08:45Z</time>
      </trkpt>
      <trkpt lat="27.83486300" lon="-15.6592410">
        <ele>141.63200</ele>
        <time>2009-01-05T10:08:46Z</time>
      </trkpt>
      <trkpt lat="27.83492700" lon="-15.6592130">
        <ele>141.67600</ele>
        <time>2009-01-05T10:08:47Z</time>
      </trkpt>
      <trkpt lat="27.83498100" lon="-15.6591950">
        <ele>141.79000</ele>
        <time>2009-01-05T10:08:48Z</time>
      </trkpt>
      <trkpt lat="27.83504600" lon="-15.6591670">
        <ele>141.64200</ele>
        <time>2009-01-05T10:08:49Z</time>
      </trkpt>
      <trkpt lat="27.83509800" lon="-15.6591530">
        <ele>141.68700</ele>
        <time>2009-01-05T10:08:50Z</time>
      </trkpt>
      <trkpt lat="27.83515200" lon="-15.6591380">
        <ele>142.00800</ele>
        <time>2009-01-05T10:08:51Z</time>
      </trkpt>
      <trkpt lat="27.83520900" lon="-15.6591200">
        <ele>141.93600</ele>
        <time>2009-01-05T10:08:52Z</time>
      </trkpt>
      <trkpt lat="27.83526700" lon="-15.6591030">
        <ele>141.94300</ele>
        <time>2009-01-05T10:08:53Z</time>
      </trkpt>
      <trkpt lat="27.83532500" lon="-15.6590850">
        <ele>141.76800</ele>
        <time>2009-01-05T10:08:54Z</time>
      </trkpt>
      <trkpt lat="27.83538100" lon="-15.6590670">
        <ele>142.19000</ele>
        <time>2009-01-05T10:08:55Z</time>
      </trkpt>
      <trkpt lat="27.83543800" lon="-15.6590500">
        <ele>142.27100</ele>
        <time>2009-01-05T10:08:56Z</time>
      </trkpt>
      <trkpt lat="27.83549600" lon="-15.6590350">
        <ele>142.56100</ele>
        <time>2009-01-05T10:08:57Z</time>
      </trkpt>
      <trkpt lat="27.83555300" lon="-15.6590220">
        <ele>142.39000</ele>
        <time>2009-01-05T10:08:58Z</time>
      </trkpt>
      <trkpt lat="27.83561000" lon="-15.6590110">
        <ele>142.49200</ele>
        <time>2009-01-05T10:08:59Z</time>
      </trkpt>
      <trkpt lat="27.83566600" lon="-15.6590020">
        <ele>142.62000</ele>
        <time>2009-01-05T10:09:00Z</time>
      </trkpt>
      <trkpt lat="27.83572300" lon="-15.6589960">
        <ele>142.63900</ele>
        <time>2009-01-05T10:09:01Z</time>
      </trkpt>
      <trkpt lat="27.83577900" lon="-15.6589920">
        <ele>142.75600</ele>
        <time>2009-01-05T10:09:02Z</time>
      </trkpt>
      <trkpt lat="27.83583500" lon="-15.6589880">
        <ele>142.76200</ele>
        <time>2009-01-05T10:09:03Z</time>
      </trkpt>
      <trkpt lat="27.83589200" lon="-15.6589850">
        <ele>142.72400</ele>
        <time>2009-01-05T10:09:04Z</time>
      </trkpt>
      <trkpt lat="27.83595000" lon="-15.6589840">
        <ele>142.88000</ele>
        <time>2009-01-05T10:09:05Z</time>
      </trkpt>
      <trkpt lat="27.83600800" lon="-15.6589820">
        <ele>143.15500</ele>
        <time>2009-01-05T10:09:06Z</time>
      </trkpt>
      <trkpt lat="27.83606700" lon="-15.6589800">
        <ele>143.07900</ele>
        <time>2009-01-05T10:09:07Z</time>
      </trkpt>
      <trkpt lat="27.83612700" lon="-15.6589800">
        <ele>142.92100</ele>
        <time>2009-01-05T10:09:08Z</time>
      </trkpt>
      <trkpt lat="27.83618700" lon="-15.6589810">
        <ele>143.02100</ele>
        <time>2009-01-05T10:09:09Z</time>
      </trkpt>
      <trkpt lat="27.83624800" lon="-15.6589830">
        <ele>142.78900</ele>
        <time>2009-01-05T10:09:10Z</time>
      </trkpt>
      <trkpt lat="27.83630800" lon="-15.6589870">
        <ele>143.04500</ele>
        <time>2009-01-05T10:09:11Z</time>
      </trkpt>
      <trkpt lat="27.83636800" lon="-15.6589950">
        <ele>143.35400</ele>
        <time>2009-01-05T10:09:12Z</time>
      </trkpt>
      <trkpt lat="27.83642800" lon="-15.6590070">
        <ele>143.28800</ele>
        <time>2009-01-05T10:09:13Z</time>
      </trkpt>
      <trkpt lat="27.83648800" lon="-15.6590190">
        <ele>143.26200</ele>
        <time>2009-01-05T10:09:14Z</time>
      </trkpt>
      <trkpt lat="27.83654700" lon="-15.6590320">
        <ele>143.41700</ele>
        <time>2009-01-05T10:09:15Z</time>
      </trkpt>
      <trkpt lat="27.83660600" lon="-15.6590450">
        <ele>143.41200</ele>
        <time>2009-01-05T10:09:16Z</time>
      </trkpt>
      <trkpt lat="27.83666300" lon="-15.6590600">
        <ele>143.79700</ele>
        <time>2009-01-05T10:09:17Z</time>
      </trkpt>
      <trkpt lat="27.83671900" lon="-15.6590760">
        <ele>143.94200</ele>
        <time>2009-01-05T10:09:18Z</time>
      </trkpt>
      <trkpt lat="27.83677600" lon="-15.6590910">
        <ele>143.91000</ele>
        <time>2009-01-05T10:09:19Z</time>
      </trkpt>
      <trkpt lat="27.83683000" lon="-15.6591050">
        <ele>143.85900</ele>
        <time>2009-01-05T10:09:20Z</time>
      </trkpt>
      <trkpt lat="27.83688700" lon="-15.6591190">
        <ele>144.28600</ele>
        <time>2009-01-05T10:09:21Z</time>
      </trkpt>
      <trkpt lat="27.83694000" lon="-15.6591330">
        <ele>144.06900</ele>
        <time>2009-01-05T10:09:22Z</time>
      </trkpt>
      <trkpt lat="27.83699300" lon="-15.6591470">
        <ele>144.12400</ele>
        <time>2009-01-05T10:09:23Z</time>
      </trkpt>
      <trkpt lat="27.83704600" lon="-15.6591620">
        <ele>144.66500</ele>
        <time>2009-01-05T10:09:24Z</time>
      </trkpt>
      <trkpt lat="27.83709800" lon="-15.6591780">
        <ele>144.36600</ele>
        <time>2009-01-05T10:09:25Z</time>
      </trkpt>
      <trkpt lat="27.83715200" lon="-15.6591920">
        <ele>144.56300</ele>
        <time>2009-01-05T10:09:26Z</time>
      </trkpt>
      <trkpt lat="27.83720500" lon="-15.6592050">
        <ele>144.64700</ele>
        <time>2009-01-05T10:09:27Z</time>
      </trkpt>
      <trkpt lat="27.83726000" lon="-15.6592190">
        <ele>144.66200</ele>
        <time>2009-01-05T10:09:28Z</time>
      </trkpt>
      <trkpt lat="27.83731600" lon="-15.6592300">
        <ele>144.61600</ele>
        <time>2009-01-05T10:09:29Z</time>
      </trkpt>
      <trkpt lat="27.83737300" lon="-15.6592400">
        <ele>144.49100</ele>
        <time>2009-01-05T10:09:30Z</time>
      </trkpt>
      <trkpt lat="27.83743000" lon="-15.6592480">
        <ele>144.59300</ele>
        <time>2009-01-05T10:09:31Z</time>
      </trkpt>
      <trkpt lat="27.83748800" lon="-15.6592560">
        <ele>144.87200</ele>
        <time>2009-01-05T10:09:32Z</time>
      </trkpt>
      <trkpt lat="27.83754700" lon="-15.6592630">
        <ele>144.82900</ele>
        <time>2009-01-05T10:09:33Z</time>
      </trkpt>
      <trkpt lat="27.83760500" lon="-15.6592720">
        <ele>144.89900</ele>
        <time>2009-01-05T10:09:34Z</time>
      </trkpt>
      <trkpt lat="27.83766400" lon="-15.6592820">
        <ele>144.75500</ele>
        <time>2009-01-05T10:09:35Z</time>
      </trkpt>
      <trkpt lat="27.83772100" lon="-15.6592910">
        <ele>145.03200</ele>
        <time>2009-01-05T10:09:36Z</time>
      </trkpt>
      <trkpt lat="27.83777900" lon="-15.6593000">
        <ele>144.81100</ele>
        <time>2009-01-05T10:09:37Z</time>
      </trkpt>
      <trkpt lat="27.83783600" lon="-15.6593090">
        <ele>144.96000</ele>
        <time>2009-01-05T10:09:38Z</time>
      </trkpt>
      <trkpt lat="27.83789300" lon="-15.6593200">
        <ele>145.04900</ele>
        <time>2009-01-05T10:09:39Z</time>
      </trkpt>
      <trkpt lat="27.83795000" lon="-15.6593310">
        <ele>145.26100</ele>
        <time>2009-01-05T10:09:40Z</time>
      </trkpt>
      <trkpt lat="27.83800500" lon="-15.6593430">
        <ele>145.19900</ele>
        <time>2009-01-05T10:09:41Z</time>
      </trkpt>
      <trkpt lat="27.83806000" lon="-15.6593550">
        <ele>145.40600</ele>
        <time>2009-01-05T10:09:42Z</time>
      </trkpt>
      <trkpt lat="27.83811500" lon="-15.6593640">
        <ele>145.49100</ele>
        <time>2009-01-05T10:09:43Z</time>
      </trkpt>
      <trkpt lat="27.83817000" lon="-15.6593730">
        <ele>145.39400</ele>
        <time>2009-01-05T10:09:44Z</time>
      </trkpt>
      <trkpt lat="27.83822400" lon="-15.6593840">
        <ele>145.27900</ele>
        <time>2009-01-05T10:09:45Z</time>
      </trkpt>
      <trkpt lat="27.83828000" lon="-15.6593960">
        <ele>145.24000</ele>
        <time>2009-01-05T10:09:46Z</time>
      </trkpt>
      <trkpt lat="27.83833500" lon="-15.6594080">
        <ele>145.76600</ele>
        <time>2009-01-05T10:09:47Z</time>
      </trkpt>
      <trkpt lat="27.83839000" lon="-15.6594200">
        <ele>145.86400</ele>
        <time>2009-01-05T10:09:48Z</time>
      </trkpt>
      <trkpt lat="27.83844500" lon="-15.6594330">
        <ele>145.80400</ele>
        <time>2009-01-05T10:09:49Z</time>
      </trkpt>
      <trkpt lat="27.83850100" lon="-15.6594460">
        <ele>145.82000</ele>
        <time>2009-01-05T10:09:50Z</time>
      </trkpt>
      <trkpt lat="27.83855700" lon="-15.6594600">
        <ele>145.98600</ele>
        <time>2009-01-05T10:09:51Z</time>
      </trkpt>
      <trkpt lat="27.83861300" lon="-15.6594740">
        <ele>145.97600</ele>
        <time>2009-01-05T10:09:52Z</time>
      </trkpt>
      <trkpt lat="27.83866900" lon="-15.6594880">
        <ele>146.06100</ele>
        <time>2009-01-05T10:09:53Z</time>
      </trkpt>
      <trkpt lat="27.83872500" lon="-15.6595010">
        <ele>146.00000</ele>
        <time>2009-01-05T10:09:54Z</time>
      </trkpt>
      <trkpt lat="27.83878100" lon="-15.6595160">
        <ele>145.90000</ele>
        <time>2009-01-05T10:09:55Z</time>
      </trkpt>
      <trkpt lat="27.83883600" lon="-15.6595310">
        <ele>146.20200</ele>
        <time>2009-01-05T10:09:56Z</time>
      </trkpt>
      <trkpt lat="27.83888900" lon="-15.6595460">
        <ele>146.52800</ele>
        <time>2009-01-05T10:09:57Z</time>
      </trkpt>
      <trkpt lat="27.83894200" lon="-15.6595620">
        <ele>146.53400</ele>
        <time>2009-01-05T10:09:58Z</time>
      </trkpt>
      <trkpt lat="27.83899400" lon="-15.6595780">
        <ele>146.60300</ele>
        <time>2009-01-05T10:09:59Z</time>
      </trkpt>
      <trkpt lat="27.83904600" lon="-15.6595940">
        <ele>146.59800</ele>
        <time>2009-01-05T10:10:00Z</time>
      </trkpt>
      <trkpt lat="27.83909800" lon="-15.6596100">
        <ele>146.84500</ele>
        <time>2009-01-05T10:10:01Z</time>
      </trkpt>
      <trkpt lat="27.83915000" lon="-15.6596270">
        <ele>147.16300</ele>
        <time>2009-01-05T10:10:02Z</time>
      </trkpt>
      <trkpt lat="27.83920100" lon="-15.6596430">
        <ele>147.34000</ele>
        <time>2009-01-05T10:10:03Z</time>
      </trkpt>
      <trkpt lat="27.83925300" lon="-15.6596600">
        <ele>147.32300</ele>
        <time>2009-01-05T10:10:04Z</time>
      </trkpt>
      <trkpt lat="27.83930500" lon="-15.6596800">
        <ele>147.46100</ele>
        <time>2009-01-05T10:10:05Z</time>
      </trkpt>
      <trkpt lat="27.83935700" lon="-15.6597010">
        <ele>147.60900</ele>
        <time>2009-01-05T10:10:06Z</time>
      </trkpt>
      <trkpt lat="27.83940900" lon="-15.6597220">
        <ele>147.80000</ele>
        <time>2009-01-05T10:10:07Z</time>
      </trkpt>
      <trkpt lat="27.83946000" lon="-15.6597440">
        <ele>147.81400</ele>
        <time>2009-01-05T10:10:08Z</time>
      </trkpt>
      <trkpt lat="27.83951200" lon="-15.6597670">
        <ele>148.08500</ele>
        <time>2009-01-05T10:10:09Z</time>
      </trkpt>
      <trkpt lat="27.83956400" lon="-15.6597900">
        <ele>148.16000</ele>
        <time>2009-01-05T10:10:10Z</time>
      </trkpt>
      <trkpt lat="27.83961600" lon="-15.6598140">
        <ele>148.27100</ele>
        <time>2009-01-05T10:10:11Z</time>
      </trkpt>
      <trkpt lat="27.83966800" lon="-15.6598370">
        <ele>148.45200</ele>
        <time>2009-01-05T10:10:12Z</time>
      </trkpt>
      <trkpt lat="27.83972000" lon="-15.6598600">
        <ele>148.52700</ele>
        <time>2009-01-05T10:10:13Z</time>
      </trkpt>
      <trkpt lat="27.83977100" lon="-15.6598850">
        <ele>148.33700</ele>
        <time>2009-01-05T10:10:14Z</time>
      </trkpt>
      <trkpt lat="27.83982100" lon="-15.6599110">
        <ele>148.18200</ele>
        <time>2009-01-05T10:10:15Z</time>
      </trkpt>
      <trkpt lat="27.83987200" lon="-15.6599370">
        <ele>148.38400</ele>
        <time>2009-01-05T10:10:16Z</time>
      </trkpt>
      <trkpt lat="27.83992100" lon="-15.6599650">
        <ele>148.43100</ele>
        <time>2009-01-05T10:10:17Z</time>
      </trkpt>
      <trkpt lat="27.83997000" lon="-15.6599930">
        <ele>148.80400</ele>
        <time>2009-01-05T10:10:18Z</time>
      </trkpt>
      <trkpt lat="27.84001800" lon="-15.6600220">
        <ele>148.92700</ele>
        <time>2009-01-05T10:10:19Z</time>
      </trkpt>
      <trkpt lat="27.84006600" lon="-15.6600530">
        <ele>149.08400</ele>
        <time>2009-01-05T10:10:20Z</time>
      </trkpt>
      <trkpt lat="27.84011500" lon="-15.6600800">
        <ele>149.48700</ele>
        <time>2009-01-05T10:10:21Z</time>
      </trkpt>
      <trkpt lat="27.84016700" lon="-15.6601010">
        <ele>149.42500</ele>
        <time>2009-01-05T10:10:22Z</time>
      </trkpt>
      <trkpt lat="27.84021900" lon="-15.6601180">
        <ele>149.59300</ele>
        <time>2009-01-05T10:10:23Z</time>
      </trkpt>
      <trkpt lat="27.84027000" lon="-15.6601330">
        <ele>149.81900</ele>
        <time>2009-01-05T10:10:24Z</time>
      </trkpt>
      <trkpt lat="27.84032000" lon="-15.6601480">
        <ele>149.93900</ele>
        <time>2009-01-05T10:10:25Z</time>
      </trkpt>
      <trkpt lat="27.84036900" lon="-15.6601650">
        <ele>150.17200</ele>
        <time>2009-01-05T10:10:26Z</time>
      </trkpt>
      <trkpt lat="27.84041600" lon="-15.6601850">
        <ele>150.39600</ele>
        <time>2009-01-05T10:10:27Z</time>
      </trkpt>
      <trkpt lat="27.84046000" lon="-15.6602110">
        <ele>150.64000</ele>
        <time>2009-01-05T10:10:28Z</time>
      </trkpt>
      <trkpt lat="27.84050100" lon="-15.6602410">
        <ele>150.80000</ele>
        <time>2009-01-05T10:10:29Z</time>
      </trkpt>
      <trkpt lat="27.84054000" lon="-15.6602720">
        <ele>150.84900</ele>
        <time>2009-01-05T10:10:30Z</time>
      </trkpt>
      <trkpt lat="27.84057700" lon="-15.6603050">
        <ele>151.31800</ele>
        <time>2009-01-05T10:10:31Z</time>
      </trkpt>
      <trkpt lat="27.84061200" lon="-15.6603410">
        <ele>151.43500</ele>
        <time>2009-01-05T10:10:32Z</time>
      </trkpt>
      <trkpt lat="27.84064100" lon="-15.6603840">
        <ele>151.74600</ele>
        <time>2009-01-05T10:10:33Z</time>
      </trkpt>
      <trkpt lat="27.84067200" lon="-15.6604260">
        <ele>151.66800</ele>
        <time>2009-01-05T10:10:34Z</time>
      </trkpt>
      <trkpt lat="27.84070300" lon="-15.6604700">
        <ele>151.59300</ele>
        <time>2009-01-05T10:10:35Z</time>
      </trkpt>
      <trkpt lat="27.84073800" lon="-15.6605110">
        <ele>151.74300</ele>
        <time>2009-01-05T10:10:36Z</time>
      </trkpt>
      <trkpt lat="27.84077600" lon="-15.6605510">
        <ele>151.71700</ele>
        <time>2009-01-05T10:10:37Z</time>
      </trkpt>
      <trkpt lat="27.84081600" lon="-15.6605910">
        <ele>151.68800</ele>
        <time>2009-01-05T10:10:38Z</time>
      </trkpt>
      <trkpt lat="27.84085700" lon="-15.6606290">
        <ele>151.68000</ele>
        <time>2009-01-05T10:10:39Z</time>
      </trkpt>
      <trkpt lat="27.84090000" lon="-15.6606670">
        <ele>151.73600</ele>
        <time>2009-01-05T10:10:40Z</time>
      </trkpt>
      <trkpt lat="27.84094200" lon="-15.6607050">
        <ele>151.83700</ele>
        <time>2009-01-05T10:10:41Z</time>
      </trkpt>
      <trkpt lat="27.84098400" lon="-15.6607420">
        <ele>151.78500</ele>
        <time>2009-01-05T10:10:42Z</time>
      </trkpt>
      <trkpt lat="27.84102700" lon="-15.6607800">
        <ele>151.70900</ele>
        <time>2009-01-05T10:10:43Z</time>
      </trkpt>
      <trkpt lat="27.84107200" lon="-15.6608160">
        <ele>151.98200</ele>
        <time>2009-01-05T10:10:44Z</time>
      </trkpt>
      <trkpt lat="27.84111700" lon="-15.6608520">
        <ele>151.88200</ele>
        <time>2009-01-05T10:10:45Z</time>
      </trkpt>
      <trkpt lat="27.84116100" lon="-15.6608880">
        <ele>151.88500</ele>
        <time>2009-01-05T10:10:46Z</time>
      </trkpt>
      <trkpt lat="27.84120800" lon="-15.6609200">
        <ele>152.08600</ele>
        <time>2009-01-05T10:10:47Z</time>
      </trkpt>
      <trkpt lat="27.84125400" lon="-15.6609500">
        <ele>151.79800</ele>
        <time>2009-01-05T10:10:48Z</time>
      </trkpt>
      <trkpt lat="27.84130000" lon="-15.6609800">
        <ele>151.75800</ele>
        <time>2009-01-05T10:10:49Z</time>
      </trkpt>
      <trkpt lat="27.84134500" lon="-15.6610080">
        <ele>152.25300</ele>
        <time>2009-01-05T10:10:50Z</time>
      </trkpt>
      <trkpt lat="27.84139000" lon="-15.6610350">
        <ele>152.40400</ele>
        <time>2009-01-05T10:10:51Z</time>
      </trkpt>
      <trkpt lat="27.84143600" lon="-15.6610560">
        <ele>152.71300</ele>
        <time>2009-01-05T10:10:52Z</time>
      </trkpt>
      <trkpt lat="27.84147800" lon="-15.6610770">
        <ele>152.77100</ele>
        <time>2009-01-05T10:10:53Z</time>
      </trkpt>
      <trkpt lat="27.84152100" lon="-15.6610970">
        <ele>152.97500</ele>
        <time>2009-01-05T10:10:54Z</time>
      </trkpt>
      <trkpt lat="27.84156200" lon="-15.6611150">
        <ele>152.95900</ele>
        <time>2009-01-05T10:10:55Z</time>
      </trkpt>
      <trkpt lat="27.84160800" lon="-15.6611300">
        <ele>153.21400</ele>
        <time>2009-01-05T10:10:56Z</time>
      </trkpt>
      <trkpt lat="27.84165700" lon="-15.6611460">
        <ele>153.43200</ele>
        <time>2009-01-05T10:10:57Z</time>
      </trkpt>
      <trkpt lat="27.84170500" lon="-15.6611610">
        <ele>153.29900</ele>
        <time>2009-01-05T10:10:58Z</time>
      </trkpt>
      <trkpt lat="27.84175000" lon="-15.6611790">
        <ele>153.60400</ele>
        <time>2009-01-05T10:10:59Z</time>
      </trkpt>
      <trkpt lat="27.84179500" lon="-15.6611990">
        <ele>153.74200</ele>
        <time>2009-01-05T10:11:00Z</time>
      </trkpt>
      <trkpt lat="27.84183600" lon="-15.6612230">
        <ele>153.67700</ele>
        <time>2009-01-05T10:11:01Z</time>
      </trkpt>
      <trkpt lat="27.84188800" lon="-15.6612390">
        <ele>153.93800</ele>
        <time>2009-01-05T10:11:02Z</time>
      </trkpt>
      <trkpt lat="27.84194200" lon="-15.6612510">
        <ele>154.07300</ele>
        <time>2009-01-05T10:11:03Z</time>
      </trkpt>
      <trkpt lat="27.84199600" lon="-15.6612620">
        <ele>154.06300</ele>
        <time>2009-01-05T10:11:04Z</time>
      </trkpt>
      <trkpt lat="27.84205000" lon="-15.6612740">
        <ele>154.26300</ele>
        <time>2009-01-05T10:11:05Z</time>
      </trkpt>
      <trkpt lat="27.84210400" lon="-15.6612880">
        <ele>154.12500</ele>
        <time>2009-01-05T10:11:06Z</time>
      </trkpt>
      <trkpt lat="27.84215700" lon="-15.6613010">
        <ele>154.19100</ele>
        <time>2009-01-05T10:11:07Z</time>
      </trkpt>
      <trkpt lat="27.84221100" lon="-15.6613130">
        <ele>154.49400</ele>
        <time>2009-01-05T10:11:08Z</time>
      </trkpt>
      <trkpt lat="27.84226400" lon="-15.6613210">
        <ele>154.42900</ele>
        <time>2009-01-05T10:11:09Z</time>
      </trkpt>
      <trkpt lat="27.84231700" lon="-15.6613260">
        <ele>154.68700</ele>
        <time>2009-01-05T10:11:10Z</time>
      </trkpt>
      <trkpt lat="27.84237100" lon="-15.6613270">
        <ele>154.70400</ele>
        <time>2009-01-05T10:11:11Z</time>
      </trkpt>
      <trkpt lat="27.84242400" lon="-15.6613240">
        <ele>154.83200</ele>
        <time>2009-01-05T10:11:12Z</time>
      </trkpt>
      <trkpt lat="27.84247600" lon="-15.6613160">
        <ele>154.99000</ele>
        <time>2009-01-05T10:11:13Z</time>
      </trkpt>
      <trkpt lat="27.84252600" lon="-15.6613060">
        <ele>155.00900</ele>
        <time>2009-01-05T10:11:14Z</time>
      </trkpt>
      <trkpt lat="27.84257600" lon="-15.6612940">
        <ele>155.32200</ele>
        <time>2009-01-05T10:11:15Z</time>
      </trkpt>
      <trkpt lat="27.84262600" lon="-15.6612820">
        <ele>155.29100</ele>
        <time>2009-01-05T10:11:16Z</time>
      </trkpt>
      <trkpt lat="27.84267400" lon="-15.6612660">
        <ele>155.53200</ele>
        <time>2009-01-05T10:11:17Z</time>
      </trkpt>
      <trkpt lat="27.84272000" lon="-15.6612480">
        <ele>155.62800</ele>
        <time>2009-01-05T10:11:18Z</time>
      </trkpt>
      <trkpt lat="27.84276500" lon="-15.6612300">
        <ele>155.67100</ele>
        <time>2009-01-05T10:11:19Z</time>
      </trkpt>
      <trkpt lat="27.84281000" lon="-15.6612110">
        <ele>156.06200</ele>
        <time>2009-01-05T10:11:20Z</time>
      </trkpt>
      <trkpt lat="27.84285300" lon="-15.6611910">
        <ele>156.04200</ele>
        <time>2009-01-05T10:11:21Z</time>
      </trkpt>
      <trkpt lat="27.84289500" lon="-15.6611700">
        <ele>156.45200</ele>
        <time>2009-01-05T10:11:22Z</time>
      </trkpt>
      <trkpt lat="27.84293800" lon="-15.6611480">
        <ele>156.52300</ele>
        <time>2009-01-05T10:11:23Z</time>
      </trkpt>
      <trkpt lat="27.84298100" lon="-15.6611260">
        <ele>156.40700</ele>
        <time>2009-01-05T10:11:24Z</time>
      </trkpt>
      <trkpt lat="27.84302300" lon="-15.6611030">
        <ele>156.57200</ele>
        <time>2009-01-05T10:11:25Z</time>
      </trkpt>
      <trkpt lat="27.84306600" lon="-15.6610800">
        <ele>156.74400</ele>
        <time>2009-01-05T10:11:26Z</time>
      </trkpt>
      <trkpt lat="27.84311000" lon="-15.6610570">
        <ele>156.83600</ele>
        <time>2009-01-05T10:11:27Z</time>
      </trkpt>
      <trkpt lat="27.84315400" lon="-15.6610330">
        <ele>156.93400</ele>
        <time>2009-01-05T10:11:28Z</time>
      </trkpt>
      <trkpt lat="27.84319900" lon="-15.6610080">
        <ele>156.92900</ele>
        <time>2009-01-05T10:11:29Z</time>
      </trkpt>
      <trkpt lat="27.84324300" lon="-15.6609820">
        <ele>157.07200</ele>
        <time>2009-01-05T10:11:30Z</time>
      </trkpt>
      <trkpt lat="27.84328700" lon="-15.6609560">
        <ele>157.03000</ele>
        <time>2009-01-05T10:11:31Z</time>
      </trkpt>
      <trkpt lat="27.84333300" lon="-15.6609300">
        <ele>156.94000</ele>
        <time>2009-01-05T10:11:32Z</time>
      </trkpt>
      <trkpt lat="27.84337900" lon="-15.6609040">
        <ele>157.22000</ele>
        <time>2009-01-05T10:11:33Z</time>
      </trkpt>
      <trkpt lat="27.84342400" lon="-15.6608770">
        <ele>157.14600</ele>
        <time>2009-01-05T10:11:34Z</time>
      </trkpt>
      <trkpt lat="27.84346900" lon="-15.6608510">
        <ele>157.29200</ele>
        <time>2009-01-05T10:11:35Z</time>
      </trkpt>
      <trkpt lat="27.84351300" lon="-15.6608230">
        <ele>157.23900</ele>
        <time>2009-01-05T10:11:36Z</time>
      </trkpt>
      <trkpt lat="27.84355700" lon="-15.6607970">
        <ele>157.39200</ele>
        <time>2009-01-05T10:11:37Z</time>
      </trkpt>
      <trkpt lat="27.84360200" lon="-15.6607710">
        <ele>157.39300</ele>
        <time>2009-01-05T10:11:38Z</time>
      </trkpt>
      <trkpt lat="27.84364400" lon="-15.6607450">
        <ele>157.60900</ele>
        <time>2009-01-05T10:11:39Z</time>
      </trkpt>
      <trkpt lat="27.84368600" lon="-15.6607200">
        <ele>157.60500</ele>
        <time>2009-01-05T10:11:40Z</time>
      </trkpt>
      <trkpt lat="27.84372900" lon="-15.6606950">
        <ele>157.78800</ele>
        <time>2009-01-05T10:11:41Z</time>
      </trkpt>
      <trkpt lat="27.84377300" lon="-15.6606710">
        <ele>157.73400</ele>
        <time>2009-01-05T10:11:42Z</time>
      </trkpt>
      <trkpt lat="27.84381600" lon="-15.6606500">
        <ele>158.06300</ele>
        <time>2009-01-05T10:11:43Z</time>
      </trkpt>
      <trkpt lat="27.84385800" lon="-15.6606310">
        <ele>158.06200</ele>
        <time>2009-01-05T10:11:44Z</time>
      </trkpt>
      <trkpt lat="27.84390700" lon="-15.6606070">
        <ele>158.21500</ele>
        <time>2009-01-05T10:11:45Z</time>
      </trkpt>
      <trkpt lat="27.84395200" lon="-15.6605870">
        <ele>158.29700</ele>
        <time>2009-01-05T10:11:46Z</time>
      </trkpt>
      <trkpt lat="27.84399700" lon="-15.6605680">
        <ele>158.21300</ele>
        <time>2009-01-05T10:11:47Z</time>
      </trkpt>
      <trkpt lat="27.84404300" lon="-15.6605490">
        <ele>158.51400</ele>
        <time>2009-01-05T10:11:48Z</time>
      </trkpt>
      <trkpt lat="27.84409000" lon="-15.6605290">
        <ele>158.22200</ele>
        <time>2009-01-05T10:11:49Z</time>
      </trkpt>
      <trkpt lat="27.84413600" lon="-15.6605090">
        <ele>158.49300</ele>
        <time>2009-01-05T10:11:50Z</time>
      </trkpt>
      <trkpt lat="27.84419900" lon="-15.6605030">
        <ele>158.21700</ele>
        <time>2009-01-05T10:11:51Z</time>
      </trkpt>
      <trkpt lat="27.84425500" lon="-15.6604800">
        <ele>158.34100</ele>
        <time>2009-01-05T10:11:52Z</time>
      </trkpt>
      <trkpt lat="27.84431700" lon="-15.6604510">
        <ele>158.35700</ele>
        <time>2009-01-05T10:11:53Z</time>
      </trkpt>
      <trkpt lat="27.84437000" lon="-15.6604390">
        <ele>158.38400</ele>
        <time>2009-01-05T10:11:54Z</time>
      </trkpt>
      <trkpt lat="27.84442400" lon="-15.6604310">
        <ele>158.14600</ele>
        <time>2009-01-05T10:11:55Z</time>
      </trkpt>
      <trkpt lat="27.84448000" lon="-15.6604270">
        <ele>158.18100</ele>
        <time>2009-01-05T10:11:56Z</time>
      </trkpt>
      <trkpt lat="27.84453600" lon="-15.6604270">
        <ele>158.36800</ele>
        <time>2009-01-05T10:11:57Z</time>
      </trkpt>
      <trkpt lat="27.84459200" lon="-15.6604280">
        <ele>158.64900</ele>
        <time>2009-01-05T10:11:58Z</time>
      </trkpt>
      <trkpt lat="27.84464800" lon="-15.6604310">
        <ele>158.65100</ele>
        <time>2009-01-05T10:11:59Z</time>
      </trkpt>
      <trkpt lat="27.84470300" lon="-15.6604370">
        <ele>158.69400</ele>
        <time>2009-01-05T10:12:00Z</time>
      </trkpt>
      <trkpt lat="27.84475700" lon="-15.6604460">
        <ele>158.61200</ele>
        <time>2009-01-05T10:12:01Z</time>
      </trkpt>
      <trkpt lat="27.84481200" lon="-15.6604580">
        <ele>159.24900</ele>
        <time>2009-01-05T10:12:02Z</time>
      </trkpt>
      <trkpt lat="27.84486400" lon="-15.6604760">
        <ele>159.20200</ele>
        <time>2009-01-05T10:12:03Z</time>
      </trkpt>
      <trkpt lat="27.84492000" lon="-15.6604930">
        <ele>159.15900</ele>
        <time>2009-01-05T10:12:04Z</time>
      </trkpt>
      <trkpt lat="27.84497400" lon="-15.6605120">
        <ele>159.44400</ele>
        <time>2009-01-05T10:12:05Z</time>
      </trkpt>
      <trkpt lat="27.84503300" lon="-15.6605240">
        <ele>159.41600</ele>
        <time>2009-01-05T10:12:06Z</time>
      </trkpt>
      <trkpt lat="27.84508900" lon="-15.6605280">
        <ele>159.66300</ele>
        <time>2009-01-05T10:12:07Z</time>
      </trkpt>
      <trkpt lat="27.84514700" lon="-15.6605210">
        <ele>159.81800</ele>
        <time>2009-01-05T10:12:08Z</time>
      </trkpt>
      <trkpt lat="27.84520600" lon="-15.6605040">
        <ele>159.73600</ele>
        <time>2009-01-05T10:12:09Z</time>
      </trkpt>
      <trkpt lat="27.84526300" lon="-15.6604890">
        <ele>159.77800</ele>
        <time>2009-01-05T10:12:10Z</time>
      </trkpt>
      <trkpt lat="27.84531800" lon="-15.6604750">
        <ele>160.04300</ele>
        <time>2009-01-05T10:12:11Z</time>
      </trkpt>
      <trkpt lat="27.84537500" lon="-15.6604560">
        <ele>160.13900</ele>
        <time>2009-01-05T10:12:12Z</time>
      </trkpt>
      <trkpt lat="27.84542700" lon="-15.6604400">
        <ele>160.09700</ele>
        <time>2009-01-05T10:12:13Z</time>
      </trkpt>
      <trkpt lat="27.84548200" lon="-15.6604200">
        <ele>160.62900</ele>
        <time>2009-01-05T10:12:14Z</time>
      </trkpt>
      <trkpt lat="27.84553900" lon="-15.6603990">
        <ele>160.50400</ele>
        <time>2009-01-05T10:12:15Z</time>
      </trkpt>
      <trkpt lat="27.84559300" lon="-15.6603860">
        <ele>160.53000</ele>
        <time>2009-01-05T10:12:16Z</time>
      </trkpt>
      <trkpt lat="27.84564900" lon="-15.6603750">
        <ele>160.78300</ele>
        <time>2009-01-05T10:12:17Z</time>
      </trkpt>
      <trkpt lat="27.84570300" lon="-15.6603700">
        <ele>160.91900</ele>
        <time>2009-01-05T10:12:18Z</time>
      </trkpt>
      <trkpt lat="27.84575800" lon="-15.6603700">
        <ele>160.94300</ele>
        <time>2009-01-05T10:12:19Z</time>
      </trkpt>
      <trkpt lat="27.84581300" lon="-15.6603730">
        <ele>160.97300</ele>
        <time>2009-01-05T10:12:20Z</time>
      </trkpt>
      <trkpt lat="27.84586800" lon="-15.6603780">
        <ele>161.09500</ele>
        <time>2009-01-05T10:12:21Z</time>
      </trkpt>
      <trkpt lat="27.84592300" lon="-15.6603830">
        <ele>161.35700</ele>
        <time>2009-01-05T10:12:22Z</time>
      </trkpt>
      <trkpt lat="27.84597800" lon="-15.6603860">
        <ele>161.18500</ele>
        <time>2009-01-05T10:12:23Z</time>
      </trkpt>
      <trkpt lat="27.84603200" lon="-15.6603900">
        <ele>161.53600</ele>
        <time>2009-01-05T10:12:24Z</time>
      </trkpt>
      <trkpt lat="27.84608500" lon="-15.6603920">
        <ele>161.63400</ele>
        <time>2009-01-05T10:12:25Z</time>
      </trkpt>
      <trkpt lat="27.84613800" lon="-15.6603940">
        <ele>161.52700</ele>
        <time>2009-01-05T10:12:26Z</time>
      </trkpt>
      <trkpt lat="27.84619200" lon="-15.6603960">
        <ele>161.69600</ele>
        <time>2009-01-05T10:12:27Z</time>
      </trkpt>
      <trkpt lat="27.84624500" lon="-15.6603990">
        <ele>162.15200</ele>
        <time>2009-01-05T10:12:28Z</time>
      </trkpt>
      <trkpt lat="27.84629100" lon="-15.6604130">
        <ele>162.01200</ele>
        <time>2009-01-05T10:12:29Z</time>
      </trkpt>
      <trkpt lat="27.84633500" lon="-15.6604300">
        <ele>162.11600</ele>
        <time>2009-01-05T10:12:30Z</time>
      </trkpt>
      <trkpt lat="27.84639000" lon="-15.6604360">
        <ele>162.23000</ele>
        <time>2009-01-05T10:12:31Z</time>
      </trkpt>
      <trkpt lat="27.84644300" lon="-15.6604450">
        <ele>162.28000</ele>
        <time>2009-01-05T10:12:32Z</time>
      </trkpt>
      <trkpt lat="27.84649400" lon="-15.6604540">
        <ele>162.49000</ele>
        <time>2009-01-05T10:12:33Z</time>
      </trkpt>
      <trkpt lat="27.84654600" lon="-15.6604630">
        <ele>162.48600</ele>
        <time>2009-01-05T10:12:34Z</time>
      </trkpt>
      <trkpt lat="27.84659700" lon="-15.6604710">
        <ele>162.77300</ele>
        <time>2009-01-05T10:12:35Z</time>
      </trkpt>
      <trkpt lat="27.84664700" lon="-15.6604770">
        <ele>163.15200</ele>
        <time>2009-01-05T10:12:36Z</time>
      </trkpt>
      <trkpt lat="27.84669600" lon="-15.6604830">
        <ele>163.36800</ele>
        <time>2009-01-05T10:12:37Z</time>
      </trkpt>
      <trkpt lat="27.84674400" lon="-15.6604910">
        <ele>163.35100</ele>
        <time>2009-01-05T10:12:38Z</time>
      </trkpt>
      <trkpt lat="27.84679300" lon="-15.6604990">
        <ele>163.57400</ele>
        <time>2009-01-05T10:12:39Z</time>
      </trkpt>
      <trkpt lat="27.84684300" lon="-15.6605080">
        <ele>163.77900</ele>
        <time>2009-01-05T10:12:40Z</time>
      </trkpt>
      <trkpt lat="27.84689200" lon="-15.6605160">
        <ele>163.96300</ele>
        <time>2009-01-05T10:12:41Z</time>
      </trkpt>
      <trkpt lat="27.84694300" lon="-15.6605250">
        <ele>164.07500</ele>
        <time>2009-01-05T10:12:42Z</time>
      </trkpt>
      <trkpt lat="27.84699400" lon="-15.6605340">
        <ele>163.98400</ele>
        <time>2009-01-05T10:12:43Z</time>
      </trkpt>
      <trkpt lat="27.84704600" lon="-15.6605420">
        <ele>164.06700</ele>
        <time>2009-01-05T10:12:44Z</time>
      </trkpt>
      <trkpt lat="27.84709800" lon="-15.6605490">
        <ele>164.01100</ele>
        <time>2009-01-05T10:12:45Z</time>
      </trkpt>
      <trkpt lat="27.84715100" lon="-15.6605570">
        <ele>164.11000</ele>
        <time>2009-01-05T10:12:46Z</time>
      </trkpt>
      <trkpt lat="27.84720500" lon="-15.6605640">
        <ele>164.26200</ele>
        <time>2009-01-05T10:12:47Z</time>
      </trkpt>
      <trkpt lat="27.84725800" lon="-15.6605690">
        <ele>164.18800</ele>
        <time>2009-01-05T10:12:48Z</time>
      </trkpt>
      <trkpt lat="27.84731300" lon="-15.6605710">
        <ele>164.40400</ele>
        <time>2009-01-05T10:12:49Z</time>
      </trkpt>
      <trkpt lat="27.84736700" lon="-15.6605720">
        <ele>164.30800</ele>
        <time>2009-01-05T10:12:50Z</time>
      </trkpt>
      <trkpt lat="27.84742100" lon="-15.6605700">
        <ele>164.10400</ele>
        <time>2009-01-05T10:12:51Z</time>
      </trkpt>
      <trkpt lat="27.84747500" lon="-15.6605660">
        <ele>164.39100</ele>
        <time>2009-01-05T10:12:52Z</time>
      </trkpt>
      <trkpt lat="27.84752700" lon="-15.6605620">
        <ele>164.50200</ele>
        <time>2009-01-05T10:12:53Z</time>
      </trkpt>
      <trkpt lat="27.84758100" lon="-15.6605610">
        <ele>164.58600</ele>
        <time>2009-01-05T10:12:54Z</time>
      </trkpt>
      <trkpt lat="27.84763400" lon="-15.6605610">
        <ele>164.45100</ele>
        <time>2009-01-05T10:12:55Z</time>
      </trkpt>
      <trkpt lat="27.84768700" lon="-15.6605630">
        <ele>164.68900</ele>
        <time>2009-01-05T10:12:56Z</time>
      </trkpt>
      <trkpt lat="27.84774400" lon="-15.6605520">
        <ele>164.44300</ele>
        <time>2009-01-05T10:12:57Z</time>
      </trkpt>
      <trkpt lat="27.84780300" lon="-15.6605460">
        <ele>164.59400</ele>
        <time>2009-01-05T10:12:58Z</time>
      </trkpt>
      <trkpt lat="27.84785800" lon="-15.6605490">
        <ele>164.91900</ele>
        <time>2009-01-05T10:12:59Z</time>
      </trkpt>
      <trkpt lat="27.84791200" lon="-15.6605580">
        <ele>164.83700</ele>
        <time>2009-01-05T10:13:00Z</time>
      </trkpt>
      <trkpt lat="27.84796600" lon="-15.6605700">
        <ele>165.12000</ele>
        <time>2009-01-05T10:13:01Z</time>
      </trkpt>
      <trkpt lat="27.84802100" lon="-15.6605830">
        <ele>165.15100</ele>
        <time>2009-01-05T10:13:02Z</time>
      </trkpt>
      <trkpt lat="27.84807400" lon="-15.6605990">
        <ele>165.31800</ele>
        <time>2009-01-05T10:13:03Z</time>
      </trkpt>
      <trkpt lat="27.84812600" lon="-15.6606180">
        <ele>165.37100</ele>
        <time>2009-01-05T10:13:04Z</time>
      </trkpt>
      <trkpt lat="27.84817800" lon="-15.6606390">
        <ele>165.29900</ele>
        <time>2009-01-05T10:13:05Z</time>
      </trkpt>
      <trkpt lat="27.84823100" lon="-15.6606550">
        <ele>165.61600</ele>
        <time>2009-01-05T10:13:06Z</time>
      </trkpt>
      <trkpt lat="27.84828600" lon="-15.6606690">
        <ele>165.53800</ele>
        <time>2009-01-05T10:13:07Z</time>
      </trkpt>
      <trkpt lat="27.84834000" lon="-15.6606860">
        <ele>165.87100</ele>
        <time>2009-01-05T10:13:08Z</time>
      </trkpt>
      <trkpt lat="27.84839300" lon="-15.6607080">
        <ele>165.81600</ele>
        <time>2009-01-05T10:13:09Z</time>
      </trkpt>
      <trkpt lat="27.84844400" lon="-15.6607340">
        <ele>165.98300</ele>
        <time>2009-01-05T10:13:10Z</time>
      </trkpt>
      <trkpt lat="27.84849500" lon="-15.6607640">
        <ele>166.04700</ele>
        <time>2009-01-05T10:13:11Z</time>
      </trkpt>
      <trkpt lat="27.84854500" lon="-15.6607970">
        <ele>166.21100</ele>
        <time>2009-01-05T10:13:12Z</time>
      </trkpt>
      <trkpt lat="27.84859500" lon="-15.6608290">
        <ele>165.94500</ele>
        <time>2009-01-05T10:13:13Z</time>
      </trkpt>
      <trkpt lat="27.84864400" lon="-15.6608630">
        <ele>166.17900</ele>
        <time>2009-01-05T10:13:14Z</time>
      </trkpt>
      <trkpt lat="27.84869200" lon="-15.6609000">
        <ele>166.29100</ele>
        <time>2009-01-05T10:13:15Z</time>
      </trkpt>
      <trkpt lat="27.84873900" lon="-15.6609400">
        <ele>166.29200</ele>
        <time>2009-01-05T10:13:16Z</time>
      </trkpt>
      <trkpt lat="27.84878700" lon="-15.6609810">
        <ele>166.71700</ele>
        <time>2009-01-05T10:13:17Z</time>
      </trkpt>
      <trkpt lat="27.84883400" lon="-15.6610190">
        <ele>166.89000</ele>
        <time>2009-01-05T10:13:18Z</time>
      </trkpt>
      <trkpt lat="27.84888000" lon="-15.6610550">
        <ele>166.61400</ele>
        <time>2009-01-05T10:13:19Z</time>
      </trkpt>
      <trkpt lat="27.84892400" lon="-15.6610900">
        <ele>166.73500</ele>
        <time>2009-01-05T10:13:20Z</time>
      </trkpt>
      <trkpt lat="27.84896600" lon="-15.6611260">
        <ele>166.71100</ele>
        <time>2009-01-05T10:13:21Z</time>
      </trkpt>
      <trkpt lat="27.84900400" lon="-15.6611650">
        <ele>166.81300</ele>
        <time>2009-01-05T10:13:22Z</time>
      </trkpt>
      <trkpt lat="27.84904300" lon="-15.6612020">
        <ele>166.99300</ele>
        <time>2009-01-05T10:13:23Z</time>
      </trkpt>
      <trkpt lat="27.84908400" lon="-15.6612350">
        <ele>166.84500</ele>
        <time>2009-01-05T10:13:24Z</time>
      </trkpt>
      <trkpt lat="27.84912900" lon="-15.6612680">
        <ele>166.98300</ele>
        <time>2009-01-05T10:13:25Z</time>
      </trkpt>
      <trkpt lat="27.84917900" lon="-15.6612960">
        <ele>167.17100</ele>
        <time>2009-01-05T10:13:26Z</time>
      </trkpt>
      <trkpt lat="27.84922700" lon="-15.6613280">
        <ele>167.39800</ele>
        <time>2009-01-05T10:13:27Z</time>
      </trkpt>
      <trkpt lat="27.84927800" lon="-15.6613560">
        <ele>167.36000</ele>
        <time>2009-01-05T10:13:28Z</time>
      </trkpt>
      <trkpt lat="27.84932700" lon="-15.6613870">
        <ele>167.60700</ele>
        <time>2009-01-05T10:13:29Z</time>
      </trkpt>
      <trkpt lat="27.84937500" lon="-15.6614190">
        <ele>167.69800</ele>
        <time>2009-01-05T10:13:30Z</time>
      </trkpt>
      <trkpt lat="27.84942600" lon="-15.6614480">
        <ele>167.78800</ele>
        <time>2009-01-05T10:13:31Z</time>
      </trkpt>
      <trkpt lat="27.84947500" lon="-15.6614790">
        <ele>167.82900</ele>
        <time>2009-01-05T10:13:32Z</time>
      </trkpt>
      <trkpt lat="27.84952400" lon="-15.6615120">
        <ele>167.77100</ele>
        <time>2009-01-05T10:13:33Z</time>
      </trkpt>
      <trkpt lat="27.84957200" lon="-15.6615470">
        <ele>167.62900</ele>
        <time>2009-01-05T10:13:34Z</time>
      </trkpt>
      <trkpt lat="27.84961900" lon="-15.6615840">
        <ele>167.70800</ele>
        <time>2009-01-05T10:13:35Z</time>
      </trkpt>
      <trkpt lat="27.84966500" lon="-15.6616230">
        <ele>167.91200</ele>
        <time>2009-01-05T10:13:36Z</time>
      </trkpt>
      <trkpt lat="27.84971100" lon="-15.6616600">
        <ele>168.01800</ele>
        <time>2009-01-05T10:13:37Z</time>
      </trkpt>
      <trkpt lat="27.84975600" lon="-15.6616980">
        <ele>168.11600</ele>
        <time>2009-01-05T10:13:38Z</time>
      </trkpt>
      <trkpt lat="27.84980200" lon="-15.6617330">
        <ele>168.05600</ele>
        <time>2009-01-05T10:13:39Z</time>
      </trkpt>
      <trkpt lat="27.84984600" lon="-15.6617700">
        <ele>168.38400</ele>
        <time>2009-01-05T10:13:40Z</time>
      </trkpt>
      <trkpt lat="27.84988900" lon="-15.6618060">
        <ele>168.36000</ele>
        <time>2009-01-05T10:13:41Z</time>
      </trkpt>
      <trkpt lat="27.84993300" lon="-15.6618410">
        <ele>168.45500</ele>
        <time>2009-01-05T10:13:42Z</time>
      </trkpt>
      <trkpt lat="27.84997600" lon="-15.6618760">
        <ele>168.36300</ele>
        <time>2009-01-05T10:13:43Z</time>
      </trkpt>
      <trkpt lat="27.85002000" lon="-15.6619090">
        <ele>168.77100</ele>
        <time>2009-01-05T10:13:44Z</time>
      </trkpt>
      <trkpt lat="27.85006300" lon="-15.6619430">
        <ele>168.69700</ele>
        <time>2009-01-05T10:13:45Z</time>
      </trkpt>
      <trkpt lat="27.85010600" lon="-15.6619740">
        <ele>169.24200</ele>
        <time>2009-01-05T10:13:46Z</time>
      </trkpt>
      <trkpt lat="27.85014600" lon="-15.6620040">
        <ele>169.23700</ele>
        <time>2009-01-05T10:13:47Z</time>
      </trkpt>
      <trkpt lat="27.85018800" lon="-15.6620320">
        <ele>169.44900</ele>
        <time>2009-01-05T10:13:48Z</time>
      </trkpt>
      <trkpt lat="27.85023000" lon="-15.6620580">
        <ele>169.70800</ele>
        <time>2009-01-05T10:13:49Z</time>
      </trkpt>
      <trkpt lat="27.85027100" lon="-15.6620840">
        <ele>169.88000</ele>
        <time>2009-01-05T10:13:50Z</time>
      </trkpt>
      <trkpt lat="27.85031000" lon="-15.6621150">
        <ele>169.77500</ele>
        <time>2009-01-05T10:13:51Z</time>
      </trkpt>
      <trkpt lat="27.85035100" lon="-15.6621470">
        <ele>169.85800</ele>
        <time>2009-01-05T10:13:52Z</time>
      </trkpt>
      <trkpt lat="27.85039700" lon="-15.6621780">
        <ele>170.13600</ele>
        <time>2009-01-05T10:13:53Z</time>
      </trkpt>
      <trkpt lat="27.85044600" lon="-15.6622090">
        <ele>169.95200</ele>
        <time>2009-01-05T10:13:54Z</time>
      </trkpt>
      <trkpt lat="27.85049300" lon="-15.6622400">
        <ele>170.34100</ele>
        <time>2009-01-05T10:13:55Z</time>
      </trkpt>
      <trkpt lat="27.85053800" lon="-15.6622750">
        <ele>170.42700</ele>
        <time>2009-01-05T10:13:56Z</time>
      </trkpt>
      <trkpt lat="27.85057900" lon="-15.6623140">
        <ele>170.69900</ele>
        <time>2009-01-05T10:13:57Z</time>
      </trkpt>
      <trkpt lat="27.85061700" lon="-15.6623540">
        <ele>170.78700</ele>
        <time>2009-01-05T10:13:58Z</time>
      </trkpt>
      <trkpt lat="27.85065400" lon="-15.6623930">
        <ele>171.24800</ele>
        <time>2009-01-05T10:13:59Z</time>
      </trkpt>
      <trkpt lat="27.85069000" lon="-15.6624330">
        <ele>171.62700</ele>
        <time>2009-01-05T10:14:00Z</time>
      </trkpt>
      <trkpt lat="27.85072700" lon="-15.6624690">
        <ele>171.59900</ele>
        <time>2009-01-05T10:14:01Z</time>
      </trkpt>
      <trkpt lat="27.85076600" lon="-15.6625020">
        <ele>171.79000</ele>
        <time>2009-01-05T10:14:02Z</time>
      </trkpt>
      <trkpt lat="27.85080800" lon="-15.6625310">
        <ele>171.86500</ele>
        <time>2009-01-05T10:14:03Z</time>
      </trkpt>
      <trkpt lat="27.85085200" lon="-15.6625580">
        <ele>172.38300</ele>
        <time>2009-01-05T10:14:04Z</time>
      </trkpt>
      <trkpt lat="27.85089800" lon="-15.6625820">
        <ele>172.54000</ele>
        <time>2009-01-05T10:14:05Z</time>
      </trkpt>
      <trkpt lat="27.85094600" lon="-15.6626050">
        <ele>172.84200</ele>
        <time>2009-01-05T10:14:06Z</time>
      </trkpt>
      <trkpt lat="27.85099600" lon="-15.6626240">
        <ele>172.59500</ele>
        <time>2009-01-05T10:14:07Z</time>
      </trkpt>
      <trkpt lat="27.85104700" lon="-15.6626390">
        <ele>172.61700</ele>
        <time>2009-01-05T10:14:08Z</time>
      </trkpt>
      <trkpt lat="27.85110300" lon="-15.6626530">
        <ele>172.74700</ele>
        <time>2009-01-05T10:14:09Z</time>
      </trkpt>
      <trkpt lat="27.85116100" lon="-15.6626650">
        <ele>172.52900</ele>
        <time>2009-01-05T10:14:10Z</time>
      </trkpt>
      <trkpt lat="27.85122100" lon="-15.6626760">
        <ele>172.43700</ele>
        <time>2009-01-05T10:14:11Z</time>
      </trkpt>
      <trkpt lat="27.85128300" lon="-15.6626860">
        <ele>172.55200</ele>
        <time>2009-01-05T10:14:12Z</time>
      </trkpt>
      <trkpt lat="27.85134500" lon="-15.6626950">
        <ele>172.39400</ele>
        <time>2009-01-05T10:14:13Z</time>
      </trkpt>
      <trkpt lat="27.85140800" lon="-15.6627030">
        <ele>172.54800</ele>
        <time>2009-01-05T10:14:14Z</time>
      </trkpt>
      <trkpt lat="27.85147000" lon="-15.6627090">
        <ele>172.81400</ele>
        <time>2009-01-05T10:14:15Z</time>
      </trkpt>
      <trkpt lat="27.85153100" lon="-15.6627140">
        <ele>172.86200</ele>
        <time>2009-01-05T10:14:16Z</time>
      </trkpt>
      <trkpt lat="27.85159100" lon="-15.6627170">
        <ele>172.95500</ele>
        <time>2009-01-05T10:14:17Z</time>
      </trkpt>
      <trkpt lat="27.85165100" lon="-15.6627200">
        <ele>172.94300</ele>
        <time>2009-01-05T10:14:18Z</time>
      </trkpt>
      <trkpt lat="27.85171100" lon="-15.6627210">
        <ele>172.95700</ele>
        <time>2009-01-05T10:14:19Z</time>
      </trkpt>
      <trkpt lat="27.85177000" lon="-15.6627190">
        <ele>172.96900</ele>
        <time>2009-01-05T10:14:20Z</time>
      </trkpt>
      <trkpt lat="27.85183000" lon="-15.6627150">
        <ele>173.12300</ele>
        <time>2009-01-05T10:14:21Z</time>
      </trkpt>
      <trkpt lat="27.85189000" lon="-15.6627070">
        <ele>173.05800</ele>
        <time>2009-01-05T10:14:22Z</time>
      </trkpt>
      <trkpt lat="27.85194900" lon="-15.6626970">
        <ele>173.28600</ele>
        <time>2009-01-05T10:14:23Z</time>
      </trkpt>
      <trkpt lat="27.85200800" lon="-15.6626860">
        <ele>173.39800</ele>
        <time>2009-01-05T10:14:24Z</time>
      </trkpt>
      <trkpt lat="27.85206700" lon="-15.6626730">
        <ele>173.22700</ele>
        <time>2009-01-05T10:14:25Z</time>
      </trkpt>
      <trkpt lat="27.85212600" lon="-15.6626570">
        <ele>173.15400</ele>
        <time>2009-01-05T10:14:26Z</time>
      </trkpt>
      <trkpt lat="27.85218300" lon="-15.6626370">
        <ele>173.40600</ele>
        <time>2009-01-05T10:14:27Z</time>
      </trkpt>
      <trkpt lat="27.85223900" lon="-15.6626110">
        <ele>173.43600</ele>
        <time>2009-01-05T10:14:28Z</time>
      </trkpt>
      <trkpt lat="27.85228900" lon="-15.6625720">
        <ele>173.44500</ele>
        <time>2009-01-05T10:14:29Z</time>
      </trkpt>
      <trkpt lat="27.85233300" lon="-15.6625250">
        <ele>173.53000</ele>
        <time>2009-01-05T10:14:30Z</time>
      </trkpt>
      <trkpt lat="27.85237900" lon="-15.6624810">
        <ele>173.35100</ele>
        <time>2009-01-05T10:14:31Z</time>
      </trkpt>
      <trkpt lat="27.85243300" lon="-15.6624510">
        <ele>173.57400</ele>
        <time>2009-01-05T10:14:32Z</time>
      </trkpt>
      <trkpt lat="27.85249000" lon="-15.6624360">
        <ele>173.82600</ele>
        <time>2009-01-05T10:14:33Z</time>
      </trkpt>
      <trkpt lat="27.85254800" lon="-15.6624280">
        <ele>173.80000</ele>
        <time>2009-01-05T10:14:34Z</time>
      </trkpt>
      <trkpt lat="27.85260500" lon="-15.6624270">
        <ele>174.09400</ele>
        <time>2009-01-05T10:14:35Z</time>
      </trkpt>
      <trkpt lat="27.85266100" lon="-15.6624280">
        <ele>174.12700</ele>
        <time>2009-01-05T10:14:36Z</time>
      </trkpt>
      <trkpt lat="27.85271800" lon="-15.6624300">
        <ele>174.47400</ele>
        <time>2009-01-05T10:14:37Z</time>
      </trkpt>
      <trkpt lat="27.85277400" lon="-15.6624300">
        <ele>174.42500</ele>
        <time>2009-01-05T10:14:38Z</time>
      </trkpt>
      <trkpt lat="27.85283000" lon="-15.6624300">
        <ele>174.45200</ele>
        <time>2009-01-05T10:14:39Z</time>
      </trkpt>
      <trkpt lat="27.85288400" lon="-15.6624300">
        <ele>174.60900</ele>
        <time>2009-01-05T10:14:40Z</time>
      </trkpt>
      <trkpt lat="27.85293800" lon="-15.6624270">
        <ele>174.84800</ele>
        <time>2009-01-05T10:14:41Z</time>
      </trkpt>
      <trkpt lat="27.85299200" lon="-15.6624230">
        <ele>174.74100</ele>
        <time>2009-01-05T10:14:42Z</time>
      </trkpt>
      <trkpt lat="27.85304400" lon="-15.6624170">
        <ele>174.98200</ele>
        <time>2009-01-05T10:14:43Z</time>
      </trkpt>
      <trkpt lat="27.85309600" lon="-15.6624110">
        <ele>175.12400</ele>
        <time>2009-01-05T10:14:44Z</time>
      </trkpt>
      <trkpt lat="27.85314700" lon="-15.6624060">
        <ele>175.27800</ele>
        <time>2009-01-05T10:14:45Z</time>
      </trkpt>
      <trkpt lat="27.85319700" lon="-15.6624030">
        <ele>175.27700</ele>
        <time>2009-01-05T10:14:46Z</time>
      </trkpt>
      <trkpt lat="27.85324800" lon="-15.6624000">
        <ele>175.49700</ele>
        <time>2009-01-05T10:14:47Z</time>
      </trkpt>
      <trkpt lat="27.85329800" lon="-15.6623980">
        <ele>175.64200</ele>
        <time>2009-01-05T10:14:48Z</time>
      </trkpt>
      <trkpt lat="27.85334800" lon="-15.6623950">
        <ele>175.67700</ele>
        <time>2009-01-05T10:14:49Z</time>
      </trkpt>
      <trkpt lat="27.85340000" lon="-15.6623940">
        <ele>175.92700</ele>
        <time>2009-01-05T10:14:50Z</time>
      </trkpt>
      <trkpt lat="27.85345200" lon="-15.6623920">
        <ele>175.95500</ele>
        <time>2009-01-05T10:14:51Z</time>
      </trkpt>
      <trkpt lat="27.85350600" lon="-15.6623870">
        <ele>176.05900</ele>
        <time>2009-01-05T10:14:52Z</time>
      </trkpt>
      <trkpt lat="27.85355900" lon="-15.6623790">
        <ele>176.17900</ele>
        <time>2009-01-05T10:14:53Z</time>
      </trkpt>
      <trkpt lat="27.85361400" lon="-15.6623700">
        <ele>175.85800</ele>
        <time>2009-01-05T10:14:54Z</time>
      </trkpt>
      <trkpt lat="27.85366900" lon="-15.6623590">
        <ele>176.33400</ele>
        <time>2009-01-05T10:14:55Z</time>
      </trkpt>
      <trkpt lat="27.85372500" lon="-15.6623460">
        <ele>176.27500</ele>
        <time>2009-01-05T10:14:56Z</time>
      </trkpt>
      <trkpt lat="27.85378200" lon="-15.6623340">
        <ele>176.44200</ele>
        <time>2009-01-05T10:14:57Z</time>
      </trkpt>
      <trkpt lat="27.85383700" lon="-15.6623230">
        <ele>176.71300</ele>
        <time>2009-01-05T10:14:58Z</time>
      </trkpt>
      <trkpt lat="27.85389300" lon="-15.6623110">
        <ele>176.44700</ele>
        <time>2009-01-05T10:14:59Z</time>
      </trkpt>
      <trkpt lat="27.85394800" lon="-15.6622980">
        <ele>176.73000</ele>
        <time>2009-01-05T10:15:00Z</time>
      </trkpt>
      <trkpt lat="27.85400200" lon="-15.6622830">
        <ele>176.70200</ele>
        <time>2009-01-05T10:15:01Z</time>
      </trkpt>
      <trkpt lat="27.85405800" lon="-15.6622650">
        <ele>176.84000</ele>
        <time>2009-01-05T10:15:02Z</time>
      </trkpt>
      <trkpt lat="27.85411200" lon="-15.6622460">
        <ele>176.64500</ele>
        <time>2009-01-05T10:15:03Z</time>
      </trkpt>
      <trkpt lat="27.85416700" lon="-15.6622280">
        <ele>176.67800</ele>
        <time>2009-01-05T10:15:04Z</time>
      </trkpt>
      <trkpt lat="27.85422300" lon="-15.6622100">
        <ele>176.69100</ele>
        <time>2009-01-05T10:15:05Z</time>
      </trkpt>
      <trkpt lat="27.85428000" lon="-15.6621930">
        <ele>176.64200</ele>
        <time>2009-01-05T10:15:06Z</time>
      </trkpt>
      <trkpt lat="27.85433900" lon="-15.6621780">
        <ele>176.61300</ele>
        <time>2009-01-05T10:15:07Z</time>
      </trkpt>
      <trkpt lat="27.85439800" lon="-15.6621700">
        <ele>176.79600</ele>
        <time>2009-01-05T10:15:08Z</time>
      </trkpt>
      <trkpt lat="27.85445800" lon="-15.6621710">
        <ele>176.82600</ele>
        <time>2009-01-05T10:15:09Z</time>
      </trkpt>
      <trkpt lat="27.85451700" lon="-15.6621790">
        <ele>177.06900</ele>
        <time>2009-01-05T10:15:10Z</time>
      </trkpt>
      <trkpt lat="27.85457700" lon="-15.6621870">
        <ele>176.91800</ele>
        <time>2009-01-05T10:15:11Z</time>
      </trkpt>
      <trkpt lat="27.85463700" lon="-15.6621850">
        <ele>177.00300</ele>
        <time>2009-01-05T10:15:12Z</time>
      </trkpt>
      <trkpt lat="27.85469700" lon="-15.6621730">
        <ele>177.00300</ele>
        <time>2009-01-05T10:15:13Z</time>
      </trkpt>
      <trkpt lat="27.85475600" lon="-15.6621570">
        <ele>177.13800</ele>
        <time>2009-01-05T10:15:14Z</time>
      </trkpt>
      <trkpt lat="27.85481300" lon="-15.6621390">
        <ele>177.31700</ele>
        <time>2009-01-05T10:15:15Z</time>
      </trkpt>
      <trkpt lat="27.85487000" lon="-15.6621220">
        <ele>177.62700</ele>
        <time>2009-01-05T10:15:16Z</time>
      </trkpt>
      <trkpt lat="27.85492600" lon="-15.6621050">
        <ele>177.65000</ele>
        <time>2009-01-05T10:15:17Z</time>
      </trkpt>
      <trkpt lat="27.85498300" lon="-15.6620870">
        <ele>177.74300</ele>
        <time>2009-01-05T10:15:18Z</time>
      </trkpt>
      <trkpt lat="27.85504000" lon="-15.6620700">
        <ele>177.98300</ele>
        <time>2009-01-05T10:15:19Z</time>
      </trkpt>
      <trkpt lat="27.85509800" lon="-15.6620550">
        <ele>177.81100</ele>
        <time>2009-01-05T10:15:20Z</time>
      </trkpt>
      <trkpt lat="27.85515600" lon="-15.6620400">
        <ele>178.00900</ele>
        <time>2009-01-05T10:15:21Z</time>
      </trkpt>
      <trkpt lat="27.85521300" lon="-15.6620260">
        <ele>178.02700</ele>
        <time>2009-01-05T10:15:22Z</time>
      </trkpt>
      <trkpt lat="27.85527000" lon="-15.6620110">
        <ele>178.28100</ele>
        <time>2009-01-05T10:15:23Z</time>
      </trkpt>
      <trkpt lat="27.85532800" lon="-15.6619910">
        <ele>177.89200</ele>
        <time>2009-01-05T10:15:24Z</time>
      </trkpt>
      <trkpt lat="27.85538500" lon="-15.6619660">
        <ele>178.43600</ele>
        <time>2009-01-05T10:15:25Z</time>
      </trkpt>
      <trkpt lat="27.85544000" lon="-15.6619370">
        <ele>178.31200</ele>
        <time>2009-01-05T10:15:26Z</time>
      </trkpt>
      <trkpt lat="27.85549500" lon="-15.6619070">
        <ele>178.61000</ele>
        <time>2009-01-05T10:15:27Z</time>
      </trkpt>
      <trkpt lat="27.85555000" lon="-15.6618810">
        <ele>178.57300</ele>
        <time>2009-01-05T10:15:28Z</time>
      </trkpt>
      <trkpt lat="27.85560600" lon="-15.6618630">
        <ele>178.74200</ele>
        <time>2009-01-05T10:15:29Z</time>
      </trkpt>
      <trkpt lat="27.85566400" lon="-15.6618490">
        <ele>178.94300</ele>
        <time>2009-01-05T10:15:30Z</time>
      </trkpt>
      <trkpt lat="27.85572300" lon="-15.6618380">
        <ele>179.10600</ele>
        <time>2009-01-05T10:15:31Z</time>
      </trkpt>
      <trkpt lat="27.85578100" lon="-15.6618300">
        <ele>179.11900</ele>
        <time>2009-01-05T10:15:32Z</time>
      </trkpt>
      <trkpt lat="27.85583800" lon="-15.6618220">
        <ele>179.27900</ele>
        <time>2009-01-05T10:15:33Z</time>
      </trkpt>
      <trkpt lat="27.85589200" lon="-15.6618160">
        <ele>179.73900</ele>
        <time>2009-01-05T10:15:34Z</time>
      </trkpt>
      <trkpt lat="27.85594600" lon="-15.6618100">
        <ele>179.60900</ele>
        <time>2009-01-05T10:15:35Z</time>
      </trkpt>
      <trkpt lat="27.85599900" lon="-15.6618050">
        <ele>179.83000</ele>
        <time>2009-01-05T10:15:36Z</time>
      </trkpt>
      <trkpt lat="27.85605200" lon="-15.6618000">
        <ele>179.89300</ele>
        <time>2009-01-05T10:15:37Z</time>
      </trkpt>
      <trkpt lat="27.85610600" lon="-15.6617970">
        <ele>179.92100</ele>
        <time>2009-01-05T10:15:38Z</time>
      </trkpt>
      <trkpt lat="27.85616000" lon="-15.6617980">
        <ele>180.30900</ele>
        <time>2009-01-05T10:15:39Z</time>
      </trkpt>
      <trkpt lat="27.85621400" lon="-15.6618050">
        <ele>180.73100</ele>
        <time>2009-01-05T10:15:40Z</time>
      </trkpt>
      <trkpt lat="27.85626700" lon="-15.6618190">
        <ele>180.77600</ele>
        <time>2009-01-05T10:15:41Z</time>
      </trkpt>
      <trkpt lat="27.85631800" lon="-15.6618390">
        <ele>181.00500</ele>
        <time>2009-01-05T10:15:42Z</time>
      </trkpt>
      <trkpt lat="27.85636600" lon="-15.6618640">
        <ele>181.04400</ele>
        <time>2009-01-05T10:15:43Z</time>
      </trkpt>
      <trkpt lat="27.85641400" lon="-15.6618920">
        <ele>181.52900</ele>
        <time>2009-01-05T10:15:44Z</time>
      </trkpt>
      <trkpt lat="27.85646100" lon="-15.6619210">
        <ele>181.48100</ele>
        <time>2009-01-05T10:15:45Z</time>
      </trkpt>
      <trkpt lat="27.85650900" lon="-15.6619480">
        <ele>181.44900</ele>
        <time>2009-01-05T10:15:46Z</time>
      </trkpt>
      <trkpt lat="27.85656000" lon="-15.6619680">
        <ele>181.84500</ele>
        <time>2009-01-05T10:15:47Z</time>
      </trkpt>
      <trkpt lat="27.85661300" lon="-15.6619790">
        <ele>181.91000</ele>
        <time>2009-01-05T10:15:48Z</time>
      </trkpt>
      <trkpt lat="27.85666800" lon="-15.6619830">
        <ele>181.96800</ele>
        <time>2009-01-05T10:15:49Z</time>
      </trkpt>
      <trkpt lat="27.85672500" lon="-15.6619840">
        <ele>181.97200</ele>
        <time>2009-01-05T10:15:50Z</time>
      </trkpt>
      <trkpt lat="27.85678300" lon="-15.6619810">
        <ele>182.04000</ele>
        <time>2009-01-05T10:15:51Z</time>
      </trkpt>
      <trkpt lat="27.85684200" lon="-15.6619790">
        <ele>181.85200</ele>
        <time>2009-01-05T10:15:52Z</time>
      </trkpt>
      <trkpt lat="27.85690100" lon="-15.6619780">
        <ele>182.07300</ele>
        <time>2009-01-05T10:15:53Z</time>
      </trkpt>
      <trkpt lat="27.85695900" lon="-15.6619800">
        <ele>182.19900</ele>
        <time>2009-01-05T10:15:54Z</time>
      </trkpt>
      <trkpt lat="27.85701800" lon="-15.6619800">
        <ele>182.12400</ele>
        <time>2009-01-05T10:15:55Z</time>
      </trkpt>
      <trkpt lat="27.85707600" lon="-15.6619800">
        <ele>182.51200</ele>
        <time>2009-01-05T10:15:56Z</time>
      </trkpt>
      <trkpt lat="27.85713400" lon="-15.6619790">
        <ele>182.55100</ele>
        <time>2009-01-05T10:15:57Z</time>
      </trkpt>
      <trkpt lat="27.85719200" lon="-15.6619780">
        <ele>182.89700</ele>
        <time>2009-01-05T10:15:58Z</time>
      </trkpt>
      <trkpt lat="27.85724800" lon="-15.6619770">
        <ele>182.82200</ele>
        <time>2009-01-05T10:15:59Z</time>
      </trkpt>
      <trkpt lat="27.85730400" lon="-15.6619790">
        <ele>182.76800</ele>
        <time>2009-01-05T10:16:00Z</time>
      </trkpt>
      <trkpt lat="27.85735600" lon="-15.6619850">
        <ele>182.83900</ele>
        <time>2009-01-05T10:16:01Z</time>
      </trkpt>
      <trkpt lat="27.85741000" lon="-15.6619870">
        <ele>182.88000</ele>
        <time>2009-01-05T10:16:02Z</time>
      </trkpt>
      <trkpt lat="27.85746100" lon="-15.6619940">
        <ele>182.55800</ele>
        <time>2009-01-05T10:16:03Z</time>
      </trkpt>
      <trkpt lat="27.85751500" lon="-15.6619950">
        <ele>182.47100</ele>
        <time>2009-01-05T10:16:04Z</time>
      </trkpt>
      <trkpt lat="27.85756900" lon="-15.6619910">
        <ele>183.13900</ele>
        <time>2009-01-05T10:16:05Z</time>
      </trkpt>
      <trkpt lat="27.85762600" lon="-15.6619790">
        <ele>183.27600</ele>
        <time>2009-01-05T10:16:06Z</time>
      </trkpt>
      <trkpt lat="27.85768100" lon="-15.6619600">
        <ele>183.73500</ele>
        <time>2009-01-05T10:16:07Z</time>
      </trkpt>
      <trkpt lat="27.85773100" lon="-15.6619340">
        <ele>183.52100</ele>
        <time>2009-01-05T10:16:08Z</time>
      </trkpt>
      <trkpt lat="27.85777900" lon="-15.6619050">
        <ele>183.70000</ele>
        <time>2009-01-05T10:16:09Z</time>
      </trkpt>
      <trkpt lat="27.85782500" lon="-15.6618740">
        <ele>184.03500</ele>
        <time>2009-01-05T10:16:10Z</time>
      </trkpt>
      <trkpt lat="27.85786900" lon="-15.6618430">
        <ele>184.32700</ele>
        <time>2009-01-05T10:16:11Z</time>
      </trkpt>
      <trkpt lat="27.85790900" lon="-15.6618110">
        <ele>184.51900</ele>
        <time>2009-01-05T10:16:12Z</time>
      </trkpt>
      <trkpt lat="27.85794700" lon="-15.6617790">
        <ele>184.59800</ele>
        <time>2009-01-05T10:16:13Z</time>
      </trkpt>
      <trkpt lat="27.85798600" lon="-15.6617470">
        <ele>184.95600</ele>
        <time>2009-01-05T10:16:14Z</time>
      </trkpt>
      <trkpt lat="27.85802700" lon="-15.6617190">
        <ele>184.92100</ele>
        <time>2009-01-05T10:16:15Z</time>
      </trkpt>
      <trkpt lat="27.85807100" lon="-15.6616950">
        <ele>185.32900</ele>
        <time>2009-01-05T10:16:16Z</time>
      </trkpt>
      <trkpt lat="27.85811600" lon="-15.6616760">
        <ele>185.78600</ele>
        <time>2009-01-05T10:16:17Z</time>
      </trkpt>
      <trkpt lat="27.85816200" lon="-15.6616640">
        <ele>186.00700</ele>
        <time>2009-01-05T10:16:18Z</time>
      </trkpt>
      <trkpt lat="27.85821000" lon="-15.6616570">
        <ele>186.03400</ele>
        <time>2009-01-05T10:16:19Z</time>
      </trkpt>
      <trkpt lat="27.85825600" lon="-15.6616580">
        <ele>186.13100</ele>
        <time>2009-01-05T10:16:20Z</time>
      </trkpt>
      <trkpt lat="27.85830100" lon="-15.6616640">
        <ele>186.37800</ele>
        <time>2009-01-05T10:16:21Z</time>
      </trkpt>
      <trkpt lat="27.85834800" lon="-15.6616740">
        <ele>186.64900</ele>
        <time>2009-01-05T10:16:22Z</time>
      </trkpt>
      <trkpt lat="27.85839700" lon="-15.6616840">
        <ele>186.55800</ele>
        <time>2009-01-05T10:16:23Z</time>
      </trkpt>
      <trkpt lat="27.85844800" lon="-15.6616950">
        <ele>186.33800</ele>
        <time>2009-01-05T10:16:24Z</time>
      </trkpt>
      <trkpt lat="27.85849800" lon="-15.6617060">
        <ele>186.43500</ele>
        <time>2009-01-05T10:16:25Z</time>
      </trkpt>
      <trkpt lat="27.85855100" lon="-15.6617200">
        <ele>186.56100</ele>
        <time>2009-01-05T10:16:26Z</time>
      </trkpt>
      <trkpt lat="27.85860400" lon="-15.6617340">
        <ele>186.56800</ele>
        <time>2009-01-05T10:16:27Z</time>
      </trkpt>
      <trkpt lat="27.85865800" lon="-15.6617460">
        <ele>186.17800</ele>
        <time>2009-01-05T10:16:28Z</time>
      </trkpt>
      <trkpt lat="27.85871300" lon="-15.6617550">
        <ele>186.23000</ele>
        <time>2009-01-05T10:16:29Z</time>
      </trkpt>
      <trkpt lat="27.85876900" lon="-15.6617630">
        <ele>186.63000</ele>
        <time>2009-01-05T10:16:30Z</time>
      </trkpt>
      <trkpt lat="27.85882600" lon="-15.6617740">
        <ele>187.19500</ele>
        <time>2009-01-05T10:16:31Z</time>
      </trkpt>
      <trkpt lat="27.85888000" lon="-15.6617840">
        <ele>186.95600</ele>
        <time>2009-01-05T10:16:32Z</time>
      </trkpt>
      <trkpt lat="27.85893400" lon="-15.6617960">
        <ele>186.98300</ele>
        <time>2009-01-05T10:16:33Z</time>
      </trkpt>
      <trkpt lat="27.85898800" lon="-15.6618080">
        <ele>186.80000</ele>
        <time>2009-01-05T10:16:34Z</time>
      </trkpt>
      <trkpt lat="27.85904200" lon="-15.6618240">
        <ele>186.68700</ele>
        <time>2009-01-05T10:16:35Z</time>
      </trkpt>
      <trkpt lat="27.85909700" lon="-15.6618430">
        <ele>186.70200</ele>
        <time>2009-01-05T10:16:36Z</time>
      </trkpt>
      <trkpt lat="27.85915200" lon="-15.6618660">
        <ele>186.93600</ele>
        <time>2009-01-05T10:16:37Z</time>
      </trkpt>
      <trkpt lat="27.85920500" lon="-15.6618930">
        <ele>187.28900</ele>
        <time>2009-01-05T10:16:38Z</time>
      </trkpt>
      <trkpt lat="27.85925600" lon="-15.6619240">
        <ele>187.23200</ele>
        <time>2009-01-05T10:16:39Z</time>
      </trkpt>
      <trkpt lat="27.85930300" lon="-15.6619620">
        <ele>187.21700</ele>
        <time>2009-01-05T10:16:40Z</time>
      </trkpt>
      <trkpt lat="27.85934500" lon="-15.6620050">
        <ele>187.62000</ele>
        <time>2009-01-05T10:16:41Z</time>
      </trkpt>
      <trkpt lat="27.85938400" lon="-15.6620490">
        <ele>187.52800</ele>
        <time>2009-01-05T10:16:42Z</time>
      </trkpt>
      <trkpt lat="27.85942900" lon="-15.6620870">
        <ele>187.80700</ele>
        <time>2009-01-05T10:16:43Z</time>
      </trkpt>
      <trkpt lat="27.85947700" lon="-15.6621150">
        <ele>187.72900</ele>
        <time>2009-01-05T10:16:44Z</time>
      </trkpt>
      <trkpt lat="27.85952700" lon="-15.6621380">
        <ele>188.09900</ele>
        <time>2009-01-05T10:16:45Z</time>
      </trkpt>
      <trkpt lat="27.85957600" lon="-15.6621610">
        <ele>188.36700</ele>
        <time>2009-01-05T10:16:46Z</time>
      </trkpt>
      <trkpt lat="27.85962400" lon="-15.6621840">
        <ele>188.73300</ele>
        <time>2009-01-05T10:16:47Z</time>
      </trkpt>
      <trkpt lat="27.85967000" lon="-15.6622050">
        <ele>188.83100</ele>
        <time>2009-01-05T10:16:48Z</time>
      </trkpt>
      <trkpt lat="27.85971300" lon="-15.6622260">
        <ele>189.02000</ele>
        <time>2009-01-05T10:16:49Z</time>
      </trkpt>
      <trkpt lat="27.85975500" lon="-15.6622490">
        <ele>189.20600</ele>
        <time>2009-01-05T10:16:50Z</time>
      </trkpt>
      <trkpt lat="27.85979600" lon="-15.6622720">
        <ele>189.54700</ele>
        <time>2009-01-05T10:16:51Z</time>
      </trkpt>
      <trkpt lat="27.85983700" lon="-15.6622960">
        <ele>189.70600</ele>
        <time>2009-01-05T10:16:52Z</time>
      </trkpt>
      <trkpt lat="27.85987800" lon="-15.6623210">
        <ele>189.96300</ele>
        <time>2009-01-05T10:16:53Z</time>
      </trkpt>
      <trkpt lat="27.85991800" lon="-15.6623470">
        <ele>189.90800</ele>
        <time>2009-01-05T10:16:54Z</time>
      </trkpt>
      <trkpt lat="27.85995800" lon="-15.6623760">
        <ele>190.15200</ele>
        <time>2009-01-05T10:16:55Z</time>
      </trkpt>
      <trkpt lat="27.85999700" lon="-15.6624040">
        <ele>190.31900</ele>
        <time>2009-01-05T10:16:56Z</time>
      </trkpt>
      <trkpt lat="27.86003600" lon="-15.6624320">
        <ele>190.84800</ele>
        <time>2009-01-05T10:16:57Z</time>
      </trkpt>
      <trkpt lat="27.86007700" lon="-15.6624570">
        <ele>190.88000</ele>
        <time>2009-01-05T10:16:58Z</time>
      </trkpt>
      <trkpt lat="27.86011900" lon="-15.6624780">
        <ele>191.02000</ele>
        <time>2009-01-05T10:16:59Z</time>
      </trkpt>
      <trkpt lat="27.86016300" lon="-15.6624980">
        <ele>191.26800</ele>
        <time>2009-01-05T10:17:00Z</time>
      </trkpt>
      <trkpt lat="27.86020900" lon="-15.6625150">
        <ele>191.50100</ele>
        <time>2009-01-05T10:17:01Z</time>
      </trkpt>
      <trkpt lat="27.86025700" lon="-15.6625310">
        <ele>191.70200</ele>
        <time>2009-01-05T10:17:02Z</time>
      </trkpt>
      <trkpt lat="27.86030600" lon="-15.6625450">
        <ele>191.71000</ele>
        <time>2009-01-05T10:17:03Z</time>
      </trkpt>
      <trkpt lat="27.86035400" lon="-15.6625590">
        <ele>192.12500</ele>
        <time>2009-01-05T10:17:04Z</time>
      </trkpt>
      <trkpt lat="27.86040200" lon="-15.6625770">
        <ele>192.41300</ele>
        <time>2009-01-05T10:17:05Z</time>
      </trkpt>
      <trkpt lat="27.86045200" lon="-15.6625970">
        <ele>192.26200</ele>
        <time>2009-01-05T10:17:06Z</time>
      </trkpt>
      <trkpt lat="27.86050000" lon="-15.6626180">
        <ele>192.22800</ele>
        <time>2009-01-05T10:17:07Z</time>
      </trkpt>
      <trkpt lat="27.86054700" lon="-15.6626380">
        <ele>192.63200</ele>
        <time>2009-01-05T10:17:08Z</time>
      </trkpt>
      <trkpt lat="27.86059200" lon="-15.6626570">
        <ele>192.61300</ele>
        <time>2009-01-05T10:17:09Z</time>
      </trkpt>
      <trkpt lat="27.86063500" lon="-15.6626760">
        <ele>192.97200</ele>
        <time>2009-01-05T10:17:10Z</time>
      </trkpt>
      <trkpt lat="27.86067500" lon="-15.6626950">
        <ele>193.10900</ele>
        <time>2009-01-05T10:17:11Z</time>
      </trkpt>
      <trkpt lat="27.86071400" lon="-15.6627140">
        <ele>193.34600</ele>
        <time>2009-01-05T10:17:12Z</time>
      </trkpt>
      <trkpt lat="27.86075400" lon="-15.6627310">
        <ele>193.33300</ele>
        <time>2009-01-05T10:17:13Z</time>
      </trkpt>
      <trkpt lat="27.86079400" lon="-15.6627470">
        <ele>193.68100</ele>
        <time>2009-01-05T10:17:14Z</time>
      </trkpt>
      <trkpt lat="27.86083400" lon="-15.6627630">
        <ele>194.20600</ele>
        <time>2009-01-05T10:17:15Z</time>
      </trkpt>
      <trkpt lat="27.86087500" lon="-15.6627810">
        <ele>194.11300</ele>
        <time>2009-01-05T10:17:16Z</time>
      </trkpt>
      <trkpt lat="27.86091600" lon="-15.6627990">
        <ele>194.46400</ele>
        <time>2009-01-05T10:17:17Z</time>
      </trkpt>
      <trkpt lat="27.86095900" lon="-15.6628150">
        <ele>194.50300</ele>
        <time>2009-01-05T10:17:18Z</time>
      </trkpt>
      <trkpt lat="27.86100400" lon="-15.6628290">
        <ele>194.93300</ele>
        <time>2009-01-05T10:17:19Z</time>
      </trkpt>
      <trkpt lat="27.86104800" lon="-15.6628400">
        <ele>194.85500</ele>
        <time>2009-01-05T10:17:20Z</time>
      </trkpt>
      <trkpt lat="27.86109400" lon="-15.6628510">
        <ele>194.99900</ele>
        <time>2009-01-05T10:17:21Z</time>
      </trkpt>
      <trkpt lat="27.86114000" lon="-15.6628590">
        <ele>195.22800</ele>
        <time>2009-01-05T10:17:22Z</time>
      </trkpt>
      <trkpt lat="27.86118700" lon="-15.6628650">
        <ele>194.90200</ele>
        <time>2009-01-05T10:17:23Z</time>
      </trkpt>
      <trkpt lat="27.86123600" lon="-15.6628680">
        <ele>195.14900</ele>
        <time>2009-01-05T10:17:24Z</time>
      </trkpt>
      <trkpt lat="27.86128600" lon="-15.6628700">
        <ele>195.09500</ele>
        <time>2009-01-05T10:17:25Z</time>
      </trkpt>
      <trkpt lat="27.86133700" lon="-15.6628720">
        <ele>195.25000</ele>
        <time>2009-01-05T10:17:26Z</time>
      </trkpt>
      <trkpt lat="27.86139000" lon="-15.6628730">
        <ele>195.19600</ele>
        <time>2009-01-05T10:17:27Z</time>
      </trkpt>
      <trkpt lat="27.86144400" lon="-15.6628730">
        <ele>195.16800</ele>
        <time>2009-01-05T10:17:28Z</time>
      </trkpt>
      <trkpt lat="27.86149900" lon="-15.6628730">
        <ele>195.16600</ele>
        <time>2009-01-05T10:17:29Z</time>
      </trkpt>
      <trkpt lat="27.86155500" lon="-15.6628730">
        <ele>195.11700</ele>
        <time>2009-01-05T10:17:30Z</time>
      </trkpt>
      <trkpt lat="27.86161200" lon="-15.6628750">
        <ele>195.03900</ele>
        <time>2009-01-05T10:17:31Z</time>
      </trkpt>
      <trkpt lat="27.86166900" lon="-15.6628790">
        <ele>195.03500</ele>
        <time>2009-01-05T10:17:32Z</time>
      </trkpt>
      <trkpt lat="27.86172700" lon="-15.6628880">
        <ele>194.93800</ele>
        <time>2009-01-05T10:17:33Z</time>
      </trkpt>
      <trkpt lat="27.86178400" lon="-15.6629060">
        <ele>195.21700</ele>
        <time>2009-01-05T10:17:34Z</time>
      </trkpt>
      <trkpt lat="27.86183800" lon="-15.6629330">
        <ele>195.03300</ele>
        <time>2009-01-05T10:17:35Z</time>
      </trkpt>
      <trkpt lat="27.86188800" lon="-15.6629680">
        <ele>194.74500</ele>
        <time>2009-01-05T10:17:36Z</time>
      </trkpt>
      <trkpt lat="27.86193400" lon="-15.6630100">
        <ele>194.83600</ele>
        <time>2009-01-05T10:17:37Z</time>
      </trkpt>
      <trkpt lat="27.86197600" lon="-15.6630590">
        <ele>195.09300</ele>
        <time>2009-01-05T10:17:38Z</time>
      </trkpt>
      <trkpt lat="27.86201100" lon="-15.6631140">
        <ele>194.88000</ele>
        <time>2009-01-05T10:17:39Z</time>
      </trkpt>
      <trkpt lat="27.86204200" lon="-15.6631720">
        <ele>195.00800</ele>
        <time>2009-01-05T10:17:40Z</time>
      </trkpt>
      <trkpt lat="27.86206700" lon="-15.6632320">
        <ele>195.13500</ele>
        <time>2009-01-05T10:17:41Z</time>
      </trkpt>
      <trkpt lat="27.86208600" lon="-15.6632940">
        <ele>195.37400</ele>
        <time>2009-01-05T10:17:42Z</time>
      </trkpt>
      <trkpt lat="27.86210200" lon="-15.6633550">
        <ele>195.49800</ele>
        <time>2009-01-05T10:17:43Z</time>
      </trkpt>
      <trkpt lat="27.86211800" lon="-15.6634170">
        <ele>195.73900</ele>
        <time>2009-01-05T10:17:44Z</time>
      </trkpt>
      <trkpt lat="27.86213500" lon="-15.6634780">
        <ele>195.76800</ele>
        <time>2009-01-05T10:17:45Z</time>
      </trkpt>
      <trkpt lat="27.86215300" lon="-15.6635390">
        <ele>195.61800</ele>
        <time>2009-01-05T10:17:46Z</time>
      </trkpt>
      <trkpt lat="27.86217100" lon="-15.6636000">
        <ele>195.80000</ele>
        <time>2009-01-05T10:17:47Z</time>
      </trkpt>
      <trkpt lat="27.86218700" lon="-15.6636630">
        <ele>195.64800</ele>
        <time>2009-01-05T10:17:48Z</time>
      </trkpt>
      <trkpt lat="27.86220300" lon="-15.6637270">
        <ele>195.57900</ele>
        <time>2009-01-05T10:17:49Z</time>
      </trkpt>
      <trkpt lat="27.86222000" lon="-15.6637910">
        <ele>195.66400</ele>
        <time>2009-01-05T10:17:50Z</time>
      </trkpt>
      <trkpt lat="27.86224000" lon="-15.6638540">
        <ele>195.75100</ele>
        <time>2009-01-05T10:17:51Z</time>
      </trkpt>
      <trkpt lat="27.86225900" lon="-15.6639140">
        <ele>196.10800</ele>
        <time>2009-01-05T10:17:52Z</time>
      </trkpt>
      <trkpt lat="27.86227700" lon="-15.6639740">
        <ele>196.28800</ele>
        <time>2009-01-05T10:17:53Z</time>
      </trkpt>
      <trkpt lat="27.86229500" lon="-15.6640310">
        <ele>196.28300</ele>
        <time>2009-01-05T10:17:54Z</time>
      </trkpt>
      <trkpt lat="27.86231400" lon="-15.6640840">
        <ele>196.50700</ele>
        <time>2009-01-05T10:17:55Z</time>
      </trkpt>
      <trkpt lat="27.86233400" lon="-15.6641360">
        <ele>196.97800</ele>
        <time>2009-01-05T10:17:56Z</time>
      </trkpt>
      <trkpt lat="27.86235300" lon="-15.6641840">
        <ele>196.90600</ele>
        <time>2009-01-05T10:17:57Z</time>
      </trkpt>
      <trkpt lat="27.86237300" lon="-15.6642310">
        <ele>197.21000</ele>
        <time>2009-01-05T10:17:58Z</time>
      </trkpt>
      <trkpt lat="27.86239300" lon="-15.6642760">
        <ele>197.84400</ele>
        <time>2009-01-05T10:17:59Z</time>
      </trkpt>
      <trkpt lat="27.86241400" lon="-15.6643180">
        <ele>198.09000</ele>
        <time>2009-01-05T10:18:00Z</time>
      </trkpt>
      <trkpt lat="27.86243700" lon="-15.6643600">
        <ele>198.32800</ele>
        <time>2009-01-05T10:18:01Z</time>
      </trkpt>
      <trkpt lat="27.86246200" lon="-15.6644040">
        <ele>198.34300</ele>
        <time>2009-01-05T10:18:02Z</time>
      </trkpt>
      <trkpt lat="27.86248700" lon="-15.6644490">
        <ele>198.58500</ele>
        <time>2009-01-05T10:18:03Z</time>
      </trkpt>
      <trkpt lat="27.86251300" lon="-15.6644950">
        <ele>198.56900</ele>
        <time>2009-01-05T10:18:04Z</time>
      </trkpt>
      <trkpt lat="27.86254100" lon="-15.6645460">
        <ele>198.29200</ele>
        <time>2009-01-05T10:18:05Z</time>
      </trkpt>
      <trkpt lat="27.86257100" lon="-15.6645990">
        <ele>198.40700</ele>
        <time>2009-01-05T10:18:06Z</time>
      </trkpt>
      <trkpt lat="27.86260400" lon="-15.6646550">
        <ele>198.37800</ele>
        <time>2009-01-05T10:18:07Z</time>
      </trkpt>
      <trkpt lat="27.86263700" lon="-15.6647130">
        <ele>198.15800</ele>
        <time>2009-01-05T10:18:08Z</time>
      </trkpt>
      <trkpt lat="27.86267300" lon="-15.6647740">
        <ele>198.13400</ele>
        <time>2009-01-05T10:18:09Z</time>
      </trkpt>
      <trkpt lat="27.86271200" lon="-15.6648350">
        <ele>198.06700</ele>
        <time>2009-01-05T10:18:10Z</time>
      </trkpt>
      <trkpt lat="27.86275200" lon="-15.6648950">
        <ele>197.85500</ele>
        <time>2009-01-05T10:18:11Z</time>
      </trkpt>
      <trkpt lat="27.86279300" lon="-15.6649520">
        <ele>197.46100</ele>
        <time>2009-01-05T10:18:12Z</time>
      </trkpt>
      <trkpt lat="27.86283300" lon="-15.6650070">
        <ele>197.53400</ele>
        <time>2009-01-05T10:18:13Z</time>
      </trkpt>
      <trkpt lat="27.86305400" lon="-15.6652990">
        <ele>198.08400</ele>
        <time>2009-01-05T10:18:19Z</time>
      </trkpt>
      <trkpt lat="27.86308800" lon="-15.6653410">
        <ele>198.53800</ele>
        <time>2009-01-05T10:18:20Z</time>
      </trkpt>
      <trkpt lat="27.86312100" lon="-15.6653790">
        <ele>198.81600</ele>
        <time>2009-01-05T10:18:21Z</time>
      </trkpt>
      <trkpt lat="27.86315300" lon="-15.6654130">
        <ele>199.04800</ele>
        <time>2009-01-05T10:18:22Z</time>
      </trkpt>
      <trkpt lat="27.86318500" lon="-15.6654460">
        <ele>199.47900</ele>
        <time>2009-01-05T10:18:23Z</time>
      </trkpt>
      <trkpt lat="27.86321400" lon="-15.6654810">
        <ele>199.76900</ele>
        <time>2009-01-05T10:18:24Z</time>
      </trkpt>
      <trkpt lat="27.86324000" lon="-15.6655170">
        <ele>200.60300</ele>
        <time>2009-01-05T10:18:25Z</time>
      </trkpt>
      <trkpt lat="27.86326300" lon="-15.6655530">
        <ele>201.05300</ele>
        <time>2009-01-05T10:18:26Z</time>
      </trkpt>
      <trkpt lat="27.86328500" lon="-15.6655870">
        <ele>201.49800</ele>
        <time>2009-01-05T10:18:27Z</time>
      </trkpt>
      <trkpt lat="27.86330600" lon="-15.6656200">
        <ele>201.64700</ele>
        <time>2009-01-05T10:18:28Z</time>
      </trkpt>
      <trkpt lat="27.86332400" lon="-15.6656530">
        <ele>201.81500</ele>
        <time>2009-01-05T10:18:29Z</time>
      </trkpt>
      <trkpt lat="27.86334300" lon="-15.6656870">
        <ele>202.25200</ele>
        <time>2009-01-05T10:18:30Z</time>
      </trkpt>
      <trkpt lat="27.86336500" lon="-15.6657200">
        <ele>202.52300</ele>
        <time>2009-01-05T10:18:31Z</time>
      </trkpt>
      <trkpt lat="27.86338800" lon="-15.6657550">
        <ele>202.94200</ele>
        <time>2009-01-05T10:18:32Z</time>
      </trkpt>
      <trkpt lat="27.86341200" lon="-15.6657890">
        <ele>202.93000</ele>
        <time>2009-01-05T10:18:33Z</time>
      </trkpt>
      <trkpt lat="27.86343700" lon="-15.6658210">
        <ele>203.18500</ele>
        <time>2009-01-05T10:18:34Z</time>
      </trkpt>
      <trkpt lat="27.86346400" lon="-15.6658520">
        <ele>203.16600</ele>
        <time>2009-01-05T10:18:35Z</time>
      </trkpt>
      <trkpt lat="27.86349500" lon="-15.6658830">
        <ele>203.49700</ele>
        <time>2009-01-05T10:18:36Z</time>
      </trkpt>
      <trkpt lat="27.86352900" lon="-15.6659130">
        <ele>203.67900</ele>
        <time>2009-01-05T10:18:37Z</time>
      </trkpt>
      <trkpt lat="27.86356500" lon="-15.6659400">
        <ele>203.60400</ele>
        <time>2009-01-05T10:18:38Z</time>
      </trkpt>
      <trkpt lat="27.86360500" lon="-15.6659640">
        <ele>203.47800</ele>
        <time>2009-01-05T10:18:39Z</time>
      </trkpt>
      <trkpt lat="27.86364600" lon="-15.6659850">
        <ele>203.95800</ele>
        <time>2009-01-05T10:18:40Z</time>
      </trkpt>
      <trkpt lat="27.86368500" lon="-15.6660030">
        <ele>203.85700</ele>
        <time>2009-01-05T10:18:41Z</time>
      </trkpt>
      <trkpt lat="27.86372600" lon="-15.6660230">
        <ele>203.84600</ele>
        <time>2009-01-05T10:18:42Z</time>
      </trkpt>
      <trkpt lat="27.86377300" lon="-15.6660420">
        <ele>203.94300</ele>
        <time>2009-01-05T10:18:43Z</time>
      </trkpt>
      <trkpt lat="27.86382000" lon="-15.6660600">
        <ele>204.11700</ele>
        <time>2009-01-05T10:18:44Z</time>
      </trkpt>
      <trkpt lat="27.86386700" lon="-15.6660790">
        <ele>203.77100</ele>
        <time>2009-01-05T10:18:45Z</time>
      </trkpt>
      <trkpt lat="27.86391500" lon="-15.6660980">
        <ele>203.81900</ele>
        <time>2009-01-05T10:18:46Z</time>
      </trkpt>
      <trkpt lat="27.86396100" lon="-15.6661210">
        <ele>203.75800</ele>
        <time>2009-01-05T10:18:47Z</time>
      </trkpt>
      <trkpt lat="27.86400800" lon="-15.6661460">
        <ele>203.84300</ele>
        <time>2009-01-05T10:18:48Z</time>
      </trkpt>
      <trkpt lat="27.86405700" lon="-15.6661730">
        <ele>204.03900</ele>
        <time>2009-01-05T10:18:49Z</time>
      </trkpt>
      <trkpt lat="27.86410600" lon="-15.6661980">
        <ele>203.94900</ele>
        <time>2009-01-05T10:18:50Z</time>
      </trkpt>
      <trkpt lat="27.86415600" lon="-15.6662190">
        <ele>204.04200</ele>
        <time>2009-01-05T10:18:51Z</time>
      </trkpt>
      <trkpt lat="27.86420600" lon="-15.6662350">
        <ele>204.22400</ele>
        <time>2009-01-05T10:18:52Z</time>
      </trkpt>
      <trkpt lat="27.86425600" lon="-15.6662470">
        <ele>204.40900</ele>
        <time>2009-01-05T10:18:53Z</time>
      </trkpt>
      <trkpt lat="27.86430200" lon="-15.6662570">
        <ele>204.76600</ele>
        <time>2009-01-05T10:18:54Z</time>
      </trkpt>
      <trkpt lat="27.86434700" lon="-15.6662690">
        <ele>204.71800</ele>
        <time>2009-01-05T10:18:55Z</time>
      </trkpt>
      <trkpt lat="27.86439200" lon="-15.6662820">
        <ele>204.93800</ele>
        <time>2009-01-05T10:18:56Z</time>
      </trkpt>
      <trkpt lat="27.86443800" lon="-15.6662930">
        <ele>205.09100</ele>
        <time>2009-01-05T10:18:57Z</time>
      </trkpt>
      <trkpt lat="27.86448300" lon="-15.6663040">
        <ele>205.30300</ele>
        <time>2009-01-05T10:18:58Z</time>
      </trkpt>
      <trkpt lat="27.86453000" lon="-15.6663160">
        <ele>205.33200</ele>
        <time>2009-01-05T10:18:59Z</time>
      </trkpt>
      <trkpt lat="27.86457700" lon="-15.6663300">
        <ele>205.26000</ele>
        <time>2009-01-05T10:19:00Z</time>
      </trkpt>
      <trkpt lat="27.86462500" lon="-15.6663430">
        <ele>205.44500</ele>
        <time>2009-01-05T10:19:01Z</time>
      </trkpt>
      <trkpt lat="27.86467300" lon="-15.6663570">
        <ele>205.35000</ele>
        <time>2009-01-05T10:19:02Z</time>
      </trkpt>
      <trkpt lat="27.86472100" lon="-15.6663750">
        <ele>205.24400</ele>
        <time>2009-01-05T10:19:03Z</time>
      </trkpt>
      <trkpt lat="27.86476900" lon="-15.6663950">
        <ele>205.28600</ele>
        <time>2009-01-05T10:19:04Z</time>
      </trkpt>
      <trkpt lat="27.86481700" lon="-15.6664170">
        <ele>205.25700</ele>
        <time>2009-01-05T10:19:05Z</time>
      </trkpt>
      <trkpt lat="27.86486200" lon="-15.6664420">
        <ele>205.49700</ele>
        <time>2009-01-05T10:19:06Z</time>
      </trkpt>
      <trkpt lat="27.86490600" lon="-15.6664680">
        <ele>205.36500</ele>
        <time>2009-01-05T10:19:07Z</time>
      </trkpt>
      <trkpt lat="27.86494700" lon="-15.6664960">
        <ele>205.74500</ele>
        <time>2009-01-05T10:19:08Z</time>
      </trkpt>
      <trkpt lat="27.86498400" lon="-15.6665260">
        <ele>206.12000</ele>
        <time>2009-01-05T10:19:09Z</time>
      </trkpt>
      <trkpt lat="27.86501800" lon="-15.6665570">
        <ele>206.49000</ele>
        <time>2009-01-05T10:19:10Z</time>
      </trkpt>
      <trkpt lat="27.86504800" lon="-15.6665880">
        <ele>206.77000</ele>
        <time>2009-01-05T10:19:11Z</time>
      </trkpt>
      <trkpt lat="27.86507800" lon="-15.6666170">
        <ele>207.34600</ele>
        <time>2009-01-05T10:19:12Z</time>
      </trkpt>
      <trkpt lat="27.86510700" lon="-15.6666430">
        <ele>207.44900</ele>
        <time>2009-01-05T10:19:13Z</time>
      </trkpt>
      <trkpt lat="27.86513500" lon="-15.6666670">
        <ele>207.90300</ele>
        <time>2009-01-05T10:19:14Z</time>
      </trkpt>
      <trkpt lat="27.86516200" lon="-15.6666880">
        <ele>208.14600</ele>
        <time>2009-01-05T10:19:15Z</time>
      </trkpt>
      <trkpt lat="27.86518800" lon="-15.6667080">
        <ele>208.68700</ele>
        <time>2009-01-05T10:19:16Z</time>
      </trkpt>
      <trkpt lat="27.86521300" lon="-15.6667270">
        <ele>208.94300</ele>
        <time>2009-01-05T10:19:17Z</time>
      </trkpt>
      <trkpt lat="27.86523800" lon="-15.6667460">
        <ele>209.23600</ele>
        <time>2009-01-05T10:19:18Z</time>
      </trkpt>
      <trkpt lat="27.86526400" lon="-15.6667650">
        <ele>209.27500</ele>
        <time>2009-01-05T10:19:19Z</time>
      </trkpt>
      <trkpt lat="27.86529100" lon="-15.6667820">
        <ele>209.37500</ele>
        <time>2009-01-05T10:19:20Z</time>
      </trkpt>
      <trkpt lat="27.86532000" lon="-15.6667970">
        <ele>209.75500</ele>
        <time>2009-01-05T10:19:21Z</time>
      </trkpt>
      <trkpt lat="27.86534800" lon="-15.6668140">
        <ele>210.14100</ele>
        <time>2009-01-05T10:19:22Z</time>
      </trkpt>
      <trkpt lat="27.86537600" lon="-15.6668320">
        <ele>210.17000</ele>
        <time>2009-01-05T10:19:23Z</time>
      </trkpt>
      <trkpt lat="27.86540400" lon="-15.6668500">
        <ele>210.44700</ele>
        <time>2009-01-05T10:19:24Z</time>
      </trkpt>
      <trkpt lat="27.86543000" lon="-15.6668700">
        <ele>210.93800</ele>
        <time>2009-01-05T10:19:25Z</time>
      </trkpt>
      <trkpt lat="27.86545600" lon="-15.6668890">
        <ele>211.31600</ele>
        <time>2009-01-05T10:19:26Z</time>
      </trkpt>
      <trkpt lat="27.86548200" lon="-15.6669100">
        <ele>211.49200</ele>
        <time>2009-01-05T10:19:27Z</time>
      </trkpt>
      <trkpt lat="27.86550600" lon="-15.6669310">
        <ele>211.58900</ele>
        <time>2009-01-05T10:19:28Z</time>
      </trkpt>
      <trkpt lat="27.86552900" lon="-15.6669530">
        <ele>211.83700</ele>
        <time>2009-01-05T10:19:29Z</time>
      </trkpt>
      <trkpt lat="27.86555000" lon="-15.6669780">
        <ele>212.18300</ele>
        <time>2009-01-05T10:19:30Z</time>
      </trkpt>
      <trkpt lat="27.86557000" lon="-15.6670030">
        <ele>212.21600</ele>
        <time>2009-01-05T10:19:31Z</time>
      </trkpt>
      <trkpt lat="27.86559000" lon="-15.6670280">
        <ele>212.34800</ele>
        <time>2009-01-05T10:19:32Z</time>
      </trkpt>
      <trkpt lat="27.86560900" lon="-15.6670550">
        <ele>212.72000</ele>
        <time>2009-01-05T10:19:33Z</time>
      </trkpt>
      <trkpt lat="27.86562700" lon="-15.6670810">
        <ele>212.89300</ele>
        <time>2009-01-05T10:19:34Z</time>
      </trkpt>
      <trkpt lat="27.86564300" lon="-15.6671080">
        <ele>213.31800</ele>
        <time>2009-01-05T10:19:35Z</time>
      </trkpt>
      <trkpt lat="27.86565900" lon="-15.6671350">
        <ele>213.72900</ele>
        <time>2009-01-05T10:19:36Z</time>
      </trkpt>
      <trkpt lat="27.86567300" lon="-15.6671620">
        <ele>213.75500</ele>
        <time>2009-01-05T10:19:37Z</time>
      </trkpt>
      <trkpt lat="27.86568800" lon="-15.6671890">
        <ele>214.13700</ele>
        <time>2009-01-05T10:19:38Z</time>
      </trkpt>
      <trkpt lat="27.86570100" lon="-15.6672160">
        <ele>214.33900</ele>
        <time>2009-01-05T10:19:39Z</time>
      </trkpt>
      <trkpt lat="27.86571300" lon="-15.6672430">
        <ele>214.51500</ele>
        <time>2009-01-05T10:19:40Z</time>
      </trkpt>
      <trkpt lat="27.86572400" lon="-15.6672720">
        <ele>214.91300</ele>
        <time>2009-01-05T10:19:41Z</time>
      </trkpt>
      <trkpt lat="27.86573300" lon="-15.6673030">
        <ele>215.26800</ele>
        <time>2009-01-05T10:19:42Z</time>
      </trkpt>
      <trkpt lat="27.86574200" lon="-15.6673350">
        <ele>215.19000</ele>
        <time>2009-01-05T10:19:43Z</time>
      </trkpt>
      <trkpt lat="27.86575100" lon="-15.6673670">
        <ele>215.83600</ele>
        <time>2009-01-05T10:19:44Z</time>
      </trkpt>
      <trkpt lat="27.86576300" lon="-15.6673980">
        <ele>215.96400</ele>
        <time>2009-01-05T10:19:45Z</time>
      </trkpt>
      <trkpt lat="27.86577600" lon="-15.6674300">
        <ele>216.10700</ele>
        <time>2009-01-05T10:19:46Z</time>
      </trkpt>
      <trkpt lat="27.86579100" lon="-15.6674620">
        <ele>216.13700</ele>
        <time>2009-01-05T10:19:47Z</time>
      </trkpt>
      <trkpt lat="27.86580500" lon="-15.6674940">
        <ele>216.44500</ele>
        <time>2009-01-05T10:19:48Z</time>
      </trkpt>
      <trkpt lat="27.86582200" lon="-15.6675250">
        <ele>216.70200</ele>
        <time>2009-01-05T10:19:49Z</time>
      </trkpt>
      <trkpt lat="27.86584100" lon="-15.6675580">
        <ele>217.02300</ele>
        <time>2009-01-05T10:19:50Z</time>
      </trkpt>
      <trkpt lat="27.86586200" lon="-15.6675900">
        <ele>217.26400</ele>
        <time>2009-01-05T10:19:51Z</time>
      </trkpt>
      <trkpt lat="27.86588600" lon="-15.6676230">
        <ele>217.25600</ele>
        <time>2009-01-05T10:19:52Z</time>
      </trkpt>
      <trkpt lat="27.86591100" lon="-15.6676560">
        <ele>217.34400</ele>
        <time>2009-01-05T10:19:53Z</time>
      </trkpt>
      <trkpt lat="27.86593700" lon="-15.6676900">
        <ele>217.26000</ele>
        <time>2009-01-05T10:19:54Z</time>
      </trkpt>
      <trkpt lat="27.86596300" lon="-15.6677250">
        <ele>217.38700</ele>
        <time>2009-01-05T10:19:55Z</time>
      </trkpt>
      <trkpt lat="27.86599000" lon="-15.6677600">
        <ele>217.50900</ele>
        <time>2009-01-05T10:19:56Z</time>
      </trkpt>
      <trkpt lat="27.86601800" lon="-15.6677960">
        <ele>217.58900</ele>
        <time>2009-01-05T10:19:57Z</time>
      </trkpt>
      <trkpt lat="27.86605100" lon="-15.6678310">
        <ele>217.86700</ele>
        <time>2009-01-05T10:19:58Z</time>
      </trkpt>
      <trkpt lat="27.86608800" lon="-15.6678630">
        <ele>218.18700</ele>
        <time>2009-01-05T10:19:59Z</time>
      </trkpt>
      <trkpt lat="27.86612900" lon="-15.6678900">
        <ele>218.17400</ele>
        <time>2009-01-05T10:20:00Z</time>
      </trkpt>
      <trkpt lat="27.86617200" lon="-15.6679170">
        <ele>218.04700</ele>
        <time>2009-01-05T10:20:01Z</time>
      </trkpt>
      <trkpt lat="27.86621700" lon="-15.6679370">
        <ele>218.00500</ele>
        <time>2009-01-05T10:20:02Z</time>
      </trkpt>
      <trkpt lat="27.86626400" lon="-15.6679570">
        <ele>218.12700</ele>
        <time>2009-01-05T10:20:03Z</time>
      </trkpt>
      <trkpt lat="27.86630900" lon="-15.6679780">
        <ele>218.25700</ele>
        <time>2009-01-05T10:20:04Z</time>
      </trkpt>
      <trkpt lat="27.86635500" lon="-15.6679980">
        <ele>218.42800</ele>
        <time>2009-01-05T10:20:05Z</time>
      </trkpt>
      <trkpt lat="27.86640200" lon="-15.6680160">
        <ele>218.37100</ele>
        <time>2009-01-05T10:20:06Z</time>
      </trkpt>
      <trkpt lat="27.86644700" lon="-15.6680420">
        <ele>218.52600</ele>
        <time>2009-01-05T10:20:07Z</time>
      </trkpt>
      <trkpt lat="27.86649000" lon="-15.6680770">
        <ele>218.55900</ele>
        <time>2009-01-05T10:20:08Z</time>
      </trkpt>
      <trkpt lat="27.86653000" lon="-15.6681200">
        <ele>218.03400</ele>
        <time>2009-01-05T10:20:09Z</time>
      </trkpt>
      <trkpt lat="27.86656900" lon="-15.6681680">
        <ele>218.25000</ele>
        <time>2009-01-05T10:20:10Z</time>
      </trkpt>
      <trkpt lat="27.86660800" lon="-15.6682200">
        <ele>218.14300</ele>
        <time>2009-01-05T10:20:11Z</time>
      </trkpt>
      <trkpt lat="27.86664700" lon="-15.6682770">
        <ele>218.02600</ele>
        <time>2009-01-05T10:20:12Z</time>
      </trkpt>
      <trkpt lat="27.86668300" lon="-15.6683360">
        <ele>217.88400</ele>
        <time>2009-01-05T10:20:13Z</time>
      </trkpt>
      <trkpt lat="27.86671600" lon="-15.6683970">
        <ele>217.81700</ele>
        <time>2009-01-05T10:20:14Z</time>
      </trkpt>
      <trkpt lat="27.86674600" lon="-15.6684590">
        <ele>218.12800</ele>
        <time>2009-01-05T10:20:15Z</time>
      </trkpt>
      <trkpt lat="27.86677200" lon="-15.6685210">
        <ele>218.14000</ele>
        <time>2009-01-05T10:20:16Z</time>
      </trkpt>
      <trkpt lat="27.86679600" lon="-15.6685830">
        <ele>218.19600</ele>
        <time>2009-01-05T10:20:17Z</time>
      </trkpt>
      <trkpt lat="27.86681900" lon="-15.6686430">
        <ele>218.09700</ele>
        <time>2009-01-05T10:20:18Z</time>
      </trkpt>
      <trkpt lat="27.86683900" lon="-15.6687020">
        <ele>218.64000</ele>
        <time>2009-01-05T10:20:19Z</time>
      </trkpt>
      <trkpt lat="27.86685600" lon="-15.6687600">
        <ele>218.69400</ele>
        <time>2009-01-05T10:20:20Z</time>
      </trkpt>
      <trkpt lat="27.86687000" lon="-15.6688160">
        <ele>219.02800</ele>
        <time>2009-01-05T10:20:21Z</time>
      </trkpt>
      <trkpt lat="27.86688300" lon="-15.6688730">
        <ele>218.73800</ele>
        <time>2009-01-05T10:20:22Z</time>
      </trkpt>
      <trkpt lat="27.86689600" lon="-15.6689300">
        <ele>219.17200</ele>
        <time>2009-01-05T10:20:23Z</time>
      </trkpt>
      <trkpt lat="27.86690800" lon="-15.6689880">
        <ele>218.95100</ele>
        <time>2009-01-05T10:20:24Z</time>
      </trkpt>
      <trkpt lat="27.86691900" lon="-15.6690490">
        <ele>218.96800</ele>
        <time>2009-01-05T10:20:25Z</time>
      </trkpt>
      <trkpt lat="27.86693000" lon="-15.6691100">
        <ele>219.20100</ele>
        <time>2009-01-05T10:20:26Z</time>
      </trkpt>
      <trkpt lat="27.86694300" lon="-15.6691720">
        <ele>219.13600</ele>
        <time>2009-01-05T10:20:27Z</time>
      </trkpt>
      <trkpt lat="27.86695900" lon="-15.6692340">
        <ele>219.02800</ele>
        <time>2009-01-05T10:20:28Z</time>
      </trkpt>
      <trkpt lat="27.86697600" lon="-15.6692960">
        <ele>219.21300</ele>
        <time>2009-01-05T10:20:29Z</time>
      </trkpt>
      <trkpt lat="27.86699200" lon="-15.6693570">
        <ele>219.39400</ele>
        <time>2009-01-05T10:20:30Z</time>
      </trkpt>
      <trkpt lat="27.86700800" lon="-15.6694190">
        <ele>219.17000</ele>
        <time>2009-01-05T10:20:31Z</time>
      </trkpt>
      <trkpt lat="27.86702300" lon="-15.6694810">
        <ele>219.25200</ele>
        <time>2009-01-05T10:20:32Z</time>
      </trkpt>
      <trkpt lat="27.86703800" lon="-15.6695430">
        <ele>219.55700</ele>
        <time>2009-01-05T10:20:33Z</time>
      </trkpt>
      <trkpt lat="27.86705000" lon="-15.6696050">
        <ele>219.81700</ele>
        <time>2009-01-05T10:20:34Z</time>
      </trkpt>
      <trkpt lat="27.86706100" lon="-15.6696680">
        <ele>219.78100</ele>
        <time>2009-01-05T10:20:35Z</time>
      </trkpt>
      <trkpt lat="27.86707200" lon="-15.6697290">
        <ele>219.80000</ele>
        <time>2009-01-05T10:20:36Z</time>
      </trkpt>
      <trkpt lat="27.86708300" lon="-15.6697900">
        <ele>220.13400</ele>
        <time>2009-01-05T10:20:37Z</time>
      </trkpt>
      <trkpt lat="27.86709600" lon="-15.6698510">
        <ele>219.94700</ele>
        <time>2009-01-05T10:20:38Z</time>
      </trkpt>
      <trkpt lat="27.86711300" lon="-15.6699130">
        <ele>219.96100</ele>
        <time>2009-01-05T10:20:39Z</time>
      </trkpt>
      <trkpt lat="27.86713200" lon="-15.6699740">
        <ele>220.01300</ele>
        <time>2009-01-05T10:20:40Z</time>
      </trkpt>
      <trkpt lat="27.86715200" lon="-15.6700360">
        <ele>220.15600</ele>
        <time>2009-01-05T10:20:41Z</time>
      </trkpt>
      <trkpt lat="27.86717800" lon="-15.6700980">
        <ele>219.88800</ele>
        <time>2009-01-05T10:20:42Z</time>
      </trkpt>
      <trkpt lat="27.86721000" lon="-15.6701630">
        <ele>219.34800</ele>
        <time>2009-01-05T10:20:43Z</time>
      </trkpt>
      <trkpt lat="27.86726000" lon="-15.6702240">
        <ele>218.69400</ele>
        <time>2009-01-05T10:20:44Z</time>
      </trkpt>
      <trkpt lat="27.86731600" lon="-15.6702870">
        <ele>218.33400</ele>
        <time>2009-01-05T10:20:45Z</time>
      </trkpt>
      <trkpt lat="27.86737400" lon="-15.6703530">
        <ele>217.69100</ele>
        <time>2009-01-05T10:20:46Z</time>
      </trkpt>
      <trkpt lat="27.86743200" lon="-15.6704180">
        <ele>217.19700</ele>
        <time>2009-01-05T10:20:47Z</time>
      </trkpt>
      <trkpt lat="27.86748700" lon="-15.6704850">
        <ele>217.24400</ele>
        <time>2009-01-05T10:20:48Z</time>
      </trkpt>
      <trkpt lat="27.86754900" lon="-15.6705460">
        <ele>217.25300</ele>
        <time>2009-01-05T10:20:49Z</time>
      </trkpt>
      <trkpt lat="27.86760800" lon="-15.6706050">
        <ele>217.47500</ele>
        <time>2009-01-05T10:20:50Z</time>
      </trkpt>
      <trkpt lat="27.86767100" lon="-15.6706610">
        <ele>217.25300</ele>
        <time>2009-01-05T10:20:51Z</time>
      </trkpt>
      <trkpt lat="27.86772400" lon="-15.6707170">
        <ele>217.35000</ele>
        <time>2009-01-05T10:20:52Z</time>
      </trkpt>
      <trkpt lat="27.86777700" lon="-15.6707700">
        <ele>217.18800</ele>
        <time>2009-01-05T10:20:53Z</time>
      </trkpt>
      <trkpt lat="27.86783100" lon="-15.6708130">
        <ele>217.42500</ele>
        <time>2009-01-05T10:20:54Z</time>
      </trkpt>
      <trkpt lat="27.86788900" lon="-15.6708450">
        <ele>217.07800</ele>
        <time>2009-01-05T10:20:55Z</time>
      </trkpt>
      <trkpt lat="27.86794700" lon="-15.6708640">
        <ele>217.02900</ele>
        <time>2009-01-05T10:20:56Z</time>
      </trkpt>
      <trkpt lat="27.86800800" lon="-15.6708720">
        <ele>216.71700</ele>
        <time>2009-01-05T10:20:57Z</time>
      </trkpt>
      <trkpt lat="27.86807000" lon="-15.6708730">
        <ele>217.27600</ele>
        <time>2009-01-05T10:20:58Z</time>
      </trkpt>
      <trkpt lat="27.86813400" lon="-15.6708720">
        <ele>217.19000</ele>
        <time>2009-01-05T10:20:59Z</time>
      </trkpt>
      <trkpt lat="27.86819700" lon="-15.6708690">
        <ele>217.27600</ele>
        <time>2009-01-05T10:21:00Z</time>
      </trkpt>
      <trkpt lat="27.86825900" lon="-15.6708630">
        <ele>217.29000</ele>
        <time>2009-01-05T10:21:01Z</time>
      </trkpt>
      <trkpt lat="27.86831900" lon="-15.6708500">
        <ele>217.31200</ele>
        <time>2009-01-05T10:21:02Z</time>
      </trkpt>
      <trkpt lat="27.86837700" lon="-15.6708290">
        <ele>217.51400</ele>
        <time>2009-01-05T10:21:03Z</time>
      </trkpt>
      <trkpt lat="27.86843100" lon="-15.6708020">
        <ele>217.62800</ele>
        <time>2009-01-05T10:21:04Z</time>
      </trkpt>
      <trkpt lat="27.86848500" lon="-15.6707740">
        <ele>217.54200</ele>
        <time>2009-01-05T10:21:05Z</time>
      </trkpt>
      <trkpt lat="27.86853600" lon="-15.6707500">
        <ele>217.83600</ele>
        <time>2009-01-05T10:21:06Z</time>
      </trkpt>
      <trkpt lat="27.86858900" lon="-15.6707300">
        <ele>217.90300</ele>
        <time>2009-01-05T10:21:07Z</time>
      </trkpt>
      <trkpt lat="27.86864300" lon="-15.6707140">
        <ele>217.82200</ele>
        <time>2009-01-05T10:21:08Z</time>
      </trkpt>
      <trkpt lat="27.86869700" lon="-15.6707010">
        <ele>217.94500</ele>
        <time>2009-01-05T10:21:09Z</time>
      </trkpt>
      <trkpt lat="27.86875200" lon="-15.6706920">
        <ele>218.17400</ele>
        <time>2009-01-05T10:21:10Z</time>
      </trkpt>
      <trkpt lat="27.86880700" lon="-15.6706840">
        <ele>218.35700</ele>
        <time>2009-01-05T10:21:11Z</time>
      </trkpt>
      <trkpt lat="27.86886100" lon="-15.6706770">
        <ele>218.49600</ele>
        <time>2009-01-05T10:21:12Z</time>
      </trkpt>
      <trkpt lat="27.86891500" lon="-15.6706710">
        <ele>218.36800</ele>
        <time>2009-01-05T10:21:13Z</time>
      </trkpt>
      <trkpt lat="27.86896700" lon="-15.6706680">
        <ele>218.74000</ele>
        <time>2009-01-05T10:21:14Z</time>
      </trkpt>
      <trkpt lat="27.86901800" lon="-15.6706660">
        <ele>218.83600</ele>
        <time>2009-01-05T10:21:15Z</time>
      </trkpt>
      <trkpt lat="27.86906800" lon="-15.6706640">
        <ele>219.05200</ele>
        <time>2009-01-05T10:21:16Z</time>
      </trkpt>
      <trkpt lat="27.86911600" lon="-15.6706610">
        <ele>219.21000</ele>
        <time>2009-01-05T10:21:17Z</time>
      </trkpt>
      <trkpt lat="27.86916300" lon="-15.6706570">
        <ele>219.39100</ele>
        <time>2009-01-05T10:21:18Z</time>
      </trkpt>
      <trkpt lat="27.86920900" lon="-15.6706530">
        <ele>219.52300</ele>
        <time>2009-01-05T10:21:19Z</time>
      </trkpt>
      <trkpt lat="27.86925500" lon="-15.6706520">
        <ele>219.98200</ele>
        <time>2009-01-05T10:21:20Z</time>
      </trkpt>
      <trkpt lat="27.86929800" lon="-15.6706500">
        <ele>220.04200</ele>
        <time>2009-01-05T10:21:21Z</time>
      </trkpt>
      <trkpt lat="27.86934000" lon="-15.6706480">
        <ele>220.54300</ele>
        <time>2009-01-05T10:21:22Z</time>
      </trkpt>
      <trkpt lat="27.86938400" lon="-15.6706440">
        <ele>220.66400</ele>
        <time>2009-01-05T10:21:23Z</time>
      </trkpt>
      <trkpt lat="27.86942700" lon="-15.6706410">
        <ele>220.93100</ele>
        <time>2009-01-05T10:21:24Z</time>
      </trkpt>
      <trkpt lat="27.86947200" lon="-15.6706380">
        <ele>221.10200</ele>
        <time>2009-01-05T10:21:25Z</time>
      </trkpt>
      <trkpt lat="27.86951400" lon="-15.6706350">
        <ele>221.15700</ele>
        <time>2009-01-05T10:21:26Z</time>
      </trkpt>
      <trkpt lat="27.86955500" lon="-15.6706330">
        <ele>221.41600</ele>
        <time>2009-01-05T10:21:27Z</time>
      </trkpt>
      <trkpt lat="27.86959600" lon="-15.6706320">
        <ele>221.81700</ele>
        <time>2009-01-05T10:21:28Z</time>
      </trkpt>
      <trkpt lat="27.86963500" lon="-15.6706340">
        <ele>222.06000</ele>
        <time>2009-01-05T10:21:29Z</time>
      </trkpt>
      <trkpt lat="27.86967500" lon="-15.6706380">
        <ele>222.21600</ele>
        <time>2009-01-05T10:21:30Z</time>
      </trkpt>
      <trkpt lat="27.86971400" lon="-15.6706450">
        <ele>222.43200</ele>
        <time>2009-01-05T10:21:31Z</time>
      </trkpt>
      <trkpt lat="27.86975500" lon="-15.6706520">
        <ele>222.59300</ele>
        <time>2009-01-05T10:21:32Z</time>
      </trkpt>
      <trkpt lat="27.86979500" lon="-15.6706600">
        <ele>222.81200</ele>
        <time>2009-01-05T10:21:33Z</time>
      </trkpt>
      <trkpt lat="27.86983500" lon="-15.6706710">
        <ele>222.91500</ele>
        <time>2009-01-05T10:21:34Z</time>
      </trkpt>
      <trkpt lat="27.86987500" lon="-15.6706840">
        <ele>223.03100</ele>
        <time>2009-01-05T10:21:35Z</time>
      </trkpt>
      <trkpt lat="27.86991800" lon="-15.6706960">
        <ele>223.10500</ele>
        <time>2009-01-05T10:21:36Z</time>
      </trkpt>
      <trkpt lat="27.86996000" lon="-15.6707120">
        <ele>223.22900</ele>
        <time>2009-01-05T10:21:37Z</time>
      </trkpt>
      <trkpt lat="27.87000200" lon="-15.6707300">
        <ele>223.39000</ele>
        <time>2009-01-05T10:21:38Z</time>
      </trkpt>
      <trkpt lat="27.87004400" lon="-15.6707510">
        <ele>223.24800</ele>
        <time>2009-01-05T10:21:39Z</time>
      </trkpt>
      <trkpt lat="27.87008600" lon="-15.6707700">
        <ele>223.44600</ele>
        <time>2009-01-05T10:21:40Z</time>
      </trkpt>
      <trkpt lat="27.87012900" lon="-15.6707900">
        <ele>223.50900</ele>
        <time>2009-01-05T10:21:41Z</time>
      </trkpt>
      <trkpt lat="27.87017100" lon="-15.6708090">
        <ele>223.80800</ele>
        <time>2009-01-05T10:21:42Z</time>
      </trkpt>
      <trkpt lat="27.87021500" lon="-15.6708300">
        <ele>223.84300</ele>
        <time>2009-01-05T10:21:43Z</time>
      </trkpt>
      <trkpt lat="27.87025900" lon="-15.6708510">
        <ele>223.51200</ele>
        <time>2009-01-05T10:21:44Z</time>
      </trkpt>
      <trkpt lat="27.87030200" lon="-15.6708720">
        <ele>223.67600</ele>
        <time>2009-01-05T10:21:45Z</time>
      </trkpt>
      <trkpt lat="27.87034500" lon="-15.6708940">
        <ele>223.77700</ele>
        <time>2009-01-05T10:21:46Z</time>
      </trkpt>
      <trkpt lat="27.87039000" lon="-15.6709160">
        <ele>223.95600</ele>
        <time>2009-01-05T10:21:47Z</time>
      </trkpt>
      <trkpt lat="27.87043400" lon="-15.6709370">
        <ele>223.86100</ele>
        <time>2009-01-05T10:21:48Z</time>
      </trkpt>
      <trkpt lat="27.87047800" lon="-15.6709600">
        <ele>223.80000</ele>
        <time>2009-01-05T10:21:49Z</time>
      </trkpt>
      <trkpt lat="27.87052200" lon="-15.6709850">
        <ele>224.04300</ele>
        <time>2009-01-05T10:21:50Z</time>
      </trkpt>
      <trkpt lat="27.87056700" lon="-15.6710090">
        <ele>224.13300</ele>
        <time>2009-01-05T10:21:51Z</time>
      </trkpt>
      <trkpt lat="27.87061100" lon="-15.6710340">
        <ele>224.08600</ele>
        <time>2009-01-05T10:21:52Z</time>
      </trkpt>
      <trkpt lat="27.87065400" lon="-15.6710580">
        <ele>224.15400</ele>
        <time>2009-01-05T10:21:53Z</time>
      </trkpt>
      <trkpt lat="27.87069600" lon="-15.6710830">
        <ele>224.28900</ele>
        <time>2009-01-05T10:21:54Z</time>
      </trkpt>
      <trkpt lat="27.87073900" lon="-15.6711030">
        <ele>224.30800</ele>
        <time>2009-01-05T10:21:55Z</time>
      </trkpt>
      <trkpt lat="27.87077800" lon="-15.6711270">
        <ele>224.56500</ele>
        <time>2009-01-05T10:21:56Z</time>
      </trkpt>
      <trkpt lat="27.87081800" lon="-15.6711480">
        <ele>224.92500</ele>
        <time>2009-01-05T10:21:57Z</time>
      </trkpt>
      <trkpt lat="27.87085500" lon="-15.6711670">
        <ele>225.09500</ele>
        <time>2009-01-05T10:21:58Z</time>
      </trkpt>
      <trkpt lat="27.87089300" lon="-15.6711830">
        <ele>225.26300</ele>
        <time>2009-01-05T10:21:59Z</time>
      </trkpt>
      <trkpt lat="27.87093000" lon="-15.6712020">
        <ele>225.32600</ele>
        <time>2009-01-05T10:22:00Z</time>
      </trkpt>
      <trkpt lat="27.87096700" lon="-15.6712200">
        <ele>225.79700</ele>
        <time>2009-01-05T10:22:01Z</time>
      </trkpt>
      <trkpt lat="27.87100200" lon="-15.6712410">
        <ele>226.03700</ele>
        <time>2009-01-05T10:22:02Z</time>
      </trkpt>
      <trkpt lat="27.87103900" lon="-15.6712600">
        <ele>226.21800</ele>
        <time>2009-01-05T10:22:03Z</time>
      </trkpt>
      <trkpt lat="27.87107800" lon="-15.6712800">
        <ele>226.25800</ele>
        <time>2009-01-05T10:22:04Z</time>
      </trkpt>
      <trkpt lat="27.87111900" lon="-15.6713020">
        <ele>226.36500</ele>
        <time>2009-01-05T10:22:05Z</time>
      </trkpt>
      <trkpt lat="27.87116000" lon="-15.6713240">
        <ele>226.63300</ele>
        <time>2009-01-05T10:22:06Z</time>
      </trkpt>
      <trkpt lat="27.87120300" lon="-15.6713430">
        <ele>226.62300</ele>
        <time>2009-01-05T10:22:07Z</time>
      </trkpt>
      <trkpt lat="27.87124400" lon="-15.6713640">
        <ele>226.61500</ele>
        <time>2009-01-05T10:22:08Z</time>
      </trkpt>
      <trkpt lat="27.87128600" lon="-15.6713890">
        <ele>226.77400</ele>
        <time>2009-01-05T10:22:09Z</time>
      </trkpt>
      <trkpt lat="27.87132700" lon="-15.6714130">
        <ele>226.90400</ele>
        <time>2009-01-05T10:22:10Z</time>
      </trkpt>
      <trkpt lat="27.87137000" lon="-15.6714380">
        <ele>226.74800</ele>
        <time>2009-01-05T10:22:11Z</time>
      </trkpt>
      <trkpt lat="27.87141500" lon="-15.6714620">
        <ele>226.77200</ele>
        <time>2009-01-05T10:22:12Z</time>
      </trkpt>
      <trkpt lat="27.87145600" lon="-15.6714830">
        <ele>227.07700</ele>
        <time>2009-01-05T10:22:13Z</time>
      </trkpt>
      <trkpt lat="27.87149900" lon="-15.6715030">
        <ele>227.14800</ele>
        <time>2009-01-05T10:22:14Z</time>
      </trkpt>
      <trkpt lat="27.87153800" lon="-15.6715190">
        <ele>227.10600</ele>
        <time>2009-01-05T10:22:15Z</time>
      </trkpt>
      <trkpt lat="27.87157800" lon="-15.6715330">
        <ele>227.47600</ele>
        <time>2009-01-05T10:22:16Z</time>
      </trkpt>
      <trkpt lat="27.87161700" lon="-15.6715450">
        <ele>228.02100</ele>
        <time>2009-01-05T10:22:17Z</time>
      </trkpt>
      <trkpt lat="27.87165400" lon="-15.6715570">
        <ele>228.12700</ele>
        <time>2009-01-05T10:22:18Z</time>
      </trkpt>
      <trkpt lat="27.87169000" lon="-15.6715650">
        <ele>228.42500</ele>
        <time>2009-01-05T10:22:19Z</time>
      </trkpt>
      <trkpt lat="27.87172500" lon="-15.6715690">
        <ele>228.53600</ele>
        <time>2009-01-05T10:22:20Z</time>
      </trkpt>
      <trkpt lat="27.87175900" lon="-15.6715770">
        <ele>228.96200</ele>
        <time>2009-01-05T10:22:21Z</time>
      </trkpt>
      <trkpt lat="27.87179500" lon="-15.6715840">
        <ele>229.44300</ele>
        <time>2009-01-05T10:22:22Z</time>
      </trkpt>
      <trkpt lat="27.87182900" lon="-15.6715900">
        <ele>229.85000</ele>
        <time>2009-01-05T10:22:23Z</time>
      </trkpt>
      <trkpt lat="27.87186100" lon="-15.6715960">
        <ele>230.02000</ele>
        <time>2009-01-05T10:22:24Z</time>
      </trkpt>
      <trkpt lat="27.87189300" lon="-15.6716020">
        <ele>230.34300</ele>
        <time>2009-01-05T10:22:25Z</time>
      </trkpt>
      <trkpt lat="27.87192500" lon="-15.6716070">
        <ele>230.54400</ele>
        <time>2009-01-05T10:22:26Z</time>
      </trkpt>
      <trkpt lat="27.87195600" lon="-15.6716100">
        <ele>231.03900</ele>
        <time>2009-01-05T10:22:27Z</time>
      </trkpt>
      <trkpt lat="27.87198600" lon="-15.6716140">
        <ele>231.30100</ele>
        <time>2009-01-05T10:22:28Z</time>
      </trkpt>
      <trkpt lat="27.87201600" lon="-15.6716170">
        <ele>231.78300</ele>
        <time>2009-01-05T10:22:29Z</time>
      </trkpt>
      <trkpt lat="27.87204500" lon="-15.6716210">
        <ele>231.70000</ele>
        <time>2009-01-05T10:22:30Z</time>
      </trkpt>
      <trkpt lat="27.87207500" lon="-15.6716230">
        <ele>232.07100</ele>
        <time>2009-01-05T10:22:31Z</time>
      </trkpt>
      <trkpt lat="27.87210500" lon="-15.6716250">
        <ele>232.00100</ele>
        <time>2009-01-05T10:22:32Z</time>
      </trkpt>
      <trkpt lat="27.87213400" lon="-15.6716270">
        <ele>232.48300</ele>
        <time>2009-01-05T10:22:33Z</time>
      </trkpt>
      <trkpt lat="27.87216400" lon="-15.6716280">
        <ele>232.71700</ele>
        <time>2009-01-05T10:22:34Z</time>
      </trkpt>
      <trkpt lat="27.87219300" lon="-15.6716280">
        <ele>232.98800</ele>
        <time>2009-01-05T10:22:35Z</time>
      </trkpt>
      <trkpt lat="27.87222200" lon="-15.6716260">
        <ele>233.13200</ele>
        <time>2009-01-05T10:22:36Z</time>
      </trkpt>
      <trkpt lat="27.87225300" lon="-15.6716220">
        <ele>233.41800</ele>
        <time>2009-01-05T10:22:37Z</time>
      </trkpt>
      <trkpt lat="27.87228100" lon="-15.6716210">
        <ele>233.60700</ele>
        <time>2009-01-05T10:22:38Z</time>
      </trkpt>
      <trkpt lat="27.87230800" lon="-15.6716190">
        <ele>233.72800</ele>
        <time>2009-01-05T10:22:39Z</time>
      </trkpt>
      <trkpt lat="27.87233600" lon="-15.6716170">
        <ele>233.93000</ele>
        <time>2009-01-05T10:22:40Z</time>
      </trkpt>
      <trkpt lat="27.87236300" lon="-15.6716140">
        <ele>234.29900</ele>
        <time>2009-01-05T10:22:41Z</time>
      </trkpt>
      <trkpt lat="27.87239100" lon="-15.6716120">
        <ele>234.47800</ele>
        <time>2009-01-05T10:22:42Z</time>
      </trkpt>
      <trkpt lat="27.87241900" lon="-15.6716090">
        <ele>234.96900</ele>
        <time>2009-01-05T10:22:43Z</time>
      </trkpt>
      <trkpt lat="27.87244800" lon="-15.6716050">
        <ele>234.86800</ele>
        <time>2009-01-05T10:22:44Z</time>
      </trkpt>
      <trkpt lat="27.87247700" lon="-15.6715980">
        <ele>235.07800</ele>
        <time>2009-01-05T10:22:45Z</time>
      </trkpt>
      <trkpt lat="27.87250600" lon="-15.6715940">
        <ele>235.78300</ele>
        <time>2009-01-05T10:22:46Z</time>
      </trkpt>
      <trkpt lat="27.87253600" lon="-15.6715900">
        <ele>235.76900</ele>
        <time>2009-01-05T10:22:47Z</time>
      </trkpt>
      <trkpt lat="27.87256600" lon="-15.6715880">
        <ele>235.77800</ele>
        <time>2009-01-05T10:22:48Z</time>
      </trkpt>
      <trkpt lat="27.87259400" lon="-15.6715860">
        <ele>236.17900</ele>
        <time>2009-01-05T10:22:49Z</time>
      </trkpt>
      <trkpt lat="27.87262400" lon="-15.6715830">
        <ele>236.38700</ele>
        <time>2009-01-05T10:22:50Z</time>
      </trkpt>
      <trkpt lat="27.87265200" lon="-15.6715820">
        <ele>236.34000</ele>
        <time>2009-01-05T10:22:51Z</time>
      </trkpt>
      <trkpt lat="27.87268200" lon="-15.6715800">
        <ele>236.89900</ele>
        <time>2009-01-05T10:22:52Z</time>
      </trkpt>
      <trkpt lat="27.87271100" lon="-15.6715790">
        <ele>236.81100</ele>
        <time>2009-01-05T10:22:53Z</time>
      </trkpt>
      <trkpt lat="27.87274300" lon="-15.6715660">
        <ele>237.18700</ele>
        <time>2009-01-05T10:22:54Z</time>
      </trkpt>
      <trkpt lat="27.87277300" lon="-15.6715570">
        <ele>237.42900</ele>
        <time>2009-01-05T10:22:55Z</time>
      </trkpt>
      <trkpt lat="27.87280300" lon="-15.6715510">
        <ele>237.68700</ele>
        <time>2009-01-05T10:22:56Z</time>
      </trkpt>
      <trkpt lat="27.87283100" lon="-15.6715460">
        <ele>237.96000</ele>
        <time>2009-01-05T10:22:57Z</time>
      </trkpt>
      <trkpt lat="27.87286000" lon="-15.6715410">
        <ele>238.23500</ele>
        <time>2009-01-05T10:22:58Z</time>
      </trkpt>
      <trkpt lat="27.87289000" lon="-15.6715390">
        <ele>238.28600</ele>
        <time>2009-01-05T10:22:59Z</time>
      </trkpt>
      <trkpt lat="27.87291900" lon="-15.6715410">
        <ele>238.64300</ele>
        <time>2009-01-05T10:23:00Z</time>
      </trkpt>
      <trkpt lat="27.87294700" lon="-15.6715420">
        <ele>238.93200</ele>
        <time>2009-01-05T10:23:01Z</time>
      </trkpt>
      <trkpt lat="27.87297500" lon="-15.6715410">
        <ele>239.13100</ele>
        <time>2009-01-05T10:23:02Z</time>
      </trkpt>
      <trkpt lat="27.87300300" lon="-15.6715370">
        <ele>239.37000</ele>
        <time>2009-01-05T10:23:03Z</time>
      </trkpt>
      <trkpt lat="27.87303100" lon="-15.6715310">
        <ele>239.51100</ele>
        <time>2009-01-05T10:23:04Z</time>
      </trkpt>
      <trkpt lat="27.87305900" lon="-15.6715260">
        <ele>239.92900</ele>
        <time>2009-01-05T10:23:05Z</time>
      </trkpt>
      <trkpt lat="27.87308500" lon="-15.6715220">
        <ele>239.81900</ele>
        <time>2009-01-05T10:23:06Z</time>
      </trkpt>
      <trkpt lat="27.87310900" lon="-15.6715200">
        <ele>240.38300</ele>
        <time>2009-01-05T10:23:07Z</time>
      </trkpt>
      <trkpt lat="27.87313400" lon="-15.6715180">
        <ele>240.76700</ele>
        <time>2009-01-05T10:23:08Z</time>
      </trkpt>
      <trkpt lat="27.87316100" lon="-15.6715150">
        <ele>241.04800</ele>
        <time>2009-01-05T10:23:09Z</time>
      </trkpt>
      <trkpt lat="27.87318800" lon="-15.6715140">
        <ele>241.43900</ele>
        <time>2009-01-05T10:23:10Z</time>
      </trkpt>
      <trkpt lat="27.87321300" lon="-15.6715120">
        <ele>241.70100</ele>
        <time>2009-01-05T10:23:11Z</time>
      </trkpt>
      <trkpt lat="27.87323600" lon="-15.6715090">
        <ele>241.80200</ele>
        <time>2009-01-05T10:23:12Z</time>
      </trkpt>
      <trkpt lat="27.87326100" lon="-15.6715040">
        <ele>242.31700</ele>
        <time>2009-01-05T10:23:13Z</time>
      </trkpt>
      <trkpt lat="27.87328700" lon="-15.6714990">
        <ele>242.58700</ele>
        <time>2009-01-05T10:23:14Z</time>
      </trkpt>
      <trkpt lat="27.87331500" lon="-15.6714960">
        <ele>242.40200</ele>
        <time>2009-01-05T10:23:15Z</time>
      </trkpt>
      <trkpt lat="27.87334400" lon="-15.6714930">
        <ele>242.40300</ele>
        <time>2009-01-05T10:23:16Z</time>
      </trkpt>
      <trkpt lat="27.87337300" lon="-15.6714880">
        <ele>242.92600</ele>
        <time>2009-01-05T10:23:17Z</time>
      </trkpt>
      <trkpt lat="27.87340200" lon="-15.6714830">
        <ele>242.95000</ele>
        <time>2009-01-05T10:23:18Z</time>
      </trkpt>
      <trkpt lat="27.87343200" lon="-15.6714760">
        <ele>243.23100</ele>
        <time>2009-01-05T10:23:19Z</time>
      </trkpt>
      <trkpt lat="27.87346100" lon="-15.6714700">
        <ele>243.19600</ele>
        <time>2009-01-05T10:23:20Z</time>
      </trkpt>
      <trkpt lat="27.87348900" lon="-15.6714640">
        <ele>243.68500</ele>
        <time>2009-01-05T10:23:21Z</time>
      </trkpt>
      <trkpt lat="27.87351800" lon="-15.6714580">
        <ele>243.74600</ele>
        <time>2009-01-05T10:23:22Z</time>
      </trkpt>
      <trkpt lat="27.87354700" lon="-15.6714530">
        <ele>244.01300</ele>
        <time>2009-01-05T10:23:23Z</time>
      </trkpt>
      <trkpt lat="27.87357700" lon="-15.6714480">
        <ele>244.05900</ele>
        <time>2009-01-05T10:23:24Z</time>
      </trkpt>
      <trkpt lat="27.87360600" lon="-15.6714420">
        <ele>244.30500</ele>
        <time>2009-01-05T10:23:25Z</time>
      </trkpt>
      <trkpt lat="27.87363300" lon="-15.6714360">
        <ele>244.51900</ele>
        <time>2009-01-05T10:23:26Z</time>
      </trkpt>
      <trkpt lat="27.87365900" lon="-15.6714330">
        <ele>244.69600</ele>
        <time>2009-01-05T10:23:27Z</time>
      </trkpt>
      <trkpt lat="27.87368600" lon="-15.6714290">
        <ele>244.83700</ele>
        <time>2009-01-05T10:23:28Z</time>
      </trkpt>
      <trkpt lat="27.87371200" lon="-15.6714250">
        <ele>245.02500</ele>
        <time>2009-01-05T10:23:29Z</time>
      </trkpt>
      <trkpt lat="27.87373800" lon="-15.6714210">
        <ele>245.30300</ele>
        <time>2009-01-05T10:23:30Z</time>
      </trkpt>
      <trkpt lat="27.87376300" lon="-15.6714170">
        <ele>245.62000</ele>
        <time>2009-01-05T10:23:31Z</time>
      </trkpt>
      <trkpt lat="27.87378800" lon="-15.6714130">
        <ele>245.87700</ele>
        <time>2009-01-05T10:23:32Z</time>
      </trkpt>
      <trkpt lat="27.87381400" lon="-15.6714080">
        <ele>246.22600</ele>
        <time>2009-01-05T10:23:33Z</time>
      </trkpt>
      <trkpt lat="27.87383900" lon="-15.6714030">
        <ele>246.44300</ele>
        <time>2009-01-05T10:23:34Z</time>
      </trkpt>
      <trkpt lat="27.87386300" lon="-15.6713970">
        <ele>246.78400</ele>
        <time>2009-01-05T10:23:35Z</time>
      </trkpt>
      <trkpt lat="27.87388600" lon="-15.6713920">
        <ele>247.17300</ele>
        <time>2009-01-05T10:23:36Z</time>
      </trkpt>
      <trkpt lat="27.87391000" lon="-15.6713880">
        <ele>247.25500</ele>
        <time>2009-01-05T10:23:37Z</time>
      </trkpt>
      <trkpt lat="27.87393400" lon="-15.6713860">
        <ele>247.42100</ele>
        <time>2009-01-05T10:23:38Z</time>
      </trkpt>
      <trkpt lat="27.87395700" lon="-15.6713840">
        <ele>247.59300</ele>
        <time>2009-01-05T10:23:39Z</time>
      </trkpt>
      <trkpt lat="27.87398000" lon="-15.6713800">
        <ele>248.07900</ele>
        <time>2009-01-05T10:23:40Z</time>
      </trkpt>
      <trkpt lat="27.87400200" lon="-15.6713770">
        <ele>248.17700</ele>
        <time>2009-01-05T10:23:41Z</time>
      </trkpt>
      <trkpt lat="27.87402600" lon="-15.6713730">
        <ele>248.67100</ele>
        <time>2009-01-05T10:23:42Z</time>
      </trkpt>
      <trkpt lat="27.87405000" lon="-15.6713690">
        <ele>248.86100</ele>
        <time>2009-01-05T10:23:43Z</time>
      </trkpt>
      <trkpt lat="27.87407400" lon="-15.6713650">
        <ele>248.86300</ele>
        <time>2009-01-05T10:23:44Z</time>
      </trkpt>
      <trkpt lat="27.87409800" lon="-15.6713610">
        <ele>249.04200</ele>
        <time>2009-01-05T10:23:45Z</time>
      </trkpt>
      <trkpt lat="27.87412200" lon="-15.6713590">
        <ele>249.62300</ele>
        <time>2009-01-05T10:23:46Z</time>
      </trkpt>
      <trkpt lat="27.87414600" lon="-15.6713550">
        <ele>249.76300</ele>
        <time>2009-01-05T10:23:47Z</time>
      </trkpt>
      <trkpt lat="27.87417100" lon="-15.6713520">
        <ele>249.87600</ele>
        <time>2009-01-05T10:23:48Z</time>
      </trkpt>
      <trkpt lat="27.87419600" lon="-15.6713490">
        <ele>250.39600</ele>
        <time>2009-01-05T10:23:49Z</time>
      </trkpt>
      <trkpt lat="27.87422100" lon="-15.6713470">
        <ele>250.41100</ele>
        <time>2009-01-05T10:23:50Z</time>
      </trkpt>
      <trkpt lat="27.87424600" lon="-15.6713440">
        <ele>250.34200</ele>
        <time>2009-01-05T10:23:51Z</time>
      </trkpt>
      <trkpt lat="27.87427200" lon="-15.6713420">
        <ele>250.60300</ele>
        <time>2009-01-05T10:23:52Z</time>
      </trkpt>
      <trkpt lat="27.87429900" lon="-15.6713380">
        <ele>250.62100</ele>
        <time>2009-01-05T10:23:53Z</time>
      </trkpt>
      <trkpt lat="27.87432700" lon="-15.6713350">
        <ele>251.01700</ele>
        <time>2009-01-05T10:23:54Z</time>
      </trkpt>
      <trkpt lat="27.87435500" lon="-15.6713340">
        <ele>251.26300</ele>
        <time>2009-01-05T10:23:55Z</time>
      </trkpt>
      <trkpt lat="27.87438200" lon="-15.6713350">
        <ele>251.45800</ele>
        <time>2009-01-05T10:23:56Z</time>
      </trkpt>
      <trkpt lat="27.87440800" lon="-15.6713340">
        <ele>251.69000</ele>
        <time>2009-01-05T10:23:57Z</time>
      </trkpt>
      <trkpt lat="27.87443400" lon="-15.6713340">
        <ele>251.83000</ele>
        <time>2009-01-05T10:23:58Z</time>
      </trkpt>
      <trkpt lat="27.87446100" lon="-15.6713340">
        <ele>252.42700</ele>
        <time>2009-01-05T10:23:59Z</time>
      </trkpt>
      <trkpt lat="27.87448800" lon="-15.6713360">
        <ele>252.83600</ele>
        <time>2009-01-05T10:24:00Z</time>
      </trkpt>
      <trkpt lat="27.87451500" lon="-15.6713410">
        <ele>252.85600</ele>
        <time>2009-01-05T10:24:01Z</time>
      </trkpt>
      <trkpt lat="27.87454100" lon="-15.6713490">
        <ele>253.20400</ele>
        <time>2009-01-05T10:24:02Z</time>
      </trkpt>
      <trkpt lat="27.87456800" lon="-15.6713580">
        <ele>253.50000</ele>
        <time>2009-01-05T10:24:03Z</time>
      </trkpt>
      <trkpt lat="27.87459500" lon="-15.6713660">
        <ele>253.48800</ele>
        <time>2009-01-05T10:24:04Z</time>
      </trkpt>
      <trkpt lat="27.87462200" lon="-15.6713720">
        <ele>253.69800</ele>
        <time>2009-01-05T10:24:05Z</time>
      </trkpt>
      <trkpt lat="27.87464900" lon="-15.6713790">
        <ele>253.89000</ele>
        <time>2009-01-05T10:24:06Z</time>
      </trkpt>
      <trkpt lat="27.87467600" lon="-15.6713870">
        <ele>254.27200</ele>
        <time>2009-01-05T10:24:07Z</time>
      </trkpt>
      <trkpt lat="27.87470400" lon="-15.6713970">
        <ele>254.37300</ele>
        <time>2009-01-05T10:24:08Z</time>
      </trkpt>
      <trkpt lat="27.87473100" lon="-15.6714050">
        <ele>254.64100</ele>
        <time>2009-01-05T10:24:09Z</time>
      </trkpt>
      <trkpt lat="27.87475900" lon="-15.6714100">
        <ele>254.57900</ele>
        <time>2009-01-05T10:24:10Z</time>
      </trkpt>
      <trkpt lat="27.87478700" lon="-15.6714140">
        <ele>254.79100</ele>
        <time>2009-01-05T10:24:11Z</time>
      </trkpt>
      <trkpt lat="27.87481500" lon="-15.6714160">
        <ele>255.12700</ele>
        <time>2009-01-05T10:24:12Z</time>
      </trkpt>
      <trkpt lat="27.87484300" lon="-15.6714160">
        <ele>255.34200</ele>
        <time>2009-01-05T10:24:13Z</time>
      </trkpt>
      <trkpt lat="27.87487000" lon="-15.6714130">
        <ele>255.91300</ele>
        <time>2009-01-05T10:24:14Z</time>
      </trkpt>
      <trkpt lat="27.87489700" lon="-15.6714080">
        <ele>255.82900</ele>
        <time>2009-01-05T10:24:15Z</time>
      </trkpt>
      <trkpt lat="27.87492300" lon="-15.6714030">
        <ele>256.12000</ele>
        <time>2009-01-05T10:24:16Z</time>
      </trkpt>
      <trkpt lat="27.87494900" lon="-15.6713990">
        <ele>256.37400</ele>
        <time>2009-01-05T10:24:17Z</time>
      </trkpt>
      <trkpt lat="27.87497600" lon="-15.6713930">
        <ele>256.48600</ele>
        <time>2009-01-05T10:24:18Z</time>
      </trkpt>
      <trkpt lat="27.87500300" lon="-15.6713850">
        <ele>256.96900</ele>
        <time>2009-01-05T10:24:19Z</time>
      </trkpt>
      <trkpt lat="27.87503100" lon="-15.6713770">
        <ele>257.00700</ele>
        <time>2009-01-05T10:24:20Z</time>
      </trkpt>
      <trkpt lat="27.87505700" lon="-15.6713700">
        <ele>257.22600</ele>
        <time>2009-01-05T10:24:21Z</time>
      </trkpt>
      <trkpt lat="27.87508500" lon="-15.6713640">
        <ele>257.61000</ele>
        <time>2009-01-05T10:24:22Z</time>
      </trkpt>
      <trkpt lat="27.87511200" lon="-15.6713600">
        <ele>257.75800</ele>
        <time>2009-01-05T10:24:23Z</time>
      </trkpt>
      <trkpt lat="27.87513900" lon="-15.6713560">
        <ele>257.83500</ele>
        <time>2009-01-05T10:24:24Z</time>
      </trkpt>
      <trkpt lat="27.87516400" lon="-15.6713540">
        <ele>258.34500</ele>
        <time>2009-01-05T10:24:25Z</time>
      </trkpt>
      <trkpt lat="27.87519000" lon="-15.6713530">
        <ele>258.37000</ele>
        <time>2009-01-05T10:24:26Z</time>
      </trkpt>
      <trkpt lat="27.87521600" lon="-15.6713500">
        <ele>258.53900</ele>
        <time>2009-01-05T10:24:27Z</time>
      </trkpt>
      <trkpt lat="27.87524100" lon="-15.6713460">
        <ele>258.55600</ele>
        <time>2009-01-05T10:24:28Z</time>
      </trkpt>
      <trkpt lat="27.87526500" lon="-15.6713440">
        <ele>258.99700</ele>
        <time>2009-01-05T10:24:29Z</time>
      </trkpt>
      <trkpt lat="27.87528800" lon="-15.6713430">
        <ele>259.34700</ele>
        <time>2009-01-05T10:24:30Z</time>
      </trkpt>
      <trkpt lat="27.87531100" lon="-15.6713420">
        <ele>259.96300</ele>
        <time>2009-01-05T10:24:31Z</time>
      </trkpt>
      <trkpt lat="27.87533400" lon="-15.6713410">
        <ele>260.01700</ele>
        <time>2009-01-05T10:24:32Z</time>
      </trkpt>
      <trkpt lat="27.87535700" lon="-15.6713390">
        <ele>260.36100</ele>
        <time>2009-01-05T10:24:33Z</time>
      </trkpt>
      <trkpt lat="27.87538100" lon="-15.6713360">
        <ele>260.49600</ele>
        <time>2009-01-05T10:24:34Z</time>
      </trkpt>
      <trkpt lat="27.87540500" lon="-15.6713330">
        <ele>260.86100</ele>
        <time>2009-01-05T10:24:35Z</time>
      </trkpt>
      <trkpt lat="27.87542700" lon="-15.6713300">
        <ele>261.19200</ele>
        <time>2009-01-05T10:24:36Z</time>
      </trkpt>
      <trkpt lat="27.87544900" lon="-15.6713280">
        <ele>261.20600</ele>
        <time>2009-01-05T10:24:37Z</time>
      </trkpt>
      <trkpt lat="27.87547100" lon="-15.6713260">
        <ele>261.38800</ele>
        <time>2009-01-05T10:24:38Z</time>
      </trkpt>
      <trkpt lat="27.87549300" lon="-15.6713240">
        <ele>261.75600</ele>
        <time>2009-01-05T10:24:39Z</time>
      </trkpt>
      <trkpt lat="27.87551700" lon="-15.6713200">
        <ele>262.21400</ele>
        <time>2009-01-05T10:24:40Z</time>
      </trkpt>
      <trkpt lat="27.87554100" lon="-15.6713190">
        <ele>262.44400</ele>
        <time>2009-01-05T10:24:41Z</time>
      </trkpt>
      <trkpt lat="27.87556300" lon="-15.6713250">
        <ele>262.52600</ele>
        <time>2009-01-05T10:24:42Z</time>
      </trkpt>
      <trkpt lat="27.87558000" lon="-15.6713430">
        <ele>262.55900</ele>
        <time>2009-01-05T10:24:43Z</time>
      </trkpt>
      <trkpt lat="27.87558700" lon="-15.6713680">
        <ele>262.89200</ele>
        <time>2009-01-05T10:24:44Z</time>
      </trkpt>
      <trkpt lat="27.87558300" lon="-15.6713970">
        <ele>262.94800</ele>
        <time>2009-01-05T10:24:45Z</time>
      </trkpt>
      <trkpt lat="27.87556700" lon="-15.6714240">
        <ele>263.23700</ele>
        <time>2009-01-05T10:24:46Z</time>
      </trkpt>
      <trkpt lat="27.87554500" lon="-15.6714440">
        <ele>263.34600</ele>
        <time>2009-01-05T10:24:47Z</time>
      </trkpt>
      <trkpt lat="27.87552100" lon="-15.6714560">
        <ele>263.67700</ele>
        <time>2009-01-05T10:24:48Z</time>
      </trkpt>
      <trkpt lat="27.87549600" lon="-15.6714640">
        <ele>263.95000</ele>
        <time>2009-01-05T10:24:49Z</time>
      </trkpt>
      <trkpt lat="27.87547100" lon="-15.6714710">
        <ele>264.38200</ele>
        <time>2009-01-05T10:24:50Z</time>
      </trkpt>
      <trkpt lat="27.87544700" lon="-15.6714760">
        <ele>264.55400</ele>
        <time>2009-01-05T10:24:51Z</time>
      </trkpt>
      <trkpt lat="27.87542200" lon="-15.6714820">
        <ele>264.98300</ele>
        <time>2009-01-05T10:24:52Z</time>
      </trkpt>
      <trkpt lat="27.87539700" lon="-15.6714870">
        <ele>264.93400</ele>
        <time>2009-01-05T10:24:53Z</time>
      </trkpt>
      <trkpt lat="27.87537200" lon="-15.6714920">
        <ele>265.40500</ele>
        <time>2009-01-05T10:24:54Z</time>
      </trkpt>
      <trkpt lat="27.87534600" lon="-15.6714960">
        <ele>265.81100</ele>
        <time>2009-01-05T10:24:55Z</time>
      </trkpt>
      <trkpt lat="27.87531900" lon="-15.6715000">
        <ele>265.86500</ele>
        <time>2009-01-05T10:24:56Z</time>
      </trkpt>
      <trkpt lat="27.87529300" lon="-15.6715050">
        <ele>266.04800</ele>
        <time>2009-01-05T10:24:57Z</time>
      </trkpt>
      <trkpt lat="27.87526600" lon="-15.6715110">
        <ele>266.37400</ele>
        <time>2009-01-05T10:24:58Z</time>
      </trkpt>
      <trkpt lat="27.87523900" lon="-15.6715170">
        <ele>266.26200</ele>
        <time>2009-01-05T10:24:59Z</time>
      </trkpt>
      <trkpt lat="27.87521400" lon="-15.6715250">
        <ele>266.72800</ele>
        <time>2009-01-05T10:25:00Z</time>
      </trkpt>
      <trkpt lat="27.87518900" lon="-15.6715330">
        <ele>267.06000</ele>
        <time>2009-01-05T10:25:01Z</time>
      </trkpt>
      <trkpt lat="27.87516500" lon="-15.6715440">
        <ele>267.17600</ele>
        <time>2009-01-05T10:25:02Z</time>
      </trkpt>
      <trkpt lat="27.87514100" lon="-15.6715560">
        <ele>267.25900</ele>
        <time>2009-01-05T10:25:03Z</time>
      </trkpt>
      <trkpt lat="27.87511800" lon="-15.6715680">
        <ele>267.27900</ele>
        <time>2009-01-05T10:25:04Z</time>
      </trkpt>
      <trkpt lat="27.87509400" lon="-15.6715800">
        <ele>267.60000</ele>
        <time>2009-01-05T10:25:05Z</time>
      </trkpt>
      <trkpt lat="27.87507100" lon="-15.6715930">
        <ele>268.07200</ele>
        <time>2009-01-05T10:25:06Z</time>
      </trkpt>
      <trkpt lat="27.87504900" lon="-15.6716060">
        <ele>268.06600</ele>
        <time>2009-01-05T10:25:07Z</time>
      </trkpt>
      <trkpt lat="27.87502900" lon="-15.6716210">
        <ele>268.33200</ele>
        <time>2009-01-05T10:25:08Z</time>
      </trkpt>
      <trkpt lat="27.87500900" lon="-15.6716360">
        <ele>268.47900</ele>
        <time>2009-01-05T10:25:09Z</time>
      </trkpt>
      <trkpt lat="27.87498900" lon="-15.6716520">
        <ele>268.89300</ele>
        <time>2009-01-05T10:25:10Z</time>
      </trkpt>
      <trkpt lat="27.87496800" lon="-15.6716670">
        <ele>269.13000</ele>
        <time>2009-01-05T10:25:11Z</time>
      </trkpt>
      <trkpt lat="27.87494500" lon="-15.6716840">
        <ele>269.10000</ele>
        <time>2009-01-05T10:25:12Z</time>
      </trkpt>
      <trkpt lat="27.87492200" lon="-15.6717010">
        <ele>269.28100</ele>
        <time>2009-01-05T10:25:13Z</time>
      </trkpt>
      <trkpt lat="27.87489800" lon="-15.6717160">
        <ele>269.57600</ele>
        <time>2009-01-05T10:25:14Z</time>
      </trkpt>
      <trkpt lat="27.87487300" lon="-15.6717300">
        <ele>270.09100</ele>
        <time>2009-01-05T10:25:15Z</time>
      </trkpt>
      <trkpt lat="27.87484800" lon="-15.6717430">
        <ele>270.01600</ele>
        <time>2009-01-05T10:25:16Z</time>
      </trkpt>
      <trkpt lat="27.87482200" lon="-15.6717540">
        <ele>270.06800</ele>
        <time>2009-01-05T10:25:17Z</time>
      </trkpt>
      <trkpt lat="27.87479700" lon="-15.6717620">
        <ele>270.34300</ele>
        <time>2009-01-05T10:25:18Z</time>
      </trkpt>
      <trkpt lat="27.87477300" lon="-15.6717650">
        <ele>270.83700</ele>
        <time>2009-01-05T10:25:19Z</time>
      </trkpt>
      <trkpt lat="27.87474900" lon="-15.6717700">
        <ele>271.01100</ele>
        <time>2009-01-05T10:25:20Z</time>
      </trkpt>
      <trkpt lat="27.87472500" lon="-15.6717740">
        <ele>271.23600</ele>
        <time>2009-01-05T10:25:21Z</time>
      </trkpt>
      <trkpt lat="27.87470100" lon="-15.6717790">
        <ele>271.36000</ele>
        <time>2009-01-05T10:25:22Z</time>
      </trkpt>
      <trkpt lat="27.87467700" lon="-15.6717810">
        <ele>271.64600</ele>
        <time>2009-01-05T10:25:23Z</time>
      </trkpt>
      <trkpt lat="27.87465300" lon="-15.6717820">
        <ele>271.86300</ele>
        <time>2009-01-05T10:25:24Z</time>
      </trkpt>
      <trkpt lat="27.87462900" lon="-15.6717820">
        <ele>272.30700</ele>
        <time>2009-01-05T10:25:25Z</time>
      </trkpt>
      <trkpt lat="27.87460400" lon="-15.6717790">
        <ele>272.35700</ele>
        <time>2009-01-05T10:25:26Z</time>
      </trkpt>
      <trkpt lat="27.87457900" lon="-15.6717750">
        <ele>272.47300</ele>
        <time>2009-01-05T10:25:27Z</time>
      </trkpt>
      <trkpt lat="27.87455300" lon="-15.6717720">
        <ele>272.72400</ele>
        <time>2009-01-05T10:25:28Z</time>
      </trkpt>
      <trkpt lat="27.87452700" lon="-15.6717690">
        <ele>273.08100</ele>
        <time>2009-01-05T10:25:29Z</time>
      </trkpt>
      <trkpt lat="27.87450200" lon="-15.6717670">
        <ele>273.20200</ele>
        <time>2009-01-05T10:25:30Z</time>
      </trkpt>
      <trkpt lat="27.87447600" lon="-15.6717650">
        <ele>273.28400</ele>
        <time>2009-01-05T10:25:31Z</time>
      </trkpt>
      <trkpt lat="27.87445100" lon="-15.6717630">
        <ele>273.65600</ele>
        <time>2009-01-05T10:25:32Z</time>
      </trkpt>
      <trkpt lat="27.87442600" lon="-15.6717620">
        <ele>273.85500</ele>
        <time>2009-01-05T10:25:33Z</time>
      </trkpt>
      <trkpt lat="27.87440100" lon="-15.6717600">
        <ele>273.84400</ele>
        <time>2009-01-05T10:25:34Z</time>
      </trkpt>
      <trkpt lat="27.87437600" lon="-15.6717600">
        <ele>274.15000</ele>
        <time>2009-01-05T10:25:35Z</time>
      </trkpt>
      <trkpt lat="27.87435200" lon="-15.6717620">
        <ele>274.30300</ele>
        <time>2009-01-05T10:25:36Z</time>
      </trkpt>
      <trkpt lat="27.87432800" lon="-15.6717660">
        <ele>274.52000</ele>
        <time>2009-01-05T10:25:37Z</time>
      </trkpt>
      <trkpt lat="27.87430500" lon="-15.6717690">
        <ele>274.86500</ele>
        <time>2009-01-05T10:25:38Z</time>
      </trkpt>
      <trkpt lat="27.87428200" lon="-15.6717720">
        <ele>275.04700</ele>
        <time>2009-01-05T10:25:39Z</time>
      </trkpt>
      <trkpt lat="27.87425800" lon="-15.6717770">
        <ele>275.24500</ele>
        <time>2009-01-05T10:25:40Z</time>
      </trkpt>
      <trkpt lat="27.87423400" lon="-15.6717830">
        <ele>275.45300</ele>
        <time>2009-01-05T10:25:41Z</time>
      </trkpt>
      <trkpt lat="27.87421200" lon="-15.6717920">
        <ele>275.77800</ele>
        <time>2009-01-05T10:25:42Z</time>
      </trkpt>
      <trkpt lat="27.87419000" lon="-15.6718020">
        <ele>275.89600</ele>
        <time>2009-01-05T10:25:43Z</time>
      </trkpt>
      <trkpt lat="27.87416800" lon="-15.6718120">
        <ele>276.51900</ele>
        <time>2009-01-05T10:25:44Z</time>
      </trkpt>
      <trkpt lat="27.87414700" lon="-15.6718220">
        <ele>276.73000</ele>
        <time>2009-01-05T10:25:45Z</time>
      </trkpt>
      <trkpt lat="27.87412700" lon="-15.6718340">
        <ele>276.76700</ele>
        <time>2009-01-05T10:25:46Z</time>
      </trkpt>
      <trkpt lat="27.87410600" lon="-15.6718500">
        <ele>277.00100</ele>
        <time>2009-01-05T10:25:47Z</time>
      </trkpt>
      <trkpt lat="27.87408700" lon="-15.6718670">
        <ele>277.44200</ele>
        <time>2009-01-05T10:25:48Z</time>
      </trkpt>
      <trkpt lat="27.87406700" lon="-15.6718860">
        <ele>277.56600</ele>
        <time>2009-01-05T10:25:49Z</time>
      </trkpt>
      <trkpt lat="27.87404700" lon="-15.6719030">
        <ele>277.71600</ele>
        <time>2009-01-05T10:25:50Z</time>
      </trkpt>
      <trkpt lat="27.87402500" lon="-15.6719200">
        <ele>278.17300</ele>
        <time>2009-01-05T10:25:51Z</time>
      </trkpt>
      <trkpt lat="27.87400300" lon="-15.6719340">
        <ele>278.09600</ele>
        <time>2009-01-05T10:25:52Z</time>
      </trkpt>
      <trkpt lat="27.87397900" lon="-15.6719480">
        <ele>278.46800</ele>
        <time>2009-01-05T10:25:53Z</time>
      </trkpt>
      <trkpt lat="27.87395400" lon="-15.6719610">
        <ele>278.45100</ele>
        <time>2009-01-05T10:25:54Z</time>
      </trkpt>
      <trkpt lat="27.87392800" lon="-15.6719710">
        <ele>278.52200</ele>
        <time>2009-01-05T10:25:55Z</time>
      </trkpt>
      <trkpt lat="27.87390300" lon="-15.6719790">
        <ele>278.62200</ele>
        <time>2009-01-05T10:25:56Z</time>
      </trkpt>
      <trkpt lat="27.87387800" lon="-15.6719860">
        <ele>278.90400</ele>
        <time>2009-01-05T10:25:57Z</time>
      </trkpt>
      <trkpt lat="27.87385400" lon="-15.6719930">
        <ele>278.99000</ele>
        <time>2009-01-05T10:25:58Z</time>
      </trkpt>
      <trkpt lat="27.87382800" lon="-15.6720000">
        <ele>279.52600</ele>
        <time>2009-01-05T10:25:59Z</time>
      </trkpt>
      <trkpt lat="27.87380200" lon="-15.6720050">
        <ele>279.59400</ele>
        <time>2009-01-05T10:26:00Z</time>
      </trkpt>
      <trkpt lat="27.87377700" lon="-15.6720120">
        <ele>279.73300</ele>
        <time>2009-01-05T10:26:01Z</time>
      </trkpt>
      <trkpt lat="27.87375100" lon="-15.6720210">
        <ele>279.84800</ele>
        <time>2009-01-05T10:26:02Z</time>
      </trkpt>
      <trkpt lat="27.87372600" lon="-15.6720310">
        <ele>280.30400</ele>
        <time>2009-01-05T10:26:03Z</time>
      </trkpt>
      <trkpt lat="27.87370400" lon="-15.6720420">
        <ele>280.67100</ele>
        <time>2009-01-05T10:26:04Z</time>
      </trkpt>
      <trkpt lat="27.87368300" lon="-15.6720570">
        <ele>280.76700</ele>
        <time>2009-01-05T10:26:05Z</time>
      </trkpt>
      <trkpt lat="27.87366400" lon="-15.6720740">
        <ele>280.95200</ele>
        <time>2009-01-05T10:26:06Z</time>
      </trkpt>
      <trkpt lat="27.87364600" lon="-15.6720930">
        <ele>281.29900</ele>
        <time>2009-01-05T10:26:07Z</time>
      </trkpt>
      <trkpt lat="27.87362900" lon="-15.6721140">
        <ele>281.42800</ele>
        <time>2009-01-05T10:26:08Z</time>
      </trkpt>
      <trkpt lat="27.87361100" lon="-15.6721330">
        <ele>281.77600</ele>
        <time>2009-01-05T10:26:09Z</time>
      </trkpt>
      <trkpt lat="27.87359200" lon="-15.6721520">
        <ele>282.15800</ele>
        <time>2009-01-05T10:26:10Z</time>
      </trkpt>
      <trkpt lat="27.87357100" lon="-15.6721720">
        <ele>282.42700</ele>
        <time>2009-01-05T10:26:11Z</time>
      </trkpt>
      <trkpt lat="27.87355000" lon="-15.6721900">
        <ele>282.55500</ele>
        <time>2009-01-05T10:26:12Z</time>
      </trkpt>
      <trkpt lat="27.87352600" lon="-15.6722050">
        <ele>282.86600</ele>
        <time>2009-01-05T10:26:13Z</time>
      </trkpt>
      <trkpt lat="27.87349900" lon="-15.6722200">
        <ele>283.03600</ele>
        <time>2009-01-05T10:26:14Z</time>
      </trkpt>
      <trkpt lat="27.87347200" lon="-15.6722350">
        <ele>283.38600</ele>
        <time>2009-01-05T10:26:15Z</time>
      </trkpt>
      <trkpt lat="27.87344600" lon="-15.6722470">
        <ele>283.28800</ele>
        <time>2009-01-05T10:26:16Z</time>
      </trkpt>
      <trkpt lat="27.87342200" lon="-15.6722550">
        <ele>283.84700</ele>
        <time>2009-01-05T10:26:17Z</time>
      </trkpt>
      <trkpt lat="27.87339700" lon="-15.6722590">
        <ele>283.97500</ele>
        <time>2009-01-05T10:26:18Z</time>
      </trkpt>
      <trkpt lat="27.87337200" lon="-15.6722610">
        <ele>284.14400</ele>
        <time>2009-01-05T10:26:19Z</time>
      </trkpt>
      <trkpt lat="27.87334800" lon="-15.6722670">
        <ele>284.21700</ele>
        <time>2009-01-05T10:26:20Z</time>
      </trkpt>
      <trkpt lat="27.87332700" lon="-15.6722820">
        <ele>284.47700</ele>
        <time>2009-01-05T10:26:21Z</time>
      </trkpt>
      <trkpt lat="27.87331700" lon="-15.6723030">
        <ele>284.97100</ele>
        <time>2009-01-05T10:26:22Z</time>
      </trkpt>
      <trkpt lat="27.87332500" lon="-15.6723230">
        <ele>285.16000</ele>
        <time>2009-01-05T10:26:23Z</time>
      </trkpt>
      <trkpt lat="27.87334200" lon="-15.6723330">
        <ele>285.50800</ele>
        <time>2009-01-05T10:26:24Z</time>
      </trkpt>
      <trkpt lat="27.87336300" lon="-15.6723370">
        <ele>285.61000</ele>
        <time>2009-01-05T10:26:25Z</time>
      </trkpt>
      <trkpt lat="27.87338500" lon="-15.6723360">
        <ele>285.86000</ele>
        <time>2009-01-05T10:26:26Z</time>
      </trkpt>
      <trkpt lat="27.87340700" lon="-15.6723330">
        <ele>286.63000</ele>
        <time>2009-01-05T10:26:27Z</time>
      </trkpt>
      <trkpt lat="27.87342900" lon="-15.6723300">
        <ele>286.45400</ele>
        <time>2009-01-05T10:26:28Z</time>
      </trkpt>
      <trkpt lat="27.87345200" lon="-15.6723250">
        <ele>286.88100</ele>
        <time>2009-01-05T10:26:29Z</time>
      </trkpt>
      <trkpt lat="27.87347500" lon="-15.6723170">
        <ele>286.90000</ele>
        <time>2009-01-05T10:26:30Z</time>
      </trkpt>
      <trkpt lat="27.87349800" lon="-15.6723060">
        <ele>287.20300</ele>
        <time>2009-01-05T10:26:31Z</time>
      </trkpt>
      <trkpt lat="27.87352200" lon="-15.6722940">
        <ele>287.46500</ele>
        <time>2009-01-05T10:26:32Z</time>
      </trkpt>
      <trkpt lat="27.87354700" lon="-15.6722800">
        <ele>287.46600</ele>
        <time>2009-01-05T10:26:33Z</time>
      </trkpt>
      <trkpt lat="27.87357100" lon="-15.6722640">
        <ele>287.71800</ele>
        <time>2009-01-05T10:26:34Z</time>
      </trkpt>
      <trkpt lat="27.87359300" lon="-15.6722470">
        <ele>287.89600</ele>
        <time>2009-01-05T10:26:35Z</time>
      </trkpt>
      <trkpt lat="27.87361500" lon="-15.6722330">
        <ele>288.03900</ele>
        <time>2009-01-05T10:26:36Z</time>
      </trkpt>
      <trkpt lat="27.87363800" lon="-15.6722180">
        <ele>288.34200</ele>
        <time>2009-01-05T10:26:37Z</time>
      </trkpt>
      <trkpt lat="27.87366000" lon="-15.6722010">
        <ele>288.66000</ele>
        <time>2009-01-05T10:26:38Z</time>
      </trkpt>
      <trkpt lat="27.87368100" lon="-15.6721830">
        <ele>288.78500</ele>
        <time>2009-01-05T10:26:39Z</time>
      </trkpt>
      <trkpt lat="27.87370200" lon="-15.6721660">
        <ele>289.07900</ele>
        <time>2009-01-05T10:26:40Z</time>
      </trkpt>
      <trkpt lat="27.87372300" lon="-15.6721500">
        <ele>289.31800</ele>
        <time>2009-01-05T10:26:41Z</time>
      </trkpt>
      <trkpt lat="27.87374600" lon="-15.6721370">
        <ele>289.31400</ele>
        <time>2009-01-05T10:26:42Z</time>
      </trkpt>
      <trkpt lat="27.87377000" lon="-15.6721280">
        <ele>289.62900</ele>
        <time>2009-01-05T10:26:43Z</time>
      </trkpt>
      <trkpt lat="27.87379500" lon="-15.6721210">
        <ele>289.96900</ele>
        <time>2009-01-05T10:26:44Z</time>
      </trkpt>
      <trkpt lat="27.87382100" lon="-15.6721160">
        <ele>290.43200</ele>
        <time>2009-01-05T10:26:45Z</time>
      </trkpt>
      <trkpt lat="27.87384700" lon="-15.6721150">
        <ele>290.36200</ele>
        <time>2009-01-05T10:26:46Z</time>
      </trkpt>
      <trkpt lat="27.87387300" lon="-15.6721150">
        <ele>290.27300</ele>
        <time>2009-01-05T10:26:47Z</time>
      </trkpt>
      <trkpt lat="27.87389800" lon="-15.6721160">
        <ele>290.62300</ele>
        <time>2009-01-05T10:26:48Z</time>
      </trkpt>
      <trkpt lat="27.87392400" lon="-15.6721180">
        <ele>291.16800</ele>
        <time>2009-01-05T10:26:49Z</time>
      </trkpt>
      <trkpt lat="27.87394900" lon="-15.6721200">
        <ele>291.35900</ele>
        <time>2009-01-05T10:26:50Z</time>
      </trkpt>
      <trkpt lat="27.87397300" lon="-15.6721230">
        <ele>291.47800</ele>
        <time>2009-01-05T10:26:51Z</time>
      </trkpt>
      <trkpt lat="27.87399800" lon="-15.6721230">
        <ele>291.69600</ele>
        <time>2009-01-05T10:26:52Z</time>
      </trkpt>
      <trkpt lat="27.87402100" lon="-15.6721220">
        <ele>291.77000</ele>
        <time>2009-01-05T10:26:53Z</time>
      </trkpt>
      <trkpt lat="27.87404500" lon="-15.6721200">
        <ele>292.38700</ele>
        <time>2009-01-05T10:26:54Z</time>
      </trkpt>
      <trkpt lat="27.87407100" lon="-15.6721190">
        <ele>292.23100</ele>
        <time>2009-01-05T10:26:55Z</time>
      </trkpt>
      <trkpt lat="27.87409800" lon="-15.6721220">
        <ele>292.39500</ele>
        <time>2009-01-05T10:26:56Z</time>
      </trkpt>
      <trkpt lat="27.87412500" lon="-15.6721280">
        <ele>292.54400</ele>
        <time>2009-01-05T10:26:57Z</time>
      </trkpt>
      <trkpt lat="27.87415200" lon="-15.6721380">
        <ele>292.66800</ele>
        <time>2009-01-05T10:26:58Z</time>
      </trkpt>
      <trkpt lat="27.87417800" lon="-15.6721480">
        <ele>293.20200</ele>
        <time>2009-01-05T10:26:59Z</time>
      </trkpt>
      <trkpt lat="27.87420400" lon="-15.6721600">
        <ele>293.12900</ele>
        <time>2009-01-05T10:27:00Z</time>
      </trkpt>
      <trkpt lat="27.87422900" lon="-15.6721730">
        <ele>293.49900</ele>
        <time>2009-01-05T10:27:01Z</time>
      </trkpt>
      <trkpt lat="27.87425400" lon="-15.6721860">
        <ele>293.50200</ele>
        <time>2009-01-05T10:27:02Z</time>
      </trkpt>
      <trkpt lat="27.87427800" lon="-15.6721990">
        <ele>293.68400</ele>
        <time>2009-01-05T10:27:03Z</time>
      </trkpt>
      <trkpt lat="27.87430000" lon="-15.6722110">
        <ele>294.23100</ele>
        <time>2009-01-05T10:27:04Z</time>
      </trkpt>
      <trkpt lat="27.87432200" lon="-15.6722220">
        <ele>294.09200</ele>
        <time>2009-01-05T10:27:05Z</time>
      </trkpt>
      <trkpt lat="27.87434300" lon="-15.6722330">
        <ele>294.53000</ele>
        <time>2009-01-05T10:27:06Z</time>
      </trkpt>
      <trkpt lat="27.87436400" lon="-15.6722420">
        <ele>294.82400</ele>
        <time>2009-01-05T10:27:07Z</time>
      </trkpt>
      <trkpt lat="27.87438500" lon="-15.6722500">
        <ele>294.95600</ele>
        <time>2009-01-05T10:27:08Z</time>
      </trkpt>
      <trkpt lat="27.87440600" lon="-15.6722550">
        <ele>295.45300</ele>
        <time>2009-01-05T10:27:09Z</time>
      </trkpt>
      <trkpt lat="27.87442600" lon="-15.6722610">
        <ele>295.46600</ele>
        <time>2009-01-05T10:27:10Z</time>
      </trkpt>
      <trkpt lat="27.87444500" lon="-15.6722680">
        <ele>295.71200</ele>
        <time>2009-01-05T10:27:11Z</time>
      </trkpt>
      <trkpt lat="27.87446600" lon="-15.6722730">
        <ele>295.76000</ele>
        <time>2009-01-05T10:27:12Z</time>
      </trkpt>
      <trkpt lat="27.87448600" lon="-15.6722760">
        <ele>296.18600</ele>
        <time>2009-01-05T10:27:13Z</time>
      </trkpt>
      <trkpt lat="27.87450700" lon="-15.6722780">
        <ele>296.11700</ele>
        <time>2009-01-05T10:27:14Z</time>
      </trkpt>
      <trkpt lat="27.87452700" lon="-15.6722780">
        <ele>296.45600</ele>
        <time>2009-01-05T10:27:15Z</time>
      </trkpt>
      <trkpt lat="27.87454700" lon="-15.6722810">
        <ele>296.46700</ele>
        <time>2009-01-05T10:27:16Z</time>
      </trkpt>
      <trkpt lat="27.87456700" lon="-15.6722860">
        <ele>296.92400</ele>
        <time>2009-01-05T10:27:17Z</time>
      </trkpt>
      <trkpt lat="27.87458600" lon="-15.6722920">
        <ele>297.09600</ele>
        <time>2009-01-05T10:27:18Z</time>
      </trkpt>
      <trkpt lat="27.87460500" lon="-15.6722980">
        <ele>297.29500</ele>
        <time>2009-01-05T10:27:19Z</time>
      </trkpt>
      <trkpt lat="27.87462400" lon="-15.6723060">
        <ele>297.59900</ele>
        <time>2009-01-05T10:27:20Z</time>
      </trkpt>
      <trkpt lat="27.87464200" lon="-15.6723130">
        <ele>297.59900</ele>
        <time>2009-01-05T10:27:21Z</time>
      </trkpt>
      <trkpt lat="27.87466100" lon="-15.6723180">
        <ele>298.09600</ele>
        <time>2009-01-05T10:27:22Z</time>
      </trkpt>
      <trkpt lat="27.87468000" lon="-15.6723240">
        <ele>298.40500</ele>
        <time>2009-01-05T10:27:23Z</time>
      </trkpt>
      <trkpt lat="27.87469900" lon="-15.6723320">
        <ele>298.50600</ele>
        <time>2009-01-05T10:27:24Z</time>
      </trkpt>
      <trkpt lat="27.87471600" lon="-15.6723430">
        <ele>298.86300</ele>
        <time>2009-01-05T10:27:25Z</time>
      </trkpt>
      <trkpt lat="27.87473500" lon="-15.6723540">
        <ele>298.88700</ele>
        <time>2009-01-05T10:27:26Z</time>
      </trkpt>
      <trkpt lat="27.87475400" lon="-15.6723630">
        <ele>299.12500</ele>
        <time>2009-01-05T10:27:27Z</time>
      </trkpt>
      <trkpt lat="27.87477300" lon="-15.6723720">
        <ele>299.62400</ele>
        <time>2009-01-05T10:27:28Z</time>
      </trkpt>
      <trkpt lat="27.87479300" lon="-15.6723780">
        <ele>299.70400</ele>
        <time>2009-01-05T10:27:29Z</time>
      </trkpt>
      <trkpt lat="27.87481400" lon="-15.6723810">
        <ele>299.72700</ele>
        <time>2009-01-05T10:27:30Z</time>
      </trkpt>
      <trkpt lat="27.87483500" lon="-15.6723790">
        <ele>300.28000</ele>
        <time>2009-01-05T10:27:31Z</time>
      </trkpt>
      <trkpt lat="27.87485600" lon="-15.6723730">
        <ele>300.48300</ele>
        <time>2009-01-05T10:27:32Z</time>
      </trkpt>
      <trkpt lat="27.87487700" lon="-15.6723630">
        <ele>300.73700</ele>
        <time>2009-01-05T10:27:33Z</time>
      </trkpt>
      <trkpt lat="27.87489600" lon="-15.6723530">
        <ele>300.80800</ele>
        <time>2009-01-05T10:27:34Z</time>
      </trkpt>
      <trkpt lat="27.87491600" lon="-15.6723410">
        <ele>301.18100</ele>
        <time>2009-01-05T10:27:35Z</time>
      </trkpt>
      <trkpt lat="27.87493400" lon="-15.6723290">
        <ele>301.38900</ele>
        <time>2009-01-05T10:27:36Z</time>
      </trkpt>
      <trkpt lat="27.87495300" lon="-15.6723170">
        <ele>301.46100</ele>
        <time>2009-01-05T10:27:37Z</time>
      </trkpt>
      <trkpt lat="27.87497300" lon="-15.6723060">
        <ele>301.74100</ele>
        <time>2009-01-05T10:27:38Z</time>
      </trkpt>
      <trkpt lat="27.87499300" lon="-15.6722960">
        <ele>301.92600</ele>
        <time>2009-01-05T10:27:39Z</time>
      </trkpt>
      <trkpt lat="27.87501400" lon="-15.6722840">
        <ele>302.14800</ele>
        <time>2009-01-05T10:27:40Z</time>
      </trkpt>
      <trkpt lat="27.87503500" lon="-15.6722740">
        <ele>302.25900</ele>
        <time>2009-01-05T10:27:41Z</time>
      </trkpt>
      <trkpt lat="27.87505500" lon="-15.6722640">
        <ele>302.67900</ele>
        <time>2009-01-05T10:27:42Z</time>
      </trkpt>
      <trkpt lat="27.87507600" lon="-15.6722540">
        <ele>302.72200</ele>
        <time>2009-01-05T10:27:43Z</time>
      </trkpt>
      <trkpt lat="27.87509700" lon="-15.6722440">
        <ele>302.96200</ele>
        <time>2009-01-05T10:27:44Z</time>
      </trkpt>
      <trkpt lat="27.87511800" lon="-15.6722330">
        <ele>303.35400</ele>
        <time>2009-01-05T10:27:45Z</time>
      </trkpt>
      <trkpt lat="27.87513900" lon="-15.6722240">
        <ele>303.26900</ele>
        <time>2009-01-05T10:27:46Z</time>
      </trkpt>
      <trkpt lat="27.87516100" lon="-15.6722150">
        <ele>303.58100</ele>
        <time>2009-01-05T10:27:47Z</time>
      </trkpt>
      <trkpt lat="27.87518200" lon="-15.6722080">
        <ele>303.80900</ele>
        <time>2009-01-05T10:27:48Z</time>
      </trkpt>
      <trkpt lat="27.87520400" lon="-15.6722020">
        <ele>303.82500</ele>
        <time>2009-01-05T10:27:49Z</time>
      </trkpt>
      <trkpt lat="27.87522600" lon="-15.6721970">
        <ele>303.95200</ele>
        <time>2009-01-05T10:27:50Z</time>
      </trkpt>
      <trkpt lat="27.87524900" lon="-15.6721940">
        <ele>304.22500</ele>
        <time>2009-01-05T10:27:51Z</time>
      </trkpt>
      <trkpt lat="27.87527200" lon="-15.6721920">
        <ele>304.45000</ele>
        <time>2009-01-05T10:27:52Z</time>
      </trkpt>
      <trkpt lat="27.87529600" lon="-15.6721910">
        <ele>304.46300</ele>
        <time>2009-01-05T10:27:53Z</time>
      </trkpt>
      <trkpt lat="27.87532000" lon="-15.6721920">
        <ele>304.99200</ele>
        <time>2009-01-05T10:27:54Z</time>
      </trkpt>
      <trkpt lat="27.87534400" lon="-15.6721940">
        <ele>305.02900</ele>
        <time>2009-01-05T10:27:55Z</time>
      </trkpt>
      <trkpt lat="27.87536700" lon="-15.6721970">
        <ele>305.48900</ele>
        <time>2009-01-05T10:27:56Z</time>
      </trkpt>
      <trkpt lat="27.87539000" lon="-15.6722020">
        <ele>305.52900</ele>
        <time>2009-01-05T10:27:57Z</time>
      </trkpt>
      <trkpt lat="27.87541300" lon="-15.6722090">
        <ele>305.51300</ele>
        <time>2009-01-05T10:27:58Z</time>
      </trkpt>
      <trkpt lat="27.87543500" lon="-15.6722190">
        <ele>305.64500</ele>
        <time>2009-01-05T10:27:59Z</time>
      </trkpt>
      <trkpt lat="27.87545600" lon="-15.6722300">
        <ele>306.13900</ele>
        <time>2009-01-05T10:28:00Z</time>
      </trkpt>
      <trkpt lat="27.87547700" lon="-15.6722430">
        <ele>306.33800</ele>
        <time>2009-01-05T10:28:01Z</time>
      </trkpt>
      <trkpt lat="27.87549700" lon="-15.6722560">
        <ele>306.43300</ele>
        <time>2009-01-05T10:28:02Z</time>
      </trkpt>
      <trkpt lat="27.87551700" lon="-15.6722720">
        <ele>306.71000</ele>
        <time>2009-01-05T10:28:03Z</time>
      </trkpt>
      <trkpt lat="27.87553700" lon="-15.6722890">
        <ele>307.07200</ele>
        <time>2009-01-05T10:28:04Z</time>
      </trkpt>
      <trkpt lat="27.87555600" lon="-15.6723080">
        <ele>307.22000</ele>
        <time>2009-01-05T10:28:05Z</time>
      </trkpt>
      <trkpt lat="27.87557400" lon="-15.6723280">
        <ele>307.36800</ele>
        <time>2009-01-05T10:28:06Z</time>
      </trkpt>
      <trkpt lat="27.87559100" lon="-15.6723500">
        <ele>307.59200</ele>
        <time>2009-01-05T10:28:07Z</time>
      </trkpt>
      <trkpt lat="27.87560600" lon="-15.6723740">
        <ele>307.59700</ele>
        <time>2009-01-05T10:28:08Z</time>
      </trkpt>
      <trkpt lat="27.87562100" lon="-15.6723980">
        <ele>307.94600</ele>
        <time>2009-01-05T10:28:09Z</time>
      </trkpt>
      <trkpt lat="27.87563500" lon="-15.6724240">
        <ele>307.96700</ele>
        <time>2009-01-05T10:28:10Z</time>
      </trkpt>
      <trkpt lat="27.87564800" lon="-15.6724510">
        <ele>308.18800</ele>
        <time>2009-01-05T10:28:11Z</time>
      </trkpt>
      <trkpt lat="27.87565900" lon="-15.6724790">
        <ele>308.22000</ele>
        <time>2009-01-05T10:28:12Z</time>
      </trkpt>
      <trkpt lat="27.87567000" lon="-15.6725050">
        <ele>308.51800</ele>
        <time>2009-01-05T10:28:13Z</time>
      </trkpt>
      <trkpt lat="27.87567900" lon="-15.6725310">
        <ele>308.78900</ele>
        <time>2009-01-05T10:28:14Z</time>
      </trkpt>
      <trkpt lat="27.87568700" lon="-15.6725570">
        <ele>308.96100</ele>
        <time>2009-01-05T10:28:15Z</time>
      </trkpt>
      <trkpt lat="27.87569500" lon="-15.6725830">
        <ele>309.22700</ele>
        <time>2009-01-05T10:28:16Z</time>
      </trkpt>
      <trkpt lat="27.87570300" lon="-15.6726090">
        <ele>309.45600</ele>
        <time>2009-01-05T10:28:17Z</time>
      </trkpt>
      <trkpt lat="27.87571000" lon="-15.6726350">
        <ele>309.48200</ele>
        <time>2009-01-05T10:28:18Z</time>
      </trkpt>
      <trkpt lat="27.87571500" lon="-15.6726610">
        <ele>309.47000</ele>
        <time>2009-01-05T10:28:19Z</time>
      </trkpt>
      <trkpt lat="27.87571700" lon="-15.6726870">
        <ele>309.86600</ele>
        <time>2009-01-05T10:28:20Z</time>
      </trkpt>
      <trkpt lat="27.87571900" lon="-15.6727130">
        <ele>309.98400</ele>
        <time>2009-01-05T10:28:21Z</time>
      </trkpt>
      <trkpt lat="27.87572000" lon="-15.6727390">
        <ele>310.31900</ele>
        <time>2009-01-05T10:28:22Z</time>
      </trkpt>
      <trkpt lat="27.87572000" lon="-15.6727640">
        <ele>310.79200</ele>
        <time>2009-01-05T10:28:23Z</time>
      </trkpt>
      <trkpt lat="27.87571900" lon="-15.6727890">
        <ele>310.60400</ele>
        <time>2009-01-05T10:28:24Z</time>
      </trkpt>
      <trkpt lat="27.87572000" lon="-15.6728150">
        <ele>311.33200</ele>
        <time>2009-01-05T10:28:25Z</time>
      </trkpt>
      <trkpt lat="27.87572100" lon="-15.6728400">
        <ele>311.31600</ele>
        <time>2009-01-05T10:28:26Z</time>
      </trkpt>
      <trkpt lat="27.87572100" lon="-15.6728640">
        <ele>311.57100</ele>
        <time>2009-01-05T10:28:27Z</time>
      </trkpt>
      <trkpt lat="27.87572000" lon="-15.6728900">
        <ele>311.67100</ele>
        <time>2009-01-05T10:28:28Z</time>
      </trkpt>
      <trkpt lat="27.87571700" lon="-15.6729160">
        <ele>312.13600</ele>
        <time>2009-01-05T10:28:29Z</time>
      </trkpt>
      <trkpt lat="27.87571500" lon="-15.6729420">
        <ele>312.12200</ele>
        <time>2009-01-05T10:28:30Z</time>
      </trkpt>
      <trkpt lat="27.87571300" lon="-15.6729690">
        <ele>312.35100</ele>
        <time>2009-01-05T10:28:31Z</time>
      </trkpt>
      <trkpt lat="27.87571100" lon="-15.6729960">
        <ele>312.72100</ele>
        <time>2009-01-05T10:28:32Z</time>
      </trkpt>
      <trkpt lat="27.87571000" lon="-15.6730240">
        <ele>312.92100</ele>
        <time>2009-01-05T10:28:33Z</time>
      </trkpt>
      <trkpt lat="27.87571000" lon="-15.6730510">
        <ele>312.91500</ele>
        <time>2009-01-05T10:28:34Z</time>
      </trkpt>
      <trkpt lat="27.87571000" lon="-15.6730780">
        <ele>313.38800</ele>
        <time>2009-01-05T10:28:35Z</time>
      </trkpt>
      <trkpt lat="27.87571300" lon="-15.6731050">
        <ele>313.63100</ele>
        <time>2009-01-05T10:28:36Z</time>
      </trkpt>
      <trkpt lat="27.87571900" lon="-15.6731310">
        <ele>313.78600</ele>
        <time>2009-01-05T10:28:37Z</time>
      </trkpt>
      <trkpt lat="27.87573000" lon="-15.6731540">
        <ele>313.98100</ele>
        <time>2009-01-05T10:28:38Z</time>
      </trkpt>
      <trkpt lat="27.87574300" lon="-15.6731760">
        <ele>314.37700</ele>
        <time>2009-01-05T10:28:39Z</time>
      </trkpt>
      <trkpt lat="27.87575900" lon="-15.6731960">
        <ele>314.58000</ele>
        <time>2009-01-05T10:28:40Z</time>
      </trkpt>
      <trkpt lat="27.87577500" lon="-15.6732150">
        <ele>314.85100</ele>
        <time>2009-01-05T10:28:41Z</time>
      </trkpt>
      <trkpt lat="27.87579200" lon="-15.6732330">
        <ele>314.92200</ele>
        <time>2009-01-05T10:28:42Z</time>
      </trkpt>
      <trkpt lat="27.87581000" lon="-15.6732500">
        <ele>314.94800</ele>
        <time>2009-01-05T10:28:43Z</time>
      </trkpt>
      <trkpt lat="27.87582800" lon="-15.6732670">
        <ele>315.45200</ele>
        <time>2009-01-05T10:28:44Z</time>
      </trkpt>
      <trkpt lat="27.87584600" lon="-15.6732840">
        <ele>315.54100</ele>
        <time>2009-01-05T10:28:45Z</time>
      </trkpt>
      <trkpt lat="27.87586300" lon="-15.6733000">
        <ele>315.74400</ele>
        <time>2009-01-05T10:28:46Z</time>
      </trkpt>
      <trkpt lat="27.87587800" lon="-15.6733180">
        <ele>315.85700</ele>
        <time>2009-01-05T10:28:47Z</time>
      </trkpt>
      <trkpt lat="27.87589300" lon="-15.6733370">
        <ele>315.96700</ele>
        <time>2009-01-05T10:28:48Z</time>
      </trkpt>
      <trkpt lat="27.87590800" lon="-15.6733560">
        <ele>316.49500</ele>
        <time>2009-01-05T10:28:49Z</time>
      </trkpt>
      <trkpt lat="27.87592300" lon="-15.6733740">
        <ele>316.66400</ele>
        <time>2009-01-05T10:28:50Z</time>
      </trkpt>
      <trkpt lat="27.87593700" lon="-15.6733920">
        <ele>316.86900</ele>
        <time>2009-01-05T10:28:51Z</time>
      </trkpt>
      <trkpt lat="27.87595200" lon="-15.6734110">
        <ele>317.02700</ele>
        <time>2009-01-05T10:28:52Z</time>
      </trkpt>
      <trkpt lat="27.87596600" lon="-15.6734300">
        <ele>317.12900</ele>
        <time>2009-01-05T10:28:53Z</time>
      </trkpt>
      <trkpt lat="27.87598000" lon="-15.6734480">
        <ele>317.58300</ele>
        <time>2009-01-05T10:28:54Z</time>
      </trkpt>
      <trkpt lat="27.87599200" lon="-15.6734680">
        <ele>317.59000</ele>
        <time>2009-01-05T10:28:55Z</time>
      </trkpt>
      <trkpt lat="27.87600300" lon="-15.6734890">
        <ele>318.23400</ele>
        <time>2009-01-05T10:28:56Z</time>
      </trkpt>
      <trkpt lat="27.87601600" lon="-15.6735120">
        <ele>317.99500</ele>
        <time>2009-01-05T10:28:57Z</time>
      </trkpt>
      <trkpt lat="27.87602900" lon="-15.6735350">
        <ele>318.31400</ele>
        <time>2009-01-05T10:28:58Z</time>
      </trkpt>
      <trkpt lat="27.87604100" lon="-15.6735580">
        <ele>318.44500</ele>
        <time>2009-01-05T10:28:59Z</time>
      </trkpt>
      <trkpt lat="27.87605300" lon="-15.6735800">
        <ele>318.75400</ele>
        <time>2009-01-05T10:29:00Z</time>
      </trkpt>
      <trkpt lat="27.87606500" lon="-15.6736030">
        <ele>319.19100</ele>
        <time>2009-01-05T10:29:01Z</time>
      </trkpt>
      <trkpt lat="27.87607600" lon="-15.6736250">
        <ele>319.47000</ele>
        <time>2009-01-05T10:29:02Z</time>
      </trkpt>
      <trkpt lat="27.87608700" lon="-15.6736480">
        <ele>319.30000</ele>
        <time>2009-01-05T10:29:03Z</time>
      </trkpt>
      <trkpt lat="27.87609700" lon="-15.6736720">
        <ele>319.58200</ele>
        <time>2009-01-05T10:29:04Z</time>
      </trkpt>
      <trkpt lat="27.87610700" lon="-15.6736960">
        <ele>319.77300</ele>
        <time>2009-01-05T10:29:05Z</time>
      </trkpt>
      <trkpt lat="27.87611800" lon="-15.6737200">
        <ele>320.13900</ele>
        <time>2009-01-05T10:29:06Z</time>
      </trkpt>
      <trkpt lat="27.87613000" lon="-15.6737440">
        <ele>320.13800</ele>
        <time>2009-01-05T10:29:07Z</time>
      </trkpt>
      <trkpt lat="27.87614300" lon="-15.6737680">
        <ele>320.18500</ele>
        <time>2009-01-05T10:29:08Z</time>
      </trkpt>
      <trkpt lat="27.87615400" lon="-15.6737910">
        <ele>320.67000</ele>
        <time>2009-01-05T10:29:09Z</time>
      </trkpt>
      <trkpt lat="27.87616400" lon="-15.6738170">
        <ele>320.53700</ele>
        <time>2009-01-05T10:29:10Z</time>
      </trkpt>
      <trkpt lat="27.87617600" lon="-15.6738430">
        <ele>320.99000</ele>
        <time>2009-01-05T10:29:11Z</time>
      </trkpt>
      <trkpt lat="27.87618700" lon="-15.6738700">
        <ele>321.07400</ele>
        <time>2009-01-05T10:29:12Z</time>
      </trkpt>
      <trkpt lat="27.87619800" lon="-15.6738980">
        <ele>321.46700</ele>
        <time>2009-01-05T10:29:13Z</time>
      </trkpt>
      <trkpt lat="27.87620700" lon="-15.6739260">
        <ele>321.57200</ele>
        <time>2009-01-05T10:29:14Z</time>
      </trkpt>
      <trkpt lat="27.87621300" lon="-15.6739540">
        <ele>321.66300</ele>
        <time>2009-01-05T10:29:15Z</time>
      </trkpt>
      <trkpt lat="27.87621800" lon="-15.6739830">
        <ele>321.82300</ele>
        <time>2009-01-05T10:29:16Z</time>
      </trkpt>
      <trkpt lat="27.87622100" lon="-15.6740120">
        <ele>322.07900</ele>
        <time>2009-01-05T10:29:17Z</time>
      </trkpt>
      <trkpt lat="27.87622400" lon="-15.6740400">
        <ele>322.21000</ele>
        <time>2009-01-05T10:29:18Z</time>
      </trkpt>
      <trkpt lat="27.87622600" lon="-15.6740690">
        <ele>322.67900</ele>
        <time>2009-01-05T10:29:19Z</time>
      </trkpt>
      <trkpt lat="27.87622700" lon="-15.6740970">
        <ele>322.64200</ele>
        <time>2009-01-05T10:29:20Z</time>
      </trkpt>
      <trkpt lat="27.87622600" lon="-15.6741240">
        <ele>322.94500</ele>
        <time>2009-01-05T10:29:21Z</time>
      </trkpt>
      <trkpt lat="27.87622400" lon="-15.6741510">
        <ele>323.39600</ele>
        <time>2009-01-05T10:29:22Z</time>
      </trkpt>
      <trkpt lat="27.87622200" lon="-15.6741770">
        <ele>323.40300</ele>
        <time>2009-01-05T10:29:23Z</time>
      </trkpt>
      <trkpt lat="27.87622000" lon="-15.6742020">
        <ele>324.07800</ele>
        <time>2009-01-05T10:29:24Z</time>
      </trkpt>
      <trkpt lat="27.87621600" lon="-15.6742270">
        <ele>324.11400</ele>
        <time>2009-01-05T10:29:25Z</time>
      </trkpt>
      <trkpt lat="27.87621200" lon="-15.6742530">
        <ele>324.20300</ele>
        <time>2009-01-05T10:29:26Z</time>
      </trkpt>
      <trkpt lat="27.87621000" lon="-15.6742780">
        <ele>324.45300</ele>
        <time>2009-01-05T10:29:27Z</time>
      </trkpt>
      <trkpt lat="27.87621100" lon="-15.6743040">
        <ele>324.81700</ele>
        <time>2009-01-05T10:29:28Z</time>
      </trkpt>
      <trkpt lat="27.87621600" lon="-15.6743300">
        <ele>324.79000</ele>
        <time>2009-01-05T10:29:29Z</time>
      </trkpt>
      <trkpt lat="27.87622600" lon="-15.6743540">
        <ele>324.95800</ele>
        <time>2009-01-05T10:29:30Z</time>
      </trkpt>
      <trkpt lat="27.87623900" lon="-15.6743770">
        <ele>325.30100</ele>
        <time>2009-01-05T10:29:31Z</time>
      </trkpt>
      <trkpt lat="27.87625600" lon="-15.6743970">
        <ele>325.41600</ele>
        <time>2009-01-05T10:29:32Z</time>
      </trkpt>
      <trkpt lat="27.87627600" lon="-15.6744110">
        <ele>325.69600</ele>
        <time>2009-01-05T10:29:33Z</time>
      </trkpt>
      <trkpt lat="27.87629900" lon="-15.6744170">
        <ele>326.03600</ele>
        <time>2009-01-05T10:29:34Z</time>
      </trkpt>
      <trkpt lat="27.87632300" lon="-15.6744190">
        <ele>326.24900</ele>
        <time>2009-01-05T10:29:35Z</time>
      </trkpt>
      <trkpt lat="27.87634600" lon="-15.6744190">
        <ele>326.33800</ele>
        <time>2009-01-05T10:29:36Z</time>
      </trkpt>
      <trkpt lat="27.87637000" lon="-15.6744150">
        <ele>326.88400</ele>
        <time>2009-01-05T10:29:37Z</time>
      </trkpt>
      <trkpt lat="27.87639500" lon="-15.6744100">
        <ele>327.04700</ele>
        <time>2009-01-05T10:29:38Z</time>
      </trkpt>
      <trkpt lat="27.87642000" lon="-15.6744090">
        <ele>327.24200</ele>
        <time>2009-01-05T10:29:39Z</time>
      </trkpt>
      <trkpt lat="27.87644500" lon="-15.6744120">
        <ele>327.36000</ele>
        <time>2009-01-05T10:29:40Z</time>
      </trkpt>
      <trkpt lat="27.87646900" lon="-15.6744190">
        <ele>327.56200</ele>
        <time>2009-01-05T10:29:41Z</time>
      </trkpt>
      <trkpt lat="27.87649000" lon="-15.6744310">
        <ele>327.85800</ele>
        <time>2009-01-05T10:29:42Z</time>
      </trkpt>
      <trkpt lat="27.87651100" lon="-15.6744470">
        <ele>328.06500</ele>
        <time>2009-01-05T10:29:43Z</time>
      </trkpt>
      <trkpt lat="27.87653100" lon="-15.6744650">
        <ele>328.48700</ele>
        <time>2009-01-05T10:29:44Z</time>
      </trkpt>
      <trkpt lat="27.87655100" lon="-15.6744830">
        <ele>328.54200</ele>
        <time>2009-01-05T10:29:45Z</time>
      </trkpt>
      <trkpt lat="27.87656800" lon="-15.6745050">
        <ele>328.76300</ele>
        <time>2009-01-05T10:29:46Z</time>
      </trkpt>
      <trkpt lat="27.87658400" lon="-15.6745280">
        <ele>328.92000</ele>
        <time>2009-01-05T10:29:47Z</time>
      </trkpt>
      <trkpt lat="27.87659800" lon="-15.6745510">
        <ele>329.33100</ele>
        <time>2009-01-05T10:29:48Z</time>
      </trkpt>
      <trkpt lat="27.87661100" lon="-15.6745750">
        <ele>329.55800</ele>
        <time>2009-01-05T10:29:49Z</time>
      </trkpt>
      <trkpt lat="27.87662400" lon="-15.6745980">
        <ele>329.70500</ele>
        <time>2009-01-05T10:29:50Z</time>
      </trkpt>
      <trkpt lat="27.87663900" lon="-15.6746220">
        <ele>329.56900</ele>
        <time>2009-01-05T10:29:51Z</time>
      </trkpt>
      <trkpt lat="27.87665300" lon="-15.6746460">
        <ele>330.18300</ele>
        <time>2009-01-05T10:29:52Z</time>
      </trkpt>
      <trkpt lat="27.87666700" lon="-15.6746690">
        <ele>330.28800</ele>
        <time>2009-01-05T10:29:53Z</time>
      </trkpt>
      <trkpt lat="27.87668100" lon="-15.6746940">
        <ele>330.58300</ele>
        <time>2009-01-05T10:29:54Z</time>
      </trkpt>
      <trkpt lat="27.87669300" lon="-15.6747180">
        <ele>331.08900</ele>
        <time>2009-01-05T10:29:55Z</time>
      </trkpt>
      <trkpt lat="27.87670700" lon="-15.6747440">
        <ele>331.05100</ele>
        <time>2009-01-05T10:29:56Z</time>
      </trkpt>
      <trkpt lat="27.87671900" lon="-15.6747690">
        <ele>331.42300</ele>
        <time>2009-01-05T10:29:57Z</time>
      </trkpt>
      <trkpt lat="27.87673000" lon="-15.6747940">
        <ele>331.81300</ele>
        <time>2009-01-05T10:29:58Z</time>
      </trkpt>
      <trkpt lat="27.87674100" lon="-15.6748180">
        <ele>331.84800</ele>
        <time>2009-01-05T10:29:59Z</time>
      </trkpt>
      <trkpt lat="27.87675500" lon="-15.6748440">
        <ele>332.43100</ele>
        <time>2009-01-05T10:30:00Z</time>
      </trkpt>
      <trkpt lat="27.87676800" lon="-15.6748680">
        <ele>332.44900</ele>
        <time>2009-01-05T10:30:01Z</time>
      </trkpt>
      <trkpt lat="27.87678300" lon="-15.6748940">
        <ele>332.57100</ele>
        <time>2009-01-05T10:30:02Z</time>
      </trkpt>
      <trkpt lat="27.87679400" lon="-15.6749190">
        <ele>332.94300</ele>
        <time>2009-01-05T10:30:03Z</time>
      </trkpt>
      <trkpt lat="27.87680300" lon="-15.6749450">
        <ele>333.06900</ele>
        <time>2009-01-05T10:30:04Z</time>
      </trkpt>
      <trkpt lat="27.87681000" lon="-15.6749700">
        <ele>333.15700</ele>
        <time>2009-01-05T10:30:05Z</time>
      </trkpt>
      <trkpt lat="27.87681500" lon="-15.6749970">
        <ele>333.61100</ele>
        <time>2009-01-05T10:30:06Z</time>
      </trkpt>
      <trkpt lat="27.87681800" lon="-15.6750220">
        <ele>334.10900</ele>
        <time>2009-01-05T10:30:07Z</time>
      </trkpt>
      <trkpt lat="27.87682200" lon="-15.6750470">
        <ele>334.20800</ele>
        <time>2009-01-05T10:30:08Z</time>
      </trkpt>
      <trkpt lat="27.87682700" lon="-15.6750710">
        <ele>334.46100</ele>
        <time>2009-01-05T10:30:09Z</time>
      </trkpt>
      <trkpt lat="27.87683300" lon="-15.6750950">
        <ele>334.71600</ele>
        <time>2009-01-05T10:30:10Z</time>
      </trkpt>
      <trkpt lat="27.87684300" lon="-15.6751190">
        <ele>334.91900</ele>
        <time>2009-01-05T10:30:11Z</time>
      </trkpt>
      <trkpt lat="27.87685400" lon="-15.6751410">
        <ele>335.56500</ele>
        <time>2009-01-05T10:30:12Z</time>
      </trkpt>
      <trkpt lat="27.87686700" lon="-15.6751630">
        <ele>335.83600</ele>
        <time>2009-01-05T10:30:13Z</time>
      </trkpt>
      <trkpt lat="27.87688000" lon="-15.6751830">
        <ele>335.98300</ele>
        <time>2009-01-05T10:30:14Z</time>
      </trkpt>
      <trkpt lat="27.87689500" lon="-15.6752030">
        <ele>336.13800</ele>
        <time>2009-01-05T10:30:15Z</time>
      </trkpt>
      <trkpt lat="27.87691100" lon="-15.6752220">
        <ele>336.20600</ele>
        <time>2009-01-05T10:30:16Z</time>
      </trkpt>
      <trkpt lat="27.87692800" lon="-15.6752400">
        <ele>336.74400</ele>
        <time>2009-01-05T10:30:17Z</time>
      </trkpt>
      <trkpt lat="27.87694400" lon="-15.6752560">
        <ele>337.04200</ele>
        <time>2009-01-05T10:30:18Z</time>
      </trkpt>
      <trkpt lat="27.87696000" lon="-15.6752700">
        <ele>337.38400</ele>
        <time>2009-01-05T10:30:19Z</time>
      </trkpt>
      <trkpt lat="27.87697700" lon="-15.6752850">
        <ele>337.43300</ele>
        <time>2009-01-05T10:30:20Z</time>
      </trkpt>
      <trkpt lat="27.87699400" lon="-15.6753020">
        <ele>337.82900</ele>
        <time>2009-01-05T10:30:21Z</time>
      </trkpt>
      <trkpt lat="27.87701000" lon="-15.6753200">
        <ele>337.97600</ele>
        <time>2009-01-05T10:30:22Z</time>
      </trkpt>
      <trkpt lat="27.87702800" lon="-15.6753370">
        <ele>338.39500</ele>
        <time>2009-01-05T10:30:23Z</time>
      </trkpt>
      <trkpt lat="27.87704500" lon="-15.6753540">
        <ele>338.71600</ele>
        <time>2009-01-05T10:30:24Z</time>
      </trkpt>
      <trkpt lat="27.87706300" lon="-15.6753710">
        <ele>338.62000</ele>
        <time>2009-01-05T10:30:25Z</time>
      </trkpt>
      <trkpt lat="27.87708100" lon="-15.6753890">
        <ele>339.10500</ele>
        <time>2009-01-05T10:30:26Z</time>
      </trkpt>
      <trkpt lat="27.87709900" lon="-15.6754070">
        <ele>339.25000</ele>
        <time>2009-01-05T10:30:27Z</time>
      </trkpt>
      <trkpt lat="27.87711700" lon="-15.6754250">
        <ele>339.49200</ele>
        <time>2009-01-05T10:30:28Z</time>
      </trkpt>
      <trkpt lat="27.87713500" lon="-15.6754430">
        <ele>339.89800</ele>
        <time>2009-01-05T10:30:29Z</time>
      </trkpt>
      <trkpt lat="27.87715300" lon="-15.6754600">
        <ele>340.13200</ele>
        <time>2009-01-05T10:30:30Z</time>
      </trkpt>
      <trkpt lat="27.87717200" lon="-15.6754770">
        <ele>340.26100</ele>
        <time>2009-01-05T10:30:31Z</time>
      </trkpt>
      <trkpt lat="27.87719000" lon="-15.6754940">
        <ele>340.50000</ele>
        <time>2009-01-05T10:30:32Z</time>
      </trkpt>
      <trkpt lat="27.87720700" lon="-15.6755120">
        <ele>340.67100</ele>
        <time>2009-01-05T10:30:33Z</time>
      </trkpt>
      <trkpt lat="27.87722400" lon="-15.6755300">
        <ele>341.20100</ele>
        <time>2009-01-05T10:30:34Z</time>
      </trkpt>
      <trkpt lat="27.87724100" lon="-15.6755500">
        <ele>340.99600</ele>
        <time>2009-01-05T10:30:35Z</time>
      </trkpt>
      <trkpt lat="27.87725600" lon="-15.6755690">
        <ele>341.37000</ele>
        <time>2009-01-05T10:30:36Z</time>
      </trkpt>
      <trkpt lat="27.87727500" lon="-15.6755890">
        <ele>341.47800</ele>
        <time>2009-01-05T10:30:37Z</time>
      </trkpt>
      <trkpt lat="27.87729300" lon="-15.6756090">
        <ele>341.78300</ele>
        <time>2009-01-05T10:30:38Z</time>
      </trkpt>
      <trkpt lat="27.87731000" lon="-15.6756290">
        <ele>342.02000</ele>
        <time>2009-01-05T10:30:39Z</time>
      </trkpt>
      <trkpt lat="27.87733000" lon="-15.6756500">
        <ele>341.89500</ele>
        <time>2009-01-05T10:30:40Z</time>
      </trkpt>
      <trkpt lat="27.87735200" lon="-15.6756710">
        <ele>342.23500</ele>
        <time>2009-01-05T10:30:41Z</time>
      </trkpt>
      <trkpt lat="27.87736600" lon="-15.6756890">
        <ele>342.39900</ele>
        <time>2009-01-05T10:30:42Z</time>
      </trkpt>
      <trkpt lat="27.87738600" lon="-15.6757070">
        <ele>342.85300</ele>
        <time>2009-01-05T10:30:43Z</time>
      </trkpt>
      <trkpt lat="27.87741100" lon="-15.6757250">
        <ele>343.21900</ele>
        <time>2009-01-05T10:30:44Z</time>
      </trkpt>
      <trkpt lat="27.87743300" lon="-15.6757420">
        <ele>343.31100</ele>
        <time>2009-01-05T10:30:45Z</time>
      </trkpt>
      <trkpt lat="27.87745600" lon="-15.6757550">
        <ele>343.63300</ele>
        <time>2009-01-05T10:30:46Z</time>
      </trkpt>
      <trkpt lat="27.87747900" lon="-15.6757640">
        <ele>343.75700</ele>
        <time>2009-01-05T10:30:47Z</time>
      </trkpt>
      <trkpt lat="27.87750300" lon="-15.6757690">
        <ele>344.37000</ele>
        <time>2009-01-05T10:30:48Z</time>
      </trkpt>
      <trkpt lat="27.87752600" lon="-15.6757720">
        <ele>344.61000</ele>
        <time>2009-01-05T10:30:49Z</time>
      </trkpt>
      <trkpt lat="27.87754900" lon="-15.6757720">
        <ele>344.66800</ele>
        <time>2009-01-05T10:30:50Z</time>
      </trkpt>
      <trkpt lat="27.87757200" lon="-15.6757680">
        <ele>344.88400</ele>
        <time>2009-01-05T10:30:51Z</time>
      </trkpt>
      <trkpt lat="27.87759400" lon="-15.6757630">
        <ele>345.05600</ele>
        <time>2009-01-05T10:30:52Z</time>
      </trkpt>
      <trkpt lat="27.87761700" lon="-15.6757580">
        <ele>345.41500</ele>
        <time>2009-01-05T10:30:53Z</time>
      </trkpt>
      <trkpt lat="27.87763900" lon="-15.6757520">
        <ele>345.60800</ele>
        <time>2009-01-05T10:30:54Z</time>
      </trkpt>
      <trkpt lat="27.87766100" lon="-15.6757450">
        <ele>345.98800</ele>
        <time>2009-01-05T10:30:55Z</time>
      </trkpt>
      <trkpt lat="27.87768200" lon="-15.6757370">
        <ele>346.17100</ele>
        <time>2009-01-05T10:30:56Z</time>
      </trkpt>
      <trkpt lat="27.87770500" lon="-15.6757300">
        <ele>346.63300</ele>
        <time>2009-01-05T10:30:57Z</time>
      </trkpt>
      <trkpt lat="27.87772700" lon="-15.6757220">
        <ele>346.69100</ele>
        <time>2009-01-05T10:30:58Z</time>
      </trkpt>
      <trkpt lat="27.87775000" lon="-15.6757120">
        <ele>346.84100</ele>
        <time>2009-01-05T10:30:59Z</time>
      </trkpt>
      <trkpt lat="27.87777100" lon="-15.6756990">
        <ele>347.03900</ele>
        <time>2009-01-05T10:31:00Z</time>
      </trkpt>
      <trkpt lat="27.87779000" lon="-15.6756840">
        <ele>347.37400</ele>
        <time>2009-01-05T10:31:01Z</time>
      </trkpt>
      <trkpt lat="27.87780800" lon="-15.6756660">
        <ele>347.32900</ele>
        <time>2009-01-05T10:31:02Z</time>
      </trkpt>
      <trkpt lat="27.87782500" lon="-15.6756440">
        <ele>348.00800</ele>
        <time>2009-01-05T10:31:03Z</time>
      </trkpt>
      <trkpt lat="27.87783600" lon="-15.6756190">
        <ele>347.80200</ele>
        <time>2009-01-05T10:31:04Z</time>
      </trkpt>
      <trkpt lat="27.87784100" lon="-15.6755920">
        <ele>348.31400</ele>
        <time>2009-01-05T10:31:05Z</time>
      </trkpt>
      <trkpt lat="27.87783800" lon="-15.6755640">
        <ele>348.27700</ele>
        <time>2009-01-05T10:31:06Z</time>
      </trkpt>
      <trkpt lat="27.87782700" lon="-15.6755390">
        <ele>348.63300</ele>
        <time>2009-01-05T10:31:07Z</time>
      </trkpt>
      <trkpt lat="27.87781500" lon="-15.6755150">
        <ele>349.10400</ele>
        <time>2009-01-05T10:31:08Z</time>
      </trkpt>
      <trkpt lat="27.87780400" lon="-15.6754910">
        <ele>349.12700</ele>
        <time>2009-01-05T10:31:09Z</time>
      </trkpt>
      <trkpt lat="27.87779400" lon="-15.6754660">
        <ele>349.50300</ele>
        <time>2009-01-05T10:31:10Z</time>
      </trkpt>
      <trkpt lat="27.87778400" lon="-15.6754410">
        <ele>349.85400</ele>
        <time>2009-01-05T10:31:11Z</time>
      </trkpt>
      <trkpt lat="27.87777200" lon="-15.6754160">
        <ele>350.19800</ele>
        <time>2009-01-05T10:31:12Z</time>
      </trkpt>
      <trkpt lat="27.87776100" lon="-15.6753920">
        <ele>350.51500</ele>
        <time>2009-01-05T10:31:13Z</time>
      </trkpt>
      <trkpt lat="27.87775000" lon="-15.6753670">
        <ele>350.46300</ele>
        <time>2009-01-05T10:31:14Z</time>
      </trkpt>
      <trkpt lat="27.87774000" lon="-15.6753410">
        <ele>350.78800</ele>
        <time>2009-01-05T10:31:15Z</time>
      </trkpt>
      <trkpt lat="27.87772900" lon="-15.6753130">
        <ele>350.91900</ele>
        <time>2009-01-05T10:31:16Z</time>
      </trkpt>
      <trkpt lat="27.87771800" lon="-15.6752840">
        <ele>351.20800</ele>
        <time>2009-01-05T10:31:17Z</time>
      </trkpt>
      <trkpt lat="27.87770700" lon="-15.6752560">
        <ele>351.38800</ele>
        <time>2009-01-05T10:31:18Z</time>
      </trkpt>
      <trkpt lat="27.87769700" lon="-15.6752280">
        <ele>351.78600</ele>
        <time>2009-01-05T10:31:19Z</time>
      </trkpt>
      <trkpt lat="27.87768600" lon="-15.6752000">
        <ele>352.07300</ele>
        <time>2009-01-05T10:31:20Z</time>
      </trkpt>
      <trkpt lat="27.87767600" lon="-15.6751730">
        <ele>352.35700</ele>
        <time>2009-01-05T10:31:21Z</time>
      </trkpt>
      <trkpt lat="27.87766500" lon="-15.6751470">
        <ele>352.28200</ele>
        <time>2009-01-05T10:31:22Z</time>
      </trkpt>
      <trkpt lat="27.87765400" lon="-15.6751210">
        <ele>352.68800</ele>
        <time>2009-01-05T10:31:23Z</time>
      </trkpt>
      <trkpt lat="27.87764500" lon="-15.6750930">
        <ele>352.78000</ele>
        <time>2009-01-05T10:31:24Z</time>
      </trkpt>
      <trkpt lat="27.87763500" lon="-15.6750650">
        <ele>353.08800</ele>
        <time>2009-01-05T10:31:25Z</time>
      </trkpt>
      <trkpt lat="27.87762700" lon="-15.6750360">
        <ele>353.47100</ele>
        <time>2009-01-05T10:31:26Z</time>
      </trkpt>
      <trkpt lat="27.87762300" lon="-15.6750060">
        <ele>353.78500</ele>
        <time>2009-01-05T10:31:27Z</time>
      </trkpt>
      <trkpt lat="27.87762200" lon="-15.6749760">
        <ele>353.95800</ele>
        <time>2009-01-05T10:31:28Z</time>
      </trkpt>
      <trkpt lat="27.87762200" lon="-15.6749460">
        <ele>354.12100</ele>
        <time>2009-01-05T10:31:29Z</time>
      </trkpt>
      <trkpt lat="27.87762500" lon="-15.6749180">
        <ele>354.34300</ele>
        <time>2009-01-05T10:31:30Z</time>
      </trkpt>
      <trkpt lat="27.87763000" lon="-15.6748910">
        <ele>354.56100</ele>
        <time>2009-01-05T10:31:31Z</time>
      </trkpt>
      <trkpt lat="27.87764100" lon="-15.6748660">
        <ele>355.19100</ele>
        <time>2009-01-05T10:31:32Z</time>
      </trkpt>
      <trkpt lat="27.87765800" lon="-15.6748440">
        <ele>355.58100</ele>
        <time>2009-01-05T10:31:33Z</time>
      </trkpt>
      <trkpt lat="27.87767800" lon="-15.6748260">
        <ele>355.30000</ele>
        <time>2009-01-05T10:31:34Z</time>
      </trkpt>
      <trkpt lat="27.87769900" lon="-15.6748100">
        <ele>355.94600</ele>
        <time>2009-01-05T10:31:35Z</time>
      </trkpt>
      <trkpt lat="27.87772000" lon="-15.6747940">
        <ele>355.91900</ele>
        <time>2009-01-05T10:31:36Z</time>
      </trkpt>
      <trkpt lat="27.87774000" lon="-15.6747780">
        <ele>356.19800</ele>
        <time>2009-01-05T10:31:37Z</time>
      </trkpt>
      <trkpt lat="27.87776100" lon="-15.6747650">
        <ele>356.41600</ele>
        <time>2009-01-05T10:31:38Z</time>
      </trkpt>
      <trkpt lat="27.87778500" lon="-15.6747530">
        <ele>356.52900</ele>
        <time>2009-01-05T10:31:39Z</time>
      </trkpt>
      <trkpt lat="27.87781000" lon="-15.6747430">
        <ele>356.80300</ele>
        <time>2009-01-05T10:31:40Z</time>
      </trkpt>
      <trkpt lat="27.87783400" lon="-15.6747300">
        <ele>357.04000</ele>
        <time>2009-01-05T10:31:41Z</time>
      </trkpt>
      <trkpt lat="27.87785700" lon="-15.6747130">
        <ele>357.42700</ele>
        <time>2009-01-05T10:31:42Z</time>
      </trkpt>
      <trkpt lat="27.87787900" lon="-15.6746930">
        <ele>357.47700</ele>
        <time>2009-01-05T10:31:43Z</time>
      </trkpt>
      <trkpt lat="27.87789900" lon="-15.6746730">
        <ele>357.74600</ele>
        <time>2009-01-05T10:31:44Z</time>
      </trkpt>
      <trkpt lat="27.87791600" lon="-15.6746520">
        <ele>357.94300</ele>
        <time>2009-01-05T10:31:45Z</time>
      </trkpt>
      <trkpt lat="27.87792900" lon="-15.6746280">
        <ele>358.16200</ele>
        <time>2009-01-05T10:31:46Z</time>
      </trkpt>
      <trkpt lat="27.87793800" lon="-15.6746030">
        <ele>358.51500</ele>
        <time>2009-01-05T10:31:47Z</time>
      </trkpt>
      <trkpt lat="27.87794500" lon="-15.6745770">
        <ele>358.73700</ele>
        <time>2009-01-05T10:31:48Z</time>
      </trkpt>
      <trkpt lat="27.87795000" lon="-15.6745500">
        <ele>358.84900</ele>
        <time>2009-01-05T10:31:49Z</time>
      </trkpt>
      <trkpt lat="27.87795400" lon="-15.6745220">
        <ele>358.85400</ele>
        <time>2009-01-05T10:31:50Z</time>
      </trkpt>
      <trkpt lat="27.87795500" lon="-15.6744940">
        <ele>359.25500</ele>
        <time>2009-01-05T10:31:51Z</time>
      </trkpt>
      <trkpt lat="27.87795300" lon="-15.6744670">
        <ele>359.43400</ele>
        <time>2009-01-05T10:31:52Z</time>
      </trkpt>
      <trkpt lat="27.87794800" lon="-15.6744400">
        <ele>359.62900</ele>
        <time>2009-01-05T10:31:53Z</time>
      </trkpt>
      <trkpt lat="27.87794000" lon="-15.6744140">
        <ele>360.04800</ele>
        <time>2009-01-05T10:31:54Z</time>
      </trkpt>
      <trkpt lat="27.87793000" lon="-15.6743900">
        <ele>360.31700</ele>
        <time>2009-01-05T10:31:55Z</time>
      </trkpt>
      <trkpt lat="27.87792000" lon="-15.6743670">
        <ele>360.46200</ele>
        <time>2009-01-05T10:31:56Z</time>
      </trkpt>
      <trkpt lat="27.87791000" lon="-15.6743430">
        <ele>360.97400</ele>
        <time>2009-01-05T10:31:57Z</time>
      </trkpt>
      <trkpt lat="27.87790000" lon="-15.6743190">
        <ele>361.05500</ele>
        <time>2009-01-05T10:31:58Z</time>
      </trkpt>
      <trkpt lat="27.87788900" lon="-15.6742940">
        <ele>361.39200</ele>
        <time>2009-01-05T10:31:59Z</time>
      </trkpt>
      <trkpt lat="27.87787800" lon="-15.6742700">
        <ele>361.60800</ele>
        <time>2009-01-05T10:32:00Z</time>
      </trkpt>
      <trkpt lat="27.87786500" lon="-15.6742460">
        <ele>362.00100</ele>
        <time>2009-01-05T10:32:01Z</time>
      </trkpt>
      <trkpt lat="27.87785200" lon="-15.6742230">
        <ele>362.04500</ele>
        <time>2009-01-05T10:32:02Z</time>
      </trkpt>
      <trkpt lat="27.87784000" lon="-15.6741990">
        <ele>362.03900</ele>
        <time>2009-01-05T10:32:03Z</time>
      </trkpt>
      <trkpt lat="27.87782800" lon="-15.6741770">
        <ele>362.67500</ele>
        <time>2009-01-05T10:32:04Z</time>
      </trkpt>
      <trkpt lat="27.87781700" lon="-15.6741530">
        <ele>363.09800</ele>
        <time>2009-01-05T10:32:05Z</time>
      </trkpt>
      <trkpt lat="27.87780600" lon="-15.6741290">
        <ele>363.23700</ele>
        <time>2009-01-05T10:32:06Z</time>
      </trkpt>
      <trkpt lat="27.87779200" lon="-15.6741040">
        <ele>363.14900</ele>
        <time>2009-01-05T10:32:07Z</time>
      </trkpt>
      <trkpt lat="27.87777800" lon="-15.6740800">
        <ele>363.39100</ele>
        <time>2009-01-05T10:32:08Z</time>
      </trkpt>
      <trkpt lat="27.87776300" lon="-15.6740560">
        <ele>364.01900</ele>
        <time>2009-01-05T10:32:09Z</time>
      </trkpt>
      <trkpt lat="27.87774800" lon="-15.6740320">
        <ele>364.14000</ele>
        <time>2009-01-05T10:32:10Z</time>
      </trkpt>
      <trkpt lat="27.87773300" lon="-15.6740090">
        <ele>364.34800</ele>
        <time>2009-01-05T10:32:11Z</time>
      </trkpt>
      <trkpt lat="27.87771800" lon="-15.6739870">
        <ele>364.89200</ele>
        <time>2009-01-05T10:32:12Z</time>
      </trkpt>
      <trkpt lat="27.87770100" lon="-15.6739660">
        <ele>365.05500</ele>
        <time>2009-01-05T10:32:13Z</time>
      </trkpt>
      <trkpt lat="27.87768500" lon="-15.6739450">
        <ele>364.88400</ele>
        <time>2009-01-05T10:32:14Z</time>
      </trkpt>
      <trkpt lat="27.87766900" lon="-15.6739240">
        <ele>365.40900</ele>
        <time>2009-01-05T10:32:15Z</time>
      </trkpt>
      <trkpt lat="27.87765500" lon="-15.6739010">
        <ele>365.78700</ele>
        <time>2009-01-05T10:32:16Z</time>
      </trkpt>
      <trkpt lat="27.87764700" lon="-15.6738750">
        <ele>366.17700</ele>
        <time>2009-01-05T10:32:17Z</time>
      </trkpt>
      <trkpt lat="27.87763900" lon="-15.6738490">
        <ele>366.62800</ele>
        <time>2009-01-05T10:32:18Z</time>
      </trkpt>
      <trkpt lat="27.87763600" lon="-15.6738230">
        <ele>366.71900</ele>
        <time>2009-01-05T10:32:19Z</time>
      </trkpt>
      <trkpt lat="27.87763700" lon="-15.6737970">
        <ele>366.95300</ele>
        <time>2009-01-05T10:32:20Z</time>
      </trkpt>
      <trkpt lat="27.87764100" lon="-15.6737710">
        <ele>367.39900</ele>
        <time>2009-01-05T10:32:21Z</time>
      </trkpt>
      <trkpt lat="27.87764700" lon="-15.6737450">
        <ele>367.44800</ele>
        <time>2009-01-05T10:32:22Z</time>
      </trkpt>
      <trkpt lat="27.87765600" lon="-15.6737200">
        <ele>367.82700</ele>
        <time>2009-01-05T10:32:23Z</time>
      </trkpt>
      <trkpt lat="27.87766600" lon="-15.6736960">
        <ele>368.00900</ele>
        <time>2009-01-05T10:32:24Z</time>
      </trkpt>
      <trkpt lat="27.87767700" lon="-15.6736720">
        <ele>368.35900</ele>
        <time>2009-01-05T10:32:25Z</time>
      </trkpt>
      <trkpt lat="27.87768600" lon="-15.6736470">
        <ele>368.81800</ele>
        <time>2009-01-05T10:32:26Z</time>
      </trkpt>
      <trkpt lat="27.87769600" lon="-15.6736220">
        <ele>368.77500</ele>
        <time>2009-01-05T10:32:27Z</time>
      </trkpt>
      <trkpt lat="27.87770600" lon="-15.6735960">
        <ele>369.41900</ele>
        <time>2009-01-05T10:32:28Z</time>
      </trkpt>
      <trkpt lat="27.87771500" lon="-15.6735710">
        <ele>369.42300</ele>
        <time>2009-01-05T10:32:29Z</time>
      </trkpt>
      <trkpt lat="27.87772400" lon="-15.6735450">
        <ele>369.65700</ele>
        <time>2009-01-05T10:32:30Z</time>
      </trkpt>
      <trkpt lat="27.87773300" lon="-15.6735190">
        <ele>370.28700</ele>
        <time>2009-01-05T10:32:31Z</time>
      </trkpt>
      <trkpt lat="27.87774100" lon="-15.6734940">
        <ele>370.25200</ele>
        <time>2009-01-05T10:32:32Z</time>
      </trkpt>
      <trkpt lat="27.87774900" lon="-15.6734680">
        <ele>370.44400</ele>
        <time>2009-01-05T10:32:33Z</time>
      </trkpt>
      <trkpt lat="27.87775600" lon="-15.6734410">
        <ele>370.97900</ele>
        <time>2009-01-05T10:32:34Z</time>
      </trkpt>
      <trkpt lat="27.87776100" lon="-15.6734150">
        <ele>371.18200</ele>
        <time>2009-01-05T10:32:35Z</time>
      </trkpt>
      <trkpt lat="27.87776500" lon="-15.6733880">
        <ele>371.24400</ele>
        <time>2009-01-05T10:32:36Z</time>
      </trkpt>
      <trkpt lat="27.87776800" lon="-15.6733620">
        <ele>371.57600</ele>
        <time>2009-01-05T10:32:37Z</time>
      </trkpt>
      <trkpt lat="27.87777000" lon="-15.6733350">
        <ele>372.16700</ele>
        <time>2009-01-05T10:32:38Z</time>
      </trkpt>
      <trkpt lat="27.87777300" lon="-15.6733090">
        <ele>372.25000</ele>
        <time>2009-01-05T10:32:39Z</time>
      </trkpt>
      <trkpt lat="27.87777800" lon="-15.6732830">
        <ele>372.57200</ele>
        <time>2009-01-05T10:32:40Z</time>
      </trkpt>
      <trkpt lat="27.87778300" lon="-15.6732560">
        <ele>372.94900</ele>
        <time>2009-01-05T10:32:41Z</time>
      </trkpt>
      <trkpt lat="27.87779200" lon="-15.6732310">
        <ele>373.09500</ele>
        <time>2009-01-05T10:32:42Z</time>
      </trkpt>
      <trkpt lat="27.87780400" lon="-15.6732080">
        <ele>373.45100</ele>
        <time>2009-01-05T10:32:43Z</time>
      </trkpt>
      <trkpt lat="27.87782200" lon="-15.6731890">
        <ele>373.88900</ele>
        <time>2009-01-05T10:32:44Z</time>
      </trkpt>
      <trkpt lat="27.87784300" lon="-15.6731770">
        <ele>374.02500</ele>
        <time>2009-01-05T10:32:45Z</time>
      </trkpt>
      <trkpt lat="27.87786800" lon="-15.6731700">
        <ele>374.23700</ele>
        <time>2009-01-05T10:32:46Z</time>
      </trkpt>
      <trkpt lat="27.87789300" lon="-15.6731660">
        <ele>374.33700</ele>
        <time>2009-01-05T10:32:47Z</time>
      </trkpt>
      <trkpt lat="27.87791700" lon="-15.6731610">
        <ele>374.79800</ele>
        <time>2009-01-05T10:32:48Z</time>
      </trkpt>
      <trkpt lat="27.87794100" lon="-15.6731590">
        <ele>375.16900</ele>
        <time>2009-01-05T10:32:49Z</time>
      </trkpt>
      <trkpt lat="27.87796500" lon="-15.6731620">
        <ele>375.31100</ele>
        <time>2009-01-05T10:32:50Z</time>
      </trkpt>
      <trkpt lat="27.87798800" lon="-15.6731680">
        <ele>375.61600</ele>
        <time>2009-01-05T10:32:51Z</time>
      </trkpt>
      <trkpt lat="27.87801100" lon="-15.6731740">
        <ele>375.75700</ele>
        <time>2009-01-05T10:32:52Z</time>
      </trkpt>
      <trkpt lat="27.87803500" lon="-15.6731790">
        <ele>376.37400</ele>
        <time>2009-01-05T10:32:53Z</time>
      </trkpt>
      <trkpt lat="27.87805700" lon="-15.6731840">
        <ele>376.66900</ele>
        <time>2009-01-05T10:32:54Z</time>
      </trkpt>
      <trkpt lat="27.87808100" lon="-15.6731870">
        <ele>376.72300</ele>
        <time>2009-01-05T10:32:55Z</time>
      </trkpt>
      <trkpt lat="27.87810400" lon="-15.6731890">
        <ele>377.10500</ele>
        <time>2009-01-05T10:32:56Z</time>
      </trkpt>
      <trkpt lat="27.87812800" lon="-15.6731900">
        <ele>377.39200</ele>
        <time>2009-01-05T10:32:57Z</time>
      </trkpt>
      <trkpt lat="27.87815200" lon="-15.6731900">
        <ele>377.43300</ele>
        <time>2009-01-05T10:32:58Z</time>
      </trkpt>
      <trkpt lat="27.87817500" lon="-15.6731890">
        <ele>377.63800</ele>
        <time>2009-01-05T10:32:59Z</time>
      </trkpt>
      <trkpt lat="27.87819900" lon="-15.6731880">
        <ele>378.15700</ele>
        <time>2009-01-05T10:33:00Z</time>
      </trkpt>
      <trkpt lat="27.87822300" lon="-15.6731860">
        <ele>378.57100</ele>
        <time>2009-01-05T10:33:01Z</time>
      </trkpt>
      <trkpt lat="27.87824700" lon="-15.6731810">
        <ele>378.50900</ele>
        <time>2009-01-05T10:33:02Z</time>
      </trkpt>
      <trkpt lat="27.87827100" lon="-15.6731770">
        <ele>378.71900</ele>
        <time>2009-01-05T10:33:03Z</time>
      </trkpt>
      <trkpt lat="27.87829600" lon="-15.6731730">
        <ele>379.10100</ele>
        <time>2009-01-05T10:33:04Z</time>
      </trkpt>
      <trkpt lat="27.87832200" lon="-15.6731720">
        <ele>379.26300</ele>
        <time>2009-01-05T10:33:05Z</time>
      </trkpt>
      <trkpt lat="27.87834700" lon="-15.6731730">
        <ele>379.29900</ele>
        <time>2009-01-05T10:33:06Z</time>
      </trkpt>
      <trkpt lat="27.87837100" lon="-15.6731790">
        <ele>379.31300</ele>
        <time>2009-01-05T10:33:07Z</time>
      </trkpt>
      <trkpt lat="27.87839400" lon="-15.6731880">
        <ele>379.60300</ele>
        <time>2009-01-05T10:33:08Z</time>
      </trkpt>
      <trkpt lat="27.87841500" lon="-15.6732010">
        <ele>380.00100</ele>
        <time>2009-01-05T10:33:09Z</time>
      </trkpt>
      <trkpt lat="27.87843500" lon="-15.6732170">
        <ele>380.44400</ele>
        <time>2009-01-05T10:33:10Z</time>
      </trkpt>
      <trkpt lat="27.87845400" lon="-15.6732350">
        <ele>380.26000</ele>
        <time>2009-01-05T10:33:11Z</time>
      </trkpt>
      <trkpt lat="27.87847100" lon="-15.6732550">
        <ele>380.90900</ele>
        <time>2009-01-05T10:33:12Z</time>
      </trkpt>
      <trkpt lat="27.87848600" lon="-15.6732770">
        <ele>380.95500</ele>
        <time>2009-01-05T10:33:13Z</time>
      </trkpt>
      <trkpt lat="27.87850000" lon="-15.6733000">
        <ele>381.06000</ele>
        <time>2009-01-05T10:33:14Z</time>
      </trkpt>
      <trkpt lat="27.87851400" lon="-15.6733230">
        <ele>381.43900</ele>
        <time>2009-01-05T10:33:15Z</time>
      </trkpt>
      <trkpt lat="27.87852900" lon="-15.6733450">
        <ele>381.71500</ele>
        <time>2009-01-05T10:33:16Z</time>
      </trkpt>
      <trkpt lat="27.87854400" lon="-15.6733670">
        <ele>381.83300</ele>
        <time>2009-01-05T10:33:17Z</time>
      </trkpt>
      <trkpt lat="27.87855900" lon="-15.6733890">
        <ele>382.28600</ele>
        <time>2009-01-05T10:33:18Z</time>
      </trkpt>
      <trkpt lat="27.87857500" lon="-15.6734100">
        <ele>382.48500</ele>
        <time>2009-01-05T10:33:19Z</time>
      </trkpt>
      <trkpt lat="27.87859200" lon="-15.6734310">
        <ele>382.77700</ele>
        <time>2009-01-05T10:33:20Z</time>
      </trkpt>
      <trkpt lat="27.87860900" lon="-15.6734510">
        <ele>382.73300</ele>
        <time>2009-01-05T10:33:21Z</time>
      </trkpt>
      <trkpt lat="27.87862600" lon="-15.6734710">
        <ele>383.53500</ele>
        <time>2009-01-05T10:33:22Z</time>
      </trkpt>
      <trkpt lat="27.87864400" lon="-15.6734920">
        <ele>383.27400</ele>
        <time>2009-01-05T10:33:23Z</time>
      </trkpt>
      <trkpt lat="27.87866200" lon="-15.6735130">
        <ele>383.49900</ele>
        <time>2009-01-05T10:33:24Z</time>
      </trkpt>
      <trkpt lat="27.87867900" lon="-15.6735330">
        <ele>383.93900</ele>
        <time>2009-01-05T10:33:25Z</time>
      </trkpt>
      <trkpt lat="27.87869600" lon="-15.6735530">
        <ele>383.83400</ele>
        <time>2009-01-05T10:33:26Z</time>
      </trkpt>
      <trkpt lat="27.87871200" lon="-15.6735740">
        <ele>384.24200</ele>
        <time>2009-01-05T10:33:27Z</time>
      </trkpt>
      <trkpt lat="27.87872800" lon="-15.6735950">
        <ele>384.54400</ele>
        <time>2009-01-05T10:33:28Z</time>
      </trkpt>
      <trkpt lat="27.87874500" lon="-15.6736160">
        <ele>384.69300</ele>
        <time>2009-01-05T10:33:29Z</time>
      </trkpt>
      <trkpt lat="27.87876300" lon="-15.6736360">
        <ele>385.04500</ele>
        <time>2009-01-05T10:33:30Z</time>
      </trkpt>
      <trkpt lat="27.87877800" lon="-15.6736590">
        <ele>385.29200</ele>
        <time>2009-01-05T10:33:31Z</time>
      </trkpt>
      <trkpt lat="27.87879500" lon="-15.6736820">
        <ele>385.44600</ele>
        <time>2009-01-05T10:33:32Z</time>
      </trkpt>
      <trkpt lat="27.87881200" lon="-15.6737040">
        <ele>385.60200</ele>
        <time>2009-01-05T10:33:33Z</time>
      </trkpt>
      <trkpt lat="27.87883300" lon="-15.6737250">
        <ele>386.00200</ele>
        <time>2009-01-05T10:33:34Z</time>
      </trkpt>
      <trkpt lat="27.87885300" lon="-15.6737450">
        <ele>386.42300</ele>
        <time>2009-01-05T10:33:35Z</time>
      </trkpt>
      <trkpt lat="27.87886900" lon="-15.6737660">
        <ele>386.60300</ele>
        <time>2009-01-05T10:33:36Z</time>
      </trkpt>
      <trkpt lat="27.87888800" lon="-15.6737870">
        <ele>386.56200</ele>
        <time>2009-01-05T10:33:37Z</time>
      </trkpt>
      <trkpt lat="27.87890400" lon="-15.6738070">
        <ele>386.92400</ele>
        <time>2009-01-05T10:33:38Z</time>
      </trkpt>
      <trkpt lat="27.87892000" lon="-15.6738270">
        <ele>387.26800</ele>
        <time>2009-01-05T10:33:39Z</time>
      </trkpt>
      <trkpt lat="27.87893600" lon="-15.6738480">
        <ele>387.56800</ele>
        <time>2009-01-05T10:33:40Z</time>
      </trkpt>
      <trkpt lat="27.87895400" lon="-15.6738680">
        <ele>387.63700</ele>
        <time>2009-01-05T10:33:41Z</time>
      </trkpt>
      <trkpt lat="27.87897300" lon="-15.6738880">
        <ele>387.76200</ele>
        <time>2009-01-05T10:33:42Z</time>
      </trkpt>
      <trkpt lat="27.87899100" lon="-15.6739090">
        <ele>388.16900</ele>
        <time>2009-01-05T10:33:43Z</time>
      </trkpt>
      <trkpt lat="27.87901000" lon="-15.6739280">
        <ele>388.55000</ele>
        <time>2009-01-05T10:33:44Z</time>
      </trkpt>
      <trkpt lat="27.87903000" lon="-15.6739480">
        <ele>388.80400</ele>
        <time>2009-01-05T10:33:45Z</time>
      </trkpt>
      <trkpt lat="27.87905000" lon="-15.6739690">
        <ele>388.95300</ele>
        <time>2009-01-05T10:33:46Z</time>
      </trkpt>
      <trkpt lat="27.87906900" lon="-15.6739900">
        <ele>389.11700</ele>
        <time>2009-01-05T10:33:47Z</time>
      </trkpt>
      <trkpt lat="27.87908800" lon="-15.6740100">
        <ele>389.66400</ele>
        <time>2009-01-05T10:33:48Z</time>
      </trkpt>
      <trkpt lat="27.87910500" lon="-15.6740320">
        <ele>389.81700</ele>
        <time>2009-01-05T10:33:49Z</time>
      </trkpt>
      <trkpt lat="27.87912000" lon="-15.6740550">
        <ele>389.98100</ele>
        <time>2009-01-05T10:33:50Z</time>
      </trkpt>
      <trkpt lat="27.87913000" lon="-15.6740810">
        <ele>390.20500</ele>
        <time>2009-01-05T10:33:51Z</time>
      </trkpt>
      <trkpt lat="27.87913600" lon="-15.6741070">
        <ele>390.29000</ele>
        <time>2009-01-05T10:33:52Z</time>
      </trkpt>
      <trkpt lat="27.87913900" lon="-15.6741350">
        <ele>390.82000</ele>
        <time>2009-01-05T10:33:53Z</time>
      </trkpt>
      <trkpt lat="27.87913800" lon="-15.6741620">
        <ele>391.08200</ele>
        <time>2009-01-05T10:33:54Z</time>
      </trkpt>
      <trkpt lat="27.87913800" lon="-15.6741880">
        <ele>391.55500</ele>
        <time>2009-01-05T10:33:55Z</time>
      </trkpt>
      <trkpt lat="27.87913600" lon="-15.6742140">
        <ele>391.59400</ele>
        <time>2009-01-05T10:33:56Z</time>
      </trkpt>
      <trkpt lat="27.87913500" lon="-15.6742400">
        <ele>391.62000</ele>
        <time>2009-01-05T10:33:57Z</time>
      </trkpt>
      <trkpt lat="27.87913500" lon="-15.6742660">
        <ele>392.07600</ele>
        <time>2009-01-05T10:33:58Z</time>
      </trkpt>
      <trkpt lat="27.87913400" lon="-15.6742920">
        <ele>392.36900</ele>
        <time>2009-01-05T10:33:59Z</time>
      </trkpt>
      <trkpt lat="27.87913300" lon="-15.6743190">
        <ele>392.55100</ele>
        <time>2009-01-05T10:34:00Z</time>
      </trkpt>
      <trkpt lat="27.87913100" lon="-15.6743450">
        <ele>392.64100</ele>
        <time>2009-01-05T10:34:01Z</time>
      </trkpt>
      <trkpt lat="27.87912800" lon="-15.6743720">
        <ele>393.04200</ele>
        <time>2009-01-05T10:34:02Z</time>
      </trkpt>
      <trkpt lat="27.87912500" lon="-15.6743980">
        <ele>393.31100</ele>
        <time>2009-01-05T10:34:03Z</time>
      </trkpt>
      <trkpt lat="27.87912200" lon="-15.6744250">
        <ele>393.63500</ele>
        <time>2009-01-05T10:34:04Z</time>
      </trkpt>
      <trkpt lat="27.87911900" lon="-15.6744520">
        <ele>393.60300</ele>
        <time>2009-01-05T10:34:05Z</time>
      </trkpt>
      <trkpt lat="27.87911900" lon="-15.6744800">
        <ele>394.07200</ele>
        <time>2009-01-05T10:34:06Z</time>
      </trkpt>
      <trkpt lat="27.87912300" lon="-15.6745080">
        <ele>394.21200</ele>
        <time>2009-01-05T10:34:07Z</time>
      </trkpt>
      <trkpt lat="27.87913000" lon="-15.6745330">
        <ele>394.69100</ele>
        <time>2009-01-05T10:34:08Z</time>
      </trkpt>
      <trkpt lat="27.87914100" lon="-15.6745570">
        <ele>394.79400</ele>
        <time>2009-01-05T10:34:09Z</time>
      </trkpt>
      <trkpt lat="27.87915100" lon="-15.6745820">
        <ele>394.95100</ele>
        <time>2009-01-05T10:34:10Z</time>
      </trkpt>
      <trkpt lat="27.87916300" lon="-15.6746050">
        <ele>395.15300</ele>
        <time>2009-01-05T10:34:11Z</time>
      </trkpt>
      <trkpt lat="27.87917600" lon="-15.6746300">
        <ele>395.55700</ele>
        <time>2009-01-05T10:34:12Z</time>
      </trkpt>
      <trkpt lat="27.87918800" lon="-15.6746550">
        <ele>395.73800</ele>
        <time>2009-01-05T10:34:13Z</time>
      </trkpt>
      <trkpt lat="27.87920000" lon="-15.6746790">
        <ele>396.21100</ele>
        <time>2009-01-05T10:34:14Z</time>
      </trkpt>
      <trkpt lat="27.87921300" lon="-15.6747020">
        <ele>396.19700</ele>
        <time>2009-01-05T10:34:15Z</time>
      </trkpt>
      <trkpt lat="27.87922800" lon="-15.6747260">
        <ele>396.34600</ele>
        <time>2009-01-05T10:34:16Z</time>
      </trkpt>
      <trkpt lat="27.87924200" lon="-15.6747490">
        <ele>396.78200</ele>
        <time>2009-01-05T10:34:17Z</time>
      </trkpt>
      <trkpt lat="27.87925600" lon="-15.6747720">
        <ele>397.10900</ele>
        <time>2009-01-05T10:34:18Z</time>
      </trkpt>
      <trkpt lat="27.87926800" lon="-15.6747940">
        <ele>397.21100</ele>
        <time>2009-01-05T10:34:19Z</time>
      </trkpt>
      <trkpt lat="27.87928100" lon="-15.6748180">
        <ele>397.16800</ele>
        <time>2009-01-05T10:34:20Z</time>
      </trkpt>
      <trkpt lat="27.87929200" lon="-15.6748410">
        <ele>397.47600</ele>
        <time>2009-01-05T10:34:21Z</time>
      </trkpt>
      <trkpt lat="27.87930500" lon="-15.6748630">
        <ele>397.96700</ele>
        <time>2009-01-05T10:34:22Z</time>
      </trkpt>
      <trkpt lat="27.87931800" lon="-15.6748840">
        <ele>398.14600</ele>
        <time>2009-01-05T10:34:23Z</time>
      </trkpt>
      <trkpt lat="27.87933200" lon="-15.6749050">
        <ele>398.36200</ele>
        <time>2009-01-05T10:34:24Z</time>
      </trkpt>
      <trkpt lat="27.87934600" lon="-15.6749260">
        <ele>398.29000</ele>
        <time>2009-01-05T10:34:25Z</time>
      </trkpt>
      <trkpt lat="27.87936100" lon="-15.6749470">
        <ele>398.62800</ele>
        <time>2009-01-05T10:34:26Z</time>
      </trkpt>
      <trkpt lat="27.87937500" lon="-15.6749670">
        <ele>398.73500</ele>
        <time>2009-01-05T10:34:27Z</time>
      </trkpt>
      <trkpt lat="27.87939500" lon="-15.6749880">
        <ele>399.17300</ele>
        <time>2009-01-05T10:34:28Z</time>
      </trkpt>
      <trkpt lat="27.87941200" lon="-15.6750060">
        <ele>399.48200</ele>
        <time>2009-01-05T10:34:29Z</time>
      </trkpt>
      <trkpt lat="27.87943000" lon="-15.6750230">
        <ele>399.50800</ele>
        <time>2009-01-05T10:34:30Z</time>
      </trkpt>
      <trkpt lat="27.87944900" lon="-15.6750400">
        <ele>399.78000</ele>
        <time>2009-01-05T10:34:31Z</time>
      </trkpt>
      <trkpt lat="27.87946800" lon="-15.6750560">
        <ele>400.36400</ele>
        <time>2009-01-05T10:34:32Z</time>
      </trkpt>
      <trkpt lat="27.87948900" lon="-15.6750730">
        <ele>400.48800</ele>
        <time>2009-01-05T10:34:33Z</time>
      </trkpt>
      <trkpt lat="27.87950800" lon="-15.6750900">
        <ele>400.52400</ele>
        <time>2009-01-05T10:34:34Z</time>
      </trkpt>
      <trkpt lat="27.87952900" lon="-15.6751050">
        <ele>400.89900</ele>
        <time>2009-01-05T10:34:35Z</time>
      </trkpt>
      <trkpt lat="27.87954800" lon="-15.6751200">
        <ele>400.87800</ele>
        <time>2009-01-05T10:34:36Z</time>
      </trkpt>
      <trkpt lat="27.87956800" lon="-15.6751350">
        <ele>401.14400</ele>
        <time>2009-01-05T10:34:37Z</time>
      </trkpt>
      <trkpt lat="27.87958800" lon="-15.6751500">
        <ele>401.47700</ele>
        <time>2009-01-05T10:34:38Z</time>
      </trkpt>
      <trkpt lat="27.87960700" lon="-15.6751640">
        <ele>401.76800</ele>
        <time>2009-01-05T10:34:39Z</time>
      </trkpt>
      <trkpt lat="27.87962500" lon="-15.6751780">
        <ele>402.02100</ele>
        <time>2009-01-05T10:34:40Z</time>
      </trkpt>
      <trkpt lat="27.87964300" lon="-15.6751930">
        <ele>402.24000</ele>
        <time>2009-01-05T10:34:41Z</time>
      </trkpt>
      <trkpt lat="27.87966000" lon="-15.6752100">
        <ele>402.59700</ele>
        <time>2009-01-05T10:34:42Z</time>
      </trkpt>
      <trkpt lat="27.87967600" lon="-15.6752290">
        <ele>402.74000</ele>
        <time>2009-01-05T10:34:43Z</time>
      </trkpt>
      <trkpt lat="27.87969000" lon="-15.6752490">
        <ele>402.76300</ele>
        <time>2009-01-05T10:34:44Z</time>
      </trkpt>
      <trkpt lat="27.87970700" lon="-15.6752700">
        <ele>403.35500</ele>
        <time>2009-01-05T10:34:45Z</time>
      </trkpt>
      <trkpt lat="27.87972100" lon="-15.6752900">
        <ele>403.26700</ele>
        <time>2009-01-05T10:34:46Z</time>
      </trkpt>
      <trkpt lat="27.87973300" lon="-15.6753110">
        <ele>403.90400</ele>
        <time>2009-01-05T10:34:47Z</time>
      </trkpt>
      <trkpt lat="27.87974300" lon="-15.6753330">
        <ele>404.08400</ele>
        <time>2009-01-05T10:34:48Z</time>
      </trkpt>
      <trkpt lat="27.87975200" lon="-15.6753560">
        <ele>404.34800</ele>
        <time>2009-01-05T10:34:49Z</time>
      </trkpt>
      <trkpt lat="27.87976200" lon="-15.6753790">
        <ele>404.50800</ele>
        <time>2009-01-05T10:34:50Z</time>
      </trkpt>
      <trkpt lat="27.87977300" lon="-15.6754030">
        <ele>404.53700</ele>
        <time>2009-01-05T10:34:51Z</time>
      </trkpt>
      <trkpt lat="27.87978300" lon="-15.6754280">
        <ele>404.95400</ele>
        <time>2009-01-05T10:34:52Z</time>
      </trkpt>
      <trkpt lat="27.87979500" lon="-15.6754520">
        <ele>405.30300</ele>
        <time>2009-01-05T10:34:53Z</time>
      </trkpt>
      <trkpt lat="27.87980900" lon="-15.6754740">
        <ele>405.48000</ele>
        <time>2009-01-05T10:34:54Z</time>
      </trkpt>
      <trkpt lat="27.87982200" lon="-15.6754960">
        <ele>405.96900</ele>
        <time>2009-01-05T10:34:55Z</time>
      </trkpt>
      <trkpt lat="27.87983600" lon="-15.6755180">
        <ele>406.14600</ele>
        <time>2009-01-05T10:34:56Z</time>
      </trkpt>
      <trkpt lat="27.87985100" lon="-15.6755380">
        <ele>406.48100</ele>
        <time>2009-01-05T10:34:57Z</time>
      </trkpt>
      <trkpt lat="27.87986600" lon="-15.6755570">
        <ele>406.74800</ele>
        <time>2009-01-05T10:34:58Z</time>
      </trkpt>
      <trkpt lat="27.87988200" lon="-15.6755750">
        <ele>406.70600</ele>
        <time>2009-01-05T10:34:59Z</time>
      </trkpt>
      <trkpt lat="27.87990000" lon="-15.6755910">
        <ele>406.94400</ele>
        <time>2009-01-05T10:35:00Z</time>
      </trkpt>
      <trkpt lat="27.87992000" lon="-15.6756060">
        <ele>407.55100</ele>
        <time>2009-01-05T10:35:01Z</time>
      </trkpt>
      <trkpt lat="27.87993900" lon="-15.6756190">
        <ele>407.62000</ele>
        <time>2009-01-05T10:35:02Z</time>
      </trkpt>
      <trkpt lat="27.87996000" lon="-15.6756290">
        <ele>408.16800</ele>
        <time>2009-01-05T10:35:03Z</time>
      </trkpt>
      <trkpt lat="27.87998200" lon="-15.6756380">
        <ele>408.33200</ele>
        <time>2009-01-05T10:35:04Z</time>
      </trkpt>
      <trkpt lat="27.88000500" lon="-15.6756470">
        <ele>408.50400</ele>
        <time>2009-01-05T10:35:05Z</time>
      </trkpt>
      <trkpt lat="27.88002900" lon="-15.6756560">
        <ele>408.78400</ele>
        <time>2009-01-05T10:35:06Z</time>
      </trkpt>
      <trkpt lat="27.88005300" lon="-15.6756640">
        <ele>409.10700</ele>
        <time>2009-01-05T10:35:07Z</time>
      </trkpt>
      <trkpt lat="27.88007800" lon="-15.6756710">
        <ele>409.23100</ele>
        <time>2009-01-05T10:35:08Z</time>
      </trkpt>
      <trkpt lat="27.88010300" lon="-15.6756780">
        <ele>409.50900</ele>
        <time>2009-01-05T10:35:09Z</time>
      </trkpt>
      <trkpt lat="27.88013000" lon="-15.6756840">
        <ele>409.47000</ele>
        <time>2009-01-05T10:35:10Z</time>
      </trkpt>
      <trkpt lat="27.88015700" lon="-15.6756880">
        <ele>409.85300</ele>
        <time>2009-01-05T10:35:11Z</time>
      </trkpt>
      <trkpt lat="27.88018400" lon="-15.6756920">
        <ele>410.01700</ele>
        <time>2009-01-05T10:35:12Z</time>
      </trkpt>
      <trkpt lat="27.88021200" lon="-15.6756950">
        <ele>410.40300</ele>
        <time>2009-01-05T10:35:13Z</time>
      </trkpt>
      <trkpt lat="27.88023900" lon="-15.6756970">
        <ele>410.31100</ele>
        <time>2009-01-05T10:35:14Z</time>
      </trkpt>
      <trkpt lat="27.88026600" lon="-15.6756990">
        <ele>410.71300</ele>
        <time>2009-01-05T10:35:15Z</time>
      </trkpt>
      <trkpt lat="27.88029300" lon="-15.6757010">
        <ele>410.83200</ele>
        <time>2009-01-05T10:35:16Z</time>
      </trkpt>
      <trkpt lat="27.88031800" lon="-15.6757050">
        <ele>411.25300</ele>
        <time>2009-01-05T10:35:17Z</time>
      </trkpt>
      <trkpt lat="27.88034200" lon="-15.6757100">
        <ele>411.50400</ele>
        <time>2009-01-05T10:35:18Z</time>
      </trkpt>
      <trkpt lat="27.88036700" lon="-15.6757140">
        <ele>411.61500</ele>
        <time>2009-01-05T10:35:19Z</time>
      </trkpt>
      <trkpt lat="27.88039000" lon="-15.6757180">
        <ele>411.88300</ele>
        <time>2009-01-05T10:35:20Z</time>
      </trkpt>
      <trkpt lat="27.88041400" lon="-15.6757220">
        <ele>412.38500</ele>
        <time>2009-01-05T10:35:21Z</time>
      </trkpt>
      <trkpt lat="27.88043700" lon="-15.6757260">
        <ele>412.67100</ele>
        <time>2009-01-05T10:35:22Z</time>
      </trkpt>
      <trkpt lat="27.88046000" lon="-15.6757300">
        <ele>413.07800</ele>
        <time>2009-01-05T10:35:23Z</time>
      </trkpt>
      <trkpt lat="27.88048200" lon="-15.6757360">
        <ele>413.06500</ele>
        <time>2009-01-05T10:35:24Z</time>
      </trkpt>
      <trkpt lat="27.88050500" lon="-15.6757440">
        <ele>413.29300</ele>
        <time>2009-01-05T10:35:25Z</time>
      </trkpt>
      <trkpt lat="27.88052700" lon="-15.6757540">
        <ele>413.60500</ele>
        <time>2009-01-05T10:35:26Z</time>
      </trkpt>
      <trkpt lat="27.88054800" lon="-15.6757680">
        <ele>414.07300</ele>
        <time>2009-01-05T10:35:27Z</time>
      </trkpt>
      <trkpt lat="27.88056700" lon="-15.6757850">
        <ele>414.34000</ele>
        <time>2009-01-05T10:35:28Z</time>
      </trkpt>
      <trkpt lat="27.88058100" lon="-15.6758060">
        <ele>414.48100</ele>
        <time>2009-01-05T10:35:29Z</time>
      </trkpt>
      <trkpt lat="27.88058600" lon="-15.6758320">
        <ele>414.66600</ele>
        <time>2009-01-05T10:35:30Z</time>
      </trkpt>
      <trkpt lat="27.88047200" lon="-15.6759000">
        <ele>416.66100</ele>
        <time>2009-01-05T10:35:36Z</time>
      </trkpt>
      <trkpt lat="27.88044400" lon="-15.6758940">
        <ele>416.99900</ele>
        <time>2009-01-05T10:35:37Z</time>
      </trkpt>
      <trkpt lat="27.88041500" lon="-15.6758890">
        <ele>417.09400</ele>
        <time>2009-01-05T10:35:38Z</time>
      </trkpt>
      <trkpt lat="27.88038600" lon="-15.6758850">
        <ele>417.23700</ele>
        <time>2009-01-05T10:35:39Z</time>
      </trkpt>
      <trkpt lat="27.88035800" lon="-15.6758840">
        <ele>417.49600</ele>
        <time>2009-01-05T10:35:40Z</time>
      </trkpt>
      <trkpt lat="27.88033100" lon="-15.6758830">
        <ele>417.88200</ele>
        <time>2009-01-05T10:35:41Z</time>
      </trkpt>
      <trkpt lat="27.88030400" lon="-15.6758820">
        <ele>418.18200</ele>
        <time>2009-01-05T10:35:42Z</time>
      </trkpt>
      <trkpt lat="27.88027700" lon="-15.6758810">
        <ele>418.17200</ele>
        <time>2009-01-05T10:35:43Z</time>
      </trkpt>
      <trkpt lat="27.88025100" lon="-15.6758810">
        <ele>418.29200</ele>
        <time>2009-01-05T10:35:44Z</time>
      </trkpt>
      <trkpt lat="27.88022400" lon="-15.6758830">
        <ele>418.78600</ele>
        <time>2009-01-05T10:35:45Z</time>
      </trkpt>
      <trkpt lat="27.88019700" lon="-15.6758830">
        <ele>418.92500</ele>
        <time>2009-01-05T10:35:46Z</time>
      </trkpt>
      <trkpt lat="27.88017100" lon="-15.6758830">
        <ele>419.07600</ele>
        <time>2009-01-05T10:35:47Z</time>
      </trkpt>
      <trkpt lat="27.88014500" lon="-15.6758830">
        <ele>419.40500</ele>
        <time>2009-01-05T10:35:48Z</time>
      </trkpt>
      <trkpt lat="27.88011900" lon="-15.6758830">
        <ele>419.55400</ele>
        <time>2009-01-05T10:35:49Z</time>
      </trkpt>
      <trkpt lat="27.88009300" lon="-15.6758830">
        <ele>420.13900</ele>
        <time>2009-01-05T10:35:50Z</time>
      </trkpt>
      <trkpt lat="27.88006700" lon="-15.6758850">
        <ele>419.87900</ele>
        <time>2009-01-05T10:35:51Z</time>
      </trkpt>
      <trkpt lat="27.88004200" lon="-15.6758860">
        <ele>420.45000</ele>
        <time>2009-01-05T10:35:52Z</time>
      </trkpt>
      <trkpt lat="27.88001700" lon="-15.6758880">
        <ele>420.58300</ele>
        <time>2009-01-05T10:35:53Z</time>
      </trkpt>
      <trkpt lat="27.87999100" lon="-15.6758910">
        <ele>420.58700</ele>
        <time>2009-01-05T10:35:54Z</time>
      </trkpt>
      <trkpt lat="27.87996500" lon="-15.6758910">
        <ele>421.07700</ele>
        <time>2009-01-05T10:35:55Z</time>
      </trkpt>
      <trkpt lat="27.87993900" lon="-15.6758900">
        <ele>421.17600</ele>
        <time>2009-01-05T10:35:56Z</time>
      </trkpt>
      <trkpt lat="27.87991300" lon="-15.6758890">
        <ele>421.36100</ele>
        <time>2009-01-05T10:35:57Z</time>
      </trkpt>
      <trkpt lat="27.87988600" lon="-15.6758860">
        <ele>421.38600</ele>
        <time>2009-01-05T10:35:58Z</time>
      </trkpt>
      <trkpt lat="27.87986000" lon="-15.6758810">
        <ele>422.01600</ele>
        <time>2009-01-05T10:35:59Z</time>
      </trkpt>
      <trkpt lat="27.87983300" lon="-15.6758780">
        <ele>421.83700</ele>
        <time>2009-01-05T10:36:00Z</time>
      </trkpt>
      <trkpt lat="27.87980500" lon="-15.6758720">
        <ele>422.25300</ele>
        <time>2009-01-05T10:36:01Z</time>
      </trkpt>
      <trkpt lat="27.87977900" lon="-15.6758620">
        <ele>422.33600</ele>
        <time>2009-01-05T10:36:02Z</time>
      </trkpt>
      <trkpt lat="27.87975300" lon="-15.6758510">
        <ele>422.43400</ele>
        <time>2009-01-05T10:36:03Z</time>
      </trkpt>
      <trkpt lat="27.87972800" lon="-15.6758360">
        <ele>421.45000</ele>
        <time>2009-01-05T10:36:04Z</time>
      </trkpt>
      <trkpt lat="27.87970500" lon="-15.6758180">
        <ele>426.47100</ele>
        <time>2009-01-05T10:36:05Z</time>
      </trkpt>
      <trkpt lat="27.87968300" lon="-15.6757980">
        <ele>423.62900</ele>
        <time>2009-01-05T10:36:06Z</time>
      </trkpt>
      <trkpt lat="27.87966300" lon="-15.6757760">
        <ele>423.36200</ele>
        <time>2009-01-05T10:36:07Z</time>
      </trkpt>
      <trkpt lat="27.87964500" lon="-15.6757570">
        <ele>423.29900</ele>
        <time>2009-01-05T10:36:08Z</time>
      </trkpt>
      <trkpt lat="27.87962900" lon="-15.6757310">
        <ele>423.90200</ele>
        <time>2009-01-05T10:36:09Z</time>
      </trkpt>
      <trkpt lat="27.87961400" lon="-15.6757040">
        <ele>424.09100</ele>
        <time>2009-01-05T10:36:10Z</time>
      </trkpt>
      <trkpt lat="27.87959800" lon="-15.6756800">
        <ele>424.11300</ele>
        <time>2009-01-05T10:36:11Z</time>
      </trkpt>
      <trkpt lat="27.87958300" lon="-15.6756560">
        <ele>423.90000</ele>
        <time>2009-01-05T10:36:12Z</time>
      </trkpt>
      <trkpt lat="27.87956300" lon="-15.6756360">
        <ele>424.35100</ele>
        <time>2009-01-05T10:36:13Z</time>
      </trkpt>
      <trkpt lat="27.87954500" lon="-15.6756140">
        <ele>424.57200</ele>
        <time>2009-01-05T10:36:14Z</time>
      </trkpt>
      <trkpt lat="27.87953000" lon="-15.6755940">
        <ele>425.15200</ele>
        <time>2009-01-05T10:36:15Z</time>
      </trkpt>
      <trkpt lat="27.87951500" lon="-15.6755730">
        <ele>425.26700</ele>
        <time>2009-01-05T10:36:16Z</time>
      </trkpt>
      <trkpt lat="27.87950000" lon="-15.6755510">
        <ele>425.37900</ele>
        <time>2009-01-05T10:36:17Z</time>
      </trkpt>
      <trkpt lat="27.87948300" lon="-15.6755300">
        <ele>425.56000</ele>
        <time>2009-01-05T10:36:18Z</time>
      </trkpt>
      <trkpt lat="27.87946400" lon="-15.6755100">
        <ele>425.70400</ele>
        <time>2009-01-05T10:36:19Z</time>
      </trkpt>
      <trkpt lat="27.87944400" lon="-15.6754930">
        <ele>426.21200</ele>
        <time>2009-01-05T10:36:20Z</time>
      </trkpt>
      <trkpt lat="27.87942300" lon="-15.6754740">
        <ele>426.39300</ele>
        <time>2009-01-05T10:36:21Z</time>
      </trkpt>
      <trkpt lat="27.87940000" lon="-15.6754570">
        <ele>426.45800</ele>
        <time>2009-01-05T10:36:22Z</time>
      </trkpt>
      <trkpt lat="27.87937800" lon="-15.6754390">
        <ele>426.81000</ele>
        <time>2009-01-05T10:36:23Z</time>
      </trkpt>
      <trkpt lat="27.87935800" lon="-15.6754180">
        <ele>426.93300</ele>
        <time>2009-01-05T10:36:24Z</time>
      </trkpt>
      <trkpt lat="27.87933800" lon="-15.6753960">
        <ele>426.64100</ele>
        <time>2009-01-05T10:36:25Z</time>
      </trkpt>
      <trkpt lat="27.87931800" lon="-15.6753790">
        <ele>427.68100</ele>
        <time>2009-01-05T10:36:26Z</time>
      </trkpt>
      <trkpt lat="27.87929800" lon="-15.6753640">
        <ele>427.54300</ele>
        <time>2009-01-05T10:36:27Z</time>
      </trkpt>
      <trkpt lat="27.87927600" lon="-15.6753490">
        <ele>427.77900</ele>
        <time>2009-01-05T10:36:28Z</time>
      </trkpt>
      <trkpt lat="27.87925400" lon="-15.6753360">
        <ele>428.28000</ele>
        <time>2009-01-05T10:36:29Z</time>
      </trkpt>
      <trkpt lat="27.87923000" lon="-15.6753260">
        <ele>428.56700</ele>
        <time>2009-01-05T10:36:30Z</time>
      </trkpt>
      <trkpt lat="27.87920800" lon="-15.6753160">
        <ele>428.68300</ele>
        <time>2009-01-05T10:36:31Z</time>
      </trkpt>
      <trkpt lat="27.87918600" lon="-15.6753100">
        <ele>429.08100</ele>
        <time>2009-01-05T10:36:32Z</time>
      </trkpt>
      <trkpt lat="27.87916400" lon="-15.6753160">
        <ele>429.25400</ele>
        <time>2009-01-05T10:36:33Z</time>
      </trkpt>
      <trkpt lat="27.87914700" lon="-15.6753300">
        <ele>429.70100</ele>
        <time>2009-01-05T10:36:34Z</time>
      </trkpt>
      <trkpt lat="27.87913400" lon="-15.6753550">
        <ele>429.92700</ele>
        <time>2009-01-05T10:36:35Z</time>
      </trkpt>
      <trkpt lat="27.87912900" lon="-15.6753830">
        <ele>430.39500</ele>
        <time>2009-01-05T10:36:36Z</time>
      </trkpt>
      <trkpt lat="27.87912900" lon="-15.6754120">
        <ele>430.48700</ele>
        <time>2009-01-05T10:36:37Z</time>
      </trkpt>
      <trkpt lat="27.87913000" lon="-15.6754410">
        <ele>430.74500</ele>
        <time>2009-01-05T10:36:38Z</time>
      </trkpt>
      <trkpt lat="27.87913000" lon="-15.6754710">
        <ele>431.09300</ele>
        <time>2009-01-05T10:36:39Z</time>
      </trkpt>
      <trkpt lat="27.87913000" lon="-15.6755020">
        <ele>431.35600</ele>
        <time>2009-01-05T10:36:40Z</time>
      </trkpt>
      <trkpt lat="27.87913000" lon="-15.6755320">
        <ele>431.43400</ele>
        <time>2009-01-05T10:36:41Z</time>
      </trkpt>
      <trkpt lat="27.87912900" lon="-15.6755610">
        <ele>431.76600</ele>
        <time>2009-01-05T10:36:42Z</time>
      </trkpt>
      <trkpt lat="27.87912700" lon="-15.6755900">
        <ele>432.22400</ele>
        <time>2009-01-05T10:36:43Z</time>
      </trkpt>
      <trkpt lat="27.87912700" lon="-15.6756180">
        <ele>432.37100</ele>
        <time>2009-01-05T10:36:44Z</time>
      </trkpt>
      <trkpt lat="27.87913000" lon="-15.6756450">
        <ele>432.89800</ele>
        <time>2009-01-05T10:36:45Z</time>
      </trkpt>
      <trkpt lat="27.87913300" lon="-15.6756720">
        <ele>432.86200</ele>
        <time>2009-01-05T10:36:46Z</time>
      </trkpt>
      <trkpt lat="27.87913300" lon="-15.6757000">
        <ele>433.17500</ele>
        <time>2009-01-05T10:36:47Z</time>
      </trkpt>
      <trkpt lat="27.87913500" lon="-15.6757270">
        <ele>433.26100</ele>
        <time>2009-01-05T10:36:48Z</time>
      </trkpt>
      <trkpt lat="27.87914200" lon="-15.6757520">
        <ele>433.71900</ele>
        <time>2009-01-05T10:36:49Z</time>
      </trkpt>
      <trkpt lat="27.87915300" lon="-15.6757760">
        <ele>433.98500</ele>
        <time>2009-01-05T10:36:50Z</time>
      </trkpt>
      <trkpt lat="27.87916800" lon="-15.6758010">
        <ele>434.27400</ele>
        <time>2009-01-05T10:36:51Z</time>
      </trkpt>
      <trkpt lat="27.87918200" lon="-15.6758260">
        <ele>434.71600</ele>
        <time>2009-01-05T10:36:52Z</time>
      </trkpt>
      <trkpt lat="27.87919600" lon="-15.6758510">
        <ele>434.53200</ele>
        <time>2009-01-05T10:36:53Z</time>
      </trkpt>
      <trkpt lat="27.87921100" lon="-15.6758760">
        <ele>434.91700</ele>
        <time>2009-01-05T10:36:54Z</time>
      </trkpt>
      <trkpt lat="27.87922600" lon="-15.6759010">
        <ele>435.12400</ele>
        <time>2009-01-05T10:36:55Z</time>
      </trkpt>
      <trkpt lat="27.87924000" lon="-15.6759250">
        <ele>435.49600</ele>
        <time>2009-01-05T10:36:56Z</time>
      </trkpt>
      <trkpt lat="27.87925300" lon="-15.6759500">
        <ele>435.40500</ele>
        <time>2009-01-05T10:36:57Z</time>
      </trkpt>
      <trkpt lat="27.87926800" lon="-15.6759750">
        <ele>435.59700</ele>
        <time>2009-01-05T10:36:58Z</time>
      </trkpt>
      <trkpt lat="27.87928000" lon="-15.6760010">
        <ele>436.01900</ele>
        <time>2009-01-05T10:36:59Z</time>
      </trkpt>
      <trkpt lat="27.87929100" lon="-15.6760260">
        <ele>436.14000</ele>
        <time>2009-01-05T10:37:00Z</time>
      </trkpt>
      <trkpt lat="27.87930000" lon="-15.6760540">
        <ele>436.25000</ele>
        <time>2009-01-05T10:37:01Z</time>
      </trkpt>
      <trkpt lat="27.87930800" lon="-15.6760820">
        <ele>436.59200</ele>
        <time>2009-01-05T10:37:02Z</time>
      </trkpt>
      <trkpt lat="27.87931600" lon="-15.6761100">
        <ele>436.64400</ele>
        <time>2009-01-05T10:37:03Z</time>
      </trkpt>
      <trkpt lat="27.87932100" lon="-15.6761400">
        <ele>436.68800</ele>
        <time>2009-01-05T10:37:04Z</time>
      </trkpt>
      <trkpt lat="27.87932200" lon="-15.6761710">
        <ele>437.29300</ele>
        <time>2009-01-05T10:37:05Z</time>
      </trkpt>
      <trkpt lat="27.87931900" lon="-15.6762030">
        <ele>437.27900</ele>
        <time>2009-01-05T10:37:06Z</time>
      </trkpt>
      <trkpt lat="27.87931100" lon="-15.6762340">
        <ele>437.46100</ele>
        <time>2009-01-05T10:37:07Z</time>
      </trkpt>
      <trkpt lat="27.87929800" lon="-15.6762620">
        <ele>437.81400</ele>
        <time>2009-01-05T10:37:08Z</time>
      </trkpt>
      <trkpt lat="27.87928100" lon="-15.6762860">
        <ele>437.67100</ele>
        <time>2009-01-05T10:37:09Z</time>
      </trkpt>
      <trkpt lat="27.87926100" lon="-15.6763070">
        <ele>437.98800</ele>
        <time>2009-01-05T10:37:10Z</time>
      </trkpt>
      <trkpt lat="27.87923900" lon="-15.6763230">
        <ele>438.08000</ele>
        <time>2009-01-05T10:37:11Z</time>
      </trkpt>
      <trkpt lat="27.87921600" lon="-15.6763370">
        <ele>438.59300</ele>
        <time>2009-01-05T10:37:12Z</time>
      </trkpt>
      <trkpt lat="27.87919200" lon="-15.6763490">
        <ele>438.73500</ele>
        <time>2009-01-05T10:37:13Z</time>
      </trkpt>
      <trkpt lat="27.87916700" lon="-15.6763600">
        <ele>439.26400</ele>
        <time>2009-01-05T10:37:14Z</time>
      </trkpt>
      <trkpt lat="27.87914400" lon="-15.6763710">
        <ele>439.61500</ele>
        <time>2009-01-05T10:37:15Z</time>
      </trkpt>
      <trkpt lat="27.87912100" lon="-15.6763850">
        <ele>439.88700</ele>
        <time>2009-01-05T10:37:16Z</time>
      </trkpt>
      <trkpt lat="27.87910000" lon="-15.6764010">
        <ele>440.61700</ele>
        <time>2009-01-05T10:37:17Z</time>
      </trkpt>
      <trkpt lat="27.87908200" lon="-15.6764200">
        <ele>440.65400</ele>
        <time>2009-01-05T10:37:18Z</time>
      </trkpt>
      <trkpt lat="27.87906700" lon="-15.6764430">
        <ele>440.21500</ele>
        <time>2009-01-05T10:37:19Z</time>
      </trkpt>
      <trkpt lat="27.87905800" lon="-15.6764670">
        <ele>440.80400</ele>
        <time>2009-01-05T10:37:20Z</time>
      </trkpt>
      <trkpt lat="27.87905200" lon="-15.6764930">
        <ele>440.73300</ele>
        <time>2009-01-05T10:37:21Z</time>
      </trkpt>
      <trkpt lat="27.87904900" lon="-15.6765200">
        <ele>440.91500</ele>
        <time>2009-01-05T10:37:22Z</time>
      </trkpt>
      <trkpt lat="27.87904800" lon="-15.6765480">
        <ele>441.25900</ele>
        <time>2009-01-05T10:37:23Z</time>
      </trkpt>
      <trkpt lat="27.87904700" lon="-15.6765770">
        <ele>441.81100</ele>
        <time>2009-01-05T10:37:24Z</time>
      </trkpt>
      <trkpt lat="27.87904500" lon="-15.6766060">
        <ele>441.96800</ele>
        <time>2009-01-05T10:37:25Z</time>
      </trkpt>
      <trkpt lat="27.87904300" lon="-15.6766320">
        <ele>442.17600</ele>
        <time>2009-01-05T10:37:26Z</time>
      </trkpt>
      <trkpt lat="27.87904200" lon="-15.6766590">
        <ele>442.41200</ele>
        <time>2009-01-05T10:37:27Z</time>
      </trkpt>
      <trkpt lat="27.87904100" lon="-15.6766850">
        <ele>442.85400</ele>
        <time>2009-01-05T10:37:28Z</time>
      </trkpt>
      <trkpt lat="27.87904200" lon="-15.6767110">
        <ele>443.03100</ele>
        <time>2009-01-05T10:37:29Z</time>
      </trkpt>
      <trkpt lat="27.87904400" lon="-15.6767390">
        <ele>443.45400</ele>
        <time>2009-01-05T10:37:30Z</time>
      </trkpt>
      <trkpt lat="27.87904700" lon="-15.6767660">
        <ele>443.64200</ele>
        <time>2009-01-05T10:37:31Z</time>
      </trkpt>
      <trkpt lat="27.87905200" lon="-15.6767940">
        <ele>444.03600</ele>
        <time>2009-01-05T10:37:32Z</time>
      </trkpt>
      <trkpt lat="27.87905600" lon="-15.6768200">
        <ele>444.34000</ele>
        <time>2009-01-05T10:37:33Z</time>
      </trkpt>
      <trkpt lat="27.87905500" lon="-15.6768460">
        <ele>444.61000</ele>
        <time>2009-01-05T10:37:34Z</time>
      </trkpt>
      <trkpt lat="27.87905600" lon="-15.6768750">
        <ele>444.76900</ele>
        <time>2009-01-05T10:37:35Z</time>
      </trkpt>
      <trkpt lat="27.87905600" lon="-15.6769080">
        <ele>445.12900</ele>
        <time>2009-01-05T10:37:36Z</time>
      </trkpt>
      <trkpt lat="27.87905600" lon="-15.6769370">
        <ele>445.38800</ele>
        <time>2009-01-05T10:37:37Z</time>
      </trkpt>
      <trkpt lat="27.87905200" lon="-15.6769640">
        <ele>445.72200</ele>
        <time>2009-01-05T10:37:38Z</time>
      </trkpt>
      <trkpt lat="27.87904700" lon="-15.6769810">
        <ele>446.10600</ele>
        <time>2009-01-05T10:37:39Z</time>
      </trkpt>
      <trkpt lat="27.87904500" lon="-15.6770080">
        <ele>446.60400</ele>
        <time>2009-01-05T10:37:40Z</time>
      </trkpt>
      <trkpt lat="27.87904400" lon="-15.6770380">
        <ele>446.52100</ele>
        <time>2009-01-05T10:37:41Z</time>
      </trkpt>
      <trkpt lat="27.87904100" lon="-15.6770680">
        <ele>446.95300</ele>
        <time>2009-01-05T10:37:42Z</time>
      </trkpt>
      <trkpt lat="27.87904100" lon="-15.6770960">
        <ele>446.95400</ele>
        <time>2009-01-05T10:37:43Z</time>
      </trkpt>
      <trkpt lat="27.87904300" lon="-15.6771250">
        <ele>447.34100</ele>
        <time>2009-01-05T10:37:44Z</time>
      </trkpt>
      <trkpt lat="27.87904500" lon="-15.6771540">
        <ele>447.52000</ele>
        <time>2009-01-05T10:37:45Z</time>
      </trkpt>
      <trkpt lat="27.87904700" lon="-15.6771790">
        <ele>448.06500</ele>
        <time>2009-01-05T10:37:46Z</time>
      </trkpt>
      <trkpt lat="27.87904700" lon="-15.6772050">
        <ele>448.31700</ele>
        <time>2009-01-05T10:37:47Z</time>
      </trkpt>
      <trkpt lat="27.87903900" lon="-15.6772350">
        <ele>448.59200</ele>
        <time>2009-01-05T10:37:48Z</time>
      </trkpt>
      <trkpt lat="27.87903700" lon="-15.6772610">
        <ele>448.79100</ele>
        <time>2009-01-05T10:37:49Z</time>
      </trkpt>
      <trkpt lat="27.87903500" lon="-15.6772870">
        <ele>449.14100</ele>
        <time>2009-01-05T10:37:50Z</time>
      </trkpt>
      <trkpt lat="27.87903000" lon="-15.6773130">
        <ele>449.23200</ele>
        <time>2009-01-05T10:37:51Z</time>
      </trkpt>
      <trkpt lat="27.87902500" lon="-15.6773350">
        <ele>449.43300</ele>
        <time>2009-01-05T10:37:52Z</time>
      </trkpt>
      <trkpt lat="27.87902200" lon="-15.6773560">
        <ele>449.84100</ele>
        <time>2009-01-05T10:37:53Z</time>
      </trkpt>
      <trkpt lat="27.87902000" lon="-15.6773800">
        <ele>450.09300</ele>
        <time>2009-01-05T10:37:54Z</time>
      </trkpt>
      <trkpt lat="27.87902000" lon="-15.6774050">
        <ele>450.29700</ele>
        <time>2009-01-05T10:37:55Z</time>
      </trkpt>
      <trkpt lat="27.87901700" lon="-15.6774350">
        <ele>450.64800</ele>
        <time>2009-01-05T10:37:56Z</time>
      </trkpt>
      <trkpt lat="27.87901900" lon="-15.6774620">
        <ele>450.60600</ele>
        <time>2009-01-05T10:37:57Z</time>
      </trkpt>
      <trkpt lat="27.87902100" lon="-15.6774930">
        <ele>450.86600</ele>
        <time>2009-01-05T10:37:58Z</time>
      </trkpt>
      <trkpt lat="27.87902000" lon="-15.6775240">
        <ele>451.14400</ele>
        <time>2009-01-05T10:37:59Z</time>
      </trkpt>
      <trkpt lat="27.87901800" lon="-15.6775540">
        <ele>451.22600</ele>
        <time>2009-01-05T10:38:00Z</time>
      </trkpt>
      <trkpt lat="27.87901400" lon="-15.6775820">
        <ele>451.54900</ele>
        <time>2009-01-05T10:38:01Z</time>
      </trkpt>
      <trkpt lat="27.87901000" lon="-15.6776080">
        <ele>451.90100</ele>
        <time>2009-01-05T10:38:02Z</time>
      </trkpt>
      <trkpt lat="27.87900300" lon="-15.6776330">
        <ele>451.77500</ele>
        <time>2009-01-05T10:38:03Z</time>
      </trkpt>
      <trkpt lat="27.87899400" lon="-15.6776580">
        <ele>452.46500</ele>
        <time>2009-01-05T10:38:04Z</time>
      </trkpt>
      <trkpt lat="27.87898400" lon="-15.6776830">
        <ele>452.52100</ele>
        <time>2009-01-05T10:38:05Z</time>
      </trkpt>
      <trkpt lat="27.87897400" lon="-15.6777080">
        <ele>452.77200</ele>
        <time>2009-01-05T10:38:06Z</time>
      </trkpt>
      <trkpt lat="27.87896400" lon="-15.6777320">
        <ele>453.17100</ele>
        <time>2009-01-05T10:38:07Z</time>
      </trkpt>
      <trkpt lat="27.87895000" lon="-15.6777540">
        <ele>453.48300</ele>
        <time>2009-01-05T10:38:08Z</time>
      </trkpt>
      <trkpt lat="27.87893500" lon="-15.6777740">
        <ele>453.83700</ele>
        <time>2009-01-05T10:38:09Z</time>
      </trkpt>
      <trkpt lat="27.87892100" lon="-15.6777990">
        <ele>454.16300</ele>
        <time>2009-01-05T10:38:10Z</time>
      </trkpt>
      <trkpt lat="27.87890600" lon="-15.6778180">
        <ele>454.38000</ele>
        <time>2009-01-05T10:38:11Z</time>
      </trkpt>
      <trkpt lat="27.87888700" lon="-15.6778370">
        <ele>454.49700</ele>
        <time>2009-01-05T10:38:12Z</time>
      </trkpt>
      <trkpt lat="27.87886500" lon="-15.6778540">
        <ele>454.96500</ele>
        <time>2009-01-05T10:38:13Z</time>
      </trkpt>
      <trkpt lat="27.87884300" lon="-15.6778720">
        <ele>454.83400</ele>
        <time>2009-01-05T10:38:14Z</time>
      </trkpt>
      <trkpt lat="27.87882000" lon="-15.6778870">
        <ele>455.04700</ele>
        <time>2009-01-05T10:38:15Z</time>
      </trkpt>
      <trkpt lat="27.87879800" lon="-15.6779040">
        <ele>455.50000</ele>
        <time>2009-01-05T10:38:16Z</time>
      </trkpt>
      <trkpt lat="27.87877800" lon="-15.6779260">
        <ele>455.79500</ele>
        <time>2009-01-05T10:38:17Z</time>
      </trkpt>
      <trkpt lat="27.87875900" lon="-15.6779470">
        <ele>456.00100</ele>
        <time>2009-01-05T10:38:18Z</time>
      </trkpt>
      <trkpt lat="27.87874100" lon="-15.6779670">
        <ele>456.24800</ele>
        <time>2009-01-05T10:38:19Z</time>
      </trkpt>
      <trkpt lat="27.87872100" lon="-15.6779850">
        <ele>456.60200</ele>
        <time>2009-01-05T10:38:20Z</time>
      </trkpt>
      <trkpt lat="27.87870100" lon="-15.6780020">
        <ele>456.87600</ele>
        <time>2009-01-05T10:38:21Z</time>
      </trkpt>
      <trkpt lat="27.87868000" lon="-15.6780190">
        <ele>457.18700</ele>
        <time>2009-01-05T10:38:22Z</time>
      </trkpt>
      <trkpt lat="27.87865900" lon="-15.6780420">
        <ele>457.52900</ele>
        <time>2009-01-05T10:38:23Z</time>
      </trkpt>
      <trkpt lat="27.87863900" lon="-15.6780650">
        <ele>457.76100</ele>
        <time>2009-01-05T10:38:24Z</time>
      </trkpt>
      <trkpt lat="27.87862100" lon="-15.6780890">
        <ele>458.06600</ele>
        <time>2009-01-05T10:38:25Z</time>
      </trkpt>
      <trkpt lat="27.87860700" lon="-15.6781150">
        <ele>458.62200</ele>
        <time>2009-01-05T10:38:26Z</time>
      </trkpt>
      <trkpt lat="27.87860000" lon="-15.6781430">
        <ele>458.99500</ele>
        <time>2009-01-05T10:38:27Z</time>
      </trkpt>
      <trkpt lat="27.87860100" lon="-15.6781720">
        <ele>459.45600</ele>
        <time>2009-01-05T10:38:28Z</time>
      </trkpt>
      <trkpt lat="27.87861300" lon="-15.6781960">
        <ele>459.87900</ele>
        <time>2009-01-05T10:38:29Z</time>
      </trkpt>
      <trkpt lat="27.87863300" lon="-15.6782070">
        <ele>460.36200</ele>
        <time>2009-01-05T10:38:30Z</time>
      </trkpt>
      <trkpt lat="27.87865500" lon="-15.6782070">
        <ele>460.82700</ele>
        <time>2009-01-05T10:38:31Z</time>
      </trkpt>
      <trkpt lat="27.87867600" lon="-15.6781970">
        <ele>460.95600</ele>
        <time>2009-01-05T10:38:32Z</time>
      </trkpt>
      <trkpt lat="27.87869400" lon="-15.6781800">
        <ele>461.60000</ele>
        <time>2009-01-05T10:38:33Z</time>
      </trkpt>
      <trkpt lat="27.87871000" lon="-15.6781590">
        <ele>461.68900</ele>
        <time>2009-01-05T10:38:34Z</time>
      </trkpt>
      <trkpt lat="27.87872600" lon="-15.6781380">
        <ele>462.05600</ele>
        <time>2009-01-05T10:38:35Z</time>
      </trkpt>
      <trkpt lat="27.87874200" lon="-15.6781180">
        <ele>462.50100</ele>
        <time>2009-01-05T10:38:36Z</time>
      </trkpt>
      <trkpt lat="27.87875900" lon="-15.6780980">
        <ele>463.06100</ele>
        <time>2009-01-05T10:38:37Z</time>
      </trkpt>
      <trkpt lat="27.87877600" lon="-15.6780780">
        <ele>463.51500</ele>
        <time>2009-01-05T10:38:38Z</time>
      </trkpt>
      <trkpt lat="27.87879300" lon="-15.6780580">
        <ele>463.53800</ele>
        <time>2009-01-05T10:38:39Z</time>
      </trkpt>
      <trkpt lat="27.87881200" lon="-15.6780370">
        <ele>463.80900</ele>
        <time>2009-01-05T10:38:40Z</time>
      </trkpt>
      <trkpt lat="27.87883300" lon="-15.6780140">
        <ele>464.21200</ele>
        <time>2009-01-05T10:38:41Z</time>
      </trkpt>
      <trkpt lat="27.87885200" lon="-15.6779930">
        <ele>464.33300</ele>
        <time>2009-01-05T10:38:42Z</time>
      </trkpt>
      <trkpt lat="27.87887300" lon="-15.6779730">
        <ele>464.57000</ele>
        <time>2009-01-05T10:38:43Z</time>
      </trkpt>
      <trkpt lat="27.87889500" lon="-15.6779540">
        <ele>464.63000</ele>
        <time>2009-01-05T10:38:44Z</time>
      </trkpt>
      <trkpt lat="27.87891700" lon="-15.6779320">
        <ele>464.71700</ele>
        <time>2009-01-05T10:38:45Z</time>
      </trkpt>
      <trkpt lat="27.87893700" lon="-15.6779090">
        <ele>465.02000</ele>
        <time>2009-01-05T10:38:46Z</time>
      </trkpt>
      <trkpt lat="27.87895600" lon="-15.6778850">
        <ele>464.98800</ele>
        <time>2009-01-05T10:38:47Z</time>
      </trkpt>
      <trkpt lat="27.87897700" lon="-15.6778590">
        <ele>465.35700</ele>
        <time>2009-01-05T10:38:48Z</time>
      </trkpt>
      <trkpt lat="27.87899600" lon="-15.6778300">
        <ele>465.41500</ele>
        <time>2009-01-05T10:38:49Z</time>
      </trkpt>
      <trkpt lat="27.87901800" lon="-15.6778000">
        <ele>465.45400</ele>
        <time>2009-01-05T10:38:50Z</time>
      </trkpt>
      <trkpt lat="27.87904200" lon="-15.6777700">
        <ele>465.53300</ele>
        <time>2009-01-05T10:38:51Z</time>
      </trkpt>
      <trkpt lat="27.87906800" lon="-15.6777410">
        <ele>465.75700</ele>
        <time>2009-01-05T10:38:52Z</time>
      </trkpt>
      <trkpt lat="27.87909500" lon="-15.6777070">
        <ele>465.74800</ele>
        <time>2009-01-05T10:38:53Z</time>
      </trkpt>
      <trkpt lat="27.87912000" lon="-15.6776660">
        <ele>465.76600</ele>
        <time>2009-01-05T10:38:54Z</time>
      </trkpt>
      <trkpt lat="27.87914000" lon="-15.6776160">
        <ele>465.52000</ele>
        <time>2009-01-05T10:38:55Z</time>
      </trkpt>
      <trkpt lat="27.87915300" lon="-15.6775600">
        <ele>465.84900</ele>
        <time>2009-01-05T10:38:56Z</time>
      </trkpt>
      <trkpt lat="27.87916200" lon="-15.6775020">
        <ele>465.71400</ele>
        <time>2009-01-05T10:38:57Z</time>
      </trkpt>
      <trkpt lat="27.87917300" lon="-15.6774430">
        <ele>466.02800</ele>
        <time>2009-01-05T10:38:58Z</time>
      </trkpt>
      <trkpt lat="27.87918700" lon="-15.6773840">
        <ele>466.02200</ele>
        <time>2009-01-05T10:38:59Z</time>
      </trkpt>
      <trkpt lat="27.87920100" lon="-15.6773270">
        <ele>465.97600</ele>
        <time>2009-01-05T10:39:00Z</time>
      </trkpt>
      <trkpt lat="27.87921500" lon="-15.6772710">
        <ele>465.87000</ele>
        <time>2009-01-05T10:39:01Z</time>
      </trkpt>
      <trkpt lat="27.87922900" lon="-15.6772150">
        <ele>466.24400</ele>
        <time>2009-01-05T10:39:02Z</time>
      </trkpt>
      <trkpt lat="27.87923700" lon="-15.6771570">
        <ele>466.12500</ele>
        <time>2009-01-05T10:39:03Z</time>
      </trkpt>
      <trkpt lat="27.87924200" lon="-15.6770990">
        <ele>466.30100</ele>
        <time>2009-01-05T10:39:04Z</time>
      </trkpt>
      <trkpt lat="27.87924600" lon="-15.6770400">
        <ele>466.45600</ele>
        <time>2009-01-05T10:39:05Z</time>
      </trkpt>
      <trkpt lat="27.87925000" lon="-15.6769850">
        <ele>466.72500</ele>
        <time>2009-01-05T10:39:06Z</time>
      </trkpt>
      <trkpt lat="27.87926000" lon="-15.6769310">
        <ele>467.12100</ele>
        <time>2009-01-05T10:39:07Z</time>
      </trkpt>
      <trkpt lat="27.87927800" lon="-15.6768810">
        <ele>467.41400</ele>
        <time>2009-01-05T10:39:08Z</time>
      </trkpt>
      <trkpt lat="27.87930600" lon="-15.6768410">
        <ele>467.70400</ele>
        <time>2009-01-05T10:39:09Z</time>
      </trkpt>
      <trkpt lat="27.87933900" lon="-15.6768110">
        <ele>467.68200</ele>
        <time>2009-01-05T10:39:10Z</time>
      </trkpt>
      <trkpt lat="27.87937500" lon="-15.6767860">
        <ele>468.27100</ele>
        <time>2009-01-05T10:39:11Z</time>
      </trkpt>
      <trkpt lat="27.87941400" lon="-15.6767640">
        <ele>468.40000</ele>
        <time>2009-01-05T10:39:12Z</time>
      </trkpt>
      <trkpt lat="27.87945300" lon="-15.6767430">
        <ele>468.80600</ele>
        <time>2009-01-05T10:39:13Z</time>
      </trkpt>
      <trkpt lat="27.87949100" lon="-15.6767190">
        <ele>469.22300</ele>
        <time>2009-01-05T10:39:14Z</time>
      </trkpt>
      <trkpt lat="27.87953000" lon="-15.6766970">
        <ele>469.55500</ele>
        <time>2009-01-05T10:39:15Z</time>
      </trkpt>
      <trkpt lat="27.87956800" lon="-15.6766740">
        <ele>469.92000</ele>
        <time>2009-01-05T10:39:16Z</time>
      </trkpt>
      <trkpt lat="27.87960400" lon="-15.6766500">
        <ele>470.84600</ele>
        <time>2009-01-05T10:39:17Z</time>
      </trkpt>
      <trkpt lat="27.87963700" lon="-15.6766230">
        <ele>471.09900</ele>
        <time>2009-01-05T10:39:18Z</time>
      </trkpt>
      <trkpt lat="27.87966800" lon="-15.6765930">
        <ele>471.23600</ele>
        <time>2009-01-05T10:39:19Z</time>
      </trkpt>
      <trkpt lat="27.87969900" lon="-15.6765630">
        <ele>471.76800</ele>
        <time>2009-01-05T10:39:20Z</time>
      </trkpt>
      <trkpt lat="27.87973000" lon="-15.6765340">
        <ele>472.28000</ele>
        <time>2009-01-05T10:39:21Z</time>
      </trkpt>
      <trkpt lat="27.87976400" lon="-15.6765090">
        <ele>472.92900</ele>
        <time>2009-01-05T10:39:22Z</time>
      </trkpt>
      <trkpt lat="27.87980200" lon="-15.6764900">
        <ele>472.91000</ele>
        <time>2009-01-05T10:39:23Z</time>
      </trkpt>
      <trkpt lat="27.87984100" lon="-15.6764800">
        <ele>473.44500</ele>
        <time>2009-01-05T10:39:24Z</time>
      </trkpt>
      <trkpt lat="27.87988100" lon="-15.6764790">
        <ele>473.85900</ele>
        <time>2009-01-05T10:39:25Z</time>
      </trkpt>
      <trkpt lat="27.87992100" lon="-15.6764860">
        <ele>474.37900</ele>
        <time>2009-01-05T10:39:26Z</time>
      </trkpt>
      <trkpt lat="27.87995900" lon="-15.6765000">
        <ele>474.74000</ele>
        <time>2009-01-05T10:39:27Z</time>
      </trkpt>
      <trkpt lat="27.87999400" lon="-15.6765210">
        <ele>475.29900</ele>
        <time>2009-01-05T10:39:28Z</time>
      </trkpt>
      <trkpt lat="27.88002900" lon="-15.6765440">
        <ele>475.38000</ele>
        <time>2009-01-05T10:39:29Z</time>
      </trkpt>
      <trkpt lat="27.88006200" lon="-15.6765690">
        <ele>475.89900</ele>
        <time>2009-01-05T10:39:30Z</time>
      </trkpt>
      <trkpt lat="27.88009400" lon="-15.6765970">
        <ele>476.44700</ele>
        <time>2009-01-05T10:39:31Z</time>
      </trkpt>
      <trkpt lat="27.88012200" lon="-15.6766330">
        <ele>476.85600</ele>
        <time>2009-01-05T10:39:32Z</time>
      </trkpt>
      <trkpt lat="27.88015000" lon="-15.6766660">
        <ele>476.90500</ele>
        <time>2009-01-05T10:39:33Z</time>
      </trkpt>
      <trkpt lat="27.88017900" lon="-15.6766990">
        <ele>477.63800</ele>
        <time>2009-01-05T10:39:34Z</time>
      </trkpt>
      <trkpt lat="27.88020800" lon="-15.6767320">
        <ele>477.94000</ele>
        <time>2009-01-05T10:39:35Z</time>
      </trkpt>
      <trkpt lat="27.88023700" lon="-15.6767650">
        <ele>478.28400</ele>
        <time>2009-01-05T10:39:36Z</time>
      </trkpt>
      <trkpt lat="27.88027000" lon="-15.6767940">
        <ele>478.80200</ele>
        <time>2009-01-05T10:39:37Z</time>
      </trkpt>
      <trkpt lat="27.88030300" lon="-15.6768210">
        <ele>479.02900</ele>
        <time>2009-01-05T10:39:38Z</time>
      </trkpt>
      <trkpt lat="27.88033700" lon="-15.6768410">
        <ele>479.38800</ele>
        <time>2009-01-05T10:39:39Z</time>
      </trkpt>
      <trkpt lat="27.88037100" lon="-15.6768550">
        <ele>479.57300</ele>
        <time>2009-01-05T10:39:40Z</time>
      </trkpt>
      <trkpt lat="27.88040500" lon="-15.6768630">
        <ele>480.08800</ele>
        <time>2009-01-05T10:39:41Z</time>
      </trkpt>
      <trkpt lat="27.88043900" lon="-15.6768680">
        <ele>480.36500</ele>
        <time>2009-01-05T10:39:42Z</time>
      </trkpt>
      <trkpt lat="27.88047200" lon="-15.6768730">
        <ele>480.37300</ele>
        <time>2009-01-05T10:39:43Z</time>
      </trkpt>
      <trkpt lat="27.88050400" lon="-15.6768770">
        <ele>480.93500</ele>
        <time>2009-01-05T10:39:44Z</time>
      </trkpt>
      <trkpt lat="27.88053600" lon="-15.6768820">
        <ele>481.18100</ele>
        <time>2009-01-05T10:39:45Z</time>
      </trkpt>
      <trkpt lat="27.88056700" lon="-15.6768890">
        <ele>481.93900</ele>
        <time>2009-01-05T10:39:46Z</time>
      </trkpt>
      <trkpt lat="27.88059600" lon="-15.6768990">
        <ele>482.05500</ele>
        <time>2009-01-05T10:39:47Z</time>
      </trkpt>
      <trkpt lat="27.88062200" lon="-15.6769120">
        <ele>482.17800</ele>
        <time>2009-01-05T10:39:48Z</time>
      </trkpt>
      <trkpt lat="27.88064700" lon="-15.6769280">
        <ele>482.60800</ele>
        <time>2009-01-05T10:39:49Z</time>
      </trkpt>
      <trkpt lat="27.88066900" lon="-15.6769470">
        <ele>482.98800</ele>
        <time>2009-01-05T10:39:50Z</time>
      </trkpt>
      <trkpt lat="27.88069000" lon="-15.6769690">
        <ele>483.43900</ele>
        <time>2009-01-05T10:39:51Z</time>
      </trkpt>
      <trkpt lat="27.88070900" lon="-15.6769920">
        <ele>483.60200</ele>
        <time>2009-01-05T10:39:52Z</time>
      </trkpt>
      <trkpt lat="27.88072500" lon="-15.6770170">
        <ele>483.81800</ele>
        <time>2009-01-05T10:39:53Z</time>
      </trkpt>
      <trkpt lat="27.88074000" lon="-15.6770430">
        <ele>484.23500</ele>
        <time>2009-01-05T10:39:54Z</time>
      </trkpt>
      <trkpt lat="27.88075300" lon="-15.6770700">
        <ele>484.24400</ele>
        <time>2009-01-05T10:39:55Z</time>
      </trkpt>
      <trkpt lat="27.88076700" lon="-15.6770980">
        <ele>484.80100</ele>
        <time>2009-01-05T10:39:56Z</time>
      </trkpt>
      <trkpt lat="27.88078100" lon="-15.6771280">
        <ele>485.18600</ele>
        <time>2009-01-05T10:39:57Z</time>
      </trkpt>
      <trkpt lat="27.88079500" lon="-15.6771590">
        <ele>485.24800</ele>
        <time>2009-01-05T10:39:58Z</time>
      </trkpt>
      <trkpt lat="27.88080700" lon="-15.6771910">
        <ele>485.64800</ele>
        <time>2009-01-05T10:39:59Z</time>
      </trkpt>
      <trkpt lat="27.88082100" lon="-15.6772240">
        <ele>486.06200</ele>
        <time>2009-01-05T10:40:00Z</time>
      </trkpt>
      <trkpt lat="27.88083400" lon="-15.6772580">
        <ele>486.21400</ele>
        <time>2009-01-05T10:40:01Z</time>
      </trkpt>
      <trkpt lat="27.88084700" lon="-15.6772910">
        <ele>486.61700</ele>
        <time>2009-01-05T10:40:02Z</time>
      </trkpt>
      <trkpt lat="27.88086100" lon="-15.6773250">
        <ele>486.96800</ele>
        <time>2009-01-05T10:40:03Z</time>
      </trkpt>
      <trkpt lat="27.88087600" lon="-15.6773590">
        <ele>487.41800</ele>
        <time>2009-01-05T10:40:04Z</time>
      </trkpt>
      <trkpt lat="27.88089300" lon="-15.6773930">
        <ele>487.65500</ele>
        <time>2009-01-05T10:40:05Z</time>
      </trkpt>
      <trkpt lat="27.88091400" lon="-15.6774230">
        <ele>487.97800</ele>
        <time>2009-01-05T10:40:06Z</time>
      </trkpt>
      <trkpt lat="27.88094000" lon="-15.6774480">
        <ele>488.01900</ele>
        <time>2009-01-05T10:40:07Z</time>
      </trkpt>
      <trkpt lat="27.88096900" lon="-15.6774660">
        <ele>488.25100</ele>
        <time>2009-01-05T10:40:08Z</time>
      </trkpt>
      <trkpt lat="27.88100100" lon="-15.6774800">
        <ele>488.56700</ele>
        <time>2009-01-05T10:40:09Z</time>
      </trkpt>
      <trkpt lat="27.88103300" lon="-15.6774880">
        <ele>488.95100</ele>
        <time>2009-01-05T10:40:10Z</time>
      </trkpt>
      <trkpt lat="27.88106400" lon="-15.6774940">
        <ele>489.29700</ele>
        <time>2009-01-05T10:40:11Z</time>
      </trkpt>
      <trkpt lat="27.88109500" lon="-15.6774990">
        <ele>489.53100</ele>
        <time>2009-01-05T10:40:12Z</time>
      </trkpt>
      <trkpt lat="27.88112500" lon="-15.6775050">
        <ele>489.69900</ele>
        <time>2009-01-05T10:40:13Z</time>
      </trkpt>
      <trkpt lat="27.88115600" lon="-15.6775100">
        <ele>490.38300</ele>
        <time>2009-01-05T10:40:14Z</time>
      </trkpt>
      <trkpt lat="27.88118500" lon="-15.6775150">
        <ele>490.62200</ele>
        <time>2009-01-05T10:40:15Z</time>
      </trkpt>
      <trkpt lat="27.88121500" lon="-15.6775200">
        <ele>490.99400</ele>
        <time>2009-01-05T10:40:16Z</time>
      </trkpt>
      <trkpt lat="27.88124500" lon="-15.6775220">
        <ele>491.11000</ele>
        <time>2009-01-05T10:40:17Z</time>
      </trkpt>
      <trkpt lat="27.88127400" lon="-15.6775250">
        <ele>491.50000</ele>
        <time>2009-01-05T10:40:18Z</time>
      </trkpt>
      <trkpt lat="27.88130500" lon="-15.6775290">
        <ele>491.45500</ele>
        <time>2009-01-05T10:40:19Z</time>
      </trkpt>
      <trkpt lat="27.88133600" lon="-15.6775310">
        <ele>491.72400</ele>
        <time>2009-01-05T10:40:20Z</time>
      </trkpt>
      <trkpt lat="27.88136600" lon="-15.6775320">
        <ele>492.15100</ele>
        <time>2009-01-05T10:40:21Z</time>
      </trkpt>
      <trkpt lat="27.88139600" lon="-15.6775340">
        <ele>492.33300</ele>
        <time>2009-01-05T10:40:22Z</time>
      </trkpt>
      <trkpt lat="27.88142500" lon="-15.6775410">
        <ele>492.56300</ele>
        <time>2009-01-05T10:40:23Z</time>
      </trkpt>
      <trkpt lat="27.88145200" lon="-15.6775510">
        <ele>492.80300</ele>
        <time>2009-01-05T10:40:24Z</time>
      </trkpt>
      <trkpt lat="27.88147600" lon="-15.6775660">
        <ele>493.48000</ele>
        <time>2009-01-05T10:40:25Z</time>
      </trkpt>
      <trkpt lat="27.88149900" lon="-15.6775870">
        <ele>493.62000</ele>
        <time>2009-01-05T10:40:26Z</time>
      </trkpt>
      <trkpt lat="27.88151800" lon="-15.6776120">
        <ele>493.98100</ele>
        <time>2009-01-05T10:40:27Z</time>
      </trkpt>
      <trkpt lat="27.88153700" lon="-15.6776380">
        <ele>494.00500</ele>
        <time>2009-01-05T10:40:28Z</time>
      </trkpt>
      <trkpt lat="27.88155700" lon="-15.6776650">
        <ele>494.49300</ele>
        <time>2009-01-05T10:40:29Z</time>
      </trkpt>
      <trkpt lat="27.88157700" lon="-15.6776910">
        <ele>494.73100</ele>
        <time>2009-01-05T10:40:30Z</time>
      </trkpt>
      <trkpt lat="27.88159700" lon="-15.6777170">
        <ele>494.72000</ele>
        <time>2009-01-05T10:40:31Z</time>
      </trkpt>
      <trkpt lat="27.88161900" lon="-15.6777420">
        <ele>495.02100</ele>
        <time>2009-01-05T10:40:32Z</time>
      </trkpt>
      <trkpt lat="27.88164200" lon="-15.6777650">
        <ele>495.25500</ele>
        <time>2009-01-05T10:40:33Z</time>
      </trkpt>
      <trkpt lat="27.88166700" lon="-15.6777860">
        <ele>495.45900</ele>
        <time>2009-01-05T10:40:34Z</time>
      </trkpt>
      <trkpt lat="27.88169300" lon="-15.6778040">
        <ele>496.06300</ele>
        <time>2009-01-05T10:40:35Z</time>
      </trkpt>
      <trkpt lat="27.88172000" lon="-15.6778160">
        <ele>496.10500</ele>
        <time>2009-01-05T10:40:36Z</time>
      </trkpt>
      <trkpt lat="27.88174900" lon="-15.6778240">
        <ele>496.31900</ele>
        <time>2009-01-05T10:40:37Z</time>
      </trkpt>
      <trkpt lat="27.88177700" lon="-15.6778270">
        <ele>496.79100</ele>
        <time>2009-01-05T10:40:38Z</time>
      </trkpt>
      <trkpt lat="27.88180500" lon="-15.6778230">
        <ele>497.07100</ele>
        <time>2009-01-05T10:40:39Z</time>
      </trkpt>
      <trkpt lat="27.88183100" lon="-15.6778120">
        <ele>497.17000</ele>
        <time>2009-01-05T10:40:40Z</time>
      </trkpt>
      <trkpt lat="27.88185500" lon="-15.6777950">
        <ele>497.34100</ele>
        <time>2009-01-05T10:40:41Z</time>
      </trkpt>
      <trkpt lat="27.88187800" lon="-15.6777750">
        <ele>497.61300</ele>
        <time>2009-01-05T10:40:42Z</time>
      </trkpt>
      <trkpt lat="27.88189900" lon="-15.6777540">
        <ele>497.91400</ele>
        <time>2009-01-05T10:40:43Z</time>
      </trkpt>
      <trkpt lat="27.88191800" lon="-15.6777320">
        <ele>498.28600</ele>
        <time>2009-01-05T10:40:44Z</time>
      </trkpt>
      <trkpt lat="27.88193600" lon="-15.6777080">
        <ele>498.41200</ele>
        <time>2009-01-05T10:40:45Z</time>
      </trkpt>
      <trkpt lat="27.88195200" lon="-15.6776830">
        <ele>498.25500</ele>
        <time>2009-01-05T10:40:46Z</time>
      </trkpt>
      <trkpt lat="27.88196600" lon="-15.6776590">
        <ele>498.87800</ele>
        <time>2009-01-05T10:40:47Z</time>
      </trkpt>
      <trkpt lat="27.88198200" lon="-15.6776330">
        <ele>499.28200</ele>
        <time>2009-01-05T10:40:48Z</time>
      </trkpt>
      <trkpt lat="27.88199900" lon="-15.6776080">
        <ele>499.38700</ele>
        <time>2009-01-05T10:40:49Z</time>
      </trkpt>
      <trkpt lat="27.88201500" lon="-15.6775830">
        <ele>499.68200</ele>
        <time>2009-01-05T10:40:50Z</time>
      </trkpt>
      <trkpt lat="27.88203000" lon="-15.6775580">
        <ele>499.95100</ele>
        <time>2009-01-05T10:40:51Z</time>
      </trkpt>
      <trkpt lat="27.88204400" lon="-15.6775310">
        <ele>499.93500</ele>
        <time>2009-01-05T10:40:52Z</time>
      </trkpt>
      <trkpt lat="27.88205600" lon="-15.6775020">
        <ele>500.31000</ele>
        <time>2009-01-05T10:40:53Z</time>
      </trkpt>
      <trkpt lat="27.88207000" lon="-15.6774740">
        <ele>500.81400</ele>
        <time>2009-01-05T10:40:54Z</time>
      </trkpt>
      <trkpt lat="27.88208700" lon="-15.6774480">
        <ele>501.13100</ele>
        <time>2009-01-05T10:40:55Z</time>
      </trkpt>
      <trkpt lat="27.88210400" lon="-15.6774230">
        <ele>501.09600</ele>
        <time>2009-01-05T10:40:56Z</time>
      </trkpt>
      <trkpt lat="27.88211900" lon="-15.6773970">
        <ele>501.33600</ele>
        <time>2009-01-05T10:40:57Z</time>
      </trkpt>
      <trkpt lat="27.88213300" lon="-15.6773700">
        <ele>501.64500</ele>
        <time>2009-01-05T10:40:58Z</time>
      </trkpt>
      <trkpt lat="27.88214600" lon="-15.6773430">
        <ele>502.12800</ele>
        <time>2009-01-05T10:40:59Z</time>
      </trkpt>
      <trkpt lat="27.88215900" lon="-15.6773160">
        <ele>502.32400</ele>
        <time>2009-01-05T10:41:00Z</time>
      </trkpt>
      <trkpt lat="27.88217300" lon="-15.6772880">
        <ele>502.52700</ele>
        <time>2009-01-05T10:41:01Z</time>
      </trkpt>
      <trkpt lat="27.88218600" lon="-15.6772610">
        <ele>502.72500</ele>
        <time>2009-01-05T10:41:02Z</time>
      </trkpt>
      <trkpt lat="27.88219800" lon="-15.6772330">
        <ele>502.70900</ele>
        <time>2009-01-05T10:41:03Z</time>
      </trkpt>
      <trkpt lat="27.88221100" lon="-15.6772060">
        <ele>503.10200</ele>
        <time>2009-01-05T10:41:04Z</time>
      </trkpt>
      <trkpt lat="27.88222400" lon="-15.6771790">
        <ele>503.31400</ele>
        <time>2009-01-05T10:41:05Z</time>
      </trkpt>
      <trkpt lat="27.88223900" lon="-15.6771540">
        <ele>503.50600</ele>
        <time>2009-01-05T10:41:06Z</time>
      </trkpt>
      <trkpt lat="27.88225400" lon="-15.6771300">
        <ele>503.65400</ele>
        <time>2009-01-05T10:41:07Z</time>
      </trkpt>
      <trkpt lat="27.88227300" lon="-15.6771090">
        <ele>504.21200</ele>
        <time>2009-01-05T10:41:08Z</time>
      </trkpt>
      <trkpt lat="27.88229500" lon="-15.6770940">
        <ele>504.50300</ele>
        <time>2009-01-05T10:41:09Z</time>
      </trkpt>
      <trkpt lat="27.88231900" lon="-15.6770830">
        <ele>504.65300</ele>
        <time>2009-01-05T10:41:10Z</time>
      </trkpt>
      <trkpt lat="27.88234500" lon="-15.6770780">
        <ele>504.66300</ele>
        <time>2009-01-05T10:41:11Z</time>
      </trkpt>
      <trkpt lat="27.88236900" lon="-15.6770840">
        <ele>505.16300</ele>
        <time>2009-01-05T10:41:12Z</time>
      </trkpt>
      <trkpt lat="27.88239000" lon="-15.6771030">
        <ele>505.39000</ele>
        <time>2009-01-05T10:41:13Z</time>
      </trkpt>
      <trkpt lat="27.88240100" lon="-15.6771290">
        <ele>505.83700</ele>
        <time>2009-01-05T10:41:14Z</time>
      </trkpt>
      <trkpt lat="27.88240100" lon="-15.6771570">
        <ele>506.42600</ele>
        <time>2009-01-05T10:41:15Z</time>
      </trkpt>
      <trkpt lat="27.88239400" lon="-15.6771830">
        <ele>506.85400</ele>
        <time>2009-01-05T10:41:16Z</time>
      </trkpt>
      <trkpt lat="27.88238300" lon="-15.6772100">
        <ele>507.16900</ele>
        <time>2009-01-05T10:41:17Z</time>
      </trkpt>
      <trkpt lat="27.88236700" lon="-15.6772360">
        <ele>507.51300</ele>
        <time>2009-01-05T10:41:18Z</time>
      </trkpt>
      <trkpt lat="27.88234900" lon="-15.6772620">
        <ele>507.93300</ele>
        <time>2009-01-05T10:41:19Z</time>
      </trkpt>
      <trkpt lat="27.88233300" lon="-15.6772880">
        <ele>507.84300</ele>
        <time>2009-01-05T10:41:20Z</time>
      </trkpt>
      <trkpt lat="27.88231800" lon="-15.6773170">
        <ele>508.29000</ele>
        <time>2009-01-05T10:41:21Z</time>
      </trkpt>
      <trkpt lat="27.88230400" lon="-15.6773450">
        <ele>508.53400</ele>
        <time>2009-01-05T10:41:22Z</time>
      </trkpt>
      <trkpt lat="27.88228900" lon="-15.6773730">
        <ele>508.67400</ele>
        <time>2009-01-05T10:41:23Z</time>
      </trkpt>
      <trkpt lat="27.88227600" lon="-15.6774030">
        <ele>509.03900</ele>
        <time>2009-01-05T10:41:24Z</time>
      </trkpt>
      <trkpt lat="27.88226400" lon="-15.6774340">
        <ele>509.17700</ele>
        <time>2009-01-05T10:41:25Z</time>
      </trkpt>
      <trkpt lat="27.88225400" lon="-15.6774650">
        <ele>509.45600</ele>
        <time>2009-01-05T10:41:26Z</time>
      </trkpt>
      <trkpt lat="27.88224600" lon="-15.6774970">
        <ele>509.61000</ele>
        <time>2009-01-05T10:41:27Z</time>
      </trkpt>
      <trkpt lat="27.88223900" lon="-15.6775300">
        <ele>509.97800</ele>
        <time>2009-01-05T10:41:28Z</time>
      </trkpt>
      <trkpt lat="27.88223200" lon="-15.6775650">
        <ele>510.11600</ele>
        <time>2009-01-05T10:41:29Z</time>
      </trkpt>
      <trkpt lat="27.88222700" lon="-15.6776010">
        <ele>510.32000</ele>
        <time>2009-01-05T10:41:30Z</time>
      </trkpt>
      <trkpt lat="27.88222400" lon="-15.6776340">
        <ele>510.43000</ele>
        <time>2009-01-05T10:41:31Z</time>
      </trkpt>
      <trkpt lat="27.88222200" lon="-15.6776670">
        <ele>510.80300</ele>
        <time>2009-01-05T10:41:32Z</time>
      </trkpt>
      <trkpt lat="27.88222000" lon="-15.6777000">
        <ele>511.23000</ele>
        <time>2009-01-05T10:41:33Z</time>
      </trkpt>
      <trkpt lat="27.88221800" lon="-15.6777330">
        <ele>511.50400</ele>
        <time>2009-01-05T10:41:34Z</time>
      </trkpt>
      <trkpt lat="27.88221600" lon="-15.6777650">
        <ele>511.77200</ele>
        <time>2009-01-05T10:41:35Z</time>
      </trkpt>
      <trkpt lat="27.88221500" lon="-15.6777970">
        <ele>512.14300</ele>
        <time>2009-01-05T10:41:36Z</time>
      </trkpt>
      <trkpt lat="27.88221400" lon="-15.6778290">
        <ele>512.32300</ele>
        <time>2009-01-05T10:41:37Z</time>
      </trkpt>
      <trkpt lat="27.88221300" lon="-15.6778610">
        <ele>512.66600</ele>
        <time>2009-01-05T10:41:38Z</time>
      </trkpt>
      <trkpt lat="27.88221200" lon="-15.6778930">
        <ele>512.90200</ele>
        <time>2009-01-05T10:41:39Z</time>
      </trkpt>
      <trkpt lat="27.88220900" lon="-15.6779250">
        <ele>512.83200</ele>
        <time>2009-01-05T10:41:40Z</time>
      </trkpt>
      <trkpt lat="27.88220600" lon="-15.6779570">
        <ele>513.27700</ele>
        <time>2009-01-05T10:41:41Z</time>
      </trkpt>
      <trkpt lat="27.88220300" lon="-15.6779890">
        <ele>513.89100</ele>
        <time>2009-01-05T10:41:42Z</time>
      </trkpt>
      <trkpt lat="27.88220100" lon="-15.6780210">
        <ele>514.02200</ele>
        <time>2009-01-05T10:41:43Z</time>
      </trkpt>
      <trkpt lat="27.88219900" lon="-15.6780510">
        <ele>514.23400</ele>
        <time>2009-01-05T10:41:44Z</time>
      </trkpt>
      <trkpt lat="27.88219500" lon="-15.6780810">
        <ele>514.35700</ele>
        <time>2009-01-05T10:41:45Z</time>
      </trkpt>
      <trkpt lat="27.88219100" lon="-15.6781090">
        <ele>514.75700</ele>
        <time>2009-01-05T10:41:46Z</time>
      </trkpt>
      <trkpt lat="27.88218700" lon="-15.6781380">
        <ele>515.02800</ele>
        <time>2009-01-05T10:41:47Z</time>
      </trkpt>
      <trkpt lat="27.88218300" lon="-15.6781680">
        <ele>515.66100</ele>
        <time>2009-01-05T10:41:48Z</time>
      </trkpt>
      <trkpt lat="27.88218200" lon="-15.6781970">
        <ele>515.74900</ele>
        <time>2009-01-05T10:41:49Z</time>
      </trkpt>
      <trkpt lat="27.88217900" lon="-15.6782260">
        <ele>515.96700</ele>
        <time>2009-01-05T10:41:50Z</time>
      </trkpt>
      <trkpt lat="27.88217300" lon="-15.6782570">
        <ele>516.44100</ele>
        <time>2009-01-05T10:41:51Z</time>
      </trkpt>
      <trkpt lat="27.88216300" lon="-15.6782880">
        <ele>516.46900</ele>
        <time>2009-01-05T10:41:52Z</time>
      </trkpt>
      <trkpt lat="27.88215200" lon="-15.6783170">
        <ele>516.89200</ele>
        <time>2009-01-05T10:41:53Z</time>
      </trkpt>
      <trkpt lat="27.88213600" lon="-15.6783460">
        <ele>517.20300</ele>
        <time>2009-01-05T10:41:54Z</time>
      </trkpt>
      <trkpt lat="27.88211700" lon="-15.6783750">
        <ele>517.48200</ele>
        <time>2009-01-05T10:41:55Z</time>
      </trkpt>
      <trkpt lat="27.88209500" lon="-15.6784040">
        <ele>517.62300</ele>
        <time>2009-01-05T10:41:56Z</time>
      </trkpt>
      <trkpt lat="27.88207300" lon="-15.6784300">
        <ele>517.96000</ele>
        <time>2009-01-05T10:41:57Z</time>
      </trkpt>
      <trkpt lat="27.88205000" lon="-15.6784560">
        <ele>518.26500</ele>
        <time>2009-01-05T10:41:58Z</time>
      </trkpt>
      <trkpt lat="27.88202400" lon="-15.6784830">
        <ele>518.13700</ele>
        <time>2009-01-05T10:41:59Z</time>
      </trkpt>
      <trkpt lat="27.88200000" lon="-15.6785100">
        <ele>518.60700</ele>
        <time>2009-01-05T10:42:00Z</time>
      </trkpt>
      <trkpt lat="27.88197800" lon="-15.6785370">
        <ele>519.05300</ele>
        <time>2009-01-05T10:42:01Z</time>
      </trkpt>
      <trkpt lat="27.88196000" lon="-15.6785640">
        <ele>519.14700</ele>
        <time>2009-01-05T10:42:02Z</time>
      </trkpt>
      <trkpt lat="27.88194500" lon="-15.6785920">
        <ele>519.82600</ele>
        <time>2009-01-05T10:42:03Z</time>
      </trkpt>
      <trkpt lat="27.88193000" lon="-15.6786200">
        <ele>519.97900</ele>
        <time>2009-01-05T10:42:04Z</time>
      </trkpt>
      <trkpt lat="27.88191500" lon="-15.6786500">
        <ele>520.26900</ele>
        <time>2009-01-05T10:42:05Z</time>
      </trkpt>
      <trkpt lat="27.88189700" lon="-15.6786820">
        <ele>520.25000</ele>
        <time>2009-01-05T10:42:06Z</time>
      </trkpt>
      <trkpt lat="27.88188000" lon="-15.6787130">
        <ele>520.38200</ele>
        <time>2009-01-05T10:42:07Z</time>
      </trkpt>
      <trkpt lat="27.88186200" lon="-15.6787430">
        <ele>520.65700</ele>
        <time>2009-01-05T10:42:08Z</time>
      </trkpt>
      <trkpt lat="27.88184500" lon="-15.6787710">
        <ele>521.02500</ele>
        <time>2009-01-05T10:42:09Z</time>
      </trkpt>
      <trkpt lat="27.88183000" lon="-15.6787990">
        <ele>521.22600</ele>
        <time>2009-01-05T10:42:10Z</time>
      </trkpt>
      <trkpt lat="27.88181300" lon="-15.6788260">
        <ele>521.50200</ele>
        <time>2009-01-05T10:42:11Z</time>
      </trkpt>
      <trkpt lat="27.88179300" lon="-15.6788570">
        <ele>521.73200</ele>
        <time>2009-01-05T10:42:12Z</time>
      </trkpt>
      <trkpt lat="27.88177800" lon="-15.6788890">
        <ele>522.23900</ele>
        <time>2009-01-05T10:42:13Z</time>
      </trkpt>
      <trkpt lat="27.88177300" lon="-15.6789230">
        <ele>522.69500</ele>
        <time>2009-01-05T10:42:14Z</time>
      </trkpt>
      <trkpt lat="27.88177900" lon="-15.6789540">
        <ele>523.24300</ele>
        <time>2009-01-05T10:42:15Z</time>
      </trkpt>
      <trkpt lat="27.88179300" lon="-15.6789800">
        <ele>523.85600</ele>
        <time>2009-01-05T10:42:16Z</time>
      </trkpt>
      <trkpt lat="27.88181500" lon="-15.6789870">
        <ele>524.60500</ele>
        <time>2009-01-05T10:42:17Z</time>
      </trkpt>
      <trkpt lat="27.88184100" lon="-15.6789760">
        <ele>525.13300</ele>
        <time>2009-01-05T10:42:18Z</time>
      </trkpt>
      <trkpt lat="27.88186600" lon="-15.6789510">
        <ele>525.30900</ele>
        <time>2009-01-05T10:42:19Z</time>
      </trkpt>
      <trkpt lat="27.88188900" lon="-15.6789220">
        <ele>525.92800</ele>
        <time>2009-01-05T10:42:20Z</time>
      </trkpt>
      <trkpt lat="27.88191200" lon="-15.6788910">
        <ele>526.50000</ele>
        <time>2009-01-05T10:42:21Z</time>
      </trkpt>
      <trkpt lat="27.88193400" lon="-15.6788620">
        <ele>526.96800</ele>
        <time>2009-01-05T10:42:22Z</time>
      </trkpt>
      <trkpt lat="27.88195300" lon="-15.6788320">
        <ele>527.45200</ele>
        <time>2009-01-05T10:42:23Z</time>
      </trkpt>
      <trkpt lat="27.88197200" lon="-15.6787990">
        <ele>527.65300</ele>
        <time>2009-01-05T10:42:24Z</time>
      </trkpt>
      <trkpt lat="27.88199100" lon="-15.6787660">
        <ele>528.11100</ele>
        <time>2009-01-05T10:42:25Z</time>
      </trkpt>
      <trkpt lat="27.88201600" lon="-15.6787290">
        <ele>528.34800</ele>
        <time>2009-01-05T10:42:26Z</time>
      </trkpt>
      <trkpt lat="27.88204400" lon="-15.6786950">
        <ele>528.90000</ele>
        <time>2009-01-05T10:42:27Z</time>
      </trkpt>
      <trkpt lat="27.88207200" lon="-15.6786610">
        <ele>528.81600</ele>
        <time>2009-01-05T10:42:28Z</time>
      </trkpt>
      <trkpt lat="27.88210100" lon="-15.6786280">
        <ele>529.07500</ele>
        <time>2009-01-05T10:42:29Z</time>
      </trkpt>
      <trkpt lat="27.88213000" lon="-15.6785970">
        <ele>529.29700</ele>
        <time>2009-01-05T10:42:30Z</time>
      </trkpt>
      <trkpt lat="27.88215900" lon="-15.6785670">
        <ele>529.66900</ele>
        <time>2009-01-05T10:42:31Z</time>
      </trkpt>
      <trkpt lat="27.88218800" lon="-15.6785380">
        <ele>530.00300</ele>
        <time>2009-01-05T10:42:32Z</time>
      </trkpt>
      <trkpt lat="27.88222000" lon="-15.6785100">
        <ele>530.36500</ele>
        <time>2009-01-05T10:42:33Z</time>
      </trkpt>
      <trkpt lat="27.88225200" lon="-15.6784820">
        <ele>530.64000</ele>
        <time>2009-01-05T10:42:34Z</time>
      </trkpt>
      <trkpt lat="27.88228400" lon="-15.6784540">
        <ele>530.79600</ele>
        <time>2009-01-05T10:42:35Z</time>
      </trkpt>
      <trkpt lat="27.88231300" lon="-15.6784230">
        <ele>531.27000</ele>
        <time>2009-01-05T10:42:36Z</time>
      </trkpt>
      <trkpt lat="27.88234000" lon="-15.6783890">
        <ele>531.55000</ele>
        <time>2009-01-05T10:42:37Z</time>
      </trkpt>
      <trkpt lat="27.88236400" lon="-15.6783520">
        <ele>531.85500</ele>
        <time>2009-01-05T10:42:38Z</time>
      </trkpt>
      <trkpt lat="27.88238400" lon="-15.6783120">
        <ele>532.09600</ele>
        <time>2009-01-05T10:42:39Z</time>
      </trkpt>
      <trkpt lat="27.88240100" lon="-15.6782690">
        <ele>532.44000</ele>
        <time>2009-01-05T10:42:40Z</time>
      </trkpt>
      <trkpt lat="27.88241600" lon="-15.6782260">
        <ele>532.96300</ele>
        <time>2009-01-05T10:42:41Z</time>
      </trkpt>
      <trkpt lat="27.88243100" lon="-15.6781840">
        <ele>533.39200</ele>
        <time>2009-01-05T10:42:42Z</time>
      </trkpt>
      <trkpt lat="27.88244600" lon="-15.6781420">
        <ele>533.34500</ele>
        <time>2009-01-05T10:42:43Z</time>
      </trkpt>
      <trkpt lat="27.88245800" lon="-15.6781010">
        <ele>533.74700</ele>
        <time>2009-01-05T10:42:44Z</time>
      </trkpt>
      <trkpt lat="27.88247200" lon="-15.6780590">
        <ele>533.98500</ele>
        <time>2009-01-05T10:42:45Z</time>
      </trkpt>
      <trkpt lat="27.88248800" lon="-15.6780180">
        <ele>534.26600</ele>
        <time>2009-01-05T10:42:46Z</time>
      </trkpt>
      <trkpt lat="27.88250500" lon="-15.6779790">
        <ele>534.53600</ele>
        <time>2009-01-05T10:42:47Z</time>
      </trkpt>
      <trkpt lat="27.88252600" lon="-15.6779410">
        <ele>534.85100</ele>
        <time>2009-01-05T10:42:48Z</time>
      </trkpt>
      <trkpt lat="27.88254800" lon="-15.6779050">
        <ele>535.03900</ele>
        <time>2009-01-05T10:42:49Z</time>
      </trkpt>
      <trkpt lat="27.88257100" lon="-15.6778700">
        <ele>535.48900</ele>
        <time>2009-01-05T10:42:50Z</time>
      </trkpt>
      <trkpt lat="27.88259400" lon="-15.6778350">
        <ele>535.61900</ele>
        <time>2009-01-05T10:42:51Z</time>
      </trkpt>
      <trkpt lat="27.88261900" lon="-15.6778010">
        <ele>535.94200</ele>
        <time>2009-01-05T10:42:52Z</time>
      </trkpt>
      <trkpt lat="27.88264400" lon="-15.6777690">
        <ele>536.28600</ele>
        <time>2009-01-05T10:42:53Z</time>
      </trkpt>
      <trkpt lat="27.88266900" lon="-15.6777390">
        <ele>536.89700</ele>
        <time>2009-01-05T10:42:54Z</time>
      </trkpt>
      <trkpt lat="27.88269600" lon="-15.6777100">
        <ele>537.18800</ele>
        <time>2009-01-05T10:42:55Z</time>
      </trkpt>
      <trkpt lat="27.88272600" lon="-15.6776830">
        <ele>538.06600</ele>
        <time>2009-01-05T10:42:56Z</time>
      </trkpt>
      <trkpt lat="27.88276000" lon="-15.6776620">
        <ele>538.12400</ele>
        <time>2009-01-05T10:42:57Z</time>
      </trkpt>
      <trkpt lat="27.88279800" lon="-15.6776520">
        <ele>538.28800</ele>
        <time>2009-01-05T10:42:58Z</time>
      </trkpt>
      <trkpt lat="27.88283800" lon="-15.6776520">
        <ele>538.82400</ele>
        <time>2009-01-05T10:42:59Z</time>
      </trkpt>
      <trkpt lat="27.88287600" lon="-15.6776600">
        <ele>539.32600</ele>
        <time>2009-01-05T10:43:00Z</time>
      </trkpt>
      <trkpt lat="27.88291400" lon="-15.6776740">
        <ele>539.88300</ele>
        <time>2009-01-05T10:43:01Z</time>
      </trkpt>
      <trkpt lat="27.88295200" lon="-15.6776910">
        <ele>540.76800</ele>
        <time>2009-01-05T10:43:02Z</time>
      </trkpt>
      <trkpt lat="27.88298900" lon="-15.6777100">
        <ele>540.73000</ele>
        <time>2009-01-05T10:43:03Z</time>
      </trkpt>
      <trkpt lat="27.88302600" lon="-15.6777310">
        <ele>541.16000</ele>
        <time>2009-01-05T10:43:04Z</time>
      </trkpt>
      <trkpt lat="27.88306100" lon="-15.6777530">
        <ele>541.62400</ele>
        <time>2009-01-05T10:43:05Z</time>
      </trkpt>
      <trkpt lat="27.88309600" lon="-15.6777780">
        <ele>542.01100</ele>
        <time>2009-01-05T10:43:06Z</time>
      </trkpt>
      <trkpt lat="27.88313000" lon="-15.6778040">
        <ele>542.40100</ele>
        <time>2009-01-05T10:43:07Z</time>
      </trkpt>
      <trkpt lat="27.88316500" lon="-15.6778300">
        <ele>542.63800</ele>
        <time>2009-01-05T10:43:08Z</time>
      </trkpt>
      <trkpt lat="27.88320100" lon="-15.6778540">
        <ele>542.88800</ele>
        <time>2009-01-05T10:43:09Z</time>
      </trkpt>
      <trkpt lat="27.88323900" lon="-15.6778750">
        <ele>543.62200</ele>
        <time>2009-01-05T10:43:10Z</time>
      </trkpt>
      <trkpt lat="27.88327900" lon="-15.6778930">
        <ele>543.92000</ele>
        <time>2009-01-05T10:43:11Z</time>
      </trkpt>
      <trkpt lat="27.88332000" lon="-15.6779070">
        <ele>544.18000</ele>
        <time>2009-01-05T10:43:12Z</time>
      </trkpt>
      <trkpt lat="27.88336200" lon="-15.6779180">
        <ele>544.66500</ele>
        <time>2009-01-05T10:43:13Z</time>
      </trkpt>
      <trkpt lat="27.88340500" lon="-15.6779260">
        <ele>544.68200</ele>
        <time>2009-01-05T10:43:14Z</time>
      </trkpt>
      <trkpt lat="27.88344700" lon="-15.6779350">
        <ele>544.96600</ele>
        <time>2009-01-05T10:43:15Z</time>
      </trkpt>
      <trkpt lat="27.88348800" lon="-15.6779430">
        <ele>545.16500</ele>
        <time>2009-01-05T10:43:16Z</time>
      </trkpt>
      <trkpt lat="27.88353100" lon="-15.6779480">
        <ele>545.69200</ele>
        <time>2009-01-05T10:43:17Z</time>
      </trkpt>
      <trkpt lat="27.88357300" lon="-15.6779480">
        <ele>545.96000</ele>
        <time>2009-01-05T10:43:18Z</time>
      </trkpt>
      <trkpt lat="27.88361500" lon="-15.6779420">
        <ele>546.30700</ele>
        <time>2009-01-05T10:43:19Z</time>
      </trkpt>
      <trkpt lat="27.88365400" lon="-15.6779280">
        <ele>546.70200</ele>
        <time>2009-01-05T10:43:20Z</time>
      </trkpt>
      <trkpt lat="27.88369100" lon="-15.6779030">
        <ele>547.15500</ele>
        <time>2009-01-05T10:43:21Z</time>
      </trkpt>
      <trkpt lat="27.88372000" lon="-15.6778690">
        <ele>547.54200</ele>
        <time>2009-01-05T10:43:22Z</time>
      </trkpt>
      <trkpt lat="27.88374100" lon="-15.6778280">
        <ele>547.89500</ele>
        <time>2009-01-05T10:43:23Z</time>
      </trkpt>
      <trkpt lat="27.88375400" lon="-15.6777850">
        <ele>548.50900</ele>
        <time>2009-01-05T10:43:24Z</time>
      </trkpt>
      <trkpt lat="27.88376600" lon="-15.6777440">
        <ele>548.74100</ele>
        <time>2009-01-05T10:43:25Z</time>
      </trkpt>
      <trkpt lat="27.88377500" lon="-15.6777030">
        <ele>548.99800</ele>
        <time>2009-01-05T10:43:26Z</time>
      </trkpt>
      <trkpt lat="27.88378200" lon="-15.6776650">
        <ele>549.22400</ele>
        <time>2009-01-05T10:43:27Z</time>
      </trkpt>
      <trkpt lat="27.88378700" lon="-15.6776270">
        <ele>549.80000</ele>
        <time>2009-01-05T10:43:28Z</time>
      </trkpt>
      <trkpt lat="27.88379300" lon="-15.6775900">
        <ele>550.36700</ele>
        <time>2009-01-05T10:43:29Z</time>
      </trkpt>
      <trkpt lat="27.88380100" lon="-15.6775530">
        <ele>550.79900</ele>
        <time>2009-01-05T10:43:30Z</time>
      </trkpt>
      <trkpt lat="27.88381300" lon="-15.6775170">
        <ele>551.24200</ele>
        <time>2009-01-05T10:43:31Z</time>
      </trkpt>
      <trkpt lat="27.88383100" lon="-15.6774840">
        <ele>551.59000</ele>
        <time>2009-01-05T10:43:32Z</time>
      </trkpt>
      <trkpt lat="27.88385300" lon="-15.6774550">
        <ele>552.10200</ele>
        <time>2009-01-05T10:43:33Z</time>
      </trkpt>
      <trkpt lat="27.88387900" lon="-15.6774290">
        <ele>552.30000</ele>
        <time>2009-01-05T10:43:34Z</time>
      </trkpt>
      <trkpt lat="27.88390500" lon="-15.6774080">
        <ele>552.49200</ele>
        <time>2009-01-05T10:43:35Z</time>
      </trkpt>
      <trkpt lat="27.88393200" lon="-15.6773890">
        <ele>553.25700</ele>
        <time>2009-01-05T10:43:36Z</time>
      </trkpt>
      <trkpt lat="27.88395800" lon="-15.6773700">
        <ele>553.31200</ele>
        <time>2009-01-05T10:43:37Z</time>
      </trkpt>
      <trkpt lat="27.88398300" lon="-15.6773500">
        <ele>553.86900</ele>
        <time>2009-01-05T10:43:38Z</time>
      </trkpt>
      <trkpt lat="27.88400900" lon="-15.6773310">
        <ele>554.46300</ele>
        <time>2009-01-05T10:43:39Z</time>
      </trkpt>
      <trkpt lat="27.88403400" lon="-15.6773110">
        <ele>554.89300</ele>
        <time>2009-01-05T10:43:40Z</time>
      </trkpt>
      <trkpt lat="27.88405900" lon="-15.6772920">
        <ele>555.34400</ele>
        <time>2009-01-05T10:43:41Z</time>
      </trkpt>
      <trkpt lat="27.88408400" lon="-15.6772730">
        <ele>555.63400</ele>
        <time>2009-01-05T10:43:42Z</time>
      </trkpt>
      <trkpt lat="27.88410800" lon="-15.6772550">
        <ele>555.99800</ele>
        <time>2009-01-05T10:43:43Z</time>
      </trkpt>
      <trkpt lat="27.88413300" lon="-15.6772370">
        <ele>556.64300</ele>
        <time>2009-01-05T10:43:44Z</time>
      </trkpt>
      <trkpt lat="27.88415800" lon="-15.6772190">
        <ele>557.23900</ele>
        <time>2009-01-05T10:43:45Z</time>
      </trkpt>
      <trkpt lat="27.88418300" lon="-15.6772030">
        <ele>557.57700</ele>
        <time>2009-01-05T10:43:46Z</time>
      </trkpt>
      <trkpt lat="27.88421100" lon="-15.6771900">
        <ele>557.94900</ele>
        <time>2009-01-05T10:43:47Z</time>
      </trkpt>
      <trkpt lat="27.88424200" lon="-15.6771850">
        <ele>558.25800</ele>
        <time>2009-01-05T10:43:48Z</time>
      </trkpt>
      <trkpt lat="27.88427200" lon="-15.6771920">
        <ele>558.54500</ele>
        <time>2009-01-05T10:43:49Z</time>
      </trkpt>
      <trkpt lat="27.88430200" lon="-15.6772030">
        <ele>559.15500</ele>
        <time>2009-01-05T10:43:50Z</time>
      </trkpt>
      <trkpt lat="27.88433000" lon="-15.6772220">
        <ele>559.48000</ele>
        <time>2009-01-05T10:43:51Z</time>
      </trkpt>
      <trkpt lat="27.88435300" lon="-15.6772480">
        <ele>559.82500</ele>
        <time>2009-01-05T10:43:52Z</time>
      </trkpt>
      <trkpt lat="27.88437000" lon="-15.6772810">
        <ele>560.05100</ele>
        <time>2009-01-05T10:43:53Z</time>
      </trkpt>
      <trkpt lat="27.88438500" lon="-15.6773170">
        <ele>560.68400</ele>
        <time>2009-01-05T10:43:54Z</time>
      </trkpt>
      <trkpt lat="27.88439700" lon="-15.6773550">
        <ele>560.71000</ele>
        <time>2009-01-05T10:43:55Z</time>
      </trkpt>
      <trkpt lat="27.88440900" lon="-15.6773910">
        <ele>561.46400</ele>
        <time>2009-01-05T10:43:56Z</time>
      </trkpt>
      <trkpt lat="27.88441700" lon="-15.6774290">
        <ele>561.43000</ele>
        <time>2009-01-05T10:43:57Z</time>
      </trkpt>
      <trkpt lat="27.88442400" lon="-15.6774680">
        <ele>561.78500</ele>
        <time>2009-01-05T10:43:58Z</time>
      </trkpt>
      <trkpt lat="27.88443200" lon="-15.6775050">
        <ele>562.19600</ele>
        <time>2009-01-05T10:43:59Z</time>
      </trkpt>
      <trkpt lat="27.88444000" lon="-15.6775430">
        <ele>562.60200</ele>
        <time>2009-01-05T10:44:00Z</time>
      </trkpt>
      <trkpt lat="27.88445000" lon="-15.6775800">
        <ele>562.94300</ele>
        <time>2009-01-05T10:44:01Z</time>
      </trkpt>
      <trkpt lat="27.88446400" lon="-15.6776170">
        <ele>563.12700</ele>
        <time>2009-01-05T10:44:02Z</time>
      </trkpt>
      <trkpt lat="27.88448600" lon="-15.6776480">
        <ele>563.73300</ele>
        <time>2009-01-05T10:44:03Z</time>
      </trkpt>
      <trkpt lat="27.88451500" lon="-15.6776720">
        <ele>563.97900</ele>
        <time>2009-01-05T10:44:04Z</time>
      </trkpt>
      <trkpt lat="27.88454900" lon="-15.6776920">
        <ele>564.32100</ele>
        <time>2009-01-05T10:44:05Z</time>
      </trkpt>
      <trkpt lat="27.88458400" lon="-15.6777080">
        <ele>564.18200</ele>
        <time>2009-01-05T10:44:06Z</time>
      </trkpt>
      <trkpt lat="27.88461900" lon="-15.6777220">
        <ele>564.89600</ele>
        <time>2009-01-05T10:44:07Z</time>
      </trkpt>
      <trkpt lat="27.88465500" lon="-15.6777360">
        <ele>565.00300</ele>
        <time>2009-01-05T10:44:08Z</time>
      </trkpt>
      <trkpt lat="27.88469100" lon="-15.6777500">
        <ele>565.04100</ele>
        <time>2009-01-05T10:44:09Z</time>
      </trkpt>
      <trkpt lat="27.88472500" lon="-15.6777650">
        <ele>565.55200</ele>
        <time>2009-01-05T10:44:10Z</time>
      </trkpt>
      <trkpt lat="27.88476100" lon="-15.6777790">
        <ele>565.80500</ele>
        <time>2009-01-05T10:44:11Z</time>
      </trkpt>
      <trkpt lat="27.88479600" lon="-15.6777920">
        <ele>566.14200</ele>
        <time>2009-01-05T10:44:12Z</time>
      </trkpt>
      <trkpt lat="27.88482900" lon="-15.6778050">
        <ele>566.31500</ele>
        <time>2009-01-05T10:44:13Z</time>
      </trkpt>
      <trkpt lat="27.88486200" lon="-15.6778190">
        <ele>566.95100</ele>
        <time>2009-01-05T10:44:14Z</time>
      </trkpt>
      <trkpt lat="27.88489400" lon="-15.6778330">
        <ele>567.33800</ele>
        <time>2009-01-05T10:44:15Z</time>
      </trkpt>
      <trkpt lat="27.88492700" lon="-15.6778470">
        <ele>567.67000</ele>
        <time>2009-01-05T10:44:16Z</time>
      </trkpt>
      <trkpt lat="27.88496000" lon="-15.6778590">
        <ele>567.93400</ele>
        <time>2009-01-05T10:44:17Z</time>
      </trkpt>
      <trkpt lat="27.88499200" lon="-15.6778720">
        <ele>568.29000</ele>
        <time>2009-01-05T10:44:18Z</time>
      </trkpt>
      <trkpt lat="27.88502500" lon="-15.6778840">
        <ele>568.53500</ele>
        <time>2009-01-05T10:44:19Z</time>
      </trkpt>
      <trkpt lat="27.88505900" lon="-15.6778960">
        <ele>568.64000</ele>
        <time>2009-01-05T10:44:20Z</time>
      </trkpt>
      <trkpt lat="27.88509400" lon="-15.6779050">
        <ele>569.05700</ele>
        <time>2009-01-05T10:44:21Z</time>
      </trkpt>
      <trkpt lat="27.88512900" lon="-15.6779140">
        <ele>569.43400</ele>
        <time>2009-01-05T10:44:22Z</time>
      </trkpt>
      <trkpt lat="27.88516600" lon="-15.6779210">
        <ele>569.62400</ele>
        <time>2009-01-05T10:44:23Z</time>
      </trkpt>
      <trkpt lat="27.88520400" lon="-15.6779180">
        <ele>569.72400</ele>
        <time>2009-01-05T10:44:24Z</time>
      </trkpt>
      <trkpt lat="27.88524100" lon="-15.6779070">
        <ele>570.05900</ele>
        <time>2009-01-05T10:44:25Z</time>
      </trkpt>
      <trkpt lat="27.88527600" lon="-15.6778870">
        <ele>570.68500</ele>
        <time>2009-01-05T10:44:26Z</time>
      </trkpt>
      <trkpt lat="27.88530800" lon="-15.6778630">
        <ele>570.70000</ele>
        <time>2009-01-05T10:44:27Z</time>
      </trkpt>
      <trkpt lat="27.88533900" lon="-15.6778390">
        <ele>571.19600</ele>
        <time>2009-01-05T10:44:28Z</time>
      </trkpt>
      <trkpt lat="27.88537100" lon="-15.6778160">
        <ele>571.61500</ele>
        <time>2009-01-05T10:44:29Z</time>
      </trkpt>
      <trkpt lat="27.88540300" lon="-15.6777950">
        <ele>571.76000</ele>
        <time>2009-01-05T10:44:30Z</time>
      </trkpt>
      <trkpt lat="27.88543700" lon="-15.6777770">
        <ele>572.16900</ele>
        <time>2009-01-05T10:44:31Z</time>
      </trkpt>
      <trkpt lat="27.88547100" lon="-15.6777610">
        <ele>572.34000</ele>
        <time>2009-01-05T10:44:32Z</time>
      </trkpt>
      <trkpt lat="27.88550700" lon="-15.6777480">
        <ele>572.58700</ele>
        <time>2009-01-05T10:44:33Z</time>
      </trkpt>
      <trkpt lat="27.88554400" lon="-15.6777400">
        <ele>573.17100</ele>
        <time>2009-01-05T10:44:34Z</time>
      </trkpt>
      <trkpt lat="27.88558000" lon="-15.6777360">
        <ele>573.13300</ele>
        <time>2009-01-05T10:44:35Z</time>
      </trkpt>
      <trkpt lat="27.88561700" lon="-15.6777350">
        <ele>573.70300</ele>
        <time>2009-01-05T10:44:36Z</time>
      </trkpt>
      <trkpt lat="27.88565400" lon="-15.6777370">
        <ele>573.96700</ele>
        <time>2009-01-05T10:44:37Z</time>
      </trkpt>
      <trkpt lat="27.88569000" lon="-15.6777410">
        <ele>574.09900</ele>
        <time>2009-01-05T10:44:38Z</time>
      </trkpt>
      <trkpt lat="27.88572500" lon="-15.6777480">
        <ele>574.39700</ele>
        <time>2009-01-05T10:44:39Z</time>
      </trkpt>
      <trkpt lat="27.88576000" lon="-15.6777580">
        <ele>574.65000</ele>
        <time>2009-01-05T10:44:40Z</time>
      </trkpt>
      <trkpt lat="27.88579300" lon="-15.6777690">
        <ele>575.24400</ele>
        <time>2009-01-05T10:44:41Z</time>
      </trkpt>
      <trkpt lat="27.88582600" lon="-15.6777820">
        <ele>575.61400</ele>
        <time>2009-01-05T10:44:42Z</time>
      </trkpt>
      <trkpt lat="27.88585800" lon="-15.6777970">
        <ele>576.16600</ele>
        <time>2009-01-05T10:44:43Z</time>
      </trkpt>
      <trkpt lat="27.88588800" lon="-15.6778150">
        <ele>576.61200</ele>
        <time>2009-01-05T10:44:44Z</time>
      </trkpt>
      <trkpt lat="27.88591700" lon="-15.6778360">
        <ele>576.77900</ele>
        <time>2009-01-05T10:44:45Z</time>
      </trkpt>
      <trkpt lat="27.88594700" lon="-15.6778580">
        <ele>576.91600</ele>
        <time>2009-01-05T10:44:46Z</time>
      </trkpt>
      <trkpt lat="27.88597500" lon="-15.6778820">
        <ele>577.14300</ele>
        <time>2009-01-05T10:44:47Z</time>
      </trkpt>
      <trkpt lat="27.88600300" lon="-15.6779070">
        <ele>577.83800</ele>
        <time>2009-01-05T10:44:48Z</time>
      </trkpt>
      <trkpt lat="27.88602800" lon="-15.6779340">
        <ele>578.15500</ele>
        <time>2009-01-05T10:44:49Z</time>
      </trkpt>
      <trkpt lat="27.88605100" lon="-15.6779630">
        <ele>578.25000</ele>
        <time>2009-01-05T10:44:50Z</time>
      </trkpt>
      <trkpt lat="27.88607300" lon="-15.6779920">
        <ele>578.82900</ele>
        <time>2009-01-05T10:44:51Z</time>
      </trkpt>
      <trkpt lat="27.88609600" lon="-15.6780210">
        <ele>579.31800</ele>
        <time>2009-01-05T10:44:52Z</time>
      </trkpt>
      <trkpt lat="27.88611900" lon="-15.6780510">
        <ele>579.58000</ele>
        <time>2009-01-05T10:44:53Z</time>
      </trkpt>
      <trkpt lat="27.88614200" lon="-15.6780820">
        <ele>580.27500</ele>
        <time>2009-01-05T10:44:54Z</time>
      </trkpt>
      <trkpt lat="27.88616400" lon="-15.6781140">
        <ele>580.44900</ele>
        <time>2009-01-05T10:44:55Z</time>
      </trkpt>
      <trkpt lat="27.88618900" lon="-15.6781450">
        <ele>580.92200</ele>
        <time>2009-01-05T10:44:56Z</time>
      </trkpt>
      <trkpt lat="27.88621600" lon="-15.6781750">
        <ele>581.10200</ele>
        <time>2009-01-05T10:44:57Z</time>
      </trkpt>
      <trkpt lat="27.88624800" lon="-15.6781990">
        <ele>581.71800</ele>
        <time>2009-01-05T10:44:58Z</time>
      </trkpt>
      <trkpt lat="27.88628400" lon="-15.6782170">
        <ele>581.94800</ele>
        <time>2009-01-05T10:44:59Z</time>
      </trkpt>
      <trkpt lat="27.88632100" lon="-15.6782270">
        <ele>582.24300</ele>
        <time>2009-01-05T10:45:00Z</time>
      </trkpt>
      <trkpt lat="27.88635800" lon="-15.6782330">
        <ele>582.72200</ele>
        <time>2009-01-05T10:45:01Z</time>
      </trkpt>
      <trkpt lat="27.88639500" lon="-15.6782370">
        <ele>583.22100</ele>
        <time>2009-01-05T10:45:02Z</time>
      </trkpt>
      <trkpt lat="27.88643300" lon="-15.6782380">
        <ele>583.83900</ele>
        <time>2009-01-05T10:45:03Z</time>
      </trkpt>
      <trkpt lat="27.88647100" lon="-15.6782370">
        <ele>584.45800</ele>
        <time>2009-01-05T10:45:04Z</time>
      </trkpt>
      <trkpt lat="27.88650900" lon="-15.6782360">
        <ele>584.79100</ele>
        <time>2009-01-05T10:45:05Z</time>
      </trkpt>
      <trkpt lat="27.88654600" lon="-15.6782380">
        <ele>584.86200</ele>
        <time>2009-01-05T10:45:06Z</time>
      </trkpt>
      <trkpt lat="27.88658400" lon="-15.6782380">
        <ele>584.68200</ele>
        <time>2009-01-05T10:45:07Z</time>
      </trkpt>
      <trkpt lat="27.88662200" lon="-15.6782360">
        <ele>585.44400</ele>
        <time>2009-01-05T10:45:08Z</time>
      </trkpt>
      <trkpt lat="27.88666000" lon="-15.6782340">
        <ele>585.78000</ele>
        <time>2009-01-05T10:45:09Z</time>
      </trkpt>
      <trkpt lat="27.88669800" lon="-15.6782320">
        <ele>586.13200</ele>
        <time>2009-01-05T10:45:10Z</time>
      </trkpt>
      <trkpt lat="27.88673600" lon="-15.6782290">
        <ele>586.53600</ele>
        <time>2009-01-05T10:45:11Z</time>
      </trkpt>
      <trkpt lat="27.88677300" lon="-15.6782230">
        <ele>587.14700</ele>
        <time>2009-01-05T10:45:12Z</time>
      </trkpt>
      <trkpt lat="27.88680900" lon="-15.6782150">
        <ele>587.40400</ele>
        <time>2009-01-05T10:45:13Z</time>
      </trkpt>
      <trkpt lat="27.88684500" lon="-15.6782060">
        <ele>587.70600</ele>
        <time>2009-01-05T10:45:14Z</time>
      </trkpt>
      <trkpt lat="27.88688000" lon="-15.6781940">
        <ele>588.43000</ele>
        <time>2009-01-05T10:45:15Z</time>
      </trkpt>
      <trkpt lat="27.88691500" lon="-15.6781810">
        <ele>588.59900</ele>
        <time>2009-01-05T10:45:16Z</time>
      </trkpt>
      <trkpt lat="27.88695000" lon="-15.6781700">
        <ele>589.07800</ele>
        <time>2009-01-05T10:45:17Z</time>
      </trkpt>
      <trkpt lat="27.88698500" lon="-15.6781600">
        <ele>589.51700</ele>
        <time>2009-01-05T10:45:18Z</time>
      </trkpt>
      <trkpt lat="27.88701900" lon="-15.6781500">
        <ele>589.65000</ele>
        <time>2009-01-05T10:45:19Z</time>
      </trkpt>
      <trkpt lat="27.88705400" lon="-15.6781390">
        <ele>589.80300</ele>
        <time>2009-01-05T10:45:20Z</time>
      </trkpt>
      <trkpt lat="27.88708700" lon="-15.6781270">
        <ele>590.28200</ele>
        <time>2009-01-05T10:45:21Z</time>
      </trkpt>
      <trkpt lat="27.88712100" lon="-15.6781130">
        <ele>590.53400</ele>
        <time>2009-01-05T10:45:22Z</time>
      </trkpt>
      <trkpt lat="27.88715500" lon="-15.6780980">
        <ele>590.81900</ele>
        <time>2009-01-05T10:45:23Z</time>
      </trkpt>
      <trkpt lat="27.88718700" lon="-15.6780810">
        <ele>590.98100</ele>
        <time>2009-01-05T10:45:24Z</time>
      </trkpt>
      <trkpt lat="27.88721800" lon="-15.6780620">
        <ele>591.52500</ele>
        <time>2009-01-05T10:45:25Z</time>
      </trkpt>
      <trkpt lat="27.88724800" lon="-15.6780400">
        <ele>591.92500</ele>
        <time>2009-01-05T10:45:26Z</time>
      </trkpt>
      <trkpt lat="27.88727600" lon="-15.6780150">
        <ele>592.11800</ele>
        <time>2009-01-05T10:45:27Z</time>
      </trkpt>
      <trkpt lat="27.88730000" lon="-15.6779860">
        <ele>592.68300</ele>
        <time>2009-01-05T10:45:28Z</time>
      </trkpt>
      <trkpt lat="27.88732200" lon="-15.6779530">
        <ele>593.07200</ele>
        <time>2009-01-05T10:45:29Z</time>
      </trkpt>
      <trkpt lat="27.88733900" lon="-15.6779180">
        <ele>592.99800</ele>
        <time>2009-01-05T10:45:30Z</time>
      </trkpt>
      <trkpt lat="27.88735500" lon="-15.6778830">
        <ele>593.51300</ele>
        <time>2009-01-05T10:45:31Z</time>
      </trkpt>
      <trkpt lat="27.88737100" lon="-15.6778470">
        <ele>594.05800</ele>
        <time>2009-01-05T10:45:32Z</time>
      </trkpt>
      <trkpt lat="27.88738700" lon="-15.6778110">
        <ele>594.43900</ele>
        <time>2009-01-05T10:45:33Z</time>
      </trkpt>
      <trkpt lat="27.88740300" lon="-15.6777740">
        <ele>594.71400</ele>
        <time>2009-01-05T10:45:34Z</time>
      </trkpt>
      <trkpt lat="27.88742100" lon="-15.6777380">
        <ele>594.96300</ele>
        <time>2009-01-05T10:45:35Z</time>
      </trkpt>
      <trkpt lat="27.88744000" lon="-15.6777020">
        <ele>595.29900</ele>
        <time>2009-01-05T10:45:36Z</time>
      </trkpt>
      <trkpt lat="27.88745800" lon="-15.6776670">
        <ele>595.83000</ele>
        <time>2009-01-05T10:45:37Z</time>
      </trkpt>
      <trkpt lat="27.88747900" lon="-15.6776330">
        <ele>596.22400</ele>
        <time>2009-01-05T10:45:38Z</time>
      </trkpt>
      <trkpt lat="27.88750300" lon="-15.6776000">
        <ele>596.46500</ele>
        <time>2009-01-05T10:45:39Z</time>
      </trkpt>
      <trkpt lat="27.88752800" lon="-15.6775700">
        <ele>596.83500</ele>
        <time>2009-01-05T10:45:40Z</time>
      </trkpt>
      <trkpt lat="27.88755300" lon="-15.6775410">
        <ele>597.32100</ele>
        <time>2009-01-05T10:45:41Z</time>
      </trkpt>
      <trkpt lat="27.88758100" lon="-15.6775140">
        <ele>597.65400</ele>
        <time>2009-01-05T10:45:42Z</time>
      </trkpt>
      <trkpt lat="27.88761100" lon="-15.6774890">
        <ele>597.80000</ele>
        <time>2009-01-05T10:45:43Z</time>
      </trkpt>
      <trkpt lat="27.88764200" lon="-15.6774660">
        <ele>597.80200</ele>
        <time>2009-01-05T10:45:44Z</time>
      </trkpt>
      <trkpt lat="27.88767400" lon="-15.6774450">
        <ele>598.44700</ele>
        <time>2009-01-05T10:45:45Z</time>
      </trkpt>
      <trkpt lat="27.88770700" lon="-15.6774250">
        <ele>598.60100</ele>
        <time>2009-01-05T10:45:46Z</time>
      </trkpt>
      <trkpt lat="27.88774100" lon="-15.6774070">
        <ele>599.13700</ele>
        <time>2009-01-05T10:45:47Z</time>
      </trkpt>
      <trkpt lat="27.88777600" lon="-15.6773910">
        <ele>599.30900</ele>
        <time>2009-01-05T10:45:48Z</time>
      </trkpt>
      <trkpt lat="27.88781000" lon="-15.6773770">
        <ele>599.45800</ele>
        <time>2009-01-05T10:45:49Z</time>
      </trkpt>
      <trkpt lat="27.88784500" lon="-15.6773650">
        <ele>599.73500</ele>
        <time>2009-01-05T10:45:50Z</time>
      </trkpt>
      <trkpt lat="27.88788100" lon="-15.6773550">
        <ele>600.03100</ele>
        <time>2009-01-05T10:45:51Z</time>
      </trkpt>
      <trkpt lat="27.88791700" lon="-15.6773460">
        <ele>600.15900</ele>
        <time>2009-01-05T10:45:52Z</time>
      </trkpt>
      <trkpt lat="27.88795300" lon="-15.6773400">
        <ele>600.31500</ele>
        <time>2009-01-05T10:45:53Z</time>
      </trkpt>
      <trkpt lat="27.88799000" lon="-15.6773350">
        <ele>600.66700</ele>
        <time>2009-01-05T10:45:54Z</time>
      </trkpt>
      <trkpt lat="27.88802700" lon="-15.6773310">
        <ele>600.92900</ele>
        <time>2009-01-05T10:45:55Z</time>
      </trkpt>
      <trkpt lat="27.88806300" lon="-15.6773280">
        <ele>601.03800</ele>
        <time>2009-01-05T10:45:56Z</time>
      </trkpt>
      <trkpt lat="27.88809900" lon="-15.6773290">
        <ele>601.50100</ele>
        <time>2009-01-05T10:45:57Z</time>
      </trkpt>
      <trkpt lat="27.88813500" lon="-15.6773320">
        <ele>601.78400</ele>
        <time>2009-01-05T10:45:58Z</time>
      </trkpt>
      <trkpt lat="27.88817200" lon="-15.6773340">
        <ele>602.16200</ele>
        <time>2009-01-05T10:45:59Z</time>
      </trkpt>
      <trkpt lat="27.88820800" lon="-15.6773370">
        <ele>602.45000</ele>
        <time>2009-01-05T10:46:00Z</time>
      </trkpt>
      <trkpt lat="27.88824300" lon="-15.6773410">
        <ele>602.91300</ele>
        <time>2009-01-05T10:46:01Z</time>
      </trkpt>
      <trkpt lat="27.88827900" lon="-15.6773440">
        <ele>603.44400</ele>
        <time>2009-01-05T10:46:02Z</time>
      </trkpt>
      <trkpt lat="27.88831500" lon="-15.6773460">
        <ele>603.55300</ele>
        <time>2009-01-05T10:46:03Z</time>
      </trkpt>
      <trkpt lat="27.88835200" lon="-15.6773470">
        <ele>603.99200</ele>
        <time>2009-01-05T10:46:04Z</time>
      </trkpt>
      <trkpt lat="27.88838900" lon="-15.6773480">
        <ele>604.23500</ele>
        <time>2009-01-05T10:46:05Z</time>
      </trkpt>
      <trkpt lat="27.88842500" lon="-15.6773470">
        <ele>604.61100</ele>
        <time>2009-01-05T10:46:06Z</time>
      </trkpt>
      <trkpt lat="27.88846300" lon="-15.6773430">
        <ele>605.35600</ele>
        <time>2009-01-05T10:46:07Z</time>
      </trkpt>
      <trkpt lat="27.88850000" lon="-15.6773340">
        <ele>605.51200</ele>
        <time>2009-01-05T10:46:08Z</time>
      </trkpt>
      <trkpt lat="27.88853600" lon="-15.6773190">
        <ele>605.77700</ele>
        <time>2009-01-05T10:46:09Z</time>
      </trkpt>
      <trkpt lat="27.88856700" lon="-15.6772950">
        <ele>605.95700</ele>
        <time>2009-01-05T10:46:10Z</time>
      </trkpt>
      <trkpt lat="27.88859200" lon="-15.6772630">
        <ele>606.41200</ele>
        <time>2009-01-05T10:46:11Z</time>
      </trkpt>
      <trkpt lat="27.88861200" lon="-15.6772260">
        <ele>606.80600</ele>
        <time>2009-01-05T10:46:12Z</time>
      </trkpt>
      <trkpt lat="27.88862800" lon="-15.6771870">
        <ele>607.07400</ele>
        <time>2009-01-05T10:46:13Z</time>
      </trkpt>
      <trkpt lat="27.88864100" lon="-15.6771460">
        <ele>607.29400</ele>
        <time>2009-01-05T10:46:14Z</time>
      </trkpt>
      <trkpt lat="27.88865100" lon="-15.6771030">
        <ele>607.66700</ele>
        <time>2009-01-05T10:46:15Z</time>
      </trkpt>
      <trkpt lat="27.88865900" lon="-15.6770580">
        <ele>608.17500</ele>
        <time>2009-01-05T10:46:16Z</time>
      </trkpt>
      <trkpt lat="27.88866500" lon="-15.6770120">
        <ele>608.43700</ele>
        <time>2009-01-05T10:46:17Z</time>
      </trkpt>
      <trkpt lat="27.88867100" lon="-15.6769670">
        <ele>608.58600</ele>
        <time>2009-01-05T10:46:18Z</time>
      </trkpt>
      <trkpt lat="27.88868000" lon="-15.6769230">
        <ele>609.01900</ele>
        <time>2009-01-05T10:46:19Z</time>
      </trkpt>
      <trkpt lat="27.88869300" lon="-15.6768800">
        <ele>609.22100</ele>
        <time>2009-01-05T10:46:20Z</time>
      </trkpt>
      <trkpt lat="27.88871100" lon="-15.6768400">
        <ele>609.76000</ele>
        <time>2009-01-05T10:46:21Z</time>
      </trkpt>
      <trkpt lat="27.88873400" lon="-15.6768020">
        <ele>610.02000</ele>
        <time>2009-01-05T10:46:22Z</time>
      </trkpt>
      <trkpt lat="27.88876300" lon="-15.6767700">
        <ele>610.06500</ele>
        <time>2009-01-05T10:46:23Z</time>
      </trkpt>
      <trkpt lat="27.88879600" lon="-15.6767470">
        <ele>610.76500</ele>
        <time>2009-01-05T10:46:24Z</time>
      </trkpt>
      <trkpt lat="27.88883200" lon="-15.6767310">
        <ele>611.23800</ele>
        <time>2009-01-05T10:46:25Z</time>
      </trkpt>
      <trkpt lat="27.88886800" lon="-15.6767200">
        <ele>611.72500</ele>
        <time>2009-01-05T10:46:26Z</time>
      </trkpt>
      <trkpt lat="27.88890500" lon="-15.6767120">
        <ele>611.95500</ele>
        <time>2009-01-05T10:46:27Z</time>
      </trkpt>
      <trkpt lat="27.88894200" lon="-15.6767070">
        <ele>612.19800</ele>
        <time>2009-01-05T10:46:28Z</time>
      </trkpt>
      <trkpt lat="27.88898000" lon="-15.6767020">
        <ele>612.64000</ele>
        <time>2009-01-05T10:46:29Z</time>
      </trkpt>
      <trkpt lat="27.88901600" lon="-15.6766940">
        <ele>613.21600</ele>
        <time>2009-01-05T10:46:30Z</time>
      </trkpt>
      <trkpt lat="27.88905100" lon="-15.6766800">
        <ele>613.53600</ele>
        <time>2009-01-05T10:46:31Z</time>
      </trkpt>
      <trkpt lat="27.88908200" lon="-15.6766610">
        <ele>614.22100</ele>
        <time>2009-01-05T10:46:32Z</time>
      </trkpt>
      <trkpt lat="27.88911200" lon="-15.6766350">
        <ele>614.26700</ele>
        <time>2009-01-05T10:46:33Z</time>
      </trkpt>
      <trkpt lat="27.88913900" lon="-15.6766010">
        <ele>614.63400</ele>
        <time>2009-01-05T10:46:34Z</time>
      </trkpt>
      <trkpt lat="27.88915700" lon="-15.6765590">
        <ele>614.97500</ele>
        <time>2009-01-05T10:46:35Z</time>
      </trkpt>
      <trkpt lat="27.88916600" lon="-15.6765140">
        <ele>615.03400</ele>
        <time>2009-01-05T10:46:36Z</time>
      </trkpt>
      <trkpt lat="27.88916900" lon="-15.6764660">
        <ele>615.19000</ele>
        <time>2009-01-05T10:46:37Z</time>
      </trkpt>
      <trkpt lat="27.88916800" lon="-15.6764170">
        <ele>615.49200</ele>
        <time>2009-01-05T10:46:38Z</time>
      </trkpt>
      <trkpt lat="27.88916500" lon="-15.6763690">
        <ele>615.70600</ele>
        <time>2009-01-05T10:46:39Z</time>
      </trkpt>
      <trkpt lat="27.88915900" lon="-15.6763210">
        <ele>616.12900</ele>
        <time>2009-01-05T10:46:40Z</time>
      </trkpt>
      <trkpt lat="27.88914800" lon="-15.6762740">
        <ele>616.34600</ele>
        <time>2009-01-05T10:46:41Z</time>
      </trkpt>
      <trkpt lat="27.88913400" lon="-15.6762290">
        <ele>616.26700</ele>
        <time>2009-01-05T10:46:42Z</time>
      </trkpt>
      <trkpt lat="27.88911600" lon="-15.6761850">
        <ele>616.77600</ele>
        <time>2009-01-05T10:46:43Z</time>
      </trkpt>
      <trkpt lat="27.88909700" lon="-15.6761390">
        <ele>617.06500</ele>
        <time>2009-01-05T10:46:44Z</time>
      </trkpt>
      <trkpt lat="27.88908200" lon="-15.6760930">
        <ele>617.21000</ele>
        <time>2009-01-05T10:46:45Z</time>
      </trkpt>
      <trkpt lat="27.88907300" lon="-15.6760450">
        <ele>617.29400</ele>
        <time>2009-01-05T10:46:46Z</time>
      </trkpt>
      <trkpt lat="27.88907200" lon="-15.6759980">
        <ele>617.41900</ele>
        <time>2009-01-05T10:46:47Z</time>
      </trkpt>
      <trkpt lat="27.88907800" lon="-15.6759520">
        <ele>617.53000</ele>
        <time>2009-01-05T10:46:48Z</time>
      </trkpt>
      <trkpt lat="27.88909000" lon="-15.6759070">
        <ele>617.96300</ele>
        <time>2009-01-05T10:46:49Z</time>
      </trkpt>
      <trkpt lat="27.88910600" lon="-15.6758640">
        <ele>617.88600</ele>
        <time>2009-01-05T10:46:50Z</time>
      </trkpt>
      <trkpt lat="27.88912700" lon="-15.6758240">
        <ele>618.42500</ele>
        <time>2009-01-05T10:46:51Z</time>
      </trkpt>
      <trkpt lat="27.88915100" lon="-15.6757880">
        <ele>618.47000</ele>
        <time>2009-01-05T10:46:52Z</time>
      </trkpt>
      <trkpt lat="27.88917700" lon="-15.6757560">
        <ele>618.75500</ele>
        <time>2009-01-05T10:46:53Z</time>
      </trkpt>
      <trkpt lat="27.88920400" lon="-15.6757260">
        <ele>619.16200</ele>
        <time>2009-01-05T10:46:54Z</time>
      </trkpt>
      <trkpt lat="27.88923300" lon="-15.6756990">
        <ele>619.50800</ele>
        <time>2009-01-05T10:46:55Z</time>
      </trkpt>
      <trkpt lat="27.88926500" lon="-15.6756760">
        <ele>619.89100</ele>
        <time>2009-01-05T10:46:56Z</time>
      </trkpt>
      <trkpt lat="27.88929800" lon="-15.6756560">
        <ele>620.22300</ele>
        <time>2009-01-05T10:46:57Z</time>
      </trkpt>
      <trkpt lat="27.88933100" lon="-15.6756390">
        <ele>620.33600</ele>
        <time>2009-01-05T10:46:58Z</time>
      </trkpt>
      <trkpt lat="27.88936400" lon="-15.6756230">
        <ele>620.63700</ele>
        <time>2009-01-05T10:46:59Z</time>
      </trkpt>
      <trkpt lat="27.88939700" lon="-15.6756080">
        <ele>621.13800</ele>
        <time>2009-01-05T10:47:00Z</time>
      </trkpt>
      <trkpt lat="27.88943100" lon="-15.6755930">
        <ele>621.24100</ele>
        <time>2009-01-05T10:47:01Z</time>
      </trkpt>
      <trkpt lat="27.88946600" lon="-15.6755790">
        <ele>621.42800</ele>
        <time>2009-01-05T10:47:02Z</time>
      </trkpt>
      <trkpt lat="27.88950200" lon="-15.6755660">
        <ele>621.85500</ele>
        <time>2009-01-05T10:47:03Z</time>
      </trkpt>
      <trkpt lat="27.88953800" lon="-15.6755530">
        <ele>622.44400</ele>
        <time>2009-01-05T10:47:04Z</time>
      </trkpt>
      <trkpt lat="27.88957500" lon="-15.6755410">
        <ele>622.78100</ele>
        <time>2009-01-05T10:47:05Z</time>
      </trkpt>
      <trkpt lat="27.88961300" lon="-15.6755290">
        <ele>623.12600</ele>
        <time>2009-01-05T10:47:06Z</time>
      </trkpt>
      <trkpt lat="27.88965100" lon="-15.6755180">
        <ele>623.22600</ele>
        <time>2009-01-05T10:47:07Z</time>
      </trkpt>
      <trkpt lat="27.88969000" lon="-15.6755100">
        <ele>623.79800</ele>
        <time>2009-01-05T10:47:08Z</time>
      </trkpt>
      <trkpt lat="27.88972800" lon="-15.6755060">
        <ele>624.18800</ele>
        <time>2009-01-05T10:47:09Z</time>
      </trkpt>
      <trkpt lat="27.88976500" lon="-15.6755050">
        <ele>624.55200</ele>
        <time>2009-01-05T10:47:10Z</time>
      </trkpt>
      <trkpt lat="27.88980200" lon="-15.6755040">
        <ele>625.02300</ele>
        <time>2009-01-05T10:47:11Z</time>
      </trkpt>
      <trkpt lat="27.88983800" lon="-15.6755010">
        <ele>625.13300</ele>
        <time>2009-01-05T10:47:12Z</time>
      </trkpt>
      <trkpt lat="27.88987400" lon="-15.6754980">
        <ele>625.43300</ele>
        <time>2009-01-05T10:47:13Z</time>
      </trkpt>
      <trkpt lat="27.88991000" lon="-15.6754950">
        <ele>625.72700</ele>
        <time>2009-01-05T10:47:14Z</time>
      </trkpt>
      <trkpt lat="27.88994500" lon="-15.6754920">
        <ele>626.07700</ele>
        <time>2009-01-05T10:47:15Z</time>
      </trkpt>
      <trkpt lat="27.88998000" lon="-15.6754900">
        <ele>626.32300</ele>
        <time>2009-01-05T10:47:16Z</time>
      </trkpt>
      <trkpt lat="27.89001500" lon="-15.6754870">
        <ele>626.50100</ele>
        <time>2009-01-05T10:47:17Z</time>
      </trkpt>
      <trkpt lat="27.89005000" lon="-15.6754830">
        <ele>626.87200</ele>
        <time>2009-01-05T10:47:18Z</time>
      </trkpt>
      <trkpt lat="27.89008600" lon="-15.6754810">
        <ele>627.52000</ele>
        <time>2009-01-05T10:47:19Z</time>
      </trkpt>
      <trkpt lat="27.89012300" lon="-15.6754790">
        <ele>627.84600</ele>
        <time>2009-01-05T10:47:20Z</time>
      </trkpt>
      <trkpt lat="27.89016000" lon="-15.6754790">
        <ele>628.24300</ele>
        <time>2009-01-05T10:47:21Z</time>
      </trkpt>
      <trkpt lat="27.89019800" lon="-15.6754790">
        <ele>628.58400</ele>
        <time>2009-01-05T10:47:22Z</time>
      </trkpt>
      <trkpt lat="27.89023600" lon="-15.6754800">
        <ele>628.99400</ele>
        <time>2009-01-05T10:47:23Z</time>
      </trkpt>
      <trkpt lat="27.89027400" lon="-15.6754840">
        <ele>629.32500</ele>
        <time>2009-01-05T10:47:24Z</time>
      </trkpt>
      <trkpt lat="27.89031100" lon="-15.6754890">
        <ele>629.57400</ele>
        <time>2009-01-05T10:47:25Z</time>
      </trkpt>
      <trkpt lat="27.89034700" lon="-15.6754960">
        <ele>629.73600</ele>
        <time>2009-01-05T10:47:26Z</time>
      </trkpt>
      <trkpt lat="27.89038300" lon="-15.6755060">
        <ele>630.41000</ele>
        <time>2009-01-05T10:47:27Z</time>
      </trkpt>
      <trkpt lat="27.89041800" lon="-15.6755200">
        <ele>630.65100</ele>
        <time>2009-01-05T10:47:28Z</time>
      </trkpt>
      <trkpt lat="27.89045100" lon="-15.6755380">
        <ele>630.72200</ele>
        <time>2009-01-05T10:47:29Z</time>
      </trkpt>
      <trkpt lat="27.89048300" lon="-15.6755590">
        <ele>631.06600</ele>
        <time>2009-01-05T10:47:30Z</time>
      </trkpt>
      <trkpt lat="27.89051200" lon="-15.6755830">
        <ele>631.11900</ele>
        <time>2009-01-05T10:47:31Z</time>
      </trkpt>
      <trkpt lat="27.89053900" lon="-15.6756100">
        <ele>631.62400</ele>
        <time>2009-01-05T10:47:32Z</time>
      </trkpt>
      <trkpt lat="27.89056400" lon="-15.6756420">
        <ele>631.92900</ele>
        <time>2009-01-05T10:47:33Z</time>
      </trkpt>
      <trkpt lat="27.89058700" lon="-15.6756770">
        <ele>632.48400</ele>
        <time>2009-01-05T10:47:34Z</time>
      </trkpt>
      <trkpt lat="27.89060700" lon="-15.6757140">
        <ele>632.43100</ele>
        <time>2009-01-05T10:47:35Z</time>
      </trkpt>
      <trkpt lat="27.89062700" lon="-15.6757520">
        <ele>632.66400</ele>
        <time>2009-01-05T10:47:36Z</time>
      </trkpt>
      <trkpt lat="27.89064600" lon="-15.6757890">
        <ele>633.07100</ele>
        <time>2009-01-05T10:47:37Z</time>
      </trkpt>
      <trkpt lat="27.89066500" lon="-15.6758280">
        <ele>633.20600</ele>
        <time>2009-01-05T10:47:38Z</time>
      </trkpt>
      <trkpt lat="27.89068400" lon="-15.6758660">
        <ele>633.47200</ele>
        <time>2009-01-05T10:47:39Z</time>
      </trkpt>
      <trkpt lat="27.89070200" lon="-15.6759050">
        <ele>633.72900</ele>
        <time>2009-01-05T10:47:40Z</time>
      </trkpt>
      <trkpt lat="27.89072000" lon="-15.6759450">
        <ele>633.97200</ele>
        <time>2009-01-05T10:47:41Z</time>
      </trkpt>
      <trkpt lat="27.89073900" lon="-15.6759860">
        <ele>634.13000</ele>
        <time>2009-01-05T10:47:42Z</time>
      </trkpt>
      <trkpt lat="27.89075800" lon="-15.6760260">
        <ele>634.16700</ele>
        <time>2009-01-05T10:47:43Z</time>
      </trkpt>
      <trkpt lat="27.89077700" lon="-15.6760680">
        <ele>634.28600</ele>
        <time>2009-01-05T10:47:44Z</time>
      </trkpt>
      <trkpt lat="27.89079700" lon="-15.6761090">
        <ele>634.66100</ele>
        <time>2009-01-05T10:47:45Z</time>
      </trkpt>
      <trkpt lat="27.89081800" lon="-15.6761500">
        <ele>634.66600</ele>
        <time>2009-01-05T10:47:46Z</time>
      </trkpt>
      <trkpt lat="27.89083900" lon="-15.6761910">
        <ele>634.92200</ele>
        <time>2009-01-05T10:47:47Z</time>
      </trkpt>
      <trkpt lat="27.89086000" lon="-15.6762320">
        <ele>635.59600</ele>
        <time>2009-01-05T10:47:48Z</time>
      </trkpt>
      <trkpt lat="27.89087900" lon="-15.6762720">
        <ele>635.87800</ele>
        <time>2009-01-05T10:47:49Z</time>
      </trkpt>
      <trkpt lat="27.89089600" lon="-15.6763120">
        <ele>636.15500</ele>
        <time>2009-01-05T10:47:50Z</time>
      </trkpt>
      <trkpt lat="27.89091300" lon="-15.6763500">
        <ele>636.44500</ele>
        <time>2009-01-05T10:47:51Z</time>
      </trkpt>
      <trkpt lat="27.89093000" lon="-15.6763890">
        <ele>636.75700</ele>
        <time>2009-01-05T10:47:52Z</time>
      </trkpt>
      <trkpt lat="27.89094800" lon="-15.6764270">
        <ele>637.26600</ele>
        <time>2009-01-05T10:47:53Z</time>
      </trkpt>
      <trkpt lat="27.89096600" lon="-15.6764640">
        <ele>637.40000</ele>
        <time>2009-01-05T10:47:54Z</time>
      </trkpt>
      <trkpt lat="27.89098300" lon="-15.6765000">
        <ele>637.89400</ele>
        <time>2009-01-05T10:47:55Z</time>
      </trkpt>
      <trkpt lat="27.89100000" lon="-15.6765350">
        <ele>638.08400</ele>
        <time>2009-01-05T10:47:56Z</time>
      </trkpt>
      <trkpt lat="27.89101700" lon="-15.6765700">
        <ele>638.51100</ele>
        <time>2009-01-05T10:47:57Z</time>
      </trkpt>
      <trkpt lat="27.89103400" lon="-15.6766040">
        <ele>639.06800</ele>
        <time>2009-01-05T10:47:58Z</time>
      </trkpt>
      <trkpt lat="27.89105100" lon="-15.6766390">
        <ele>639.43800</ele>
        <time>2009-01-05T10:47:59Z</time>
      </trkpt>
      <trkpt lat="27.89106600" lon="-15.6766750">
        <ele>639.55800</ele>
        <time>2009-01-05T10:48:00Z</time>
      </trkpt>
      <trkpt lat="27.89108500" lon="-15.6767110">
        <ele>640.03600</ele>
        <time>2009-01-05T10:48:01Z</time>
      </trkpt>
      <trkpt lat="27.89110800" lon="-15.6767460">
        <ele>640.37100</ele>
        <time>2009-01-05T10:48:02Z</time>
      </trkpt>
      <trkpt lat="27.89113700" lon="-15.6767780">
        <ele>640.58100</ele>
        <time>2009-01-05T10:48:03Z</time>
      </trkpt>
      <trkpt lat="27.89117300" lon="-15.6768030">
        <ele>640.76300</ele>
        <time>2009-01-05T10:48:04Z</time>
      </trkpt>
      <trkpt lat="27.89121100" lon="-15.6768200">
        <ele>640.76500</ele>
        <time>2009-01-05T10:48:05Z</time>
      </trkpt>
      <trkpt lat="27.89125300" lon="-15.6768270">
        <ele>641.06500</ele>
        <time>2009-01-05T10:48:06Z</time>
      </trkpt>
      <trkpt lat="27.89129400" lon="-15.6768220">
        <ele>641.33200</ele>
        <time>2009-01-05T10:48:07Z</time>
      </trkpt>
      <trkpt lat="27.89133100" lon="-15.6768040">
        <ele>641.85700</ele>
        <time>2009-01-05T10:48:08Z</time>
      </trkpt>
      <trkpt lat="27.89136400" lon="-15.6767800">
        <ele>642.02000</ele>
        <time>2009-01-05T10:48:09Z</time>
      </trkpt>
      <trkpt lat="27.89139500" lon="-15.6767530">
        <ele>642.36700</ele>
        <time>2009-01-05T10:48:10Z</time>
      </trkpt>
      <trkpt lat="27.89142400" lon="-15.6767280">
        <ele>642.88400</ele>
        <time>2009-01-05T10:48:11Z</time>
      </trkpt>
      <trkpt lat="27.89145600" lon="-15.6767040">
        <ele>643.31700</ele>
        <time>2009-01-05T10:48:12Z</time>
      </trkpt>
      <trkpt lat="27.89149000" lon="-15.6766830">
        <ele>643.71000</ele>
        <time>2009-01-05T10:48:13Z</time>
      </trkpt>
      <trkpt lat="27.89152500" lon="-15.6766660">
        <ele>643.83300</ele>
        <time>2009-01-05T10:48:14Z</time>
      </trkpt>
      <trkpt lat="27.89156100" lon="-15.6766550">
        <ele>643.96700</ele>
        <time>2009-01-05T10:48:15Z</time>
      </trkpt>
      <trkpt lat="27.89159900" lon="-15.6766500">
        <ele>644.25100</ele>
        <time>2009-01-05T10:48:16Z</time>
      </trkpt>
      <trkpt lat="27.89163600" lon="-15.6766490">
        <ele>644.64900</ele>
        <time>2009-01-05T10:48:17Z</time>
      </trkpt>
      <trkpt lat="27.89167400" lon="-15.6766520">
        <ele>644.94400</ele>
        <time>2009-01-05T10:48:18Z</time>
      </trkpt>
      <trkpt lat="27.89171200" lon="-15.6766600">
        <ele>645.20400</ele>
        <time>2009-01-05T10:48:19Z</time>
      </trkpt>
      <trkpt lat="27.89175100" lon="-15.6766680">
        <ele>645.21900</ele>
        <time>2009-01-05T10:48:20Z</time>
      </trkpt>
      <trkpt lat="27.89179000" lon="-15.6766750">
        <ele>645.61700</ele>
        <time>2009-01-05T10:48:21Z</time>
      </trkpt>
      <trkpt lat="27.89182900" lon="-15.6766830">
        <ele>645.91800</ele>
        <time>2009-01-05T10:48:22Z</time>
      </trkpt>
      <trkpt lat="27.89186600" lon="-15.6766930">
        <ele>646.14700</ele>
        <time>2009-01-05T10:48:23Z</time>
      </trkpt>
      <trkpt lat="27.89190300" lon="-15.6767030">
        <ele>646.50800</ele>
        <time>2009-01-05T10:48:24Z</time>
      </trkpt>
      <trkpt lat="27.89193800" lon="-15.6767110">
        <ele>646.81900</ele>
        <time>2009-01-05T10:48:25Z</time>
      </trkpt>
      <trkpt lat="27.89197500" lon="-15.6767170">
        <ele>647.19400</ele>
        <time>2009-01-05T10:48:26Z</time>
      </trkpt>
      <trkpt lat="27.89201300" lon="-15.6767190">
        <ele>647.55300</ele>
        <time>2009-01-05T10:48:27Z</time>
      </trkpt>
      <trkpt lat="27.89205200" lon="-15.6767150">
        <ele>648.11500</ele>
        <time>2009-01-05T10:48:28Z</time>
      </trkpt>
      <trkpt lat="27.89209100" lon="-15.6767010">
        <ele>648.47700</ele>
        <time>2009-01-05T10:48:29Z</time>
      </trkpt>
      <trkpt lat="27.89213000" lon="-15.6766800">
        <ele>648.52900</ele>
        <time>2009-01-05T10:48:30Z</time>
      </trkpt>
      <trkpt lat="27.89216800" lon="-15.6766540">
        <ele>648.84800</ele>
        <time>2009-01-05T10:48:31Z</time>
      </trkpt>
      <trkpt lat="27.89220600" lon="-15.6766250">
        <ele>649.48400</ele>
        <time>2009-01-05T10:48:32Z</time>
      </trkpt>
      <trkpt lat="27.89224300" lon="-15.6765950">
        <ele>649.56000</ele>
        <time>2009-01-05T10:48:33Z</time>
      </trkpt>
      <trkpt lat="27.89228100" lon="-15.6765670">
        <ele>649.95600</ele>
        <time>2009-01-05T10:48:34Z</time>
      </trkpt>
      <trkpt lat="27.89232000" lon="-15.6765420">
        <ele>650.40000</ele>
        <time>2009-01-05T10:48:35Z</time>
      </trkpt>
      <trkpt lat="27.89236000" lon="-15.6765200">
        <ele>650.31800</ele>
        <time>2009-01-05T10:48:36Z</time>
      </trkpt>
      <trkpt lat="27.89240100" lon="-15.6765000">
        <ele>650.50200</ele>
        <time>2009-01-05T10:48:37Z</time>
      </trkpt>
      <trkpt lat="27.89244100" lon="-15.6764830">
        <ele>650.63900</ele>
        <time>2009-01-05T10:48:38Z</time>
      </trkpt>
      <trkpt lat="27.89248300" lon="-15.6764710">
        <ele>650.95100</ele>
        <time>2009-01-05T10:48:39Z</time>
      </trkpt>
      <trkpt lat="27.89252500" lon="-15.6764630">
        <ele>651.15700</ele>
        <time>2009-01-05T10:48:40Z</time>
      </trkpt>
      <trkpt lat="27.89256700" lon="-15.6764580">
        <ele>651.37600</ele>
        <time>2009-01-05T10:48:41Z</time>
      </trkpt>
      <trkpt lat="27.89261000" lon="-15.6764570">
        <ele>651.38900</ele>
        <time>2009-01-05T10:48:42Z</time>
      </trkpt>
      <trkpt lat="27.89265200" lon="-15.6764570">
        <ele>651.86400</ele>
        <time>2009-01-05T10:48:43Z</time>
      </trkpt>
      <trkpt lat="27.89269400" lon="-15.6764570">
        <ele>651.90600</ele>
        <time>2009-01-05T10:48:44Z</time>
      </trkpt>
      <trkpt lat="27.89273700" lon="-15.6764550">
        <ele>652.13800</ele>
        <time>2009-01-05T10:48:45Z</time>
      </trkpt>
      <trkpt lat="27.89277900" lon="-15.6764530">
        <ele>652.34700</ele>
        <time>2009-01-05T10:48:46Z</time>
      </trkpt>
      <trkpt lat="27.89282200" lon="-15.6764500">
        <ele>652.26400</ele>
        <time>2009-01-05T10:48:47Z</time>
      </trkpt>
      <trkpt lat="27.89286400" lon="-15.6764450">
        <ele>652.49100</ele>
        <time>2009-01-05T10:48:48Z</time>
      </trkpt>
      <trkpt lat="27.89290700" lon="-15.6764400">
        <ele>652.47500</ele>
        <time>2009-01-05T10:48:49Z</time>
      </trkpt>
      <trkpt lat="27.89294900" lon="-15.6764350">
        <ele>652.70500</ele>
        <time>2009-01-05T10:48:50Z</time>
      </trkpt>
      <trkpt lat="27.89299000" lon="-15.6764280">
        <ele>652.93400</ele>
        <time>2009-01-05T10:48:51Z</time>
      </trkpt>
      <trkpt lat="27.89303100" lon="-15.6764210">
        <ele>653.03700</ele>
        <time>2009-01-05T10:48:52Z</time>
      </trkpt>
      <trkpt lat="27.89307200" lon="-15.6764140">
        <ele>653.05500</ele>
        <time>2009-01-05T10:48:53Z</time>
      </trkpt>
      <trkpt lat="27.89311000" lon="-15.6764070">
        <ele>653.04400</ele>
        <time>2009-01-05T10:48:54Z</time>
      </trkpt>
      <trkpt lat="27.89314900" lon="-15.6764000">
        <ele>653.46600</ele>
        <time>2009-01-05T10:48:55Z</time>
      </trkpt>
      <trkpt lat="27.89318700" lon="-15.6763930">
        <ele>653.51600</ele>
        <time>2009-01-05T10:48:56Z</time>
      </trkpt>
      <trkpt lat="27.89322600" lon="-15.6763880">
        <ele>653.57900</ele>
        <time>2009-01-05T10:48:57Z</time>
      </trkpt>
      <trkpt lat="27.89326400" lon="-15.6763830">
        <ele>654.14900</ele>
        <time>2009-01-05T10:48:58Z</time>
      </trkpt>
      <trkpt lat="27.89330200" lon="-15.6763790">
        <ele>654.47700</ele>
        <time>2009-01-05T10:48:59Z</time>
      </trkpt>
      <trkpt lat="27.89334000" lon="-15.6763800">
        <ele>654.50500</ele>
        <time>2009-01-05T10:49:00Z</time>
      </trkpt>
      <trkpt lat="27.89337700" lon="-15.6763820">
        <ele>654.78000</ele>
        <time>2009-01-05T10:49:01Z</time>
      </trkpt>
      <trkpt lat="27.89341500" lon="-15.6763830">
        <ele>654.91400</ele>
        <time>2009-01-05T10:49:02Z</time>
      </trkpt>
      <trkpt lat="27.89345200" lon="-15.6763830">
        <ele>655.03500</ele>
        <time>2009-01-05T10:49:03Z</time>
      </trkpt>
      <trkpt lat="27.89348900" lon="-15.6763840">
        <ele>655.07600</ele>
        <time>2009-01-05T10:49:04Z</time>
      </trkpt>
      <trkpt lat="27.89352500" lon="-15.6763870">
        <ele>655.39000</ele>
        <time>2009-01-05T10:49:05Z</time>
      </trkpt>
      <trkpt lat="27.89356000" lon="-15.6763920">
        <ele>655.68500</ele>
        <time>2009-01-05T10:49:06Z</time>
      </trkpt>
      <trkpt lat="27.89359500" lon="-15.6764000">
        <ele>655.60500</ele>
        <time>2009-01-05T10:49:07Z</time>
      </trkpt>
      <trkpt lat="27.89363100" lon="-15.6764090">
        <ele>655.92100</ele>
        <time>2009-01-05T10:49:08Z</time>
      </trkpt>
      <trkpt lat="27.89366800" lon="-15.6764190">
        <ele>656.03100</ele>
        <time>2009-01-05T10:49:09Z</time>
      </trkpt>
      <trkpt lat="27.89370500" lon="-15.6764290">
        <ele>656.22300</ele>
        <time>2009-01-05T10:49:10Z</time>
      </trkpt>
      <trkpt lat="27.89374300" lon="-15.6764400">
        <ele>656.13500</ele>
        <time>2009-01-05T10:49:11Z</time>
      </trkpt>
      <trkpt lat="27.89378300" lon="-15.6764540">
        <ele>656.30800</ele>
        <time>2009-01-05T10:49:12Z</time>
      </trkpt>
      <trkpt lat="27.89382500" lon="-15.6764690">
        <ele>656.02200</ele>
        <time>2009-01-05T10:49:13Z</time>
      </trkpt>
      <trkpt lat="27.89386800" lon="-15.6764830">
        <ele>656.21100</ele>
        <time>2009-01-05T10:49:14Z</time>
      </trkpt>
      <trkpt lat="27.89391100" lon="-15.6764980">
        <ele>656.49600</ele>
        <time>2009-01-05T10:49:15Z</time>
      </trkpt>
      <trkpt lat="27.89395500" lon="-15.6765120">
        <ele>656.50100</ele>
        <time>2009-01-05T10:49:16Z</time>
      </trkpt>
      <trkpt lat="27.89400000" lon="-15.6765270">
        <ele>656.25900</ele>
        <time>2009-01-05T10:49:17Z</time>
      </trkpt>
      <trkpt lat="27.89404700" lon="-15.6765430">
        <ele>656.39900</ele>
        <time>2009-01-05T10:49:18Z</time>
      </trkpt>
      <trkpt lat="27.89409400" lon="-15.6765600">
        <ele>656.53800</ele>
        <time>2009-01-05T10:49:19Z</time>
      </trkpt>
      <trkpt lat="27.89414000" lon="-15.6765790">
        <ele>656.59100</ele>
        <time>2009-01-05T10:49:20Z</time>
      </trkpt>
      <trkpt lat="27.89418500" lon="-15.6765990">
        <ele>656.85700</ele>
        <time>2009-01-05T10:49:21Z</time>
      </trkpt>
      <trkpt lat="27.89422900" lon="-15.6766200">
        <ele>656.92800</ele>
        <time>2009-01-05T10:49:22Z</time>
      </trkpt>
      <trkpt lat="27.89427400" lon="-15.6766420">
        <ele>656.78700</ele>
        <time>2009-01-05T10:49:23Z</time>
      </trkpt>
      <trkpt lat="27.89431900" lon="-15.6766670">
        <ele>656.75200</ele>
        <time>2009-01-05T10:49:24Z</time>
      </trkpt>
      <trkpt lat="27.89436200" lon="-15.6766940">
        <ele>657.20600</ele>
        <time>2009-01-05T10:49:25Z</time>
      </trkpt>
      <trkpt lat="27.89440200" lon="-15.6767240">
        <ele>656.87200</ele>
        <time>2009-01-05T10:49:26Z</time>
      </trkpt>
      <trkpt lat="27.89444000" lon="-15.6767540">
        <ele>656.98500</ele>
        <time>2009-01-05T10:49:27Z</time>
      </trkpt>
      <trkpt lat="27.89447000" lon="-15.6767820">
        <ele>656.71000</ele>
        <time>2009-01-05T10:49:28Z</time>
      </trkpt>
      <trkpt lat="27.89448800" lon="-15.6768010">
        <ele>656.94200</ele>
        <time>2009-01-05T10:49:29Z</time>
      </trkpt>
      <trkpt lat="27.89449700" lon="-15.6768130">
        <ele>656.65800</ele>
        <time>2009-01-05T10:49:30Z</time>
      </trkpt>
      <trkpt lat="27.89450800" lon="-15.6768310">
        <ele>656.65800</ele>
        <time>2009-01-05T10:49:31Z</time>
      </trkpt>
      <trkpt lat="27.89452600" lon="-15.6768570">
        <ele>657.19700</ele>
        <time>2009-01-05T10:49:32Z</time>
      </trkpt>
      <trkpt lat="27.89455000" lon="-15.6768920">
        <ele>657.43200</ele>
        <time>2009-01-05T10:49:33Z</time>
      </trkpt>
      <trkpt lat="27.89457600" lon="-15.6769320">
        <ele>657.34900</ele>
        <time>2009-01-05T10:49:34Z</time>
      </trkpt>
      <trkpt lat="27.89460500" lon="-15.6769750">
        <ele>657.37500</ele>
        <time>2009-01-05T10:49:35Z</time>
      </trkpt>
      <trkpt lat="27.89463700" lon="-15.6770180">
        <ele>657.54600</ele>
        <time>2009-01-05T10:49:36Z</time>
      </trkpt>
      <trkpt lat="27.89467300" lon="-15.6770610">
        <ele>657.60300</ele>
        <time>2009-01-05T10:49:37Z</time>
      </trkpt>
      <trkpt lat="27.89470900" lon="-15.6771090">
        <ele>657.33800</ele>
        <time>2009-01-05T10:49:38Z</time>
      </trkpt>
      <trkpt lat="27.89473400" lon="-15.6771670">
        <ele>657.36700</ele>
        <time>2009-01-05T10:49:39Z</time>
      </trkpt>
      <trkpt lat="27.89474400" lon="-15.6772270">
        <ele>657.78100</ele>
        <time>2009-01-05T10:49:40Z</time>
      </trkpt>
      <trkpt lat="27.89474500" lon="-15.6772790">
        <ele>659.09000</ele>
        <time>2009-01-05T10:49:41Z</time>
      </trkpt>
      <trkpt lat="27.89473900" lon="-15.6773250">
        <ele>659.74000</ele>
        <time>2009-01-05T10:49:42Z</time>
      </trkpt>
      <trkpt lat="27.89473200" lon="-15.6773710">
        <ele>660.09500</ele>
        <time>2009-01-05T10:49:43Z</time>
      </trkpt>
      <trkpt lat="27.89473200" lon="-15.6774170">
        <ele>660.73800</ele>
        <time>2009-01-05T10:49:44Z</time>
      </trkpt>
      <trkpt lat="27.89473800" lon="-15.6774620">
        <ele>661.72800</ele>
        <time>2009-01-05T10:49:45Z</time>
      </trkpt>
      <trkpt lat="27.89474900" lon="-15.6775070">
        <ele>662.10000</ele>
        <time>2009-01-05T10:49:46Z</time>
      </trkpt>
      <trkpt lat="27.89476200" lon="-15.6775510">
        <ele>662.46800</ele>
        <time>2009-01-05T10:49:47Z</time>
      </trkpt>
      <trkpt lat="27.89477900" lon="-15.6775950">
        <ele>662.70800</ele>
        <time>2009-01-05T10:49:48Z</time>
      </trkpt>
      <trkpt lat="27.89480100" lon="-15.6776370">
        <ele>662.97600</ele>
        <time>2009-01-05T10:49:49Z</time>
      </trkpt>
      <trkpt lat="27.89482600" lon="-15.6776770">
        <ele>663.33200</ele>
        <time>2009-01-05T10:49:50Z</time>
      </trkpt>
      <trkpt lat="27.89485100" lon="-15.6777190">
        <ele>663.54700</ele>
        <time>2009-01-05T10:49:51Z</time>
      </trkpt>
      <trkpt lat="27.89487700" lon="-15.6777600">
        <ele>663.96900</ele>
        <time>2009-01-05T10:49:52Z</time>
      </trkpt>
      <trkpt lat="27.89490300" lon="-15.6777990">
        <ele>664.22900</ele>
        <time>2009-01-05T10:49:53Z</time>
      </trkpt>
      <trkpt lat="27.89493100" lon="-15.6778380">
        <ele>664.36000</ele>
        <time>2009-01-05T10:49:54Z</time>
      </trkpt>
      <trkpt lat="27.89496200" lon="-15.6778760">
        <ele>664.28700</ele>
        <time>2009-01-05T10:49:55Z</time>
      </trkpt>
      <trkpt lat="27.89499200" lon="-15.6779150">
        <ele>664.38700</ele>
        <time>2009-01-05T10:49:56Z</time>
      </trkpt>
      <trkpt lat="27.89502100" lon="-15.6779550">
        <ele>664.37500</ele>
        <time>2009-01-05T10:49:57Z</time>
      </trkpt>
      <trkpt lat="27.89504500" lon="-15.6779930">
        <ele>664.57800</ele>
        <time>2009-01-05T10:49:58Z</time>
      </trkpt>
      <trkpt lat="27.89506600" lon="-15.6780300">
        <ele>664.30500</ele>
        <time>2009-01-05T10:49:59Z</time>
      </trkpt>
      <trkpt lat="27.89508900" lon="-15.6780630">
        <ele>664.70500</ele>
        <time>2009-01-05T10:50:00Z</time>
      </trkpt>
      <trkpt lat="27.89511400" lon="-15.6780980">
        <ele>664.84400</ele>
        <time>2009-01-05T10:50:01Z</time>
      </trkpt>
      <trkpt lat="27.89513800" lon="-15.6781410">
        <ele>664.60800</ele>
        <time>2009-01-05T10:50:02Z</time>
      </trkpt>
      <trkpt lat="27.89516200" lon="-15.6781880">
        <ele>664.83900</ele>
        <time>2009-01-05T10:50:03Z</time>
      </trkpt>
      <trkpt lat="27.89518600" lon="-15.6782380">
        <ele>664.81700</ele>
        <time>2009-01-05T10:50:04Z</time>
      </trkpt>
      <trkpt lat="27.89520900" lon="-15.6782870">
        <ele>665.34700</ele>
        <time>2009-01-05T10:50:05Z</time>
      </trkpt>
      <trkpt lat="27.89523100" lon="-15.6783360">
        <ele>664.87600</ele>
        <time>2009-01-05T10:50:06Z</time>
      </trkpt>
      <trkpt lat="27.89525200" lon="-15.6783840">
        <ele>665.79700</ele>
        <time>2009-01-05T10:50:07Z</time>
      </trkpt>
      <trkpt lat="27.89527100" lon="-15.6784310">
        <ele>665.38600</ele>
        <time>2009-01-05T10:50:08Z</time>
      </trkpt>
      <trkpt lat="27.89528500" lon="-15.6784790">
        <ele>665.78900</ele>
        <time>2009-01-05T10:50:09Z</time>
      </trkpt>
      <trkpt lat="27.89529500" lon="-15.6785270">
        <ele>666.33800</ele>
        <time>2009-01-05T10:50:10Z</time>
      </trkpt>
      <trkpt lat="27.89530300" lon="-15.6785730">
        <ele>666.37400</ele>
        <time>2009-01-05T10:50:11Z</time>
      </trkpt>
      <trkpt lat="27.89531000" lon="-15.6786180">
        <ele>666.50500</ele>
        <time>2009-01-05T10:50:12Z</time>
      </trkpt>
      <trkpt lat="27.89531800" lon="-15.6786600">
        <ele>666.78600</ele>
        <time>2009-01-05T10:50:13Z</time>
      </trkpt>
      <trkpt lat="27.89532500" lon="-15.6786960">
        <ele>667.41400</ele>
        <time>2009-01-05T10:50:14Z</time>
      </trkpt>
      <trkpt lat="27.89533300" lon="-15.6787290">
        <ele>667.95800</ele>
        <time>2009-01-05T10:50:15Z</time>
      </trkpt>
      <trkpt lat="27.89533900" lon="-15.6787610">
        <ele>668.41100</ele>
        <time>2009-01-05T10:50:16Z</time>
      </trkpt>
      <trkpt lat="27.89534600" lon="-15.6787930">
        <ele>668.41800</ele>
        <time>2009-01-05T10:50:17Z</time>
      </trkpt>
      <trkpt lat="27.89535200" lon="-15.6788250">
        <ele>668.81600</ele>
        <time>2009-01-05T10:50:18Z</time>
      </trkpt>
      <trkpt lat="27.89535700" lon="-15.6788560">
        <ele>669.10300</ele>
        <time>2009-01-05T10:50:19Z</time>
      </trkpt>
      <trkpt lat="27.89536300" lon="-15.6788880">
        <ele>669.36600</ele>
        <time>2009-01-05T10:50:20Z</time>
      </trkpt>
      <trkpt lat="27.89537000" lon="-15.6789180">
        <ele>669.88300</ele>
        <time>2009-01-05T10:50:21Z</time>
      </trkpt>
      <trkpt lat="27.89537600" lon="-15.6789480">
        <ele>669.65700</ele>
        <time>2009-01-05T10:50:22Z</time>
      </trkpt>
      <trkpt lat="27.89538200" lon="-15.6789760">
        <ele>669.95200</ele>
        <time>2009-01-05T10:50:23Z</time>
      </trkpt>
      <trkpt lat="27.89538800" lon="-15.6790050">
        <ele>670.37900</ele>
        <time>2009-01-05T10:50:24Z</time>
      </trkpt>
      <trkpt lat="27.89539300" lon="-15.6790340">
        <ele>670.90700</ele>
        <time>2009-01-05T10:50:25Z</time>
      </trkpt>
      <trkpt lat="27.89539800" lon="-15.6790630">
        <ele>671.52200</ele>
        <time>2009-01-05T10:50:26Z</time>
      </trkpt>
      <trkpt lat="27.89540700" lon="-15.6790950">
        <ele>671.54400</ele>
        <time>2009-01-05T10:50:27Z</time>
      </trkpt>
      <trkpt lat="27.89541500" lon="-15.6791270">
        <ele>671.84200</ele>
        <time>2009-01-05T10:50:28Z</time>
      </trkpt>
      <trkpt lat="27.89542500" lon="-15.6791580">
        <ele>672.12600</ele>
        <time>2009-01-05T10:50:29Z</time>
      </trkpt>
      <trkpt lat="27.89543500" lon="-15.6791880">
        <ele>672.68300</ele>
        <time>2009-01-05T10:50:30Z</time>
      </trkpt>
      <trkpt lat="27.89544500" lon="-15.6792150">
        <ele>673.03100</ele>
        <time>2009-01-05T10:50:31Z</time>
      </trkpt>
      <trkpt lat="27.89545800" lon="-15.6792400">
        <ele>673.33400</ele>
        <time>2009-01-05T10:50:32Z</time>
      </trkpt>
      <trkpt lat="27.89547400" lon="-15.6792650">
        <ele>673.73400</ele>
        <time>2009-01-05T10:50:33Z</time>
      </trkpt>
      <trkpt lat="27.89548600" lon="-15.6792890">
        <ele>674.20400</ele>
        <time>2009-01-05T10:50:34Z</time>
      </trkpt>
      <trkpt lat="27.89549700" lon="-15.6793140">
        <ele>674.36100</ele>
        <time>2009-01-05T10:50:35Z</time>
      </trkpt>
      <trkpt lat="27.89550300" lon="-15.6793390">
        <ele>674.86500</ele>
        <time>2009-01-05T10:50:36Z</time>
      </trkpt>
      <trkpt lat="27.89551300" lon="-15.6793640">
        <ele>674.98900</ele>
        <time>2009-01-05T10:50:37Z</time>
      </trkpt>
      <trkpt lat="27.89552400" lon="-15.6793880">
        <ele>675.43200</ele>
        <time>2009-01-05T10:50:38Z</time>
      </trkpt>
      <trkpt lat="27.89553100" lon="-15.6794120">
        <ele>675.81900</ele>
        <time>2009-01-05T10:50:39Z</time>
      </trkpt>
      <trkpt lat="27.89553600" lon="-15.6794360">
        <ele>675.88700</ele>
        <time>2009-01-05T10:50:40Z</time>
      </trkpt>
      <trkpt lat="27.89554500" lon="-15.6794630">
        <ele>676.33000</ele>
        <time>2009-01-05T10:50:41Z</time>
      </trkpt>
      <trkpt lat="27.89555200" lon="-15.6794920">
        <ele>676.28700</ele>
        <time>2009-01-05T10:50:42Z</time>
      </trkpt>
      <trkpt lat="27.89556100" lon="-15.6795220">
        <ele>676.32100</ele>
        <time>2009-01-05T10:50:43Z</time>
      </trkpt>
      <trkpt lat="27.89557300" lon="-15.6795520">
        <ele>676.71100</ele>
        <time>2009-01-05T10:50:44Z</time>
      </trkpt>
      <trkpt lat="27.89558500" lon="-15.6795830">
        <ele>676.80800</ele>
        <time>2009-01-05T10:50:45Z</time>
      </trkpt>
      <trkpt lat="27.89559700" lon="-15.6796120">
        <ele>676.86000</ele>
        <time>2009-01-05T10:50:46Z</time>
      </trkpt>
      <trkpt lat="27.89560900" lon="-15.6796380">
        <ele>677.30600</ele>
        <time>2009-01-05T10:50:47Z</time>
      </trkpt>
      <trkpt lat="27.89562400" lon="-15.6796630">
        <ele>677.67000</ele>
        <time>2009-01-05T10:50:48Z</time>
      </trkpt>
      <trkpt lat="27.89563900" lon="-15.6796860">
        <ele>678.09700</ele>
        <time>2009-01-05T10:50:49Z</time>
      </trkpt>
      <trkpt lat="27.89565200" lon="-15.6797080">
        <ele>678.30800</ele>
        <time>2009-01-05T10:50:50Z</time>
      </trkpt>
      <trkpt lat="27.89566600" lon="-15.6797300">
        <ele>678.30700</ele>
        <time>2009-01-05T10:50:51Z</time>
      </trkpt>
      <trkpt lat="27.89567900" lon="-15.6797490">
        <ele>678.92700</ele>
        <time>2009-01-05T10:50:52Z</time>
      </trkpt>
      <trkpt lat="27.89569100" lon="-15.6797680">
        <ele>679.18000</ele>
        <time>2009-01-05T10:50:53Z</time>
      </trkpt>
      <trkpt lat="27.89570500" lon="-15.6797870">
        <ele>679.36400</ele>
        <time>2009-01-05T10:50:54Z</time>
      </trkpt>
      <trkpt lat="27.89571900" lon="-15.6798060">
        <ele>679.58300</ele>
        <time>2009-01-05T10:50:55Z</time>
      </trkpt>
      <trkpt lat="27.89573100" lon="-15.6798270">
        <ele>679.97900</ele>
        <time>2009-01-05T10:50:56Z</time>
      </trkpt>
      <trkpt lat="27.89574300" lon="-15.6798480">
        <ele>680.27400</ele>
        <time>2009-01-05T10:50:57Z</time>
      </trkpt>
      <trkpt lat="27.89575700" lon="-15.6798670">
        <ele>680.40300</ele>
        <time>2009-01-05T10:50:58Z</time>
      </trkpt>
      <trkpt lat="27.89577000" lon="-15.6798860">
        <ele>680.89900</ele>
        <time>2009-01-05T10:50:59Z</time>
      </trkpt>
      <trkpt lat="27.89578200" lon="-15.6799060">
        <ele>681.22900</ele>
        <time>2009-01-05T10:51:00Z</time>
      </trkpt>
      <trkpt lat="27.89579300" lon="-15.6799250">
        <ele>681.47200</ele>
        <time>2009-01-05T10:51:01Z</time>
      </trkpt>
      <trkpt lat="27.89580500" lon="-15.6799450">
        <ele>681.78600</ele>
        <time>2009-01-05T10:51:02Z</time>
      </trkpt>
      <trkpt lat="27.89581600" lon="-15.6799630">
        <ele>682.06800</ele>
        <time>2009-01-05T10:51:03Z</time>
      </trkpt>
      <trkpt lat="27.89582800" lon="-15.6799790">
        <ele>682.60400</ele>
        <time>2009-01-05T10:51:04Z</time>
      </trkpt>
      <trkpt lat="27.89584000" lon="-15.6799930">
        <ele>682.97400</ele>
        <time>2009-01-05T10:51:05Z</time>
      </trkpt>
      <trkpt lat="27.89585200" lon="-15.6800090">
        <ele>683.25900</ele>
        <time>2009-01-05T10:51:06Z</time>
      </trkpt>
      <trkpt lat="27.89586300" lon="-15.6800250">
        <ele>683.52300</ele>
        <time>2009-01-05T10:51:07Z</time>
      </trkpt>
      <trkpt lat="27.89587500" lon="-15.6800410">
        <ele>683.94800</ele>
        <time>2009-01-05T10:51:08Z</time>
      </trkpt>
      <trkpt lat="27.89589000" lon="-15.6800560">
        <ele>684.37800</ele>
        <time>2009-01-05T10:51:09Z</time>
      </trkpt>
      <trkpt lat="27.89590400" lon="-15.6800710">
        <ele>684.68400</ele>
        <time>2009-01-05T10:51:10Z</time>
      </trkpt>
      <trkpt lat="27.89591600" lon="-15.6800900">
        <ele>685.06500</ele>
        <time>2009-01-05T10:51:11Z</time>
      </trkpt>
      <trkpt lat="27.89592600" lon="-15.6801100">
        <ele>685.13600</ele>
        <time>2009-01-05T10:51:12Z</time>
      </trkpt>
      <trkpt lat="27.89593500" lon="-15.6801310">
        <ele>685.53700</ele>
        <time>2009-01-05T10:51:13Z</time>
      </trkpt>
      <trkpt lat="27.89594400" lon="-15.6801530">
        <ele>685.71700</ele>
        <time>2009-01-05T10:51:14Z</time>
      </trkpt>
      <trkpt lat="27.89595200" lon="-15.6801750">
        <ele>686.06000</ele>
        <time>2009-01-05T10:51:15Z</time>
      </trkpt>
      <trkpt lat="27.89596000" lon="-15.6801980">
        <ele>686.18400</ele>
        <time>2009-01-05T10:51:16Z</time>
      </trkpt>
      <trkpt lat="27.89596800" lon="-15.6802210">
        <ele>686.77000</ele>
        <time>2009-01-05T10:51:17Z</time>
      </trkpt>
      <trkpt lat="27.89597500" lon="-15.6802450">
        <ele>686.67000</ele>
        <time>2009-01-05T10:51:18Z</time>
      </trkpt>
      <trkpt lat="27.89598200" lon="-15.6802710">
        <ele>686.99400</ele>
        <time>2009-01-05T10:51:19Z</time>
      </trkpt>
      <trkpt lat="27.89598900" lon="-15.6802980">
        <ele>686.92500</ele>
        <time>2009-01-05T10:51:20Z</time>
      </trkpt>
      <trkpt lat="27.89599700" lon="-15.6803250">
        <ele>686.79800</ele>
        <time>2009-01-05T10:51:21Z</time>
      </trkpt>
      <trkpt lat="27.89600500" lon="-15.6803520">
        <ele>686.90800</ele>
        <time>2009-01-05T10:51:22Z</time>
      </trkpt>
      <trkpt lat="27.89601500" lon="-15.6803790">
        <ele>687.33100</ele>
        <time>2009-01-05T10:51:23Z</time>
      </trkpt>
      <trkpt lat="27.89602500" lon="-15.6804040">
        <ele>687.61000</ele>
        <time>2009-01-05T10:51:24Z</time>
      </trkpt>
      <trkpt lat="27.89603300" lon="-15.6804270">
        <ele>688.09600</ele>
        <time>2009-01-05T10:51:25Z</time>
      </trkpt>
      <trkpt lat="27.89604100" lon="-15.6804480">
        <ele>688.40500</ele>
        <time>2009-01-05T10:51:26Z</time>
      </trkpt>
      <trkpt lat="27.89604700" lon="-15.6804680">
        <ele>688.54200</ele>
        <time>2009-01-05T10:51:27Z</time>
      </trkpt>
      <trkpt lat="27.89605200" lon="-15.6804870">
        <ele>689.33900</ele>
        <time>2009-01-05T10:51:28Z</time>
      </trkpt>
      <trkpt lat="27.89605900" lon="-15.6805040">
        <ele>689.48700</ele>
        <time>2009-01-05T10:51:29Z</time>
      </trkpt>
      <trkpt lat="27.89606600" lon="-15.6805200">
        <ele>689.65800</ele>
        <time>2009-01-05T10:51:30Z</time>
      </trkpt>
      <trkpt lat="27.89607000" lon="-15.6805370">
        <ele>690.21000</ele>
        <time>2009-01-05T10:51:31Z</time>
      </trkpt>
      <trkpt lat="27.89607600" lon="-15.6805550">
        <ele>690.50200</ele>
        <time>2009-01-05T10:51:32Z</time>
      </trkpt>
      <trkpt lat="27.89608200" lon="-15.6805730">
        <ele>690.75000</ele>
        <time>2009-01-05T10:51:33Z</time>
      </trkpt>
      <trkpt lat="27.89608800" lon="-15.6805900">
        <ele>691.43900</ele>
        <time>2009-01-05T10:51:34Z</time>
      </trkpt>
      <trkpt lat="27.89609300" lon="-15.6806090">
        <ele>691.22700</ele>
        <time>2009-01-05T10:51:35Z</time>
      </trkpt>
      <trkpt lat="27.89609800" lon="-15.6806280">
        <ele>691.68600</ele>
        <time>2009-01-05T10:51:36Z</time>
      </trkpt>
      <trkpt lat="27.89610200" lon="-15.6806480">
        <ele>691.65400</ele>
        <time>2009-01-05T10:51:37Z</time>
      </trkpt>
      <trkpt lat="27.89610700" lon="-15.6806690">
        <ele>692.25300</ele>
        <time>2009-01-05T10:51:38Z</time>
      </trkpt>
      <trkpt lat="27.89611600" lon="-15.6806900">
        <ele>692.41700</ele>
        <time>2009-01-05T10:51:39Z</time>
      </trkpt>
      <trkpt lat="27.89612700" lon="-15.6807110">
        <ele>692.49000</ele>
        <time>2009-01-05T10:51:40Z</time>
      </trkpt>
      <trkpt lat="27.89613500" lon="-15.6807300">
        <ele>692.76500</ele>
        <time>2009-01-05T10:51:41Z</time>
      </trkpt>
      <trkpt lat="27.89614400" lon="-15.6807490">
        <ele>692.99200</ele>
        <time>2009-01-05T10:51:42Z</time>
      </trkpt>
      <trkpt lat="27.89615200" lon="-15.6807680">
        <ele>693.09500</ele>
        <time>2009-01-05T10:51:43Z</time>
      </trkpt>
      <trkpt lat="27.89616200" lon="-15.6807870">
        <ele>693.80000</ele>
        <time>2009-01-05T10:51:44Z</time>
      </trkpt>
      <trkpt lat="27.89617400" lon="-15.6808040">
        <ele>693.93700</ele>
        <time>2009-01-05T10:51:45Z</time>
      </trkpt>
      <trkpt lat="27.89618800" lon="-15.6808170">
        <ele>694.31200</ele>
        <time>2009-01-05T10:51:46Z</time>
      </trkpt>
      <trkpt lat="27.89620400" lon="-15.6808290">
        <ele>694.47300</ele>
        <time>2009-01-05T10:51:47Z</time>
      </trkpt>
      <trkpt lat="27.89622000" lon="-15.6808400">
        <ele>694.80900</ele>
        <time>2009-01-05T10:51:48Z</time>
      </trkpt>
      <trkpt lat="27.89623600" lon="-15.6808500">
        <ele>695.33500</ele>
        <time>2009-01-05T10:51:49Z</time>
      </trkpt>
      <trkpt lat="27.89625000" lon="-15.6808610">
        <ele>695.52300</ele>
        <time>2009-01-05T10:51:50Z</time>
      </trkpt>
      <trkpt lat="27.89626200" lon="-15.6808740">
        <ele>695.85800</ele>
        <time>2009-01-05T10:51:51Z</time>
      </trkpt>
      <trkpt lat="27.89627300" lon="-15.6808880">
        <ele>696.13600</ele>
        <time>2009-01-05T10:51:52Z</time>
      </trkpt>
      <trkpt lat="27.89628200" lon="-15.6809040">
        <ele>696.42400</ele>
        <time>2009-01-05T10:51:53Z</time>
      </trkpt>
      <trkpt lat="27.89629200" lon="-15.6809190">
        <ele>696.72200</ele>
        <time>2009-01-05T10:51:54Z</time>
      </trkpt>
      <trkpt lat="27.89630400" lon="-15.6809320">
        <ele>696.86800</ele>
        <time>2009-01-05T10:51:55Z</time>
      </trkpt>
      <trkpt lat="27.89631800" lon="-15.6809450">
        <ele>697.17200</ele>
        <time>2009-01-05T10:51:56Z</time>
      </trkpt>
      <trkpt lat="27.89633300" lon="-15.6809610">
        <ele>697.73800</ele>
        <time>2009-01-05T10:51:57Z</time>
      </trkpt>
      <trkpt lat="27.89634700" lon="-15.6809790">
        <ele>697.92100</ele>
        <time>2009-01-05T10:51:58Z</time>
      </trkpt>
      <trkpt lat="27.89636100" lon="-15.6809990">
        <ele>698.18800</ele>
        <time>2009-01-05T10:51:59Z</time>
      </trkpt>
      <trkpt lat="27.89637400" lon="-15.6810210">
        <ele>698.27800</ele>
        <time>2009-01-05T10:52:00Z</time>
      </trkpt>
      <trkpt lat="27.89638600" lon="-15.6810450">
        <ele>698.27800</ele>
        <time>2009-01-05T10:52:01Z</time>
      </trkpt>
      <trkpt lat="27.89640900" lon="-15.6810990">
        <ele>698.64800</ele>
        <time>2009-01-05T10:52:03Z</time>
      </trkpt>
      <trkpt lat="27.89642000" lon="-15.6811270">
        <ele>698.78600</ele>
        <time>2009-01-05T10:52:04Z</time>
      </trkpt>
      <trkpt lat="27.89643300" lon="-15.6811530">
        <ele>698.93700</ele>
        <time>2009-01-05T10:52:05Z</time>
      </trkpt>
      <trkpt lat="27.89644700" lon="-15.6811770">
        <ele>699.17500</ele>
        <time>2009-01-05T10:52:06Z</time>
      </trkpt>
      <trkpt lat="27.89646200" lon="-15.6812010">
        <ele>699.28300</ele>
        <time>2009-01-05T10:52:07Z</time>
      </trkpt>
      <trkpt lat="27.89648100" lon="-15.6812190">
        <ele>699.75400</ele>
        <time>2009-01-05T10:52:08Z</time>
      </trkpt>
      <trkpt lat="27.89650200" lon="-15.6812290">
        <ele>699.67400</ele>
        <time>2009-01-05T10:52:09Z</time>
      </trkpt>
      <trkpt lat="27.89652500" lon="-15.6812300">
        <ele>699.85400</ele>
        <time>2009-01-05T10:52:10Z</time>
      </trkpt>
      <trkpt lat="27.89654800" lon="-15.6812270">
        <ele>700.65200</ele>
        <time>2009-01-05T10:52:11Z</time>
      </trkpt>
      <trkpt lat="27.89657100" lon="-15.6812210">
        <ele>700.68400</ele>
        <time>2009-01-05T10:52:12Z</time>
      </trkpt>
      <trkpt lat="27.89659100" lon="-15.6812100">
        <ele>700.93000</ele>
        <time>2009-01-05T10:52:13Z</time>
      </trkpt>
      <trkpt lat="27.89660900" lon="-15.6811960">
        <ele>701.01400</ele>
        <time>2009-01-05T10:52:14Z</time>
      </trkpt>
      <trkpt lat="27.89662600" lon="-15.6811820">
        <ele>701.54500</ele>
        <time>2009-01-05T10:52:15Z</time>
      </trkpt>
      <trkpt lat="27.89664300" lon="-15.6811690">
        <ele>701.63800</ele>
        <time>2009-01-05T10:52:16Z</time>
      </trkpt>
      <trkpt lat="27.89665900" lon="-15.6811580">
        <ele>701.94700</ele>
        <time>2009-01-05T10:52:17Z</time>
      </trkpt>
      <trkpt lat="27.89667600" lon="-15.6811490">
        <ele>702.51500</ele>
        <time>2009-01-05T10:52:18Z</time>
      </trkpt>
      <trkpt lat="27.89669100" lon="-15.6811370">
        <ele>702.57000</ele>
        <time>2009-01-05T10:52:19Z</time>
      </trkpt>
      <trkpt lat="27.89670600" lon="-15.6811260">
        <ele>702.68300</ele>
        <time>2009-01-05T10:52:20Z</time>
      </trkpt>
      <trkpt lat="27.89672200" lon="-15.6811170">
        <ele>703.10100</ele>
        <time>2009-01-05T10:52:21Z</time>
      </trkpt>
      <trkpt lat="27.89674100" lon="-15.6811130">
        <ele>703.51900</ele>
        <time>2009-01-05T10:52:22Z</time>
      </trkpt>
      <trkpt lat="27.89675900" lon="-15.6811110">
        <ele>703.65100</ele>
        <time>2009-01-05T10:52:23Z</time>
      </trkpt>
      <trkpt lat="27.89677800" lon="-15.6811090">
        <ele>703.91200</ele>
        <time>2009-01-05T10:52:24Z</time>
      </trkpt>
      <trkpt lat="27.89679600" lon="-15.6811090">
        <ele>704.27700</ele>
        <time>2009-01-05T10:52:25Z</time>
      </trkpt>
      <trkpt lat="27.89681100" lon="-15.6811100">
        <ele>704.41400</ele>
        <time>2009-01-05T10:52:26Z</time>
      </trkpt>
      <trkpt lat="27.89682900" lon="-15.6811110">
        <ele>704.94800</ele>
        <time>2009-01-05T10:52:27Z</time>
      </trkpt>
      <trkpt lat="27.89684700" lon="-15.6811100">
        <ele>705.07200</ele>
        <time>2009-01-05T10:52:28Z</time>
      </trkpt>
      <trkpt lat="27.89686400" lon="-15.6811110">
        <ele>705.32500</ele>
        <time>2009-01-05T10:52:29Z</time>
      </trkpt>
      <trkpt lat="27.89688200" lon="-15.6811130">
        <ele>705.91200</ele>
        <time>2009-01-05T10:52:30Z</time>
      </trkpt>
      <trkpt lat="27.89690000" lon="-15.6811150">
        <ele>706.10400</ele>
        <time>2009-01-05T10:52:31Z</time>
      </trkpt>
      <trkpt lat="27.89691700" lon="-15.6811180">
        <ele>706.47200</ele>
        <time>2009-01-05T10:52:32Z</time>
      </trkpt>
      <trkpt lat="27.89693400" lon="-15.6811220">
        <ele>706.72200</ele>
        <time>2009-01-05T10:52:33Z</time>
      </trkpt>
      <trkpt lat="27.89695100" lon="-15.6811280">
        <ele>706.94900</ele>
        <time>2009-01-05T10:52:34Z</time>
      </trkpt>
      <trkpt lat="27.89696800" lon="-15.6811330">
        <ele>707.27400</ele>
        <time>2009-01-05T10:52:35Z</time>
      </trkpt>
      <trkpt lat="27.89698700" lon="-15.6811390">
        <ele>707.56500</ele>
        <time>2009-01-05T10:52:36Z</time>
      </trkpt>
      <trkpt lat="27.89700600" lon="-15.6811450">
        <ele>707.94300</ele>
        <time>2009-01-05T10:52:37Z</time>
      </trkpt>
      <trkpt lat="27.89702600" lon="-15.6811520">
        <ele>708.21700</ele>
        <time>2009-01-05T10:52:38Z</time>
      </trkpt>
      <trkpt lat="27.89704400" lon="-15.6811620">
        <ele>708.41500</ele>
        <time>2009-01-05T10:52:39Z</time>
      </trkpt>
      <trkpt lat="27.89706100" lon="-15.6811760">
        <ele>708.51300</ele>
        <time>2009-01-05T10:52:40Z</time>
      </trkpt>
      <trkpt lat="27.89707200" lon="-15.6811960">
        <ele>708.34700</ele>
        <time>2009-01-05T10:52:41Z</time>
      </trkpt>
      <trkpt lat="27.89708300" lon="-15.6812230">
        <ele>708.43900</ele>
        <time>2009-01-05T10:52:42Z</time>
      </trkpt>
      <trkpt lat="27.89709000" lon="-15.6812530">
        <ele>708.42600</ele>
        <time>2009-01-05T10:52:43Z</time>
      </trkpt>
      <trkpt lat="27.89709600" lon="-15.6812850">
        <ele>708.58700</ele>
        <time>2009-01-05T10:52:44Z</time>
      </trkpt>
      <trkpt lat="27.89710300" lon="-15.6813170">
        <ele>708.97100</ele>
        <time>2009-01-05T10:52:45Z</time>
      </trkpt>
      <trkpt lat="27.89711100" lon="-15.6813490">
        <ele>708.75700</ele>
        <time>2009-01-05T10:52:46Z</time>
      </trkpt>
      <trkpt lat="27.89712200" lon="-15.6813810">
        <ele>709.17200</ele>
        <time>2009-01-05T10:52:47Z</time>
      </trkpt>
      <trkpt lat="27.89718300" lon="-15.6815630">
        <ele>709.93100</ele>
        <time>2009-01-05T10:52:53Z</time>
      </trkpt>
      <trkpt lat="27.89719600" lon="-15.6815900">
        <ele>709.93100</ele>
        <time>2009-01-05T10:52:54Z</time>
      </trkpt>
      <trkpt lat="27.89721200" lon="-15.6816160">
        <ele>710.39300</ele>
        <time>2009-01-05T10:52:55Z</time>
      </trkpt>
      <trkpt lat="27.89723000" lon="-15.6816410">
        <ele>710.58900</ele>
        <time>2009-01-05T10:52:56Z</time>
      </trkpt>
      <trkpt lat="27.89725000" lon="-15.6816670">
        <ele>710.65700</ele>
        <time>2009-01-05T10:52:57Z</time>
      </trkpt>
      <trkpt lat="27.89727100" lon="-15.6816930">
        <ele>710.89500</ele>
        <time>2009-01-05T10:52:58Z</time>
      </trkpt>
      <trkpt lat="27.89729500" lon="-15.6817170">
        <ele>710.41900</ele>
        <time>2009-01-05T10:52:59Z</time>
      </trkpt>
      <trkpt lat="27.89731900" lon="-15.6817390">
        <ele>710.36600</ele>
        <time>2009-01-05T10:53:00Z</time>
      </trkpt>
      <trkpt lat="27.89734600" lon="-15.6817620">
        <ele>710.63000</ele>
        <time>2009-01-05T10:53:01Z</time>
      </trkpt>
      <trkpt lat="27.89737300" lon="-15.6817840">
        <ele>710.65700</ele>
        <time>2009-01-05T10:53:02Z</time>
      </trkpt>
      <trkpt lat="27.89739900" lon="-15.6818070">
        <ele>710.49000</ele>
        <time>2009-01-05T10:53:03Z</time>
      </trkpt>
      <trkpt lat="27.89742600" lon="-15.6818290">
        <ele>710.72500</ele>
        <time>2009-01-05T10:53:04Z</time>
      </trkpt>
      <trkpt lat="27.89745200" lon="-15.6818490">
        <ele>711.02900</ele>
        <time>2009-01-05T10:53:05Z</time>
      </trkpt>
      <trkpt lat="27.89747700" lon="-15.6818670">
        <ele>711.24500</ele>
        <time>2009-01-05T10:53:06Z</time>
      </trkpt>
      <trkpt lat="27.89750000" lon="-15.6818830">
        <ele>711.38700</ele>
        <time>2009-01-05T10:53:07Z</time>
      </trkpt>
      <trkpt lat="27.89752400" lon="-15.6818960">
        <ele>711.69900</ele>
        <time>2009-01-05T10:53:08Z</time>
      </trkpt>
      <trkpt lat="27.89754900" lon="-15.6819060">
        <ele>712.00000</ele>
        <time>2009-01-05T10:53:09Z</time>
      </trkpt>
      <trkpt lat="27.89757400" lon="-15.6819100">
        <ele>711.84800</ele>
        <time>2009-01-05T10:53:10Z</time>
      </trkpt>
      <trkpt lat="27.89759700" lon="-15.6819100">
        <ele>712.33700</ele>
        <time>2009-01-05T10:53:11Z</time>
      </trkpt>
      <trkpt lat="27.89762000" lon="-15.6819060">
        <ele>712.52400</ele>
        <time>2009-01-05T10:53:12Z</time>
      </trkpt>
      <trkpt lat="27.89764000" lon="-15.6819010">
        <ele>712.53100</ele>
        <time>2009-01-05T10:53:13Z</time>
      </trkpt>
      <trkpt lat="27.89766000" lon="-15.6818950">
        <ele>712.93300</ele>
        <time>2009-01-05T10:53:14Z</time>
      </trkpt>
      <trkpt lat="27.89767800" lon="-15.6818880">
        <ele>713.44800</ele>
        <time>2009-01-05T10:53:15Z</time>
      </trkpt>
      <trkpt lat="27.89769700" lon="-15.6818810">
        <ele>713.62200</ele>
        <time>2009-01-05T10:53:16Z</time>
      </trkpt>
      <trkpt lat="27.89771600" lon="-15.6818730">
        <ele>713.92500</ele>
        <time>2009-01-05T10:53:17Z</time>
      </trkpt>
      <trkpt lat="27.89773500" lon="-15.6818640">
        <ele>714.21800</ele>
        <time>2009-01-05T10:53:18Z</time>
      </trkpt>
      <trkpt lat="27.89775500" lon="-15.6818550">
        <ele>714.40800</ele>
        <time>2009-01-05T10:53:19Z</time>
      </trkpt>
      <trkpt lat="27.89777500" lon="-15.6818460">
        <ele>714.72200</ele>
        <time>2009-01-05T10:53:20Z</time>
      </trkpt>
      <trkpt lat="27.89779400" lon="-15.6818400">
        <ele>715.11000</ele>
        <time>2009-01-05T10:53:21Z</time>
      </trkpt>
      <trkpt lat="27.89781300" lon="-15.6818330">
        <ele>715.48200</ele>
        <time>2009-01-05T10:53:22Z</time>
      </trkpt>
      <trkpt lat="27.89783300" lon="-15.6818280">
        <ele>715.43700</ele>
        <time>2009-01-05T10:53:23Z</time>
      </trkpt>
      <trkpt lat="27.89785600" lon="-15.6818220">
        <ele>715.74600</ele>
        <time>2009-01-05T10:53:24Z</time>
      </trkpt>
      <trkpt lat="27.89788100" lon="-15.6818200">
        <ele>715.75900</ele>
        <time>2009-01-05T10:53:25Z</time>
      </trkpt>
      <trkpt lat="27.89790800" lon="-15.6818210">
        <ele>715.78700</ele>
        <time>2009-01-05T10:53:26Z</time>
      </trkpt>
      <trkpt lat="27.89793800" lon="-15.6818200">
        <ele>715.80800</ele>
        <time>2009-01-05T10:53:27Z</time>
      </trkpt>
      <trkpt lat="27.89797100" lon="-15.6818210">
        <ele>715.54600</ele>
        <time>2009-01-05T10:53:28Z</time>
      </trkpt>
      <trkpt lat="27.89800700" lon="-15.6818230">
        <ele>715.52700</ele>
        <time>2009-01-05T10:53:29Z</time>
      </trkpt>
      <trkpt lat="27.89804400" lon="-15.6818240">
        <ele>715.70400</ele>
        <time>2009-01-05T10:53:30Z</time>
      </trkpt>
      <trkpt lat="27.89808100" lon="-15.6818220">
        <ele>715.71100</ele>
        <time>2009-01-05T10:53:31Z</time>
      </trkpt>
      <trkpt lat="27.89811700" lon="-15.6818170">
        <ele>715.44400</ele>
        <time>2009-01-05T10:53:32Z</time>
      </trkpt>
      <trkpt lat="27.89815100" lon="-15.6818100">
        <ele>715.71000</ele>
        <time>2009-01-05T10:53:33Z</time>
      </trkpt>
      <trkpt lat="27.89818200" lon="-15.6818010">
        <ele>716.01400</ele>
        <time>2009-01-05T10:53:34Z</time>
      </trkpt>
      <trkpt lat="27.89821200" lon="-15.6817930">
        <ele>716.21700</ele>
        <time>2009-01-05T10:53:35Z</time>
      </trkpt>
      <trkpt lat="27.89824000" lon="-15.6817880">
        <ele>716.61800</ele>
        <time>2009-01-05T10:53:36Z</time>
      </trkpt>
      <trkpt lat="27.89826700" lon="-15.6817870">
        <ele>716.97400</ele>
        <time>2009-01-05T10:53:37Z</time>
      </trkpt>
      <trkpt lat="27.89829200" lon="-15.6817900">
        <ele>717.08700</ele>
        <time>2009-01-05T10:53:38Z</time>
      </trkpt>
      <trkpt lat="27.89831400" lon="-15.6817950">
        <ele>717.54700</ele>
        <time>2009-01-05T10:53:39Z</time>
      </trkpt>
      <trkpt lat="27.89833400" lon="-15.6818020">
        <ele>717.92400</ele>
        <time>2009-01-05T10:53:40Z</time>
      </trkpt>
      <trkpt lat="27.89835100" lon="-15.6818140">
        <ele>718.09900</ele>
        <time>2009-01-05T10:53:41Z</time>
      </trkpt>
      <trkpt lat="27.89836500" lon="-15.6818310">
        <ele>718.07500</ele>
        <time>2009-01-05T10:53:42Z</time>
      </trkpt>
      <trkpt lat="27.89837600" lon="-15.6818520">
        <ele>718.19100</ele>
        <time>2009-01-05T10:53:43Z</time>
      </trkpt>
      <trkpt lat="27.89838700" lon="-15.6818770">
        <ele>718.58400</ele>
        <time>2009-01-05T10:53:44Z</time>
      </trkpt>
      <trkpt lat="27.89839600" lon="-15.6819020">
        <ele>718.88600</ele>
        <time>2009-01-05T10:53:45Z</time>
      </trkpt>
      <trkpt lat="27.89840400" lon="-15.6819280">
        <ele>719.10800</ele>
        <time>2009-01-05T10:53:46Z</time>
      </trkpt>
      <trkpt lat="27.89841000" lon="-15.6819540">
        <ele>719.47500</ele>
        <time>2009-01-05T10:53:47Z</time>
      </trkpt>
      <trkpt lat="27.89841500" lon="-15.6819800">
        <ele>719.60900</ele>
        <time>2009-01-05T10:53:48Z</time>
      </trkpt>
      <trkpt lat="27.89841700" lon="-15.6820060">
        <ele>719.69100</ele>
        <time>2009-01-05T10:53:49Z</time>
      </trkpt>
      <trkpt lat="27.89841800" lon="-15.6820330">
        <ele>720.31900</ele>
        <time>2009-01-05T10:53:50Z</time>
      </trkpt>
      <trkpt lat="27.89841700" lon="-15.6820580">
        <ele>720.42000</ele>
        <time>2009-01-05T10:53:51Z</time>
      </trkpt>
      <trkpt lat="27.89841200" lon="-15.6820830">
        <ele>720.54600</ele>
        <time>2009-01-05T10:53:52Z</time>
      </trkpt>
      <trkpt lat="27.89840500" lon="-15.6821060">
        <ele>720.86500</ele>
        <time>2009-01-05T10:53:53Z</time>
      </trkpt>
      <trkpt lat="27.89839100" lon="-15.6821280">
        <ele>720.92600</ele>
        <time>2009-01-05T10:53:54Z</time>
      </trkpt>
      <trkpt lat="27.89837300" lon="-15.6821450">
        <ele>721.66300</ele>
        <time>2009-01-05T10:53:55Z</time>
      </trkpt>
      <trkpt lat="27.89835400" lon="-15.6821580">
        <ele>721.79800</ele>
        <time>2009-01-05T10:53:56Z</time>
      </trkpt>
      <trkpt lat="27.89833300" lon="-15.6821700">
        <ele>721.96400</ele>
        <time>2009-01-05T10:53:57Z</time>
      </trkpt>
      <trkpt lat="27.89831300" lon="-15.6821810">
        <ele>722.20700</ele>
        <time>2009-01-05T10:53:58Z</time>
      </trkpt>
      <trkpt lat="27.89829200" lon="-15.6821920">
        <ele>722.55400</ele>
        <time>2009-01-05T10:53:59Z</time>
      </trkpt>
      <trkpt lat="27.89827100" lon="-15.6822010">
        <ele>722.71300</ele>
        <time>2009-01-05T10:54:00Z</time>
      </trkpt>
      <trkpt lat="27.89825000" lon="-15.6822100">
        <ele>723.04400</ele>
        <time>2009-01-05T10:54:01Z</time>
      </trkpt>
      <trkpt lat="27.89822600" lon="-15.6822200">
        <ele>723.29200</ele>
        <time>2009-01-05T10:54:02Z</time>
      </trkpt>
      <trkpt lat="27.89820600" lon="-15.6822270">
        <ele>723.63600</ele>
        <time>2009-01-05T10:54:03Z</time>
      </trkpt>
      <trkpt lat="27.89818400" lon="-15.6822330">
        <ele>723.82400</ele>
        <time>2009-01-05T10:54:04Z</time>
      </trkpt>
      <trkpt lat="27.89816100" lon="-15.6822390">
        <ele>723.74000</ele>
        <time>2009-01-05T10:54:05Z</time>
      </trkpt>
      <trkpt lat="27.89813600" lon="-15.6822480">
        <ele>723.89400</ele>
        <time>2009-01-05T10:54:06Z</time>
      </trkpt>
      <trkpt lat="27.89811500" lon="-15.6822580">
        <ele>724.55000</ele>
        <time>2009-01-05T10:54:07Z</time>
      </trkpt>
      <trkpt lat="27.89809700" lon="-15.6822680">
        <ele>724.84300</ele>
        <time>2009-01-05T10:54:08Z</time>
      </trkpt>
      <trkpt lat="27.89807800" lon="-15.6822770">
        <ele>724.99900</ele>
        <time>2009-01-05T10:54:09Z</time>
      </trkpt>
      <trkpt lat="27.89805900" lon="-15.6822870">
        <ele>725.44600</ele>
        <time>2009-01-05T10:54:10Z</time>
      </trkpt>
      <trkpt lat="27.89804000" lon="-15.6822990">
        <ele>725.61300</ele>
        <time>2009-01-05T10:54:11Z</time>
      </trkpt>
      <trkpt lat="27.89802100" lon="-15.6823120">
        <ele>725.66600</ele>
        <time>2009-01-05T10:54:12Z</time>
      </trkpt>
      <trkpt lat="27.89800500" lon="-15.6823230">
        <ele>726.06700</ele>
        <time>2009-01-05T10:54:13Z</time>
      </trkpt>
      <trkpt lat="27.89799100" lon="-15.6823330">
        <ele>726.37400</ele>
        <time>2009-01-05T10:54:14Z</time>
      </trkpt>
      <trkpt lat="27.89797500" lon="-15.6823470">
        <ele>726.77000</ele>
        <time>2009-01-05T10:54:15Z</time>
      </trkpt>
      <trkpt lat="27.89796000" lon="-15.6823650">
        <ele>726.84700</ele>
        <time>2009-01-05T10:54:16Z</time>
      </trkpt>
      <trkpt lat="27.89794400" lon="-15.6823840">
        <ele>727.11200</ele>
        <time>2009-01-05T10:54:17Z</time>
      </trkpt>
      <trkpt lat="27.89792700" lon="-15.6824060">
        <ele>726.98800</ele>
        <time>2009-01-05T10:54:18Z</time>
      </trkpt>
      <trkpt lat="27.89791300" lon="-15.6824270">
        <ele>727.26600</ele>
        <time>2009-01-05T10:54:19Z</time>
      </trkpt>
      <trkpt lat="27.89789800" lon="-15.6824490">
        <ele>727.44900</ele>
        <time>2009-01-05T10:54:20Z</time>
      </trkpt>
      <trkpt lat="27.89788400" lon="-15.6824700">
        <ele>727.47100</ele>
        <time>2009-01-05T10:54:21Z</time>
      </trkpt>
      <trkpt lat="27.89786900" lon="-15.6824920">
        <ele>727.54100</ele>
        <time>2009-01-05T10:54:22Z</time>
      </trkpt>
      <trkpt lat="27.89785500" lon="-15.6825130">
        <ele>728.07800</ele>
        <time>2009-01-05T10:54:23Z</time>
      </trkpt>
      <trkpt lat="27.89784400" lon="-15.6825330">
        <ele>728.42600</ele>
        <time>2009-01-05T10:54:24Z</time>
      </trkpt>
      <trkpt lat="27.89783400" lon="-15.6825520">
        <ele>728.25500</ele>
        <time>2009-01-05T10:54:25Z</time>
      </trkpt>
      <trkpt lat="27.89782200" lon="-15.6825700">
        <ele>728.41200</ele>
        <time>2009-01-05T10:54:26Z</time>
      </trkpt>
      <trkpt lat="27.89780900" lon="-15.6825890">
        <ele>728.84100</ele>
        <time>2009-01-05T10:54:27Z</time>
      </trkpt>
      <trkpt lat="27.89780000" lon="-15.6826080">
        <ele>729.01200</ele>
        <time>2009-01-05T10:54:28Z</time>
      </trkpt>
      <trkpt lat="27.89779100" lon="-15.6826270">
        <ele>729.34300</ele>
        <time>2009-01-05T10:54:29Z</time>
      </trkpt>
      <trkpt lat="27.89778300" lon="-15.6826490">
        <ele>729.76200</ele>
        <time>2009-01-05T10:54:30Z</time>
      </trkpt>
      <trkpt lat="27.89777400" lon="-15.6826690">
        <ele>729.65800</ele>
        <time>2009-01-05T10:54:31Z</time>
      </trkpt>
      <trkpt lat="27.89776100" lon="-15.6826880">
        <ele>729.78300</ele>
        <time>2009-01-05T10:54:32Z</time>
      </trkpt>
      <trkpt lat="27.89774600" lon="-15.6827060">
        <ele>730.11800</ele>
        <time>2009-01-05T10:54:33Z</time>
      </trkpt>
      <trkpt lat="27.89772900" lon="-15.6827220">
        <ele>730.37300</ele>
        <time>2009-01-05T10:54:34Z</time>
      </trkpt>
      <trkpt lat="27.89771100" lon="-15.6827370">
        <ele>730.61700</ele>
        <time>2009-01-05T10:54:35Z</time>
      </trkpt>
      <trkpt lat="27.89769100" lon="-15.6827510">
        <ele>730.91000</ele>
        <time>2009-01-05T10:54:36Z</time>
      </trkpt>
      <trkpt lat="27.89767100" lon="-15.6827630">
        <ele>731.11500</ele>
        <time>2009-01-05T10:54:37Z</time>
      </trkpt>
      <trkpt lat="27.89764900" lon="-15.6827740">
        <ele>731.14500</ele>
        <time>2009-01-05T10:54:38Z</time>
      </trkpt>
      <trkpt lat="27.89762700" lon="-15.6827820">
        <ele>731.58600</ele>
        <time>2009-01-05T10:54:39Z</time>
      </trkpt>
      <trkpt lat="27.89760400" lon="-15.6827880">
        <ele>731.85900</ele>
        <time>2009-01-05T10:54:40Z</time>
      </trkpt>
      <trkpt lat="27.89758100" lon="-15.6827930">
        <ele>732.01400</ele>
        <time>2009-01-05T10:54:41Z</time>
      </trkpt>
      <trkpt lat="27.89755700" lon="-15.6827950">
        <ele>732.22400</ele>
        <time>2009-01-05T10:54:42Z</time>
      </trkpt>
      <trkpt lat="27.89753400" lon="-15.6827940">
        <ele>732.35000</ele>
        <time>2009-01-05T10:54:43Z</time>
      </trkpt>
      <trkpt lat="27.89751000" lon="-15.6827910">
        <ele>732.60200</ele>
        <time>2009-01-05T10:54:44Z</time>
      </trkpt>
      <trkpt lat="27.89748800" lon="-15.6827840">
        <ele>732.98400</ele>
        <time>2009-01-05T10:54:45Z</time>
      </trkpt>
      <trkpt lat="27.89746600" lon="-15.6827750">
        <ele>732.91100</ele>
        <time>2009-01-05T10:54:46Z</time>
      </trkpt>
      <trkpt lat="27.89744600" lon="-15.6827640">
        <ele>733.16000</ele>
        <time>2009-01-05T10:54:47Z</time>
      </trkpt>
      <trkpt lat="27.89742700" lon="-15.6827520">
        <ele>733.65800</ele>
        <time>2009-01-05T10:54:48Z</time>
      </trkpt>
      <trkpt lat="27.89740800" lon="-15.6827410">
        <ele>734.04800</ele>
        <time>2009-01-05T10:54:49Z</time>
      </trkpt>
      <trkpt lat="27.89739100" lon="-15.6827270">
        <ele>734.22600</ele>
        <time>2009-01-05T10:54:50Z</time>
      </trkpt>
      <trkpt lat="27.89737300" lon="-15.6827130">
        <ele>734.26100</ele>
        <time>2009-01-05T10:54:51Z</time>
      </trkpt>
      <trkpt lat="27.89735500" lon="-15.6826990">
        <ele>734.38600</ele>
        <time>2009-01-05T10:54:52Z</time>
      </trkpt>
      <trkpt lat="27.89733700" lon="-15.6826850">
        <ele>734.56400</ele>
        <time>2009-01-05T10:54:53Z</time>
      </trkpt>
      <trkpt lat="27.89731900" lon="-15.6826710">
        <ele>734.91600</ele>
        <time>2009-01-05T10:54:54Z</time>
      </trkpt>
      <trkpt lat="27.89730200" lon="-15.6826560">
        <ele>735.49500</ele>
        <time>2009-01-05T10:54:55Z</time>
      </trkpt>
      <trkpt lat="27.89728500" lon="-15.6826410">
        <ele>735.89500</ele>
        <time>2009-01-05T10:54:56Z</time>
      </trkpt>
      <trkpt lat="27.89726800" lon="-15.6826250">
        <ele>735.85800</ele>
        <time>2009-01-05T10:54:57Z</time>
      </trkpt>
      <trkpt lat="27.89725200" lon="-15.6826060">
        <ele>736.10200</ele>
        <time>2009-01-05T10:54:58Z</time>
      </trkpt>
      <trkpt lat="27.89723300" lon="-15.6825910">
        <ele>736.36900</ele>
        <time>2009-01-05T10:54:59Z</time>
      </trkpt>
      <trkpt lat="27.89721400" lon="-15.6825760">
        <ele>736.31900</ele>
        <time>2009-01-05T10:55:00Z</time>
      </trkpt>
      <trkpt lat="27.89719500" lon="-15.6825640">
        <ele>736.90100</ele>
        <time>2009-01-05T10:55:01Z</time>
      </trkpt>
      <trkpt lat="27.89717600" lon="-15.6825500">
        <ele>736.61600</ele>
        <time>2009-01-05T10:55:02Z</time>
      </trkpt>
      <trkpt lat="27.89715600" lon="-15.6825370">
        <ele>737.08900</ele>
        <time>2009-01-05T10:55:03Z</time>
      </trkpt>
      <trkpt lat="27.89713600" lon="-15.6825260">
        <ele>737.52500</ele>
        <time>2009-01-05T10:55:04Z</time>
      </trkpt>
      <trkpt lat="27.89711500" lon="-15.6825140">
        <ele>737.64200</ele>
        <time>2009-01-05T10:55:05Z</time>
      </trkpt>
      <trkpt lat="27.89709500" lon="-15.6825000">
        <ele>737.66000</ele>
        <time>2009-01-05T10:55:06Z</time>
      </trkpt>
      <trkpt lat="27.89707500" lon="-15.6824850">
        <ele>737.92900</ele>
        <time>2009-01-05T10:55:07Z</time>
      </trkpt>
      <trkpt lat="27.89705600" lon="-15.6824700">
        <ele>738.03900</ele>
        <time>2009-01-05T10:55:08Z</time>
      </trkpt>
      <trkpt lat="27.89703700" lon="-15.6824580">
        <ele>738.23200</ele>
        <time>2009-01-05T10:55:09Z</time>
      </trkpt>
      <trkpt lat="27.89701800" lon="-15.6824480">
        <ele>738.53500</ele>
        <time>2009-01-05T10:55:10Z</time>
      </trkpt>
      <trkpt lat="27.89699600" lon="-15.6824390">
        <ele>738.71200</ele>
        <time>2009-01-05T10:55:11Z</time>
      </trkpt>
      <trkpt lat="27.89697500" lon="-15.6824300">
        <ele>738.96600</ele>
        <time>2009-01-05T10:55:12Z</time>
      </trkpt>
      <trkpt lat="27.89695400" lon="-15.6824220">
        <ele>739.09500</ele>
        <time>2009-01-05T10:55:13Z</time>
      </trkpt>
      <trkpt lat="27.89693400" lon="-15.6824150">
        <ele>738.90100</ele>
        <time>2009-01-05T10:55:14Z</time>
      </trkpt>
      <trkpt lat="27.89691200" lon="-15.6824090">
        <ele>739.60700</ele>
        <time>2009-01-05T10:55:15Z</time>
      </trkpt>
      <trkpt lat="27.89689100" lon="-15.6824040">
        <ele>739.51400</ele>
        <time>2009-01-05T10:55:16Z</time>
      </trkpt>
      <trkpt lat="27.89687100" lon="-15.6823980">
        <ele>739.77200</ele>
        <time>2009-01-05T10:55:17Z</time>
      </trkpt>
      <trkpt lat="27.89685000" lon="-15.6823910">
        <ele>739.92200</ele>
        <time>2009-01-05T10:55:18Z</time>
      </trkpt>
      <trkpt lat="27.89682900" lon="-15.6823860">
        <ele>740.01700</ele>
        <time>2009-01-05T10:55:19Z</time>
      </trkpt>
      <trkpt lat="27.89680700" lon="-15.6823850">
        <ele>740.30700</ele>
        <time>2009-01-05T10:55:20Z</time>
      </trkpt>
      <trkpt lat="27.89678500" lon="-15.6823860">
        <ele>740.20700</ele>
        <time>2009-01-05T10:55:21Z</time>
      </trkpt>
      <trkpt lat="27.89676100" lon="-15.6823890">
        <ele>740.75300</ele>
        <time>2009-01-05T10:55:22Z</time>
      </trkpt>
      <trkpt lat="27.89673800" lon="-15.6823930">
        <ele>740.91100</ele>
        <time>2009-01-05T10:55:23Z</time>
      </trkpt>
      <trkpt lat="27.89671700" lon="-15.6823980">
        <ele>741.04600</ele>
        <time>2009-01-05T10:55:24Z</time>
      </trkpt>
      <trkpt lat="27.89669600" lon="-15.6824030">
        <ele>741.41800</ele>
        <time>2009-01-05T10:55:25Z</time>
      </trkpt>
      <trkpt lat="27.89667300" lon="-15.6824090">
        <ele>741.58300</ele>
        <time>2009-01-05T10:55:26Z</time>
      </trkpt>
      <trkpt lat="27.89665200" lon="-15.6824170">
        <ele>741.76500</ele>
        <time>2009-01-05T10:55:27Z</time>
      </trkpt>
      <trkpt lat="27.89663200" lon="-15.6824250">
        <ele>742.05500</ele>
        <time>2009-01-05T10:55:28Z</time>
      </trkpt>
      <trkpt lat="27.89661100" lon="-15.6824340">
        <ele>742.29200</ele>
        <time>2009-01-05T10:55:29Z</time>
      </trkpt>
      <trkpt lat="27.89659200" lon="-15.6824450">
        <ele>742.45500</ele>
        <time>2009-01-05T10:55:30Z</time>
      </trkpt>
      <trkpt lat="27.89657100" lon="-15.6824550">
        <ele>742.86700</ele>
        <time>2009-01-05T10:55:31Z</time>
      </trkpt>
      <trkpt lat="27.89654900" lon="-15.6824660">
        <ele>743.16700</ele>
        <time>2009-01-05T10:55:32Z</time>
      </trkpt>
      <trkpt lat="27.89652900" lon="-15.6824770">
        <ele>743.06300</ele>
        <time>2009-01-05T10:55:33Z</time>
      </trkpt>
      <trkpt lat="27.89650800" lon="-15.6824870">
        <ele>743.25800</ele>
        <time>2009-01-05T10:55:34Z</time>
      </trkpt>
      <trkpt lat="27.89648900" lon="-15.6824970">
        <ele>743.25700</ele>
        <time>2009-01-05T10:55:35Z</time>
      </trkpt>
      <trkpt lat="27.89646900" lon="-15.6825070">
        <ele>743.60500</ele>
        <time>2009-01-05T10:55:36Z</time>
      </trkpt>
      <trkpt lat="27.89644800" lon="-15.6825180">
        <ele>743.99600</ele>
        <time>2009-01-05T10:55:37Z</time>
      </trkpt>
      <trkpt lat="27.89642900" lon="-15.6825290">
        <ele>744.19100</ele>
        <time>2009-01-05T10:55:38Z</time>
      </trkpt>
      <trkpt lat="27.89641100" lon="-15.6825410">
        <ele>744.46300</ele>
        <time>2009-01-05T10:55:39Z</time>
      </trkpt>
      <trkpt lat="27.89639200" lon="-15.6825530">
        <ele>744.64000</ele>
        <time>2009-01-05T10:55:40Z</time>
      </trkpt>
      <trkpt lat="27.89637400" lon="-15.6825660">
        <ele>744.82100</ele>
        <time>2009-01-05T10:55:41Z</time>
      </trkpt>
      <trkpt lat="27.89635600" lon="-15.6825790">
        <ele>744.98200</ele>
        <time>2009-01-05T10:55:42Z</time>
      </trkpt>
      <trkpt lat="27.89633400" lon="-15.6825940">
        <ele>745.24300</ele>
        <time>2009-01-05T10:55:43Z</time>
      </trkpt>
      <trkpt lat="27.89631300" lon="-15.6826070">
        <ele>745.58100</ele>
        <time>2009-01-05T10:55:44Z</time>
      </trkpt>
      <trkpt lat="27.89629100" lon="-15.6826170">
        <ele>745.74700</ele>
        <time>2009-01-05T10:55:45Z</time>
      </trkpt>
      <trkpt lat="27.89627000" lon="-15.6826270">
        <ele>745.86000</ele>
        <time>2009-01-05T10:55:46Z</time>
      </trkpt>
      <trkpt lat="27.89625000" lon="-15.6826370">
        <ele>746.28000</ele>
        <time>2009-01-05T10:55:47Z</time>
      </trkpt>
      <trkpt lat="27.89623000" lon="-15.6826470">
        <ele>746.44800</ele>
        <time>2009-01-05T10:55:48Z</time>
      </trkpt>
      <trkpt lat="27.89621100" lon="-15.6826580">
        <ele>746.82600</ele>
        <time>2009-01-05T10:55:49Z</time>
      </trkpt>
      <trkpt lat="27.89619100" lon="-15.6826710">
        <ele>746.95200</ele>
        <time>2009-01-05T10:55:50Z</time>
      </trkpt>
      <trkpt lat="27.89617500" lon="-15.6826850">
        <ele>747.13600</ele>
        <time>2009-01-05T10:55:51Z</time>
      </trkpt>
      <trkpt lat="27.89616300" lon="-15.6827020">
        <ele>747.50800</ele>
        <time>2009-01-05T10:55:52Z</time>
      </trkpt>
      <trkpt lat="27.89614900" lon="-15.6827200">
        <ele>747.50000</ele>
        <time>2009-01-05T10:55:53Z</time>
      </trkpt>
      <trkpt lat="27.89613500" lon="-15.6827420">
        <ele>748.18600</ele>
        <time>2009-01-05T10:55:54Z</time>
      </trkpt>
      <trkpt lat="27.89612500" lon="-15.6827660">
        <ele>748.63500</ele>
        <time>2009-01-05T10:55:55Z</time>
      </trkpt>
      <trkpt lat="27.89612200" lon="-15.6827910">
        <ele>748.83000</ele>
        <time>2009-01-05T10:55:56Z</time>
      </trkpt>
      <trkpt lat="27.89611900" lon="-15.6828170">
        <ele>749.19200</ele>
        <time>2009-01-05T10:55:57Z</time>
      </trkpt>
      <trkpt lat="27.89611500" lon="-15.6828430">
        <ele>749.44800</ele>
        <time>2009-01-05T10:55:58Z</time>
      </trkpt>
      <trkpt lat="27.89611200" lon="-15.6828700">
        <ele>749.47300</ele>
        <time>2009-01-05T10:55:59Z</time>
      </trkpt>
      <trkpt lat="27.89610700" lon="-15.6828970">
        <ele>749.83200</ele>
        <time>2009-01-05T10:56:00Z</time>
      </trkpt>
      <trkpt lat="27.89610400" lon="-15.6829250">
        <ele>750.07400</ele>
        <time>2009-01-05T10:56:01Z</time>
      </trkpt>
      <trkpt lat="27.89609900" lon="-15.6829510">
        <ele>750.08900</ele>
        <time>2009-01-05T10:56:02Z</time>
      </trkpt>
      <trkpt lat="27.89609300" lon="-15.6829760">
        <ele>750.62700</ele>
        <time>2009-01-05T10:56:03Z</time>
      </trkpt>
      <trkpt lat="27.89608500" lon="-15.6830000">
        <ele>750.56700</ele>
        <time>2009-01-05T10:56:04Z</time>
      </trkpt>
      <trkpt lat="27.89607400" lon="-15.6830240">
        <ele>750.84600</ele>
        <time>2009-01-05T10:56:05Z</time>
      </trkpt>
      <trkpt lat="27.89605800" lon="-15.6830480">
        <ele>751.35100</ele>
        <time>2009-01-05T10:56:06Z</time>
      </trkpt>
      <trkpt lat="27.89604300" lon="-15.6830710">
        <ele>751.66200</ele>
        <time>2009-01-05T10:56:07Z</time>
      </trkpt>
      <trkpt lat="27.89602800" lon="-15.6830940">
        <ele>751.93200</ele>
        <time>2009-01-05T10:56:08Z</time>
      </trkpt>
      <trkpt lat="27.89601300" lon="-15.6831170">
        <ele>752.20800</ele>
        <time>2009-01-05T10:56:09Z</time>
      </trkpt>
      <trkpt lat="27.89599700" lon="-15.6831390">
        <ele>752.36700</ele>
        <time>2009-01-05T10:56:10Z</time>
      </trkpt>
      <trkpt lat="27.89598200" lon="-15.6831590">
        <ele>752.80600</ele>
        <time>2009-01-05T10:56:11Z</time>
      </trkpt>
      <trkpt lat="27.89596200" lon="-15.6831780">
        <ele>752.95300</ele>
        <time>2009-01-05T10:56:12Z</time>
      </trkpt>
      <trkpt lat="27.89594100" lon="-15.6831940">
        <ele>753.00600</ele>
        <time>2009-01-05T10:56:13Z</time>
      </trkpt>
      <trkpt lat="27.89591900" lon="-15.6832070">
        <ele>753.34300</ele>
        <time>2009-01-05T10:56:14Z</time>
      </trkpt>
      <trkpt lat="27.89589200" lon="-15.6832170">
        <ele>753.61800</ele>
        <time>2009-01-05T10:56:15Z</time>
      </trkpt>
      <trkpt lat="27.89586700" lon="-15.6832230">
        <ele>753.69000</ele>
        <time>2009-01-05T10:56:16Z</time>
      </trkpt>
      <trkpt lat="27.89584300" lon="-15.6832260">
        <ele>753.92900</ele>
        <time>2009-01-05T10:56:17Z</time>
      </trkpt>
      <trkpt lat="27.89581800" lon="-15.6832290">
        <ele>753.94300</ele>
        <time>2009-01-05T10:56:18Z</time>
      </trkpt>
      <trkpt lat="27.89579500" lon="-15.6832290">
        <ele>754.56200</ele>
        <time>2009-01-05T10:56:19Z</time>
      </trkpt>
      <trkpt lat="27.89577200" lon="-15.6832280">
        <ele>754.64500</ele>
        <time>2009-01-05T10:56:20Z</time>
      </trkpt>
      <trkpt lat="27.89574900" lon="-15.6832280">
        <ele>754.70900</ele>
        <time>2009-01-05T10:56:21Z</time>
      </trkpt>
      <trkpt lat="27.89572700" lon="-15.6832290">
        <ele>755.16700</ele>
        <time>2009-01-05T10:56:22Z</time>
      </trkpt>
      <trkpt lat="27.89570600" lon="-15.6832330">
        <ele>755.34800</ele>
        <time>2009-01-05T10:56:23Z</time>
      </trkpt>
      <trkpt lat="27.89569000" lon="-15.6832430">
        <ele>755.50500</ele>
        <time>2009-01-05T10:56:24Z</time>
      </trkpt>
      <trkpt lat="27.89568000" lon="-15.6832590">
        <ele>755.87300</ele>
        <time>2009-01-05T10:56:25Z</time>
      </trkpt>
      <trkpt lat="27.89567900" lon="-15.6832790">
        <ele>756.11200</ele>
        <time>2009-01-05T10:56:26Z</time>
      </trkpt>
      <trkpt lat="27.89568600" lon="-15.6832960">
        <ele>756.58600</ele>
        <time>2009-01-05T10:56:27Z</time>
      </trkpt>
      <trkpt lat="27.89570200" lon="-15.6833090">
        <ele>757.18000</ele>
        <time>2009-01-05T10:56:28Z</time>
      </trkpt>
      <trkpt lat="27.89572300" lon="-15.6833210">
        <ele>757.06500</ele>
        <time>2009-01-05T10:56:29Z</time>
      </trkpt>
      <trkpt lat="27.89574700" lon="-15.6833310">
        <ele>757.24600</ele>
        <time>2009-01-05T10:56:30Z</time>
      </trkpt>
      <trkpt lat="27.89577200" lon="-15.6833400">
        <ele>757.44000</ele>
        <time>2009-01-05T10:56:31Z</time>
      </trkpt>
      <trkpt lat="27.89579700" lon="-15.6833490">
        <ele>757.77400</ele>
        <time>2009-01-05T10:56:32Z</time>
      </trkpt>
      <trkpt lat="27.89582100" lon="-15.6833570">
        <ele>757.73400</ele>
        <time>2009-01-05T10:56:33Z</time>
      </trkpt>
      <trkpt lat="27.89584300" lon="-15.6833640">
        <ele>758.71500</ele>
        <time>2009-01-05T10:56:34Z</time>
      </trkpt>
      <trkpt lat="27.89586600" lon="-15.6833670">
        <ele>755.72300</ele>
        <time>2009-01-05T10:56:35Z</time>
      </trkpt>
      <trkpt lat="27.89588900" lon="-15.6833680">
        <ele>758.84700</ele>
        <time>2009-01-05T10:56:36Z</time>
      </trkpt>
      <trkpt lat="27.89591100" lon="-15.6833670">
        <ele>758.14700</ele>
        <time>2009-01-05T10:56:37Z</time>
      </trkpt>
      <trkpt lat="27.89593300" lon="-15.6833650">
        <ele>757.85300</ele>
        <time>2009-01-05T10:56:38Z</time>
      </trkpt>
      <trkpt lat="27.89595400" lon="-15.6833640">
        <ele>757.84700</ele>
        <time>2009-01-05T10:56:39Z</time>
      </trkpt>
      <trkpt lat="27.89597600" lon="-15.6833600">
        <ele>757.84400</ele>
        <time>2009-01-05T10:56:40Z</time>
      </trkpt>
      <trkpt lat="27.89599800" lon="-15.6833540">
        <ele>760.69500</ele>
        <time>2009-01-05T10:56:41Z</time>
      </trkpt>
      <trkpt lat="27.89602100" lon="-15.6833510">
        <ele>760.14300</ele>
        <time>2009-01-05T10:56:42Z</time>
      </trkpt>
      <trkpt lat="27.89604400" lon="-15.6833500">
        <ele>760.02200</ele>
        <time>2009-01-05T10:56:43Z</time>
      </trkpt>
      <trkpt lat="27.89606900" lon="-15.6833480">
        <ele>760.06300</ele>
        <time>2009-01-05T10:56:44Z</time>
      </trkpt>
      <trkpt lat="27.89609400" lon="-15.6833480">
        <ele>760.47800</ele>
        <time>2009-01-05T10:56:45Z</time>
      </trkpt>
      <trkpt lat="27.89612000" lon="-15.6833490">
        <ele>760.24200</ele>
        <time>2009-01-05T10:56:46Z</time>
      </trkpt>
      <trkpt lat="27.89614600" lon="-15.6833480">
        <ele>760.53100</ele>
        <time>2009-01-05T10:56:47Z</time>
      </trkpt>
      <trkpt lat="27.89617200" lon="-15.6833460">
        <ele>760.57000</ele>
        <time>2009-01-05T10:56:48Z</time>
      </trkpt>
      <trkpt lat="27.89619800" lon="-15.6833440">
        <ele>760.91900</ele>
        <time>2009-01-05T10:56:49Z</time>
      </trkpt>
      <trkpt lat="27.89622400" lon="-15.6833410">
        <ele>761.24800</ele>
        <time>2009-01-05T10:56:50Z</time>
      </trkpt>
      <trkpt lat="27.89624900" lon="-15.6833370">
        <ele>761.18200</ele>
        <time>2009-01-05T10:56:51Z</time>
      </trkpt>
      <trkpt lat="27.89627300" lon="-15.6833310">
        <ele>761.55900</ele>
        <time>2009-01-05T10:56:52Z</time>
      </trkpt>
      <trkpt lat="27.89629700" lon="-15.6833250">
        <ele>761.60600</ele>
        <time>2009-01-05T10:56:53Z</time>
      </trkpt>
      <trkpt lat="27.89632100" lon="-15.6833190">
        <ele>761.78000</ele>
        <time>2009-01-05T10:56:54Z</time>
      </trkpt>
      <trkpt lat="27.89634500" lon="-15.6833120">
        <ele>761.99600</ele>
        <time>2009-01-05T10:56:55Z</time>
      </trkpt>
      <trkpt lat="27.89637000" lon="-15.6833040">
        <ele>762.39200</ele>
        <time>2009-01-05T10:56:56Z</time>
      </trkpt>
      <trkpt lat="27.89639500" lon="-15.6832970">
        <ele>762.60300</ele>
        <time>2009-01-05T10:56:57Z</time>
      </trkpt>
      <trkpt lat="27.89641800" lon="-15.6832890">
        <ele>762.78700</ele>
        <time>2009-01-05T10:56:58Z</time>
      </trkpt>
      <trkpt lat="27.89644000" lon="-15.6832780">
        <ele>762.93400</ele>
        <time>2009-01-05T10:56:59Z</time>
      </trkpt>
      <trkpt lat="27.89646100" lon="-15.6832650">
        <ele>763.34300</ele>
        <time>2009-01-05T10:57:00Z</time>
      </trkpt>
      <trkpt lat="27.89648000" lon="-15.6832500">
        <ele>763.27400</ele>
        <time>2009-01-05T10:57:01Z</time>
      </trkpt>
      <trkpt lat="27.89649900" lon="-15.6832340">
        <ele>763.46600</ele>
        <time>2009-01-05T10:57:02Z</time>
      </trkpt>
      <trkpt lat="27.89651600" lon="-15.6832160">
        <ele>763.54200</ele>
        <time>2009-01-05T10:57:03Z</time>
      </trkpt>
      <trkpt lat="27.89653300" lon="-15.6831970">
        <ele>763.55000</ele>
        <time>2009-01-05T10:57:04Z</time>
      </trkpt>
      <trkpt lat="27.89655000" lon="-15.6831780">
        <ele>763.54900</ele>
        <time>2009-01-05T10:57:05Z</time>
      </trkpt>
      <trkpt lat="27.89656800" lon="-15.6831590">
        <ele>763.54900</ele>
        <time>2009-01-05T10:57:06Z</time>
      </trkpt>
      <trkpt lat="27.89658700" lon="-15.6831410">
        <ele>763.54900</ele>
        <time>2009-01-05T10:57:07Z</time>
      </trkpt>
      <trkpt lat="27.89660700" lon="-15.6831250">
        <ele>764.27800</ele>
        <time>2009-01-05T10:57:08Z</time>
      </trkpt>
      <trkpt lat="27.89662700" lon="-15.6831090">
        <ele>764.99900</ele>
        <time>2009-01-05T10:57:09Z</time>
      </trkpt>
      <trkpt lat="27.89664800" lon="-15.6830960">
        <ele>765.21300</ele>
        <time>2009-01-05T10:57:10Z</time>
      </trkpt>
      <trkpt lat="27.89666900" lon="-15.6830850">
        <ele>765.19900</ele>
        <time>2009-01-05T10:57:11Z</time>
      </trkpt>
      <trkpt lat="27.89669100" lon="-15.6830780">
        <ele>765.79500</ele>
        <time>2009-01-05T10:57:12Z</time>
      </trkpt>
      <trkpt lat="27.89671400" lon="-15.6830750">
        <ele>765.90900</ele>
        <time>2009-01-05T10:57:13Z</time>
      </trkpt>
      <trkpt lat="27.89673700" lon="-15.6830770">
        <ele>765.93700</ele>
        <time>2009-01-05T10:57:14Z</time>
      </trkpt>
      <trkpt lat="27.89676100" lon="-15.6830800">
        <ele>766.56000</ele>
        <time>2009-01-05T10:57:15Z</time>
      </trkpt>
      <trkpt lat="27.89678300" lon="-15.6830890">
        <ele>766.93000</ele>
        <time>2009-01-05T10:57:16Z</time>
      </trkpt>
      <trkpt lat="27.89680500" lon="-15.6831030">
        <ele>766.63800</ele>
        <time>2009-01-05T10:57:17Z</time>
      </trkpt>
      <trkpt lat="27.89682700" lon="-15.6831200">
        <ele>766.79900</ele>
        <time>2009-01-05T10:57:18Z</time>
      </trkpt>
      <trkpt lat="27.89684900" lon="-15.6831400">
        <ele>767.20300</ele>
        <time>2009-01-05T10:57:19Z</time>
      </trkpt>
      <trkpt lat="27.89686600" lon="-15.6831640">
        <ele>767.27600</ele>
        <time>2009-01-05T10:57:20Z</time>
      </trkpt>
      <trkpt lat="27.89687400" lon="-15.6831910">
        <ele>767.46400</ele>
        <time>2009-01-05T10:57:21Z</time>
      </trkpt>
      <trkpt lat="27.89687500" lon="-15.6832180">
        <ele>767.88600</ele>
        <time>2009-01-05T10:57:22Z</time>
      </trkpt>
      <trkpt lat="27.89686800" lon="-15.6832450">
        <ele>768.10500</ele>
        <time>2009-01-05T10:57:23Z</time>
      </trkpt>
      <trkpt lat="27.89685500" lon="-15.6832720">
        <ele>768.40000</ele>
        <time>2009-01-05T10:57:24Z</time>
      </trkpt>
      <trkpt lat="27.89683800" lon="-15.6832970">
        <ele>768.86500</ele>
        <time>2009-01-05T10:57:25Z</time>
      </trkpt>
      <trkpt lat="27.89682200" lon="-15.6833200">
        <ele>769.14400</ele>
        <time>2009-01-05T10:57:26Z</time>
      </trkpt>
      <trkpt lat="27.89680500" lon="-15.6833410">
        <ele>769.02500</ele>
        <time>2009-01-05T10:57:27Z</time>
      </trkpt>
      <trkpt lat="27.89678500" lon="-15.6833590">
        <ele>769.15500</ele>
        <time>2009-01-05T10:57:28Z</time>
      </trkpt>
      <trkpt lat="27.89676500" lon="-15.6833740">
        <ele>769.54100</ele>
        <time>2009-01-05T10:57:29Z</time>
      </trkpt>
      <trkpt lat="27.89674300" lon="-15.6833920">
        <ele>769.67300</ele>
        <time>2009-01-05T10:57:30Z</time>
      </trkpt>
      <trkpt lat="27.89672200" lon="-15.6834110">
        <ele>770.04700</ele>
        <time>2009-01-05T10:57:31Z</time>
      </trkpt>
      <trkpt lat="27.89670200" lon="-15.6834330">
        <ele>769.95000</ele>
        <time>2009-01-05T10:57:32Z</time>
      </trkpt>
      <trkpt lat="27.89668100" lon="-15.6834560">
        <ele>770.18800</ele>
        <time>2009-01-05T10:57:33Z</time>
      </trkpt>
      <trkpt lat="27.89666200" lon="-15.6834790">
        <ele>770.33000</ele>
        <time>2009-01-05T10:57:34Z</time>
      </trkpt>
      <trkpt lat="27.89664300" lon="-15.6835040">
        <ele>770.59000</ele>
        <time>2009-01-05T10:57:35Z</time>
      </trkpt>
      <trkpt lat="27.89662200" lon="-15.6835290">
        <ele>770.72300</ele>
        <time>2009-01-05T10:57:36Z</time>
      </trkpt>
      <trkpt lat="27.89660200" lon="-15.6835510">
        <ele>770.90400</ele>
        <time>2009-01-05T10:57:37Z</time>
      </trkpt>
      <trkpt lat="27.89658200" lon="-15.6835710">
        <ele>771.24100</ele>
        <time>2009-01-05T10:57:38Z</time>
      </trkpt>
      <trkpt lat="27.89656100" lon="-15.6835900">
        <ele>771.57600</ele>
        <time>2009-01-05T10:57:39Z</time>
      </trkpt>
      <trkpt lat="27.89653900" lon="-15.6836080">
        <ele>771.55600</ele>
        <time>2009-01-05T10:57:40Z</time>
      </trkpt>
      <trkpt lat="27.89651900" lon="-15.6836240">
        <ele>771.94300</ele>
        <time>2009-01-05T10:57:41Z</time>
      </trkpt>
      <trkpt lat="27.89649500" lon="-15.6836410">
        <ele>772.17400</ele>
        <time>2009-01-05T10:57:42Z</time>
      </trkpt>
      <trkpt lat="27.89647200" lon="-15.6836580">
        <ele>772.34500</ele>
        <time>2009-01-05T10:57:43Z</time>
      </trkpt>
      <trkpt lat="27.89644800" lon="-15.6836750">
        <ele>772.46500</ele>
        <time>2009-01-05T10:57:44Z</time>
      </trkpt>
      <trkpt lat="27.89642400" lon="-15.6836880">
        <ele>772.87900</ele>
        <time>2009-01-05T10:57:45Z</time>
      </trkpt>
      <trkpt lat="27.89639800" lon="-15.6837020">
        <ele>773.03300</ele>
        <time>2009-01-05T10:57:46Z</time>
      </trkpt>
      <trkpt lat="27.89637400" lon="-15.6837140">
        <ele>773.39300</ele>
        <time>2009-01-05T10:57:47Z</time>
      </trkpt>
      <trkpt lat="27.89634900" lon="-15.6837250">
        <ele>773.43600</ele>
        <time>2009-01-05T10:57:48Z</time>
      </trkpt>
      <trkpt lat="27.89632400" lon="-15.6837350">
        <ele>774.00200</ele>
        <time>2009-01-05T10:57:49Z</time>
      </trkpt>
      <trkpt lat="27.89629900" lon="-15.6837440">
        <ele>774.22000</ele>
        <time>2009-01-05T10:57:50Z</time>
      </trkpt>
      <trkpt lat="27.89627500" lon="-15.6837540">
        <ele>774.33900</ele>
        <time>2009-01-05T10:57:51Z</time>
      </trkpt>
      <trkpt lat="27.89625500" lon="-15.6837660">
        <ele>774.59100</ele>
        <time>2009-01-05T10:57:52Z</time>
      </trkpt>
      <trkpt lat="27.89624500" lon="-15.6837840">
        <ele>774.96900</ele>
        <time>2009-01-05T10:57:53Z</time>
      </trkpt>
      <trkpt lat="27.89624900" lon="-15.6838070">
        <ele>775.16800</ele>
        <time>2009-01-05T10:57:54Z</time>
      </trkpt>
      <trkpt lat="27.89626400" lon="-15.6838230">
        <ele>775.91400</ele>
        <time>2009-01-05T10:57:55Z</time>
      </trkpt>
      <trkpt lat="27.89628500" lon="-15.6838250">
        <ele>775.85900</ele>
        <time>2009-01-05T10:57:56Z</time>
      </trkpt>
      <trkpt lat="27.89631100" lon="-15.6838200">
        <ele>776.10000</ele>
        <time>2009-01-05T10:57:57Z</time>
      </trkpt>
      <trkpt lat="27.89633900" lon="-15.6838150">
        <ele>776.53700</ele>
        <time>2009-01-05T10:57:58Z</time>
      </trkpt>
      <trkpt lat="27.89636700" lon="-15.6838090">
        <ele>776.85300</ele>
        <time>2009-01-05T10:57:59Z</time>
      </trkpt>
      <trkpt lat="27.89639600" lon="-15.6838050">
        <ele>777.07500</ele>
        <time>2009-01-05T10:58:00Z</time>
      </trkpt>
      <trkpt lat="27.89642700" lon="-15.6838020">
        <ele>776.88100</ele>
        <time>2009-01-05T10:58:01Z</time>
      </trkpt>
      <trkpt lat="27.89645600" lon="-15.6838010">
        <ele>777.14600</ele>
        <time>2009-01-05T10:58:02Z</time>
      </trkpt>
      <trkpt lat="27.89648400" lon="-15.6838000">
        <ele>777.59900</ele>
        <time>2009-01-05T10:58:03Z</time>
      </trkpt>
      <trkpt lat="27.89651200" lon="-15.6838000">
        <ele>777.67100</ele>
        <time>2009-01-05T10:58:04Z</time>
      </trkpt>
      <trkpt lat="27.89653800" lon="-15.6837990">
        <ele>777.73600</ele>
        <time>2009-01-05T10:58:05Z</time>
      </trkpt>
      <trkpt lat="27.89656400" lon="-15.6837970">
        <ele>777.87500</ele>
        <time>2009-01-05T10:58:06Z</time>
      </trkpt>
      <trkpt lat="27.89658900" lon="-15.6837950">
        <ele>778.62200</ele>
        <time>2009-01-05T10:58:07Z</time>
      </trkpt>
      <trkpt lat="27.89661200" lon="-15.6837940">
        <ele>779.02800</ele>
        <time>2009-01-05T10:58:08Z</time>
      </trkpt>
      <trkpt lat="27.89663500" lon="-15.6837940">
        <ele>779.19800</ele>
        <time>2009-01-05T10:58:09Z</time>
      </trkpt>
      <trkpt lat="27.89665800" lon="-15.6837960">
        <ele>779.38700</ele>
        <time>2009-01-05T10:58:10Z</time>
      </trkpt>
      <trkpt lat="27.89668000" lon="-15.6837970">
        <ele>779.44900</ele>
        <time>2009-01-05T10:58:11Z</time>
      </trkpt>
      <trkpt lat="27.89670200" lon="-15.6837990">
        <ele>779.86800</ele>
        <time>2009-01-05T10:58:12Z</time>
      </trkpt>
      <trkpt lat="27.89672500" lon="-15.6838000">
        <ele>780.10700</ele>
        <time>2009-01-05T10:58:13Z</time>
      </trkpt>
      <trkpt lat="27.89674700" lon="-15.6838010">
        <ele>780.33800</ele>
        <time>2009-01-05T10:58:14Z</time>
      </trkpt>
      <trkpt lat="27.89676900" lon="-15.6838010">
        <ele>780.58800</ele>
        <time>2009-01-05T10:58:15Z</time>
      </trkpt>
      <trkpt lat="27.89678900" lon="-15.6838020">
        <ele>780.85600</ele>
        <time>2009-01-05T10:58:16Z</time>
      </trkpt>
      <trkpt lat="27.89681200" lon="-15.6838040">
        <ele>781.04700</ele>
        <time>2009-01-05T10:58:17Z</time>
      </trkpt>
      <trkpt lat="27.89683400" lon="-15.6838060">
        <ele>781.22500</ele>
        <time>2009-01-05T10:58:18Z</time>
      </trkpt>
      <trkpt lat="27.89685700" lon="-15.6838100">
        <ele>781.65200</ele>
        <time>2009-01-05T10:58:19Z</time>
      </trkpt>
      <trkpt lat="27.89687900" lon="-15.6838160">
        <ele>781.91700</ele>
        <time>2009-01-05T10:58:20Z</time>
      </trkpt>
      <trkpt lat="27.89690100" lon="-15.6838240">
        <ele>781.91000</ele>
        <time>2009-01-05T10:58:21Z</time>
      </trkpt>
      <trkpt lat="27.89692200" lon="-15.6838320">
        <ele>782.12300</ele>
        <time>2009-01-05T10:58:22Z</time>
      </trkpt>
      <trkpt lat="27.89694400" lon="-15.6838400">
        <ele>782.33200</ele>
        <time>2009-01-05T10:58:23Z</time>
      </trkpt>
      <trkpt lat="27.89696500" lon="-15.6838500">
        <ele>782.67100</ele>
        <time>2009-01-05T10:58:24Z</time>
      </trkpt>
      <trkpt lat="27.89698600" lon="-15.6838610">
        <ele>782.86000</ele>
        <time>2009-01-05T10:58:25Z</time>
      </trkpt>
      <trkpt lat="27.89700500" lon="-15.6838760">
        <ele>782.85000</ele>
        <time>2009-01-05T10:58:26Z</time>
      </trkpt>
      <trkpt lat="27.89702300" lon="-15.6838910">
        <ele>783.39500</ele>
        <time>2009-01-05T10:58:27Z</time>
      </trkpt>
      <trkpt lat="27.89704100" lon="-15.6839070">
        <ele>783.53500</ele>
        <time>2009-01-05T10:58:28Z</time>
      </trkpt>
      <trkpt lat="27.89705800" lon="-15.6839240">
        <ele>783.65700</ele>
        <time>2009-01-05T10:58:29Z</time>
      </trkpt>
      <trkpt lat="27.89707400" lon="-15.6839400">
        <ele>783.65000</ele>
        <time>2009-01-05T10:58:30Z</time>
      </trkpt>
      <trkpt lat="27.89709000" lon="-15.6839550">
        <ele>784.18400</ele>
        <time>2009-01-05T10:58:31Z</time>
      </trkpt>
      <trkpt lat="27.89710700" lon="-15.6839700">
        <ele>784.47300</ele>
        <time>2009-01-05T10:58:32Z</time>
      </trkpt>
      <trkpt lat="27.89712300" lon="-15.6839860">
        <ele>784.59400</ele>
        <time>2009-01-05T10:58:33Z</time>
      </trkpt>
      <trkpt lat="27.89713600" lon="-15.6840050">
        <ele>785.01000</ele>
        <time>2009-01-05T10:58:34Z</time>
      </trkpt>
      <trkpt lat="27.89714700" lon="-15.6840250">
        <ele>785.06800</ele>
        <time>2009-01-05T10:58:35Z</time>
      </trkpt>
      <trkpt lat="27.89715600" lon="-15.6840470">
        <ele>785.29800</ele>
        <time>2009-01-05T10:58:36Z</time>
      </trkpt>
      <trkpt lat="27.89716200" lon="-15.6840710">
        <ele>785.29600</ele>
        <time>2009-01-05T10:58:37Z</time>
      </trkpt>
      <trkpt lat="27.89716400" lon="-15.6840970">
        <ele>785.70300</ele>
        <time>2009-01-05T10:58:38Z</time>
      </trkpt>
      <trkpt lat="27.89716500" lon="-15.6841240">
        <ele>786.02600</ele>
        <time>2009-01-05T10:58:39Z</time>
      </trkpt>
      <trkpt lat="27.89716200" lon="-15.6841520">
        <ele>786.09000</ele>
        <time>2009-01-05T10:58:40Z</time>
      </trkpt>
      <trkpt lat="27.89715800" lon="-15.6841780">
        <ele>786.39900</ele>
        <time>2009-01-05T10:58:41Z</time>
      </trkpt>
      <trkpt lat="27.89715500" lon="-15.6842050">
        <ele>786.71400</ele>
        <time>2009-01-05T10:58:42Z</time>
      </trkpt>
      <trkpt lat="27.89715000" lon="-15.6842330">
        <ele>787.08900</ele>
        <time>2009-01-05T10:58:43Z</time>
      </trkpt>
      <trkpt lat="27.89714400" lon="-15.6842590">
        <ele>787.34100</ele>
        <time>2009-01-05T10:58:44Z</time>
      </trkpt>
      <trkpt lat="27.89713500" lon="-15.6842860">
        <ele>787.44900</ele>
        <time>2009-01-05T10:58:45Z</time>
      </trkpt>
      <trkpt lat="27.89712600" lon="-15.6843120">
        <ele>787.83500</ele>
        <time>2009-01-05T10:58:46Z</time>
      </trkpt>
      <trkpt lat="27.89712100" lon="-15.6843390">
        <ele>788.05700</ele>
        <time>2009-01-05T10:58:47Z</time>
      </trkpt>
      <trkpt lat="27.89711400" lon="-15.6843660">
        <ele>788.18400</ele>
        <time>2009-01-05T10:58:48Z</time>
      </trkpt>
      <trkpt lat="27.89710700" lon="-15.6843930">
        <ele>788.60200</ele>
        <time>2009-01-05T10:58:49Z</time>
      </trkpt>
      <trkpt lat="27.89710300" lon="-15.6844190">
        <ele>788.71700</ele>
        <time>2009-01-05T10:58:50Z</time>
      </trkpt>
      <trkpt lat="27.89709900" lon="-15.6844460">
        <ele>789.10600</ele>
        <time>2009-01-05T10:58:51Z</time>
      </trkpt>
      <trkpt lat="27.89709700" lon="-15.6844720">
        <ele>789.54000</ele>
        <time>2009-01-05T10:58:52Z</time>
      </trkpt>
      <trkpt lat="27.89709200" lon="-15.6844980">
        <ele>789.68900</ele>
        <time>2009-01-05T10:58:53Z</time>
      </trkpt>
      <trkpt lat="27.89708600" lon="-15.6845230">
        <ele>789.89300</ele>
        <time>2009-01-05T10:58:54Z</time>
      </trkpt>
      <trkpt lat="27.89707900" lon="-15.6845490">
        <ele>789.91500</ele>
        <time>2009-01-05T10:58:55Z</time>
      </trkpt>
      <trkpt lat="27.89707400" lon="-15.6845760">
        <ele>790.21700</ele>
        <time>2009-01-05T10:58:56Z</time>
      </trkpt>
      <trkpt lat="27.89707200" lon="-15.6846010">
        <ele>790.47200</ele>
        <time>2009-01-05T10:58:57Z</time>
      </trkpt>
      <trkpt lat="27.89707100" lon="-15.6846250">
        <ele>790.66300</ele>
        <time>2009-01-05T10:58:58Z</time>
      </trkpt>
      <trkpt lat="27.89707500" lon="-15.6846510">
        <ele>790.96800</ele>
        <time>2009-01-05T10:58:59Z</time>
      </trkpt>
      <trkpt lat="27.89708700" lon="-15.6846770">
        <ele>791.11200</ele>
        <time>2009-01-05T10:59:00Z</time>
      </trkpt>
      <trkpt lat="27.89710500" lon="-15.6846990">
        <ele>791.37200</ele>
        <time>2009-01-05T10:59:01Z</time>
      </trkpt>
      <trkpt lat="27.89712700" lon="-15.6847170">
        <ele>791.58500</ele>
        <time>2009-01-05T10:59:02Z</time>
      </trkpt>
      <trkpt lat="27.89715200" lon="-15.6847280">
        <ele>791.65000</ele>
        <time>2009-01-05T10:59:03Z</time>
      </trkpt>
      <trkpt lat="27.89717800" lon="-15.6847350">
        <ele>791.65600</ele>
        <time>2009-01-05T10:59:04Z</time>
      </trkpt>
      <trkpt lat="27.89720400" lon="-15.6847410">
        <ele>791.69900</ele>
        <time>2009-01-05T10:59:05Z</time>
      </trkpt>
      <trkpt lat="27.89723000" lon="-15.6847450">
        <ele>792.02900</ele>
        <time>2009-01-05T10:59:06Z</time>
      </trkpt>
      <trkpt lat="27.89725600" lon="-15.6847480">
        <ele>792.27000</ele>
        <time>2009-01-05T10:59:07Z</time>
      </trkpt>
      <trkpt lat="27.89728100" lon="-15.6847520">
        <ele>792.44300</ele>
        <time>2009-01-05T10:59:08Z</time>
      </trkpt>
      <trkpt lat="27.89730500" lon="-15.6847580">
        <ele>792.35700</ele>
        <time>2009-01-05T10:59:09Z</time>
      </trkpt>
      <trkpt lat="27.89732800" lon="-15.6847650">
        <ele>792.53500</ele>
        <time>2009-01-05T10:59:10Z</time>
      </trkpt>
      <trkpt lat="27.89735200" lon="-15.6847750">
        <ele>792.92000</ele>
        <time>2009-01-05T10:59:11Z</time>
      </trkpt>
      <trkpt lat="27.89737700" lon="-15.6847870">
        <ele>793.39100</ele>
        <time>2009-01-05T10:59:12Z</time>
      </trkpt>
      <trkpt lat="27.89740100" lon="-15.6848000">
        <ele>793.45900</ele>
        <time>2009-01-05T10:59:13Z</time>
      </trkpt>
      <trkpt lat="27.89742400" lon="-15.6848150">
        <ele>793.76600</ele>
        <time>2009-01-05T10:59:14Z</time>
      </trkpt>
      <trkpt lat="27.89744600" lon="-15.6848320">
        <ele>793.78600</ele>
        <time>2009-01-05T10:59:15Z</time>
      </trkpt>
      <trkpt lat="27.89746600" lon="-15.6848470">
        <ele>794.04800</ele>
        <time>2009-01-05T10:59:16Z</time>
      </trkpt>
      <trkpt lat="27.89748600" lon="-15.6848630">
        <ele>794.25500</ele>
        <time>2009-01-05T10:59:17Z</time>
      </trkpt>
      <trkpt lat="27.89750700" lon="-15.6848770">
        <ele>794.62800</ele>
        <time>2009-01-05T10:59:18Z</time>
      </trkpt>
      <trkpt lat="27.89752800" lon="-15.6848910">
        <ele>794.66800</ele>
        <time>2009-01-05T10:59:19Z</time>
      </trkpt>
      <trkpt lat="27.89755000" lon="-15.6849040">
        <ele>794.94600</ele>
        <time>2009-01-05T10:59:20Z</time>
      </trkpt>
      <trkpt lat="27.89757300" lon="-15.6849160">
        <ele>795.33500</ele>
        <time>2009-01-05T10:59:21Z</time>
      </trkpt>
      <trkpt lat="27.89759700" lon="-15.6849270">
        <ele>795.40900</ele>
        <time>2009-01-05T10:59:22Z</time>
      </trkpt>
      <trkpt lat="27.89761900" lon="-15.6849380">
        <ele>795.91100</ele>
        <time>2009-01-05T10:59:23Z</time>
      </trkpt>
      <trkpt lat="27.89764100" lon="-15.6849460">
        <ele>796.09900</ele>
        <time>2009-01-05T10:59:24Z</time>
      </trkpt>
      <trkpt lat="27.89766200" lon="-15.6849510">
        <ele>796.04100</ele>
        <time>2009-01-05T10:59:25Z</time>
      </trkpt>
      <trkpt lat="27.89768300" lon="-15.6849560">
        <ele>796.30000</ele>
        <time>2009-01-05T10:59:26Z</time>
      </trkpt>
      <trkpt lat="27.89770400" lon="-15.6849590">
        <ele>796.49300</ele>
        <time>2009-01-05T10:59:27Z</time>
      </trkpt>
      <trkpt lat="27.89772500" lon="-15.6849630">
        <ele>797.10600</ele>
        <time>2009-01-05T10:59:28Z</time>
      </trkpt>
      <trkpt lat="27.89774800" lon="-15.6849680">
        <ele>797.06300</ele>
        <time>2009-01-05T10:59:29Z</time>
      </trkpt>
      <trkpt lat="27.89777100" lon="-15.6849750">
        <ele>797.45700</ele>
        <time>2009-01-05T10:59:30Z</time>
      </trkpt>
      <trkpt lat="27.89779500" lon="-15.6849810">
        <ele>797.92400</ele>
        <time>2009-01-05T10:59:31Z</time>
      </trkpt>
      <trkpt lat="27.89781900" lon="-15.6849840">
        <ele>798.25700</ele>
        <time>2009-01-05T10:59:32Z</time>
      </trkpt>
      <trkpt lat="27.89784200" lon="-15.6849880">
        <ele>798.25900</ele>
        <time>2009-01-05T10:59:33Z</time>
      </trkpt>
      <trkpt lat="27.89786600" lon="-15.6849930">
        <ele>798.67100</ele>
        <time>2009-01-05T10:59:34Z</time>
      </trkpt>
      <trkpt lat="27.89788800" lon="-15.6849980">
        <ele>799.02400</ele>
        <time>2009-01-05T10:59:35Z</time>
      </trkpt>
      <trkpt lat="27.89791200" lon="-15.6850010">
        <ele>799.21900</ele>
        <time>2009-01-05T10:59:36Z</time>
      </trkpt>
      <trkpt lat="27.89793400" lon="-15.6850030">
        <ele>799.40600</ele>
        <time>2009-01-05T10:59:37Z</time>
      </trkpt>
      <trkpt lat="27.89795600" lon="-15.6850060">
        <ele>799.75900</ele>
        <time>2009-01-05T10:59:38Z</time>
      </trkpt>
      <trkpt lat="27.89798000" lon="-15.6850090">
        <ele>800.00700</ele>
        <time>2009-01-05T10:59:39Z</time>
      </trkpt>
      <trkpt lat="27.89800300" lon="-15.6850120">
        <ele>800.24200</ele>
        <time>2009-01-05T10:59:40Z</time>
      </trkpt>
      <trkpt lat="27.89802400" lon="-15.6850140">
        <ele>800.28800</ele>
        <time>2009-01-05T10:59:41Z</time>
      </trkpt>
      <trkpt lat="27.89804400" lon="-15.6850160">
        <ele>800.62800</ele>
        <time>2009-01-05T10:59:42Z</time>
      </trkpt>
      <trkpt lat="27.89806400" lon="-15.6850190">
        <ele>800.69600</ele>
        <time>2009-01-05T10:59:43Z</time>
      </trkpt>
      <trkpt lat="27.89808500" lon="-15.6850240">
        <ele>801.06200</ele>
        <time>2009-01-05T10:59:44Z</time>
      </trkpt>
      <trkpt lat="27.89810700" lon="-15.6850300">
        <ele>801.17000</ele>
        <time>2009-01-05T10:59:45Z</time>
      </trkpt>
      <trkpt lat="27.89812700" lon="-15.6850390">
        <ele>801.79500</ele>
        <time>2009-01-05T10:59:46Z</time>
      </trkpt>
      <trkpt lat="27.89814800" lon="-15.6850480">
        <ele>801.87600</ele>
        <time>2009-01-05T10:59:47Z</time>
      </trkpt>
      <trkpt lat="27.89816800" lon="-15.6850570">
        <ele>802.05500</ele>
        <time>2009-01-05T10:59:48Z</time>
      </trkpt>
      <trkpt lat="27.89818700" lon="-15.6850640">
        <ele>802.37100</ele>
        <time>2009-01-05T10:59:49Z</time>
      </trkpt>
      <trkpt lat="27.89820500" lon="-15.6850700">
        <ele>802.60300</ele>
        <time>2009-01-05T10:59:50Z</time>
      </trkpt>
      <trkpt lat="27.89822200" lon="-15.6850770">
        <ele>802.79200</ele>
        <time>2009-01-05T10:59:51Z</time>
      </trkpt>
      <trkpt lat="27.89824100" lon="-15.6850860">
        <ele>803.19200</ele>
        <time>2009-01-05T10:59:52Z</time>
      </trkpt>
      <trkpt lat="27.89826200" lon="-15.6850960">
        <ele>803.27600</ele>
        <time>2009-01-05T10:59:53Z</time>
      </trkpt>
      <trkpt lat="27.89828500" lon="-15.6851060">
        <ele>803.49700</ele>
        <time>2009-01-05T10:59:54Z</time>
      </trkpt>
      <trkpt lat="27.89830700" lon="-15.6851180">
        <ele>803.84200</ele>
        <time>2009-01-05T10:59:55Z</time>
      </trkpt>
      <trkpt lat="27.89832700" lon="-15.6851300">
        <ele>803.90200</ele>
        <time>2009-01-05T10:59:56Z</time>
      </trkpt>
      <trkpt lat="27.89834700" lon="-15.6851420">
        <ele>804.06000</ele>
        <time>2009-01-05T10:59:57Z</time>
      </trkpt>
      <trkpt lat="27.89836800" lon="-15.6851510">
        <ele>804.18300</ele>
        <time>2009-01-05T10:59:58Z</time>
      </trkpt>
      <trkpt lat="27.89839000" lon="-15.6851600">
        <ele>804.51500</ele>
        <time>2009-01-05T10:59:59Z</time>
      </trkpt>
      <trkpt lat="27.89841200" lon="-15.6851680">
        <ele>804.84200</ele>
        <time>2009-01-05T11:00:00Z</time>
      </trkpt>
      <trkpt lat="27.89843500" lon="-15.6851760">
        <ele>805.05500</ele>
        <time>2009-01-05T11:00:01Z</time>
      </trkpt>
      <trkpt lat="27.89845700" lon="-15.6851850">
        <ele>805.47900</ele>
        <time>2009-01-05T11:00:02Z</time>
      </trkpt>
      <trkpt lat="27.89847900" lon="-15.6851950">
        <ele>805.39900</ele>
        <time>2009-01-05T11:00:03Z</time>
      </trkpt>
      <trkpt lat="27.89850100" lon="-15.6852060">
        <ele>805.68600</ele>
        <time>2009-01-05T11:00:04Z</time>
      </trkpt>
      <trkpt lat="27.89852100" lon="-15.6852170">
        <ele>805.77000</ele>
        <time>2009-01-05T11:00:05Z</time>
      </trkpt>
      <trkpt lat="27.89854100" lon="-15.6852280">
        <ele>806.05200</ele>
        <time>2009-01-05T11:00:06Z</time>
      </trkpt>
      <trkpt lat="27.89856100" lon="-15.6852380">
        <ele>806.46600</ele>
        <time>2009-01-05T11:00:07Z</time>
      </trkpt>
      <trkpt lat="27.89858100" lon="-15.6852490">
        <ele>806.59500</ele>
        <time>2009-01-05T11:00:08Z</time>
      </trkpt>
      <trkpt lat="27.89860100" lon="-15.6852590">
        <ele>807.11500</ele>
        <time>2009-01-05T11:00:09Z</time>
      </trkpt>
      <trkpt lat="27.89862100" lon="-15.6852700">
        <ele>807.21700</ele>
        <time>2009-01-05T11:00:10Z</time>
      </trkpt>
      <trkpt lat="27.89863900" lon="-15.6852810">
        <ele>807.66100</ele>
        <time>2009-01-05T11:00:11Z</time>
      </trkpt>
      <trkpt lat="27.89865700" lon="-15.6852930">
        <ele>807.83200</ele>
        <time>2009-01-05T11:00:12Z</time>
      </trkpt>
      <trkpt lat="27.89867500" lon="-15.6853040">
        <ele>808.00000</ele>
        <time>2009-01-05T11:00:13Z</time>
      </trkpt>
      <trkpt lat="27.89869300" lon="-15.6853160">
        <ele>808.10500</ele>
        <time>2009-01-05T11:00:14Z</time>
      </trkpt>
      <trkpt lat="27.89871100" lon="-15.6853270">
        <ele>808.68900</ele>
        <time>2009-01-05T11:00:15Z</time>
      </trkpt>
      <trkpt lat="27.89872800" lon="-15.6853370">
        <ele>808.95800</ele>
        <time>2009-01-05T11:00:16Z</time>
      </trkpt>
      <trkpt lat="27.89874500" lon="-15.6853490">
        <ele>809.14200</ele>
        <time>2009-01-05T11:00:17Z</time>
      </trkpt>
      <trkpt lat="27.89875900" lon="-15.6853640">
        <ele>809.32900</ele>
        <time>2009-01-05T11:00:18Z</time>
      </trkpt>
      <trkpt lat="27.89877000" lon="-15.6853820">
        <ele>809.74400</ele>
        <time>2009-01-05T11:00:19Z</time>
      </trkpt>
      <trkpt lat="27.89878000" lon="-15.6854030">
        <ele>809.75400</ele>
        <time>2009-01-05T11:00:20Z</time>
      </trkpt>
      <trkpt lat="27.89878100" lon="-15.6854250">
        <ele>810.51700</ele>
        <time>2009-01-05T11:00:21Z</time>
      </trkpt>
      <trkpt lat="27.89877400" lon="-15.6854460">
        <ele>810.82800</ele>
        <time>2009-01-05T11:00:22Z</time>
      </trkpt>
      <trkpt lat="27.89876100" lon="-15.6854590">
        <ele>811.07600</ele>
        <time>2009-01-05T11:00:23Z</time>
      </trkpt>
      <trkpt lat="27.89874100" lon="-15.6854640">
        <ele>811.31100</ele>
        <time>2009-01-05T11:00:24Z</time>
      </trkpt>
      <trkpt lat="27.89871700" lon="-15.6854650">
        <ele>811.80200</ele>
        <time>2009-01-05T11:00:25Z</time>
      </trkpt>
      <trkpt lat="27.89869200" lon="-15.6854650">
        <ele>811.99400</ele>
        <time>2009-01-05T11:00:26Z</time>
      </trkpt>
      <trkpt lat="27.89866800" lon="-15.6854650">
        <ele>812.26100</ele>
        <time>2009-01-05T11:00:27Z</time>
      </trkpt>
      <trkpt lat="27.89864400" lon="-15.6854650">
        <ele>812.35300</ele>
        <time>2009-01-05T11:00:28Z</time>
      </trkpt>
      <trkpt lat="27.89862000" lon="-15.6854640">
        <ele>812.55900</ele>
        <time>2009-01-05T11:00:29Z</time>
      </trkpt>
      <trkpt lat="27.89859700" lon="-15.6854670">
        <ele>812.53700</ele>
        <time>2009-01-05T11:00:30Z</time>
      </trkpt>
      <trkpt lat="27.89857500" lon="-15.6854690">
        <ele>812.95200</ele>
        <time>2009-01-05T11:00:31Z</time>
      </trkpt>
      <trkpt lat="27.89855200" lon="-15.6854670">
        <ele>813.24000</ele>
        <time>2009-01-05T11:00:32Z</time>
      </trkpt>
      <trkpt lat="27.89853000" lon="-15.6854650">
        <ele>813.19000</ele>
        <time>2009-01-05T11:00:33Z</time>
      </trkpt>
      <trkpt lat="27.89850600" lon="-15.6854640">
        <ele>813.24000</ele>
        <time>2009-01-05T11:00:34Z</time>
      </trkpt>
      <trkpt lat="27.89848300" lon="-15.6854610">
        <ele>813.64400</ele>
        <time>2009-01-05T11:00:35Z</time>
      </trkpt>
      <trkpt lat="27.89845800" lon="-15.6854600">
        <ele>813.77700</ele>
        <time>2009-01-05T11:00:36Z</time>
      </trkpt>
      <trkpt lat="27.89843500" lon="-15.6854580">
        <ele>814.13600</ele>
        <time>2009-01-05T11:00:37Z</time>
      </trkpt>
      <trkpt lat="27.89841000" lon="-15.6854570">
        <ele>814.11500</ele>
        <time>2009-01-05T11:00:38Z</time>
      </trkpt>
      <trkpt lat="27.89838600" lon="-15.6854560">
        <ele>814.53500</ele>
        <time>2009-01-05T11:00:39Z</time>
      </trkpt>
      <trkpt lat="27.89836300" lon="-15.6854540">
        <ele>814.60600</ele>
        <time>2009-01-05T11:00:40Z</time>
      </trkpt>
      <trkpt lat="27.89834000" lon="-15.6854520">
        <ele>814.48500</ele>
        <time>2009-01-05T11:00:41Z</time>
      </trkpt>
      <trkpt lat="27.89831700" lon="-15.6854500">
        <ele>814.99200</ele>
        <time>2009-01-05T11:00:42Z</time>
      </trkpt>
      <trkpt lat="27.89829500" lon="-15.6854500">
        <ele>815.01100</ele>
        <time>2009-01-05T11:00:43Z</time>
      </trkpt>
      <trkpt lat="27.89827300" lon="-15.6854510">
        <ele>815.20100</ele>
        <time>2009-01-05T11:00:44Z</time>
      </trkpt>
      <trkpt lat="27.89825200" lon="-15.6854510">
        <ele>815.62300</ele>
        <time>2009-01-05T11:00:45Z</time>
      </trkpt>
      <trkpt lat="27.89823200" lon="-15.6854500">
        <ele>815.95100</ele>
        <time>2009-01-05T11:00:46Z</time>
      </trkpt>
      <trkpt lat="27.89821100" lon="-15.6854500">
        <ele>816.10100</ele>
        <time>2009-01-05T11:00:47Z</time>
      </trkpt>
      <trkpt lat="27.89819000" lon="-15.6854500">
        <ele>816.07700</ele>
        <time>2009-01-05T11:00:48Z</time>
      </trkpt>
      <trkpt lat="27.89816900" lon="-15.6854540">
        <ele>816.57700</ele>
        <time>2009-01-05T11:00:49Z</time>
      </trkpt>
      <trkpt lat="27.89815000" lon="-15.6854620">
        <ele>816.79600</ele>
        <time>2009-01-05T11:00:50Z</time>
      </trkpt>
      <trkpt lat="27.89813200" lon="-15.6854730">
        <ele>816.96200</ele>
        <time>2009-01-05T11:00:51Z</time>
      </trkpt>
      <trkpt lat="27.89811400" lon="-15.6854850">
        <ele>817.09900</ele>
        <time>2009-01-05T11:00:52Z</time>
      </trkpt>
      <trkpt lat="27.89809600" lon="-15.6854970">
        <ele>817.18400</ele>
        <time>2009-01-05T11:00:53Z</time>
      </trkpt>
      <trkpt lat="27.89807800" lon="-15.6855060">
        <ele>817.58800</ele>
        <time>2009-01-05T11:00:54Z</time>
      </trkpt>
      <trkpt lat="27.89805900" lon="-15.6855140">
        <ele>817.70700</ele>
        <time>2009-01-05T11:00:55Z</time>
      </trkpt>
      <trkpt lat="27.89804100" lon="-15.6855220">
        <ele>818.00200</ele>
        <time>2009-01-05T11:00:56Z</time>
      </trkpt>
      <trkpt lat="27.89802300" lon="-15.6855300">
        <ele>818.06500</ele>
        <time>2009-01-05T11:00:57Z</time>
      </trkpt>
      <trkpt lat="27.89800600" lon="-15.6855380">
        <ele>818.16800</ele>
        <time>2009-01-05T11:00:58Z</time>
      </trkpt>
      <trkpt lat="27.89798900" lon="-15.6855440">
        <ele>818.50600</ele>
        <time>2009-01-05T11:00:59Z</time>
      </trkpt>
      <trkpt lat="27.89797400" lon="-15.6855500">
        <ele>818.80400</ele>
        <time>2009-01-05T11:01:00Z</time>
      </trkpt>
      <trkpt lat="27.89795800" lon="-15.6855580">
        <ele>819.02600</ele>
        <time>2009-01-05T11:01:01Z</time>
      </trkpt>
      <trkpt lat="27.89794300" lon="-15.6855680">
        <ele>819.30800</ele>
        <time>2009-01-05T11:01:02Z</time>
      </trkpt>
      <trkpt lat="27.89793500" lon="-15.6855830">
        <ele>819.57000</ele>
        <time>2009-01-05T11:01:03Z</time>
      </trkpt>
      <trkpt lat="27.89793400" lon="-15.6856020">
        <ele>819.60700</ele>
        <time>2009-01-05T11:01:04Z</time>
      </trkpt>
      <trkpt lat="27.89794400" lon="-15.6856200">
        <ele>819.94800</ele>
        <time>2009-01-05T11:01:05Z</time>
      </trkpt>
      <trkpt lat="27.89795500" lon="-15.6856340">
        <ele>820.62700</ele>
        <time>2009-01-05T11:01:06Z</time>
      </trkpt>
      <trkpt lat="27.89797000" lon="-15.6856380">
        <ele>820.89700</ele>
        <time>2009-01-05T11:01:07Z</time>
      </trkpt>
      <trkpt lat="27.89798600" lon="-15.6856380">
        <ele>821.00300</ele>
        <time>2009-01-05T11:01:08Z</time>
      </trkpt>
      <trkpt lat="27.89800500" lon="-15.6856340">
        <ele>821.73000</ele>
        <time>2009-01-05T11:01:09Z</time>
      </trkpt>
      <trkpt lat="27.89802400" lon="-15.6856300">
        <ele>821.78600</ele>
        <time>2009-01-05T11:01:10Z</time>
      </trkpt>
      <trkpt lat="27.89804300" lon="-15.6856250">
        <ele>822.18100</ele>
        <time>2009-01-05T11:01:11Z</time>
      </trkpt>
      <trkpt lat="27.89806400" lon="-15.6856210">
        <ele>822.14700</ele>
        <time>2009-01-05T11:01:12Z</time>
      </trkpt>
      <trkpt lat="27.89808500" lon="-15.6856180">
        <ele>822.45700</ele>
        <time>2009-01-05T11:01:13Z</time>
      </trkpt>
      <trkpt lat="27.89810700" lon="-15.6856180">
        <ele>823.00300</ele>
        <time>2009-01-05T11:01:14Z</time>
      </trkpt>
      <trkpt lat="27.89813000" lon="-15.6856220">
        <ele>823.08000</ele>
        <time>2009-01-05T11:01:15Z</time>
      </trkpt>
      <trkpt lat="27.89815300" lon="-15.6856270">
        <ele>823.32700</ele>
        <time>2009-01-05T11:01:16Z</time>
      </trkpt>
      <trkpt lat="27.89817400" lon="-15.6856320">
        <ele>823.38400</ele>
        <time>2009-01-05T11:01:17Z</time>
      </trkpt>
      <trkpt lat="27.89819500" lon="-15.6856390">
        <ele>823.72300</ele>
        <time>2009-01-05T11:01:18Z</time>
      </trkpt>
      <trkpt lat="27.89821700" lon="-15.6856450">
        <ele>824.03900</ele>
        <time>2009-01-05T11:01:19Z</time>
      </trkpt>
      <trkpt lat="27.89823900" lon="-15.6856500">
        <ele>823.93900</ele>
        <time>2009-01-05T11:01:20Z</time>
      </trkpt>
      <trkpt lat="27.89826100" lon="-15.6856540">
        <ele>824.31300</ele>
        <time>2009-01-05T11:01:21Z</time>
      </trkpt>
      <trkpt lat="27.89828500" lon="-15.6856580">
        <ele>824.30900</ele>
        <time>2009-01-05T11:01:22Z</time>
      </trkpt>
      <trkpt lat="27.89830800" lon="-15.6856620">
        <ele>824.52100</ele>
        <time>2009-01-05T11:01:23Z</time>
      </trkpt>
      <trkpt lat="27.89833200" lon="-15.6856680">
        <ele>824.94000</ele>
        <time>2009-01-05T11:01:24Z</time>
      </trkpt>
      <trkpt lat="27.89835600" lon="-15.6856760">
        <ele>825.19400</ele>
        <time>2009-01-05T11:01:25Z</time>
      </trkpt>
      <trkpt lat="27.89837700" lon="-15.6856850">
        <ele>825.27200</ele>
        <time>2009-01-05T11:01:26Z</time>
      </trkpt>
      <trkpt lat="27.89839700" lon="-15.6856940">
        <ele>825.48700</ele>
        <time>2009-01-05T11:01:27Z</time>
      </trkpt>
      <trkpt lat="27.89841700" lon="-15.6857040">
        <ele>825.36100</ele>
        <time>2009-01-05T11:01:28Z</time>
      </trkpt>
      <trkpt lat="27.89843700" lon="-15.6857150">
        <ele>825.82700</ele>
        <time>2009-01-05T11:01:29Z</time>
      </trkpt>
      <trkpt lat="27.89845800" lon="-15.6857280">
        <ele>826.20300</ele>
        <time>2009-01-05T11:01:30Z</time>
      </trkpt>
      <trkpt lat="27.89847900" lon="-15.6857400">
        <ele>826.18900</ele>
        <time>2009-01-05T11:01:31Z</time>
      </trkpt>
      <trkpt lat="27.89849900" lon="-15.6857530">
        <ele>826.48500</ele>
        <time>2009-01-05T11:01:32Z</time>
      </trkpt>
      <trkpt lat="27.89851900" lon="-15.6857650">
        <ele>826.34100</ele>
        <time>2009-01-05T11:01:33Z</time>
      </trkpt>
      <trkpt lat="27.89853900" lon="-15.6857780">
        <ele>826.83300</ele>
        <time>2009-01-05T11:01:34Z</time>
      </trkpt>
      <trkpt lat="27.89855800" lon="-15.6857910">
        <ele>827.05600</ele>
        <time>2009-01-05T11:01:35Z</time>
      </trkpt>
      <trkpt lat="27.89857600" lon="-15.6858050">
        <ele>827.15500</ele>
        <time>2009-01-05T11:01:36Z</time>
      </trkpt>
      <trkpt lat="27.89859400" lon="-15.6858180">
        <ele>827.41900</ele>
        <time>2009-01-05T11:01:37Z</time>
      </trkpt>
      <trkpt lat="27.89861100" lon="-15.6858310">
        <ele>827.61300</ele>
        <time>2009-01-05T11:01:38Z</time>
      </trkpt>
      <trkpt lat="27.89862900" lon="-15.6858430">
        <ele>827.76900</ele>
        <time>2009-01-05T11:01:39Z</time>
      </trkpt>
      <trkpt lat="27.89864600" lon="-15.6858550">
        <ele>828.12900</ele>
        <time>2009-01-05T11:01:40Z</time>
      </trkpt>
      <trkpt lat="27.89866300" lon="-15.6858670">
        <ele>828.02400</ele>
        <time>2009-01-05T11:01:41Z</time>
      </trkpt>
      <trkpt lat="27.89867900" lon="-15.6858790">
        <ele>828.48200</ele>
        <time>2009-01-05T11:01:42Z</time>
      </trkpt>
      <trkpt lat="27.89869400" lon="-15.6858930">
        <ele>828.44000</ele>
        <time>2009-01-05T11:01:43Z</time>
      </trkpt>
      <trkpt lat="27.89870600" lon="-15.6859100">
        <ele>828.89700</ele>
        <time>2009-01-05T11:01:44Z</time>
      </trkpt>
      <trkpt lat="27.89871900" lon="-15.6859300">
        <ele>829.25200</ele>
        <time>2009-01-05T11:01:45Z</time>
      </trkpt>
      <trkpt lat="27.89872800" lon="-15.6859510">
        <ele>829.22300</ele>
        <time>2009-01-05T11:01:46Z</time>
      </trkpt>
      <trkpt lat="27.89873100" lon="-15.6859740">
        <ele>829.46900</ele>
        <time>2009-01-05T11:01:47Z</time>
      </trkpt>
      <trkpt lat="27.89872400" lon="-15.6859950">
        <ele>829.77600</ele>
        <time>2009-01-05T11:01:48Z</time>
      </trkpt>
      <trkpt lat="27.89870900" lon="-15.6860100">
        <ele>830.16000</ele>
        <time>2009-01-05T11:01:49Z</time>
      </trkpt>
      <trkpt lat="27.89868900" lon="-15.6860180">
        <ele>830.68900</ele>
        <time>2009-01-05T11:01:50Z</time>
      </trkpt>
      <trkpt lat="27.89866800" lon="-15.6860160">
        <ele>830.81900</ele>
        <time>2009-01-05T11:01:51Z</time>
      </trkpt>
      <trkpt lat="27.89864800" lon="-15.6860060">
        <ele>830.94300</ele>
        <time>2009-01-05T11:01:52Z</time>
      </trkpt>
      <trkpt lat="27.89863400" lon="-15.6859890">
        <ele>831.59900</ele>
        <time>2009-01-05T11:01:53Z</time>
      </trkpt>
      <trkpt lat="27.89861900" lon="-15.6859720">
        <ele>831.87400</ele>
        <time>2009-01-05T11:01:54Z</time>
      </trkpt>
      <trkpt lat="27.89860300" lon="-15.6859570">
        <ele>832.15400</ele>
        <time>2009-01-05T11:01:55Z</time>
      </trkpt>
      <trkpt lat="27.89858600" lon="-15.6859430">
        <ele>832.08000</ele>
        <time>2009-01-05T11:01:56Z</time>
      </trkpt>
      <trkpt lat="27.89856700" lon="-15.6859320">
        <ele>832.36800</ele>
        <time>2009-01-05T11:01:57Z</time>
      </trkpt>
      <trkpt lat="27.89854600" lon="-15.6859240">
        <ele>832.72300</ele>
        <time>2009-01-05T11:01:58Z</time>
      </trkpt>
      <trkpt lat="27.89852600" lon="-15.6859160">
        <ele>833.05000</ele>
        <time>2009-01-05T11:01:59Z</time>
      </trkpt>
      <trkpt lat="27.89850500" lon="-15.6859090">
        <ele>833.43100</ele>
        <time>2009-01-05T11:02:00Z</time>
      </trkpt>
      <trkpt lat="27.89848500" lon="-15.6859020">
        <ele>833.52600</ele>
        <time>2009-01-05T11:02:01Z</time>
      </trkpt>
      <trkpt lat="27.89846400" lon="-15.6858950">
        <ele>833.72400</ele>
        <time>2009-01-05T11:02:02Z</time>
      </trkpt>
      <trkpt lat="27.89844000" lon="-15.6858910">
        <ele>833.91200</ele>
        <time>2009-01-05T11:02:03Z</time>
      </trkpt>
      <trkpt lat="27.89841700" lon="-15.6858890">
        <ele>834.33200</ele>
        <time>2009-01-05T11:02:04Z</time>
      </trkpt>
      <trkpt lat="27.89839300" lon="-15.6858890">
        <ele>834.25500</ele>
        <time>2009-01-05T11:02:05Z</time>
      </trkpt>
      <trkpt lat="27.89837000" lon="-15.6858910">
        <ele>834.41300</ele>
        <time>2009-01-05T11:02:06Z</time>
      </trkpt>
      <trkpt lat="27.89834800" lon="-15.6858930">
        <ele>834.69300</ele>
        <time>2009-01-05T11:02:07Z</time>
      </trkpt>
      <trkpt lat="27.89832600" lon="-15.6858950">
        <ele>834.91200</ele>
        <time>2009-01-05T11:02:08Z</time>
      </trkpt>
      <trkpt lat="27.89830600" lon="-15.6858990">
        <ele>835.14600</ele>
        <time>2009-01-05T11:02:09Z</time>
      </trkpt>
      <trkpt lat="27.89828600" lon="-15.6859050">
        <ele>835.08800</ele>
        <time>2009-01-05T11:02:10Z</time>
      </trkpt>
      <trkpt lat="27.89826700" lon="-15.6859130">
        <ele>835.24000</ele>
        <time>2009-01-05T11:02:11Z</time>
      </trkpt>
      <trkpt lat="27.89825000" lon="-15.6859230">
        <ele>835.49300</ele>
        <time>2009-01-05T11:02:12Z</time>
      </trkpt>
      <trkpt lat="27.89823300" lon="-15.6859320">
        <ele>836.01800</ele>
        <time>2009-01-05T11:02:13Z</time>
      </trkpt>
      <trkpt lat="27.89821600" lon="-15.6859380">
        <ele>836.21000</ele>
        <time>2009-01-05T11:02:14Z</time>
      </trkpt>
      <trkpt lat="27.89819900" lon="-15.6859420">
        <ele>836.56300</ele>
        <time>2009-01-05T11:02:15Z</time>
      </trkpt>
      <trkpt lat="27.89818400" lon="-15.6859470">
        <ele>836.79000</ele>
        <time>2009-01-05T11:02:16Z</time>
      </trkpt>
      <trkpt lat="27.89816900" lon="-15.6859540">
        <ele>837.15400</ele>
        <time>2009-01-05T11:02:17Z</time>
      </trkpt>
      <trkpt lat="27.89815400" lon="-15.6859610">
        <ele>837.31700</ele>
        <time>2009-01-05T11:02:18Z</time>
      </trkpt>
      <trkpt lat="27.89814100" lon="-15.6859690">
        <ele>837.66200</ele>
        <time>2009-01-05T11:02:19Z</time>
      </trkpt>
      <trkpt lat="27.89812500" lon="-15.6859760">
        <ele>837.86500</ele>
        <time>2009-01-05T11:02:20Z</time>
      </trkpt>
      <trkpt lat="27.89811100" lon="-15.6859840">
        <ele>838.02000</ele>
        <time>2009-01-05T11:02:21Z</time>
      </trkpt>
      <trkpt lat="27.89809800" lon="-15.6859930">
        <ele>838.38600</ele>
        <time>2009-01-05T11:02:22Z</time>
      </trkpt>
      <trkpt lat="27.89808400" lon="-15.6860050">
        <ele>838.87400</ele>
        <time>2009-01-05T11:02:23Z</time>
      </trkpt>
      <trkpt lat="27.89807700" lon="-15.6860200">
        <ele>839.11400</ele>
        <time>2009-01-05T11:02:24Z</time>
      </trkpt>
      <trkpt lat="27.89807700" lon="-15.6860350">
        <ele>839.42200</ele>
        <time>2009-01-05T11:02:25Z</time>
      </trkpt>
      <trkpt lat="27.89808500" lon="-15.6860490">
        <ele>839.50000</ele>
        <time>2009-01-05T11:02:26Z</time>
      </trkpt>
      <trkpt lat="27.89809600" lon="-15.6860620">
        <ele>839.95100</ele>
        <time>2009-01-05T11:02:27Z</time>
      </trkpt>
      <trkpt lat="27.89811100" lon="-15.6860720">
        <ele>840.04000</ele>
        <time>2009-01-05T11:02:28Z</time>
      </trkpt>
      <trkpt lat="27.89812600" lon="-15.6860780">
        <ele>840.51000</ele>
        <time>2009-01-05T11:02:29Z</time>
      </trkpt>
      <trkpt lat="27.89814200" lon="-15.6860820">
        <ele>840.70300</ele>
        <time>2009-01-05T11:02:30Z</time>
      </trkpt>
      <trkpt lat="27.89816000" lon="-15.6860810">
        <ele>840.90000</ele>
        <time>2009-01-05T11:02:31Z</time>
      </trkpt>
      <trkpt lat="27.89817800" lon="-15.6860790">
        <ele>841.11400</ele>
        <time>2009-01-05T11:02:32Z</time>
      </trkpt>
      <trkpt lat="27.89819500" lon="-15.6860760">
        <ele>841.35700</ele>
        <time>2009-01-05T11:02:33Z</time>
      </trkpt>
      <trkpt lat="27.89821200" lon="-15.6860740">
        <ele>841.62800</ele>
        <time>2009-01-05T11:02:34Z</time>
      </trkpt>
      <trkpt lat="27.89822900" lon="-15.6860730">
        <ele>841.85000</ele>
        <time>2009-01-05T11:02:35Z</time>
      </trkpt>
      <trkpt lat="27.89824500" lon="-15.6860710">
        <ele>842.00900</ele>
        <time>2009-01-05T11:02:36Z</time>
      </trkpt>
      <trkpt lat="27.89826300" lon="-15.6860700">
        <ele>842.34900</ele>
        <time>2009-01-05T11:02:37Z</time>
      </trkpt>
      <trkpt lat="27.89828000" lon="-15.6860700">
        <ele>842.59500</ele>
        <time>2009-01-05T11:02:38Z</time>
      </trkpt>
      <trkpt lat="27.89829700" lon="-15.6860700">
        <ele>842.84100</ele>
        <time>2009-01-05T11:02:39Z</time>
      </trkpt>
      <trkpt lat="27.89831500" lon="-15.6860690">
        <ele>843.14700</ele>
        <time>2009-01-05T11:02:40Z</time>
      </trkpt>
      <trkpt lat="27.89833200" lon="-15.6860680">
        <ele>843.51000</ele>
        <time>2009-01-05T11:02:41Z</time>
      </trkpt>
      <trkpt lat="27.89835000" lon="-15.6860670">
        <ele>843.66000</ele>
        <time>2009-01-05T11:02:42Z</time>
      </trkpt>
      <trkpt lat="27.89836700" lon="-15.6860680">
        <ele>844.07000</ele>
        <time>2009-01-05T11:02:43Z</time>
      </trkpt>
      <trkpt lat="27.89838300" lon="-15.6860700">
        <ele>844.28700</ele>
        <time>2009-01-05T11:02:44Z</time>
      </trkpt>
      <trkpt lat="27.89840100" lon="-15.6860750">
        <ele>844.74700</ele>
        <time>2009-01-05T11:02:45Z</time>
      </trkpt>
      <trkpt lat="27.89841900" lon="-15.6860810">
        <ele>844.77300</ele>
        <time>2009-01-05T11:02:46Z</time>
      </trkpt>
      <trkpt lat="27.89843500" lon="-15.6860890">
        <ele>845.19700</ele>
        <time>2009-01-05T11:02:47Z</time>
      </trkpt>
      <trkpt lat="27.89844900" lon="-15.6861010">
        <ele>845.53000</ele>
        <time>2009-01-05T11:02:48Z</time>
      </trkpt>
      <trkpt lat="27.89846000" lon="-15.6861150">
        <ele>845.99300</ele>
        <time>2009-01-05T11:02:49Z</time>
      </trkpt>
      <trkpt lat="27.89847000" lon="-15.6861300">
        <ele>846.19900</ele>
        <time>2009-01-05T11:02:50Z</time>
      </trkpt>
      <trkpt lat="27.89847800" lon="-15.6861460">
        <ele>846.47700</ele>
        <time>2009-01-05T11:02:51Z</time>
      </trkpt>
      <trkpt lat="27.89848300" lon="-15.6861630">
        <ele>846.62200</ele>
        <time>2009-01-05T11:02:52Z</time>
      </trkpt>
      <trkpt lat="27.89848800" lon="-15.6861800">
        <ele>846.85500</ele>
        <time>2009-01-05T11:02:53Z</time>
      </trkpt>
      <trkpt lat="27.89849400" lon="-15.6861970">
        <ele>847.35800</ele>
        <time>2009-01-05T11:02:54Z</time>
      </trkpt>
      <trkpt lat="27.89850100" lon="-15.6862130">
        <ele>847.34200</ele>
        <time>2009-01-05T11:02:55Z</time>
      </trkpt>
      <trkpt lat="27.89850800" lon="-15.6862290">
        <ele>847.65400</ele>
        <time>2009-01-05T11:02:56Z</time>
      </trkpt>
      <trkpt lat="27.89851600" lon="-15.6862460">
        <ele>847.94500</ele>
        <time>2009-01-05T11:02:57Z</time>
      </trkpt>
      <trkpt lat="27.89852300" lon="-15.6862620">
        <ele>847.97200</ele>
        <time>2009-01-05T11:02:58Z</time>
      </trkpt>
      <trkpt lat="27.89853100" lon="-15.6862780">
        <ele>848.50100</ele>
        <time>2009-01-05T11:02:59Z</time>
      </trkpt>
      <trkpt lat="27.89854000" lon="-15.6862940">
        <ele>848.49900</ele>
        <time>2009-01-05T11:03:00Z</time>
      </trkpt>
      <trkpt lat="27.89855000" lon="-15.6863090">
        <ele>848.77700</ele>
        <time>2009-01-05T11:03:01Z</time>
      </trkpt>
      <trkpt lat="27.89856000" lon="-15.6863230">
        <ele>849.09700</ele>
        <time>2009-01-05T11:03:02Z</time>
      </trkpt>
      <trkpt lat="27.89856900" lon="-15.6863390">
        <ele>849.37200</ele>
        <time>2009-01-05T11:03:03Z</time>
      </trkpt>
      <trkpt lat="27.89857300" lon="-15.6863560">
        <ele>849.47600</ele>
        <time>2009-01-05T11:03:04Z</time>
      </trkpt>
      <trkpt lat="27.89857200" lon="-15.6863750">
        <ele>849.73300</ele>
        <time>2009-01-05T11:03:05Z</time>
      </trkpt>
      <trkpt lat="27.89856500" lon="-15.6863890">
        <ele>849.91100</ele>
        <time>2009-01-05T11:03:06Z</time>
      </trkpt>
      <trkpt lat="27.89855300" lon="-15.6863990">
        <ele>850.52600</ele>
        <time>2009-01-05T11:03:07Z</time>
      </trkpt>
      <trkpt lat="27.89854000" lon="-15.6864030">
        <ele>850.72200</ele>
        <time>2009-01-05T11:03:08Z</time>
      </trkpt>
      <trkpt lat="27.89852600" lon="-15.6864030">
        <ele>850.88100</ele>
        <time>2009-01-05T11:03:09Z</time>
      </trkpt>
      <trkpt lat="27.89851300" lon="-15.6863970">
        <ele>851.25100</ele>
        <time>2009-01-05T11:03:10Z</time>
      </trkpt>
      <trkpt lat="27.89850000" lon="-15.6863880">
        <ele>851.53400</ele>
        <time>2009-01-05T11:03:11Z</time>
      </trkpt>
      <trkpt lat="27.89848700" lon="-15.6863750">
        <ele>851.80100</ele>
        <time>2009-01-05T11:03:12Z</time>
      </trkpt>
      <trkpt lat="27.89847500" lon="-15.6863610">
        <ele>851.97500</ele>
        <time>2009-01-05T11:03:13Z</time>
      </trkpt>
      <trkpt lat="27.89846300" lon="-15.6863460">
        <ele>852.33200</ele>
        <time>2009-01-05T11:03:14Z</time>
      </trkpt>
      <trkpt lat="27.89845000" lon="-15.6863320">
        <ele>852.67500</ele>
        <time>2009-01-05T11:03:15Z</time>
      </trkpt>
      <trkpt lat="27.89843600" lon="-15.6863200">
        <ele>852.61200</ele>
        <time>2009-01-05T11:03:16Z</time>
      </trkpt>
      <trkpt lat="27.89842200" lon="-15.6863090">
        <ele>853.21400</ele>
        <time>2009-01-05T11:03:17Z</time>
      </trkpt>
      <trkpt lat="27.89840500" lon="-15.6863010">
        <ele>853.47000</ele>
        <time>2009-01-05T11:03:18Z</time>
      </trkpt>
      <trkpt lat="27.89838900" lon="-15.6862960">
        <ele>853.62500</ele>
        <time>2009-01-05T11:03:19Z</time>
      </trkpt>
      <trkpt lat="27.89837100" lon="-15.6862980">
        <ele>853.75400</ele>
        <time>2009-01-05T11:03:20Z</time>
      </trkpt>
      <trkpt lat="27.89835400" lon="-15.6863030">
        <ele>854.13600</ele>
        <time>2009-01-05T11:03:21Z</time>
      </trkpt>
      <trkpt lat="27.89833600" lon="-15.6863100">
        <ele>854.43700</ele>
        <time>2009-01-05T11:03:22Z</time>
      </trkpt>
      <trkpt lat="27.89831700" lon="-15.6863200">
        <ele>854.76600</ele>
        <time>2009-01-05T11:03:23Z</time>
      </trkpt>
      <trkpt lat="27.89830100" lon="-15.6863280">
        <ele>854.69900</ele>
        <time>2009-01-05T11:03:24Z</time>
      </trkpt>
      <trkpt lat="27.89828500" lon="-15.6863370">
        <ele>855.26600</ele>
        <time>2009-01-05T11:03:25Z</time>
      </trkpt>
      <trkpt lat="27.89827100" lon="-15.6863470">
        <ele>855.66700</ele>
        <time>2009-01-05T11:03:26Z</time>
      </trkpt>
      <trkpt lat="27.89825600" lon="-15.6863580">
        <ele>855.86700</ele>
        <time>2009-01-05T11:03:27Z</time>
      </trkpt>
      <trkpt lat="27.89823800" lon="-15.6863710">
        <ele>856.10700</ele>
        <time>2009-01-05T11:03:28Z</time>
      </trkpt>
      <trkpt lat="27.89822100" lon="-15.6863810">
        <ele>856.22800</ele>
        <time>2009-01-05T11:03:29Z</time>
      </trkpt>
      <trkpt lat="27.89820300" lon="-15.6863920">
        <ele>856.45700</ele>
        <time>2009-01-05T11:03:30Z</time>
      </trkpt>
      <trkpt lat="27.89818900" lon="-15.6864040">
        <ele>856.78900</ele>
        <time>2009-01-05T11:03:31Z</time>
      </trkpt>
      <trkpt lat="27.89817200" lon="-15.6864160">
        <ele>857.17900</ele>
        <time>2009-01-05T11:03:32Z</time>
      </trkpt>
      <trkpt lat="27.89815700" lon="-15.6864290">
        <ele>857.55900</ele>
        <time>2009-01-05T11:03:33Z</time>
      </trkpt>
      <trkpt lat="27.89814300" lon="-15.6864400">
        <ele>857.44400</ele>
        <time>2009-01-05T11:03:34Z</time>
      </trkpt>
      <trkpt lat="27.89812800" lon="-15.6864480">
        <ele>857.99500</ele>
        <time>2009-01-05T11:03:35Z</time>
      </trkpt>
      <trkpt lat="27.89811200" lon="-15.6864580">
        <ele>858.25300</ele>
        <time>2009-01-05T11:03:36Z</time>
      </trkpt>
      <trkpt lat="27.89809500" lon="-15.6864670">
        <ele>858.78000</ele>
        <time>2009-01-05T11:03:37Z</time>
      </trkpt>
      <trkpt lat="27.89807600" lon="-15.6864770">
        <ele>859.27000</ele>
        <time>2009-01-05T11:03:38Z</time>
      </trkpt>
      <trkpt lat="27.89805900" lon="-15.6864870">
        <ele>859.39300</ele>
        <time>2009-01-05T11:03:39Z</time>
      </trkpt>
      <trkpt lat="27.89804800" lon="-15.6865030">
        <ele>859.75300</ele>
        <time>2009-01-05T11:03:40Z</time>
      </trkpt>
      <trkpt lat="27.89804600" lon="-15.6865220">
        <ele>860.25400</ele>
        <time>2009-01-05T11:03:41Z</time>
      </trkpt>
      <trkpt lat="27.89805200" lon="-15.6865400">
        <ele>860.51900</ele>
        <time>2009-01-05T11:03:42Z</time>
      </trkpt>
      <trkpt lat="27.89806400" lon="-15.6865540">
        <ele>860.90600</ele>
        <time>2009-01-05T11:03:43Z</time>
      </trkpt>
      <trkpt lat="27.89807900" lon="-15.6865600">
        <ele>861.17900</ele>
        <time>2009-01-05T11:03:44Z</time>
      </trkpt>
      <trkpt lat="27.89809600" lon="-15.6865600">
        <ele>861.63400</ele>
        <time>2009-01-05T11:03:45Z</time>
      </trkpt>
      <trkpt lat="27.89811300" lon="-15.6865560">
        <ele>861.80500</ele>
        <time>2009-01-05T11:03:46Z</time>
      </trkpt>
      <trkpt lat="27.89812900" lon="-15.6865500">
        <ele>861.81400</ele>
        <time>2009-01-05T11:03:47Z</time>
      </trkpt>
      <trkpt lat="27.89814500" lon="-15.6865450">
        <ele>862.35700</ele>
        <time>2009-01-05T11:03:48Z</time>
      </trkpt>
      <trkpt lat="27.89816100" lon="-15.6865410">
        <ele>862.44000</ele>
        <time>2009-01-05T11:03:49Z</time>
      </trkpt>
      <trkpt lat="27.89817700" lon="-15.6865370">
        <ele>862.89300</ele>
        <time>2009-01-05T11:03:50Z</time>
      </trkpt>
      <trkpt lat="27.89819200" lon="-15.6865310">
        <ele>863.05600</ele>
        <time>2009-01-05T11:03:51Z</time>
      </trkpt>
      <trkpt lat="27.89820600" lon="-15.6865240">
        <ele>863.08900</ele>
        <time>2009-01-05T11:03:52Z</time>
      </trkpt>
      <trkpt lat="27.89822100" lon="-15.6865180">
        <ele>863.42300</ele>
        <time>2009-01-05T11:03:53Z</time>
      </trkpt>
      <trkpt lat="27.89823600" lon="-15.6865130">
        <ele>863.43000</ele>
        <time>2009-01-05T11:03:54Z</time>
      </trkpt>
      <trkpt lat="27.89825200" lon="-15.6865100">
        <ele>864.14200</ele>
        <time>2009-01-05T11:03:55Z</time>
      </trkpt>
      <trkpt lat="27.89826800" lon="-15.6865060">
        <ele>864.12300</ele>
        <time>2009-01-05T11:03:56Z</time>
      </trkpt>
      <trkpt lat="27.89828300" lon="-15.6865030">
        <ele>864.39900</ele>
        <time>2009-01-05T11:03:57Z</time>
      </trkpt>
      <trkpt lat="27.89829800" lon="-15.6865020">
        <ele>864.71300</ele>
        <time>2009-01-05T11:03:58Z</time>
      </trkpt>
      <trkpt lat="27.89831500" lon="-15.6865020">
        <ele>864.91100</ele>
        <time>2009-01-05T11:03:59Z</time>
      </trkpt>
      <trkpt lat="27.89833100" lon="-15.6865030">
        <ele>865.54400</ele>
        <time>2009-01-05T11:04:00Z</time>
      </trkpt>
      <trkpt lat="27.89834800" lon="-15.6865040">
        <ele>865.73700</ele>
        <time>2009-01-05T11:04:01Z</time>
      </trkpt>
      <trkpt lat="27.89836400" lon="-15.6865080">
        <ele>866.16700</ele>
        <time>2009-01-05T11:04:02Z</time>
      </trkpt>
      <trkpt lat="27.89837900" lon="-15.6865160">
        <ele>866.31900</ele>
        <time>2009-01-05T11:04:03Z</time>
      </trkpt>
      <trkpt lat="27.89839100" lon="-15.6865290">
        <ele>866.92700</ele>
        <time>2009-01-05T11:04:04Z</time>
      </trkpt>
      <trkpt lat="27.89840200" lon="-15.6865450">
        <ele>866.72300</ele>
        <time>2009-01-05T11:04:05Z</time>
      </trkpt>
      <trkpt lat="27.89840900" lon="-15.6865620">
        <ele>866.94900</ele>
        <time>2009-01-05T11:04:06Z</time>
      </trkpt>
      <trkpt lat="27.89841800" lon="-15.6865800">
        <ele>867.28200</ele>
        <time>2009-01-05T11:04:07Z</time>
      </trkpt>
      <trkpt lat="27.89842900" lon="-15.6865940">
        <ele>867.46600</ele>
        <time>2009-01-05T11:04:08Z</time>
      </trkpt>
      <trkpt lat="27.89844000" lon="-15.6866070">
        <ele>867.63500</ele>
        <time>2009-01-05T11:04:09Z</time>
      </trkpt>
      <trkpt lat="27.89845200" lon="-15.6866200">
        <ele>868.09800</ele>
        <time>2009-01-05T11:04:10Z</time>
      </trkpt>
      <trkpt lat="27.89846400" lon="-15.6866330">
        <ele>868.38800</ele>
        <time>2009-01-05T11:04:11Z</time>
      </trkpt>
      <trkpt lat="27.89847600" lon="-15.6866470">
        <ele>868.49700</ele>
        <time>2009-01-05T11:04:12Z</time>
      </trkpt>
      <trkpt lat="27.89848900" lon="-15.6866590">
        <ele>868.48900</ele>
        <time>2009-01-05T11:04:13Z</time>
      </trkpt>
      <trkpt lat="27.89850400" lon="-15.6866680">
        <ele>868.80900</ele>
        <time>2009-01-05T11:04:14Z</time>
      </trkpt>
      <trkpt lat="27.89852000" lon="-15.6866730">
        <ele>869.07900</ele>
        <time>2009-01-05T11:04:15Z</time>
      </trkpt>
      <trkpt lat="27.89853600" lon="-15.6866750">
        <ele>869.45200</ele>
        <time>2009-01-05T11:04:16Z</time>
      </trkpt>
      <trkpt lat="27.89855300" lon="-15.6866770">
        <ele>869.46100</ele>
        <time>2009-01-05T11:04:17Z</time>
      </trkpt>
      <trkpt lat="27.89857100" lon="-15.6866790">
        <ele>869.72000</ele>
        <time>2009-01-05T11:04:18Z</time>
      </trkpt>
      <trkpt lat="27.89858900" lon="-15.6866800">
        <ele>869.84000</ele>
        <time>2009-01-05T11:04:19Z</time>
      </trkpt>
      <trkpt lat="27.89860700" lon="-15.6866780">
        <ele>869.88800</ele>
        <time>2009-01-05T11:04:20Z</time>
      </trkpt>
      <trkpt lat="27.89862600" lon="-15.6866750">
        <ele>870.61000</ele>
        <time>2009-01-05T11:04:21Z</time>
      </trkpt>
      <trkpt lat="27.89864300" lon="-15.6866690">
        <ele>870.94200</ele>
        <time>2009-01-05T11:04:22Z</time>
      </trkpt>
      <trkpt lat="27.89866100" lon="-15.6866590">
        <ele>871.00800</ele>
        <time>2009-01-05T11:04:23Z</time>
      </trkpt>
      <trkpt lat="27.89867800" lon="-15.6866480">
        <ele>870.97200</ele>
        <time>2009-01-05T11:04:24Z</time>
      </trkpt>
      <trkpt lat="27.89869700" lon="-15.6866390">
        <ele>871.07600</ele>
        <time>2009-01-05T11:04:25Z</time>
      </trkpt>
      <trkpt lat="27.89871600" lon="-15.6866320">
        <ele>871.48700</ele>
        <time>2009-01-05T11:04:26Z</time>
      </trkpt>
      <trkpt lat="27.89873600" lon="-15.6866260">
        <ele>871.65900</ele>
        <time>2009-01-05T11:04:27Z</time>
      </trkpt>
      <trkpt lat="27.89875700" lon="-15.6866240">
        <ele>871.46700</ele>
        <time>2009-01-05T11:04:28Z</time>
      </trkpt>
      <trkpt lat="27.89878000" lon="-15.6866260">
        <ele>871.84400</ele>
        <time>2009-01-05T11:04:29Z</time>
      </trkpt>
      <trkpt lat="27.89880000" lon="-15.6866310">
        <ele>872.12200</ele>
        <time>2009-01-05T11:04:30Z</time>
      </trkpt>
      <trkpt lat="27.89882000" lon="-15.6866360">
        <ele>872.10200</ele>
        <time>2009-01-05T11:04:31Z</time>
      </trkpt>
      <trkpt lat="27.89884000" lon="-15.6866410">
        <ele>872.12600</ele>
        <time>2009-01-05T11:04:32Z</time>
      </trkpt>
      <trkpt lat="27.89886100" lon="-15.6866480">
        <ele>872.61600</ele>
        <time>2009-01-05T11:04:33Z</time>
      </trkpt>
      <trkpt lat="27.89888200" lon="-15.6866570">
        <ele>872.73100</ele>
        <time>2009-01-05T11:04:34Z</time>
      </trkpt>
      <trkpt lat="27.89890200" lon="-15.6866660">
        <ele>872.88000</ele>
        <time>2009-01-05T11:04:35Z</time>
      </trkpt>
      <trkpt lat="27.89892300" lon="-15.6866740">
        <ele>873.02400</ele>
        <time>2009-01-05T11:04:36Z</time>
      </trkpt>
      <trkpt lat="27.89894500" lon="-15.6866800">
        <ele>873.16200</ele>
        <time>2009-01-05T11:04:37Z</time>
      </trkpt>
      <trkpt lat="27.89896700" lon="-15.6866860">
        <ele>873.35400</ele>
        <time>2009-01-05T11:04:38Z</time>
      </trkpt>
      <trkpt lat="27.89898900" lon="-15.6866910">
        <ele>873.22800</ele>
        <time>2009-01-05T11:04:39Z</time>
      </trkpt>
      <trkpt lat="27.89901400" lon="-15.6866960">
        <ele>873.47200</ele>
        <time>2009-01-05T11:04:40Z</time>
      </trkpt>
      <trkpt lat="27.89903800" lon="-15.6867030">
        <ele>873.89100</ele>
        <time>2009-01-05T11:04:41Z</time>
      </trkpt>
      <trkpt lat="27.89906400" lon="-15.6867110">
        <ele>874.14100</ele>
        <time>2009-01-05T11:04:42Z</time>
      </trkpt>
      <trkpt lat="27.89908700" lon="-15.6867200">
        <ele>874.00500</ele>
        <time>2009-01-05T11:04:43Z</time>
      </trkpt>
      <trkpt lat="27.89910800" lon="-15.6867310">
        <ele>874.08500</ele>
        <time>2009-01-05T11:04:44Z</time>
      </trkpt>
      <trkpt lat="27.89912800" lon="-15.6867440">
        <ele>874.32400</ele>
        <time>2009-01-05T11:04:45Z</time>
      </trkpt>
      <trkpt lat="27.89914600" lon="-15.6867580">
        <ele>874.41800</ele>
        <time>2009-01-05T11:04:46Z</time>
      </trkpt>
      <trkpt lat="27.89916500" lon="-15.6867740">
        <ele>874.77300</ele>
        <time>2009-01-05T11:04:47Z</time>
      </trkpt>
      <trkpt lat="27.89918300" lon="-15.6867900">
        <ele>874.83600</ele>
        <time>2009-01-05T11:04:48Z</time>
      </trkpt>
      <trkpt lat="27.89920200" lon="-15.6868050">
        <ele>875.10700</ele>
        <time>2009-01-05T11:04:49Z</time>
      </trkpt>
      <trkpt lat="27.89922300" lon="-15.6868190">
        <ele>875.32200</ele>
        <time>2009-01-05T11:04:50Z</time>
      </trkpt>
      <trkpt lat="27.89924700" lon="-15.6868320">
        <ele>875.62500</ele>
        <time>2009-01-05T11:04:51Z</time>
      </trkpt>
      <trkpt lat="27.89927100" lon="-15.6868450">
        <ele>875.56600</ele>
        <time>2009-01-05T11:04:52Z</time>
      </trkpt>
      <trkpt lat="27.89929700" lon="-15.6868570">
        <ele>875.63000</ele>
        <time>2009-01-05T11:04:53Z</time>
      </trkpt>
      <trkpt lat="27.89932100" lon="-15.6868690">
        <ele>875.85400</ele>
        <time>2009-01-05T11:04:54Z</time>
      </trkpt>
      <trkpt lat="27.89934600" lon="-15.6868790">
        <ele>876.04500</ele>
        <time>2009-01-05T11:04:55Z</time>
      </trkpt>
      <trkpt lat="27.89937200" lon="-15.6868880">
        <ele>876.29100</ele>
        <time>2009-01-05T11:04:56Z</time>
      </trkpt>
      <trkpt lat="27.89940100" lon="-15.6868930">
        <ele>876.47700</ele>
        <time>2009-01-05T11:04:57Z</time>
      </trkpt>
      <trkpt lat="27.89942700" lon="-15.6868960">
        <ele>876.42200</ele>
        <time>2009-01-05T11:04:58Z</time>
      </trkpt>
      <trkpt lat="27.89945600" lon="-15.6868950">
        <ele>876.74800</ele>
        <time>2009-01-05T11:04:59Z</time>
      </trkpt>
      <trkpt lat="27.89948400" lon="-15.6868910">
        <ele>876.83800</ele>
        <time>2009-01-05T11:05:00Z</time>
      </trkpt>
      <trkpt lat="27.89950900" lon="-15.6868830">
        <ele>877.23700</ele>
        <time>2009-01-05T11:05:01Z</time>
      </trkpt>
      <trkpt lat="27.89953100" lon="-15.6868680">
        <ele>877.18400</ele>
        <time>2009-01-05T11:05:02Z</time>
      </trkpt>
      <trkpt lat="27.89954900" lon="-15.6868450">
        <ele>876.97000</ele>
        <time>2009-01-05T11:05:03Z</time>
      </trkpt>
      <trkpt lat="27.89956300" lon="-15.6868190">
        <ele>877.66200</ele>
        <time>2009-01-05T11:05:04Z</time>
      </trkpt>
      <trkpt lat="27.89957400" lon="-15.6867900">
        <ele>877.45300</ele>
        <time>2009-01-05T11:05:05Z</time>
      </trkpt>
      <trkpt lat="27.89958200" lon="-15.6867580">
        <ele>877.53200</ele>
        <time>2009-01-05T11:05:06Z</time>
      </trkpt>
      <trkpt lat="27.89958800" lon="-15.6867250">
        <ele>877.65600</ele>
        <time>2009-01-05T11:05:07Z</time>
      </trkpt>
      <trkpt lat="27.89959300" lon="-15.6866920">
        <ele>877.58900</ele>
        <time>2009-01-05T11:05:08Z</time>
      </trkpt>
      <trkpt lat="27.89960000" lon="-15.6866580">
        <ele>877.89000</ele>
        <time>2009-01-05T11:05:09Z</time>
      </trkpt>
      <trkpt lat="27.89960600" lon="-15.6866240">
        <ele>877.64900</ele>
        <time>2009-01-05T11:05:10Z</time>
      </trkpt>
      <trkpt lat="27.89961200" lon="-15.6865870">
        <ele>877.78300</ele>
        <time>2009-01-05T11:05:11Z</time>
      </trkpt>
      <trkpt lat="27.89961900" lon="-15.6865490">
        <ele>877.73300</ele>
        <time>2009-01-05T11:05:12Z</time>
      </trkpt>
      <trkpt lat="27.89962500" lon="-15.6865120">
        <ele>877.73800</ele>
        <time>2009-01-05T11:05:13Z</time>
      </trkpt>
      <trkpt lat="27.89963200" lon="-15.6864760">
        <ele>877.93000</ele>
        <time>2009-01-05T11:05:14Z</time>
      </trkpt>
      <trkpt lat="27.89964300" lon="-15.6864420">
        <ele>877.98600</ele>
        <time>2009-01-05T11:05:15Z</time>
      </trkpt>
      <trkpt lat="27.89965900" lon="-15.6864110">
        <ele>877.99400</ele>
        <time>2009-01-05T11:05:16Z</time>
      </trkpt>
      <trkpt lat="27.89968100" lon="-15.6863870">
        <ele>878.35800</ele>
        <time>2009-01-05T11:05:17Z</time>
      </trkpt>
      <trkpt lat="27.89970700" lon="-15.6863720">
        <ele>878.47500</ele>
        <time>2009-01-05T11:05:18Z</time>
      </trkpt>
      <trkpt lat="27.89973300" lon="-15.6863660">
        <ele>878.57800</ele>
        <time>2009-01-05T11:05:19Z</time>
      </trkpt>
      <trkpt lat="27.89975900" lon="-15.6863690">
        <ele>878.71800</ele>
        <time>2009-01-05T11:05:20Z</time>
      </trkpt>
      <trkpt lat="27.89978000" lon="-15.6863830">
        <ele>879.18900</ele>
        <time>2009-01-05T11:05:21Z</time>
      </trkpt>
      <trkpt lat="27.89979300" lon="-15.6864080">
        <ele>879.41600</ele>
        <time>2009-01-05T11:05:22Z</time>
      </trkpt>
      <trkpt lat="27.89979600" lon="-15.6864350">
        <ele>879.80500</ele>
        <time>2009-01-05T11:05:23Z</time>
      </trkpt>
      <trkpt lat="27.89979300" lon="-15.6864580">
        <ele>880.46300</ele>
        <time>2009-01-05T11:05:24Z</time>
      </trkpt>
      <trkpt lat="27.89978800" lon="-15.6864790">
        <ele>880.78000</ele>
        <time>2009-01-05T11:05:25Z</time>
      </trkpt>
      <trkpt lat="27.89978100" lon="-15.6864980">
        <ele>881.03600</ele>
        <time>2009-01-05T11:05:26Z</time>
      </trkpt>
      <trkpt lat="27.89977200" lon="-15.6865160">
        <ele>881.13100</ele>
        <time>2009-01-05T11:05:27Z</time>
      </trkpt>
      <trkpt lat="27.89976300" lon="-15.6865340">
        <ele>881.27200</ele>
        <time>2009-01-05T11:05:28Z</time>
      </trkpt>
      <trkpt lat="27.89975500" lon="-15.6865540">
        <ele>882.22300</ele>
        <time>2009-01-05T11:05:29Z</time>
      </trkpt>
      <trkpt lat="27.89974900" lon="-15.6865760">
        <ele>882.25000</ele>
        <time>2009-01-05T11:05:30Z</time>
      </trkpt>
      <trkpt lat="27.89974500" lon="-15.6866000">
        <ele>882.62500</ele>
        <time>2009-01-05T11:05:31Z</time>
      </trkpt>
      <trkpt lat="27.89974600" lon="-15.6866230">
        <ele>882.75400</ele>
        <time>2009-01-05T11:05:32Z</time>
      </trkpt>
      <trkpt lat="27.89975000" lon="-15.6866470">
        <ele>883.00300</ele>
        <time>2009-01-05T11:05:33Z</time>
      </trkpt>
      <trkpt lat="27.89975300" lon="-15.6866720">
        <ele>883.25100</ele>
        <time>2009-01-05T11:05:34Z</time>
      </trkpt>
      <trkpt lat="27.89975300" lon="-15.6866970">
        <ele>883.77700</ele>
        <time>2009-01-05T11:05:35Z</time>
      </trkpt>
      <trkpt lat="27.89975100" lon="-15.6867200">
        <ele>884.11200</ele>
        <time>2009-01-05T11:05:36Z</time>
      </trkpt>
      <trkpt lat="27.89975000" lon="-15.6867420">
        <ele>884.37800</ele>
        <time>2009-01-05T11:05:37Z</time>
      </trkpt>
      <trkpt lat="27.89975200" lon="-15.6867630">
        <ele>884.59700</ele>
        <time>2009-01-05T11:05:38Z</time>
      </trkpt>
      <trkpt lat="27.89975700" lon="-15.6867830">
        <ele>884.88700</ele>
        <time>2009-01-05T11:05:39Z</time>
      </trkpt>
      <trkpt lat="27.89976000" lon="-15.6868030">
        <ele>885.22500</ele>
        <time>2009-01-05T11:05:40Z</time>
      </trkpt>
      <trkpt lat="27.89976200" lon="-15.6868240">
        <ele>885.39100</ele>
        <time>2009-01-05T11:05:41Z</time>
      </trkpt>
      <trkpt lat="27.89976300" lon="-15.6868440">
        <ele>885.89000</ele>
        <time>2009-01-05T11:05:42Z</time>
      </trkpt>
      <trkpt lat="27.89975900" lon="-15.6868640">
        <ele>885.77900</ele>
        <time>2009-01-05T11:05:43Z</time>
      </trkpt>
      <trkpt lat="27.89975700" lon="-15.6868850">
        <ele>886.26500</ele>
        <time>2009-01-05T11:05:44Z</time>
      </trkpt>
      <trkpt lat="27.89975500" lon="-15.6869060">
        <ele>886.69600</ele>
        <time>2009-01-05T11:05:45Z</time>
      </trkpt>
      <trkpt lat="27.89975600" lon="-15.6869270">
        <ele>886.72200</ele>
        <time>2009-01-05T11:05:46Z</time>
      </trkpt>
      <trkpt lat="27.89975600" lon="-15.6869480">
        <ele>886.90100</ele>
        <time>2009-01-05T11:05:47Z</time>
      </trkpt>
      <trkpt lat="27.89975500" lon="-15.6869700">
        <ele>887.09200</ele>
        <time>2009-01-05T11:05:48Z</time>
      </trkpt>
      <trkpt lat="27.89975300" lon="-15.6869910">
        <ele>887.41900</ele>
        <time>2009-01-05T11:05:49Z</time>
      </trkpt>
      <trkpt lat="27.89975300" lon="-15.6870120">
        <ele>887.97400</ele>
        <time>2009-01-05T11:05:50Z</time>
      </trkpt>
      <trkpt lat="27.89975300" lon="-15.6870340">
        <ele>887.95500</ele>
        <time>2009-01-05T11:05:51Z</time>
      </trkpt>
      <trkpt lat="27.89975300" lon="-15.6870550">
        <ele>888.13000</ele>
        <time>2009-01-05T11:05:52Z</time>
      </trkpt>
      <trkpt lat="27.89975300" lon="-15.6870770">
        <ele>888.39900</ele>
        <time>2009-01-05T11:05:53Z</time>
      </trkpt>
      <trkpt lat="27.89975500" lon="-15.6870990">
        <ele>888.86700</ele>
        <time>2009-01-05T11:05:54Z</time>
      </trkpt>
      <trkpt lat="27.89976100" lon="-15.6871190">
        <ele>889.48800</ele>
        <time>2009-01-05T11:05:55Z</time>
      </trkpt>
      <trkpt lat="27.89977200" lon="-15.6871350">
        <ele>889.58700</ele>
        <time>2009-01-05T11:05:56Z</time>
      </trkpt>
      <trkpt lat="27.89978900" lon="-15.6871390">
        <ele>890.01800</ele>
        <time>2009-01-05T11:05:57Z</time>
      </trkpt>
      <trkpt lat="27.89980600" lon="-15.6871330">
        <ele>890.62600</ele>
        <time>2009-01-05T11:05:58Z</time>
      </trkpt>
      <trkpt lat="27.89981900" lon="-15.6871170">
        <ele>890.78200</ele>
        <time>2009-01-05T11:05:59Z</time>
      </trkpt>
      <trkpt lat="27.89982600" lon="-15.6870940">
        <ele>890.88300</ele>
        <time>2009-01-05T11:06:00Z</time>
      </trkpt>
      <trkpt lat="27.89982800" lon="-15.6870680">
        <ele>891.25100</ele>
        <time>2009-01-05T11:06:01Z</time>
      </trkpt>
      <trkpt lat="27.89982900" lon="-15.6870400">
        <ele>891.39200</ele>
        <time>2009-01-05T11:06:02Z</time>
      </trkpt>
      <trkpt lat="27.89983300" lon="-15.6870110">
        <ele>891.84400</ele>
        <time>2009-01-05T11:06:03Z</time>
      </trkpt>
      <trkpt lat="27.89984100" lon="-15.6869820">
        <ele>892.29400</ele>
        <time>2009-01-05T11:06:04Z</time>
      </trkpt>
      <trkpt lat="27.89984900" lon="-15.6869530">
        <ele>892.26500</ele>
        <time>2009-01-05T11:06:05Z</time>
      </trkpt>
      <trkpt lat="27.89985800" lon="-15.6869240">
        <ele>892.54300</ele>
        <time>2009-01-05T11:06:06Z</time>
      </trkpt>
      <trkpt lat="27.89986800" lon="-15.6868960">
        <ele>892.80200</ele>
        <time>2009-01-05T11:06:07Z</time>
      </trkpt>
      <trkpt lat="27.89987900" lon="-15.6868680">
        <ele>892.99600</ele>
        <time>2009-01-05T11:06:08Z</time>
      </trkpt>
      <trkpt lat="27.89989000" lon="-15.6868400">
        <ele>893.09900</ele>
        <time>2009-01-05T11:06:09Z</time>
      </trkpt>
      <trkpt lat="27.89990200" lon="-15.6868120">
        <ele>893.37500</ele>
        <time>2009-01-05T11:06:10Z</time>
      </trkpt>
      <trkpt lat="27.89991600" lon="-15.6867850">
        <ele>893.72900</ele>
        <time>2009-01-05T11:06:11Z</time>
      </trkpt>
      <trkpt lat="27.89993300" lon="-15.6867580">
        <ele>893.82000</ele>
        <time>2009-01-05T11:06:12Z</time>
      </trkpt>
      <trkpt lat="27.89995400" lon="-15.6867320">
        <ele>893.94700</ele>
        <time>2009-01-05T11:06:13Z</time>
      </trkpt>
      <trkpt lat="27.89997700" lon="-15.6867070">
        <ele>894.21700</ele>
        <time>2009-01-05T11:06:14Z</time>
      </trkpt>
      <trkpt lat="27.90000400" lon="-15.6866820">
        <ele>894.40000</ele>
        <time>2009-01-05T11:06:15Z</time>
      </trkpt>
      <trkpt lat="27.90003400" lon="-15.6866590">
        <ele>894.13400</ele>
        <time>2009-01-05T11:06:16Z</time>
      </trkpt>
      <trkpt lat="27.90006700" lon="-15.6866380">
        <ele>893.82500</ele>
        <time>2009-01-05T11:06:17Z</time>
      </trkpt>
      <trkpt lat="27.90010200" lon="-15.6866190">
        <ele>894.17500</ele>
        <time>2009-01-05T11:06:18Z</time>
      </trkpt>
      <trkpt lat="27.90013700" lon="-15.6865980">
        <ele>894.49300</ele>
        <time>2009-01-05T11:06:19Z</time>
      </trkpt>
      <trkpt lat="27.90017100" lon="-15.6865770">
        <ele>894.62600</ele>
        <time>2009-01-05T11:06:20Z</time>
      </trkpt>
      <trkpt lat="27.90020400" lon="-15.6865530">
        <ele>894.63000</ele>
        <time>2009-01-05T11:06:21Z</time>
      </trkpt>
      <trkpt lat="27.90023600" lon="-15.6865270">
        <ele>894.26600</ele>
        <time>2009-01-05T11:06:22Z</time>
      </trkpt>
      <trkpt lat="27.90026500" lon="-15.6864980">
        <ele>894.77900</ele>
        <time>2009-01-05T11:06:23Z</time>
      </trkpt>
      <trkpt lat="27.90029100" lon="-15.6864680">
        <ele>894.61100</ele>
        <time>2009-01-05T11:06:24Z</time>
      </trkpt>
      <trkpt lat="27.90031500" lon="-15.6864380">
        <ele>895.00500</ele>
        <time>2009-01-05T11:06:25Z</time>
      </trkpt>
      <trkpt lat="27.90033800" lon="-15.6864090">
        <ele>895.09000</ele>
        <time>2009-01-05T11:06:26Z</time>
      </trkpt>
      <trkpt lat="27.90035800" lon="-15.6863800">
        <ele>895.62500</ele>
        <time>2009-01-05T11:06:27Z</time>
      </trkpt>
      <trkpt lat="27.90037800" lon="-15.6863510">
        <ele>895.80000</ele>
        <time>2009-01-05T11:06:28Z</time>
      </trkpt>
      <trkpt lat="27.90040000" lon="-15.6863210">
        <ele>896.24400</ele>
        <time>2009-01-05T11:06:29Z</time>
      </trkpt>
      <trkpt lat="27.90042200" lon="-15.6862910">
        <ele>896.61700</ele>
        <time>2009-01-05T11:06:30Z</time>
      </trkpt>
      <trkpt lat="27.90044300" lon="-15.6862630">
        <ele>896.91300</ele>
        <time>2009-01-05T11:06:31Z</time>
      </trkpt>
      <trkpt lat="27.90046300" lon="-15.6862350">
        <ele>897.37300</ele>
        <time>2009-01-05T11:06:32Z</time>
      </trkpt>
      <trkpt lat="27.90048000" lon="-15.6862050">
        <ele>897.75600</ele>
        <time>2009-01-05T11:06:33Z</time>
      </trkpt>
      <trkpt lat="27.90049500" lon="-15.6861750">
        <ele>897.85400</ele>
        <time>2009-01-05T11:06:34Z</time>
      </trkpt>
      <trkpt lat="27.90050800" lon="-15.6861440">
        <ele>898.28000</ele>
        <time>2009-01-05T11:06:35Z</time>
      </trkpt>
      <trkpt lat="27.90052300" lon="-15.6861110">
        <ele>898.37200</ele>
        <time>2009-01-05T11:06:36Z</time>
      </trkpt>
      <trkpt lat="27.90053900" lon="-15.6860800">
        <ele>898.95600</ele>
        <time>2009-01-05T11:06:37Z</time>
      </trkpt>
      <trkpt lat="27.90055700" lon="-15.6860520">
        <ele>899.24200</ele>
        <time>2009-01-05T11:06:38Z</time>
      </trkpt>
      <trkpt lat="27.90058000" lon="-15.6860290">
        <ele>899.43800</ele>
        <time>2009-01-05T11:06:39Z</time>
      </trkpt>
      <trkpt lat="27.90060800" lon="-15.6860150">
        <ele>899.50700</ele>
        <time>2009-01-05T11:06:40Z</time>
      </trkpt>
      <trkpt lat="27.90064000" lon="-15.6860110">
        <ele>899.72700</ele>
        <time>2009-01-05T11:06:41Z</time>
      </trkpt>
      <trkpt lat="27.90067200" lon="-15.6860190">
        <ele>900.08200</ele>
        <time>2009-01-05T11:06:42Z</time>
      </trkpt>
      <trkpt lat="27.90070300" lon="-15.6860360">
        <ele>900.17500</ele>
        <time>2009-01-05T11:06:43Z</time>
      </trkpt>
      <trkpt lat="27.90073300" lon="-15.6860600">
        <ele>900.60300</ele>
        <time>2009-01-05T11:06:44Z</time>
      </trkpt>
      <trkpt lat="27.90075900" lon="-15.6860870">
        <ele>900.79400</ele>
        <time>2009-01-05T11:06:45Z</time>
      </trkpt>
      <trkpt lat="27.90078200" lon="-15.6861150">
        <ele>900.98400</ele>
        <time>2009-01-05T11:06:46Z</time>
      </trkpt>
      <trkpt lat="27.90080400" lon="-15.6861410">
        <ele>901.10600</ele>
        <time>2009-01-05T11:06:47Z</time>
      </trkpt>
      <trkpt lat="27.90082800" lon="-15.6861640">
        <ele>901.44800</ele>
        <time>2009-01-05T11:06:48Z</time>
      </trkpt>
      <trkpt lat="27.90085200" lon="-15.6861840">
        <ele>901.85500</ele>
        <time>2009-01-05T11:06:49Z</time>
      </trkpt>
      <trkpt lat="27.90087600" lon="-15.6862030">
        <ele>902.10000</ele>
        <time>2009-01-05T11:06:50Z</time>
      </trkpt>
      <trkpt lat="27.90089700" lon="-15.6862220">
        <ele>902.08500</ele>
        <time>2009-01-05T11:06:51Z</time>
      </trkpt>
      <trkpt lat="27.90091800" lon="-15.6862420">
        <ele>902.44400</ele>
        <time>2009-01-05T11:06:52Z</time>
      </trkpt>
      <trkpt lat="27.90093900" lon="-15.6862630">
        <ele>902.56900</ele>
        <time>2009-01-05T11:06:53Z</time>
      </trkpt>
      <trkpt lat="27.90096300" lon="-15.6862800">
        <ele>902.75900</ele>
        <time>2009-01-05T11:06:54Z</time>
      </trkpt>
      <trkpt lat="27.90098800" lon="-15.6862930">
        <ele>903.11900</ele>
        <time>2009-01-05T11:06:55Z</time>
      </trkpt>
      <trkpt lat="27.90101400" lon="-15.6862980">
        <ele>903.36700</ele>
        <time>2009-01-05T11:06:56Z</time>
      </trkpt>
      <trkpt lat="27.90103900" lon="-15.6862990">
        <ele>903.61000</ele>
        <time>2009-01-05T11:06:57Z</time>
      </trkpt>
      <trkpt lat="27.90106400" lon="-15.6862970">
        <ele>903.98600</ele>
        <time>2009-01-05T11:06:58Z</time>
      </trkpt>
      <trkpt lat="27.90108700" lon="-15.6862900">
        <ele>904.00700</ele>
        <time>2009-01-05T11:06:59Z</time>
      </trkpt>
      <trkpt lat="27.90110700" lon="-15.6862770">
        <ele>904.39000</ele>
        <time>2009-01-05T11:07:00Z</time>
      </trkpt>
      <trkpt lat="27.90112300" lon="-15.6862600">
        <ele>904.63000</ele>
        <time>2009-01-05T11:07:01Z</time>
      </trkpt>
      <trkpt lat="27.90113600" lon="-15.6862400">
        <ele>905.13200</ele>
        <time>2009-01-05T11:07:02Z</time>
      </trkpt>
      <trkpt lat="27.90114400" lon="-15.6862180">
        <ele>905.44200</ele>
        <time>2009-01-05T11:07:03Z</time>
      </trkpt>
      <trkpt lat="27.90114900" lon="-15.6861940">
        <ele>905.69800</ele>
        <time>2009-01-05T11:07:04Z</time>
      </trkpt>
      <trkpt lat="27.90115300" lon="-15.6861690">
        <ele>905.85400</ele>
        <time>2009-01-05T11:07:05Z</time>
      </trkpt>
      <trkpt lat="27.90115600" lon="-15.6861440">
        <ele>905.90400</ele>
        <time>2009-01-05T11:07:06Z</time>
      </trkpt>
      <trkpt lat="27.90115700" lon="-15.6861190">
        <ele>906.21000</ele>
        <time>2009-01-05T11:07:07Z</time>
      </trkpt>
      <trkpt lat="27.90115700" lon="-15.6860940">
        <ele>906.35300</ele>
        <time>2009-01-05T11:07:08Z</time>
      </trkpt>
      <trkpt lat="27.90115600" lon="-15.6860690">
        <ele>906.97100</ele>
        <time>2009-01-05T11:07:09Z</time>
      </trkpt>
      <trkpt lat="27.90115700" lon="-15.6860450">
        <ele>907.07500</ele>
        <time>2009-01-05T11:07:10Z</time>
      </trkpt>
      <trkpt lat="27.90116100" lon="-15.6860210">
        <ele>907.64800</ele>
        <time>2009-01-05T11:07:11Z</time>
      </trkpt>
      <trkpt lat="27.90117200" lon="-15.6859970">
        <ele>907.60600</ele>
        <time>2009-01-05T11:07:12Z</time>
      </trkpt>
      <trkpt lat="27.90118800" lon="-15.6859760">
        <ele>907.94700</ele>
        <time>2009-01-05T11:07:13Z</time>
      </trkpt>
      <trkpt lat="27.90120600" lon="-15.6859580">
        <ele>908.37500</ele>
        <time>2009-01-05T11:07:14Z</time>
      </trkpt>
      <trkpt lat="27.90122600" lon="-15.6859400">
        <ele>908.40700</ele>
        <time>2009-01-05T11:07:15Z</time>
      </trkpt>
      <trkpt lat="27.90124900" lon="-15.6859250">
        <ele>908.40400</ele>
        <time>2009-01-05T11:07:16Z</time>
      </trkpt>
      <trkpt lat="27.90127300" lon="-15.6859100">
        <ele>908.33300</ele>
        <time>2009-01-05T11:07:17Z</time>
      </trkpt>
      <trkpt lat="27.90129900" lon="-15.6858970">
        <ele>908.30400</ele>
        <time>2009-01-05T11:07:18Z</time>
      </trkpt>
      <trkpt lat="27.90132700" lon="-15.6858830">
        <ele>908.79800</ele>
        <time>2009-01-05T11:07:19Z</time>
      </trkpt>
      <trkpt lat="27.90135400" lon="-15.6858650">
        <ele>908.63000</ele>
        <time>2009-01-05T11:07:20Z</time>
      </trkpt>
      <trkpt lat="27.90138100" lon="-15.6858450">
        <ele>908.78600</ele>
        <time>2009-01-05T11:07:21Z</time>
      </trkpt>
      <trkpt lat="27.90140700" lon="-15.6858220">
        <ele>909.01300</ele>
        <time>2009-01-05T11:07:22Z</time>
      </trkpt>
      <trkpt lat="27.90143400" lon="-15.6857980">
        <ele>908.93400</ele>
        <time>2009-01-05T11:07:23Z</time>
      </trkpt>
      <trkpt lat="27.90146100" lon="-15.6857730">
        <ele>908.97100</ele>
        <time>2009-01-05T11:07:24Z</time>
      </trkpt>
      <trkpt lat="27.90149000" lon="-15.6857500">
        <ele>908.88700</ele>
        <time>2009-01-05T11:07:25Z</time>
      </trkpt>
      <trkpt lat="27.90151900" lon="-15.6857290">
        <ele>909.23100</ele>
        <time>2009-01-05T11:07:26Z</time>
      </trkpt>
      <trkpt lat="27.90154900" lon="-15.6857120">
        <ele>909.16800</ele>
        <time>2009-01-05T11:07:27Z</time>
      </trkpt>
      <trkpt lat="27.90157500" lon="-15.6856980">
        <ele>909.31100</ele>
        <time>2009-01-05T11:07:28Z</time>
      </trkpt>
      <trkpt lat="27.90159300" lon="-15.6856870">
        <ele>909.42500</ele>
        <time>2009-01-05T11:07:29Z</time>
      </trkpt>
      <trkpt lat="27.90160400" lon="-15.6856810">
        <ele>909.49600</ele>
        <time>2009-01-05T11:07:30Z</time>
      </trkpt>
      <trkpt lat="27.90160900" lon="-15.6856790">
        <ele>909.40400</ele>
        <time>2009-01-05T11:07:31Z</time>
      </trkpt>
      <trkpt lat="27.90161200" lon="-15.6856780">
        <ele>909.38900</ele>
        <time>2009-01-05T11:07:32Z</time>
      </trkpt>
    </trkseg>
    <trkseg>
      <trkpt lat="27.90167000" lon="-15.6857080">
        <ele>909.26300</ele>
        <time>2009-01-05T11:08:08Z</time>
      </trkpt>
      <trkpt lat="27.90170000" lon="-15.6857250">
        <ele>909.23300</ele>
        <time>2009-01-05T11:08:09Z</time>
      </trkpt>
      <trkpt lat="27.90173900" lon="-15.6857460">
        <ele>909.22600</ele>
        <time>2009-01-05T11:08:10Z</time>
      </trkpt>
      <trkpt lat="27.90178300" lon="-15.6857720">
        <ele>909.22100</ele>
        <time>2009-01-05T11:08:11Z</time>
      </trkpt>
      <trkpt lat="27.90183200" lon="-15.6858010">
        <ele>909.25400</ele>
        <time>2009-01-05T11:08:12Z</time>
      </trkpt>
      <trkpt lat="27.90188300" lon="-15.6858320">
        <ele>909.20700</ele>
        <time>2009-01-05T11:08:13Z</time>
      </trkpt>
      <trkpt lat="27.90193800" lon="-15.6858660">
        <ele>908.80800</ele>
        <time>2009-01-05T11:08:14Z</time>
      </trkpt>
      <trkpt lat="27.90198900" lon="-15.6859110">
        <ele>908.41800</ele>
        <time>2009-01-05T11:08:15Z</time>
      </trkpt>
      <trkpt lat="27.90203500" lon="-15.6859730">
        <ele>908.40500</ele>
        <time>2009-01-05T11:08:16Z</time>
      </trkpt>
      <trkpt lat="27.90207500" lon="-15.6860500">
        <ele>907.89600</ele>
        <time>2009-01-05T11:08:17Z</time>
      </trkpt>
      <trkpt lat="27.90211900" lon="-15.6861330">
        <ele>907.17200</ele>
        <time>2009-01-05T11:08:18Z</time>
      </trkpt>
      <trkpt lat="27.90217000" lon="-15.6862070">
        <ele>907.06700</ele>
        <time>2009-01-05T11:08:19Z</time>
      </trkpt>
      <trkpt lat="27.90224100" lon="-15.6862610">
        <ele>907.71200</ele>
        <time>2009-01-05T11:08:20Z</time>
      </trkpt>
      <trkpt lat="27.90231400" lon="-15.6862990">
        <ele>907.40900</ele>
        <time>2009-01-05T11:08:21Z</time>
      </trkpt>
      <trkpt lat="27.90238100" lon="-15.6863410">
        <ele>907.56400</ele>
        <time>2009-01-05T11:08:22Z</time>
      </trkpt>
      <trkpt lat="27.90243600" lon="-15.6863910">
        <ele>907.78900</ele>
        <time>2009-01-05T11:08:23Z</time>
      </trkpt>
      <trkpt lat="27.90248400" lon="-15.6864410">
        <ele>908.15100</ele>
        <time>2009-01-05T11:08:24Z</time>
      </trkpt>
      <trkpt lat="27.90252900" lon="-15.6864860">
        <ele>908.63300</ele>
        <time>2009-01-05T11:08:25Z</time>
      </trkpt>
      <trkpt lat="27.90257500" lon="-15.6865260">
        <ele>909.20900</ele>
        <time>2009-01-05T11:08:26Z</time>
      </trkpt>
      <trkpt lat="27.90262500" lon="-15.6865550">
        <ele>909.11200</ele>
        <time>2009-01-05T11:08:27Z</time>
      </trkpt>
      <trkpt lat="27.90268000" lon="-15.6865700">
        <ele>909.32300</ele>
        <time>2009-01-05T11:08:28Z</time>
      </trkpt>
      <trkpt lat="27.90273300" lon="-15.6865740">
        <ele>909.08300</ele>
        <time>2009-01-05T11:08:29Z</time>
      </trkpt>
      <trkpt lat="27.90278400" lon="-15.6865730">
        <ele>909.28700</ele>
        <time>2009-01-05T11:08:30Z</time>
      </trkpt>
      <trkpt lat="27.90283300" lon="-15.6865730">
        <ele>909.92200</ele>
        <time>2009-01-05T11:08:31Z</time>
      </trkpt>
      <trkpt lat="27.90288100" lon="-15.6865720">
        <ele>909.91800</ele>
        <time>2009-01-05T11:08:32Z</time>
      </trkpt>
      <trkpt lat="27.90292800" lon="-15.6865690">
        <ele>910.56300</ele>
        <time>2009-01-05T11:08:33Z</time>
      </trkpt>
      <trkpt lat="27.90297300" lon="-15.6865620">
        <ele>910.82800</ele>
        <time>2009-01-05T11:08:34Z</time>
      </trkpt>
      <trkpt lat="27.90301600" lon="-15.6865510">
        <ele>911.10100</ele>
        <time>2009-01-05T11:08:35Z</time>
      </trkpt>
      <trkpt lat="27.90305600" lon="-15.6865340">
        <ele>911.96900</ele>
        <time>2009-01-05T11:08:36Z</time>
      </trkpt>
      <trkpt lat="27.90309500" lon="-15.6865150">
        <ele>912.29500</ele>
        <time>2009-01-05T11:08:37Z</time>
      </trkpt>
      <trkpt lat="27.90313500" lon="-15.6864970">
        <ele>912.58600</ele>
        <time>2009-01-05T11:08:38Z</time>
      </trkpt>
      <trkpt lat="27.90317500" lon="-15.6864800">
        <ele>912.91900</ele>
        <time>2009-01-05T11:08:39Z</time>
      </trkpt>
      <trkpt lat="27.90321300" lon="-15.6864600">
        <ele>913.28200</ele>
        <time>2009-01-05T11:08:40Z</time>
      </trkpt>
      <trkpt lat="27.90325000" lon="-15.6864350">
        <ele>913.35700</ele>
        <time>2009-01-05T11:08:41Z</time>
      </trkpt>
      <trkpt lat="27.90328500" lon="-15.6864060">
        <ele>913.62400</ele>
        <time>2009-01-05T11:08:42Z</time>
      </trkpt>
      <trkpt lat="27.90331800" lon="-15.6863770">
        <ele>914.04800</ele>
        <time>2009-01-05T11:08:43Z</time>
      </trkpt>
      <trkpt lat="27.90335300" lon="-15.6863520">
        <ele>914.27300</ele>
        <time>2009-01-05T11:08:44Z</time>
      </trkpt>
      <trkpt lat="27.90339200" lon="-15.6863330">
        <ele>914.15800</ele>
        <time>2009-01-05T11:08:45Z</time>
      </trkpt>
      <trkpt lat="27.90343600" lon="-15.6863200">
        <ele>914.40400</ele>
        <time>2009-01-05T11:08:46Z</time>
      </trkpt>
      <trkpt lat="27.90348300" lon="-15.6863120">
        <ele>914.32600</ele>
        <time>2009-01-05T11:08:47Z</time>
      </trkpt>
      <trkpt lat="27.90353300" lon="-15.6863090">
        <ele>914.22900</ele>
        <time>2009-01-05T11:08:48Z</time>
      </trkpt>
      <trkpt lat="27.90358300" lon="-15.6863100">
        <ele>914.28300</ele>
        <time>2009-01-05T11:08:49Z</time>
      </trkpt>
      <trkpt lat="27.90363600" lon="-15.6863140">
        <ele>914.11800</ele>
        <time>2009-01-05T11:08:50Z</time>
      </trkpt>
      <trkpt lat="27.90368800" lon="-15.6863210">
        <ele>914.17700</ele>
        <time>2009-01-05T11:08:51Z</time>
      </trkpt>
      <trkpt lat="27.90374000" lon="-15.6863370">
        <ele>914.09100</ele>
        <time>2009-01-05T11:08:52Z</time>
      </trkpt>
      <trkpt lat="27.90378800" lon="-15.6863650">
        <ele>913.86000</ele>
        <time>2009-01-05T11:08:53Z</time>
      </trkpt>
      <trkpt lat="27.90382700" lon="-15.6864080">
        <ele>913.95600</ele>
        <time>2009-01-05T11:08:54Z</time>
      </trkpt>
      <trkpt lat="27.90385500" lon="-15.6864630">
        <ele>913.98200</ele>
        <time>2009-01-05T11:08:55Z</time>
      </trkpt>
      <trkpt lat="27.90387400" lon="-15.6865240">
        <ele>914.20800</ele>
        <time>2009-01-05T11:08:56Z</time>
      </trkpt>
      <trkpt lat="27.90389000" lon="-15.6865860">
        <ele>914.28600</ele>
        <time>2009-01-05T11:08:57Z</time>
      </trkpt>
      <trkpt lat="27.90390800" lon="-15.6866490">
        <ele>914.26100</ele>
        <time>2009-01-05T11:08:58Z</time>
      </trkpt>
      <trkpt lat="27.90393200" lon="-15.6867070">
        <ele>914.37800</ele>
        <time>2009-01-05T11:08:59Z</time>
      </trkpt>
      <trkpt lat="27.90397300" lon="-15.6867530">
        <ele>914.62000</ele>
        <time>2009-01-05T11:09:00Z</time>
      </trkpt>
      <trkpt lat="27.90402700" lon="-15.6867780">
        <ele>914.69300</ele>
        <time>2009-01-05T11:09:01Z</time>
      </trkpt>
      <trkpt lat="27.90408200" lon="-15.6867860">
        <ele>914.86000</ele>
        <time>2009-01-05T11:09:02Z</time>
      </trkpt>
      <trkpt lat="27.90413100" lon="-15.6867900">
        <ele>915.36900</ele>
        <time>2009-01-05T11:09:03Z</time>
      </trkpt>
      <trkpt lat="27.90417900" lon="-15.6867980">
        <ele>915.23500</ele>
        <time>2009-01-05T11:09:04Z</time>
      </trkpt>
      <trkpt lat="27.90423000" lon="-15.6868090">
        <ele>915.46700</ele>
        <time>2009-01-05T11:09:05Z</time>
      </trkpt>
      <trkpt lat="27.90428300" lon="-15.6868140">
        <ele>915.55100</ele>
        <time>2009-01-05T11:09:06Z</time>
      </trkpt>
      <trkpt lat="27.90433700" lon="-15.6868080">
        <ele>915.70300</ele>
        <time>2009-01-05T11:09:07Z</time>
      </trkpt>
      <trkpt lat="27.90438800" lon="-15.6867880">
        <ele>915.87900</ele>
        <time>2009-01-05T11:09:08Z</time>
      </trkpt>
      <trkpt lat="27.90443500" lon="-15.6867580">
        <ele>915.95000</ele>
        <time>2009-01-05T11:09:09Z</time>
      </trkpt>
      <trkpt lat="27.90447600" lon="-15.6867230">
        <ele>916.57500</ele>
        <time>2009-01-05T11:09:10Z</time>
      </trkpt>
      <trkpt lat="27.90451400" lon="-15.6866900">
        <ele>917.20300</ele>
        <time>2009-01-05T11:09:11Z</time>
      </trkpt>
      <trkpt lat="27.90455100" lon="-15.6866590">
        <ele>917.28700</ele>
        <time>2009-01-05T11:09:12Z</time>
      </trkpt>
      <trkpt lat="27.90459100" lon="-15.6866330">
        <ele>917.36800</ele>
        <time>2009-01-05T11:09:13Z</time>
      </trkpt>
      <trkpt lat="27.90463100" lon="-15.6866070">
        <ele>917.77500</ele>
        <time>2009-01-05T11:09:14Z</time>
      </trkpt>
      <trkpt lat="27.90467200" lon="-15.6865800">
        <ele>917.64200</ele>
        <time>2009-01-05T11:09:15Z</time>
      </trkpt>
      <trkpt lat="27.90471200" lon="-15.6865520">
        <ele>917.88000</ele>
        <time>2009-01-05T11:09:16Z</time>
      </trkpt>
      <trkpt lat="27.90475200" lon="-15.6865220">
        <ele>917.64800</ele>
        <time>2009-01-05T11:09:17Z</time>
      </trkpt>
      <trkpt lat="27.90478900" lon="-15.6864900">
        <ele>918.19200</ele>
        <time>2009-01-05T11:09:18Z</time>
      </trkpt>
      <trkpt lat="27.90482000" lon="-15.6864560">
        <ele>918.15800</ele>
        <time>2009-01-05T11:09:19Z</time>
      </trkpt>
      <trkpt lat="27.90484700" lon="-15.6864190">
        <ele>918.14500</ele>
        <time>2009-01-05T11:09:20Z</time>
      </trkpt>
      <trkpt lat="27.90487100" lon="-15.6863790">
        <ele>918.60800</ele>
        <time>2009-01-05T11:09:21Z</time>
      </trkpt>
      <trkpt lat="27.90489400" lon="-15.6863370">
        <ele>918.92800</ele>
        <time>2009-01-05T11:09:22Z</time>
      </trkpt>
      <trkpt lat="27.90491500" lon="-15.6862940">
        <ele>919.15800</ele>
        <time>2009-01-05T11:09:23Z</time>
      </trkpt>
      <trkpt lat="27.90493900" lon="-15.6862540">
        <ele>919.29900</ele>
        <time>2009-01-05T11:09:24Z</time>
      </trkpt>
      <trkpt lat="27.90497000" lon="-15.6862220">
        <ele>919.72700</ele>
        <time>2009-01-05T11:09:25Z</time>
      </trkpt>
      <trkpt lat="27.90500600" lon="-15.6862020">
        <ele>920.15300</ele>
        <time>2009-01-05T11:09:26Z</time>
      </trkpt>
      <trkpt lat="27.90504300" lon="-15.6861930">
        <ele>920.61100</ele>
        <time>2009-01-05T11:09:27Z</time>
      </trkpt>
      <trkpt lat="27.90507800" lon="-15.6861910">
        <ele>920.91800</ele>
        <time>2009-01-05T11:09:28Z</time>
      </trkpt>
      <trkpt lat="27.90511200" lon="-15.6861960">
        <ele>921.27900</ele>
        <time>2009-01-05T11:09:29Z</time>
      </trkpt>
      <trkpt lat="27.90514300" lon="-15.6862100">
        <ele>921.99800</ele>
        <time>2009-01-05T11:09:30Z</time>
      </trkpt>
      <trkpt lat="27.90517400" lon="-15.6862310">
        <ele>921.97300</ele>
        <time>2009-01-05T11:09:31Z</time>
      </trkpt>
      <trkpt lat="27.90520400" lon="-15.6862580">
        <ele>921.91300</ele>
        <time>2009-01-05T11:09:32Z</time>
      </trkpt>
      <trkpt lat="27.90523300" lon="-15.6862880">
        <ele>922.11200</ele>
        <time>2009-01-05T11:09:33Z</time>
      </trkpt>
      <trkpt lat="27.90526400" lon="-15.6863170">
        <ele>922.46700</ele>
        <time>2009-01-05T11:09:34Z</time>
      </trkpt>
      <trkpt lat="27.90529400" lon="-15.6863470">
        <ele>922.45200</ele>
        <time>2009-01-05T11:09:35Z</time>
      </trkpt>
      <trkpt lat="27.90532400" lon="-15.6863770">
        <ele>922.70400</ele>
        <time>2009-01-05T11:09:36Z</time>
      </trkpt>
      <trkpt lat="27.90535500" lon="-15.6864080">
        <ele>922.86000</ele>
        <time>2009-01-05T11:09:37Z</time>
      </trkpt>
      <trkpt lat="27.90538900" lon="-15.6864370">
        <ele>922.73700</ele>
        <time>2009-01-05T11:09:38Z</time>
      </trkpt>
      <trkpt lat="27.90542500" lon="-15.6864630">
        <ele>923.20000</ele>
        <time>2009-01-05T11:09:39Z</time>
      </trkpt>
      <trkpt lat="27.90546300" lon="-15.6864850">
        <ele>923.13500</ele>
        <time>2009-01-05T11:09:40Z</time>
      </trkpt>
      <trkpt lat="27.90550300" lon="-15.6865050">
        <ele>923.24600</ele>
        <time>2009-01-05T11:09:41Z</time>
      </trkpt>
      <trkpt lat="27.90554500" lon="-15.6865240">
        <ele>923.17000</ele>
        <time>2009-01-05T11:09:42Z</time>
      </trkpt>
      <trkpt lat="27.90558500" lon="-15.6865420">
        <ele>923.40800</ele>
        <time>2009-01-05T11:09:43Z</time>
      </trkpt>
      <trkpt lat="27.90562500" lon="-15.6865590">
        <ele>923.34000</ele>
        <time>2009-01-05T11:09:44Z</time>
      </trkpt>
      <trkpt lat="27.90566400" lon="-15.6865740">
        <ele>923.52500</ele>
        <time>2009-01-05T11:09:45Z</time>
      </trkpt>
      <trkpt lat="27.90570200" lon="-15.6865890">
        <ele>924.02800</ele>
        <time>2009-01-05T11:09:46Z</time>
      </trkpt>
      <trkpt lat="27.90573900" lon="-15.6866000">
        <ele>924.08600</ele>
        <time>2009-01-05T11:09:47Z</time>
      </trkpt>
      <trkpt lat="27.90577600" lon="-15.6866100">
        <ele>924.35600</ele>
        <time>2009-01-05T11:09:48Z</time>
      </trkpt>
      <trkpt lat="27.90581200" lon="-15.6866190">
        <ele>924.40400</ele>
        <time>2009-01-05T11:09:49Z</time>
      </trkpt>
      <trkpt lat="27.90584600" lon="-15.6866300">
        <ele>924.68700</ele>
        <time>2009-01-05T11:09:50Z</time>
      </trkpt>
      <trkpt lat="27.90588000" lon="-15.6866410">
        <ele>925.12600</ele>
        <time>2009-01-05T11:09:51Z</time>
      </trkpt>
      <trkpt lat="27.90591400" lon="-15.6866520">
        <ele>925.26000</ele>
        <time>2009-01-05T11:09:52Z</time>
      </trkpt>
      <trkpt lat="27.90594700" lon="-15.6866620">
        <ele>925.25000</ele>
        <time>2009-01-05T11:09:53Z</time>
      </trkpt>
      <trkpt lat="27.90598100" lon="-15.6866720">
        <ele>925.48000</ele>
        <time>2009-01-05T11:09:54Z</time>
      </trkpt>
      <trkpt lat="27.90601500" lon="-15.6866810">
        <ele>925.56400</ele>
        <time>2009-01-05T11:09:55Z</time>
      </trkpt>
      <trkpt lat="27.90605200" lon="-15.6866890">
        <ele>925.79400</ele>
        <time>2009-01-05T11:09:56Z</time>
      </trkpt>
      <trkpt lat="27.90608800" lon="-15.6866970">
        <ele>926.00600</ele>
        <time>2009-01-05T11:09:57Z</time>
      </trkpt>
      <trkpt lat="27.90612400" lon="-15.6867050">
        <ele>926.38100</ele>
        <time>2009-01-05T11:09:58Z</time>
      </trkpt>
      <trkpt lat="27.90615800" lon="-15.6867140">
        <ele>926.23300</ele>
        <time>2009-01-05T11:09:59Z</time>
      </trkpt>
      <trkpt lat="27.90619200" lon="-15.6867220">
        <ele>926.57400</ele>
        <time>2009-01-05T11:10:00Z</time>
      </trkpt>
      <trkpt lat="27.90622700" lon="-15.6867280">
        <ele>926.91500</ele>
        <time>2009-01-05T11:10:01Z</time>
      </trkpt>
      <trkpt lat="27.90626100" lon="-15.6867340">
        <ele>926.95200</ele>
        <time>2009-01-05T11:10:02Z</time>
      </trkpt>
      <trkpt lat="27.90629500" lon="-15.6867390">
        <ele>927.23700</ele>
        <time>2009-01-05T11:10:03Z</time>
      </trkpt>
      <trkpt lat="27.90633200" lon="-15.6867440">
        <ele>926.99900</ele>
        <time>2009-01-05T11:10:04Z</time>
      </trkpt>
      <trkpt lat="27.90637000" lon="-15.6867490">
        <ele>927.48300</ele>
        <time>2009-01-05T11:10:05Z</time>
      </trkpt>
      <trkpt lat="27.90640900" lon="-15.6867550">
        <ele>927.72900</ele>
        <time>2009-01-05T11:10:06Z</time>
      </trkpt>
      <trkpt lat="27.90644800" lon="-15.6867620">
        <ele>927.64700</ele>
        <time>2009-01-05T11:10:07Z</time>
      </trkpt>
      <trkpt lat="27.90648700" lon="-15.6867700">
        <ele>927.71000</ele>
        <time>2009-01-05T11:10:08Z</time>
      </trkpt>
      <trkpt lat="27.90652600" lon="-15.6867770">
        <ele>928.10100</ele>
        <time>2009-01-05T11:10:09Z</time>
      </trkpt>
      <trkpt lat="27.90656700" lon="-15.6867820">
        <ele>928.39400</ele>
        <time>2009-01-05T11:10:10Z</time>
      </trkpt>
      <trkpt lat="27.90660700" lon="-15.6867870">
        <ele>928.72200</ele>
        <time>2009-01-05T11:10:11Z</time>
      </trkpt>
      <trkpt lat="27.90664600" lon="-15.6867900">
        <ele>928.94700</ele>
        <time>2009-01-05T11:10:12Z</time>
      </trkpt>
      <trkpt lat="27.90668600" lon="-15.6867920">
        <ele>929.00200</ele>
        <time>2009-01-05T11:10:13Z</time>
      </trkpt>
      <trkpt lat="27.90672700" lon="-15.6867910">
        <ele>929.08700</ele>
        <time>2009-01-05T11:10:14Z</time>
      </trkpt>
      <trkpt lat="27.90677100" lon="-15.6867870">
        <ele>929.05000</ele>
        <time>2009-01-05T11:10:15Z</time>
      </trkpt>
      <trkpt lat="27.90681900" lon="-15.6867820">
        <ele>929.07400</ele>
        <time>2009-01-05T11:10:16Z</time>
      </trkpt>
      <trkpt lat="27.90687000" lon="-15.6867760">
        <ele>929.01600</ele>
        <time>2009-01-05T11:10:17Z</time>
      </trkpt>
      <trkpt lat="27.90692500" lon="-15.6867720">
        <ele>928.79100</ele>
        <time>2009-01-05T11:10:18Z</time>
      </trkpt>
      <trkpt lat="27.90698600" lon="-15.6867700">
        <ele>928.60300</ele>
        <time>2009-01-05T11:10:19Z</time>
      </trkpt>
      <trkpt lat="27.90705200" lon="-15.6867690">
        <ele>927.89400</ele>
        <time>2009-01-05T11:10:20Z</time>
      </trkpt>
      <trkpt lat="27.90712100" lon="-15.6867710">
        <ele>927.32000</ele>
        <time>2009-01-05T11:10:21Z</time>
      </trkpt>
      <trkpt lat="27.90719300" lon="-15.6867800">
        <ele>927.06100</ele>
        <time>2009-01-05T11:10:22Z</time>
      </trkpt>
      <trkpt lat="27.90726700" lon="-15.6867910">
        <ele>926.80400</ele>
        <time>2009-01-05T11:10:23Z</time>
      </trkpt>
      <trkpt lat="27.90734200" lon="-15.6868060">
        <ele>926.45700</ele>
        <time>2009-01-05T11:10:24Z</time>
      </trkpt>
      <trkpt lat="27.90741800" lon="-15.6868260">
        <ele>926.30900</ele>
        <time>2009-01-05T11:10:25Z</time>
      </trkpt>
      <trkpt lat="27.90749300" lon="-15.6868480">
        <ele>926.19900</ele>
        <time>2009-01-05T11:10:26Z</time>
      </trkpt>
      <trkpt lat="27.90756500" lon="-15.6868600">
        <ele>926.25700</ele>
        <time>2009-01-05T11:10:27Z</time>
      </trkpt>
      <trkpt lat="27.90763500" lon="-15.6868540">
        <ele>926.20900</ele>
        <time>2009-01-05T11:10:28Z</time>
      </trkpt>
      <trkpt lat="27.90770200" lon="-15.6868340">
        <ele>925.81500</ele>
        <time>2009-01-05T11:10:29Z</time>
      </trkpt>
      <trkpt lat="27.90777300" lon="-15.6868150">
        <ele>925.24100</ele>
        <time>2009-01-05T11:10:30Z</time>
      </trkpt>
      <trkpt lat="27.90784800" lon="-15.6868050">
        <ele>924.44700</ele>
        <time>2009-01-05T11:10:31Z</time>
      </trkpt>
      <trkpt lat="27.90793000" lon="-15.6868040">
        <ele>924.41500</ele>
        <time>2009-01-05T11:10:32Z</time>
      </trkpt>
      <trkpt lat="27.90837200" lon="-15.6871420">
        <ele>916.22900</ele>
        <time>2009-01-05T11:10:39Z</time>
      </trkpt>
      <trkpt lat="27.90837500" lon="-15.6872380">
        <ele>915.16400</ele>
        <time>2009-01-05T11:10:40Z</time>
      </trkpt>
      <trkpt lat="27.90840100" lon="-15.6873370">
        <ele>915.16400</ele>
        <time>2009-01-05T11:10:41Z</time>
      </trkpt>
      <trkpt lat="27.90851100" lon="-15.6875320">
        <ele>912.46900</ele>
        <time>2009-01-05T11:10:43Z</time>
      </trkpt>
      <trkpt lat="27.90856400" lon="-15.6876400">
        <ele>911.27700</ele>
        <time>2009-01-05T11:10:44Z</time>
      </trkpt>
      <trkpt lat="27.90860700" lon="-15.6877470">
        <ele>909.86700</ele>
        <time>2009-01-05T11:10:45Z</time>
      </trkpt>
      <trkpt lat="27.90864300" lon="-15.6878330">
        <ele>909.75800</ele>
        <time>2009-01-05T11:10:46Z</time>
      </trkpt>
      <trkpt lat="27.90868000" lon="-15.6878920">
        <ele>908.67900</ele>
        <time>2009-01-05T11:10:47Z</time>
      </trkpt>
      <trkpt lat="27.90872500" lon="-15.6879220">
        <ele>908.62700</ele>
        <time>2009-01-05T11:10:48Z</time>
      </trkpt>
      <trkpt lat="27.90876800" lon="-15.6878970">
        <ele>908.40700</ele>
        <time>2009-01-05T11:10:49Z</time>
      </trkpt>
      <trkpt lat="27.90879800" lon="-15.6878490">
        <ele>907.30300</ele>
        <time>2009-01-05T11:10:50Z</time>
      </trkpt>
      <trkpt lat="27.90881000" lon="-15.6877950">
        <ele>907.04100</ele>
        <time>2009-01-05T11:10:51Z</time>
      </trkpt>
      <trkpt lat="27.90882200" lon="-15.6877380">
        <ele>906.90300</ele>
        <time>2009-01-05T11:10:52Z</time>
      </trkpt>
      <trkpt lat="27.90884000" lon="-15.6876800">
        <ele>906.97500</ele>
        <time>2009-01-05T11:10:53Z</time>
      </trkpt>
      <trkpt lat="27.90886300" lon="-15.6876220">
        <ele>906.91200</ele>
        <time>2009-01-05T11:10:54Z</time>
      </trkpt>
      <trkpt lat="27.90888600" lon="-15.6875620">
        <ele>906.68200</ele>
        <time>2009-01-05T11:10:55Z</time>
      </trkpt>
      <trkpt lat="27.90891200" lon="-15.6875000">
        <ele>906.53400</ele>
        <time>2009-01-05T11:10:56Z</time>
      </trkpt>
      <trkpt lat="27.90893800" lon="-15.6874370">
        <ele>906.26500</ele>
        <time>2009-01-05T11:10:57Z</time>
      </trkpt>
      <trkpt lat="27.90896800" lon="-15.6873750">
        <ele>906.55600</ele>
        <time>2009-01-05T11:10:58Z</time>
      </trkpt>
      <trkpt lat="27.90900300" lon="-15.6873190">
        <ele>906.46700</ele>
        <time>2009-01-05T11:10:59Z</time>
      </trkpt>
      <trkpt lat="27.90904600" lon="-15.6872730">
        <ele>906.45900</ele>
        <time>2009-01-05T11:11:00Z</time>
      </trkpt>
      <trkpt lat="27.90909600" lon="-15.6872390">
        <ele>906.44700</ele>
        <time>2009-01-05T11:11:01Z</time>
      </trkpt>
      <trkpt lat="27.90915200" lon="-15.6872200">
        <ele>906.78800</ele>
        <time>2009-01-05T11:11:02Z</time>
      </trkpt>
      <trkpt lat="27.90921000" lon="-15.6872110">
        <ele>906.84100</ele>
        <time>2009-01-05T11:11:03Z</time>
      </trkpt>
      <trkpt lat="27.90926800" lon="-15.6872060">
        <ele>907.02400</ele>
        <time>2009-01-05T11:11:04Z</time>
      </trkpt>
      <trkpt lat="27.90932600" lon="-15.6872070">
        <ele>906.66200</ele>
        <time>2009-01-05T11:11:05Z</time>
      </trkpt>
      <trkpt lat="27.90938300" lon="-15.6872190">
        <ele>906.83400</ele>
        <time>2009-01-05T11:11:06Z</time>
      </trkpt>
      <trkpt lat="27.90943400" lon="-15.6872490">
        <ele>906.92700</ele>
        <time>2009-01-05T11:11:07Z</time>
      </trkpt>
      <trkpt lat="27.90947600" lon="-15.6872930">
        <ele>906.96200</ele>
        <time>2009-01-05T11:11:08Z</time>
      </trkpt>
      <trkpt lat="27.90951100" lon="-15.6873430">
        <ele>907.05900</ele>
        <time>2009-01-05T11:11:09Z</time>
      </trkpt>
      <trkpt lat="27.90954800" lon="-15.6873890">
        <ele>907.19900</ele>
        <time>2009-01-05T11:11:10Z</time>
      </trkpt>
      <trkpt lat="27.90959300" lon="-15.6874260">
        <ele>907.11200</ele>
        <time>2009-01-05T11:11:11Z</time>
      </trkpt>
      <trkpt lat="27.90964500" lon="-15.6874550">
        <ele>906.48800</ele>
        <time>2009-01-05T11:11:12Z</time>
      </trkpt>
      <trkpt lat="27.90970400" lon="-15.6874840">
        <ele>905.73300</ele>
        <time>2009-01-05T11:11:13Z</time>
      </trkpt>
      <trkpt lat="27.90977000" lon="-15.6875190">
        <ele>904.91000</ele>
        <time>2009-01-05T11:11:14Z</time>
      </trkpt>
      <trkpt lat="27.90984300" lon="-15.6875590">
        <ele>903.63600</ele>
        <time>2009-01-05T11:11:15Z</time>
      </trkpt>
      <trkpt lat="27.90992000" lon="-15.6876060">
        <ele>903.31400</ele>
        <time>2009-01-05T11:11:16Z</time>
      </trkpt>
      <trkpt lat="27.90999500" lon="-15.6876630">
        <ele>902.70600</ele>
        <time>2009-01-05T11:11:17Z</time>
      </trkpt>
      <trkpt lat="27.91005500" lon="-15.6877370">
        <ele>901.40000</ele>
        <time>2009-01-05T11:11:18Z</time>
      </trkpt>
      <trkpt lat="27.91009200" lon="-15.6878310">
        <ele>900.13600</ele>
        <time>2009-01-05T11:11:19Z</time>
      </trkpt>
      <trkpt lat="27.91010600" lon="-15.6879370">
        <ele>899.07000</ele>
        <time>2009-01-05T11:11:20Z</time>
      </trkpt>
      <trkpt lat="27.91011600" lon="-15.6880370">
        <ele>898.19300</ele>
        <time>2009-01-05T11:11:21Z</time>
      </trkpt>
      <trkpt lat="27.91013900" lon="-15.6881200">
        <ele>897.17400</ele>
        <time>2009-01-05T11:11:22Z</time>
      </trkpt>
      <trkpt lat="27.91018800" lon="-15.6881850">
        <ele>896.24100</ele>
        <time>2009-01-05T11:11:23Z</time>
      </trkpt>
      <trkpt lat="27.91025700" lon="-15.6882400">
        <ele>894.63400</ele>
        <time>2009-01-05T11:11:24Z</time>
      </trkpt>
      <trkpt lat="27.91033400" lon="-15.6883040">
        <ele>893.36700</ele>
        <time>2009-01-05T11:11:25Z</time>
      </trkpt>
      <trkpt lat="27.91040300" lon="-15.6883850">
        <ele>892.96400</ele>
        <time>2009-01-05T11:11:26Z</time>
      </trkpt>
      <trkpt lat="27.91046200" lon="-15.6884680">
        <ele>892.59500</ele>
        <time>2009-01-05T11:11:27Z</time>
      </trkpt>
      <trkpt lat="27.91052100" lon="-15.6885320">
        <ele>892.24500</ele>
        <time>2009-01-05T11:11:28Z</time>
      </trkpt>
      <trkpt lat="27.91059100" lon="-15.6885710">
        <ele>891.50600</ele>
        <time>2009-01-05T11:11:29Z</time>
      </trkpt>
      <trkpt lat="27.91066600" lon="-15.6885860">
        <ele>891.05800</ele>
        <time>2009-01-05T11:11:30Z</time>
      </trkpt>
      <trkpt lat="27.91074000" lon="-15.6885920">
        <ele>890.40700</ele>
        <time>2009-01-05T11:11:31Z</time>
      </trkpt>
      <trkpt lat="27.91081300" lon="-15.6886000">
        <ele>889.53400</ele>
        <time>2009-01-05T11:11:32Z</time>
      </trkpt>
      <trkpt lat="27.91088600" lon="-15.6886190">
        <ele>888.95700</ele>
        <time>2009-01-05T11:11:33Z</time>
      </trkpt>
      <trkpt lat="27.91095600" lon="-15.6886580">
        <ele>887.45400</ele>
        <time>2009-01-05T11:11:34Z</time>
      </trkpt>
      <trkpt lat="27.91102100" lon="-15.6887220">
        <ele>886.84500</ele>
        <time>2009-01-05T11:11:35Z</time>
      </trkpt>
      <trkpt lat="27.91107200" lon="-15.6888090">
        <ele>886.11400</ele>
        <time>2009-01-05T11:11:36Z</time>
      </trkpt>
      <trkpt lat="27.91110200" lon="-15.6889160">
        <ele>884.80500</ele>
        <time>2009-01-05T11:11:37Z</time>
      </trkpt>
      <trkpt lat="27.91111800" lon="-15.6890330">
        <ele>883.88600</ele>
        <time>2009-01-05T11:11:38Z</time>
      </trkpt>
      <trkpt lat="27.91113600" lon="-15.6891450">
        <ele>883.65200</ele>
        <time>2009-01-05T11:11:39Z</time>
      </trkpt>
      <trkpt lat="27.91117000" lon="-15.6892440">
        <ele>883.47800</ele>
        <time>2009-01-05T11:11:40Z</time>
      </trkpt>
      <trkpt lat="27.91122200" lon="-15.6893230">
        <ele>884.31300</ele>
        <time>2009-01-05T11:11:41Z</time>
      </trkpt>
      <trkpt lat="27.91127600" lon="-15.6893850">
        <ele>885.50500</ele>
        <time>2009-01-05T11:11:42Z</time>
      </trkpt>
      <trkpt lat="27.91132200" lon="-15.6894340">
        <ele>886.39900</ele>
        <time>2009-01-05T11:11:43Z</time>
      </trkpt>
      <trkpt lat="27.91135700" lon="-15.6894770">
        <ele>887.13000</ele>
        <time>2009-01-05T11:11:44Z</time>
      </trkpt>
      <trkpt lat="27.91138800" lon="-15.6895130">
        <ele>887.22200</ele>
        <time>2009-01-05T11:11:45Z</time>
      </trkpt>
      <trkpt lat="27.91142300" lon="-15.6895420">
        <ele>887.27200</ele>
        <time>2009-01-05T11:11:46Z</time>
      </trkpt>
      <trkpt lat="27.91146000" lon="-15.6895630">
        <ele>887.54100</ele>
        <time>2009-01-05T11:11:47Z</time>
      </trkpt>
      <trkpt lat="27.91149600" lon="-15.6895740">
        <ele>888.10300</ele>
        <time>2009-01-05T11:11:48Z</time>
      </trkpt>
      <trkpt lat="27.91152600" lon="-15.6895770">
        <ele>888.58600</ele>
        <time>2009-01-05T11:11:49Z</time>
      </trkpt>
      <trkpt lat="27.91155300" lon="-15.6895740">
        <ele>888.81900</ele>
        <time>2009-01-05T11:11:50Z</time>
      </trkpt>
      <trkpt lat="27.91157800" lon="-15.6895670">
        <ele>889.14100</ele>
        <time>2009-01-05T11:11:51Z</time>
      </trkpt>
      <trkpt lat="27.91160100" lon="-15.6895600">
        <ele>889.57600</ele>
        <time>2009-01-05T11:11:52Z</time>
      </trkpt>
      <trkpt lat="27.91162500" lon="-15.6895480">
        <ele>890.05200</ele>
        <time>2009-01-05T11:11:53Z</time>
      </trkpt>
      <trkpt lat="27.91164600" lon="-15.6895370">
        <ele>890.19000</ele>
        <time>2009-01-05T11:11:54Z</time>
      </trkpt>
      <trkpt lat="27.91166800" lon="-15.6895240">
        <ele>890.41700</ele>
        <time>2009-01-05T11:11:55Z</time>
      </trkpt>
      <trkpt lat="27.91168900" lon="-15.6895080">
        <ele>890.27700</ele>
        <time>2009-01-05T11:11:56Z</time>
      </trkpt>
      <trkpt lat="27.91170800" lon="-15.6894880">
        <ele>890.73900</ele>
        <time>2009-01-05T11:11:57Z</time>
      </trkpt>
      <trkpt lat="27.91172500" lon="-15.6894640">
        <ele>891.23100</ele>
        <time>2009-01-05T11:11:58Z</time>
      </trkpt>
      <trkpt lat="27.91174300" lon="-15.6894380">
        <ele>891.27100</ele>
        <time>2009-01-05T11:11:59Z</time>
      </trkpt>
      <trkpt lat="27.91176400" lon="-15.6894140">
        <ele>891.32300</ele>
        <time>2009-01-05T11:12:00Z</time>
      </trkpt>
      <trkpt lat="27.91178800" lon="-15.6893900">
        <ele>891.51900</ele>
        <time>2009-01-05T11:12:01Z</time>
      </trkpt>
      <trkpt lat="27.91181100" lon="-15.6893690">
        <ele>891.50900</ele>
        <time>2009-01-05T11:12:02Z</time>
      </trkpt>
      <trkpt lat="27.91183400" lon="-15.6893480">
        <ele>891.91300</ele>
        <time>2009-01-05T11:12:03Z</time>
      </trkpt>
      <trkpt lat="27.91186000" lon="-15.6893290">
        <ele>892.31500</ele>
        <time>2009-01-05T11:12:04Z</time>
      </trkpt>
      <trkpt lat="27.91188600" lon="-15.6893110">
        <ele>892.37700</ele>
        <time>2009-01-05T11:12:05Z</time>
      </trkpt>
      <trkpt lat="27.91191200" lon="-15.6892930">
        <ele>892.69700</ele>
        <time>2009-01-05T11:12:06Z</time>
      </trkpt>
      <trkpt lat="27.91193700" lon="-15.6892750">
        <ele>892.65200</ele>
        <time>2009-01-05T11:12:07Z</time>
      </trkpt>
      <trkpt lat="27.91196100" lon="-15.6892580">
        <ele>892.90400</ele>
        <time>2009-01-05T11:12:08Z</time>
      </trkpt>
      <trkpt lat="27.91198600" lon="-15.6892410">
        <ele>893.27400</ele>
        <time>2009-01-05T11:12:09Z</time>
      </trkpt>
      <trkpt lat="27.91201000" lon="-15.6892240">
        <ele>893.42000</ele>
        <time>2009-01-05T11:12:10Z</time>
      </trkpt>
      <trkpt lat="27.91203300" lon="-15.6892070">
        <ele>893.54000</ele>
        <time>2009-01-05T11:12:11Z</time>
      </trkpt>
      <trkpt lat="27.91205700" lon="-15.6891910">
        <ele>893.57500</ele>
        <time>2009-01-05T11:12:12Z</time>
      </trkpt>
      <trkpt lat="27.91208100" lon="-15.6891760">
        <ele>894.12000</ele>
        <time>2009-01-05T11:12:13Z</time>
      </trkpt>
      <trkpt lat="27.91210300" lon="-15.6891610">
        <ele>894.29500</ele>
        <time>2009-01-05T11:12:14Z</time>
      </trkpt>
      <trkpt lat="27.91212500" lon="-15.6891460">
        <ele>894.75100</ele>
        <time>2009-01-05T11:12:15Z</time>
      </trkpt>
      <trkpt lat="27.91214600" lon="-15.6891310">
        <ele>894.76700</ele>
        <time>2009-01-05T11:12:16Z</time>
      </trkpt>
      <trkpt lat="27.91216700" lon="-15.6891150">
        <ele>894.81000</ele>
        <time>2009-01-05T11:12:17Z</time>
      </trkpt>
      <trkpt lat="27.91219000" lon="-15.6891030">
        <ele>895.19400</ele>
        <time>2009-01-05T11:12:18Z</time>
      </trkpt>
      <trkpt lat="27.91221400" lon="-15.6890960">
        <ele>895.37000</ele>
        <time>2009-01-05T11:12:19Z</time>
      </trkpt>
      <trkpt lat="27.91224100" lon="-15.6890930">
        <ele>895.42100</ele>
        <time>2009-01-05T11:12:20Z</time>
      </trkpt>
      <trkpt lat="27.91226800" lon="-15.6890940">
        <ele>895.92900</ele>
        <time>2009-01-05T11:12:21Z</time>
      </trkpt>
      <trkpt lat="27.91229700" lon="-15.6890960">
        <ele>896.07300</ele>
        <time>2009-01-05T11:12:22Z</time>
      </trkpt>
      <trkpt lat="27.91232500" lon="-15.6891010">
        <ele>895.91000</ele>
        <time>2009-01-05T11:12:23Z</time>
      </trkpt>
      <trkpt lat="27.91235400" lon="-15.6891060">
        <ele>896.02600</ele>
        <time>2009-01-05T11:12:24Z</time>
      </trkpt>
      <trkpt lat="27.91238200" lon="-15.6891100">
        <ele>896.06700</ele>
        <time>2009-01-05T11:12:25Z</time>
      </trkpt>
      <trkpt lat="27.91241000" lon="-15.6891150">
        <ele>896.45100</ele>
        <time>2009-01-05T11:12:26Z</time>
      </trkpt>
      <trkpt lat="27.91243700" lon="-15.6891220">
        <ele>896.63900</ele>
        <time>2009-01-05T11:12:27Z</time>
      </trkpt>
      <trkpt lat="27.91246200" lon="-15.6891320">
        <ele>897.22900</ele>
        <time>2009-01-05T11:12:28Z</time>
      </trkpt>
      <trkpt lat="27.91248500" lon="-15.6891450">
        <ele>897.62100</ele>
        <time>2009-01-05T11:12:29Z</time>
      </trkpt>
      <trkpt lat="27.91250600" lon="-15.6891580">
        <ele>897.71600</ele>
        <time>2009-01-05T11:12:30Z</time>
      </trkpt>
      <trkpt lat="27.91252500" lon="-15.6891720">
        <ele>898.30900</ele>
        <time>2009-01-05T11:12:31Z</time>
      </trkpt>
      <trkpt lat="27.91254500" lon="-15.6891850">
        <ele>898.60500</ele>
        <time>2009-01-05T11:12:32Z</time>
      </trkpt>
      <trkpt lat="27.91256400" lon="-15.6891970">
        <ele>898.48800</ele>
        <time>2009-01-05T11:12:33Z</time>
      </trkpt>
      <trkpt lat="27.91258400" lon="-15.6892070">
        <ele>898.75200</ele>
        <time>2009-01-05T11:12:34Z</time>
      </trkpt>
      <trkpt lat="27.91260400" lon="-15.6892170">
        <ele>898.81000</ele>
        <time>2009-01-05T11:12:35Z</time>
      </trkpt>
      <trkpt lat="27.91262400" lon="-15.6892270">
        <ele>899.36800</ele>
        <time>2009-01-05T11:12:36Z</time>
      </trkpt>
      <trkpt lat="27.91264600" lon="-15.6892320">
        <ele>899.79900</ele>
        <time>2009-01-05T11:12:37Z</time>
      </trkpt>
      <trkpt lat="27.91266900" lon="-15.6892350">
        <ele>900.03300</ele>
        <time>2009-01-05T11:12:38Z</time>
      </trkpt>
      <trkpt lat="27.91269200" lon="-15.6892340">
        <ele>900.03600</ele>
        <time>2009-01-05T11:12:39Z</time>
      </trkpt>
      <trkpt lat="27.91271600" lon="-15.6892290">
        <ele>900.42900</ele>
        <time>2009-01-05T11:12:40Z</time>
      </trkpt>
      <trkpt lat="27.91273800" lon="-15.6892220">
        <ele>900.51800</ele>
        <time>2009-01-05T11:12:41Z</time>
      </trkpt>
      <trkpt lat="27.91275900" lon="-15.6892130">
        <ele>900.91700</ele>
        <time>2009-01-05T11:12:42Z</time>
      </trkpt>
      <trkpt lat="27.91277900" lon="-15.6892010">
        <ele>901.09600</ele>
        <time>2009-01-05T11:12:43Z</time>
      </trkpt>
      <trkpt lat="27.91279600" lon="-15.6891850">
        <ele>901.12200</ele>
        <time>2009-01-05T11:12:44Z</time>
      </trkpt>
      <trkpt lat="27.91281200" lon="-15.6891670">
        <ele>901.39200</ele>
        <time>2009-01-05T11:12:45Z</time>
      </trkpt>
      <trkpt lat="27.91282700" lon="-15.6891470">
        <ele>901.66400</ele>
        <time>2009-01-05T11:12:46Z</time>
      </trkpt>
      <trkpt lat="27.91284100" lon="-15.6891270">
        <ele>902.04000</ele>
        <time>2009-01-05T11:12:47Z</time>
      </trkpt>
      <trkpt lat="27.91285500" lon="-15.6891070">
        <ele>902.20100</ele>
        <time>2009-01-05T11:12:48Z</time>
      </trkpt>
      <trkpt lat="27.91286900" lon="-15.6890880">
        <ele>902.60300</ele>
        <time>2009-01-05T11:12:49Z</time>
      </trkpt>
      <trkpt lat="27.91288400" lon="-15.6890690">
        <ele>903.10000</ele>
        <time>2009-01-05T11:12:50Z</time>
      </trkpt>
      <trkpt lat="27.91290000" lon="-15.6890500">
        <ele>903.28800</ele>
        <time>2009-01-05T11:12:51Z</time>
      </trkpt>
      <trkpt lat="27.91291400" lon="-15.6890310">
        <ele>903.60000</ele>
        <time>2009-01-05T11:12:52Z</time>
      </trkpt>
      <trkpt lat="27.91292900" lon="-15.6890120">
        <ele>903.71900</ele>
        <time>2009-01-05T11:12:53Z</time>
      </trkpt>
      <trkpt lat="27.91294500" lon="-15.6889940">
        <ele>903.98900</ele>
        <time>2009-01-05T11:12:54Z</time>
      </trkpt>
      <trkpt lat="27.91296000" lon="-15.6889740">
        <ele>903.85700</ele>
        <time>2009-01-05T11:12:55Z</time>
      </trkpt>
      <trkpt lat="27.91297700" lon="-15.6889540">
        <ele>904.05900</ele>
        <time>2009-01-05T11:12:56Z</time>
      </trkpt>
      <trkpt lat="27.91299500" lon="-15.6889370">
        <ele>904.49000</ele>
        <time>2009-01-05T11:12:57Z</time>
      </trkpt>
      <trkpt lat="27.91301400" lon="-15.6889200">
        <ele>904.54600</ele>
        <time>2009-01-05T11:12:58Z</time>
      </trkpt>
      <trkpt lat="27.91303300" lon="-15.6889030">
        <ele>904.61500</ele>
        <time>2009-01-05T11:12:59Z</time>
      </trkpt>
      <trkpt lat="27.91305200" lon="-15.6888860">
        <ele>904.87200</ele>
        <time>2009-01-05T11:13:00Z</time>
      </trkpt>
      <trkpt lat="27.91307100" lon="-15.6888700">
        <ele>905.17400</ele>
        <time>2009-01-05T11:13:01Z</time>
      </trkpt>
      <trkpt lat="27.91309000" lon="-15.6888530">
        <ele>905.33300</ele>
        <time>2009-01-05T11:13:02Z</time>
      </trkpt>
      <trkpt lat="27.91310900" lon="-15.6888370">
        <ele>905.47100</ele>
        <time>2009-01-05T11:13:03Z</time>
      </trkpt>
      <trkpt lat="27.91312700" lon="-15.6888210">
        <ele>905.55700</ele>
        <time>2009-01-05T11:13:04Z</time>
      </trkpt>
      <trkpt lat="27.91314400" lon="-15.6888040">
        <ele>905.87200</ele>
        <time>2009-01-05T11:13:05Z</time>
      </trkpt>
      <trkpt lat="27.91316100" lon="-15.6887860">
        <ele>905.94900</ele>
        <time>2009-01-05T11:13:06Z</time>
      </trkpt>
      <trkpt lat="27.91317800" lon="-15.6887670">
        <ele>906.25200</ele>
        <time>2009-01-05T11:13:07Z</time>
      </trkpt>
      <trkpt lat="27.91319600" lon="-15.6887490">
        <ele>906.43500</ele>
        <time>2009-01-05T11:13:08Z</time>
      </trkpt>
      <trkpt lat="27.91321400" lon="-15.6887310">
        <ele>906.71600</ele>
        <time>2009-01-05T11:13:09Z</time>
      </trkpt>
      <trkpt lat="27.91323300" lon="-15.6887140">
        <ele>906.85200</ele>
        <time>2009-01-05T11:13:10Z</time>
      </trkpt>
      <trkpt lat="27.91325400" lon="-15.6886980">
        <ele>907.12600</ele>
        <time>2009-01-05T11:13:11Z</time>
      </trkpt>
      <trkpt lat="27.91327600" lon="-15.6886830">
        <ele>907.29400</ele>
        <time>2009-01-05T11:13:12Z</time>
      </trkpt>
      <trkpt lat="27.91329800" lon="-15.6886680">
        <ele>907.55600</ele>
        <time>2009-01-05T11:13:13Z</time>
      </trkpt>
      <trkpt lat="27.91331900" lon="-15.6886520">
        <ele>907.62400</ele>
        <time>2009-01-05T11:13:14Z</time>
      </trkpt>
      <trkpt lat="27.91334000" lon="-15.6886370">
        <ele>907.58000</ele>
        <time>2009-01-05T11:13:15Z</time>
      </trkpt>
      <trkpt lat="27.91336100" lon="-15.6886220">
        <ele>907.94600</ele>
        <time>2009-01-05T11:13:16Z</time>
      </trkpt>
      <trkpt lat="27.91338300" lon="-15.6886060">
        <ele>908.07500</ele>
        <time>2009-01-05T11:13:17Z</time>
      </trkpt>
      <trkpt lat="27.91340400" lon="-15.6885880">
        <ele>908.03400</ele>
        <time>2009-01-05T11:13:18Z</time>
      </trkpt>
      <trkpt lat="27.91342400" lon="-15.6885690">
        <ele>908.31800</ele>
        <time>2009-01-05T11:13:19Z</time>
      </trkpt>
      <trkpt lat="27.91344400" lon="-15.6885500">
        <ele>908.42900</ele>
        <time>2009-01-05T11:13:20Z</time>
      </trkpt>
      <trkpt lat="27.91346400" lon="-15.6885310">
        <ele>908.63900</ele>
        <time>2009-01-05T11:13:21Z</time>
      </trkpt>
      <trkpt lat="27.91348300" lon="-15.6885100">
        <ele>908.91300</ele>
        <time>2009-01-05T11:13:22Z</time>
      </trkpt>
      <trkpt lat="27.91350300" lon="-15.6884880">
        <ele>909.08200</ele>
        <time>2009-01-05T11:13:23Z</time>
      </trkpt>
      <trkpt lat="27.91352500" lon="-15.6884650">
        <ele>909.31900</ele>
        <time>2009-01-05T11:13:24Z</time>
      </trkpt>
      <trkpt lat="27.91354800" lon="-15.6884420">
        <ele>909.27100</ele>
        <time>2009-01-05T11:13:25Z</time>
      </trkpt>
      <trkpt lat="27.91357200" lon="-15.6884180">
        <ele>909.49700</ele>
        <time>2009-01-05T11:13:26Z</time>
      </trkpt>
      <trkpt lat="27.91359600" lon="-15.6883930">
        <ele>909.43800</ele>
        <time>2009-01-05T11:13:27Z</time>
      </trkpt>
      <trkpt lat="27.91361900" lon="-15.6883670">
        <ele>909.65400</ele>
        <time>2009-01-05T11:13:28Z</time>
      </trkpt>
      <trkpt lat="27.91364000" lon="-15.6883380">
        <ele>909.46800</ele>
        <time>2009-01-05T11:13:29Z</time>
      </trkpt>
      <trkpt lat="27.91366200" lon="-15.6883080">
        <ele>909.54400</ele>
        <time>2009-01-05T11:13:30Z</time>
      </trkpt>
      <trkpt lat="27.91368300" lon="-15.6882780">
        <ele>909.59900</ele>
        <time>2009-01-05T11:13:31Z</time>
      </trkpt>
      <trkpt lat="27.91370600" lon="-15.6882480">
        <ele>909.82000</ele>
        <time>2009-01-05T11:13:32Z</time>
      </trkpt>
      <trkpt lat="27.91373100" lon="-15.6882220">
        <ele>909.69800</ele>
        <time>2009-01-05T11:13:33Z</time>
      </trkpt>
      <trkpt lat="27.91376000" lon="-15.6881980">
        <ele>910.13100</ele>
        <time>2009-01-05T11:13:34Z</time>
      </trkpt>
      <trkpt lat="27.91379000" lon="-15.6881800">
        <ele>910.28100</ele>
        <time>2009-01-05T11:13:35Z</time>
      </trkpt>
      <trkpt lat="27.91382300" lon="-15.6881650">
        <ele>910.23000</ele>
        <time>2009-01-05T11:13:36Z</time>
      </trkpt>
      <trkpt lat="27.91385600" lon="-15.6881510">
        <ele>910.53100</ele>
        <time>2009-01-05T11:13:37Z</time>
      </trkpt>
      <trkpt lat="27.91388800" lon="-15.6881370">
        <ele>910.46900</ele>
        <time>2009-01-05T11:13:38Z</time>
      </trkpt>
      <trkpt lat="27.91391900" lon="-15.6881260">
        <ele>910.71700</ele>
        <time>2009-01-05T11:13:39Z</time>
      </trkpt>
      <trkpt lat="27.91395100" lon="-15.6881190">
        <ele>911.25800</ele>
        <time>2009-01-05T11:13:40Z</time>
      </trkpt>
      <trkpt lat="27.91398400" lon="-15.6881160">
        <ele>911.53800</ele>
        <time>2009-01-05T11:13:41Z</time>
      </trkpt>
      <trkpt lat="27.91401700" lon="-15.6881140">
        <ele>911.90900</ele>
        <time>2009-01-05T11:13:42Z</time>
      </trkpt>
      <trkpt lat="27.91404900" lon="-15.6881080">
        <ele>912.11500</ele>
        <time>2009-01-05T11:13:43Z</time>
      </trkpt>
      <trkpt lat="27.91408100" lon="-15.6881030">
        <ele>912.35200</ele>
        <time>2009-01-05T11:13:44Z</time>
      </trkpt>
      <trkpt lat="27.91411200" lon="-15.6880950">
        <ele>912.50400</ele>
        <time>2009-01-05T11:13:45Z</time>
      </trkpt>
      <trkpt lat="27.91414100" lon="-15.6880840">
        <ele>912.92600</ele>
        <time>2009-01-05T11:13:46Z</time>
      </trkpt>
      <trkpt lat="27.91416800" lon="-15.6880730">
        <ele>913.45300</ele>
        <time>2009-01-05T11:13:47Z</time>
      </trkpt>
      <trkpt lat="27.91419300" lon="-15.6880610">
        <ele>913.67100</ele>
        <time>2009-01-05T11:13:48Z</time>
      </trkpt>
      <trkpt lat="27.91421700" lon="-15.6880480">
        <ele>914.01100</ele>
        <time>2009-01-05T11:13:49Z</time>
      </trkpt>
      <trkpt lat="27.91423900" lon="-15.6880340">
        <ele>914.48300</ele>
        <time>2009-01-05T11:13:50Z</time>
      </trkpt>
      <trkpt lat="27.91426100" lon="-15.6880190">
        <ele>914.92300</ele>
        <time>2009-01-05T11:13:51Z</time>
      </trkpt>
      <trkpt lat="27.91428200" lon="-15.6880030">
        <ele>915.22000</ele>
        <time>2009-01-05T11:13:52Z</time>
      </trkpt>
      <trkpt lat="27.91430300" lon="-15.6879870">
        <ele>915.56300</ele>
        <time>2009-01-05T11:13:53Z</time>
      </trkpt>
      <trkpt lat="27.91432300" lon="-15.6879690">
        <ele>915.66500</ele>
        <time>2009-01-05T11:13:54Z</time>
      </trkpt>
      <trkpt lat="27.91434300" lon="-15.6879510">
        <ele>916.15300</ele>
        <time>2009-01-05T11:13:55Z</time>
      </trkpt>
      <trkpt lat="27.91436200" lon="-15.6879310">
        <ele>916.12000</ele>
        <time>2009-01-05T11:13:56Z</time>
      </trkpt>
      <trkpt lat="27.91438200" lon="-15.6879120">
        <ele>916.77200</ele>
        <time>2009-01-05T11:13:57Z</time>
      </trkpt>
      <trkpt lat="27.91440200" lon="-15.6878920">
        <ele>917.04300</ele>
        <time>2009-01-05T11:13:58Z</time>
      </trkpt>
      <trkpt lat="27.91442200" lon="-15.6878720">
        <ele>917.28600</ele>
        <time>2009-01-05T11:13:59Z</time>
      </trkpt>
      <trkpt lat="27.91444000" lon="-15.6878540">
        <ele>917.34800</ele>
        <time>2009-01-05T11:14:00Z</time>
      </trkpt>
      <trkpt lat="27.91445900" lon="-15.6878360">
        <ele>917.74600</ele>
        <time>2009-01-05T11:14:01Z</time>
      </trkpt>
      <trkpt lat="27.91448100" lon="-15.6878230">
        <ele>918.06000</ele>
        <time>2009-01-05T11:14:02Z</time>
      </trkpt>
      <trkpt lat="27.91450500" lon="-15.6878150">
        <ele>918.27100</ele>
        <time>2009-01-05T11:14:03Z</time>
      </trkpt>
      <trkpt lat="27.91453200" lon="-15.6878090">
        <ele>918.64500</ele>
        <time>2009-01-05T11:14:04Z</time>
      </trkpt>
      <trkpt lat="27.91455900" lon="-15.6878050">
        <ele>918.91100</ele>
        <time>2009-01-05T11:14:05Z</time>
      </trkpt>
      <trkpt lat="27.91458800" lon="-15.6878050">
        <ele>918.76200</ele>
        <time>2009-01-05T11:14:06Z</time>
      </trkpt>
      <trkpt lat="27.91461500" lon="-15.6878120">
        <ele>918.96000</ele>
        <time>2009-01-05T11:14:07Z</time>
      </trkpt>
      <trkpt lat="27.91464100" lon="-15.6878250">
        <ele>919.03600</ele>
        <time>2009-01-05T11:14:08Z</time>
      </trkpt>
      <trkpt lat="27.91466400" lon="-15.6878450">
        <ele>918.97200</ele>
        <time>2009-01-05T11:14:09Z</time>
      </trkpt>
      <trkpt lat="27.91468500" lon="-15.6878680">
        <ele>919.32500</ele>
        <time>2009-01-05T11:14:10Z</time>
      </trkpt>
      <trkpt lat="27.91470600" lon="-15.6878920">
        <ele>919.45900</ele>
        <time>2009-01-05T11:14:11Z</time>
      </trkpt>
      <trkpt lat="27.91472600" lon="-15.6879160">
        <ele>919.90800</ele>
        <time>2009-01-05T11:14:12Z</time>
      </trkpt>
      <trkpt lat="27.91474400" lon="-15.6879410">
        <ele>919.69000</ele>
        <time>2009-01-05T11:14:13Z</time>
      </trkpt>
      <trkpt lat="27.91475700" lon="-15.6879690">
        <ele>920.01400</ele>
        <time>2009-01-05T11:14:14Z</time>
      </trkpt>
      <trkpt lat="27.91476700" lon="-15.6879980">
        <ele>920.17200</ele>
        <time>2009-01-05T11:14:15Z</time>
      </trkpt>
      <trkpt lat="27.91477400" lon="-15.6880270">
        <ele>920.76500</ele>
        <time>2009-01-05T11:14:16Z</time>
      </trkpt>
      <trkpt lat="27.91478100" lon="-15.6880560">
        <ele>920.96000</ele>
        <time>2009-01-05T11:14:17Z</time>
      </trkpt>
      <trkpt lat="27.91478800" lon="-15.6880840">
        <ele>921.21700</ele>
        <time>2009-01-05T11:14:18Z</time>
      </trkpt>
      <trkpt lat="27.91479500" lon="-15.6881110">
        <ele>921.35600</ele>
        <time>2009-01-05T11:14:19Z</time>
      </trkpt>
      <trkpt lat="27.91480300" lon="-15.6881370">
        <ele>921.70900</ele>
        <time>2009-01-05T11:14:20Z</time>
      </trkpt>
      <trkpt lat="27.91481200" lon="-15.6881630">
        <ele>921.97700</ele>
        <time>2009-01-05T11:14:21Z</time>
      </trkpt>
      <trkpt lat="27.91482100" lon="-15.6881880">
        <ele>922.13100</ele>
        <time>2009-01-05T11:14:22Z</time>
      </trkpt>
      <trkpt lat="27.91483100" lon="-15.6882120">
        <ele>922.27500</ele>
        <time>2009-01-05T11:14:23Z</time>
      </trkpt>
      <trkpt lat="27.91484400" lon="-15.6882340">
        <ele>922.97700</ele>
        <time>2009-01-05T11:14:24Z</time>
      </trkpt>
      <trkpt lat="27.91485900" lon="-15.6882550">
        <ele>922.95700</ele>
        <time>2009-01-05T11:14:25Z</time>
      </trkpt>
      <trkpt lat="27.91487400" lon="-15.6882750">
        <ele>923.14000</ele>
        <time>2009-01-05T11:14:26Z</time>
      </trkpt>
      <trkpt lat="27.91488900" lon="-15.6882960">
        <ele>923.25800</ele>
        <time>2009-01-05T11:14:27Z</time>
      </trkpt>
      <trkpt lat="27.91490700" lon="-15.6883140">
        <ele>923.59500</ele>
        <time>2009-01-05T11:14:28Z</time>
      </trkpt>
      <trkpt lat="27.91492700" lon="-15.6883260">
        <ele>923.93900</ele>
        <time>2009-01-05T11:14:29Z</time>
      </trkpt>
      <trkpt lat="27.91494900" lon="-15.6883340">
        <ele>924.26800</ele>
        <time>2009-01-05T11:14:30Z</time>
      </trkpt>
      <trkpt lat="27.91497200" lon="-15.6883440">
        <ele>924.87400</ele>
        <time>2009-01-05T11:14:31Z</time>
      </trkpt>
      <trkpt lat="27.91499500" lon="-15.6883530">
        <ele>925.12100</ele>
        <time>2009-01-05T11:14:32Z</time>
      </trkpt>
      <trkpt lat="27.91501800" lon="-15.6883620">
        <ele>924.98000</ele>
        <time>2009-01-05T11:14:33Z</time>
      </trkpt>
      <trkpt lat="27.91504100" lon="-15.6883710">
        <ele>925.24000</ele>
        <time>2009-01-05T11:14:34Z</time>
      </trkpt>
      <trkpt lat="27.91506600" lon="-15.6883790">
        <ele>925.43400</ele>
        <time>2009-01-05T11:14:35Z</time>
      </trkpt>
      <trkpt lat="27.91509000" lon="-15.6883860">
        <ele>925.52200</ele>
        <time>2009-01-05T11:14:36Z</time>
      </trkpt>
      <trkpt lat="27.91511400" lon="-15.6883940">
        <ele>925.90400</ele>
        <time>2009-01-05T11:14:37Z</time>
      </trkpt>
      <trkpt lat="27.91513700" lon="-15.6884020">
        <ele>926.22500</ele>
        <time>2009-01-05T11:14:38Z</time>
      </trkpt>
      <trkpt lat="27.91516000" lon="-15.6884110">
        <ele>926.64600</ele>
        <time>2009-01-05T11:14:39Z</time>
      </trkpt>
      <trkpt lat="27.91518400" lon="-15.6884190">
        <ele>926.63100</ele>
        <time>2009-01-05T11:14:40Z</time>
      </trkpt>
      <trkpt lat="27.91520700" lon="-15.6884300">
        <ele>927.18900</ele>
        <time>2009-01-05T11:14:41Z</time>
      </trkpt>
      <trkpt lat="27.91522800" lon="-15.6884470">
        <ele>927.30600</ele>
        <time>2009-01-05T11:14:42Z</time>
      </trkpt>
      <trkpt lat="27.91524700" lon="-15.6884660">
        <ele>927.43300</ele>
        <time>2009-01-05T11:14:43Z</time>
      </trkpt>
      <trkpt lat="27.91526500" lon="-15.6884860">
        <ele>927.97200</ele>
        <time>2009-01-05T11:14:44Z</time>
      </trkpt>
      <trkpt lat="27.91528100" lon="-15.6885070">
        <ele>927.93300</ele>
        <time>2009-01-05T11:14:45Z</time>
      </trkpt>
      <trkpt lat="27.91529500" lon="-15.6885290">
        <ele>928.43000</ele>
        <time>2009-01-05T11:14:46Z</time>
      </trkpt>
      <trkpt lat="27.91531100" lon="-15.6885480">
        <ele>928.56200</ele>
        <time>2009-01-05T11:14:47Z</time>
      </trkpt>
      <trkpt lat="27.91532600" lon="-15.6885660">
        <ele>928.78600</ele>
        <time>2009-01-05T11:14:48Z</time>
      </trkpt>
      <trkpt lat="27.91533900" lon="-15.6885860">
        <ele>929.11600</ele>
        <time>2009-01-05T11:14:49Z</time>
      </trkpt>
      <trkpt lat="27.91534900" lon="-15.6886080">
        <ele>929.57000</ele>
        <time>2009-01-05T11:14:50Z</time>
      </trkpt>
      <trkpt lat="27.91535900" lon="-15.6886310">
        <ele>929.50900</ele>
        <time>2009-01-05T11:14:51Z</time>
      </trkpt>
      <trkpt lat="27.91536900" lon="-15.6886530">
        <ele>929.84600</ele>
        <time>2009-01-05T11:14:52Z</time>
      </trkpt>
      <trkpt lat="27.91537900" lon="-15.6886760">
        <ele>929.81200</ele>
        <time>2009-01-05T11:14:53Z</time>
      </trkpt>
      <trkpt lat="27.91538600" lon="-15.6887000">
        <ele>929.98000</ele>
        <time>2009-01-05T11:14:54Z</time>
      </trkpt>
      <trkpt lat="27.91539300" lon="-15.6887250">
        <ele>930.29700</ele>
        <time>2009-01-05T11:14:55Z</time>
      </trkpt>
      <trkpt lat="27.91539800" lon="-15.6887500">
        <ele>930.76000</ele>
        <time>2009-01-05T11:14:56Z</time>
      </trkpt>
      <trkpt lat="27.91540000" lon="-15.6887750">
        <ele>930.99200</ele>
        <time>2009-01-05T11:14:57Z</time>
      </trkpt>
      <trkpt lat="27.91540400" lon="-15.6887990">
        <ele>931.35100</ele>
        <time>2009-01-05T11:14:58Z</time>
      </trkpt>
      <trkpt lat="27.91540600" lon="-15.6888220">
        <ele>931.55100</ele>
        <time>2009-01-05T11:14:59Z</time>
      </trkpt>
      <trkpt lat="27.91540700" lon="-15.6888460">
        <ele>932.15600</ele>
        <time>2009-01-05T11:15:00Z</time>
      </trkpt>
      <trkpt lat="27.91540700" lon="-15.6888710">
        <ele>932.40200</ele>
        <time>2009-01-05T11:15:01Z</time>
      </trkpt>
      <trkpt lat="27.91540700" lon="-15.6888940">
        <ele>932.68400</ele>
        <time>2009-01-05T11:15:02Z</time>
      </trkpt>
      <trkpt lat="27.91540600" lon="-15.6889200">
        <ele>933.09300</ele>
        <time>2009-01-05T11:15:03Z</time>
      </trkpt>
      <trkpt lat="27.91540600" lon="-15.6889470">
        <ele>933.08400</ele>
        <time>2009-01-05T11:15:04Z</time>
      </trkpt>
      <trkpt lat="27.91540500" lon="-15.6889750">
        <ele>933.81200</ele>
        <time>2009-01-05T11:15:05Z</time>
      </trkpt>
      <trkpt lat="27.91540400" lon="-15.6890030">
        <ele>933.78800</ele>
        <time>2009-01-05T11:15:06Z</time>
      </trkpt>
      <trkpt lat="27.91540300" lon="-15.6890310">
        <ele>933.85500</ele>
        <time>2009-01-05T11:15:07Z</time>
      </trkpt>
      <trkpt lat="27.91540300" lon="-15.6890580">
        <ele>934.01300</ele>
        <time>2009-01-05T11:15:08Z</time>
      </trkpt>
      <trkpt lat="27.91540500" lon="-15.6890860">
        <ele>934.21500</ele>
        <time>2009-01-05T11:15:09Z</time>
      </trkpt>
      <trkpt lat="27.91540900" lon="-15.6891130">
        <ele>934.49100</ele>
        <time>2009-01-05T11:15:10Z</time>
      </trkpt>
      <trkpt lat="27.91541500" lon="-15.6891380">
        <ele>934.78100</ele>
        <time>2009-01-05T11:15:11Z</time>
      </trkpt>
      <trkpt lat="27.91542600" lon="-15.6891620">
        <ele>934.81200</ele>
        <time>2009-01-05T11:15:12Z</time>
      </trkpt>
      <trkpt lat="27.91543900" lon="-15.6891880">
        <ele>935.47600</ele>
        <time>2009-01-05T11:15:13Z</time>
      </trkpt>
      <trkpt lat="27.91545400" lon="-15.6892110">
        <ele>935.41400</ele>
        <time>2009-01-05T11:15:14Z</time>
      </trkpt>
      <trkpt lat="27.91547200" lon="-15.6892320">
        <ele>935.64100</ele>
        <time>2009-01-05T11:15:15Z</time>
      </trkpt>
      <trkpt lat="27.91549000" lon="-15.6892500">
        <ele>935.78500</ele>
        <time>2009-01-05T11:15:16Z</time>
      </trkpt>
      <trkpt lat="27.91551100" lon="-15.6892650">
        <ele>935.88300</ele>
        <time>2009-01-05T11:15:17Z</time>
      </trkpt>
      <trkpt lat="27.91553200" lon="-15.6892770">
        <ele>935.94900</ele>
        <time>2009-01-05T11:15:18Z</time>
      </trkpt>
      <trkpt lat="27.91555300" lon="-15.6892910">
        <ele>936.04100</ele>
        <time>2009-01-05T11:15:19Z</time>
      </trkpt>
      <trkpt lat="27.91557400" lon="-15.6893050">
        <ele>936.56100</ele>
        <time>2009-01-05T11:15:20Z</time>
      </trkpt>
      <trkpt lat="27.91559600" lon="-15.6893190">
        <ele>936.67500</ele>
        <time>2009-01-05T11:15:21Z</time>
      </trkpt>
      <trkpt lat="27.91561900" lon="-15.6893290">
        <ele>937.16100</ele>
        <time>2009-01-05T11:15:22Z</time>
      </trkpt>
      <trkpt lat="27.91564200" lon="-15.6893370">
        <ele>936.99700</ele>
        <time>2009-01-05T11:15:23Z</time>
      </trkpt>
      <trkpt lat="27.91566600" lon="-15.6893450">
        <ele>937.03400</ele>
        <time>2009-01-05T11:15:24Z</time>
      </trkpt>
      <trkpt lat="27.91569100" lon="-15.6893540">
        <ele>937.18400</ele>
        <time>2009-01-05T11:15:25Z</time>
      </trkpt>
      <trkpt lat="27.91571700" lon="-15.6893600">
        <ele>937.26600</ele>
        <time>2009-01-05T11:15:26Z</time>
      </trkpt>
      <trkpt lat="27.91574300" lon="-15.6893650">
        <ele>937.56200</ele>
        <time>2009-01-05T11:15:27Z</time>
      </trkpt>
      <trkpt lat="27.91577000" lon="-15.6893700">
        <ele>937.50800</ele>
        <time>2009-01-05T11:15:28Z</time>
      </trkpt>
      <trkpt lat="27.91579700" lon="-15.6893750">
        <ele>937.76200</ele>
        <time>2009-01-05T11:15:29Z</time>
      </trkpt>
      <trkpt lat="27.91582400" lon="-15.6893780">
        <ele>937.82200</ele>
        <time>2009-01-05T11:15:30Z</time>
      </trkpt>
      <trkpt lat="27.91585100" lon="-15.6893810">
        <ele>937.69300</ele>
        <time>2009-01-05T11:15:31Z</time>
      </trkpt>
      <trkpt lat="27.91587800" lon="-15.6893820">
        <ele>937.84000</ele>
        <time>2009-01-05T11:15:32Z</time>
      </trkpt>
      <trkpt lat="27.91590500" lon="-15.6893840">
        <ele>938.02500</ele>
        <time>2009-01-05T11:15:33Z</time>
      </trkpt>
      <trkpt lat="27.91593200" lon="-15.6893850">
        <ele>938.18600</ele>
        <time>2009-01-05T11:15:34Z</time>
      </trkpt>
      <trkpt lat="27.91595900" lon="-15.6893850">
        <ele>938.51000</ele>
        <time>2009-01-05T11:15:35Z</time>
      </trkpt>
      <trkpt lat="27.91598500" lon="-15.6893840">
        <ele>938.59200</ele>
        <time>2009-01-05T11:15:36Z</time>
      </trkpt>
      <trkpt lat="27.91601000" lon="-15.6893820">
        <ele>938.43600</ele>
        <time>2009-01-05T11:15:37Z</time>
      </trkpt>
      <trkpt lat="27.91603300" lon="-15.6893770">
        <ele>938.88500</ele>
        <time>2009-01-05T11:15:38Z</time>
      </trkpt>
      <trkpt lat="27.91605700" lon="-15.6893700">
        <ele>938.85600</ele>
        <time>2009-01-05T11:15:39Z</time>
      </trkpt>
      <trkpt lat="27.91608000" lon="-15.6893620">
        <ele>939.14700</ele>
        <time>2009-01-05T11:15:40Z</time>
      </trkpt>
      <trkpt lat="27.91610200" lon="-15.6893510">
        <ele>939.24200</ele>
        <time>2009-01-05T11:15:41Z</time>
      </trkpt>
      <trkpt lat="27.91612300" lon="-15.6893380">
        <ele>939.33800</ele>
        <time>2009-01-05T11:15:42Z</time>
      </trkpt>
      <trkpt lat="27.91614300" lon="-15.6893230">
        <ele>939.39900</ele>
        <time>2009-01-05T11:15:43Z</time>
      </trkpt>
      <trkpt lat="27.91616100" lon="-15.6893090">
        <ele>939.72300</ele>
        <time>2009-01-05T11:15:44Z</time>
      </trkpt>
      <trkpt lat="27.91617900" lon="-15.6892940">
        <ele>939.67900</ele>
        <time>2009-01-05T11:15:45Z</time>
      </trkpt>
      <trkpt lat="27.91619700" lon="-15.6892790">
        <ele>940.09700</ele>
        <time>2009-01-05T11:15:46Z</time>
      </trkpt>
      <trkpt lat="27.91621400" lon="-15.6892630">
        <ele>940.28600</ele>
        <time>2009-01-05T11:15:47Z</time>
      </trkpt>
      <trkpt lat="27.91623100" lon="-15.6892470">
        <ele>940.96900</ele>
        <time>2009-01-05T11:15:48Z</time>
      </trkpt>
      <trkpt lat="27.91624800" lon="-15.6892330">
        <ele>941.02600</ele>
        <time>2009-01-05T11:15:49Z</time>
      </trkpt>
      <trkpt lat="27.91626300" lon="-15.6892160">
        <ele>941.18600</ele>
        <time>2009-01-05T11:15:50Z</time>
      </trkpt>
      <trkpt lat="27.91627700" lon="-15.6891970">
        <ele>941.42500</ele>
        <time>2009-01-05T11:15:51Z</time>
      </trkpt>
      <trkpt lat="27.91628900" lon="-15.6891760">
        <ele>941.27100</ele>
        <time>2009-01-05T11:15:52Z</time>
      </trkpt>
      <trkpt lat="27.91630100" lon="-15.6891540">
        <ele>941.94900</ele>
        <time>2009-01-05T11:15:53Z</time>
      </trkpt>
      <trkpt lat="27.91631200" lon="-15.6891320">
        <ele>942.22000</ele>
        <time>2009-01-05T11:15:54Z</time>
      </trkpt>
      <trkpt lat="27.91632300" lon="-15.6891080">
        <ele>942.43800</ele>
        <time>2009-01-05T11:15:55Z</time>
      </trkpt>
      <trkpt lat="27.91633200" lon="-15.6890830">
        <ele>942.62700</ele>
        <time>2009-01-05T11:15:56Z</time>
      </trkpt>
      <trkpt lat="27.91634000" lon="-15.6890580">
        <ele>942.96600</ele>
        <time>2009-01-05T11:15:57Z</time>
      </trkpt>
      <trkpt lat="27.91634900" lon="-15.6890320">
        <ele>943.26100</ele>
        <time>2009-01-05T11:15:58Z</time>
      </trkpt>
      <trkpt lat="27.91635700" lon="-15.6890060">
        <ele>942.95300</ele>
        <time>2009-01-05T11:15:59Z</time>
      </trkpt>
      <trkpt lat="27.91636400" lon="-15.6889790">
        <ele>943.21900</ele>
        <time>2009-01-05T11:16:00Z</time>
      </trkpt>
      <trkpt lat="27.91637000" lon="-15.6889510">
        <ele>943.21200</ele>
        <time>2009-01-05T11:16:01Z</time>
      </trkpt>
      <trkpt lat="27.91637400" lon="-15.6889240">
        <ele>943.59700</ele>
        <time>2009-01-05T11:16:02Z</time>
      </trkpt>
      <trkpt lat="27.91637600" lon="-15.6888960">
        <ele>943.38200</ele>
        <time>2009-01-05T11:16:03Z</time>
      </trkpt>
      <trkpt lat="27.91637600" lon="-15.6888680">
        <ele>943.66600</ele>
        <time>2009-01-05T11:16:04Z</time>
      </trkpt>
      <trkpt lat="27.91637300" lon="-15.6888400">
        <ele>943.63300</ele>
        <time>2009-01-05T11:16:05Z</time>
      </trkpt>
      <trkpt lat="27.91637000" lon="-15.6888120">
        <ele>943.57900</ele>
        <time>2009-01-05T11:16:06Z</time>
      </trkpt>
      <trkpt lat="27.91636600" lon="-15.6887850">
        <ele>943.92700</ele>
        <time>2009-01-05T11:16:07Z</time>
      </trkpt>
      <trkpt lat="27.91636200" lon="-15.6887590">
        <ele>943.89900</ele>
        <time>2009-01-05T11:16:08Z</time>
      </trkpt>
      <trkpt lat="27.91635900" lon="-15.6887340">
        <ele>944.05400</ele>
        <time>2009-01-05T11:16:09Z</time>
      </trkpt>
      <trkpt lat="27.91635600" lon="-15.6887110">
        <ele>944.59500</ele>
        <time>2009-01-05T11:16:10Z</time>
      </trkpt>
      <trkpt lat="27.91635400" lon="-15.6886880">
        <ele>944.76100</ele>
        <time>2009-01-05T11:16:11Z</time>
      </trkpt>
      <trkpt lat="27.91634900" lon="-15.6886650">
        <ele>944.86800</ele>
        <time>2009-01-05T11:16:12Z</time>
      </trkpt>
      <trkpt lat="27.91634600" lon="-15.6886420">
        <ele>945.23700</ele>
        <time>2009-01-05T11:16:13Z</time>
      </trkpt>
      <trkpt lat="27.91634500" lon="-15.6886190">
        <ele>945.32600</ele>
        <time>2009-01-05T11:16:14Z</time>
      </trkpt>
      <trkpt lat="27.91634500" lon="-15.6885950">
        <ele>945.64200</ele>
        <time>2009-01-05T11:16:15Z</time>
      </trkpt>
      <trkpt lat="27.91634500" lon="-15.6885710">
        <ele>945.75700</ele>
        <time>2009-01-05T11:16:16Z</time>
      </trkpt>
      <trkpt lat="27.91634300" lon="-15.6885470">
        <ele>945.99600</ele>
        <time>2009-01-05T11:16:17Z</time>
      </trkpt>
      <trkpt lat="27.91633800" lon="-15.6885240">
        <ele>946.36000</ele>
        <time>2009-01-05T11:16:18Z</time>
      </trkpt>
      <trkpt lat="27.91633000" lon="-15.6885010">
        <ele>946.82400</ele>
        <time>2009-01-05T11:16:19Z</time>
      </trkpt>
      <trkpt lat="27.91632300" lon="-15.6884780">
        <ele>946.64400</ele>
        <time>2009-01-05T11:16:20Z</time>
      </trkpt>
      <trkpt lat="27.91631300" lon="-15.6884560">
        <ele>946.87000</ele>
        <time>2009-01-05T11:16:21Z</time>
      </trkpt>
      <trkpt lat="27.91630100" lon="-15.6884330">
        <ele>947.17500</ele>
        <time>2009-01-05T11:16:22Z</time>
      </trkpt>
      <trkpt lat="27.91628700" lon="-15.6884100">
        <ele>947.27700</ele>
        <time>2009-01-05T11:16:23Z</time>
      </trkpt>
      <trkpt lat="27.91627400" lon="-15.6883850">
        <ele>947.29700</ele>
        <time>2009-01-05T11:16:24Z</time>
      </trkpt>
      <trkpt lat="27.91626200" lon="-15.6883590">
        <ele>947.30700</ele>
        <time>2009-01-05T11:16:25Z</time>
      </trkpt>
      <trkpt lat="27.91625100" lon="-15.6883320">
        <ele>947.58900</ele>
        <time>2009-01-05T11:16:26Z</time>
      </trkpt>
      <trkpt lat="27.91624200" lon="-15.6883060">
        <ele>947.82500</ele>
        <time>2009-01-05T11:16:27Z</time>
      </trkpt>
      <trkpt lat="27.91623300" lon="-15.6882790">
        <ele>948.06000</ele>
        <time>2009-01-05T11:16:28Z</time>
      </trkpt>
      <trkpt lat="27.91622400" lon="-15.6882520">
        <ele>948.26200</ele>
        <time>2009-01-05T11:16:29Z</time>
      </trkpt>
      <trkpt lat="27.91621900" lon="-15.6882250">
        <ele>948.01500</ele>
        <time>2009-01-05T11:16:30Z</time>
      </trkpt>
      <trkpt lat="27.91621700" lon="-15.6881980">
        <ele>948.07500</ele>
        <time>2009-01-05T11:16:31Z</time>
      </trkpt>
      <trkpt lat="27.91621900" lon="-15.6881720">
        <ele>948.27100</ele>
        <time>2009-01-05T11:16:32Z</time>
      </trkpt>
      <trkpt lat="27.91622500" lon="-15.6881470">
        <ele>948.72200</ele>
        <time>2009-01-05T11:16:33Z</time>
      </trkpt>
      <trkpt lat="27.91623700" lon="-15.6881230">
        <ele>948.87200</ele>
        <time>2009-01-05T11:16:34Z</time>
      </trkpt>
      <trkpt lat="27.91625100" lon="-15.6881010">
        <ele>948.69100</ele>
        <time>2009-01-05T11:16:35Z</time>
      </trkpt>
      <trkpt lat="27.91626700" lon="-15.6880810">
        <ele>949.14500</ele>
        <time>2009-01-05T11:16:36Z</time>
      </trkpt>
      <trkpt lat="27.91628400" lon="-15.6880620">
        <ele>949.37400</ele>
        <time>2009-01-05T11:16:37Z</time>
      </trkpt>
      <trkpt lat="27.91630200" lon="-15.6880440">
        <ele>949.56300</ele>
        <time>2009-01-05T11:16:38Z</time>
      </trkpt>
      <trkpt lat="27.91631900" lon="-15.6880250">
        <ele>949.78700</ele>
        <time>2009-01-05T11:16:39Z</time>
      </trkpt>
      <trkpt lat="27.91633600" lon="-15.6880070">
        <ele>949.63500</ele>
        <time>2009-01-05T11:16:40Z</time>
      </trkpt>
      <trkpt lat="27.91635200" lon="-15.6879900">
        <ele>950.00700</ele>
        <time>2009-01-05T11:16:41Z</time>
      </trkpt>
      <trkpt lat="27.91636900" lon="-15.6879720">
        <ele>950.34000</ele>
        <time>2009-01-05T11:16:42Z</time>
      </trkpt>
      <trkpt lat="27.91638500" lon="-15.6879540">
        <ele>950.56900</ele>
        <time>2009-01-05T11:16:43Z</time>
      </trkpt>
      <trkpt lat="27.91640000" lon="-15.6879360">
        <ele>950.73200</ele>
        <time>2009-01-05T11:16:44Z</time>
      </trkpt>
      <trkpt lat="27.91641500" lon="-15.6879170">
        <ele>950.95400</ele>
        <time>2009-01-05T11:16:45Z</time>
      </trkpt>
      <trkpt lat="27.91643100" lon="-15.6879010">
        <ele>951.21200</ele>
        <time>2009-01-05T11:16:46Z</time>
      </trkpt>
      <trkpt lat="27.91644800" lon="-15.6878870">
        <ele>951.63700</ele>
        <time>2009-01-05T11:16:47Z</time>
      </trkpt>
      <trkpt lat="27.91646600" lon="-15.6878720">
        <ele>951.65000</ele>
        <time>2009-01-05T11:16:48Z</time>
      </trkpt>
      <trkpt lat="27.91648300" lon="-15.6878550">
        <ele>951.64900</ele>
        <time>2009-01-05T11:16:49Z</time>
      </trkpt>
      <trkpt lat="27.91650200" lon="-15.6878390">
        <ele>952.06600</ele>
        <time>2009-01-05T11:16:50Z</time>
      </trkpt>
      <trkpt lat="27.91652000" lon="-15.6878220">
        <ele>952.15500</ele>
        <time>2009-01-05T11:16:51Z</time>
      </trkpt>
      <trkpt lat="27.91653700" lon="-15.6878030">
        <ele>952.25300</ele>
        <time>2009-01-05T11:16:52Z</time>
      </trkpt>
      <trkpt lat="27.91655500" lon="-15.6877840">
        <ele>952.60900</ele>
        <time>2009-01-05T11:16:53Z</time>
      </trkpt>
      <trkpt lat="27.91657300" lon="-15.6877660">
        <ele>952.42100</ele>
        <time>2009-01-05T11:16:54Z</time>
      </trkpt>
      <trkpt lat="27.91659100" lon="-15.6877470">
        <ele>952.73500</ele>
        <time>2009-01-05T11:16:55Z</time>
      </trkpt>
      <trkpt lat="27.91661000" lon="-15.6877290">
        <ele>952.47300</ele>
        <time>2009-01-05T11:16:56Z</time>
      </trkpt>
      <trkpt lat="27.91663100" lon="-15.6877120">
        <ele>952.73900</ele>
        <time>2009-01-05T11:16:57Z</time>
      </trkpt>
      <trkpt lat="27.91665400" lon="-15.6876980">
        <ele>953.02400</ele>
        <time>2009-01-05T11:16:58Z</time>
      </trkpt>
      <trkpt lat="27.91667700" lon="-15.6876850">
        <ele>953.13800</ele>
        <time>2009-01-05T11:16:59Z</time>
      </trkpt>
      <trkpt lat="27.91670200" lon="-15.6876740">
        <ele>953.21600</ele>
        <time>2009-01-05T11:17:00Z</time>
      </trkpt>
      <trkpt lat="27.91672700" lon="-15.6876690">
        <ele>953.31400</ele>
        <time>2009-01-05T11:17:01Z</time>
      </trkpt>
      <trkpt lat="27.91675200" lon="-15.6876670">
        <ele>953.37400</ele>
        <time>2009-01-05T11:17:02Z</time>
      </trkpt>
      <trkpt lat="27.91677700" lon="-15.6876670">
        <ele>953.74900</ele>
        <time>2009-01-05T11:17:03Z</time>
      </trkpt>
      <trkpt lat="27.91680200" lon="-15.6876710">
        <ele>953.62700</ele>
        <time>2009-01-05T11:17:04Z</time>
      </trkpt>
      <trkpt lat="27.91682600" lon="-15.6876760">
        <ele>953.98800</ele>
        <time>2009-01-05T11:17:05Z</time>
      </trkpt>
      <trkpt lat="27.91685000" lon="-15.6876830">
        <ele>954.26500</ele>
        <time>2009-01-05T11:17:06Z</time>
      </trkpt>
      <trkpt lat="27.91687100" lon="-15.6876910">
        <ele>954.46000</ele>
        <time>2009-01-05T11:17:07Z</time>
      </trkpt>
      <trkpt lat="27.91689200" lon="-15.6877030">
        <ele>954.87600</ele>
        <time>2009-01-05T11:17:08Z</time>
      </trkpt>
      <trkpt lat="27.91691100" lon="-15.6877160">
        <ele>955.04200</ele>
        <time>2009-01-05T11:17:09Z</time>
      </trkpt>
      <trkpt lat="27.91693000" lon="-15.6877300">
        <ele>955.17800</ele>
        <time>2009-01-05T11:17:10Z</time>
      </trkpt>
      <trkpt lat="27.91694700" lon="-15.6877470">
        <ele>955.41300</ele>
        <time>2009-01-05T11:17:11Z</time>
      </trkpt>
      <trkpt lat="27.91696500" lon="-15.6877640">
        <ele>955.97200</ele>
        <time>2009-01-05T11:17:12Z</time>
      </trkpt>
      <trkpt lat="27.91698200" lon="-15.6877820">
        <ele>955.67500</ele>
        <time>2009-01-05T11:17:13Z</time>
      </trkpt>
      <trkpt lat="27.91700100" lon="-15.6877970">
        <ele>955.86600</ele>
        <time>2009-01-05T11:17:14Z</time>
      </trkpt>
      <trkpt lat="27.91701900" lon="-15.6878120">
        <ele>955.63500</ele>
        <time>2009-01-05T11:17:15Z</time>
      </trkpt>
      <trkpt lat="27.91703700" lon="-15.6878260">
        <ele>956.02200</ele>
        <time>2009-01-05T11:17:16Z</time>
      </trkpt>
      <trkpt lat="27.91705600" lon="-15.6878390">
        <ele>956.36400</ele>
        <time>2009-01-05T11:17:17Z</time>
      </trkpt>
      <trkpt lat="27.91707600" lon="-15.6878500">
        <ele>956.81700</ele>
        <time>2009-01-05T11:17:18Z</time>
      </trkpt>
      <trkpt lat="27.91709600" lon="-15.6878570">
        <ele>956.94700</ele>
        <time>2009-01-05T11:17:19Z</time>
      </trkpt>
      <trkpt lat="27.91711800" lon="-15.6878600">
        <ele>957.14800</ele>
        <time>2009-01-05T11:17:20Z</time>
      </trkpt>
      <trkpt lat="27.91713900" lon="-15.6878610">
        <ele>957.25100</ele>
        <time>2009-01-05T11:17:21Z</time>
      </trkpt>
      <trkpt lat="27.91716000" lon="-15.6878590">
        <ele>957.42800</ele>
        <time>2009-01-05T11:17:22Z</time>
      </trkpt>
      <trkpt lat="27.91718300" lon="-15.6878550">
        <ele>957.34900</ele>
        <time>2009-01-05T11:17:23Z</time>
      </trkpt>
      <trkpt lat="27.91720500" lon="-15.6878510">
        <ele>957.81400</ele>
        <time>2009-01-05T11:17:24Z</time>
      </trkpt>
      <trkpt lat="27.91722800" lon="-15.6878460">
        <ele>957.55200</ele>
        <time>2009-01-05T11:17:25Z</time>
      </trkpt>
      <trkpt lat="27.91725100" lon="-15.6878420">
        <ele>957.44100</ele>
        <time>2009-01-05T11:17:26Z</time>
      </trkpt>
      <trkpt lat="27.91727300" lon="-15.6878390">
        <ele>957.73200</ele>
        <time>2009-01-05T11:17:27Z</time>
      </trkpt>
      <trkpt lat="27.91729700" lon="-15.6878380">
        <ele>957.83500</ele>
        <time>2009-01-05T11:17:28Z</time>
      </trkpt>
      <trkpt lat="27.91732000" lon="-15.6878390">
        <ele>957.97000</ele>
        <time>2009-01-05T11:17:29Z</time>
      </trkpt>
      <trkpt lat="27.91734400" lon="-15.6878410">
        <ele>958.48500</ele>
        <time>2009-01-05T11:17:30Z</time>
      </trkpt>
      <trkpt lat="27.91736700" lon="-15.6878440">
        <ele>958.41400</ele>
        <time>2009-01-05T11:17:31Z</time>
      </trkpt>
      <trkpt lat="27.91738900" lon="-15.6878450">
        <ele>958.71700</ele>
        <time>2009-01-05T11:17:32Z</time>
      </trkpt>
      <trkpt lat="27.91741200" lon="-15.6878480">
        <ele>958.84100</ele>
        <time>2009-01-05T11:17:33Z</time>
      </trkpt>
      <trkpt lat="27.91743500" lon="-15.6878500">
        <ele>958.79000</ele>
        <time>2009-01-05T11:17:34Z</time>
      </trkpt>
      <trkpt lat="27.91745900" lon="-15.6878530">
        <ele>959.14100</ele>
        <time>2009-01-05T11:17:35Z</time>
      </trkpt>
      <trkpt lat="27.91748400" lon="-15.6878570">
        <ele>959.11100</ele>
        <time>2009-01-05T11:17:36Z</time>
      </trkpt>
      <trkpt lat="27.91750700" lon="-15.6878630">
        <ele>959.22900</ele>
        <time>2009-01-05T11:17:37Z</time>
      </trkpt>
      <trkpt lat="27.91753100" lon="-15.6878710">
        <ele>959.39000</ele>
        <time>2009-01-05T11:17:38Z</time>
      </trkpt>
      <trkpt lat="27.91755500" lon="-15.6878790">
        <ele>959.36200</ele>
        <time>2009-01-05T11:17:39Z</time>
      </trkpt>
      <trkpt lat="27.91757800" lon="-15.6878870">
        <ele>959.51500</ele>
        <time>2009-01-05T11:17:40Z</time>
      </trkpt>
      <trkpt lat="27.91760000" lon="-15.6878980">
        <ele>959.60900</ele>
        <time>2009-01-05T11:17:41Z</time>
      </trkpt>
      <trkpt lat="27.91762200" lon="-15.6879090">
        <ele>959.65000</ele>
        <time>2009-01-05T11:17:42Z</time>
      </trkpt>
      <trkpt lat="27.91764200" lon="-15.6879230">
        <ele>959.98700</ele>
        <time>2009-01-05T11:17:43Z</time>
      </trkpt>
      <trkpt lat="27.91766000" lon="-15.6879400">
        <ele>959.89300</ele>
        <time>2009-01-05T11:17:44Z</time>
      </trkpt>
      <trkpt lat="27.91767800" lon="-15.6879590">
        <ele>960.00400</ele>
        <time>2009-01-05T11:17:45Z</time>
      </trkpt>
      <trkpt lat="27.91769600" lon="-15.6879800">
        <ele>960.18500</ele>
        <time>2009-01-05T11:17:46Z</time>
      </trkpt>
      <trkpt lat="27.91771200" lon="-15.6880010">
        <ele>960.18700</ele>
        <time>2009-01-05T11:17:47Z</time>
      </trkpt>
      <trkpt lat="27.91772500" lon="-15.6880250">
        <ele>960.27900</ele>
        <time>2009-01-05T11:17:48Z</time>
      </trkpt>
      <trkpt lat="27.91773800" lon="-15.6880500">
        <ele>960.45600</ele>
        <time>2009-01-05T11:17:49Z</time>
      </trkpt>
      <trkpt lat="27.91774800" lon="-15.6880760">
        <ele>960.50300</ele>
        <time>2009-01-05T11:17:50Z</time>
      </trkpt>
      <trkpt lat="27.91775600" lon="-15.6881030">
        <ele>960.70900</ele>
        <time>2009-01-05T11:17:51Z</time>
      </trkpt>
      <trkpt lat="27.91776300" lon="-15.6881300">
        <ele>961.04500</ele>
        <time>2009-01-05T11:17:52Z</time>
      </trkpt>
      <trkpt lat="27.91777000" lon="-15.6881570">
        <ele>961.12900</ele>
        <time>2009-01-05T11:17:53Z</time>
      </trkpt>
      <trkpt lat="27.91777600" lon="-15.6881840">
        <ele>961.47200</ele>
        <time>2009-01-05T11:17:54Z</time>
      </trkpt>
      <trkpt lat="27.91778200" lon="-15.6882100">
        <ele>961.81800</ele>
        <time>2009-01-05T11:17:55Z</time>
      </trkpt>
      <trkpt lat="27.91778800" lon="-15.6882360">
        <ele>961.70600</ele>
        <time>2009-01-05T11:17:56Z</time>
      </trkpt>
      <trkpt lat="27.91779400" lon="-15.6882620">
        <ele>962.18900</ele>
        <time>2009-01-05T11:17:57Z</time>
      </trkpt>
      <trkpt lat="27.91779900" lon="-15.6882880">
        <ele>962.19800</ele>
        <time>2009-01-05T11:17:58Z</time>
      </trkpt>
      <trkpt lat="27.91780400" lon="-15.6883150">
        <ele>962.26500</ele>
        <time>2009-01-05T11:17:59Z</time>
      </trkpt>
      <trkpt lat="27.91780900" lon="-15.6883400">
        <ele>962.32200</ele>
        <time>2009-01-05T11:18:00Z</time>
      </trkpt>
      <trkpt lat="27.91781600" lon="-15.6883640">
        <ele>962.68800</ele>
        <time>2009-01-05T11:18:01Z</time>
      </trkpt>
      <trkpt lat="27.91782900" lon="-15.6883860">
        <ele>962.97100</ele>
        <time>2009-01-05T11:18:02Z</time>
      </trkpt>
      <trkpt lat="27.91784700" lon="-15.6884050">
        <ele>963.22000</ele>
        <time>2009-01-05T11:18:03Z</time>
      </trkpt>
      <trkpt lat="27.91786900" lon="-15.6884200">
        <ele>963.52400</ele>
        <time>2009-01-05T11:18:04Z</time>
      </trkpt>
      <trkpt lat="27.91789000" lon="-15.6884320">
        <ele>963.56200</ele>
        <time>2009-01-05T11:18:05Z</time>
      </trkpt>
      <trkpt lat="27.91791200" lon="-15.6884360">
        <ele>963.44600</ele>
        <time>2009-01-05T11:18:06Z</time>
      </trkpt>
      <trkpt lat="27.91793300" lon="-15.6884290">
        <ele>963.83200</ele>
        <time>2009-01-05T11:18:07Z</time>
      </trkpt>
      <trkpt lat="27.91794800" lon="-15.6884110">
        <ele>963.90700</ele>
        <time>2009-01-05T11:18:08Z</time>
      </trkpt>
      <trkpt lat="27.91796000" lon="-15.6883870">
        <ele>963.89200</ele>
        <time>2009-01-05T11:18:09Z</time>
      </trkpt>
      <trkpt lat="27.91797200" lon="-15.6883620">
        <ele>963.94100</ele>
        <time>2009-01-05T11:18:10Z</time>
      </trkpt>
      <trkpt lat="27.91798800" lon="-15.6883370">
        <ele>964.17800</ele>
        <time>2009-01-05T11:18:11Z</time>
      </trkpt>
      <trkpt lat="27.91800400" lon="-15.6883140">
        <ele>963.95200</ele>
        <time>2009-01-05T11:18:12Z</time>
      </trkpt>
      <trkpt lat="27.91801900" lon="-15.6882910">
        <ele>964.31000</ele>
        <time>2009-01-05T11:18:13Z</time>
      </trkpt>
      <trkpt lat="27.91803000" lon="-15.6882660">
        <ele>964.24900</ele>
        <time>2009-01-05T11:18:14Z</time>
      </trkpt>
      <trkpt lat="27.91804000" lon="-15.6882370">
        <ele>964.47300</ele>
        <time>2009-01-05T11:18:15Z</time>
      </trkpt>
      <trkpt lat="27.91805000" lon="-15.6882100">
        <ele>964.69700</ele>
        <time>2009-01-05T11:18:16Z</time>
      </trkpt>
      <trkpt lat="27.91806300" lon="-15.6881840">
        <ele>964.65900</ele>
        <time>2009-01-05T11:18:17Z</time>
      </trkpt>
      <trkpt lat="27.91807700" lon="-15.6881590">
        <ele>964.60700</ele>
        <time>2009-01-05T11:18:18Z</time>
      </trkpt>
      <trkpt lat="27.91809300" lon="-15.6881350">
        <ele>964.76200</ele>
        <time>2009-01-05T11:18:19Z</time>
      </trkpt>
      <trkpt lat="27.91811200" lon="-15.6881120">
        <ele>964.59000</ele>
        <time>2009-01-05T11:18:20Z</time>
      </trkpt>
      <trkpt lat="27.91812900" lon="-15.6880910">
        <ele>965.46700</ele>
        <time>2009-01-05T11:18:21Z</time>
      </trkpt>
      <trkpt lat="27.91814600" lon="-15.6880740">
        <ele>965.19200</ele>
        <time>2009-01-05T11:18:22Z</time>
      </trkpt>
      <trkpt lat="27.91816300" lon="-15.6880570">
        <ele>965.39200</ele>
        <time>2009-01-05T11:18:23Z</time>
      </trkpt>
      <trkpt lat="27.91818000" lon="-15.6880370">
        <ele>965.53400</ele>
        <time>2009-01-05T11:18:24Z</time>
      </trkpt>
      <trkpt lat="27.91819600" lon="-15.6880190">
        <ele>965.49200</ele>
        <time>2009-01-05T11:18:25Z</time>
      </trkpt>
      <trkpt lat="27.91821400" lon="-15.6880030">
        <ele>965.67100</ele>
        <time>2009-01-05T11:18:26Z</time>
      </trkpt>
      <trkpt lat="27.91823600" lon="-15.6879880">
        <ele>966.36900</ele>
        <time>2009-01-05T11:18:27Z</time>
      </trkpt>
      <trkpt lat="27.91825600" lon="-15.6879730">
        <ele>966.18700</ele>
        <time>2009-01-05T11:18:28Z</time>
      </trkpt>
      <trkpt lat="27.91827800" lon="-15.6879580">
        <ele>966.51700</ele>
        <time>2009-01-05T11:18:29Z</time>
      </trkpt>
      <trkpt lat="27.91830100" lon="-15.6879430">
        <ele>966.60400</ele>
        <time>2009-01-05T11:18:30Z</time>
      </trkpt>
      <trkpt lat="27.91832300" lon="-15.6879270">
        <ele>966.55400</ele>
        <time>2009-01-05T11:18:31Z</time>
      </trkpt>
      <trkpt lat="27.91834400" lon="-15.6879100">
        <ele>966.86900</ele>
        <time>2009-01-05T11:18:32Z</time>
      </trkpt>
      <trkpt lat="27.91836700" lon="-15.6878970">
        <ele>966.94100</ele>
        <time>2009-01-05T11:18:33Z</time>
      </trkpt>
      <trkpt lat="27.91839100" lon="-15.6878840">
        <ele>967.14000</ele>
        <time>2009-01-05T11:18:34Z</time>
      </trkpt>
      <trkpt lat="27.91841300" lon="-15.6878670">
        <ele>967.26600</ele>
        <time>2009-01-05T11:18:35Z</time>
      </trkpt>
      <trkpt lat="27.91843300" lon="-15.6878490">
        <ele>967.34600</ele>
        <time>2009-01-05T11:18:36Z</time>
      </trkpt>
      <trkpt lat="27.91845300" lon="-15.6878340">
        <ele>967.63500</ele>
        <time>2009-01-05T11:18:37Z</time>
      </trkpt>
      <trkpt lat="27.91847600" lon="-15.6878230">
        <ele>968.01700</ele>
        <time>2009-01-05T11:18:38Z</time>
      </trkpt>
      <trkpt lat="27.91850000" lon="-15.6878160">
        <ele>968.37200</ele>
        <time>2009-01-05T11:18:39Z</time>
      </trkpt>
      <trkpt lat="27.91852400" lon="-15.6878060">
        <ele>968.65900</ele>
        <time>2009-01-05T11:18:40Z</time>
      </trkpt>
      <trkpt lat="27.91854700" lon="-15.6877940">
        <ele>968.95800</ele>
        <time>2009-01-05T11:18:41Z</time>
      </trkpt>
      <trkpt lat="27.91856900" lon="-15.6877800">
        <ele>968.75900</ele>
        <time>2009-01-05T11:18:42Z</time>
      </trkpt>
      <trkpt lat="27.91858800" lon="-15.6877640">
        <ele>967.84900</ele>
        <time>2009-01-05T11:18:43Z</time>
      </trkpt>
      <trkpt lat="27.91860600" lon="-15.6877450">
        <ele>968.67200</ele>
        <time>2009-01-05T11:18:44Z</time>
      </trkpt>
      <trkpt lat="27.91862200" lon="-15.6877240">
        <ele>971.22500</ele>
        <time>2009-01-05T11:18:45Z</time>
      </trkpt>
      <trkpt lat="27.91863900" lon="-15.6877050">
        <ele>969.74400</ele>
        <time>2009-01-05T11:18:46Z</time>
      </trkpt>
      <trkpt lat="27.91865800" lon="-15.6876810">
        <ele>969.75100</ele>
        <time>2009-01-05T11:18:47Z</time>
      </trkpt>
      <trkpt lat="27.91867700" lon="-15.6876550">
        <ele>969.34900</ele>
        <time>2009-01-05T11:18:48Z</time>
      </trkpt>
      <trkpt lat="27.91869700" lon="-15.6876280">
        <ele>969.11300</ele>
        <time>2009-01-05T11:18:49Z</time>
      </trkpt>
      <trkpt lat="27.91871800" lon="-15.6876040">
        <ele>968.99400</ele>
        <time>2009-01-05T11:18:50Z</time>
      </trkpt>
      <trkpt lat="27.91873800" lon="-15.6875840">
        <ele>969.02800</ele>
        <time>2009-01-05T11:18:51Z</time>
      </trkpt>
      <trkpt lat="27.91875900" lon="-15.6875660">
        <ele>969.25800</ele>
        <time>2009-01-05T11:18:52Z</time>
      </trkpt>
      <trkpt lat="27.91878200" lon="-15.6875460">
        <ele>969.47700</ele>
        <time>2009-01-05T11:18:53Z</time>
      </trkpt>
      <trkpt lat="27.91880700" lon="-15.6875230">
        <ele>969.38400</ele>
        <time>2009-01-05T11:18:54Z</time>
      </trkpt>
      <trkpt lat="27.91883200" lon="-15.6874970">
        <ele>969.60200</ele>
        <time>2009-01-05T11:18:55Z</time>
      </trkpt>
      <trkpt lat="27.91885800" lon="-15.6874710">
        <ele>969.80500</ele>
        <time>2009-01-05T11:18:56Z</time>
      </trkpt>
      <trkpt lat="27.91888300" lon="-15.6874420">
        <ele>969.99000</ele>
        <time>2009-01-05T11:18:57Z</time>
      </trkpt>
      <trkpt lat="27.91890900" lon="-15.6874090">
        <ele>969.56100</ele>
        <time>2009-01-05T11:18:58Z</time>
      </trkpt>
      <trkpt lat="27.91893600" lon="-15.6873730">
        <ele>969.62100</ele>
        <time>2009-01-05T11:18:59Z</time>
      </trkpt>
      <trkpt lat="27.91896600" lon="-15.6873360">
        <ele>969.51400</ele>
        <time>2009-01-05T11:19:00Z</time>
      </trkpt>
      <trkpt lat="27.91899900" lon="-15.6872990">
        <ele>968.48800</ele>
        <time>2009-01-05T11:19:01Z</time>
      </trkpt>
      <trkpt lat="27.91903500" lon="-15.6872630">
        <ele>968.75900</ele>
        <time>2009-01-05T11:19:02Z</time>
      </trkpt>
      <trkpt lat="27.91907000" lon="-15.6872270">
        <ele>968.69000</ele>
        <time>2009-01-05T11:19:03Z</time>
      </trkpt>
      <trkpt lat="27.91910200" lon="-15.6871880">
        <ele>968.76300</ele>
        <time>2009-01-05T11:19:04Z</time>
      </trkpt>
      <trkpt lat="27.91913000" lon="-15.6871470">
        <ele>968.53000</ele>
        <time>2009-01-05T11:19:05Z</time>
      </trkpt>
      <trkpt lat="27.91915700" lon="-15.6871080">
        <ele>968.46600</ele>
        <time>2009-01-05T11:19:06Z</time>
      </trkpt>
      <trkpt lat="27.91918500" lon="-15.6870740">
        <ele>968.62400</ele>
        <time>2009-01-05T11:19:07Z</time>
      </trkpt>
      <trkpt lat="27.91921500" lon="-15.6870440">
        <ele>968.75200</ele>
        <time>2009-01-05T11:19:08Z</time>
      </trkpt>
      <trkpt lat="27.91924700" lon="-15.6870170">
        <ele>969.07400</ele>
        <time>2009-01-05T11:19:09Z</time>
      </trkpt>
      <trkpt lat="27.91927900" lon="-15.6869900">
        <ele>968.88000</ele>
        <time>2009-01-05T11:19:10Z</time>
      </trkpt>
      <trkpt lat="27.91931300" lon="-15.6869660">
        <ele>968.43500</ele>
        <time>2009-01-05T11:19:11Z</time>
      </trkpt>
      <trkpt lat="27.91934800" lon="-15.6869430">
        <ele>968.82800</ele>
        <time>2009-01-05T11:19:12Z</time>
      </trkpt>
      <trkpt lat="27.91938600" lon="-15.6869210">
        <ele>969.10000</ele>
        <time>2009-01-05T11:19:13Z</time>
      </trkpt>
      <trkpt lat="27.91942500" lon="-15.6869020">
        <ele>969.02800</ele>
        <time>2009-01-05T11:19:14Z</time>
      </trkpt>
      <trkpt lat="27.91946400" lon="-15.6868850">
        <ele>968.95300</ele>
        <time>2009-01-05T11:19:15Z</time>
      </trkpt>
      <trkpt lat="27.91950300" lon="-15.6868720">
        <ele>968.97300</ele>
        <time>2009-01-05T11:19:16Z</time>
      </trkpt>
      <trkpt lat="27.91954200" lon="-15.6868630">
        <ele>969.01200</ele>
        <time>2009-01-05T11:19:17Z</time>
      </trkpt>
      <trkpt lat="27.91958000" lon="-15.6868560">
        <ele>968.94300</ele>
        <time>2009-01-05T11:19:18Z</time>
      </trkpt>
      <trkpt lat="27.91961700" lon="-15.6868500">
        <ele>969.11100</ele>
        <time>2009-01-05T11:19:19Z</time>
      </trkpt>
      <trkpt lat="27.91965200" lon="-15.6868460">
        <ele>969.30100</ele>
        <time>2009-01-05T11:19:20Z</time>
      </trkpt>
      <trkpt lat="27.91968600" lon="-15.6868460">
        <ele>969.49800</ele>
        <time>2009-01-05T11:19:21Z</time>
      </trkpt>
      <trkpt lat="27.91971800" lon="-15.6868480">
        <ele>970.05300</ele>
        <time>2009-01-05T11:19:22Z</time>
      </trkpt>
      <trkpt lat="27.91974900" lon="-15.6868540">
        <ele>970.29300</ele>
        <time>2009-01-05T11:19:23Z</time>
      </trkpt>
      <trkpt lat="27.91977800" lon="-15.6868610">
        <ele>970.51700</ele>
        <time>2009-01-05T11:19:24Z</time>
      </trkpt>
      <trkpt lat="27.91980600" lon="-15.6868730">
        <ele>970.66400</ele>
        <time>2009-01-05T11:19:25Z</time>
      </trkpt>
      <trkpt lat="27.91983400" lon="-15.6868920">
        <ele>970.74000</ele>
        <time>2009-01-05T11:19:26Z</time>
      </trkpt>
      <trkpt lat="27.91986300" lon="-15.6869150">
        <ele>970.32700</ele>
        <time>2009-01-05T11:19:27Z</time>
      </trkpt>
      <trkpt lat="27.91989600" lon="-15.6869430">
        <ele>970.37900</ele>
        <time>2009-01-05T11:19:28Z</time>
      </trkpt>
      <trkpt lat="27.91993500" lon="-15.6869770">
        <ele>969.77600</ele>
        <time>2009-01-05T11:19:29Z</time>
      </trkpt>
      <trkpt lat="27.91997700" lon="-15.6870160">
        <ele>969.16200</ele>
        <time>2009-01-05T11:19:30Z</time>
      </trkpt>
      <trkpt lat="27.92002500" lon="-15.6870590">
        <ele>968.93700</ele>
        <time>2009-01-05T11:19:31Z</time>
      </trkpt>
      <trkpt lat="27.92008300" lon="-15.6870950">
        <ele>968.74600</ele>
        <time>2009-01-05T11:19:32Z</time>
      </trkpt>
      <trkpt lat="27.92015200" lon="-15.6871090">
        <ele>968.80300</ele>
        <time>2009-01-05T11:19:33Z</time>
      </trkpt>
      <trkpt lat="27.92024600" lon="-15.6870970">
        <ele>968.52200</ele>
        <time>2009-01-05T11:19:34Z</time>
      </trkpt>
      <trkpt lat="27.92031500" lon="-15.6870540">
        <ele>969.01500</ele>
        <time>2009-01-05T11:19:35Z</time>
      </trkpt>
      <trkpt lat="27.92037000" lon="-15.6870080">
        <ele>969.10300</ele>
        <time>2009-01-05T11:19:36Z</time>
      </trkpt>
      <trkpt lat="27.92042700" lon="-15.6869740">
        <ele>968.89600</ele>
        <time>2009-01-05T11:19:37Z</time>
      </trkpt>
      <trkpt lat="27.92048600" lon="-15.6869550">
        <ele>969.40700</ele>
        <time>2009-01-05T11:19:38Z</time>
      </trkpt>
      <trkpt lat="27.92054700" lon="-15.6869460">
        <ele>969.71200</ele>
        <time>2009-01-05T11:19:39Z</time>
      </trkpt>
      <trkpt lat="27.92060900" lon="-15.6869400">
        <ele>969.73700</ele>
        <time>2009-01-05T11:19:40Z</time>
      </trkpt>
      <trkpt lat="27.92067100" lon="-15.6869350">
        <ele>969.69600</ele>
        <time>2009-01-05T11:19:41Z</time>
      </trkpt>
      <trkpt lat="27.92073300" lon="-15.6869290">
        <ele>969.64100</ele>
        <time>2009-01-05T11:19:42Z</time>
      </trkpt>
      <trkpt lat="27.92079300" lon="-15.6869210">
        <ele>969.72900</ele>
        <time>2009-01-05T11:19:43Z</time>
      </trkpt>
      <trkpt lat="27.92085000" lon="-15.6869130">
        <ele>969.81300</ele>
        <time>2009-01-05T11:19:44Z</time>
      </trkpt>
      <trkpt lat="27.92090400" lon="-15.6869070">
        <ele>969.88000</ele>
        <time>2009-01-05T11:19:45Z</time>
      </trkpt>
      <trkpt lat="27.92095300" lon="-15.6869100">
        <ele>970.48400</ele>
        <time>2009-01-05T11:19:46Z</time>
      </trkpt>
      <trkpt lat="27.92099600" lon="-15.6869210">
        <ele>971.42100</ele>
        <time>2009-01-05T11:19:47Z</time>
      </trkpt>
      <trkpt lat="27.92103200" lon="-15.6869360">
        <ele>971.52000</ele>
        <time>2009-01-05T11:19:48Z</time>
      </trkpt>
      <trkpt lat="27.92106600" lon="-15.6869490">
        <ele>971.82000</ele>
        <time>2009-01-05T11:19:49Z</time>
      </trkpt>
      <trkpt lat="27.92110400" lon="-15.6869620">
        <ele>972.17200</ele>
        <time>2009-01-05T11:19:50Z</time>
      </trkpt>
      <trkpt lat="27.92114300" lon="-15.6869770">
        <ele>972.17800</ele>
        <time>2009-01-05T11:19:51Z</time>
      </trkpt>
      <trkpt lat="27.92118400" lon="-15.6869920">
        <ele>972.53400</ele>
        <time>2009-01-05T11:19:52Z</time>
      </trkpt>
      <trkpt lat="27.92122800" lon="-15.6870050">
        <ele>973.04500</ele>
        <time>2009-01-05T11:19:53Z</time>
      </trkpt>
      <trkpt lat="27.92127300" lon="-15.6870140">
        <ele>972.57500</ele>
        <time>2009-01-05T11:19:54Z</time>
      </trkpt>
      <trkpt lat="27.92132000" lon="-15.6870180">
        <ele>972.88800</ele>
        <time>2009-01-05T11:19:55Z</time>
      </trkpt>
      <trkpt lat="27.92136800" lon="-15.6870210">
        <ele>972.16000</ele>
        <time>2009-01-05T11:19:56Z</time>
      </trkpt>
      <trkpt lat="27.92141400" lon="-15.6870270">
        <ele>972.17400</ele>
        <time>2009-01-05T11:19:57Z</time>
      </trkpt>
      <trkpt lat="27.92146300" lon="-15.6870390">
        <ele>972.56200</ele>
        <time>2009-01-05T11:19:58Z</time>
      </trkpt>
      <trkpt lat="27.92151200" lon="-15.6870580">
        <ele>972.34900</ele>
        <time>2009-01-05T11:19:59Z</time>
      </trkpt>
      <trkpt lat="27.92155900" lon="-15.6870870">
        <ele>972.33500</ele>
        <time>2009-01-05T11:20:00Z</time>
      </trkpt>
      <trkpt lat="27.92160000" lon="-15.6871290">
        <ele>972.19900</ele>
        <time>2009-01-05T11:20:01Z</time>
      </trkpt>
      <trkpt lat="27.92163600" lon="-15.6871810">
        <ele>972.30900</ele>
        <time>2009-01-05T11:20:02Z</time>
      </trkpt>
      <trkpt lat="27.92167200" lon="-15.6872410">
        <ele>972.19700</ele>
        <time>2009-01-05T11:20:03Z</time>
      </trkpt>
      <trkpt lat="27.92171400" lon="-15.6873020">
        <ele>971.62000</ele>
        <time>2009-01-05T11:20:04Z</time>
      </trkpt>
      <trkpt lat="27.92176200" lon="-15.6873600">
        <ele>971.39400</ele>
        <time>2009-01-05T11:20:05Z</time>
      </trkpt>
      <trkpt lat="27.92182100" lon="-15.6874090">
        <ele>970.84800</ele>
        <time>2009-01-05T11:20:06Z</time>
      </trkpt>
      <trkpt lat="27.92188800" lon="-15.6874420">
        <ele>970.21100</ele>
        <time>2009-01-05T11:20:07Z</time>
      </trkpt>
      <trkpt lat="27.92196000" lon="-15.6874550">
        <ele>970.25700</ele>
        <time>2009-01-05T11:20:08Z</time>
      </trkpt>
      <trkpt lat="27.92203100" lon="-15.6874470">
        <ele>970.19300</ele>
        <time>2009-01-05T11:20:09Z</time>
      </trkpt>
      <trkpt lat="27.92209600" lon="-15.6874190">
        <ele>970.55400</ele>
        <time>2009-01-05T11:20:10Z</time>
      </trkpt>
      <trkpt lat="27.92215300" lon="-15.6873820">
        <ele>969.99000</ele>
        <time>2009-01-05T11:20:11Z</time>
      </trkpt>
      <trkpt lat="27.92221000" lon="-15.6873420">
        <ele>969.75800</ele>
        <time>2009-01-05T11:20:12Z</time>
      </trkpt>
      <trkpt lat="27.92226900" lon="-15.6873050">
        <ele>969.41300</ele>
        <time>2009-01-05T11:20:13Z</time>
      </trkpt>
      <trkpt lat="27.92233100" lon="-15.6872680">
        <ele>969.17400</ele>
        <time>2009-01-05T11:20:14Z</time>
      </trkpt>
      <trkpt lat="27.92239200" lon="-15.6872300">
        <ele>968.65500</ele>
        <time>2009-01-05T11:20:15Z</time>
      </trkpt>
      <trkpt lat="27.92245100" lon="-15.6871880">
        <ele>969.03100</ele>
        <time>2009-01-05T11:20:16Z</time>
      </trkpt>
      <trkpt lat="27.92250500" lon="-15.6871390">
        <ele>968.72400</ele>
        <time>2009-01-05T11:20:17Z</time>
      </trkpt>
      <trkpt lat="27.92255200" lon="-15.6870860">
        <ele>968.72700</ele>
        <time>2009-01-05T11:20:18Z</time>
      </trkpt>
      <trkpt lat="27.92259400" lon="-15.6870300">
        <ele>968.30500</ele>
        <time>2009-01-05T11:20:19Z</time>
      </trkpt>
      <trkpt lat="27.92263200" lon="-15.6869750">
        <ele>969.04400</ele>
        <time>2009-01-05T11:20:20Z</time>
      </trkpt>
      <trkpt lat="27.92266700" lon="-15.6869260">
        <ele>969.52100</ele>
        <time>2009-01-05T11:20:21Z</time>
      </trkpt>
      <trkpt lat="27.92270100" lon="-15.6868830">
        <ele>970.26500</ele>
        <time>2009-01-05T11:20:22Z</time>
      </trkpt>
      <trkpt lat="27.92273700" lon="-15.6868420">
        <ele>970.36700</ele>
        <time>2009-01-05T11:20:23Z</time>
      </trkpt>
      <trkpt lat="27.92277400" lon="-15.6868020">
        <ele>970.11900</ele>
        <time>2009-01-05T11:20:24Z</time>
      </trkpt>
      <trkpt lat="27.92281200" lon="-15.6867610">
        <ele>969.63400</ele>
        <time>2009-01-05T11:20:25Z</time>
      </trkpt>
      <trkpt lat="27.92285400" lon="-15.6867170">
        <ele>969.47400</ele>
        <time>2009-01-05T11:20:26Z</time>
      </trkpt>
      <trkpt lat="27.92290100" lon="-15.6866700">
        <ele>969.25900</ele>
        <time>2009-01-05T11:20:27Z</time>
      </trkpt>
      <trkpt lat="27.92295000" lon="-15.6866180">
        <ele>968.67600</ele>
        <time>2009-01-05T11:20:28Z</time>
      </trkpt>
      <trkpt lat="27.92299300" lon="-15.6865560">
        <ele>968.27300</ele>
        <time>2009-01-05T11:20:29Z</time>
      </trkpt>
      <trkpt lat="27.92303100" lon="-15.6864890">
        <ele>967.96500</ele>
        <time>2009-01-05T11:20:30Z</time>
      </trkpt>
      <trkpt lat="27.92306500" lon="-15.6864210">
        <ele>968.01100</ele>
        <time>2009-01-05T11:20:31Z</time>
      </trkpt>
      <trkpt lat="27.92309700" lon="-15.6863550">
        <ele>968.08400</ele>
        <time>2009-01-05T11:20:32Z</time>
      </trkpt>
      <trkpt lat="27.92312600" lon="-15.6862870">
        <ele>967.63100</ele>
        <time>2009-01-05T11:20:33Z</time>
      </trkpt>
      <trkpt lat="27.92315100" lon="-15.6862130">
        <ele>966.93500</ele>
        <time>2009-01-05T11:20:34Z</time>
      </trkpt>
      <trkpt lat="27.92316700" lon="-15.6861340">
        <ele>966.77300</ele>
        <time>2009-01-05T11:20:35Z</time>
      </trkpt>
      <trkpt lat="27.92317900" lon="-15.6860510">
        <ele>966.35900</ele>
        <time>2009-01-05T11:20:36Z</time>
      </trkpt>
      <trkpt lat="27.92319600" lon="-15.6859680">
        <ele>966.54800</ele>
        <time>2009-01-05T11:20:37Z</time>
      </trkpt>
      <trkpt lat="27.92322200" lon="-15.6858930">
        <ele>966.85900</ele>
        <time>2009-01-05T11:20:38Z</time>
      </trkpt>
      <trkpt lat="27.92325600" lon="-15.6858280">
        <ele>966.47400</ele>
        <time>2009-01-05T11:20:39Z</time>
      </trkpt>
      <trkpt lat="27.92329700" lon="-15.6857720">
        <ele>966.78700</ele>
        <time>2009-01-05T11:20:40Z</time>
      </trkpt>
      <trkpt lat="27.92333900" lon="-15.6857220">
        <ele>967.11400</ele>
        <time>2009-01-05T11:20:41Z</time>
      </trkpt>
      <trkpt lat="27.92338200" lon="-15.6856750">
        <ele>967.26800</ele>
        <time>2009-01-05T11:20:42Z</time>
      </trkpt>
      <trkpt lat="27.92342700" lon="-15.6856320">
        <ele>967.61300</ele>
        <time>2009-01-05T11:20:43Z</time>
      </trkpt>
      <trkpt lat="27.92347100" lon="-15.6855930">
        <ele>968.09200</ele>
        <time>2009-01-05T11:20:44Z</time>
      </trkpt>
      <trkpt lat="27.92351400" lon="-15.6855570">
        <ele>968.29600</ele>
        <time>2009-01-05T11:20:45Z</time>
      </trkpt>
      <trkpt lat="27.92355700" lon="-15.6855270">
        <ele>968.36900</ele>
        <time>2009-01-05T11:20:46Z</time>
      </trkpt>
      <trkpt lat="27.92360100" lon="-15.6854990">
        <ele>968.07600</ele>
        <time>2009-01-05T11:20:47Z</time>
      </trkpt>
      <trkpt lat="27.92364500" lon="-15.6854720">
        <ele>967.90800</ele>
        <time>2009-01-05T11:20:48Z</time>
      </trkpt>
      <trkpt lat="27.92368900" lon="-15.6854440">
        <ele>967.56500</ele>
        <time>2009-01-05T11:20:49Z</time>
      </trkpt>
      <trkpt lat="27.92373400" lon="-15.6854150">
        <ele>967.63500</ele>
        <time>2009-01-05T11:20:50Z</time>
      </trkpt>
      <trkpt lat="27.92377800" lon="-15.6853860">
        <ele>968.09800</ele>
        <time>2009-01-05T11:20:51Z</time>
      </trkpt>
      <trkpt lat="27.92382200" lon="-15.6853560">
        <ele>968.01400</ele>
        <time>2009-01-05T11:20:52Z</time>
      </trkpt>
      <trkpt lat="27.92386500" lon="-15.6853260">
        <ele>968.27100</ele>
        <time>2009-01-05T11:20:53Z</time>
      </trkpt>
      <trkpt lat="27.92390800" lon="-15.6852940">
        <ele>968.57900</ele>
        <time>2009-01-05T11:20:54Z</time>
      </trkpt>
      <trkpt lat="27.92395000" lon="-15.6852620">
        <ele>968.80700</ele>
        <time>2009-01-05T11:20:55Z</time>
      </trkpt>
      <trkpt lat="27.92399100" lon="-15.6852330">
        <ele>968.59800</ele>
        <time>2009-01-05T11:20:56Z</time>
      </trkpt>
      <trkpt lat="27.92403300" lon="-15.6852050">
        <ele>968.46700</ele>
        <time>2009-01-05T11:20:57Z</time>
      </trkpt>
      <trkpt lat="27.92407500" lon="-15.6851790">
        <ele>968.57600</ele>
        <time>2009-01-05T11:20:58Z</time>
      </trkpt>
      <trkpt lat="27.92411600" lon="-15.6851540">
        <ele>968.70100</ele>
        <time>2009-01-05T11:20:59Z</time>
      </trkpt>
      <trkpt lat="27.92415700" lon="-15.6851300">
        <ele>968.70100</ele>
        <time>2009-01-05T11:21:00Z</time>
      </trkpt>
      <trkpt lat="27.92419700" lon="-15.6851080">
        <ele>968.74700</ele>
        <time>2009-01-05T11:21:01Z</time>
      </trkpt>
      <trkpt lat="27.92423700" lon="-15.6850860">
        <ele>968.81100</ele>
        <time>2009-01-05T11:21:02Z</time>
      </trkpt>
      <trkpt lat="27.92427900" lon="-15.6850670">
        <ele>968.40800</ele>
        <time>2009-01-05T11:21:03Z</time>
      </trkpt>
      <trkpt lat="27.92432100" lon="-15.6850510">
        <ele>968.75700</ele>
        <time>2009-01-05T11:21:04Z</time>
      </trkpt>
      <trkpt lat="27.92436600" lon="-15.6850380">
        <ele>968.62100</ele>
        <time>2009-01-05T11:21:05Z</time>
      </trkpt>
      <trkpt lat="27.92441100" lon="-15.6850260">
        <ele>968.32000</ele>
        <time>2009-01-05T11:21:06Z</time>
      </trkpt>
      <trkpt lat="27.92445700" lon="-15.6850130">
        <ele>968.79200</ele>
        <time>2009-01-05T11:21:07Z</time>
      </trkpt>
      <trkpt lat="27.92450200" lon="-15.6849990">
        <ele>968.62600</ele>
        <time>2009-01-05T11:21:08Z</time>
      </trkpt>
      <trkpt lat="27.92454800" lon="-15.6849870">
        <ele>968.54500</ele>
        <time>2009-01-05T11:21:09Z</time>
      </trkpt>
      <trkpt lat="27.92459500" lon="-15.6849760">
        <ele>968.36600</ele>
        <time>2009-01-05T11:21:10Z</time>
      </trkpt>
      <trkpt lat="27.92464000" lon="-15.6849690">
        <ele>968.68400</ele>
        <time>2009-01-05T11:21:11Z</time>
      </trkpt>
      <trkpt lat="27.92468800" lon="-15.6849620">
        <ele>968.79100</ele>
        <time>2009-01-05T11:21:12Z</time>
      </trkpt>
      <trkpt lat="27.92473500" lon="-15.6849550">
        <ele>968.75500</ele>
        <time>2009-01-05T11:21:13Z</time>
      </trkpt>
      <trkpt lat="27.92478200" lon="-15.6849460">
        <ele>968.80800</ele>
        <time>2009-01-05T11:21:14Z</time>
      </trkpt>
      <trkpt lat="27.92483000" lon="-15.6849380">
        <ele>968.63700</ele>
        <time>2009-01-05T11:21:15Z</time>
      </trkpt>
      <trkpt lat="27.92487600" lon="-15.6849280">
        <ele>968.85500</ele>
        <time>2009-01-05T11:21:16Z</time>
      </trkpt>
      <trkpt lat="27.92492300" lon="-15.6849170">
        <ele>968.63400</ele>
        <time>2009-01-05T11:21:17Z</time>
      </trkpt>
      <trkpt lat="27.92496800" lon="-15.6849030">
        <ele>968.58700</ele>
        <time>2009-01-05T11:21:18Z</time>
      </trkpt>
      <trkpt lat="27.92501100" lon="-15.6848890">
        <ele>968.56700</ele>
        <time>2009-01-05T11:21:19Z</time>
      </trkpt>
      <trkpt lat="27.92505400" lon="-15.6848720">
        <ele>968.75900</ele>
        <time>2009-01-05T11:21:20Z</time>
      </trkpt>
      <trkpt lat="27.92509300" lon="-15.6848490">
        <ele>968.95800</ele>
        <time>2009-01-05T11:21:21Z</time>
      </trkpt>
      <trkpt lat="27.92513000" lon="-15.6848200">
        <ele>969.15700</ele>
        <time>2009-01-05T11:21:22Z</time>
      </trkpt>
      <trkpt lat="27.92516400" lon="-15.6847870">
        <ele>968.77500</ele>
        <time>2009-01-05T11:21:23Z</time>
      </trkpt>
      <trkpt lat="27.92519500" lon="-15.6847500">
        <ele>968.93500</ele>
        <time>2009-01-05T11:21:24Z</time>
      </trkpt>
      <trkpt lat="27.92522200" lon="-15.6847100">
        <ele>969.34500</ele>
        <time>2009-01-05T11:21:25Z</time>
      </trkpt>
      <trkpt lat="27.92524500" lon="-15.6846650">
        <ele>969.30400</ele>
        <time>2009-01-05T11:21:26Z</time>
      </trkpt>
      <trkpt lat="27.92526800" lon="-15.6846200">
        <ele>969.49000</ele>
        <time>2009-01-05T11:21:27Z</time>
      </trkpt>
      <trkpt lat="27.92528800" lon="-15.6845690">
        <ele>969.73400</ele>
        <time>2009-01-05T11:21:28Z</time>
      </trkpt>
      <trkpt lat="27.92530100" lon="-15.6845220">
        <ele>969.80000</ele>
        <time>2009-01-05T11:21:29Z</time>
      </trkpt>
      <trkpt lat="27.92531100" lon="-15.6844750">
        <ele>970.18400</ele>
        <time>2009-01-05T11:21:30Z</time>
      </trkpt>
      <trkpt lat="27.92531800" lon="-15.6844280">
        <ele>970.42500</ele>
        <time>2009-01-05T11:21:31Z</time>
      </trkpt>
      <trkpt lat="27.92532400" lon="-15.6843770">
        <ele>970.36400</ele>
        <time>2009-01-05T11:21:32Z</time>
      </trkpt>
      <trkpt lat="27.92532900" lon="-15.6843340">
        <ele>970.88700</ele>
        <time>2009-01-05T11:21:33Z</time>
      </trkpt>
      <trkpt lat="27.92533500" lon="-15.6842880">
        <ele>971.00600</ele>
        <time>2009-01-05T11:21:34Z</time>
      </trkpt>
      <trkpt lat="27.92534300" lon="-15.6842420">
        <ele>971.28000</ele>
        <time>2009-01-05T11:21:35Z</time>
      </trkpt>
      <trkpt lat="27.92535100" lon="-15.6841960">
        <ele>971.57600</ele>
        <time>2009-01-05T11:21:36Z</time>
      </trkpt>
      <trkpt lat="27.92535900" lon="-15.6841500">
        <ele>971.37500</ele>
        <time>2009-01-05T11:21:37Z</time>
      </trkpt>
      <trkpt lat="27.92536500" lon="-15.6841040">
        <ele>971.07300</ele>
        <time>2009-01-05T11:21:38Z</time>
      </trkpt>
      <trkpt lat="27.92537000" lon="-15.6840570">
        <ele>971.10400</ele>
        <time>2009-01-05T11:21:39Z</time>
      </trkpt>
      <trkpt lat="27.92537500" lon="-15.6840080">
        <ele>971.24200</ele>
        <time>2009-01-05T11:21:40Z</time>
      </trkpt>
      <trkpt lat="27.92538200" lon="-15.6839590">
        <ele>971.19400</ele>
        <time>2009-01-05T11:21:41Z</time>
      </trkpt>
      <trkpt lat="27.92539100" lon="-15.6839080">
        <ele>971.41800</ele>
        <time>2009-01-05T11:21:42Z</time>
      </trkpt>
      <trkpt lat="27.92539900" lon="-15.6838600">
        <ele>971.40800</ele>
        <time>2009-01-05T11:21:43Z</time>
      </trkpt>
      <trkpt lat="27.92540500" lon="-15.6838130">
        <ele>971.68000</ele>
        <time>2009-01-05T11:21:44Z</time>
      </trkpt>
      <trkpt lat="27.92541300" lon="-15.6837650">
        <ele>971.41000</ele>
        <time>2009-01-05T11:21:45Z</time>
      </trkpt>
      <trkpt lat="27.92542500" lon="-15.6837170">
        <ele>971.22700</ele>
        <time>2009-01-05T11:21:46Z</time>
      </trkpt>
      <trkpt lat="27.92544300" lon="-15.6836680">
        <ele>971.30100</ele>
        <time>2009-01-05T11:21:47Z</time>
      </trkpt>
      <trkpt lat="27.92546300" lon="-15.6836200">
        <ele>971.80400</ele>
        <time>2009-01-05T11:21:48Z</time>
      </trkpt>
      <trkpt lat="27.92548500" lon="-15.6835720">
        <ele>971.35200</ele>
        <time>2009-01-05T11:21:49Z</time>
      </trkpt>
      <trkpt lat="27.92550900" lon="-15.6835250">
        <ele>971.50000</ele>
        <time>2009-01-05T11:21:50Z</time>
      </trkpt>
      <trkpt lat="27.92553700" lon="-15.6834800">
        <ele>971.37400</ele>
        <time>2009-01-05T11:21:51Z</time>
      </trkpt>
      <trkpt lat="27.92557000" lon="-15.6834380">
        <ele>971.47200</ele>
        <time>2009-01-05T11:21:52Z</time>
      </trkpt>
      <trkpt lat="27.92560600" lon="-15.6833980">
        <ele>971.59900</ele>
        <time>2009-01-05T11:21:53Z</time>
      </trkpt>
      <trkpt lat="27.92564200" lon="-15.6833590">
        <ele>971.84000</ele>
        <time>2009-01-05T11:21:54Z</time>
      </trkpt>
      <trkpt lat="27.92567900" lon="-15.6833220">
        <ele>971.39700</ele>
        <time>2009-01-05T11:21:55Z</time>
      </trkpt>
      <trkpt lat="27.92571700" lon="-15.6832840">
        <ele>971.38900</ele>
        <time>2009-01-05T11:21:56Z</time>
      </trkpt>
      <trkpt lat="27.92575200" lon="-15.6832460">
        <ele>971.49500</ele>
        <time>2009-01-05T11:21:57Z</time>
      </trkpt>
      <trkpt lat="27.92578300" lon="-15.6832060">
        <ele>971.43000</ele>
        <time>2009-01-05T11:21:58Z</time>
      </trkpt>
      <trkpt lat="27.92580900" lon="-15.6831650">
        <ele>971.38800</ele>
        <time>2009-01-05T11:21:59Z</time>
      </trkpt>
      <trkpt lat="27.92583000" lon="-15.6831210">
        <ele>971.64500</ele>
        <time>2009-01-05T11:22:00Z</time>
      </trkpt>
      <trkpt lat="27.92584600" lon="-15.6830750">
        <ele>971.67500</ele>
        <time>2009-01-05T11:22:01Z</time>
      </trkpt>
      <trkpt lat="27.92586200" lon="-15.6830260">
        <ele>971.66200</ele>
        <time>2009-01-05T11:22:02Z</time>
      </trkpt>
      <trkpt lat="27.92587700" lon="-15.6829740">
        <ele>971.77400</ele>
        <time>2009-01-05T11:22:03Z</time>
      </trkpt>
      <trkpt lat="27.92588900" lon="-15.6829200">
        <ele>971.75300</ele>
        <time>2009-01-05T11:22:04Z</time>
      </trkpt>
      <trkpt lat="27.92589500" lon="-15.6828630">
        <ele>971.64000</ele>
        <time>2009-01-05T11:22:05Z</time>
      </trkpt>
      <trkpt lat="27.92589600" lon="-15.6828050">
        <ele>971.67200</ele>
        <time>2009-01-05T11:22:06Z</time>
      </trkpt>
      <trkpt lat="27.92589100" lon="-15.6827480">
        <ele>971.44000</ele>
        <time>2009-01-05T11:22:07Z</time>
      </trkpt>
      <trkpt lat="27.92588000" lon="-15.6826920">
        <ele>971.20800</ele>
        <time>2009-01-05T11:22:08Z</time>
      </trkpt>
      <trkpt lat="27.92586400" lon="-15.6826380">
        <ele>971.56800</ele>
        <time>2009-01-05T11:22:09Z</time>
      </trkpt>
      <trkpt lat="27.92584200" lon="-15.6825830">
        <ele>971.34900</ele>
        <time>2009-01-05T11:22:10Z</time>
      </trkpt>
      <trkpt lat="27.92581700" lon="-15.6825280">
        <ele>971.50300</ele>
        <time>2009-01-05T11:22:11Z</time>
      </trkpt>
      <trkpt lat="27.92578600" lon="-15.6824770">
        <ele>971.39200</ele>
        <time>2009-01-05T11:22:12Z</time>
      </trkpt>
      <trkpt lat="27.92575100" lon="-15.6824260">
        <ele>971.80700</ele>
        <time>2009-01-05T11:22:13Z</time>
      </trkpt>
      <trkpt lat="27.92571400" lon="-15.6823790">
        <ele>971.75400</ele>
        <time>2009-01-05T11:22:14Z</time>
      </trkpt>
      <trkpt lat="27.92567400" lon="-15.6823370">
        <ele>971.31600</ele>
        <time>2009-01-05T11:22:15Z</time>
      </trkpt>
      <trkpt lat="27.92563500" lon="-15.6822980">
        <ele>971.20200</ele>
        <time>2009-01-05T11:22:16Z</time>
      </trkpt>
      <trkpt lat="27.92559900" lon="-15.6822580">
        <ele>971.31600</ele>
        <time>2009-01-05T11:22:17Z</time>
      </trkpt>
      <trkpt lat="27.92556200" lon="-15.6822170">
        <ele>971.22600</ele>
        <time>2009-01-05T11:22:18Z</time>
      </trkpt>
      <trkpt lat="27.92552300" lon="-15.6821790">
        <ele>971.46400</ele>
        <time>2009-01-05T11:22:19Z</time>
      </trkpt>
      <trkpt lat="27.92548200" lon="-15.6821450">
        <ele>971.42700</ele>
        <time>2009-01-05T11:22:20Z</time>
      </trkpt>
      <trkpt lat="27.92544000" lon="-15.6821140">
        <ele>971.78000</ele>
        <time>2009-01-05T11:22:21Z</time>
      </trkpt>
      <trkpt lat="27.92539800" lon="-15.6820830">
        <ele>971.90100</ele>
        <time>2009-01-05T11:22:22Z</time>
      </trkpt>
      <trkpt lat="27.92535700" lon="-15.6820530">
        <ele>971.76100</ele>
        <time>2009-01-05T11:22:23Z</time>
      </trkpt>
      <trkpt lat="27.92531400" lon="-15.6820240">
        <ele>971.63600</ele>
        <time>2009-01-05T11:22:24Z</time>
      </trkpt>
      <trkpt lat="27.92527000" lon="-15.6819990">
        <ele>972.28800</ele>
        <time>2009-01-05T11:22:25Z</time>
      </trkpt>
      <trkpt lat="27.92522500" lon="-15.6819750">
        <ele>972.26800</ele>
        <time>2009-01-05T11:22:26Z</time>
      </trkpt>
      <trkpt lat="27.92518000" lon="-15.6819550">
        <ele>972.39400</ele>
        <time>2009-01-05T11:22:27Z</time>
      </trkpt>
      <trkpt lat="27.92513400" lon="-15.6819370">
        <ele>972.66300</ele>
        <time>2009-01-05T11:22:28Z</time>
      </trkpt>
      <trkpt lat="27.92508700" lon="-15.6819200">
        <ele>972.65600</ele>
        <time>2009-01-05T11:22:29Z</time>
      </trkpt>
      <trkpt lat="27.92504200" lon="-15.6819010">
        <ele>972.59200</ele>
        <time>2009-01-05T11:22:30Z</time>
      </trkpt>
      <trkpt lat="27.92499600" lon="-15.6818820">
        <ele>972.51700</ele>
        <time>2009-01-05T11:22:31Z</time>
      </trkpt>
      <trkpt lat="27.92495000" lon="-15.6818640">
        <ele>972.46600</ele>
        <time>2009-01-05T11:22:32Z</time>
      </trkpt>
      <trkpt lat="27.92490400" lon="-15.6818460">
        <ele>972.68600</ele>
        <time>2009-01-05T11:22:33Z</time>
      </trkpt>
      <trkpt lat="27.92485800" lon="-15.6818270">
        <ele>972.76200</ele>
        <time>2009-01-05T11:22:34Z</time>
      </trkpt>
      <trkpt lat="27.92481200" lon="-15.6818090">
        <ele>972.77100</ele>
        <time>2009-01-05T11:22:35Z</time>
      </trkpt>
      <trkpt lat="27.92476700" lon="-15.6817900">
        <ele>972.96600</ele>
        <time>2009-01-05T11:22:36Z</time>
      </trkpt>
      <trkpt lat="27.92472200" lon="-15.6817690">
        <ele>973.05400</ele>
        <time>2009-01-05T11:22:37Z</time>
      </trkpt>
      <trkpt lat="27.92467800" lon="-15.6817460">
        <ele>972.81200</ele>
        <time>2009-01-05T11:22:38Z</time>
      </trkpt>
      <trkpt lat="27.92463400" lon="-15.6817200">
        <ele>973.26600</ele>
        <time>2009-01-05T11:22:39Z</time>
      </trkpt>
      <trkpt lat="27.92459300" lon="-15.6816890">
        <ele>973.26500</ele>
        <time>2009-01-05T11:22:40Z</time>
      </trkpt>
      <trkpt lat="27.92455200" lon="-15.6816510">
        <ele>973.14500</ele>
        <time>2009-01-05T11:22:41Z</time>
      </trkpt>
      <trkpt lat="27.92451200" lon="-15.6816120">
        <ele>973.00900</ele>
        <time>2009-01-05T11:22:42Z</time>
      </trkpt>
      <trkpt lat="27.92447400" lon="-15.6815700">
        <ele>973.05800</ele>
        <time>2009-01-05T11:22:43Z</time>
      </trkpt>
      <trkpt lat="27.92444100" lon="-15.6815250">
        <ele>973.22600</ele>
        <time>2009-01-05T11:22:44Z</time>
      </trkpt>
      <trkpt lat="27.92440900" lon="-15.6814770">
        <ele>973.28800</ele>
        <time>2009-01-05T11:22:45Z</time>
      </trkpt>
      <trkpt lat="27.92437700" lon="-15.6814290">
        <ele>973.18100</ele>
        <time>2009-01-05T11:22:46Z</time>
      </trkpt>
      <trkpt lat="27.92434500" lon="-15.6813790">
        <ele>973.33300</ele>
        <time>2009-01-05T11:22:47Z</time>
      </trkpt>
      <trkpt lat="27.92431400" lon="-15.6813290">
        <ele>973.44500</ele>
        <time>2009-01-05T11:22:48Z</time>
      </trkpt>
      <trkpt lat="27.92428300" lon="-15.6812790">
        <ele>973.15300</ele>
        <time>2009-01-05T11:22:49Z</time>
      </trkpt>
      <trkpt lat="27.92425200" lon="-15.6812290">
        <ele>972.83700</ele>
        <time>2009-01-05T11:22:50Z</time>
      </trkpt>
      <trkpt lat="27.92422300" lon="-15.6811770">
        <ele>972.37100</ele>
        <time>2009-01-05T11:22:51Z</time>
      </trkpt>
      <trkpt lat="27.92419600" lon="-15.6811210">
        <ele>972.23000</ele>
        <time>2009-01-05T11:22:52Z</time>
      </trkpt>
      <trkpt lat="27.92417200" lon="-15.6810630">
        <ele>972.38800</ele>
        <time>2009-01-05T11:22:53Z</time>
      </trkpt>
      <trkpt lat="27.92415100" lon="-15.6810030">
        <ele>972.13100</ele>
        <time>2009-01-05T11:22:54Z</time>
      </trkpt>
      <trkpt lat="27.92413300" lon="-15.6809400">
        <ele>971.72600</ele>
        <time>2009-01-05T11:22:55Z</time>
      </trkpt>
      <trkpt lat="27.92411800" lon="-15.6808730">
        <ele>971.49500</ele>
        <time>2009-01-05T11:22:56Z</time>
      </trkpt>
      <trkpt lat="27.92410500" lon="-15.6808020">
        <ele>971.03400</ele>
        <time>2009-01-05T11:22:57Z</time>
      </trkpt>
      <trkpt lat="27.92409200" lon="-15.6807280">
        <ele>970.30200</ele>
        <time>2009-01-05T11:22:58Z</time>
      </trkpt>
      <trkpt lat="27.92408100" lon="-15.6806510">
        <ele>970.09000</ele>
        <time>2009-01-05T11:22:59Z</time>
      </trkpt>
      <trkpt lat="27.92407400" lon="-15.6805710">
        <ele>969.72400</ele>
        <time>2009-01-05T11:23:00Z</time>
      </trkpt>
      <trkpt lat="27.92406900" lon="-15.6804900">
        <ele>969.65800</ele>
        <time>2009-01-05T11:23:01Z</time>
      </trkpt>
      <trkpt lat="27.92406600" lon="-15.6804060">
        <ele>969.12600</ele>
        <time>2009-01-05T11:23:02Z</time>
      </trkpt>
      <trkpt lat="27.92406500" lon="-15.6803220">
        <ele>969.13000</ele>
        <time>2009-01-05T11:23:03Z</time>
      </trkpt>
      <trkpt lat="27.92406700" lon="-15.6802380">
        <ele>969.14500</ele>
        <time>2009-01-05T11:23:04Z</time>
      </trkpt>
      <trkpt lat="27.92407000" lon="-15.6801530">
        <ele>968.89300</ele>
        <time>2009-01-05T11:23:05Z</time>
      </trkpt>
      <trkpt lat="27.92407800" lon="-15.6800680">
        <ele>968.58000</ele>
        <time>2009-01-05T11:23:06Z</time>
      </trkpt>
      <trkpt lat="27.92409400" lon="-15.6799850">
        <ele>968.16900</ele>
        <time>2009-01-05T11:23:07Z</time>
      </trkpt>
      <trkpt lat="27.92412200" lon="-15.6799050">
        <ele>967.29900</ele>
        <time>2009-01-05T11:23:08Z</time>
      </trkpt>
      <trkpt lat="27.92416200" lon="-15.6798290">
        <ele>966.87300</ele>
        <time>2009-01-05T11:23:09Z</time>
      </trkpt>
      <trkpt lat="27.92421200" lon="-15.6797600">
        <ele>966.69200</ele>
        <time>2009-01-05T11:23:10Z</time>
      </trkpt>
      <trkpt lat="27.92427000" lon="-15.6796950">
        <ele>966.44300</ele>
        <time>2009-01-05T11:23:11Z</time>
      </trkpt>
      <trkpt lat="27.92433400" lon="-15.6796360">
        <ele>965.47100</ele>
        <time>2009-01-05T11:23:12Z</time>
      </trkpt>
      <trkpt lat="27.92440400" lon="-15.6795840">
        <ele>964.84100</ele>
        <time>2009-01-05T11:23:13Z</time>
      </trkpt>
      <trkpt lat="27.92447900" lon="-15.6795390">
        <ele>964.47000</ele>
        <time>2009-01-05T11:23:14Z</time>
      </trkpt>
      <trkpt lat="27.92455600" lon="-15.6794980">
        <ele>964.10400</ele>
        <time>2009-01-05T11:23:15Z</time>
      </trkpt>
      <trkpt lat="27.92463400" lon="-15.6794570">
        <ele>963.47900</ele>
        <time>2009-01-05T11:23:16Z</time>
      </trkpt>
      <trkpt lat="27.92471200" lon="-15.6794170">
        <ele>962.87000</ele>
        <time>2009-01-05T11:23:17Z</time>
      </trkpt>
      <trkpt lat="27.92478900" lon="-15.6793760">
        <ele>962.47300</ele>
        <time>2009-01-05T11:23:18Z</time>
      </trkpt>
      <trkpt lat="27.92486600" lon="-15.6793350">
        <ele>962.29500</ele>
        <time>2009-01-05T11:23:19Z</time>
      </trkpt>
      <trkpt lat="27.92494000" lon="-15.6792920">
        <ele>962.11700</ele>
        <time>2009-01-05T11:23:20Z</time>
      </trkpt>
      <trkpt lat="27.92501400" lon="-15.6792490">
        <ele>961.57300</ele>
        <time>2009-01-05T11:23:21Z</time>
      </trkpt>
      <trkpt lat="27.92508700" lon="-15.6792080">
        <ele>960.92500</ele>
        <time>2009-01-05T11:23:22Z</time>
      </trkpt>
      <trkpt lat="27.92516000" lon="-15.6791670">
        <ele>960.93900</ele>
        <time>2009-01-05T11:23:23Z</time>
      </trkpt>
      <trkpt lat="27.92523300" lon="-15.6791270">
        <ele>960.63200</ele>
        <time>2009-01-05T11:23:24Z</time>
      </trkpt>
      <trkpt lat="27.92530500" lon="-15.6790860">
        <ele>960.81800</ele>
        <time>2009-01-05T11:23:25Z</time>
      </trkpt>
      <trkpt lat="27.92537600" lon="-15.6790450">
        <ele>960.47400</ele>
        <time>2009-01-05T11:23:26Z</time>
      </trkpt>
      <trkpt lat="27.92544700" lon="-15.6790060">
        <ele>959.99100</ele>
        <time>2009-01-05T11:23:27Z</time>
      </trkpt>
      <trkpt lat="27.92551700" lon="-15.6789690">
        <ele>959.54100</ele>
        <time>2009-01-05T11:23:28Z</time>
      </trkpt>
      <trkpt lat="27.92558800" lon="-15.6789310">
        <ele>959.52100</ele>
        <time>2009-01-05T11:23:29Z</time>
      </trkpt>
      <trkpt lat="27.92565900" lon="-15.6788930">
        <ele>959.28500</ele>
        <time>2009-01-05T11:23:30Z</time>
      </trkpt>
      <trkpt lat="27.92573000" lon="-15.6788570">
        <ele>958.82100</ele>
        <time>2009-01-05T11:23:31Z</time>
      </trkpt>
      <trkpt lat="27.92580100" lon="-15.6788250">
        <ele>958.01400</ele>
        <time>2009-01-05T11:23:32Z</time>
      </trkpt>
      <trkpt lat="27.92587500" lon="-15.6787990">
        <ele>958.15500</ele>
        <time>2009-01-05T11:23:33Z</time>
      </trkpt>
      <trkpt lat="27.92595000" lon="-15.6787780">
        <ele>957.78400</ele>
        <time>2009-01-05T11:23:34Z</time>
      </trkpt>
      <trkpt lat="27.92602800" lon="-15.6787650">
        <ele>956.67600</ele>
        <time>2009-01-05T11:23:35Z</time>
      </trkpt>
      <trkpt lat="27.92610800" lon="-15.6787590">
        <ele>956.25000</ele>
        <time>2009-01-05T11:23:36Z</time>
      </trkpt>
      <trkpt lat="27.92618800" lon="-15.6787520">
        <ele>955.34500</ele>
        <time>2009-01-05T11:23:37Z</time>
      </trkpt>
      <trkpt lat="27.92626800" lon="-15.6787440">
        <ele>955.16700</ele>
        <time>2009-01-05T11:23:38Z</time>
      </trkpt>
      <trkpt lat="27.92634800" lon="-15.6787330">
        <ele>954.84700</ele>
        <time>2009-01-05T11:23:39Z</time>
      </trkpt>
      <trkpt lat="27.92642800" lon="-15.6787200">
        <ele>954.59300</ele>
        <time>2009-01-05T11:23:40Z</time>
      </trkpt>
      <trkpt lat="27.92650900" lon="-15.6787030">
        <ele>954.69000</ele>
        <time>2009-01-05T11:23:41Z</time>
      </trkpt>
      <trkpt lat="27.92659100" lon="-15.6786830">
        <ele>954.12400</ele>
        <time>2009-01-05T11:23:42Z</time>
      </trkpt>
      <trkpt lat="27.92667100" lon="-15.6786580">
        <ele>953.47500</ele>
        <time>2009-01-05T11:23:43Z</time>
      </trkpt>
      <trkpt lat="27.92674800" lon="-15.6786240">
        <ele>952.91500</ele>
        <time>2009-01-05T11:23:44Z</time>
      </trkpt>
      <trkpt lat="27.92682000" lon="-15.6785800">
        <ele>952.35700</ele>
        <time>2009-01-05T11:23:45Z</time>
      </trkpt>
      <trkpt lat="27.92688700" lon="-15.6785270">
        <ele>952.32400</ele>
        <time>2009-01-05T11:23:46Z</time>
      </trkpt>
      <trkpt lat="27.92695000" lon="-15.6784690">
        <ele>952.35900</ele>
        <time>2009-01-05T11:23:47Z</time>
      </trkpt>
      <trkpt lat="27.92701100" lon="-15.6784070">
        <ele>951.63700</ele>
        <time>2009-01-05T11:23:48Z</time>
      </trkpt>
      <trkpt lat="27.92707000" lon="-15.6783420">
        <ele>951.28600</ele>
        <time>2009-01-05T11:23:49Z</time>
      </trkpt>
      <trkpt lat="27.92713900" lon="-15.6782790">
        <ele>951.30400</ele>
        <time>2009-01-05T11:23:50Z</time>
      </trkpt>
      <trkpt lat="27.92720000" lon="-15.6782100">
        <ele>951.01300</ele>
        <time>2009-01-05T11:23:51Z</time>
      </trkpt>
      <trkpt lat="27.92726100" lon="-15.6781430">
        <ele>950.55300</ele>
        <time>2009-01-05T11:23:52Z</time>
      </trkpt>
      <trkpt lat="27.92731900" lon="-15.6780750">
        <ele>950.72700</ele>
        <time>2009-01-05T11:23:53Z</time>
      </trkpt>
      <trkpt lat="27.92737600" lon="-15.6780060">
        <ele>950.10800</ele>
        <time>2009-01-05T11:23:54Z</time>
      </trkpt>
      <trkpt lat="27.92743100" lon="-15.6779340">
        <ele>949.77700</ele>
        <time>2009-01-05T11:23:55Z</time>
      </trkpt>
      <trkpt lat="27.92748200" lon="-15.6778600">
        <ele>949.93500</ele>
        <time>2009-01-05T11:23:56Z</time>
      </trkpt>
      <trkpt lat="27.92752200" lon="-15.6777830">
        <ele>949.67500</ele>
        <time>2009-01-05T11:23:57Z</time>
      </trkpt>
      <trkpt lat="27.92755300" lon="-15.6776980">
        <ele>949.62200</ele>
        <time>2009-01-05T11:23:58Z</time>
      </trkpt>
      <trkpt lat="27.92757600" lon="-15.6776110">
        <ele>949.65800</ele>
        <time>2009-01-05T11:23:59Z</time>
      </trkpt>
      <trkpt lat="27.92759900" lon="-15.6775240">
        <ele>949.65200</ele>
        <time>2009-01-05T11:24:00Z</time>
      </trkpt>
      <trkpt lat="27.92762200" lon="-15.6774380">
        <ele>949.32600</ele>
        <time>2009-01-05T11:24:01Z</time>
      </trkpt>
      <trkpt lat="27.92764700" lon="-15.6773550">
        <ele>949.31900</ele>
        <time>2009-01-05T11:24:02Z</time>
      </trkpt>
      <trkpt lat="27.92766900" lon="-15.6772730">
        <ele>949.46100</ele>
        <time>2009-01-05T11:24:03Z</time>
      </trkpt>
      <trkpt lat="27.92768900" lon="-15.6771940">
        <ele>949.57900</ele>
        <time>2009-01-05T11:24:04Z</time>
      </trkpt>
      <trkpt lat="27.92770800" lon="-15.6771200">
        <ele>949.48100</ele>
        <time>2009-01-05T11:24:05Z</time>
      </trkpt>
      <trkpt lat="27.92772800" lon="-15.6770500">
        <ele>949.43000</ele>
        <time>2009-01-05T11:24:06Z</time>
      </trkpt>
      <trkpt lat="27.92774700" lon="-15.6769830">
        <ele>949.45900</ele>
        <time>2009-01-05T11:24:07Z</time>
      </trkpt>
      <trkpt lat="27.92776400" lon="-15.6769170">
        <ele>949.74900</ele>
        <time>2009-01-05T11:24:08Z</time>
      </trkpt>
      <trkpt lat="27.92778200" lon="-15.6768520">
        <ele>949.69900</ele>
        <time>2009-01-05T11:24:09Z</time>
      </trkpt>
      <trkpt lat="27.92779900" lon="-15.6767870">
        <ele>949.84200</ele>
        <time>2009-01-05T11:24:10Z</time>
      </trkpt>
      <trkpt lat="27.92781700" lon="-15.6767200">
        <ele>949.66600</ele>
        <time>2009-01-05T11:24:11Z</time>
      </trkpt>
      <trkpt lat="27.92783300" lon="-15.6766530">
        <ele>949.76900</ele>
        <time>2009-01-05T11:24:12Z</time>
      </trkpt>
      <trkpt lat="27.92785100" lon="-15.6765850">
        <ele>950.00000</ele>
        <time>2009-01-05T11:24:13Z</time>
      </trkpt>
      <trkpt lat="27.92786700" lon="-15.6765190">
        <ele>949.85800</ele>
        <time>2009-01-05T11:24:14Z</time>
      </trkpt>
      <trkpt lat="27.92788300" lon="-15.6764520">
        <ele>949.99000</ele>
        <time>2009-01-05T11:24:15Z</time>
      </trkpt>
      <trkpt lat="27.92790000" lon="-15.6763850">
        <ele>950.12300</ele>
        <time>2009-01-05T11:24:16Z</time>
      </trkpt>
      <trkpt lat="27.92791700" lon="-15.6763190">
        <ele>950.30400</ele>
        <time>2009-01-05T11:24:17Z</time>
      </trkpt>
      <trkpt lat="27.92793300" lon="-15.6762530">
        <ele>950.41300</ele>
        <time>2009-01-05T11:24:18Z</time>
      </trkpt>
      <trkpt lat="27.92794800" lon="-15.6761860">
        <ele>950.30000</ele>
        <time>2009-01-05T11:24:19Z</time>
      </trkpt>
      <trkpt lat="27.92796400" lon="-15.6761190">
        <ele>950.32500</ele>
        <time>2009-01-05T11:24:20Z</time>
      </trkpt>
      <trkpt lat="27.92797900" lon="-15.6760520">
        <ele>950.55900</ele>
        <time>2009-01-05T11:24:21Z</time>
      </trkpt>
      <trkpt lat="27.92799400" lon="-15.6759850">
        <ele>950.61000</ele>
        <time>2009-01-05T11:24:22Z</time>
      </trkpt>
      <trkpt lat="27.92801000" lon="-15.6759180">
        <ele>950.39700</ele>
        <time>2009-01-05T11:24:23Z</time>
      </trkpt>
      <trkpt lat="27.92802800" lon="-15.6758520">
        <ele>950.46700</ele>
        <time>2009-01-05T11:24:24Z</time>
      </trkpt>
      <trkpt lat="27.92804400" lon="-15.6757870">
        <ele>950.93400</ele>
        <time>2009-01-05T11:24:25Z</time>
      </trkpt>
      <trkpt lat="27.92805900" lon="-15.6757210">
        <ele>951.04600</ele>
        <time>2009-01-05T11:24:26Z</time>
      </trkpt>
      <trkpt lat="27.92807300" lon="-15.6756570">
        <ele>950.96800</ele>
        <time>2009-01-05T11:24:27Z</time>
      </trkpt>
      <trkpt lat="27.92808700" lon="-15.6755930">
        <ele>950.84500</ele>
        <time>2009-01-05T11:24:28Z</time>
      </trkpt>
      <trkpt lat="27.92809800" lon="-15.6755300">
        <ele>950.87500</ele>
        <time>2009-01-05T11:24:29Z</time>
      </trkpt>
      <trkpt lat="27.92810500" lon="-15.6754670">
        <ele>950.85800</ele>
        <time>2009-01-05T11:24:30Z</time>
      </trkpt>
      <trkpt lat="27.92811000" lon="-15.6754030">
        <ele>950.89600</ele>
        <time>2009-01-05T11:24:31Z</time>
      </trkpt>
      <trkpt lat="27.92811100" lon="-15.6753400">
        <ele>951.21500</ele>
        <time>2009-01-05T11:24:32Z</time>
      </trkpt>
      <trkpt lat="27.92810700" lon="-15.6752790">
        <ele>951.07600</ele>
        <time>2009-01-05T11:24:33Z</time>
      </trkpt>
      <trkpt lat="27.92809900" lon="-15.6752180">
        <ele>951.06900</ele>
        <time>2009-01-05T11:24:34Z</time>
      </trkpt>
      <trkpt lat="27.92808400" lon="-15.6751590">
        <ele>951.12600</ele>
        <time>2009-01-05T11:24:35Z</time>
      </trkpt>
      <trkpt lat="27.92806500" lon="-15.6751000">
        <ele>950.99500</ele>
        <time>2009-01-05T11:24:36Z</time>
      </trkpt>
      <trkpt lat="27.92804300" lon="-15.6750400">
        <ele>950.86600</ele>
        <time>2009-01-05T11:24:37Z</time>
      </trkpt>
      <trkpt lat="27.92802000" lon="-15.6749790">
        <ele>950.88000</ele>
        <time>2009-01-05T11:24:38Z</time>
      </trkpt>
      <trkpt lat="27.92799500" lon="-15.6749170">
        <ele>951.16400</ele>
        <time>2009-01-05T11:24:39Z</time>
      </trkpt>
      <trkpt lat="27.92796600" lon="-15.6748590">
        <ele>951.22100</ele>
        <time>2009-01-05T11:24:40Z</time>
      </trkpt>
      <trkpt lat="27.92793100" lon="-15.6748070">
        <ele>951.06800</ele>
        <time>2009-01-05T11:24:41Z</time>
      </trkpt>
      <trkpt lat="27.92789400" lon="-15.6747590">
        <ele>951.14500</ele>
        <time>2009-01-05T11:24:42Z</time>
      </trkpt>
      <trkpt lat="27.92785300" lon="-15.6747140">
        <ele>950.80500</ele>
        <time>2009-01-05T11:24:43Z</time>
      </trkpt>
      <trkpt lat="27.92781100" lon="-15.6746720">
        <ele>951.18400</ele>
        <time>2009-01-05T11:24:44Z</time>
      </trkpt>
      <trkpt lat="27.92776500" lon="-15.6746340">
        <ele>951.30900</ele>
        <time>2009-01-05T11:24:45Z</time>
      </trkpt>
      <trkpt lat="27.92771800" lon="-15.6746010">
        <ele>951.44200</ele>
        <time>2009-01-05T11:24:46Z</time>
      </trkpt>
      <trkpt lat="27.92767000" lon="-15.6745700">
        <ele>951.62000</ele>
        <time>2009-01-05T11:24:47Z</time>
      </trkpt>
      <trkpt lat="27.92762200" lon="-15.6745430">
        <ele>951.81800</ele>
        <time>2009-01-05T11:24:48Z</time>
      </trkpt>
      <trkpt lat="27.92757400" lon="-15.6745170">
        <ele>951.81600</ele>
        <time>2009-01-05T11:24:49Z</time>
      </trkpt>
      <trkpt lat="27.92752700" lon="-15.6744910">
        <ele>951.72900</ele>
        <time>2009-01-05T11:24:50Z</time>
      </trkpt>
      <trkpt lat="27.92748000" lon="-15.6744650">
        <ele>951.88500</ele>
        <time>2009-01-05T11:24:51Z</time>
      </trkpt>
      <trkpt lat="27.92743400" lon="-15.6744370">
        <ele>951.83000</ele>
        <time>2009-01-05T11:24:52Z</time>
      </trkpt>
      <trkpt lat="27.92739000" lon="-15.6744090">
        <ele>952.39800</ele>
        <time>2009-01-05T11:24:53Z</time>
      </trkpt>
      <trkpt lat="27.92734400" lon="-15.6743820">
        <ele>952.24500</ele>
        <time>2009-01-05T11:24:54Z</time>
      </trkpt>
      <trkpt lat="27.92729900" lon="-15.6743560">
        <ele>952.35600</ele>
        <time>2009-01-05T11:24:55Z</time>
      </trkpt>
      <trkpt lat="27.92725200" lon="-15.6743330">
        <ele>952.31100</ele>
        <time>2009-01-05T11:24:56Z</time>
      </trkpt>
      <trkpt lat="27.92720500" lon="-15.6743130">
        <ele>952.44000</ele>
        <time>2009-01-05T11:24:57Z</time>
      </trkpt>
      <trkpt lat="27.92715800" lon="-15.6742900">
        <ele>952.68900</ele>
        <time>2009-01-05T11:24:58Z</time>
      </trkpt>
      <trkpt lat="27.92711100" lon="-15.6742640">
        <ele>952.28500</ele>
        <time>2009-01-05T11:24:59Z</time>
      </trkpt>
      <trkpt lat="27.92706400" lon="-15.6742350">
        <ele>952.15300</ele>
        <time>2009-01-05T11:25:00Z</time>
      </trkpt>
      <trkpt lat="27.92701900" lon="-15.6742060">
        <ele>952.51800</ele>
        <time>2009-01-05T11:25:01Z</time>
      </trkpt>
      <trkpt lat="27.92697300" lon="-15.6741760">
        <ele>952.33300</ele>
        <time>2009-01-05T11:25:02Z</time>
      </trkpt>
      <trkpt lat="27.92692500" lon="-15.6741480">
        <ele>952.25300</ele>
        <time>2009-01-05T11:25:03Z</time>
      </trkpt>
      <trkpt lat="27.92687700" lon="-15.6741200">
        <ele>952.02300</ele>
        <time>2009-01-05T11:25:04Z</time>
      </trkpt>
      <trkpt lat="27.92682800" lon="-15.6740930">
        <ele>952.42400</ele>
        <time>2009-01-05T11:25:05Z</time>
      </trkpt>
      <trkpt lat="27.92677900" lon="-15.6740660">
        <ele>952.28400</ele>
        <time>2009-01-05T11:25:06Z</time>
      </trkpt>
      <trkpt lat="27.92672900" lon="-15.6740400">
        <ele>952.37000</ele>
        <time>2009-01-05T11:25:07Z</time>
      </trkpt>
      <trkpt lat="27.92668000" lon="-15.6740130">
        <ele>952.28300</ele>
        <time>2009-01-05T11:25:08Z</time>
      </trkpt>
      <trkpt lat="27.92663100" lon="-15.6739860">
        <ele>952.36900</ele>
        <time>2009-01-05T11:25:09Z</time>
      </trkpt>
      <trkpt lat="27.92658300" lon="-15.6739550">
        <ele>952.29400</ele>
        <time>2009-01-05T11:25:10Z</time>
      </trkpt>
      <trkpt lat="27.92653700" lon="-15.6739240">
        <ele>952.13200</ele>
        <time>2009-01-05T11:25:11Z</time>
      </trkpt>
      <trkpt lat="27.92648900" lon="-15.6738930">
        <ele>952.39200</ele>
        <time>2009-01-05T11:25:12Z</time>
      </trkpt>
      <trkpt lat="27.92643900" lon="-15.6738630">
        <ele>952.01500</ele>
        <time>2009-01-05T11:25:13Z</time>
      </trkpt>
      <trkpt lat="27.92638900" lon="-15.6738320">
        <ele>951.49500</ele>
        <time>2009-01-05T11:25:14Z</time>
      </trkpt>
      <trkpt lat="27.92633800" lon="-15.6738020">
        <ele>951.06200</ele>
        <time>2009-01-05T11:25:15Z</time>
      </trkpt>
      <trkpt lat="27.92628400" lon="-15.6737710">
        <ele>951.01000</ele>
        <time>2009-01-05T11:25:16Z</time>
      </trkpt>
      <trkpt lat="27.92622700" lon="-15.6737380">
        <ele>950.77500</ele>
        <time>2009-01-05T11:25:17Z</time>
      </trkpt>
      <trkpt lat="27.92616800" lon="-15.6737040">
        <ele>950.71200</ele>
        <time>2009-01-05T11:25:18Z</time>
      </trkpt>
      <trkpt lat="27.92610700" lon="-15.6736690">
        <ele>950.00700</ele>
        <time>2009-01-05T11:25:19Z</time>
      </trkpt>
      <trkpt lat="27.92604400" lon="-15.6736310">
        <ele>949.68200</ele>
        <time>2009-01-05T11:25:20Z</time>
      </trkpt>
      <trkpt lat="27.92597800" lon="-15.6735930">
        <ele>949.65600</ele>
        <time>2009-01-05T11:25:21Z</time>
      </trkpt>
      <trkpt lat="27.92591100" lon="-15.6735540">
        <ele>949.32400</ele>
        <time>2009-01-05T11:25:22Z</time>
      </trkpt>
      <trkpt lat="27.92584300" lon="-15.6735110">
        <ele>948.30400</ele>
        <time>2009-01-05T11:25:23Z</time>
      </trkpt>
      <trkpt lat="27.92577400" lon="-15.6734680">
        <ele>947.88600</ele>
        <time>2009-01-05T11:25:24Z</time>
      </trkpt>
      <trkpt lat="27.92570600" lon="-15.6734220">
        <ele>947.49800</ele>
        <time>2009-01-05T11:25:25Z</time>
      </trkpt>
      <trkpt lat="27.92563800" lon="-15.6733710">
        <ele>947.23400</ele>
        <time>2009-01-05T11:25:26Z</time>
      </trkpt>
      <trkpt lat="27.92557100" lon="-15.6733120">
        <ele>946.43600</ele>
        <time>2009-01-05T11:25:27Z</time>
      </trkpt>
      <trkpt lat="27.92550400" lon="-15.6732470">
        <ele>946.08000</ele>
        <time>2009-01-05T11:25:28Z</time>
      </trkpt>
      <trkpt lat="27.92544700" lon="-15.6731700">
        <ele>945.74500</ele>
        <time>2009-01-05T11:25:29Z</time>
      </trkpt>
      <trkpt lat="27.92539400" lon="-15.6730810">
        <ele>945.14000</ele>
        <time>2009-01-05T11:25:30Z</time>
      </trkpt>
      <trkpt lat="27.92534000" lon="-15.6729910">
        <ele>944.51400</ele>
        <time>2009-01-05T11:25:31Z</time>
      </trkpt>
      <trkpt lat="27.92528400" lon="-15.6729000">
        <ele>943.24100</ele>
        <time>2009-01-05T11:25:32Z</time>
      </trkpt>
      <trkpt lat="27.92522700" lon="-15.6728100">
        <ele>942.64400</ele>
        <time>2009-01-05T11:25:33Z</time>
      </trkpt>
      <trkpt lat="27.92516900" lon="-15.6727140">
        <ele>941.95500</ele>
        <time>2009-01-05T11:25:34Z</time>
      </trkpt>
      <trkpt lat="27.92511400" lon="-15.6726150">
        <ele>941.91100</ele>
        <time>2009-01-05T11:25:35Z</time>
      </trkpt>
      <trkpt lat="27.92505800" lon="-15.6725170">
        <ele>941.15100</ele>
        <time>2009-01-05T11:25:36Z</time>
      </trkpt>
      <trkpt lat="27.92500200" lon="-15.6724160">
        <ele>940.54400</ele>
        <time>2009-01-05T11:25:37Z</time>
      </trkpt>
      <trkpt lat="27.92495300" lon="-15.6723080">
        <ele>939.64600</ele>
        <time>2009-01-05T11:25:38Z</time>
      </trkpt>
      <trkpt lat="27.92491800" lon="-15.6721920">
        <ele>938.99700</ele>
        <time>2009-01-05T11:25:39Z</time>
      </trkpt>
      <trkpt lat="27.92489700" lon="-15.6720690">
        <ele>938.55400</ele>
        <time>2009-01-05T11:25:40Z</time>
      </trkpt>
      <trkpt lat="27.92488800" lon="-15.6719420">
        <ele>938.22400</ele>
        <time>2009-01-05T11:25:41Z</time>
      </trkpt>
      <trkpt lat="27.92488500" lon="-15.6718140">
        <ele>937.04300</ele>
        <time>2009-01-05T11:25:42Z</time>
      </trkpt>
      <trkpt lat="27.92489200" lon="-15.6716910">
        <ele>936.62100</ele>
        <time>2009-01-05T11:25:43Z</time>
      </trkpt>
      <trkpt lat="27.92491100" lon="-15.6715790">
        <ele>935.99700</ele>
        <time>2009-01-05T11:25:44Z</time>
      </trkpt>
      <trkpt lat="27.92495200" lon="-15.6714800">
        <ele>935.49800</ele>
        <time>2009-01-05T11:25:45Z</time>
      </trkpt>
      <trkpt lat="27.92499800" lon="-15.6713950">
        <ele>934.99600</ele>
        <time>2009-01-05T11:25:46Z</time>
      </trkpt>
      <trkpt lat="27.92505300" lon="-15.6713290">
        <ele>934.23800</ele>
        <time>2009-01-05T11:25:47Z</time>
      </trkpt>
      <trkpt lat="27.92511900" lon="-15.6712700">
        <ele>933.56000</ele>
        <time>2009-01-05T11:25:48Z</time>
      </trkpt>
      <trkpt lat="27.92519700" lon="-15.6712240">
        <ele>933.33900</ele>
        <time>2009-01-05T11:25:49Z</time>
      </trkpt>
      <trkpt lat="27.92528100" lon="-15.6711930">
        <ele>932.98800</ele>
        <time>2009-01-05T11:25:50Z</time>
      </trkpt>
      <trkpt lat="27.92537000" lon="-15.6711750">
        <ele>931.96300</ele>
        <time>2009-01-05T11:25:51Z</time>
      </trkpt>
      <trkpt lat="27.92546200" lon="-15.6711620">
        <ele>931.24000</ele>
        <time>2009-01-05T11:25:52Z</time>
      </trkpt>
      <trkpt lat="27.92555400" lon="-15.6711520">
        <ele>930.39600</ele>
        <time>2009-01-05T11:25:53Z</time>
      </trkpt>
      <trkpt lat="27.92564700" lon="-15.6711400">
        <ele>929.44800</ele>
        <time>2009-01-05T11:25:54Z</time>
      </trkpt>
      <trkpt lat="27.92574400" lon="-15.6711190">
        <ele>928.94500</ele>
        <time>2009-01-05T11:25:55Z</time>
      </trkpt>
      <trkpt lat="27.92583600" lon="-15.6710810">
        <ele>928.35700</ele>
        <time>2009-01-05T11:25:56Z</time>
      </trkpt>
      <trkpt lat="27.92592400" lon="-15.6710270">
        <ele>927.52000</ele>
        <time>2009-01-05T11:25:57Z</time>
      </trkpt>
      <trkpt lat="27.92601000" lon="-15.6709600">
        <ele>927.02000</ele>
        <time>2009-01-05T11:25:58Z</time>
      </trkpt>
      <trkpt lat="27.92609700" lon="-15.6708900">
        <ele>926.25800</ele>
        <time>2009-01-05T11:25:59Z</time>
      </trkpt>
      <trkpt lat="27.92618600" lon="-15.6708200">
        <ele>926.02900</ele>
        <time>2009-01-05T11:26:00Z</time>
      </trkpt>
      <trkpt lat="27.92627600" lon="-15.6707470">
        <ele>925.34200</ele>
        <time>2009-01-05T11:26:01Z</time>
      </trkpt>
      <trkpt lat="27.92636700" lon="-15.6706730">
        <ele>924.33900</ele>
        <time>2009-01-05T11:26:02Z</time>
      </trkpt>
      <trkpt lat="27.92646100" lon="-15.6706010">
        <ele>923.12500</ele>
        <time>2009-01-05T11:26:03Z</time>
      </trkpt>
      <trkpt lat="27.92655800" lon="-15.6705290">
        <ele>921.77300</ele>
        <time>2009-01-05T11:26:04Z</time>
      </trkpt>
      <trkpt lat="27.92665400" lon="-15.6704550">
        <ele>921.02200</ele>
        <time>2009-01-05T11:26:05Z</time>
      </trkpt>
      <trkpt lat="27.92675100" lon="-15.6703760">
        <ele>920.58000</ele>
        <time>2009-01-05T11:26:06Z</time>
      </trkpt>
      <trkpt lat="27.92684800" lon="-15.6702940">
        <ele>919.62500</ele>
        <time>2009-01-05T11:26:07Z</time>
      </trkpt>
      <trkpt lat="27.92694700" lon="-15.6702100">
        <ele>918.74900</ele>
        <time>2009-01-05T11:26:08Z</time>
      </trkpt>
      <trkpt lat="27.92704200" lon="-15.6701220">
        <ele>918.13800</ele>
        <time>2009-01-05T11:26:09Z</time>
      </trkpt>
      <trkpt lat="27.92712700" lon="-15.6700280">
        <ele>918.02000</ele>
        <time>2009-01-05T11:26:10Z</time>
      </trkpt>
      <trkpt lat="27.92720300" lon="-15.6699270">
        <ele>917.90600</ele>
        <time>2009-01-05T11:26:11Z</time>
      </trkpt>
      <trkpt lat="27.92727600" lon="-15.6698260">
        <ele>916.99300</ele>
        <time>2009-01-05T11:26:12Z</time>
      </trkpt>
      <trkpt lat="27.92735300" lon="-15.6697350">
        <ele>916.76400</ele>
        <time>2009-01-05T11:26:13Z</time>
      </trkpt>
      <trkpt lat="27.92744300" lon="-15.6696610">
        <ele>915.98000</ele>
        <time>2009-01-05T11:26:14Z</time>
      </trkpt>
      <trkpt lat="27.92753600" lon="-15.6695960">
        <ele>916.10500</ele>
        <time>2009-01-05T11:26:15Z</time>
      </trkpt>
      <trkpt lat="27.92763000" lon="-15.6695510">
        <ele>915.76800</ele>
        <time>2009-01-05T11:26:16Z</time>
      </trkpt>
      <trkpt lat="27.92772600" lon="-15.6695210">
        <ele>915.39400</ele>
        <time>2009-01-05T11:26:17Z</time>
      </trkpt>
      <trkpt lat="27.92782300" lon="-15.6695080">
        <ele>914.99500</ele>
        <time>2009-01-05T11:26:18Z</time>
      </trkpt>
      <trkpt lat="27.92791600" lon="-15.6694880">
        <ele>914.51800</ele>
        <time>2009-01-05T11:26:19Z</time>
      </trkpt>
      <trkpt lat="27.92800400" lon="-15.6694700">
        <ele>914.21200</ele>
        <time>2009-01-05T11:26:20Z</time>
      </trkpt>
      <trkpt lat="27.92809100" lon="-15.6694490">
        <ele>914.33700</ele>
        <time>2009-01-05T11:26:21Z</time>
      </trkpt>
      <trkpt lat="27.92817800" lon="-15.6694250">
        <ele>914.22100</ele>
        <time>2009-01-05T11:26:22Z</time>
      </trkpt>
      <trkpt lat="27.92825900" lon="-15.6694000">
        <ele>913.68800</ele>
        <time>2009-01-05T11:26:23Z</time>
      </trkpt>
      <trkpt lat="27.92834100" lon="-15.6693720">
        <ele>913.42700</ele>
        <time>2009-01-05T11:26:24Z</time>
      </trkpt>
      <trkpt lat="27.92841900" lon="-15.6693450">
        <ele>913.26500</ele>
        <time>2009-01-05T11:26:25Z</time>
      </trkpt>
      <trkpt lat="27.92849200" lon="-15.6693180">
        <ele>912.80300</ele>
        <time>2009-01-05T11:26:26Z</time>
      </trkpt>
      <trkpt lat="27.92856100" lon="-15.6692880">
        <ele>912.72500</ele>
        <time>2009-01-05T11:26:27Z</time>
      </trkpt>
      <trkpt lat="27.92862400" lon="-15.6692560">
        <ele>912.65300</ele>
        <time>2009-01-05T11:26:28Z</time>
      </trkpt>
      <trkpt lat="27.92868200" lon="-15.6692170">
        <ele>912.60600</ele>
        <time>2009-01-05T11:26:29Z</time>
      </trkpt>
      <trkpt lat="27.92873400" lon="-15.6691730">
        <ele>912.35100</ele>
        <time>2009-01-05T11:26:30Z</time>
      </trkpt>
      <trkpt lat="27.92878000" lon="-15.6691250">
        <ele>912.42400</ele>
        <time>2009-01-05T11:26:31Z</time>
      </trkpt>
      <trkpt lat="27.92881900" lon="-15.6690770">
        <ele>912.52800</ele>
        <time>2009-01-05T11:26:32Z</time>
      </trkpt>
      <trkpt lat="27.92885500" lon="-15.6690290">
        <ele>912.59500</ele>
        <time>2009-01-05T11:26:33Z</time>
      </trkpt>
      <trkpt lat="27.92888900" lon="-15.6689800">
        <ele>912.87100</ele>
        <time>2009-01-05T11:26:34Z</time>
      </trkpt>
      <trkpt lat="27.92892100" lon="-15.6689310">
        <ele>912.64500</ele>
        <time>2009-01-05T11:26:35Z</time>
      </trkpt>
      <trkpt lat="27.92895200" lon="-15.6688820">
        <ele>912.85700</ele>
        <time>2009-01-05T11:26:36Z</time>
      </trkpt>
      <trkpt lat="27.92898200" lon="-15.6688330">
        <ele>913.53500</ele>
        <time>2009-01-05T11:26:37Z</time>
      </trkpt>
      <trkpt lat="27.92901100" lon="-15.6687840">
        <ele>912.61100</ele>
        <time>2009-01-05T11:26:38Z</time>
      </trkpt>
      <trkpt lat="27.92904300" lon="-15.6687340">
        <ele>912.54600</ele>
        <time>2009-01-05T11:26:39Z</time>
      </trkpt>
      <trkpt lat="27.92907600" lon="-15.6686840">
        <ele>912.43400</ele>
        <time>2009-01-05T11:26:40Z</time>
      </trkpt>
      <trkpt lat="27.92910900" lon="-15.6686340">
        <ele>912.46100</ele>
        <time>2009-01-05T11:26:41Z</time>
      </trkpt>
      <trkpt lat="27.92913700" lon="-15.6685750">
        <ele>912.51300</ele>
        <time>2009-01-05T11:26:42Z</time>
      </trkpt>
      <trkpt lat="27.92915700" lon="-15.6685160">
        <ele>912.43300</ele>
        <time>2009-01-05T11:26:43Z</time>
      </trkpt>
      <trkpt lat="27.92917300" lon="-15.6684590">
        <ele>912.54000</ele>
        <time>2009-01-05T11:26:44Z</time>
      </trkpt>
      <trkpt lat="27.92918200" lon="-15.6683990">
        <ele>912.75800</ele>
        <time>2009-01-05T11:26:45Z</time>
      </trkpt>
      <trkpt lat="27.92918100" lon="-15.6683410">
        <ele>912.78500</ele>
        <time>2009-01-05T11:26:46Z</time>
      </trkpt>
      <trkpt lat="27.92917500" lon="-15.6682850">
        <ele>912.99000</ele>
        <time>2009-01-05T11:26:47Z</time>
      </trkpt>
      <trkpt lat="27.92916100" lon="-15.6682310">
        <ele>913.36400</ele>
        <time>2009-01-05T11:26:48Z</time>
      </trkpt>
      <trkpt lat="27.92914000" lon="-15.6681760">
        <ele>913.29200</ele>
        <time>2009-01-05T11:26:49Z</time>
      </trkpt>
      <trkpt lat="27.92911400" lon="-15.6681270">
        <ele>913.32500</ele>
        <time>2009-01-05T11:26:50Z</time>
      </trkpt>
      <trkpt lat="27.92908700" lon="-15.6680760">
        <ele>913.70700</ele>
        <time>2009-01-05T11:26:51Z</time>
      </trkpt>
      <trkpt lat="27.92906100" lon="-15.6680290">
        <ele>913.94900</ele>
        <time>2009-01-05T11:26:52Z</time>
      </trkpt>
      <trkpt lat="27.92903200" lon="-15.6679830">
        <ele>913.87900</ele>
        <time>2009-01-05T11:26:53Z</time>
      </trkpt>
      <trkpt lat="27.92900200" lon="-15.6679390">
        <ele>914.32700</ele>
        <time>2009-01-05T11:26:54Z</time>
      </trkpt>
      <trkpt lat="27.92897400" lon="-15.6678960">
        <ele>914.56100</ele>
        <time>2009-01-05T11:26:55Z</time>
      </trkpt>
      <trkpt lat="27.92894800" lon="-15.6678510">
        <ele>914.58400</ele>
        <time>2009-01-05T11:26:56Z</time>
      </trkpt>
      <trkpt lat="27.92892700" lon="-15.6678040">
        <ele>914.78800</ele>
        <time>2009-01-05T11:26:57Z</time>
      </trkpt>
      <trkpt lat="27.92890900" lon="-15.6677570">
        <ele>914.95600</ele>
        <time>2009-01-05T11:26:58Z</time>
      </trkpt>
      <trkpt lat="27.92889300" lon="-15.6677090">
        <ele>915.14300</ele>
        <time>2009-01-05T11:26:59Z</time>
      </trkpt>
      <trkpt lat="27.92888100" lon="-15.6676590">
        <ele>915.19400</ele>
        <time>2009-01-05T11:27:00Z</time>
      </trkpt>
      <trkpt lat="27.92887300" lon="-15.6676070">
        <ele>915.15300</ele>
        <time>2009-01-05T11:27:01Z</time>
      </trkpt>
      <trkpt lat="27.92886900" lon="-15.6675540">
        <ele>915.32100</ele>
        <time>2009-01-05T11:27:02Z</time>
      </trkpt>
      <trkpt lat="27.92887000" lon="-15.6675020">
        <ele>915.53600</ele>
        <time>2009-01-05T11:27:03Z</time>
      </trkpt>
      <trkpt lat="27.92887600" lon="-15.6674500">
        <ele>916.06800</ele>
        <time>2009-01-05T11:27:04Z</time>
      </trkpt>
      <trkpt lat="27.92888400" lon="-15.6674010">
        <ele>915.87600</ele>
        <time>2009-01-05T11:27:05Z</time>
      </trkpt>
      <trkpt lat="27.92889500" lon="-15.6673510">
        <ele>915.84700</ele>
        <time>2009-01-05T11:27:06Z</time>
      </trkpt>
      <trkpt lat="27.92891000" lon="-15.6673030">
        <ele>915.96700</ele>
        <time>2009-01-05T11:27:07Z</time>
      </trkpt>
      <trkpt lat="27.92893100" lon="-15.6672570">
        <ele>916.03900</ele>
        <time>2009-01-05T11:27:08Z</time>
      </trkpt>
      <trkpt lat="27.92895600" lon="-15.6672120">
        <ele>916.03500</ele>
        <time>2009-01-05T11:27:09Z</time>
      </trkpt>
      <trkpt lat="27.92898200" lon="-15.6671670">
        <ele>916.00400</ele>
        <time>2009-01-05T11:27:10Z</time>
      </trkpt>
      <trkpt lat="27.92901100" lon="-15.6671230">
        <ele>916.14500</ele>
        <time>2009-01-05T11:27:11Z</time>
      </trkpt>
      <trkpt lat="27.92904100" lon="-15.6670800">
        <ele>916.11500</ele>
        <time>2009-01-05T11:27:12Z</time>
      </trkpt>
      <trkpt lat="27.92907300" lon="-15.6670380">
        <ele>916.11400</ele>
        <time>2009-01-05T11:27:13Z</time>
      </trkpt>
      <trkpt lat="27.92910400" lon="-15.6669960">
        <ele>916.19800</ele>
        <time>2009-01-05T11:27:14Z</time>
      </trkpt>
      <trkpt lat="27.92913700" lon="-15.6669570">
        <ele>916.10800</ele>
        <time>2009-01-05T11:27:15Z</time>
      </trkpt>
      <trkpt lat="27.92917100" lon="-15.6669190">
        <ele>916.45600</ele>
        <time>2009-01-05T11:27:16Z</time>
      </trkpt>
      <trkpt lat="27.92920400" lon="-15.6668820">
        <ele>916.55900</ele>
        <time>2009-01-05T11:27:17Z</time>
      </trkpt>
      <trkpt lat="27.92923700" lon="-15.6668460">
        <ele>916.74400</ele>
        <time>2009-01-05T11:27:18Z</time>
      </trkpt>
      <trkpt lat="27.92927200" lon="-15.6668100">
        <ele>916.68500</ele>
        <time>2009-01-05T11:27:19Z</time>
      </trkpt>
      <trkpt lat="27.92930400" lon="-15.6667730">
        <ele>917.01800</ele>
        <time>2009-01-05T11:27:20Z</time>
      </trkpt>
      <trkpt lat="27.92933500" lon="-15.6667370">
        <ele>916.97300</ele>
        <time>2009-01-05T11:27:21Z</time>
      </trkpt>
      <trkpt lat="27.92936700" lon="-15.6667050">
        <ele>917.24000</ele>
        <time>2009-01-05T11:27:22Z</time>
      </trkpt>
      <trkpt lat="27.92939800" lon="-15.6666720">
        <ele>917.72600</ele>
        <time>2009-01-05T11:27:23Z</time>
      </trkpt>
      <trkpt lat="27.92942800" lon="-15.6666400">
        <ele>917.57800</ele>
        <time>2009-01-05T11:27:24Z</time>
      </trkpt>
      <trkpt lat="27.92945700" lon="-15.6666080">
        <ele>918.05100</ele>
        <time>2009-01-05T11:27:25Z</time>
      </trkpt>
      <trkpt lat="27.92948600" lon="-15.6665760">
        <ele>918.35000</ele>
        <time>2009-01-05T11:27:26Z</time>
      </trkpt>
      <trkpt lat="27.92951300" lon="-15.6665420">
        <ele>918.64300</ele>
        <time>2009-01-05T11:27:27Z</time>
      </trkpt>
      <trkpt lat="27.92953900" lon="-15.6665060">
        <ele>918.76500</ele>
        <time>2009-01-05T11:27:28Z</time>
      </trkpt>
      <trkpt lat="27.92956400" lon="-15.6664700">
        <ele>918.81800</ele>
        <time>2009-01-05T11:27:29Z</time>
      </trkpt>
      <trkpt lat="27.92958500" lon="-15.6664320">
        <ele>919.24900</ele>
        <time>2009-01-05T11:27:30Z</time>
      </trkpt>
      <trkpt lat="27.92960500" lon="-15.6663930">
        <ele>919.31300</ele>
        <time>2009-01-05T11:27:31Z</time>
      </trkpt>
      <trkpt lat="27.92962300" lon="-15.6663550">
        <ele>919.75700</ele>
        <time>2009-01-05T11:27:32Z</time>
      </trkpt>
      <trkpt lat="27.92963900" lon="-15.6663180">
        <ele>919.80700</ele>
        <time>2009-01-05T11:27:33Z</time>
      </trkpt>
      <trkpt lat="27.92965300" lon="-15.6662800">
        <ele>919.92100</ele>
        <time>2009-01-05T11:27:34Z</time>
      </trkpt>
      <trkpt lat="27.92966500" lon="-15.6662400">
        <ele>920.18800</ele>
        <time>2009-01-05T11:27:35Z</time>
      </trkpt>
      <trkpt lat="27.92967700" lon="-15.6662010">
        <ele>920.46300</ele>
        <time>2009-01-05T11:27:36Z</time>
      </trkpt>
      <trkpt lat="27.92968800" lon="-15.6661620">
        <ele>920.63200</ele>
        <time>2009-01-05T11:27:37Z</time>
      </trkpt>
      <trkpt lat="27.92969800" lon="-15.6661240">
        <ele>920.73700</ele>
        <time>2009-01-05T11:27:38Z</time>
      </trkpt>
      <trkpt lat="27.92970900" lon="-15.6660860">
        <ele>920.81100</ele>
        <time>2009-01-05T11:27:39Z</time>
      </trkpt>
      <trkpt lat="27.92971900" lon="-15.6660500">
        <ele>920.82200</ele>
        <time>2009-01-05T11:27:40Z</time>
      </trkpt>
      <trkpt lat="27.92972900" lon="-15.6660150">
        <ele>920.82200</ele>
        <time>2009-01-05T11:27:41Z</time>
      </trkpt>
      <trkpt lat="27.92974000" lon="-15.6659820">
        <ele>921.39000</ele>
        <time>2009-01-05T11:27:42Z</time>
      </trkpt>
      <trkpt lat="27.92975100" lon="-15.6659500">
        <ele>921.04700</ele>
        <time>2009-01-05T11:27:43Z</time>
      </trkpt>
      <trkpt lat="27.92976200" lon="-15.6659190">
        <ele>921.61000</ele>
        <time>2009-01-05T11:27:44Z</time>
      </trkpt>
      <trkpt lat="27.92977300" lon="-15.6658880">
        <ele>921.91200</ele>
        <time>2009-01-05T11:27:45Z</time>
      </trkpt>
      <trkpt lat="27.92978300" lon="-15.6658570">
        <ele>921.85700</ele>
        <time>2009-01-05T11:27:46Z</time>
      </trkpt>
      <trkpt lat="27.92979300" lon="-15.6658290">
        <ele>922.04700</ele>
        <time>2009-01-05T11:27:47Z</time>
      </trkpt>
      <trkpt lat="27.92980200" lon="-15.6657980">
        <ele>922.03700</ele>
        <time>2009-01-05T11:27:48Z</time>
      </trkpt>
      <trkpt lat="27.92984500" lon="-15.6655860">
        <ele>923.56500</ele>
        <time>2009-01-05T11:27:54Z</time>
      </trkpt>
      <trkpt lat="27.92985100" lon="-15.6655500">
        <ele>923.56500</ele>
        <time>2009-01-05T11:27:55Z</time>
      </trkpt>
      <trkpt lat="27.92985900" lon="-15.6655160">
        <ele>923.92700</ele>
        <time>2009-01-05T11:27:56Z</time>
      </trkpt>
      <trkpt lat="27.92986800" lon="-15.6654830">
        <ele>923.92700</ele>
        <time>2009-01-05T11:27:57Z</time>
      </trkpt>
      <trkpt lat="27.92987600" lon="-15.6654520">
        <ele>924.22800</ele>
        <time>2009-01-05T11:27:58Z</time>
      </trkpt>
      <trkpt lat="27.92988500" lon="-15.6654230">
        <ele>924.27600</ele>
        <time>2009-01-05T11:27:59Z</time>
      </trkpt>
      <trkpt lat="27.92989400" lon="-15.6653960">
        <ele>924.74400</ele>
        <time>2009-01-05T11:28:00Z</time>
      </trkpt>
      <trkpt lat="27.92990300" lon="-15.6653690">
        <ele>924.80200</ele>
        <time>2009-01-05T11:28:01Z</time>
      </trkpt>
      <trkpt lat="27.92991100" lon="-15.6653410">
        <ele>925.33400</ele>
        <time>2009-01-05T11:28:02Z</time>
      </trkpt>
      <trkpt lat="27.92991800" lon="-15.6653110">
        <ele>925.40100</ele>
        <time>2009-01-05T11:28:03Z</time>
      </trkpt>
      <trkpt lat="27.92992400" lon="-15.6652800">
        <ele>925.44800</ele>
        <time>2009-01-05T11:28:04Z</time>
      </trkpt>
      <trkpt lat="27.92993000" lon="-15.6652480">
        <ele>925.70500</ele>
        <time>2009-01-05T11:28:05Z</time>
      </trkpt>
      <trkpt lat="27.92993800" lon="-15.6652140">
        <ele>925.98800</ele>
        <time>2009-01-05T11:28:06Z</time>
      </trkpt>
      <trkpt lat="27.92994600" lon="-15.6651820">
        <ele>925.99100</ele>
        <time>2009-01-05T11:28:07Z</time>
      </trkpt>
      <trkpt lat="27.92995500" lon="-15.6651510">
        <ele>926.44800</ele>
        <time>2009-01-05T11:28:08Z</time>
      </trkpt>
      <trkpt lat="27.92996500" lon="-15.6651210">
        <ele>926.66200</ele>
        <time>2009-01-05T11:28:09Z</time>
      </trkpt>
      <trkpt lat="27.92997400" lon="-15.6650910">
        <ele>926.80800</ele>
        <time>2009-01-05T11:28:10Z</time>
      </trkpt>
      <trkpt lat="27.92998200" lon="-15.6650630">
        <ele>927.03500</ele>
        <time>2009-01-05T11:28:11Z</time>
      </trkpt>
      <trkpt lat="27.92999300" lon="-15.6650360">
        <ele>927.40000</ele>
        <time>2009-01-05T11:28:12Z</time>
      </trkpt>
      <trkpt lat="27.93000500" lon="-15.6650100">
        <ele>927.50100</ele>
        <time>2009-01-05T11:28:13Z</time>
      </trkpt>
      <trkpt lat="27.93002000" lon="-15.6649830">
        <ele>927.76800</ele>
        <time>2009-01-05T11:28:14Z</time>
      </trkpt>
      <trkpt lat="27.93003600" lon="-15.6649590">
        <ele>927.84800</ele>
        <time>2009-01-05T11:28:15Z</time>
      </trkpt>
      <trkpt lat="27.93005400" lon="-15.6649350">
        <ele>927.89600</ele>
        <time>2009-01-05T11:28:16Z</time>
      </trkpt>
      <trkpt lat="27.93007100" lon="-15.6649100">
        <ele>928.17700</ele>
        <time>2009-01-05T11:28:17Z</time>
      </trkpt>
      <trkpt lat="27.93008900" lon="-15.6648860">
        <ele>928.56400</ele>
        <time>2009-01-05T11:28:18Z</time>
      </trkpt>
      <trkpt lat="27.93010900" lon="-15.6648630">
        <ele>928.65700</ele>
        <time>2009-01-05T11:28:19Z</time>
      </trkpt>
      <trkpt lat="27.93013000" lon="-15.6648420">
        <ele>928.93500</ele>
        <time>2009-01-05T11:28:20Z</time>
      </trkpt>
      <trkpt lat="27.93015200" lon="-15.6648210">
        <ele>929.08900</ele>
        <time>2009-01-05T11:28:21Z</time>
      </trkpt>
      <trkpt lat="27.93017500" lon="-15.6648030">
        <ele>929.17900</ele>
        <time>2009-01-05T11:28:22Z</time>
      </trkpt>
      <trkpt lat="27.93019900" lon="-15.6647870">
        <ele>929.49900</ele>
        <time>2009-01-05T11:28:23Z</time>
      </trkpt>
      <trkpt lat="27.93022200" lon="-15.6647700">
        <ele>929.61600</ele>
        <time>2009-01-05T11:28:24Z</time>
      </trkpt>
      <trkpt lat="27.93024600" lon="-15.6647540">
        <ele>929.83600</ele>
        <time>2009-01-05T11:28:25Z</time>
      </trkpt>
      <trkpt lat="27.93026900" lon="-15.6647380">
        <ele>930.01700</ele>
        <time>2009-01-05T11:28:26Z</time>
      </trkpt>
      <trkpt lat="27.93029200" lon="-15.6647210">
        <ele>930.23900</ele>
        <time>2009-01-05T11:28:27Z</time>
      </trkpt>
      <trkpt lat="27.93031300" lon="-15.6647040">
        <ele>930.46100</ele>
        <time>2009-01-05T11:28:28Z</time>
      </trkpt>
      <trkpt lat="27.93033200" lon="-15.6646850">
        <ele>930.57000</ele>
        <time>2009-01-05T11:28:29Z</time>
      </trkpt>
      <trkpt lat="27.93035100" lon="-15.6646660">
        <ele>930.83700</ele>
        <time>2009-01-05T11:28:30Z</time>
      </trkpt>
      <trkpt lat="27.93037200" lon="-15.6646480">
        <ele>930.97200</ele>
        <time>2009-01-05T11:28:31Z</time>
      </trkpt>
      <trkpt lat="27.93039300" lon="-15.6646290">
        <ele>931.33100</ele>
        <time>2009-01-05T11:28:32Z</time>
      </trkpt>
      <trkpt lat="27.93041400" lon="-15.6646100">
        <ele>931.27000</ele>
        <time>2009-01-05T11:28:33Z</time>
      </trkpt>
      <trkpt lat="27.93043400" lon="-15.6645900">
        <ele>931.19300</ele>
        <time>2009-01-05T11:28:34Z</time>
      </trkpt>
      <trkpt lat="27.93045600" lon="-15.6645710">
        <ele>931.80000</ele>
        <time>2009-01-05T11:28:35Z</time>
      </trkpt>
      <trkpt lat="27.93047800" lon="-15.6645520">
        <ele>931.79700</ele>
        <time>2009-01-05T11:28:36Z</time>
      </trkpt>
      <trkpt lat="27.93050000" lon="-15.6645320">
        <ele>932.10100</ele>
        <time>2009-01-05T11:28:37Z</time>
      </trkpt>
      <trkpt lat="27.93052100" lon="-15.6645130">
        <ele>932.29000</ele>
        <time>2009-01-05T11:28:38Z</time>
      </trkpt>
      <trkpt lat="27.93054300" lon="-15.6644940">
        <ele>932.52700</ele>
        <time>2009-01-05T11:28:39Z</time>
      </trkpt>
      <trkpt lat="27.93056500" lon="-15.6644740">
        <ele>932.57700</ele>
        <time>2009-01-05T11:28:40Z</time>
      </trkpt>
      <trkpt lat="27.93058600" lon="-15.6644540">
        <ele>932.59900</ele>
        <time>2009-01-05T11:28:41Z</time>
      </trkpt>
      <trkpt lat="27.93061000" lon="-15.6644320">
        <ele>932.73800</ele>
        <time>2009-01-05T11:28:42Z</time>
      </trkpt>
      <trkpt lat="27.93063200" lon="-15.6644140">
        <ele>933.06700</ele>
        <time>2009-01-05T11:28:43Z</time>
      </trkpt>
      <trkpt lat="27.93065500" lon="-15.6643970">
        <ele>933.19300</ele>
        <time>2009-01-05T11:28:44Z</time>
      </trkpt>
      <trkpt lat="27.93067800" lon="-15.6643800">
        <ele>933.13400</ele>
        <time>2009-01-05T11:28:45Z</time>
      </trkpt>
      <trkpt lat="27.93070200" lon="-15.6643620">
        <ele>933.41000</ele>
        <time>2009-01-05T11:28:46Z</time>
      </trkpt>
      <trkpt lat="27.93072500" lon="-15.6643430">
        <ele>933.64700</ele>
        <time>2009-01-05T11:28:47Z</time>
      </trkpt>
      <trkpt lat="27.93074800" lon="-15.6643220">
        <ele>934.05300</ele>
        <time>2009-01-05T11:28:48Z</time>
      </trkpt>
      <trkpt lat="27.93077000" lon="-15.6643000">
        <ele>933.86400</ele>
        <time>2009-01-05T11:28:49Z</time>
      </trkpt>
      <trkpt lat="27.93079100" lon="-15.6642780">
        <ele>934.10500</ele>
        <time>2009-01-05T11:28:50Z</time>
      </trkpt>
      <trkpt lat="27.93081400" lon="-15.6642530">
        <ele>934.18000</ele>
        <time>2009-01-05T11:28:51Z</time>
      </trkpt>
      <trkpt lat="27.93083700" lon="-15.6642310">
        <ele>934.47400</ele>
        <time>2009-01-05T11:28:52Z</time>
      </trkpt>
      <trkpt lat="27.93086100" lon="-15.6642070">
        <ele>934.56000</ele>
        <time>2009-01-05T11:28:53Z</time>
      </trkpt>
      <trkpt lat="27.93088500" lon="-15.6641850">
        <ele>934.76800</ele>
        <time>2009-01-05T11:28:54Z</time>
      </trkpt>
      <trkpt lat="27.93091000" lon="-15.6641650">
        <ele>935.06800</ele>
        <time>2009-01-05T11:28:55Z</time>
      </trkpt>
      <trkpt lat="27.93093500" lon="-15.6641460">
        <ele>935.07300</ele>
        <time>2009-01-05T11:28:56Z</time>
      </trkpt>
      <trkpt lat="27.93096100" lon="-15.6641260">
        <ele>935.19500</ele>
        <time>2009-01-05T11:28:57Z</time>
      </trkpt>
      <trkpt lat="27.93098600" lon="-15.6641080">
        <ele>935.63100</ele>
        <time>2009-01-05T11:28:58Z</time>
      </trkpt>
      <trkpt lat="27.93101000" lon="-15.6640890">
        <ele>935.56200</ele>
        <time>2009-01-05T11:28:59Z</time>
      </trkpt>
      <trkpt lat="27.93103300" lon="-15.6640700">
        <ele>935.62100</ele>
        <time>2009-01-05T11:29:00Z</time>
      </trkpt>
      <trkpt lat="27.93105700" lon="-15.6640510">
        <ele>935.92500</ele>
        <time>2009-01-05T11:29:01Z</time>
      </trkpt>
      <trkpt lat="27.93108300" lon="-15.6640330">
        <ele>935.69500</ele>
        <time>2009-01-05T11:29:02Z</time>
      </trkpt>
      <trkpt lat="27.93110800" lon="-15.6640150">
        <ele>935.86500</ele>
        <time>2009-01-05T11:29:03Z</time>
      </trkpt>
      <trkpt lat="27.93113100" lon="-15.6639970">
        <ele>936.02900</ele>
        <time>2009-01-05T11:29:04Z</time>
      </trkpt>
      <trkpt lat="27.93115700" lon="-15.6639810">
        <ele>936.38300</ele>
        <time>2009-01-05T11:29:05Z</time>
      </trkpt>
      <trkpt lat="27.93118500" lon="-15.6639680">
        <ele>936.36500</ele>
        <time>2009-01-05T11:29:06Z</time>
      </trkpt>
      <trkpt lat="27.93121500" lon="-15.6639550">
        <ele>936.46400</ele>
        <time>2009-01-05T11:29:07Z</time>
      </trkpt>
      <trkpt lat="27.93124500" lon="-15.6639410">
        <ele>936.31400</ele>
        <time>2009-01-05T11:29:08Z</time>
      </trkpt>
      <trkpt lat="27.93127600" lon="-15.6639260">
        <ele>936.24300</ele>
        <time>2009-01-05T11:29:09Z</time>
      </trkpt>
      <trkpt lat="27.93130700" lon="-15.6639090">
        <ele>936.57400</ele>
        <time>2009-01-05T11:29:10Z</time>
      </trkpt>
      <trkpt lat="27.93133600" lon="-15.6638940">
        <ele>936.35900</ele>
        <time>2009-01-05T11:29:11Z</time>
      </trkpt>
      <trkpt lat="27.93136500" lon="-15.6638790">
        <ele>936.58600</ele>
        <time>2009-01-05T11:29:12Z</time>
      </trkpt>
      <trkpt lat="27.93139500" lon="-15.6638640">
        <ele>936.62100</ele>
        <time>2009-01-05T11:29:13Z</time>
      </trkpt>
      <trkpt lat="27.93142600" lon="-15.6638470">
        <ele>936.60600</ele>
        <time>2009-01-05T11:29:14Z</time>
      </trkpt>
      <trkpt lat="27.93145700" lon="-15.6638280">
        <ele>936.73600</ele>
        <time>2009-01-05T11:29:15Z</time>
      </trkpt>
      <trkpt lat="27.93148900" lon="-15.6638100">
        <ele>936.88600</ele>
        <time>2009-01-05T11:29:16Z</time>
      </trkpt>
      <trkpt lat="27.93152200" lon="-15.6637940">
        <ele>936.89200</ele>
        <time>2009-01-05T11:29:17Z</time>
      </trkpt>
      <trkpt lat="27.93155500" lon="-15.6637790">
        <ele>937.02600</ele>
        <time>2009-01-05T11:29:18Z</time>
      </trkpt>
      <trkpt lat="27.93159100" lon="-15.6637630">
        <ele>937.20300</ele>
        <time>2009-01-05T11:29:19Z</time>
      </trkpt>
      <trkpt lat="27.93163000" lon="-15.6637460">
        <ele>937.27400</ele>
        <time>2009-01-05T11:29:20Z</time>
      </trkpt>
      <trkpt lat="27.93166600" lon="-15.6637300">
        <ele>937.48000</ele>
        <time>2009-01-05T11:29:21Z</time>
      </trkpt>
      <trkpt lat="27.93169900" lon="-15.6637120">
        <ele>937.37400</ele>
        <time>2009-01-05T11:29:22Z</time>
      </trkpt>
      <trkpt lat="27.93173000" lon="-15.6636940">
        <ele>937.77200</ele>
        <time>2009-01-05T11:29:23Z</time>
      </trkpt>
      <trkpt lat="27.93176200" lon="-15.6636760">
        <ele>937.67700</ele>
        <time>2009-01-05T11:29:24Z</time>
      </trkpt>
      <trkpt lat="27.93179400" lon="-15.6636590">
        <ele>937.64100</ele>
        <time>2009-01-05T11:29:25Z</time>
      </trkpt>
      <trkpt lat="27.93182500" lon="-15.6636420">
        <ele>937.61100</ele>
        <time>2009-01-05T11:29:26Z</time>
      </trkpt>
      <trkpt lat="27.93185800" lon="-15.6636230">
        <ele>937.86700</ele>
        <time>2009-01-05T11:29:27Z</time>
      </trkpt>
      <trkpt lat="27.93189000" lon="-15.6636040">
        <ele>938.33900</ele>
        <time>2009-01-05T11:29:28Z</time>
      </trkpt>
      <trkpt lat="27.93192400" lon="-15.6635840">
        <ele>938.15800</ele>
        <time>2009-01-05T11:29:29Z</time>
      </trkpt>
      <trkpt lat="27.93195600" lon="-15.6635630">
        <ele>938.11200</ele>
        <time>2009-01-05T11:29:30Z</time>
      </trkpt>
      <trkpt lat="27.93198900" lon="-15.6635420">
        <ele>938.40900</ele>
        <time>2009-01-05T11:29:31Z</time>
      </trkpt>
      <trkpt lat="27.93202100" lon="-15.6635210">
        <ele>938.25800</ele>
        <time>2009-01-05T11:29:32Z</time>
      </trkpt>
      <trkpt lat="27.93205300" lon="-15.6635010">
        <ele>938.36600</ele>
        <time>2009-01-05T11:29:33Z</time>
      </trkpt>
      <trkpt lat="27.93208300" lon="-15.6634830">
        <ele>938.68600</ele>
        <time>2009-01-05T11:29:34Z</time>
      </trkpt>
      <trkpt lat="27.93211400" lon="-15.6634640">
        <ele>938.78900</ele>
        <time>2009-01-05T11:29:35Z</time>
      </trkpt>
      <trkpt lat="27.93214400" lon="-15.6634440">
        <ele>938.54300</ele>
        <time>2009-01-05T11:29:36Z</time>
      </trkpt>
      <trkpt lat="27.93217500" lon="-15.6634220">
        <ele>938.90000</ele>
        <time>2009-01-05T11:29:37Z</time>
      </trkpt>
      <trkpt lat="27.93220400" lon="-15.6634010">
        <ele>939.01400</ele>
        <time>2009-01-05T11:29:38Z</time>
      </trkpt>
      <trkpt lat="27.93223300" lon="-15.6633770">
        <ele>939.05300</ele>
        <time>2009-01-05T11:29:39Z</time>
      </trkpt>
      <trkpt lat="27.93226100" lon="-15.6633520">
        <ele>939.21400</ele>
        <time>2009-01-05T11:29:40Z</time>
      </trkpt>
      <trkpt lat="27.93228800" lon="-15.6633280">
        <ele>939.45200</ele>
        <time>2009-01-05T11:29:41Z</time>
      </trkpt>
      <trkpt lat="27.93231500" lon="-15.6633030">
        <ele>939.42500</ele>
        <time>2009-01-05T11:29:42Z</time>
      </trkpt>
      <trkpt lat="27.93234300" lon="-15.6632800">
        <ele>939.52800</ele>
        <time>2009-01-05T11:29:43Z</time>
      </trkpt>
      <trkpt lat="27.93237200" lon="-15.6632580">
        <ele>939.42700</ele>
        <time>2009-01-05T11:29:44Z</time>
      </trkpt>
      <trkpt lat="27.93240000" lon="-15.6632360">
        <ele>939.95500</ele>
        <time>2009-01-05T11:29:45Z</time>
      </trkpt>
      <trkpt lat="27.93242800" lon="-15.6632120">
        <ele>940.00200</ele>
        <time>2009-01-05T11:29:46Z</time>
      </trkpt>
      <trkpt lat="27.93245600" lon="-15.6631880">
        <ele>940.06400</ele>
        <time>2009-01-05T11:29:47Z</time>
      </trkpt>
      <trkpt lat="27.93248400" lon="-15.6631630">
        <ele>940.26400</ele>
        <time>2009-01-05T11:29:48Z</time>
      </trkpt>
      <trkpt lat="27.93251200" lon="-15.6631390">
        <ele>940.32400</ele>
        <time>2009-01-05T11:29:49Z</time>
      </trkpt>
      <trkpt lat="27.93254100" lon="-15.6631140">
        <ele>940.35900</ele>
        <time>2009-01-05T11:29:50Z</time>
      </trkpt>
      <trkpt lat="27.93257000" lon="-15.6630900">
        <ele>940.31800</ele>
        <time>2009-01-05T11:29:51Z</time>
      </trkpt>
      <trkpt lat="27.93259700" lon="-15.6630670">
        <ele>940.68900</ele>
        <time>2009-01-05T11:29:52Z</time>
      </trkpt>
      <trkpt lat="27.93262600" lon="-15.6630410">
        <ele>940.87000</ele>
        <time>2009-01-05T11:29:53Z</time>
      </trkpt>
      <trkpt lat="27.93265600" lon="-15.6630140">
        <ele>940.65900</ele>
        <time>2009-01-05T11:29:54Z</time>
      </trkpt>
      <trkpt lat="27.93268600" lon="-15.6629870">
        <ele>940.62000</ele>
        <time>2009-01-05T11:29:55Z</time>
      </trkpt>
      <trkpt lat="27.93271600" lon="-15.6629610">
        <ele>940.65200</ele>
        <time>2009-01-05T11:29:56Z</time>
      </trkpt>
      <trkpt lat="27.93274700" lon="-15.6629350">
        <ele>940.72200</ele>
        <time>2009-01-05T11:29:57Z</time>
      </trkpt>
      <trkpt lat="27.93277800" lon="-15.6629080">
        <ele>941.09500</ele>
        <time>2009-01-05T11:29:58Z</time>
      </trkpt>
      <trkpt lat="27.93280900" lon="-15.6628820">
        <ele>940.95600</ele>
        <time>2009-01-05T11:29:59Z</time>
      </trkpt>
      <trkpt lat="27.93284000" lon="-15.6628550">
        <ele>940.94600</ele>
        <time>2009-01-05T11:30:00Z</time>
      </trkpt>
      <trkpt lat="27.93287000" lon="-15.6628250">
        <ele>941.04100</ele>
        <time>2009-01-05T11:30:01Z</time>
      </trkpt>
      <trkpt lat="27.93290000" lon="-15.6627920">
        <ele>941.22100</ele>
        <time>2009-01-05T11:30:02Z</time>
      </trkpt>
      <trkpt lat="27.93292900" lon="-15.6627570">
        <ele>941.26500</ele>
        <time>2009-01-05T11:30:03Z</time>
      </trkpt>
      <trkpt lat="27.93295500" lon="-15.6627180">
        <ele>941.42400</ele>
        <time>2009-01-05T11:30:04Z</time>
      </trkpt>
      <trkpt lat="27.93297600" lon="-15.6626750">
        <ele>941.25900</ele>
        <time>2009-01-05T11:30:05Z</time>
      </trkpt>
      <trkpt lat="27.93299200" lon="-15.6626280">
        <ele>941.33800</ele>
        <time>2009-01-05T11:30:06Z</time>
      </trkpt>
      <trkpt lat="27.93300000" lon="-15.6625780">
        <ele>941.09500</ele>
        <time>2009-01-05T11:30:07Z</time>
      </trkpt>
      <trkpt lat="27.93300200" lon="-15.6625260">
        <ele>941.36400</ele>
        <time>2009-01-05T11:30:08Z</time>
      </trkpt>
      <trkpt lat="27.93299400" lon="-15.6624740">
        <ele>941.39500</ele>
        <time>2009-01-05T11:30:09Z</time>
      </trkpt>
      <trkpt lat="27.93297800" lon="-15.6624260">
        <ele>941.54800</ele>
        <time>2009-01-05T11:30:10Z</time>
      </trkpt>
      <trkpt lat="27.93295800" lon="-15.6623790">
        <ele>941.44500</ele>
        <time>2009-01-05T11:30:11Z</time>
      </trkpt>
      <trkpt lat="27.93293400" lon="-15.6623360">
        <ele>941.24300</ele>
        <time>2009-01-05T11:30:12Z</time>
      </trkpt>
      <trkpt lat="27.93290700" lon="-15.6622970">
        <ele>941.61800</ele>
        <time>2009-01-05T11:30:13Z</time>
      </trkpt>
      <trkpt lat="27.93287400" lon="-15.6622600">
        <ele>941.83300</ele>
        <time>2009-01-05T11:30:14Z</time>
      </trkpt>
      <trkpt lat="27.93283700" lon="-15.6622300">
        <ele>941.96200</ele>
        <time>2009-01-05T11:30:15Z</time>
      </trkpt>
      <trkpt lat="27.93279700" lon="-15.6622030">
        <ele>941.79600</ele>
        <time>2009-01-05T11:30:16Z</time>
      </trkpt>
      <trkpt lat="27.93275300" lon="-15.6621820">
        <ele>942.07600</ele>
        <time>2009-01-05T11:30:17Z</time>
      </trkpt>
      <trkpt lat="27.93270700" lon="-15.6621680">
        <ele>941.95800</ele>
        <time>2009-01-05T11:30:18Z</time>
      </trkpt>
      <trkpt lat="27.93266200" lon="-15.6621550">
        <ele>941.99800</ele>
        <time>2009-01-05T11:30:19Z</time>
      </trkpt>
      <trkpt lat="27.93261900" lon="-15.6621460">
        <ele>942.11500</ele>
        <time>2009-01-05T11:30:20Z</time>
      </trkpt>
      <trkpt lat="27.93257600" lon="-15.6621450">
        <ele>942.22900</ele>
        <time>2009-01-05T11:30:21Z</time>
      </trkpt>
      <trkpt lat="27.93253200" lon="-15.6621450">
        <ele>942.12300</ele>
        <time>2009-01-05T11:30:22Z</time>
      </trkpt>
      <trkpt lat="27.93248900" lon="-15.6621420">
        <ele>942.34300</ele>
        <time>2009-01-05T11:30:23Z</time>
      </trkpt>
      <trkpt lat="27.93244800" lon="-15.6621350">
        <ele>942.74500</ele>
        <time>2009-01-05T11:30:24Z</time>
      </trkpt>
      <trkpt lat="27.93240800" lon="-15.6621280">
        <ele>942.91400</ele>
        <time>2009-01-05T11:30:25Z</time>
      </trkpt>
      <trkpt lat="27.93236900" lon="-15.6621210">
        <ele>943.00400</ele>
        <time>2009-01-05T11:30:26Z</time>
      </trkpt>
      <trkpt lat="27.93233000" lon="-15.6621150">
        <ele>943.29200</ele>
        <time>2009-01-05T11:30:27Z</time>
      </trkpt>
      <trkpt lat="27.93229100" lon="-15.6621100">
        <ele>943.34800</ele>
        <time>2009-01-05T11:30:28Z</time>
      </trkpt>
      <trkpt lat="27.93225300" lon="-15.6621050">
        <ele>943.47000</ele>
        <time>2009-01-05T11:30:29Z</time>
      </trkpt>
      <trkpt lat="27.93221600" lon="-15.6620960">
        <ele>943.82200</ele>
        <time>2009-01-05T11:30:30Z</time>
      </trkpt>
      <trkpt lat="27.93218000" lon="-15.6620850">
        <ele>944.28200</ele>
        <time>2009-01-05T11:30:31Z</time>
      </trkpt>
      <trkpt lat="27.93214500" lon="-15.6620730">
        <ele>944.39200</ele>
        <time>2009-01-05T11:30:32Z</time>
      </trkpt>
      <trkpt lat="27.93211300" lon="-15.6620560">
        <ele>944.87000</ele>
        <time>2009-01-05T11:30:33Z</time>
      </trkpt>
      <trkpt lat="27.93208300" lon="-15.6620380">
        <ele>945.16800</ele>
        <time>2009-01-05T11:30:34Z</time>
      </trkpt>
      <trkpt lat="27.93205300" lon="-15.6620180">
        <ele>945.31500</ele>
        <time>2009-01-05T11:30:35Z</time>
      </trkpt>
      <trkpt lat="27.93202500" lon="-15.6619950">
        <ele>945.62900</ele>
        <time>2009-01-05T11:30:36Z</time>
      </trkpt>
      <trkpt lat="27.93200200" lon="-15.6619680">
        <ele>945.70800</ele>
        <time>2009-01-05T11:30:37Z</time>
      </trkpt>
      <trkpt lat="27.93198200" lon="-15.6619390">
        <ele>946.07400</ele>
        <time>2009-01-05T11:30:38Z</time>
      </trkpt>
      <trkpt lat="27.93196600" lon="-15.6619080">
        <ele>946.32200</ele>
        <time>2009-01-05T11:30:39Z</time>
      </trkpt>
      <trkpt lat="27.93195600" lon="-15.6618740">
        <ele>946.83200</ele>
        <time>2009-01-05T11:30:40Z</time>
      </trkpt>
      <trkpt lat="27.93195200" lon="-15.6618370">
        <ele>946.86000</ele>
        <time>2009-01-05T11:30:41Z</time>
      </trkpt>
      <trkpt lat="27.93195200" lon="-15.6617980">
        <ele>947.15800</ele>
        <time>2009-01-05T11:30:42Z</time>
      </trkpt>
      <trkpt lat="27.93195400" lon="-15.6617600">
        <ele>947.45100</ele>
        <time>2009-01-05T11:30:43Z</time>
      </trkpt>
      <trkpt lat="27.93195800" lon="-15.6617220">
        <ele>947.51600</ele>
        <time>2009-01-05T11:30:44Z</time>
      </trkpt>
      <trkpt lat="27.93196200" lon="-15.6616840">
        <ele>947.84400</ele>
        <time>2009-01-05T11:30:45Z</time>
      </trkpt>
      <trkpt lat="27.93196400" lon="-15.6616480">
        <ele>947.92100</ele>
        <time>2009-01-05T11:30:46Z</time>
      </trkpt>
      <trkpt lat="27.93196600" lon="-15.6616120">
        <ele>948.18300</ele>
        <time>2009-01-05T11:30:47Z</time>
      </trkpt>
      <trkpt lat="27.93196800" lon="-15.6615760">
        <ele>948.50600</ele>
        <time>2009-01-05T11:30:48Z</time>
      </trkpt>
      <trkpt lat="27.93197000" lon="-15.6615400">
        <ele>948.63000</ele>
        <time>2009-01-05T11:30:49Z</time>
      </trkpt>
      <trkpt lat="27.93197200" lon="-15.6615040">
        <ele>948.81000</ele>
        <time>2009-01-05T11:30:50Z</time>
      </trkpt>
      <trkpt lat="27.93197400" lon="-15.6614680">
        <ele>949.11500</ele>
        <time>2009-01-05T11:30:51Z</time>
      </trkpt>
      <trkpt lat="27.93197800" lon="-15.6614330">
        <ele>949.45600</ele>
        <time>2009-01-05T11:30:52Z</time>
      </trkpt>
      <trkpt lat="27.93198000" lon="-15.6613980">
        <ele>949.73100</ele>
        <time>2009-01-05T11:30:53Z</time>
      </trkpt>
      <trkpt lat="27.93198100" lon="-15.6613630">
        <ele>949.92200</ele>
        <time>2009-01-05T11:30:54Z</time>
      </trkpt>
      <trkpt lat="27.93198200" lon="-15.6613280">
        <ele>950.11500</ele>
        <time>2009-01-05T11:30:55Z</time>
      </trkpt>
      <trkpt lat="27.93198400" lon="-15.6612930">
        <ele>950.38800</ele>
        <time>2009-01-05T11:30:56Z</time>
      </trkpt>
      <trkpt lat="27.93198700" lon="-15.6612590">
        <ele>950.58400</ele>
        <time>2009-01-05T11:30:57Z</time>
      </trkpt>
      <trkpt lat="27.93199100" lon="-15.6612240">
        <ele>950.74000</ele>
        <time>2009-01-05T11:30:58Z</time>
      </trkpt>
      <trkpt lat="27.93199600" lon="-15.6611900">
        <ele>950.91200</ele>
        <time>2009-01-05T11:30:59Z</time>
      </trkpt>
      <trkpt lat="27.93200200" lon="-15.6611550">
        <ele>951.10300</ele>
        <time>2009-01-05T11:31:00Z</time>
      </trkpt>
      <trkpt lat="27.93200700" lon="-15.6611190">
        <ele>951.68000</ele>
        <time>2009-01-05T11:31:01Z</time>
      </trkpt>
      <trkpt lat="27.93201100" lon="-15.6610820">
        <ele>951.58600</ele>
        <time>2009-01-05T11:31:02Z</time>
      </trkpt>
      <trkpt lat="27.93201300" lon="-15.6610450">
        <ele>951.88200</ele>
        <time>2009-01-05T11:31:03Z</time>
      </trkpt>
      <trkpt lat="27.93201400" lon="-15.6610080">
        <ele>952.00700</ele>
        <time>2009-01-05T11:31:04Z</time>
      </trkpt>
      <trkpt lat="27.93201400" lon="-15.6609710">
        <ele>952.04200</ele>
        <time>2009-01-05T11:31:05Z</time>
      </trkpt>
      <trkpt lat="27.93201500" lon="-15.6609340">
        <ele>952.40800</ele>
        <time>2009-01-05T11:31:06Z</time>
      </trkpt>
      <trkpt lat="27.93201700" lon="-15.6608970">
        <ele>952.64900</ele>
        <time>2009-01-05T11:31:07Z</time>
      </trkpt>
      <trkpt lat="27.93201900" lon="-15.6608610">
        <ele>952.82700</ele>
        <time>2009-01-05T11:31:08Z</time>
      </trkpt>
      <trkpt lat="27.93202100" lon="-15.6608260">
        <ele>953.09200</ele>
        <time>2009-01-05T11:31:09Z</time>
      </trkpt>
      <trkpt lat="27.93202300" lon="-15.6607910">
        <ele>953.24400</ele>
        <time>2009-01-05T11:31:10Z</time>
      </trkpt>
      <trkpt lat="27.93202600" lon="-15.6607560">
        <ele>953.37400</ele>
        <time>2009-01-05T11:31:11Z</time>
      </trkpt>
      <trkpt lat="27.93203000" lon="-15.6607220">
        <ele>953.81700</ele>
        <time>2009-01-05T11:31:12Z</time>
      </trkpt>
      <trkpt lat="27.93203400" lon="-15.6606870">
        <ele>953.96900</ele>
        <time>2009-01-05T11:31:13Z</time>
      </trkpt>
      <trkpt lat="27.93203800" lon="-15.6606520">
        <ele>954.25300</ele>
        <time>2009-01-05T11:31:14Z</time>
      </trkpt>
      <trkpt lat="27.93204200" lon="-15.6606170">
        <ele>954.47100</ele>
        <time>2009-01-05T11:31:15Z</time>
      </trkpt>
      <trkpt lat="27.93204600" lon="-15.6605830">
        <ele>954.69100</ele>
        <time>2009-01-05T11:31:16Z</time>
      </trkpt>
      <trkpt lat="27.93205100" lon="-15.6605490">
        <ele>954.84000</ele>
        <time>2009-01-05T11:31:17Z</time>
      </trkpt>
      <trkpt lat="27.93205500" lon="-15.6605140">
        <ele>954.85700</ele>
        <time>2009-01-05T11:31:18Z</time>
      </trkpt>
      <trkpt lat="27.93205700" lon="-15.6604780">
        <ele>955.10400</ele>
        <time>2009-01-05T11:31:19Z</time>
      </trkpt>
      <trkpt lat="27.93205900" lon="-15.6604420">
        <ele>955.33300</ele>
        <time>2009-01-05T11:31:20Z</time>
      </trkpt>
      <trkpt lat="27.93206000" lon="-15.6604050">
        <ele>955.51900</ele>
        <time>2009-01-05T11:31:21Z</time>
      </trkpt>
      <trkpt lat="27.93206100" lon="-15.6603680">
        <ele>955.92000</ele>
        <time>2009-01-05T11:31:22Z</time>
      </trkpt>
      <trkpt lat="27.93206200" lon="-15.6603300">
        <ele>956.18800</ele>
        <time>2009-01-05T11:31:23Z</time>
      </trkpt>
      <trkpt lat="27.93206200" lon="-15.6602920">
        <ele>956.30300</ele>
        <time>2009-01-05T11:31:24Z</time>
      </trkpt>
      <trkpt lat="27.93206100" lon="-15.6602540">
        <ele>956.45800</ele>
        <time>2009-01-05T11:31:25Z</time>
      </trkpt>
      <trkpt lat="27.93206000" lon="-15.6602160">
        <ele>956.45400</ele>
        <time>2009-01-05T11:31:26Z</time>
      </trkpt>
      <trkpt lat="27.93205700" lon="-15.6601770">
        <ele>956.26000</ele>
        <time>2009-01-05T11:31:27Z</time>
      </trkpt>
      <trkpt lat="27.93205600" lon="-15.6601380">
        <ele>956.50700</ele>
        <time>2009-01-05T11:31:28Z</time>
      </trkpt>
      <trkpt lat="27.93205500" lon="-15.6600970">
        <ele>956.60900</ele>
        <time>2009-01-05T11:31:29Z</time>
      </trkpt>
      <trkpt lat="27.93205300" lon="-15.6600570">
        <ele>956.86200</ele>
        <time>2009-01-05T11:31:30Z</time>
      </trkpt>
      <trkpt lat="27.93204900" lon="-15.6600160">
        <ele>957.04800</ele>
        <time>2009-01-05T11:31:31Z</time>
      </trkpt>
      <trkpt lat="27.93204200" lon="-15.6599750">
        <ele>957.14000</ele>
        <time>2009-01-05T11:31:32Z</time>
      </trkpt>
      <trkpt lat="27.93203400" lon="-15.6599360">
        <ele>957.09900</ele>
        <time>2009-01-05T11:31:33Z</time>
      </trkpt>
      <trkpt lat="27.93202500" lon="-15.6598990">
        <ele>957.03000</ele>
        <time>2009-01-05T11:31:34Z</time>
      </trkpt>
      <trkpt lat="27.93201700" lon="-15.6598620">
        <ele>957.11800</ele>
        <time>2009-01-05T11:31:35Z</time>
      </trkpt>
      <trkpt lat="27.93200800" lon="-15.6598250">
        <ele>957.13900</ele>
        <time>2009-01-05T11:31:36Z</time>
      </trkpt>
      <trkpt lat="27.93199800" lon="-15.6597870">
        <ele>957.31200</ele>
        <time>2009-01-05T11:31:37Z</time>
      </trkpt>
      <trkpt lat="27.93198700" lon="-15.6597460">
        <ele>957.51200</ele>
        <time>2009-01-05T11:31:38Z</time>
      </trkpt>
      <trkpt lat="27.93197700" lon="-15.6597030">
        <ele>957.79700</ele>
        <time>2009-01-05T11:31:39Z</time>
      </trkpt>
      <trkpt lat="27.93196600" lon="-15.6596580">
        <ele>958.05500</ele>
        <time>2009-01-05T11:31:40Z</time>
      </trkpt>
      <trkpt lat="27.93195400" lon="-15.6596140">
        <ele>958.09400</ele>
        <time>2009-01-05T11:31:41Z</time>
      </trkpt>
      <trkpt lat="27.93194200" lon="-15.6595680">
        <ele>958.27800</ele>
        <time>2009-01-05T11:31:42Z</time>
      </trkpt>
      <trkpt lat="27.93192800" lon="-15.6595210">
        <ele>958.52500</ele>
        <time>2009-01-05T11:31:43Z</time>
      </trkpt>
      <trkpt lat="27.93191500" lon="-15.6594740">
        <ele>958.67200</ele>
        <time>2009-01-05T11:31:44Z</time>
      </trkpt>
      <trkpt lat="27.93190300" lon="-15.6594250">
        <ele>958.98000</ele>
        <time>2009-01-05T11:31:45Z</time>
      </trkpt>
      <trkpt lat="27.93189400" lon="-15.6593770">
        <ele>959.26100</ele>
        <time>2009-01-05T11:31:46Z</time>
      </trkpt>
      <trkpt lat="27.93188800" lon="-15.6593310">
        <ele>959.21500</ele>
        <time>2009-01-05T11:31:47Z</time>
      </trkpt>
      <trkpt lat="27.93188700" lon="-15.6592830">
        <ele>959.18500</ele>
        <time>2009-01-05T11:31:48Z</time>
      </trkpt>
      <trkpt lat="27.93188900" lon="-15.6592350">
        <ele>959.13600</ele>
        <time>2009-01-05T11:31:49Z</time>
      </trkpt>
      <trkpt lat="27.93189300" lon="-15.6591870">
        <ele>959.48100</ele>
        <time>2009-01-05T11:31:50Z</time>
      </trkpt>
      <trkpt lat="27.93189600" lon="-15.6591390">
        <ele>959.62300</ele>
        <time>2009-01-05T11:31:51Z</time>
      </trkpt>
      <trkpt lat="27.93189800" lon="-15.6590910">
        <ele>959.78300</ele>
        <time>2009-01-05T11:31:52Z</time>
      </trkpt>
      <trkpt lat="27.93190000" lon="-15.6590450">
        <ele>960.04600</ele>
        <time>2009-01-05T11:31:53Z</time>
      </trkpt>
      <trkpt lat="27.93190100" lon="-15.6590010">
        <ele>959.82300</ele>
        <time>2009-01-05T11:31:54Z</time>
      </trkpt>
      <trkpt lat="27.93190300" lon="-15.6589570">
        <ele>960.41200</ele>
        <time>2009-01-05T11:31:55Z</time>
      </trkpt>
      <trkpt lat="27.93190300" lon="-15.6589140">
        <ele>960.64100</ele>
        <time>2009-01-05T11:31:56Z</time>
      </trkpt>
      <trkpt lat="27.93189800" lon="-15.6588710">
        <ele>960.77500</ele>
        <time>2009-01-05T11:31:57Z</time>
      </trkpt>
      <trkpt lat="27.93188800" lon="-15.6588300">
        <ele>960.78400</ele>
        <time>2009-01-05T11:31:58Z</time>
      </trkpt>
      <trkpt lat="27.93187300" lon="-15.6587900">
        <ele>961.15100</ele>
        <time>2009-01-05T11:31:59Z</time>
      </trkpt>
      <trkpt lat="27.93185200" lon="-15.6587540">
        <ele>961.40100</ele>
        <time>2009-01-05T11:32:00Z</time>
      </trkpt>
      <trkpt lat="27.93182700" lon="-15.6587230">
        <ele>961.33900</ele>
        <time>2009-01-05T11:32:01Z</time>
      </trkpt>
      <trkpt lat="27.93179800" lon="-15.6586970">
        <ele>961.53100</ele>
        <time>2009-01-05T11:32:02Z</time>
      </trkpt>
      <trkpt lat="27.93176600" lon="-15.6586770">
        <ele>961.63300</ele>
        <time>2009-01-05T11:32:03Z</time>
      </trkpt>
      <trkpt lat="27.93173100" lon="-15.6586610">
        <ele>961.68500</ele>
        <time>2009-01-05T11:32:04Z</time>
      </trkpt>
      <trkpt lat="27.93169500" lon="-15.6586480">
        <ele>961.99500</ele>
        <time>2009-01-05T11:32:05Z</time>
      </trkpt>
      <trkpt lat="27.93165900" lon="-15.6586380">
        <ele>962.23200</ele>
        <time>2009-01-05T11:32:06Z</time>
      </trkpt>
      <trkpt lat="27.93162400" lon="-15.6586260">
        <ele>962.36200</ele>
        <time>2009-01-05T11:32:07Z</time>
      </trkpt>
      <trkpt lat="27.93158900" lon="-15.6586150">
        <ele>962.35800</ele>
        <time>2009-01-05T11:32:08Z</time>
      </trkpt>
      <trkpt lat="27.93155500" lon="-15.6586060">
        <ele>962.42000</ele>
        <time>2009-01-05T11:32:09Z</time>
      </trkpt>
      <trkpt lat="27.93152100" lon="-15.6585950">
        <ele>962.45000</ele>
        <time>2009-01-05T11:32:10Z</time>
      </trkpt>
      <trkpt lat="27.93148700" lon="-15.6585850">
        <ele>962.76900</ele>
        <time>2009-01-05T11:32:11Z</time>
      </trkpt>
      <trkpt lat="27.93145500" lon="-15.6585730">
        <ele>963.21600</ele>
        <time>2009-01-05T11:32:12Z</time>
      </trkpt>
      <trkpt lat="27.93142300" lon="-15.6585600">
        <ele>963.11700</ele>
        <time>2009-01-05T11:32:13Z</time>
      </trkpt>
      <trkpt lat="27.93139200" lon="-15.6585440">
        <ele>963.28200</ele>
        <time>2009-01-05T11:32:14Z</time>
      </trkpt>
      <trkpt lat="27.93136100" lon="-15.6585260">
        <ele>963.44700</ele>
        <time>2009-01-05T11:32:15Z</time>
      </trkpt>
      <trkpt lat="27.93132900" lon="-15.6585060">
        <ele>963.64800</ele>
        <time>2009-01-05T11:32:16Z</time>
      </trkpt>
      <trkpt lat="27.93129900" lon="-15.6584840">
        <ele>963.83700</ele>
        <time>2009-01-05T11:32:17Z</time>
      </trkpt>
      <trkpt lat="27.93126900" lon="-15.6584600">
        <ele>963.74000</ele>
        <time>2009-01-05T11:32:18Z</time>
      </trkpt>
      <trkpt lat="27.93124000" lon="-15.6584350">
        <ele>964.15100</ele>
        <time>2009-01-05T11:32:19Z</time>
      </trkpt>
      <trkpt lat="27.93121200" lon="-15.6584080">
        <ele>963.99800</ele>
        <time>2009-01-05T11:32:20Z</time>
      </trkpt>
      <trkpt lat="27.93118600" lon="-15.6583780">
        <ele>964.18400</ele>
        <time>2009-01-05T11:32:21Z</time>
      </trkpt>
      <trkpt lat="27.93116000" lon="-15.6583480">
        <ele>964.57800</ele>
        <time>2009-01-05T11:32:22Z</time>
      </trkpt>
      <trkpt lat="27.93113700" lon="-15.6583160">
        <ele>964.49400</ele>
        <time>2009-01-05T11:32:23Z</time>
      </trkpt>
      <trkpt lat="27.93111700" lon="-15.6582820">
        <ele>964.58500</ele>
        <time>2009-01-05T11:32:24Z</time>
      </trkpt>
      <trkpt lat="27.93109900" lon="-15.6582470">
        <ele>964.84400</ele>
        <time>2009-01-05T11:32:25Z</time>
      </trkpt>
      <trkpt lat="27.93108500" lon="-15.6582120">
        <ele>964.83700</ele>
        <time>2009-01-05T11:32:26Z</time>
      </trkpt>
      <trkpt lat="27.93107300" lon="-15.6581750">
        <ele>965.21400</ele>
        <time>2009-01-05T11:32:27Z</time>
      </trkpt>
      <trkpt lat="27.93106300" lon="-15.6581370">
        <ele>965.18500</ele>
        <time>2009-01-05T11:32:28Z</time>
      </trkpt>
      <trkpt lat="27.93105500" lon="-15.6580980">
        <ele>965.23100</ele>
        <time>2009-01-05T11:32:29Z</time>
      </trkpt>
      <trkpt lat="27.93104900" lon="-15.6580580">
        <ele>965.69400</ele>
        <time>2009-01-05T11:32:30Z</time>
      </trkpt>
      <trkpt lat="27.93104300" lon="-15.6580180">
        <ele>965.76200</ele>
        <time>2009-01-05T11:32:31Z</time>
      </trkpt>
      <trkpt lat="27.93103900" lon="-15.6579770">
        <ele>965.92700</ele>
        <time>2009-01-05T11:32:32Z</time>
      </trkpt>
      <trkpt lat="27.93103900" lon="-15.6579360">
        <ele>966.18800</ele>
        <time>2009-01-05T11:32:33Z</time>
      </trkpt>
      <trkpt lat="27.93104400" lon="-15.6578960">
        <ele>966.05800</ele>
        <time>2009-01-05T11:32:34Z</time>
      </trkpt>
      <trkpt lat="27.93105100" lon="-15.6578540">
        <ele>966.12900</ele>
        <time>2009-01-05T11:32:35Z</time>
      </trkpt>
      <trkpt lat="27.93105600" lon="-15.6578120">
        <ele>966.52500</ele>
        <time>2009-01-05T11:32:36Z</time>
      </trkpt>
      <trkpt lat="27.93106400" lon="-15.6577700">
        <ele>966.76600</ele>
        <time>2009-01-05T11:32:37Z</time>
      </trkpt>
      <trkpt lat="27.93107600" lon="-15.6577280">
        <ele>966.78700</ele>
        <time>2009-01-05T11:32:38Z</time>
      </trkpt>
      <trkpt lat="27.93109100" lon="-15.6576870">
        <ele>966.79400</ele>
        <time>2009-01-05T11:32:39Z</time>
      </trkpt>
      <trkpt lat="27.93110900" lon="-15.6576450">
        <ele>966.83700</ele>
        <time>2009-01-05T11:32:40Z</time>
      </trkpt>
      <trkpt lat="27.93112800" lon="-15.6576040">
        <ele>966.87400</ele>
        <time>2009-01-05T11:32:41Z</time>
      </trkpt>
      <trkpt lat="27.93115200" lon="-15.6575650">
        <ele>966.90600</ele>
        <time>2009-01-05T11:32:42Z</time>
      </trkpt>
      <trkpt lat="27.93117700" lon="-15.6575260">
        <ele>967.14700</ele>
        <time>2009-01-05T11:32:43Z</time>
      </trkpt>
      <trkpt lat="27.93120500" lon="-15.6574880">
        <ele>967.24300</ele>
        <time>2009-01-05T11:32:44Z</time>
      </trkpt>
      <trkpt lat="27.93123500" lon="-15.6574490">
        <ele>967.25600</ele>
        <time>2009-01-05T11:32:45Z</time>
      </trkpt>
      <trkpt lat="27.93126600" lon="-15.6574090">
        <ele>966.96900</ele>
        <time>2009-01-05T11:32:46Z</time>
      </trkpt>
      <trkpt lat="27.93129700" lon="-15.6573670">
        <ele>967.00700</ele>
        <time>2009-01-05T11:32:47Z</time>
      </trkpt>
      <trkpt lat="27.93132800" lon="-15.6573220">
        <ele>966.91000</ele>
        <time>2009-01-05T11:32:48Z</time>
      </trkpt>
      <trkpt lat="27.93136200" lon="-15.6572770">
        <ele>966.98200</ele>
        <time>2009-01-05T11:32:49Z</time>
      </trkpt>
      <trkpt lat="27.93139700" lon="-15.6572320">
        <ele>966.76700</ele>
        <time>2009-01-05T11:32:50Z</time>
      </trkpt>
      <trkpt lat="27.93143300" lon="-15.6571860">
        <ele>966.69600</ele>
        <time>2009-01-05T11:32:51Z</time>
      </trkpt>
      <trkpt lat="27.93147000" lon="-15.6571390">
        <ele>966.47300</ele>
        <time>2009-01-05T11:32:52Z</time>
      </trkpt>
      <trkpt lat="27.93150700" lon="-15.6570910">
        <ele>966.48200</ele>
        <time>2009-01-05T11:32:53Z</time>
      </trkpt>
      <trkpt lat="27.93154600" lon="-15.6570410">
        <ele>966.37200</ele>
        <time>2009-01-05T11:32:54Z</time>
      </trkpt>
      <trkpt lat="27.93158800" lon="-15.6569950">
        <ele>966.73100</ele>
        <time>2009-01-05T11:32:55Z</time>
      </trkpt>
      <trkpt lat="27.93163700" lon="-15.6569550">
        <ele>966.71100</ele>
        <time>2009-01-05T11:32:56Z</time>
      </trkpt>
      <trkpt lat="27.93169000" lon="-15.6569230">
        <ele>967.02400</ele>
        <time>2009-01-05T11:32:57Z</time>
      </trkpt>
      <trkpt lat="27.93174900" lon="-15.6569000">
        <ele>967.17600</ele>
        <time>2009-01-05T11:32:58Z</time>
      </trkpt>
      <trkpt lat="27.93181100" lon="-15.6568850">
        <ele>967.38300</ele>
        <time>2009-01-05T11:32:59Z</time>
      </trkpt>
      <trkpt lat="27.93187700" lon="-15.6568770">
        <ele>967.21800</ele>
        <time>2009-01-05T11:33:00Z</time>
      </trkpt>
      <trkpt lat="27.93194300" lon="-15.6568710">
        <ele>966.75100</ele>
        <time>2009-01-05T11:33:01Z</time>
      </trkpt>
      <trkpt lat="27.93201200" lon="-15.6568640">
        <ele>967.09800</ele>
        <time>2009-01-05T11:33:02Z</time>
      </trkpt>
      <trkpt lat="27.93208200" lon="-15.6568570">
        <ele>966.74800</ele>
        <time>2009-01-05T11:33:03Z</time>
      </trkpt>
      <trkpt lat="27.93215400" lon="-15.6568490">
        <ele>966.33900</ele>
        <time>2009-01-05T11:33:04Z</time>
      </trkpt>
      <trkpt lat="27.93222600" lon="-15.6568410">
        <ele>965.83300</ele>
        <time>2009-01-05T11:33:05Z</time>
      </trkpt>
      <trkpt lat="27.93229900" lon="-15.6568330">
        <ele>965.80600</ele>
        <time>2009-01-05T11:33:06Z</time>
      </trkpt>
      <trkpt lat="27.93237200" lon="-15.6568230">
        <ele>965.44500</ele>
        <time>2009-01-05T11:33:07Z</time>
      </trkpt>
      <trkpt lat="27.93244600" lon="-15.6568140">
        <ele>965.46000</ele>
        <time>2009-01-05T11:33:08Z</time>
      </trkpt>
      <trkpt lat="27.93252000" lon="-15.6568070">
        <ele>965.33400</ele>
        <time>2009-01-05T11:33:09Z</time>
      </trkpt>
      <trkpt lat="27.93259500" lon="-15.6568030">
        <ele>964.98500</ele>
        <time>2009-01-05T11:33:10Z</time>
      </trkpt>
      <trkpt lat="27.93267100" lon="-15.6567970">
        <ele>965.67600</ele>
        <time>2009-01-05T11:33:11Z</time>
      </trkpt>
      <trkpt lat="27.93274700" lon="-15.6567900">
        <ele>964.81800</ele>
        <time>2009-01-05T11:33:12Z</time>
      </trkpt>
      <trkpt lat="27.93282500" lon="-15.6567780">
        <ele>964.39100</ele>
        <time>2009-01-05T11:33:13Z</time>
      </trkpt>
      <trkpt lat="27.93289900" lon="-15.6567530">
        <ele>963.86100</ele>
        <time>2009-01-05T11:33:14Z</time>
      </trkpt>
      <trkpt lat="27.93297000" lon="-15.6567110">
        <ele>963.48900</ele>
        <time>2009-01-05T11:33:15Z</time>
      </trkpt>
      <trkpt lat="27.93303000" lon="-15.6566510">
        <ele>962.34600</ele>
        <time>2009-01-05T11:33:16Z</time>
      </trkpt>
      <trkpt lat="27.93307300" lon="-15.6565740">
        <ele>961.95100</ele>
        <time>2009-01-05T11:33:17Z</time>
      </trkpt>
      <trkpt lat="27.93309300" lon="-15.6564850">
        <ele>962.03100</ele>
        <time>2009-01-05T11:33:18Z</time>
      </trkpt>
      <trkpt lat="27.93308700" lon="-15.6563960">
        <ele>962.46400</ele>
        <time>2009-01-05T11:33:19Z</time>
      </trkpt>
      <trkpt lat="27.93305900" lon="-15.6563130">
        <ele>962.35100</ele>
        <time>2009-01-05T11:33:20Z</time>
      </trkpt>
      <trkpt lat="27.93301600" lon="-15.6562380">
        <ele>961.98500</ele>
        <time>2009-01-05T11:33:21Z</time>
      </trkpt>
      <trkpt lat="27.93296500" lon="-15.6561670">
        <ele>961.78200</ele>
        <time>2009-01-05T11:33:22Z</time>
      </trkpt>
      <trkpt lat="27.93291300" lon="-15.6560970">
        <ele>961.88900</ele>
        <time>2009-01-05T11:33:23Z</time>
      </trkpt>
      <trkpt lat="27.93286300" lon="-15.6560240">
        <ele>961.46200</ele>
        <time>2009-01-05T11:33:24Z</time>
      </trkpt>
      <trkpt lat="27.93281700" lon="-15.6559460">
        <ele>961.15900</ele>
        <time>2009-01-05T11:33:25Z</time>
      </trkpt>
      <trkpt lat="27.93278100" lon="-15.6558620">
        <ele>960.63300</ele>
        <time>2009-01-05T11:33:26Z</time>
      </trkpt>
      <trkpt lat="27.93276600" lon="-15.6557700">
        <ele>959.91500</ele>
        <time>2009-01-05T11:33:27Z</time>
      </trkpt>
      <trkpt lat="27.93277800" lon="-15.6556770">
        <ele>959.82600</ele>
        <time>2009-01-05T11:33:28Z</time>
      </trkpt>
      <trkpt lat="27.93281200" lon="-15.6555890">
        <ele>959.49900</ele>
        <time>2009-01-05T11:33:29Z</time>
      </trkpt>
      <trkpt lat="27.93286800" lon="-15.6555080">
        <ele>959.16700</ele>
        <time>2009-01-05T11:33:30Z</time>
      </trkpt>
      <trkpt lat="27.93292400" lon="-15.6554280">
        <ele>959.37400</ele>
        <time>2009-01-05T11:33:31Z</time>
      </trkpt>
      <trkpt lat="27.93298200" lon="-15.6553520">
        <ele>959.61500</ele>
        <time>2009-01-05T11:33:32Z</time>
      </trkpt>
      <trkpt lat="27.93304300" lon="-15.6552780">
        <ele>959.31100</ele>
        <time>2009-01-05T11:33:33Z</time>
      </trkpt>
      <trkpt lat="27.93310500" lon="-15.6552050">
        <ele>958.90700</ele>
        <time>2009-01-05T11:33:34Z</time>
      </trkpt>
      <trkpt lat="27.93315800" lon="-15.6551250">
        <ele>958.63500</ele>
        <time>2009-01-05T11:33:35Z</time>
      </trkpt>
      <trkpt lat="27.93320000" lon="-15.6550370">
        <ele>958.33700</ele>
        <time>2009-01-05T11:33:36Z</time>
      </trkpt>
      <trkpt lat="27.93322900" lon="-15.6549420">
        <ele>957.69200</ele>
        <time>2009-01-05T11:33:37Z</time>
      </trkpt>
      <trkpt lat="27.93324000" lon="-15.6548430">
        <ele>957.58100</ele>
        <time>2009-01-05T11:33:38Z</time>
      </trkpt>
      <trkpt lat="27.93322700" lon="-15.6547430">
        <ele>957.58700</ele>
        <time>2009-01-05T11:33:39Z</time>
      </trkpt>
      <trkpt lat="27.93319000" lon="-15.6546500">
        <ele>957.27600</ele>
        <time>2009-01-05T11:33:40Z</time>
      </trkpt>
      <trkpt lat="27.93313200" lon="-15.6545750">
        <ele>957.66700</ele>
        <time>2009-01-05T11:33:41Z</time>
      </trkpt>
      <trkpt lat="27.93304000" lon="-15.6545440">
        <ele>957.14700</ele>
        <time>2009-01-05T11:33:42Z</time>
      </trkpt>
      <trkpt lat="27.93295500" lon="-15.6545190">
        <ele>956.86400</ele>
        <time>2009-01-05T11:33:43Z</time>
      </trkpt>
      <trkpt lat="27.93287400" lon="-15.6545040">
        <ele>956.33000</ele>
        <time>2009-01-05T11:33:44Z</time>
      </trkpt>
      <trkpt lat="27.93279700" lon="-15.6544930">
        <ele>956.14500</ele>
        <time>2009-01-05T11:33:45Z</time>
      </trkpt>
      <trkpt lat="27.93272400" lon="-15.6544870">
        <ele>955.64700</ele>
        <time>2009-01-05T11:33:46Z</time>
      </trkpt>
      <trkpt lat="27.93265300" lon="-15.6544820">
        <ele>956.25000</ele>
        <time>2009-01-05T11:33:47Z</time>
      </trkpt>
      <trkpt lat="27.93258100" lon="-15.6544730">
        <ele>955.88600</ele>
        <time>2009-01-05T11:33:48Z</time>
      </trkpt>
      <trkpt lat="27.93251000" lon="-15.6544550">
        <ele>955.59900</ele>
        <time>2009-01-05T11:33:49Z</time>
      </trkpt>
      <trkpt lat="27.93244400" lon="-15.6544230">
        <ele>955.48900</ele>
        <time>2009-01-05T11:33:50Z</time>
      </trkpt>
      <trkpt lat="27.93238200" lon="-15.6543710">
        <ele>955.52500</ele>
        <time>2009-01-05T11:33:51Z</time>
      </trkpt>
      <trkpt lat="27.93233400" lon="-15.6543050">
        <ele>955.66300</ele>
        <time>2009-01-05T11:33:52Z</time>
      </trkpt>
      <trkpt lat="27.93230300" lon="-15.6542280">
        <ele>955.39700</ele>
        <time>2009-01-05T11:33:53Z</time>
      </trkpt>
      <trkpt lat="27.93229400" lon="-15.6541440">
        <ele>955.22100</ele>
        <time>2009-01-05T11:33:54Z</time>
      </trkpt>
      <trkpt lat="27.93230500" lon="-15.6540590">
        <ele>955.56500</ele>
        <time>2009-01-05T11:33:55Z</time>
      </trkpt>
      <trkpt lat="27.93232500" lon="-15.6539740">
        <ele>955.57700</ele>
        <time>2009-01-05T11:33:56Z</time>
      </trkpt>
      <trkpt lat="27.93234900" lon="-15.6538900">
        <ele>955.45400</ele>
        <time>2009-01-05T11:33:57Z</time>
      </trkpt>
      <trkpt lat="27.93237400" lon="-15.6538040">
        <ele>955.63900</ele>
        <time>2009-01-05T11:33:58Z</time>
      </trkpt>
      <trkpt lat="27.93239700" lon="-15.6537170">
        <ele>955.45300</ele>
        <time>2009-01-05T11:33:59Z</time>
      </trkpt>
      <trkpt lat="27.93241600" lon="-15.6536280">
        <ele>955.61200</ele>
        <time>2009-01-05T11:34:00Z</time>
      </trkpt>
      <trkpt lat="27.93242900" lon="-15.6535370">
        <ele>955.48400</ele>
        <time>2009-01-05T11:34:01Z</time>
      </trkpt>
      <trkpt lat="27.93243300" lon="-15.6534450">
        <ele>955.88600</ele>
        <time>2009-01-05T11:34:02Z</time>
      </trkpt>
      <trkpt lat="27.93242400" lon="-15.6533540">
        <ele>955.79500</ele>
        <time>2009-01-05T11:34:03Z</time>
      </trkpt>
      <trkpt lat="27.93240300" lon="-15.6532660">
        <ele>955.72400</ele>
        <time>2009-01-05T11:34:04Z</time>
      </trkpt>
      <trkpt lat="27.93236900" lon="-15.6531840">
        <ele>955.92300</ele>
        <time>2009-01-05T11:34:05Z</time>
      </trkpt>
      <trkpt lat="27.93232400" lon="-15.6531090">
        <ele>956.30200</ele>
        <time>2009-01-05T11:34:06Z</time>
      </trkpt>
      <trkpt lat="27.93227400" lon="-15.6530380">
        <ele>955.81800</ele>
        <time>2009-01-05T11:34:07Z</time>
      </trkpt>
      <trkpt lat="27.93222600" lon="-15.6529680">
        <ele>955.21900</ele>
        <time>2009-01-05T11:34:08Z</time>
      </trkpt>
      <trkpt lat="27.93217300" lon="-15.6528970">
        <ele>954.46600</ele>
        <time>2009-01-05T11:34:09Z</time>
      </trkpt>
      <trkpt lat="27.93212300" lon="-15.6528240">
        <ele>954.51700</ele>
        <time>2009-01-05T11:34:10Z</time>
      </trkpt>
      <trkpt lat="27.93208000" lon="-15.6527490">
        <ele>954.45700</ele>
        <time>2009-01-05T11:34:11Z</time>
      </trkpt>
      <trkpt lat="27.93204500" lon="-15.6526720">
        <ele>954.38100</ele>
        <time>2009-01-05T11:34:12Z</time>
      </trkpt>
      <trkpt lat="27.93202100" lon="-15.6525910">
        <ele>954.14100</ele>
        <time>2009-01-05T11:34:13Z</time>
      </trkpt>
      <trkpt lat="27.93201100" lon="-15.6525070">
        <ele>953.69500</ele>
        <time>2009-01-05T11:34:14Z</time>
      </trkpt>
      <trkpt lat="27.93201500" lon="-15.6524210">
        <ele>953.78000</ele>
        <time>2009-01-05T11:34:15Z</time>
      </trkpt>
      <trkpt lat="27.93202800" lon="-15.6523330">
        <ele>953.87900</ele>
        <time>2009-01-05T11:34:16Z</time>
      </trkpt>
      <trkpt lat="27.93204800" lon="-15.6522450">
        <ele>953.62300</ele>
        <time>2009-01-05T11:34:17Z</time>
      </trkpt>
      <trkpt lat="27.93206800" lon="-15.6521560">
        <ele>953.19500</ele>
        <time>2009-01-05T11:34:18Z</time>
      </trkpt>
      <trkpt lat="27.93208900" lon="-15.6520650">
        <ele>953.04800</ele>
        <time>2009-01-05T11:34:19Z</time>
      </trkpt>
      <trkpt lat="27.93211200" lon="-15.6519740">
        <ele>953.02400</ele>
        <time>2009-01-05T11:34:20Z</time>
      </trkpt>
      <trkpt lat="27.93213600" lon="-15.6518830">
        <ele>952.88400</ele>
        <time>2009-01-05T11:34:21Z</time>
      </trkpt>
      <trkpt lat="27.93215900" lon="-15.6517900">
        <ele>952.67800</ele>
        <time>2009-01-05T11:34:22Z</time>
      </trkpt>
      <trkpt lat="27.93218200" lon="-15.6516970">
        <ele>952.76500</ele>
        <time>2009-01-05T11:34:23Z</time>
      </trkpt>
      <trkpt lat="27.93220600" lon="-15.6516030">
        <ele>952.80500</ele>
        <time>2009-01-05T11:34:24Z</time>
      </trkpt>
      <trkpt lat="27.93223000" lon="-15.6515090">
        <ele>952.30000</ele>
        <time>2009-01-05T11:34:25Z</time>
      </trkpt>
      <trkpt lat="27.93225300" lon="-15.6514150">
        <ele>952.04000</ele>
        <time>2009-01-05T11:34:26Z</time>
      </trkpt>
      <trkpt lat="27.93227500" lon="-15.6513200">
        <ele>951.80800</ele>
        <time>2009-01-05T11:34:27Z</time>
      </trkpt>
      <trkpt lat="27.93229400" lon="-15.6512240">
        <ele>951.58300</ele>
        <time>2009-01-05T11:34:28Z</time>
      </trkpt>
      <trkpt lat="27.93230900" lon="-15.6511280">
        <ele>951.11200</ele>
        <time>2009-01-05T11:34:29Z</time>
      </trkpt>
      <trkpt lat="27.93232000" lon="-15.6510310">
        <ele>950.95100</ele>
        <time>2009-01-05T11:34:30Z</time>
      </trkpt>
      <trkpt lat="27.93232600" lon="-15.6509330">
        <ele>950.70300</ele>
        <time>2009-01-05T11:34:31Z</time>
      </trkpt>
      <trkpt lat="27.93232400" lon="-15.6508360">
        <ele>950.52000</ele>
        <time>2009-01-05T11:34:32Z</time>
      </trkpt>
      <trkpt lat="27.93231400" lon="-15.6507390">
        <ele>950.53100</ele>
        <time>2009-01-05T11:34:33Z</time>
      </trkpt>
      <trkpt lat="27.93229400" lon="-15.6506440">
        <ele>950.72200</ele>
        <time>2009-01-05T11:34:34Z</time>
      </trkpt>
      <trkpt lat="27.93226700" lon="-15.6505530">
        <ele>950.26200</ele>
        <time>2009-01-05T11:34:35Z</time>
      </trkpt>
      <trkpt lat="27.93223700" lon="-15.6504630">
        <ele>950.16200</ele>
        <time>2009-01-05T11:34:36Z</time>
      </trkpt>
      <trkpt lat="27.93220500" lon="-15.6503750">
        <ele>949.99600</ele>
        <time>2009-01-05T11:34:37Z</time>
      </trkpt>
      <trkpt lat="27.93217100" lon="-15.6502870">
        <ele>949.90400</ele>
        <time>2009-01-05T11:34:38Z</time>
      </trkpt>
      <trkpt lat="27.93213400" lon="-15.6502010">
        <ele>950.00600</ele>
        <time>2009-01-05T11:34:39Z</time>
      </trkpt>
      <trkpt lat="27.93209700" lon="-15.6501170">
        <ele>950.04900</ele>
        <time>2009-01-05T11:34:40Z</time>
      </trkpt>
      <trkpt lat="27.93206000" lon="-15.6500350">
        <ele>949.84600</ele>
        <time>2009-01-05T11:34:41Z</time>
      </trkpt>
      <trkpt lat="27.93202500" lon="-15.6499530">
        <ele>949.69800</ele>
        <time>2009-01-05T11:34:42Z</time>
      </trkpt>
      <trkpt lat="27.93199100" lon="-15.6498720">
        <ele>949.87900</ele>
        <time>2009-01-05T11:34:43Z</time>
      </trkpt>
      <trkpt lat="27.93196200" lon="-15.6497900">
        <ele>949.93000</ele>
        <time>2009-01-05T11:34:44Z</time>
      </trkpt>
      <trkpt lat="27.93193900" lon="-15.6497060">
        <ele>950.43300</ele>
        <time>2009-01-05T11:34:45Z</time>
      </trkpt>
      <trkpt lat="27.93192600" lon="-15.6496220">
        <ele>950.80900</ele>
        <time>2009-01-05T11:34:46Z</time>
      </trkpt>
      <trkpt lat="27.93192400" lon="-15.6495390">
        <ele>950.92300</ele>
        <time>2009-01-05T11:34:47Z</time>
      </trkpt>
      <trkpt lat="27.93193200" lon="-15.6494580">
        <ele>951.58400</ele>
        <time>2009-01-05T11:34:48Z</time>
      </trkpt>
      <trkpt lat="27.93194900" lon="-15.6493820">
        <ele>951.62600</ele>
        <time>2009-01-05T11:34:49Z</time>
      </trkpt>
      <trkpt lat="27.93197300" lon="-15.6493090">
        <ele>951.67900</ele>
        <time>2009-01-05T11:34:50Z</time>
      </trkpt>
      <trkpt lat="27.93199900" lon="-15.6492380">
        <ele>951.10900</ele>
        <time>2009-01-05T11:34:51Z</time>
      </trkpt>
      <trkpt lat="27.93202400" lon="-15.6491690">
        <ele>951.14100</ele>
        <time>2009-01-05T11:34:52Z</time>
      </trkpt>
      <trkpt lat="27.93205100" lon="-15.6491000">
        <ele>951.28200</ele>
        <time>2009-01-05T11:34:53Z</time>
      </trkpt>
      <trkpt lat="27.93207700" lon="-15.6490330">
        <ele>951.59400</ele>
        <time>2009-01-05T11:34:54Z</time>
      </trkpt>
      <trkpt lat="27.93210500" lon="-15.6489670">
        <ele>952.29000</ele>
        <time>2009-01-05T11:34:55Z</time>
      </trkpt>
      <trkpt lat="27.93213200" lon="-15.6489030">
        <ele>952.24300</ele>
        <time>2009-01-05T11:34:56Z</time>
      </trkpt>
      <trkpt lat="27.93215700" lon="-15.6488400">
        <ele>952.39900</ele>
        <time>2009-01-05T11:34:57Z</time>
      </trkpt>
      <trkpt lat="27.93218100" lon="-15.6487780">
        <ele>952.19900</ele>
        <time>2009-01-05T11:34:58Z</time>
      </trkpt>
      <trkpt lat="27.93220500" lon="-15.6487180">
        <ele>952.39500</ele>
        <time>2009-01-05T11:34:59Z</time>
      </trkpt>
      <trkpt lat="27.93223000" lon="-15.6486580">
        <ele>952.41900</ele>
        <time>2009-01-05T11:35:00Z</time>
      </trkpt>
      <trkpt lat="27.93225400" lon="-15.6486000">
        <ele>952.57000</ele>
        <time>2009-01-05T11:35:01Z</time>
      </trkpt>
      <trkpt lat="27.93227800" lon="-15.6485420">
        <ele>952.46700</ele>
        <time>2009-01-05T11:35:02Z</time>
      </trkpt>
      <trkpt lat="27.93230100" lon="-15.6484830">
        <ele>952.59700</ele>
        <time>2009-01-05T11:35:03Z</time>
      </trkpt>
      <trkpt lat="27.93232300" lon="-15.6484250">
        <ele>952.55300</ele>
        <time>2009-01-05T11:35:04Z</time>
      </trkpt>
      <trkpt lat="27.93234600" lon="-15.6483680">
        <ele>952.99200</ele>
        <time>2009-01-05T11:35:05Z</time>
      </trkpt>
      <trkpt lat="27.93236800" lon="-15.6483110">
        <ele>953.27300</ele>
        <time>2009-01-05T11:35:06Z</time>
      </trkpt>
      <trkpt lat="27.93239200" lon="-15.6482560">
        <ele>953.62700</ele>
        <time>2009-01-05T11:35:07Z</time>
      </trkpt>
      <trkpt lat="27.93241600" lon="-15.6482030">
        <ele>953.91100</ele>
        <time>2009-01-05T11:35:08Z</time>
      </trkpt>
      <trkpt lat="27.93243900" lon="-15.6481510">
        <ele>953.95000</ele>
        <time>2009-01-05T11:35:09Z</time>
      </trkpt>
      <trkpt lat="27.93246200" lon="-15.6481020">
        <ele>954.09800</ele>
        <time>2009-01-05T11:35:10Z</time>
      </trkpt>
      <trkpt lat="27.93248500" lon="-15.6480580">
        <ele>953.83200</ele>
        <time>2009-01-05T11:35:11Z</time>
      </trkpt>
      <trkpt lat="27.93251000" lon="-15.6480150">
        <ele>953.90900</ele>
        <time>2009-01-05T11:35:12Z</time>
      </trkpt>
      <trkpt lat="27.93253800" lon="-15.6479760">
        <ele>954.20000</ele>
        <time>2009-01-05T11:35:13Z</time>
      </trkpt>
      <trkpt lat="27.93256700" lon="-15.6479390">
        <ele>954.58300</ele>
        <time>2009-01-05T11:35:14Z</time>
      </trkpt>
      <trkpt lat="27.93259600" lon="-15.6479020">
        <ele>954.86900</ele>
        <time>2009-01-05T11:35:15Z</time>
      </trkpt>
      <trkpt lat="27.93262600" lon="-15.6478660">
        <ele>954.93000</ele>
        <time>2009-01-05T11:35:16Z</time>
      </trkpt>
      <trkpt lat="27.93265700" lon="-15.6478300">
        <ele>954.93300</ele>
        <time>2009-01-05T11:35:17Z</time>
      </trkpt>
      <trkpt lat="27.93268800" lon="-15.6477940">
        <ele>954.99700</ele>
        <time>2009-01-05T11:35:18Z</time>
      </trkpt>
      <trkpt lat="27.93271700" lon="-15.6477570">
        <ele>955.24300</ele>
        <time>2009-01-05T11:35:19Z</time>
      </trkpt>
      <trkpt lat="27.93274700" lon="-15.6477190">
        <ele>955.67200</ele>
        <time>2009-01-05T11:35:20Z</time>
      </trkpt>
      <trkpt lat="27.93277500" lon="-15.6476820">
        <ele>955.68300</ele>
        <time>2009-01-05T11:35:21Z</time>
      </trkpt>
      <trkpt lat="27.93280400" lon="-15.6476450">
        <ele>955.84200</ele>
        <time>2009-01-05T11:35:22Z</time>
      </trkpt>
      <trkpt lat="27.93283400" lon="-15.6476100">
        <ele>955.73900</ele>
        <time>2009-01-05T11:35:23Z</time>
      </trkpt>
      <trkpt lat="27.93286400" lon="-15.6475760">
        <ele>955.91100</ele>
        <time>2009-01-05T11:35:24Z</time>
      </trkpt>
      <trkpt lat="27.93289200" lon="-15.6475410">
        <ele>956.24200</ele>
        <time>2009-01-05T11:35:25Z</time>
      </trkpt>
      <trkpt lat="27.93291900" lon="-15.6475050">
        <ele>956.22400</ele>
        <time>2009-01-05T11:35:26Z</time>
      </trkpt>
      <trkpt lat="27.93294300" lon="-15.6474670">
        <ele>956.24300</ele>
        <time>2009-01-05T11:35:27Z</time>
      </trkpt>
      <trkpt lat="27.93296500" lon="-15.6474260">
        <ele>956.65100</ele>
        <time>2009-01-05T11:35:28Z</time>
      </trkpt>
      <trkpt lat="27.93298500" lon="-15.6473850">
        <ele>956.73000</ele>
        <time>2009-01-05T11:35:29Z</time>
      </trkpt>
      <trkpt lat="27.93300100" lon="-15.6473420">
        <ele>956.60900</ele>
        <time>2009-01-05T11:35:30Z</time>
      </trkpt>
      <trkpt lat="27.93301200" lon="-15.6472970">
        <ele>956.80200</ele>
        <time>2009-01-05T11:35:31Z</time>
      </trkpt>
      <trkpt lat="27.93302000" lon="-15.6472510">
        <ele>956.67300</ele>
        <time>2009-01-05T11:35:32Z</time>
      </trkpt>
      <trkpt lat="27.93302400" lon="-15.6472040">
        <ele>956.84300</ele>
        <time>2009-01-05T11:35:33Z</time>
      </trkpt>
      <trkpt lat="27.93302600" lon="-15.6471570">
        <ele>957.08700</ele>
        <time>2009-01-05T11:35:34Z</time>
      </trkpt>
      <trkpt lat="27.93302600" lon="-15.6471100">
        <ele>957.61300</ele>
        <time>2009-01-05T11:35:35Z</time>
      </trkpt>
      <trkpt lat="27.93302600" lon="-15.6470640">
        <ele>957.47100</ele>
        <time>2009-01-05T11:35:36Z</time>
      </trkpt>
      <trkpt lat="27.93302600" lon="-15.6470180">
        <ele>957.66900</ele>
        <time>2009-01-05T11:35:37Z</time>
      </trkpt>
      <trkpt lat="27.93302700" lon="-15.6469720">
        <ele>957.94700</ele>
        <time>2009-01-05T11:35:38Z</time>
      </trkpt>
      <trkpt lat="27.93302700" lon="-15.6469280">
        <ele>957.81700</ele>
        <time>2009-01-05T11:35:39Z</time>
      </trkpt>
      <trkpt lat="27.93302400" lon="-15.6468850">
        <ele>958.10300</ele>
        <time>2009-01-05T11:35:40Z</time>
      </trkpt>
      <trkpt lat="27.93302000" lon="-15.6468440">
        <ele>958.07700</ele>
        <time>2009-01-05T11:35:41Z</time>
      </trkpt>
      <trkpt lat="27.93301700" lon="-15.6468020">
        <ele>958.83000</ele>
        <time>2009-01-05T11:35:42Z</time>
      </trkpt>
      <trkpt lat="27.93301700" lon="-15.6467630">
        <ele>959.00200</ele>
        <time>2009-01-05T11:35:43Z</time>
      </trkpt>
      <trkpt lat="27.93301800" lon="-15.6467250">
        <ele>959.20600</ele>
        <time>2009-01-05T11:35:44Z</time>
      </trkpt>
      <trkpt lat="27.93302000" lon="-15.6466880">
        <ele>959.60500</ele>
        <time>2009-01-05T11:35:45Z</time>
      </trkpt>
      <trkpt lat="27.93302000" lon="-15.6466510">
        <ele>959.88800</ele>
        <time>2009-01-05T11:35:46Z</time>
      </trkpt>
      <trkpt lat="27.93302100" lon="-15.6466160">
        <ele>960.10200</ele>
        <time>2009-01-05T11:35:47Z</time>
      </trkpt>
      <trkpt lat="27.93302100" lon="-15.6465810">
        <ele>960.50400</ele>
        <time>2009-01-05T11:35:48Z</time>
      </trkpt>
      <trkpt lat="27.93302000" lon="-15.6465470">
        <ele>960.48500</ele>
        <time>2009-01-05T11:35:49Z</time>
      </trkpt>
      <trkpt lat="27.93302100" lon="-15.6465140">
        <ele>960.81300</ele>
        <time>2009-01-05T11:35:50Z</time>
      </trkpt>
      <trkpt lat="27.93302000" lon="-15.6464800">
        <ele>961.03800</ele>
        <time>2009-01-05T11:35:51Z</time>
      </trkpt>
      <trkpt lat="27.93301900" lon="-15.6464470">
        <ele>960.98300</ele>
        <time>2009-01-05T11:35:52Z</time>
      </trkpt>
      <trkpt lat="27.93301800" lon="-15.6464140">
        <ele>961.32600</ele>
        <time>2009-01-05T11:35:53Z</time>
      </trkpt>
      <trkpt lat="27.93301600" lon="-15.6463810">
        <ele>961.74700</ele>
        <time>2009-01-05T11:35:54Z</time>
      </trkpt>
      <trkpt lat="27.93301500" lon="-15.6463490">
        <ele>962.18100</ele>
        <time>2009-01-05T11:35:55Z</time>
      </trkpt>
      <trkpt lat="27.93301500" lon="-15.6463160">
        <ele>962.38800</ele>
        <time>2009-01-05T11:35:56Z</time>
      </trkpt>
      <trkpt lat="27.93301500" lon="-15.6462840">
        <ele>962.70300</ele>
        <time>2009-01-05T11:35:57Z</time>
      </trkpt>
      <trkpt lat="27.93301400" lon="-15.6462520">
        <ele>963.08600</ele>
        <time>2009-01-05T11:35:58Z</time>
      </trkpt>
      <trkpt lat="27.93301300" lon="-15.6462210">
        <ele>963.09200</ele>
        <time>2009-01-05T11:35:59Z</time>
      </trkpt>
      <trkpt lat="27.93301300" lon="-15.6461900">
        <ele>963.69500</ele>
        <time>2009-01-05T11:36:00Z</time>
      </trkpt>
      <trkpt lat="27.93301100" lon="-15.6461590">
        <ele>963.79400</ele>
        <time>2009-01-05T11:36:01Z</time>
      </trkpt>
      <trkpt lat="27.93300800" lon="-15.6461290">
        <ele>964.21700</ele>
        <time>2009-01-05T11:36:02Z</time>
      </trkpt>
      <trkpt lat="27.93300500" lon="-15.6460990">
        <ele>964.25700</ele>
        <time>2009-01-05T11:36:03Z</time>
      </trkpt>
      <trkpt lat="27.93300300" lon="-15.6460690">
        <ele>964.62500</ele>
        <time>2009-01-05T11:36:04Z</time>
      </trkpt>
      <trkpt lat="27.93300300" lon="-15.6460390">
        <ele>964.88400</ele>
        <time>2009-01-05T11:36:05Z</time>
      </trkpt>
      <trkpt lat="27.93300300" lon="-15.6460090">
        <ele>965.31800</ele>
        <time>2009-01-05T11:36:06Z</time>
      </trkpt>
      <trkpt lat="27.93300400" lon="-15.6459790">
        <ele>965.39000</ele>
        <time>2009-01-05T11:36:07Z</time>
      </trkpt>
      <trkpt lat="27.93300600" lon="-15.6459490">
        <ele>965.80300</ele>
        <time>2009-01-05T11:36:08Z</time>
      </trkpt>
      <trkpt lat="27.93300800" lon="-15.6459190">
        <ele>966.12600</ele>
        <time>2009-01-05T11:36:09Z</time>
      </trkpt>
      <trkpt lat="27.93301100" lon="-15.6458890">
        <ele>966.66100</ele>
        <time>2009-01-05T11:36:10Z</time>
      </trkpt>
      <trkpt lat="27.93301500" lon="-15.6458590">
        <ele>966.63500</ele>
        <time>2009-01-05T11:36:11Z</time>
      </trkpt>
      <trkpt lat="27.93301900" lon="-15.6458300">
        <ele>966.86600</ele>
        <time>2009-01-05T11:36:12Z</time>
      </trkpt>
      <trkpt lat="27.93302300" lon="-15.6458010">
        <ele>967.46200</ele>
        <time>2009-01-05T11:36:13Z</time>
      </trkpt>
      <trkpt lat="27.93303000" lon="-15.6457720">
        <ele>967.65000</ele>
        <time>2009-01-05T11:36:14Z</time>
      </trkpt>
      <trkpt lat="27.93303700" lon="-15.6457420">
        <ele>967.76500</ele>
        <time>2009-01-05T11:36:15Z</time>
      </trkpt>
      <trkpt lat="27.93304500" lon="-15.6457130">
        <ele>968.27600</ele>
        <time>2009-01-05T11:36:16Z</time>
      </trkpt>
      <trkpt lat="27.93305200" lon="-15.6456850">
        <ele>968.37500</ele>
        <time>2009-01-05T11:36:17Z</time>
      </trkpt>
      <trkpt lat="27.93306000" lon="-15.6456570">
        <ele>968.62800</ele>
        <time>2009-01-05T11:36:18Z</time>
      </trkpt>
      <trkpt lat="27.93306900" lon="-15.6456300">
        <ele>968.99600</ele>
        <time>2009-01-05T11:36:19Z</time>
      </trkpt>
      <trkpt lat="27.93308100" lon="-15.6456040">
        <ele>969.29900</ele>
        <time>2009-01-05T11:36:20Z</time>
      </trkpt>
      <trkpt lat="27.93309400" lon="-15.6455810">
        <ele>969.24000</ele>
        <time>2009-01-05T11:36:21Z</time>
      </trkpt>
      <trkpt lat="27.93310900" lon="-15.6455570">
        <ele>969.58300</ele>
        <time>2009-01-05T11:36:22Z</time>
      </trkpt>
      <trkpt lat="27.93312400" lon="-15.6455340">
        <ele>970.09700</ele>
        <time>2009-01-05T11:36:23Z</time>
      </trkpt>
      <trkpt lat="27.93314000" lon="-15.6455120">
        <ele>970.43700</ele>
        <time>2009-01-05T11:36:24Z</time>
      </trkpt>
      <trkpt lat="27.93315800" lon="-15.6454920">
        <ele>970.58200</ele>
        <time>2009-01-05T11:36:25Z</time>
      </trkpt>
      <trkpt lat="27.93317900" lon="-15.6454740">
        <ele>971.02500</ele>
        <time>2009-01-05T11:36:26Z</time>
      </trkpt>
      <trkpt lat="27.93320100" lon="-15.6454590">
        <ele>971.38100</ele>
        <time>2009-01-05T11:36:27Z</time>
      </trkpt>
      <trkpt lat="27.93322600" lon="-15.6454460">
        <ele>972.03400</ele>
        <time>2009-01-05T11:36:28Z</time>
      </trkpt>
      <trkpt lat="27.93325100" lon="-15.6454330">
        <ele>972.00400</ele>
        <time>2009-01-05T11:36:29Z</time>
      </trkpt>
      <trkpt lat="27.93327600" lon="-15.6454200">
        <ele>971.98000</ele>
        <time>2009-01-05T11:36:30Z</time>
      </trkpt>
      <trkpt lat="27.93330100" lon="-15.6454080">
        <ele>972.35700</ele>
        <time>2009-01-05T11:36:31Z</time>
      </trkpt>
      <trkpt lat="27.93332600" lon="-15.6453970">
        <ele>972.77400</ele>
        <time>2009-01-05T11:36:32Z</time>
      </trkpt>
      <trkpt lat="27.93335300" lon="-15.6453870">
        <ele>972.89000</ele>
        <time>2009-01-05T11:36:33Z</time>
      </trkpt>
      <trkpt lat="27.93337900" lon="-15.6453780">
        <ele>973.27800</ele>
        <time>2009-01-05T11:36:34Z</time>
      </trkpt>
      <trkpt lat="27.93340600" lon="-15.6453680">
        <ele>973.33400</ele>
        <time>2009-01-05T11:36:35Z</time>
      </trkpt>
      <trkpt lat="27.93343100" lon="-15.6453570">
        <ele>973.48400</ele>
        <time>2009-01-05T11:36:36Z</time>
      </trkpt>
      <trkpt lat="27.93345600" lon="-15.6453450">
        <ele>973.92200</ele>
        <time>2009-01-05T11:36:37Z</time>
      </trkpt>
      <trkpt lat="27.93348100" lon="-15.6453330">
        <ele>974.19200</ele>
        <time>2009-01-05T11:36:38Z</time>
      </trkpt>
      <trkpt lat="27.93350600" lon="-15.6453220">
        <ele>974.42400</ele>
        <time>2009-01-05T11:36:39Z</time>
      </trkpt>
      <trkpt lat="27.93353300" lon="-15.6453120">
        <ele>974.84900</ele>
        <time>2009-01-05T11:36:40Z</time>
      </trkpt>
      <trkpt lat="27.93355800" lon="-15.6453000">
        <ele>975.13500</ele>
        <time>2009-01-05T11:36:41Z</time>
      </trkpt>
      <trkpt lat="27.93358400" lon="-15.6452880">
        <ele>975.54700</ele>
        <time>2009-01-05T11:36:42Z</time>
      </trkpt>
      <trkpt lat="27.93361000" lon="-15.6452740">
        <ele>975.88700</ele>
        <time>2009-01-05T11:36:43Z</time>
      </trkpt>
      <trkpt lat="27.93363500" lon="-15.6452600">
        <ele>976.45800</ele>
        <time>2009-01-05T11:36:44Z</time>
      </trkpt>
      <trkpt lat="27.93366100" lon="-15.6452460">
        <ele>976.33800</ele>
        <time>2009-01-05T11:36:45Z</time>
      </trkpt>
      <trkpt lat="27.93368600" lon="-15.6452290">
        <ele>976.36700</ele>
        <time>2009-01-05T11:36:46Z</time>
      </trkpt>
      <trkpt lat="27.93370900" lon="-15.6452060">
        <ele>976.55400</ele>
        <time>2009-01-05T11:36:47Z</time>
      </trkpt>
      <trkpt lat="27.93373000" lon="-15.6451770">
        <ele>977.01600</ele>
        <time>2009-01-05T11:36:48Z</time>
      </trkpt>
      <trkpt lat="27.93374900" lon="-15.6451470">
        <ele>977.38000</ele>
        <time>2009-01-05T11:36:49Z</time>
      </trkpt>
      <trkpt lat="27.93376400" lon="-15.6451130">
        <ele>977.51900</ele>
        <time>2009-01-05T11:36:50Z</time>
      </trkpt>
      <trkpt lat="27.93377600" lon="-15.6450770">
        <ele>977.91700</ele>
        <time>2009-01-05T11:36:51Z</time>
      </trkpt>
      <trkpt lat="27.93378500" lon="-15.6450420">
        <ele>977.90800</ele>
        <time>2009-01-05T11:36:52Z</time>
      </trkpt>
      <trkpt lat="27.93379300" lon="-15.6450070">
        <ele>978.25400</ele>
        <time>2009-01-05T11:36:53Z</time>
      </trkpt>
      <trkpt lat="27.93379700" lon="-15.6449730">
        <ele>977.86200</ele>
        <time>2009-01-05T11:36:54Z</time>
      </trkpt>
      <trkpt lat="27.93379900" lon="-15.6449390">
        <ele>978.15200</ele>
        <time>2009-01-05T11:36:55Z</time>
      </trkpt>
      <trkpt lat="27.93380100" lon="-15.6449060">
        <ele>978.90800</ele>
        <time>2009-01-05T11:36:56Z</time>
      </trkpt>
      <trkpt lat="27.93380200" lon="-15.6448730">
        <ele>979.25100</ele>
        <time>2009-01-05T11:36:57Z</time>
      </trkpt>
      <trkpt lat="27.93380300" lon="-15.6448390">
        <ele>979.51700</ele>
        <time>2009-01-05T11:36:58Z</time>
      </trkpt>
      <trkpt lat="27.93380500" lon="-15.6448060">
        <ele>979.75100</ele>
        <time>2009-01-05T11:36:59Z</time>
      </trkpt>
      <trkpt lat="27.93380700" lon="-15.6447730">
        <ele>979.96200</ele>
        <time>2009-01-05T11:37:00Z</time>
      </trkpt>
      <trkpt lat="27.93381000" lon="-15.6447410">
        <ele>980.20200</ele>
        <time>2009-01-05T11:37:01Z</time>
      </trkpt>
      <trkpt lat="27.93381300" lon="-15.6447090">
        <ele>980.23600</ele>
        <time>2009-01-05T11:37:02Z</time>
      </trkpt>
      <trkpt lat="27.93381800" lon="-15.6446770">
        <ele>980.60200</ele>
        <time>2009-01-05T11:37:03Z</time>
      </trkpt>
      <trkpt lat="27.93382600" lon="-15.6446460">
        <ele>981.47400</ele>
        <time>2009-01-05T11:37:04Z</time>
      </trkpt>
      <trkpt lat="27.93383600" lon="-15.6446160">
        <ele>981.65600</ele>
        <time>2009-01-05T11:37:05Z</time>
      </trkpt>
      <trkpt lat="27.93384600" lon="-15.6445860">
        <ele>981.73200</ele>
        <time>2009-01-05T11:37:06Z</time>
      </trkpt>
      <trkpt lat="27.93385700" lon="-15.6445570">
        <ele>981.70400</ele>
        <time>2009-01-05T11:37:07Z</time>
      </trkpt>
      <trkpt lat="27.93386900" lon="-15.6445270">
        <ele>982.15800</ele>
        <time>2009-01-05T11:37:08Z</time>
      </trkpt>
      <trkpt lat="27.93388200" lon="-15.6444990">
        <ele>982.22900</ele>
        <time>2009-01-05T11:37:09Z</time>
      </trkpt>
      <trkpt lat="27.93389600" lon="-15.6444700">
        <ele>982.59300</ele>
        <time>2009-01-05T11:37:10Z</time>
      </trkpt>
      <trkpt lat="27.93391100" lon="-15.6444420">
        <ele>982.92300</ele>
        <time>2009-01-05T11:37:11Z</time>
      </trkpt>
      <trkpt lat="27.93392700" lon="-15.6444140">
        <ele>983.34500</ele>
        <time>2009-01-05T11:37:12Z</time>
      </trkpt>
      <trkpt lat="27.93394300" lon="-15.6443870">
        <ele>983.34200</ele>
        <time>2009-01-05T11:37:13Z</time>
      </trkpt>
      <trkpt lat="27.93396000" lon="-15.6443620">
        <ele>983.75600</ele>
        <time>2009-01-05T11:37:14Z</time>
      </trkpt>
      <trkpt lat="27.93397700" lon="-15.6443370">
        <ele>983.78700</ele>
        <time>2009-01-05T11:37:15Z</time>
      </trkpt>
      <trkpt lat="27.93399600" lon="-15.6443140">
        <ele>983.80000</ele>
        <time>2009-01-05T11:37:16Z</time>
      </trkpt>
      <trkpt lat="27.93401600" lon="-15.6442900">
        <ele>983.80200</ele>
        <time>2009-01-05T11:37:17Z</time>
      </trkpt>
      <trkpt lat="27.93403600" lon="-15.6442640">
        <ele>984.42300</ele>
        <time>2009-01-05T11:37:18Z</time>
      </trkpt>
      <trkpt lat="27.93405300" lon="-15.6442340">
        <ele>985.33900</ele>
        <time>2009-01-05T11:37:19Z</time>
      </trkpt>
      <trkpt lat="27.93407000" lon="-15.6442040">
        <ele>985.42500</ele>
        <time>2009-01-05T11:37:20Z</time>
      </trkpt>
      <trkpt lat="27.93408700" lon="-15.6441740">
        <ele>985.75500</ele>
        <time>2009-01-05T11:37:21Z</time>
      </trkpt>
      <trkpt lat="27.93410500" lon="-15.6441440">
        <ele>986.05700</ele>
        <time>2009-01-05T11:37:22Z</time>
      </trkpt>
      <trkpt lat="27.93412200" lon="-15.6441140">
        <ele>986.18000</ele>
        <time>2009-01-05T11:37:23Z</time>
      </trkpt>
      <trkpt lat="27.93413800" lon="-15.6440840">
        <ele>986.72900</ele>
        <time>2009-01-05T11:37:24Z</time>
      </trkpt>
      <trkpt lat="27.93415200" lon="-15.6440540">
        <ele>986.45300</ele>
        <time>2009-01-05T11:37:25Z</time>
      </trkpt>
      <trkpt lat="27.93416600" lon="-15.6440230">
        <ele>986.86100</ele>
        <time>2009-01-05T11:37:26Z</time>
      </trkpt>
      <trkpt lat="27.93418000" lon="-15.6439930">
        <ele>987.18300</ele>
        <time>2009-01-05T11:37:27Z</time>
      </trkpt>
      <trkpt lat="27.93419300" lon="-15.6439630">
        <ele>987.09700</ele>
        <time>2009-01-05T11:37:28Z</time>
      </trkpt>
      <trkpt lat="27.93420500" lon="-15.6439320">
        <ele>987.45300</ele>
        <time>2009-01-05T11:37:29Z</time>
      </trkpt>
      <trkpt lat="27.93421500" lon="-15.6439000">
        <ele>987.46800</ele>
        <time>2009-01-05T11:37:30Z</time>
      </trkpt>
      <trkpt lat="27.93422500" lon="-15.6438670">
        <ele>987.71800</ele>
        <time>2009-01-05T11:37:31Z</time>
      </trkpt>
      <trkpt lat="27.93423300" lon="-15.6438340">
        <ele>987.96900</ele>
        <time>2009-01-05T11:37:32Z</time>
      </trkpt>
      <trkpt lat="27.93423900" lon="-15.6438000">
        <ele>988.16600</ele>
        <time>2009-01-05T11:37:33Z</time>
      </trkpt>
      <trkpt lat="27.93424300" lon="-15.6437650">
        <ele>988.17900</ele>
        <time>2009-01-05T11:37:34Z</time>
      </trkpt>
      <trkpt lat="27.93424500" lon="-15.6437300">
        <ele>988.16700</ele>
        <time>2009-01-05T11:37:35Z</time>
      </trkpt>
      <trkpt lat="27.93424900" lon="-15.6436940">
        <ele>988.71700</ele>
        <time>2009-01-05T11:37:36Z</time>
      </trkpt>
      <trkpt lat="27.93425400" lon="-15.6436600">
        <ele>988.84000</ele>
        <time>2009-01-05T11:37:37Z</time>
      </trkpt>
      <trkpt lat="27.93425800" lon="-15.6436260">
        <ele>989.17000</ele>
        <time>2009-01-05T11:37:38Z</time>
      </trkpt>
      <trkpt lat="27.93426100" lon="-15.6435910">
        <ele>989.48400</ele>
        <time>2009-01-05T11:37:39Z</time>
      </trkpt>
      <trkpt lat="27.93426300" lon="-15.6435560">
        <ele>989.61600</ele>
        <time>2009-01-05T11:37:40Z</time>
      </trkpt>
      <trkpt lat="27.93426400" lon="-15.6435220">
        <ele>989.68600</ele>
        <time>2009-01-05T11:37:41Z</time>
      </trkpt>
      <trkpt lat="27.93426600" lon="-15.6434870">
        <ele>990.11400</ele>
        <time>2009-01-05T11:37:42Z</time>
      </trkpt>
      <trkpt lat="27.93426900" lon="-15.6434530">
        <ele>990.17200</ele>
        <time>2009-01-05T11:37:43Z</time>
      </trkpt>
      <trkpt lat="27.93427300" lon="-15.6434190">
        <ele>990.84200</ele>
        <time>2009-01-05T11:37:44Z</time>
      </trkpt>
      <trkpt lat="27.93427500" lon="-15.6433840">
        <ele>990.74400</ele>
        <time>2009-01-05T11:37:45Z</time>
      </trkpt>
      <trkpt lat="27.93427600" lon="-15.6433480">
        <ele>991.00500</ele>
        <time>2009-01-05T11:37:46Z</time>
      </trkpt>
      <trkpt lat="27.93427700" lon="-15.6433130">
        <ele>990.99600</ele>
        <time>2009-01-05T11:37:47Z</time>
      </trkpt>
      <trkpt lat="27.93427900" lon="-15.6432770">
        <ele>991.13000</ele>
        <time>2009-01-05T11:37:48Z</time>
      </trkpt>
      <trkpt lat="27.93428000" lon="-15.6432410">
        <ele>991.54400</ele>
        <time>2009-01-05T11:37:49Z</time>
      </trkpt>
      <trkpt lat="27.93428100" lon="-15.6432060">
        <ele>991.64400</ele>
        <time>2009-01-05T11:37:50Z</time>
      </trkpt>
      <trkpt lat="27.93428300" lon="-15.6431710">
        <ele>991.89200</ele>
        <time>2009-01-05T11:37:51Z</time>
      </trkpt>
      <trkpt lat="27.93428300" lon="-15.6431360">
        <ele>991.83300</ele>
        <time>2009-01-05T11:37:52Z</time>
      </trkpt>
      <trkpt lat="27.93428300" lon="-15.6431000">
        <ele>992.28700</ele>
        <time>2009-01-05T11:37:53Z</time>
      </trkpt>
      <trkpt lat="27.93428300" lon="-15.6430650">
        <ele>992.55300</ele>
        <time>2009-01-05T11:37:54Z</time>
      </trkpt>
      <trkpt lat="27.93428300" lon="-15.6430290">
        <ele>992.79600</ele>
        <time>2009-01-05T11:37:55Z</time>
      </trkpt>
      <trkpt lat="27.93428500" lon="-15.6429940">
        <ele>992.88200</ele>
        <time>2009-01-05T11:37:56Z</time>
      </trkpt>
      <trkpt lat="27.93428600" lon="-15.6429600">
        <ele>993.23800</ele>
        <time>2009-01-05T11:37:57Z</time>
      </trkpt>
      <trkpt lat="27.93428800" lon="-15.6429240">
        <ele>993.59200</ele>
        <time>2009-01-05T11:37:58Z</time>
      </trkpt>
      <trkpt lat="27.93429300" lon="-15.6428900">
        <ele>994.17500</ele>
        <time>2009-01-05T11:37:59Z</time>
      </trkpt>
      <trkpt lat="27.93430000" lon="-15.6428550">
        <ele>994.50900</ele>
        <time>2009-01-05T11:38:00Z</time>
      </trkpt>
      <trkpt lat="27.93430800" lon="-15.6428200">
        <ele>994.37600</ele>
        <time>2009-01-05T11:38:01Z</time>
      </trkpt>
      <trkpt lat="27.93431600" lon="-15.6427840">
        <ele>994.41700</ele>
        <time>2009-01-05T11:38:02Z</time>
      </trkpt>
      <trkpt lat="27.93432800" lon="-15.6427490">
        <ele>994.62200</ele>
        <time>2009-01-05T11:38:03Z</time>
      </trkpt>
      <trkpt lat="27.93434100" lon="-15.6427150">
        <ele>994.75900</ele>
        <time>2009-01-05T11:38:04Z</time>
      </trkpt>
      <trkpt lat="27.93435600" lon="-15.6426820">
        <ele>995.08500</ele>
        <time>2009-01-05T11:38:05Z</time>
      </trkpt>
      <trkpt lat="27.93437400" lon="-15.6426510">
        <ele>995.11300</ele>
        <time>2009-01-05T11:38:06Z</time>
      </trkpt>
      <trkpt lat="27.93439400" lon="-15.6426210">
        <ele>995.59800</ele>
        <time>2009-01-05T11:38:07Z</time>
      </trkpt>
      <trkpt lat="27.93441700" lon="-15.6425940">
        <ele>995.63900</ele>
        <time>2009-01-05T11:38:08Z</time>
      </trkpt>
      <trkpt lat="27.93444300" lon="-15.6425690">
        <ele>995.83300</ele>
        <time>2009-01-05T11:38:09Z</time>
      </trkpt>
      <trkpt lat="27.93447000" lon="-15.6425460">
        <ele>995.76600</ele>
        <time>2009-01-05T11:38:10Z</time>
      </trkpt>
      <trkpt lat="27.93449700" lon="-15.6425230">
        <ele>996.20600</ele>
        <time>2009-01-05T11:38:11Z</time>
      </trkpt>
      <trkpt lat="27.93452400" lon="-15.6425000">
        <ele>996.01700</ele>
        <time>2009-01-05T11:38:12Z</time>
      </trkpt>
      <trkpt lat="27.93455300" lon="-15.6424780">
        <ele>996.50500</ele>
        <time>2009-01-05T11:38:13Z</time>
      </trkpt>
      <trkpt lat="27.93458300" lon="-15.6424580">
        <ele>996.24000</ele>
        <time>2009-01-05T11:38:14Z</time>
      </trkpt>
      <trkpt lat="27.93461400" lon="-15.6424390">
        <ele>996.55300</ele>
        <time>2009-01-05T11:38:15Z</time>
      </trkpt>
      <trkpt lat="27.93464400" lon="-15.6424220">
        <ele>996.42000</ele>
        <time>2009-01-05T11:38:16Z</time>
      </trkpt>
      <trkpt lat="27.93467600" lon="-15.6424070">
        <ele>996.77900</ele>
        <time>2009-01-05T11:38:17Z</time>
      </trkpt>
      <trkpt lat="27.93470900" lon="-15.6423960">
        <ele>997.09800</ele>
        <time>2009-01-05T11:38:18Z</time>
      </trkpt>
      <trkpt lat="27.93474300" lon="-15.6423910">
        <ele>997.37700</ele>
        <time>2009-01-05T11:38:19Z</time>
      </trkpt>
      <trkpt lat="27.93477800" lon="-15.6423880">
        <ele>997.46300</ele>
        <time>2009-01-05T11:38:20Z</time>
      </trkpt>
      <trkpt lat="27.93481300" lon="-15.6423880">
        <ele>997.42300</ele>
        <time>2009-01-05T11:38:21Z</time>
      </trkpt>
      <trkpt lat="27.93484900" lon="-15.6423890">
        <ele>997.51400</ele>
        <time>2009-01-05T11:38:22Z</time>
      </trkpt>
      <trkpt lat="27.93488600" lon="-15.6423910">
        <ele>997.72000</ele>
        <time>2009-01-05T11:38:23Z</time>
      </trkpt>
      <trkpt lat="27.93492300" lon="-15.6423940">
        <ele>998.03100</ele>
        <time>2009-01-05T11:38:24Z</time>
      </trkpt>
      <trkpt lat="27.93495900" lon="-15.6423960">
        <ele>998.01500</ele>
        <time>2009-01-05T11:38:25Z</time>
      </trkpt>
      <trkpt lat="27.93499600" lon="-15.6424000">
        <ele>998.03200</ele>
        <time>2009-01-05T11:38:26Z</time>
      </trkpt>
      <trkpt lat="27.93503200" lon="-15.6424060">
        <ele>997.99500</ele>
        <time>2009-01-05T11:38:27Z</time>
      </trkpt>
      <trkpt lat="27.93506800" lon="-15.6424130">
        <ele>998.50400</ele>
        <time>2009-01-05T11:38:28Z</time>
      </trkpt>
      <trkpt lat="27.93510500" lon="-15.6424200">
        <ele>998.46400</ele>
        <time>2009-01-05T11:38:29Z</time>
      </trkpt>
      <trkpt lat="27.93514300" lon="-15.6424240">
        <ele>998.51600</ele>
        <time>2009-01-05T11:38:30Z</time>
      </trkpt>
      <trkpt lat="27.93518300" lon="-15.6424250">
        <ele>998.86600</ele>
        <time>2009-01-05T11:38:31Z</time>
      </trkpt>
      <trkpt lat="27.93522500" lon="-15.6424230">
        <ele>998.83900</ele>
        <time>2009-01-05T11:38:32Z</time>
      </trkpt>
      <trkpt lat="27.93526900" lon="-15.6424190">
        <ele>999.18600</ele>
        <time>2009-01-05T11:38:33Z</time>
      </trkpt>
      <trkpt lat="27.93531300" lon="-15.6424090">
        <ele>999.97500</ele>
        <time>2009-01-05T11:38:34Z</time>
      </trkpt>
      <trkpt lat="27.93535700" lon="-15.6423930">
        <ele>999.84900</ele>
        <time>2009-01-05T11:38:35Z</time>
      </trkpt>
      <trkpt lat="27.93539600" lon="-15.6423720">
        <ele>1000.4750</ele>
        <time>2009-01-05T11:38:36Z</time>
      </trkpt>
      <trkpt lat="27.93543000" lon="-15.6423480">
        <ele>1000.7340</ele>
        <time>2009-01-05T11:38:37Z</time>
      </trkpt>
      <trkpt lat="27.93546000" lon="-15.6423200">
        <ele>1001.1250</ele>
        <time>2009-01-05T11:38:38Z</time>
      </trkpt>
      <trkpt lat="27.93548600" lon="-15.6422900">
        <ele>1001.4630</ele>
        <time>2009-01-05T11:38:39Z</time>
      </trkpt>
      <trkpt lat="27.93550700" lon="-15.6422570">
        <ele>1001.2460</ele>
        <time>2009-01-05T11:38:40Z</time>
      </trkpt>
      <trkpt lat="27.93552600" lon="-15.6422220">
        <ele>1001.4570</ele>
        <time>2009-01-05T11:38:41Z</time>
      </trkpt>
      <trkpt lat="27.93554800" lon="-15.6421880">
        <ele>1002.1270</ele>
        <time>2009-01-05T11:38:42Z</time>
      </trkpt>
      <trkpt lat="27.93557000" lon="-15.6421550">
        <ele>1002.3750</ele>
        <time>2009-01-05T11:38:43Z</time>
      </trkpt>
      <trkpt lat="27.93559200" lon="-15.6421230">
        <ele>1002.6470</ele>
        <time>2009-01-05T11:38:44Z</time>
      </trkpt>
      <trkpt lat="27.93561300" lon="-15.6420910">
        <ele>1002.8890</ele>
        <time>2009-01-05T11:38:45Z</time>
      </trkpt>
      <trkpt lat="27.93563500" lon="-15.6420610">
        <ele>1003.1140</ele>
        <time>2009-01-05T11:38:46Z</time>
      </trkpt>
      <trkpt lat="27.93566000" lon="-15.6420360">
        <ele>1003.7470</ele>
        <time>2009-01-05T11:38:47Z</time>
      </trkpt>
      <trkpt lat="27.93568800" lon="-15.6420140">
        <ele>1003.6940</ele>
        <time>2009-01-05T11:38:48Z</time>
      </trkpt>
      <trkpt lat="27.93571700" lon="-15.6419930">
        <ele>1003.8020</ele>
        <time>2009-01-05T11:38:49Z</time>
      </trkpt>
      <trkpt lat="27.93574500" lon="-15.6419720">
        <ele>1003.6800</ele>
        <time>2009-01-05T11:38:50Z</time>
      </trkpt>
      <trkpt lat="27.93577400" lon="-15.6419490">
        <ele>1004.1520</ele>
        <time>2009-01-05T11:38:51Z</time>
      </trkpt>
      <trkpt lat="27.93580300" lon="-15.6419270">
        <ele>1004.1640</ele>
        <time>2009-01-05T11:38:52Z</time>
      </trkpt>
      <trkpt lat="27.93583400" lon="-15.6419050">
        <ele>1004.3670</ele>
        <time>2009-01-05T11:38:53Z</time>
      </trkpt>
      <trkpt lat="27.93586500" lon="-15.6418850">
        <ele>1004.5420</ele>
        <time>2009-01-05T11:38:54Z</time>
      </trkpt>
      <trkpt lat="27.93589500" lon="-15.6418640">
        <ele>1004.8870</ele>
        <time>2009-01-05T11:38:55Z</time>
      </trkpt>
      <trkpt lat="27.93592400" lon="-15.6418410">
        <ele>1005.0700</ele>
        <time>2009-01-05T11:38:56Z</time>
      </trkpt>
      <trkpt lat="27.93594900" lon="-15.6418150">
        <ele>1005.4230</ele>
        <time>2009-01-05T11:38:57Z</time>
      </trkpt>
      <trkpt lat="27.93597100" lon="-15.6417850">
        <ele>1005.6350</ele>
        <time>2009-01-05T11:38:58Z</time>
      </trkpt>
      <trkpt lat="27.93598900" lon="-15.6417510">
        <ele>1005.8070</ele>
        <time>2009-01-05T11:38:59Z</time>
      </trkpt>
      <trkpt lat="27.93600200" lon="-15.6417160">
        <ele>1006.0530</ele>
        <time>2009-01-05T11:39:00Z</time>
      </trkpt>
      <trkpt lat="27.93601000" lon="-15.6416790">
        <ele>1006.7640</ele>
        <time>2009-01-05T11:39:01Z</time>
      </trkpt>
      <trkpt lat="27.93601500" lon="-15.6416420">
        <ele>1007.0030</ele>
        <time>2009-01-05T11:39:02Z</time>
      </trkpt>
      <trkpt lat="27.93601700" lon="-15.6416060">
        <ele>1007.0850</ele>
        <time>2009-01-05T11:39:03Z</time>
      </trkpt>
      <trkpt lat="27.93601600" lon="-15.6415700">
        <ele>1007.2520</ele>
        <time>2009-01-05T11:39:04Z</time>
      </trkpt>
      <trkpt lat="27.93601300" lon="-15.6415350">
        <ele>1007.2240</ele>
        <time>2009-01-05T11:39:05Z</time>
      </trkpt>
      <trkpt lat="27.93600900" lon="-15.6415000">
        <ele>1007.7630</ele>
        <time>2009-01-05T11:39:06Z</time>
      </trkpt>
      <trkpt lat="27.93600200" lon="-15.6414650">
        <ele>1007.5210</ele>
        <time>2009-01-05T11:39:07Z</time>
      </trkpt>
      <trkpt lat="27.93599800" lon="-15.6414290">
        <ele>1007.3450</ele>
        <time>2009-01-05T11:39:08Z</time>
      </trkpt>
      <trkpt lat="27.93599500" lon="-15.6413900">
        <ele>1007.5570</ele>
        <time>2009-01-05T11:39:09Z</time>
      </trkpt>
      <trkpt lat="27.93599300" lon="-15.6413530">
        <ele>1007.8150</ele>
        <time>2009-01-05T11:39:10Z</time>
      </trkpt>
      <trkpt lat="27.93598900" lon="-15.6413160">
        <ele>1007.9350</ele>
        <time>2009-01-05T11:39:11Z</time>
      </trkpt>
      <trkpt lat="27.93598400" lon="-15.6412800">
        <ele>1008.6870</ele>
        <time>2009-01-05T11:39:12Z</time>
      </trkpt>
      <trkpt lat="27.93597800" lon="-15.6412450">
        <ele>1008.7520</ele>
        <time>2009-01-05T11:39:13Z</time>
      </trkpt>
      <trkpt lat="27.93597100" lon="-15.6412120">
        <ele>1008.7590</ele>
        <time>2009-01-05T11:39:14Z</time>
      </trkpt>
      <trkpt lat="27.93596500" lon="-15.6411790">
        <ele>1009.1150</ele>
        <time>2009-01-05T11:39:15Z</time>
      </trkpt>
      <trkpt lat="27.93596000" lon="-15.6411450">
        <ele>1009.0770</ele>
        <time>2009-01-05T11:39:16Z</time>
      </trkpt>
      <trkpt lat="27.93595500" lon="-15.6411120">
        <ele>1009.3140</ele>
        <time>2009-01-05T11:39:17Z</time>
      </trkpt>
      <trkpt lat="27.93595100" lon="-15.6410790">
        <ele>1009.5820</ele>
        <time>2009-01-05T11:39:18Z</time>
      </trkpt>
      <trkpt lat="27.93594600" lon="-15.6410470">
        <ele>1009.6080</ele>
        <time>2009-01-05T11:39:19Z</time>
      </trkpt>
      <trkpt lat="27.93594100" lon="-15.6410150">
        <ele>1009.6550</ele>
        <time>2009-01-05T11:39:20Z</time>
      </trkpt>
      <trkpt lat="27.93593600" lon="-15.6409820">
        <ele>1009.5510</ele>
        <time>2009-01-05T11:39:21Z</time>
      </trkpt>
      <trkpt lat="27.93593000" lon="-15.6409500">
        <ele>1010.0530</ele>
        <time>2009-01-05T11:39:22Z</time>
      </trkpt>
      <trkpt lat="27.93592400" lon="-15.6409190">
        <ele>1010.1580</ele>
        <time>2009-01-05T11:39:23Z</time>
      </trkpt>
      <trkpt lat="27.93592000" lon="-15.6408870">
        <ele>1010.1130</ele>
        <time>2009-01-05T11:39:24Z</time>
      </trkpt>
      <trkpt lat="27.93591600" lon="-15.6408540">
        <ele>1010.1260</ele>
        <time>2009-01-05T11:39:25Z</time>
      </trkpt>
      <trkpt lat="27.93591300" lon="-15.6408220">
        <ele>1010.8690</ele>
        <time>2009-01-05T11:39:26Z</time>
      </trkpt>
      <trkpt lat="27.93591000" lon="-15.6407910">
        <ele>1011.0570</ele>
        <time>2009-01-05T11:39:27Z</time>
      </trkpt>
      <trkpt lat="27.93591000" lon="-15.6407590">
        <ele>1011.0620</ele>
        <time>2009-01-05T11:39:28Z</time>
      </trkpt>
      <trkpt lat="27.93591200" lon="-15.6407280">
        <ele>1011.5620</ele>
        <time>2009-01-05T11:39:29Z</time>
      </trkpt>
      <trkpt lat="27.93591800" lon="-15.6406960">
        <ele>1011.6500</ele>
        <time>2009-01-05T11:39:30Z</time>
      </trkpt>
      <trkpt lat="27.93592500" lon="-15.6406640">
        <ele>1012.0090</ele>
        <time>2009-01-05T11:39:31Z</time>
      </trkpt>
      <trkpt lat="27.93593300" lon="-15.6406320">
        <ele>1012.2310</ele>
        <time>2009-01-05T11:39:32Z</time>
      </trkpt>
      <trkpt lat="27.93594200" lon="-15.6406010">
        <ele>1012.2100</ele>
        <time>2009-01-05T11:39:33Z</time>
      </trkpt>
      <trkpt lat="27.93595200" lon="-15.6405700">
        <ele>1012.5430</ele>
        <time>2009-01-05T11:39:34Z</time>
      </trkpt>
      <trkpt lat="27.93596200" lon="-15.6405380">
        <ele>1012.6800</ele>
        <time>2009-01-05T11:39:35Z</time>
      </trkpt>
      <trkpt lat="27.93597300" lon="-15.6405050">
        <ele>1013.0610</ele>
        <time>2009-01-05T11:39:36Z</time>
      </trkpt>
      <trkpt lat="27.93598600" lon="-15.6404720">
        <ele>1013.2110</ele>
        <time>2009-01-05T11:39:37Z</time>
      </trkpt>
      <trkpt lat="27.93599700" lon="-15.6404380">
        <ele>1013.4310</ele>
        <time>2009-01-05T11:39:38Z</time>
      </trkpt>
      <trkpt lat="27.93600900" lon="-15.6404040">
        <ele>1013.4920</ele>
        <time>2009-01-05T11:39:39Z</time>
      </trkpt>
      <trkpt lat="27.93602100" lon="-15.6403710">
        <ele>1013.7510</ele>
        <time>2009-01-05T11:39:40Z</time>
      </trkpt>
      <trkpt lat="27.93603200" lon="-15.6403360">
        <ele>1014.0680</ele>
        <time>2009-01-05T11:39:41Z</time>
      </trkpt>
      <trkpt lat="27.93604100" lon="-15.6403000">
        <ele>1014.2500</ele>
        <time>2009-01-05T11:39:42Z</time>
      </trkpt>
      <trkpt lat="27.93604700" lon="-15.6402630">
        <ele>1014.0630</ele>
        <time>2009-01-05T11:39:43Z</time>
      </trkpt>
      <trkpt lat="27.93605100" lon="-15.6402250">
        <ele>1014.3930</ele>
        <time>2009-01-05T11:39:44Z</time>
      </trkpt>
      <trkpt lat="27.93605200" lon="-15.6401870">
        <ele>1014.3670</ele>
        <time>2009-01-05T11:39:45Z</time>
      </trkpt>
      <trkpt lat="27.93605200" lon="-15.6401490">
        <ele>1014.8060</ele>
        <time>2009-01-05T11:39:46Z</time>
      </trkpt>
      <trkpt lat="27.93604900" lon="-15.6401100">
        <ele>1015.2740</ele>
        <time>2009-01-05T11:39:47Z</time>
      </trkpt>
      <trkpt lat="27.93604500" lon="-15.6400710">
        <ele>1015.4360</ele>
        <time>2009-01-05T11:39:48Z</time>
      </trkpt>
      <trkpt lat="27.93603900" lon="-15.6400330">
        <ele>1015.7710</ele>
        <time>2009-01-05T11:39:49Z</time>
      </trkpt>
      <trkpt lat="27.93603200" lon="-15.6399950">
        <ele>1016.0840</ele>
        <time>2009-01-05T11:39:50Z</time>
      </trkpt>
      <trkpt lat="27.93602200" lon="-15.6399580">
        <ele>1016.3640</ele>
        <time>2009-01-05T11:39:51Z</time>
      </trkpt>
      <trkpt lat="27.93600700" lon="-15.6399230">
        <ele>1016.6310</ele>
        <time>2009-01-05T11:39:52Z</time>
      </trkpt>
      <trkpt lat="27.93598700" lon="-15.6398900">
        <ele>1016.5600</ele>
        <time>2009-01-05T11:39:53Z</time>
      </trkpt>
      <trkpt lat="27.93596600" lon="-15.6398570">
        <ele>1016.5180</ele>
        <time>2009-01-05T11:39:54Z</time>
      </trkpt>
      <trkpt lat="27.93594400" lon="-15.6398250">
        <ele>1017.2580</ele>
        <time>2009-01-05T11:39:55Z</time>
      </trkpt>
      <trkpt lat="27.93592000" lon="-15.6397940">
        <ele>1017.3960</ele>
        <time>2009-01-05T11:39:56Z</time>
      </trkpt>
      <trkpt lat="27.93589400" lon="-15.6397660">
        <ele>1019.0050</ele>
        <time>2009-01-05T11:39:57Z</time>
      </trkpt>
      <trkpt lat="27.93586900" lon="-15.6397390">
        <ele>1019.2780</ele>
        <time>2009-01-05T11:39:58Z</time>
      </trkpt>
      <trkpt lat="27.93584400" lon="-15.6397150">
        <ele>1019.0370</ele>
        <time>2009-01-05T11:39:59Z</time>
      </trkpt>
      <trkpt lat="27.93581800" lon="-15.6396900">
        <ele>1018.9530</ele>
        <time>2009-01-05T11:40:00Z</time>
      </trkpt>
      <trkpt lat="27.93579100" lon="-15.6396680">
        <ele>1018.6720</ele>
        <time>2009-01-05T11:40:01Z</time>
      </trkpt>
      <trkpt lat="27.93576400" lon="-15.6396460">
        <ele>1018.4320</ele>
        <time>2009-01-05T11:40:02Z</time>
      </trkpt>
      <trkpt lat="27.93573700" lon="-15.6396230">
        <ele>1018.5330</ele>
        <time>2009-01-05T11:40:03Z</time>
      </trkpt>
      <trkpt lat="27.93571100" lon="-15.6395990">
        <ele>1018.2770</ele>
        <time>2009-01-05T11:40:04Z</time>
      </trkpt>
      <trkpt lat="27.93568400" lon="-15.6395750">
        <ele>1018.4710</ele>
        <time>2009-01-05T11:40:05Z</time>
      </trkpt>
      <trkpt lat="27.93565900" lon="-15.6395490">
        <ele>1018.8520</ele>
        <time>2009-01-05T11:40:06Z</time>
      </trkpt>
      <trkpt lat="27.93563500" lon="-15.6395210">
        <ele>1019.1840</ele>
        <time>2009-01-05T11:40:07Z</time>
      </trkpt>
      <trkpt lat="27.93561400" lon="-15.6394910">
        <ele>1019.0180</ele>
        <time>2009-01-05T11:40:08Z</time>
      </trkpt>
      <trkpt lat="27.93559300" lon="-15.6394600">
        <ele>1018.9370</ele>
        <time>2009-01-05T11:40:09Z</time>
      </trkpt>
      <trkpt lat="27.93557400" lon="-15.6394270">
        <ele>1019.1810</ele>
        <time>2009-01-05T11:40:10Z</time>
      </trkpt>
      <trkpt lat="27.93556100" lon="-15.6393900">
        <ele>1019.1160</ele>
        <time>2009-01-05T11:40:11Z</time>
      </trkpt>
      <trkpt lat="27.93555300" lon="-15.6393510">
        <ele>1019.6740</ele>
        <time>2009-01-05T11:40:12Z</time>
      </trkpt>
      <trkpt lat="27.93555200" lon="-15.6393110">
        <ele>1019.4080</ele>
        <time>2009-01-05T11:40:13Z</time>
      </trkpt>
      <trkpt lat="27.93555800" lon="-15.6392720">
        <ele>1019.6100</ele>
        <time>2009-01-05T11:40:14Z</time>
      </trkpt>
      <trkpt lat="27.93557000" lon="-15.6392340">
        <ele>1019.4920</ele>
        <time>2009-01-05T11:40:15Z</time>
      </trkpt>
      <trkpt lat="27.93558700" lon="-15.6391980">
        <ele>1019.5690</ele>
        <time>2009-01-05T11:40:16Z</time>
      </trkpt>
      <trkpt lat="27.93561000" lon="-15.6391650">
        <ele>1019.4220</ele>
        <time>2009-01-05T11:40:17Z</time>
      </trkpt>
      <trkpt lat="27.93563600" lon="-15.6391350">
        <ele>1019.3490</ele>
        <time>2009-01-05T11:40:18Z</time>
      </trkpt>
      <trkpt lat="27.93566500" lon="-15.6391050">
        <ele>1019.3470</ele>
        <time>2009-01-05T11:40:19Z</time>
      </trkpt>
      <trkpt lat="27.93569600" lon="-15.6390790">
        <ele>1019.7370</ele>
        <time>2009-01-05T11:40:20Z</time>
      </trkpt>
      <trkpt lat="27.93572900" lon="-15.6390590">
        <ele>1019.6540</ele>
        <time>2009-01-05T11:40:21Z</time>
      </trkpt>
      <trkpt lat="27.93576300" lon="-15.6390400">
        <ele>1019.7580</ele>
        <time>2009-01-05T11:40:22Z</time>
      </trkpt>
      <trkpt lat="27.93579700" lon="-15.6390220">
        <ele>1020.0130</ele>
        <time>2009-01-05T11:40:23Z</time>
      </trkpt>
      <trkpt lat="27.93583300" lon="-15.6390070">
        <ele>1019.9320</ele>
        <time>2009-01-05T11:40:24Z</time>
      </trkpt>
      <trkpt lat="27.93587000" lon="-15.6389940">
        <ele>1019.8800</ele>
        <time>2009-01-05T11:40:25Z</time>
      </trkpt>
      <trkpt lat="27.93590900" lon="-15.6389830">
        <ele>1020.1770</ele>
        <time>2009-01-05T11:40:26Z</time>
      </trkpt>
      <trkpt lat="27.93595200" lon="-15.6389750">
        <ele>1020.5560</ele>
        <time>2009-01-05T11:40:27Z</time>
      </trkpt>
      <trkpt lat="27.93599600" lon="-15.6389690">
        <ele>1020.5420</ele>
        <time>2009-01-05T11:40:28Z</time>
      </trkpt>
      <trkpt lat="27.93604000" lon="-15.6389640">
        <ele>1021.2090</ele>
        <time>2009-01-05T11:40:29Z</time>
      </trkpt>
      <trkpt lat="27.93608500" lon="-15.6389590">
        <ele>1021.3720</ele>
        <time>2009-01-05T11:40:30Z</time>
      </trkpt>
      <trkpt lat="27.93612900" lon="-15.6389550">
        <ele>1021.3310</ele>
        <time>2009-01-05T11:40:31Z</time>
      </trkpt>
      <trkpt lat="27.93617400" lon="-15.6389520">
        <ele>1021.7970</ele>
        <time>2009-01-05T11:40:32Z</time>
      </trkpt>
      <trkpt lat="27.93621800" lon="-15.6389480">
        <ele>1021.7590</ele>
        <time>2009-01-05T11:40:33Z</time>
      </trkpt>
      <trkpt lat="27.93626200" lon="-15.6389430">
        <ele>1021.7080</ele>
        <time>2009-01-05T11:40:34Z</time>
      </trkpt>
      <trkpt lat="27.93630500" lon="-15.6389390">
        <ele>1021.6970</ele>
        <time>2009-01-05T11:40:35Z</time>
      </trkpt>
      <trkpt lat="27.93635000" lon="-15.6389350">
        <ele>1021.8230</ele>
        <time>2009-01-05T11:40:36Z</time>
      </trkpt>
      <trkpt lat="27.93639400" lon="-15.6389320">
        <ele>1022.1740</ele>
        <time>2009-01-05T11:40:37Z</time>
      </trkpt>
      <trkpt lat="27.93643800" lon="-15.6389290">
        <ele>1022.3110</ele>
        <time>2009-01-05T11:40:38Z</time>
      </trkpt>
      <trkpt lat="27.93648100" lon="-15.6389250">
        <ele>1022.2970</ele>
        <time>2009-01-05T11:40:39Z</time>
      </trkpt>
      <trkpt lat="27.93652400" lon="-15.6389180">
        <ele>1022.4760</ele>
        <time>2009-01-05T11:40:40Z</time>
      </trkpt>
      <trkpt lat="27.93656600" lon="-15.6389080">
        <ele>1022.6900</ele>
        <time>2009-01-05T11:40:41Z</time>
      </trkpt>
      <trkpt lat="27.93660600" lon="-15.6388960">
        <ele>1022.6000</ele>
        <time>2009-01-05T11:40:42Z</time>
      </trkpt>
      <trkpt lat="27.93664500" lon="-15.6388820">
        <ele>1023.2630</ele>
        <time>2009-01-05T11:40:43Z</time>
      </trkpt>
      <trkpt lat="27.93668300" lon="-15.6388670">
        <ele>1023.4160</ele>
        <time>2009-01-05T11:40:44Z</time>
      </trkpt>
      <trkpt lat="27.93672000" lon="-15.6388510">
        <ele>1023.4110</ele>
        <time>2009-01-05T11:40:45Z</time>
      </trkpt>
      <trkpt lat="27.93675500" lon="-15.6388320">
        <ele>1023.7120</ele>
        <time>2009-01-05T11:40:46Z</time>
      </trkpt>
      <trkpt lat="27.93679000" lon="-15.6388120">
        <ele>1023.5690</ele>
        <time>2009-01-05T11:40:47Z</time>
      </trkpt>
      <trkpt lat="27.93682500" lon="-15.6387950">
        <ele>1023.8350</ele>
        <time>2009-01-05T11:40:48Z</time>
      </trkpt>
      <trkpt lat="27.93686000" lon="-15.6387790">
        <ele>1024.3450</ele>
        <time>2009-01-05T11:40:49Z</time>
      </trkpt>
      <trkpt lat="27.93689500" lon="-15.6387650">
        <ele>1024.3900</ele>
        <time>2009-01-05T11:40:50Z</time>
      </trkpt>
      <trkpt lat="27.93693100" lon="-15.6387540">
        <ele>1024.3940</ele>
        <time>2009-01-05T11:40:51Z</time>
      </trkpt>
      <trkpt lat="27.93696700" lon="-15.6387440">
        <ele>1024.3380</ele>
        <time>2009-01-05T11:40:52Z</time>
      </trkpt>
      <trkpt lat="27.93700300" lon="-15.6387360">
        <ele>1024.1450</ele>
        <time>2009-01-05T11:40:53Z</time>
      </trkpt>
      <trkpt lat="27.93703900" lon="-15.6387290">
        <ele>1024.2530</ele>
        <time>2009-01-05T11:40:54Z</time>
      </trkpt>
      <trkpt lat="27.93707500" lon="-15.6387250">
        <ele>1024.6630</ele>
        <time>2009-01-05T11:40:55Z</time>
      </trkpt>
      <trkpt lat="27.93711200" lon="-15.6387200">
        <ele>1024.5840</ele>
        <time>2009-01-05T11:40:56Z</time>
      </trkpt>
      <trkpt lat="27.93714900" lon="-15.6387160">
        <ele>1024.7720</ele>
        <time>2009-01-05T11:40:57Z</time>
      </trkpt>
      <trkpt lat="27.93718700" lon="-15.6387100">
        <ele>1024.8250</ele>
        <time>2009-01-05T11:40:58Z</time>
      </trkpt>
      <trkpt lat="27.93722500" lon="-15.6387040">
        <ele>1025.0420</ele>
        <time>2009-01-05T11:40:59Z</time>
      </trkpt>
      <trkpt lat="27.93726300" lon="-15.6386980">
        <ele>1025.1960</ele>
        <time>2009-01-05T11:41:00Z</time>
      </trkpt>
      <trkpt lat="27.93730200" lon="-15.6386910">
        <ele>1025.2840</ele>
        <time>2009-01-05T11:41:01Z</time>
      </trkpt>
      <trkpt lat="27.93734100" lon="-15.6386850">
        <ele>1025.2800</ele>
        <time>2009-01-05T11:41:02Z</time>
      </trkpt>
      <trkpt lat="27.93738000" lon="-15.6386790">
        <ele>1025.5050</ele>
        <time>2009-01-05T11:41:03Z</time>
      </trkpt>
      <trkpt lat="27.93742000" lon="-15.6386740">
        <ele>1025.4590</ele>
        <time>2009-01-05T11:41:04Z</time>
      </trkpt>
      <trkpt lat="27.93746200" lon="-15.6386710">
        <ele>1026.3790</ele>
        <time>2009-01-05T11:41:05Z</time>
      </trkpt>
      <trkpt lat="27.93750300" lon="-15.6386670">
        <ele>1026.6630</ele>
        <time>2009-01-05T11:41:06Z</time>
      </trkpt>
      <trkpt lat="27.93754300" lon="-15.6386610">
        <ele>1026.8230</ele>
        <time>2009-01-05T11:41:07Z</time>
      </trkpt>
      <trkpt lat="27.93758200" lon="-15.6386550">
        <ele>1027.1510</ele>
        <time>2009-01-05T11:41:08Z</time>
      </trkpt>
      <trkpt lat="27.93762000" lon="-15.6386500">
        <ele>1027.5300</ele>
        <time>2009-01-05T11:41:09Z</time>
      </trkpt>
      <trkpt lat="27.93766000" lon="-15.6386450">
        <ele>1027.5310</ele>
        <time>2009-01-05T11:41:10Z</time>
      </trkpt>
      <trkpt lat="27.93769900" lon="-15.6386370">
        <ele>1027.9740</ele>
        <time>2009-01-05T11:41:11Z</time>
      </trkpt>
      <trkpt lat="27.93773600" lon="-15.6386240">
        <ele>1028.3100</ele>
        <time>2009-01-05T11:41:12Z</time>
      </trkpt>
      <trkpt lat="27.93777100" lon="-15.6386040">
        <ele>1028.5650</ele>
        <time>2009-01-05T11:41:13Z</time>
      </trkpt>
      <trkpt lat="27.93780300" lon="-15.6385780">
        <ele>1028.6210</ele>
        <time>2009-01-05T11:41:14Z</time>
      </trkpt>
      <trkpt lat="27.93783300" lon="-15.6385490">
        <ele>1029.2030</ele>
        <time>2009-01-05T11:41:15Z</time>
      </trkpt>
      <trkpt lat="27.93786200" lon="-15.6385180">
        <ele>1029.2280</ele>
        <time>2009-01-05T11:41:16Z</time>
      </trkpt>
      <trkpt lat="27.93788800" lon="-15.6384840">
        <ele>1029.6540</ele>
        <time>2009-01-05T11:41:17Z</time>
      </trkpt>
      <trkpt lat="27.93791100" lon="-15.6384480">
        <ele>1029.8190</ele>
        <time>2009-01-05T11:41:18Z</time>
      </trkpt>
      <trkpt lat="27.93793100" lon="-15.6384090">
        <ele>1030.4060</ele>
        <time>2009-01-05T11:41:19Z</time>
      </trkpt>
      <trkpt lat="27.93794800" lon="-15.6383700">
        <ele>1030.6100</ele>
        <time>2009-01-05T11:41:20Z</time>
      </trkpt>
      <trkpt lat="27.93796700" lon="-15.6383310">
        <ele>1031.0650</ele>
        <time>2009-01-05T11:41:21Z</time>
      </trkpt>
      <trkpt lat="27.93798500" lon="-15.6382910">
        <ele>1031.0340</ele>
        <time>2009-01-05T11:41:22Z</time>
      </trkpt>
      <trkpt lat="27.93800200" lon="-15.6382490">
        <ele>1031.6530</ele>
        <time>2009-01-05T11:41:23Z</time>
      </trkpt>
      <trkpt lat="27.93801900" lon="-15.6382070">
        <ele>1032.1470</ele>
        <time>2009-01-05T11:41:24Z</time>
      </trkpt>
      <trkpt lat="27.93803400" lon="-15.6381650">
        <ele>1032.1160</ele>
        <time>2009-01-05T11:41:25Z</time>
      </trkpt>
      <trkpt lat="27.93805000" lon="-15.6381230">
        <ele>1032.5330</ele>
        <time>2009-01-05T11:41:26Z</time>
      </trkpt>
      <trkpt lat="27.93806800" lon="-15.6380840">
        <ele>1033.0940</ele>
        <time>2009-01-05T11:41:27Z</time>
      </trkpt>
      <trkpt lat="27.93808900" lon="-15.6380470">
        <ele>1033.1150</ele>
        <time>2009-01-05T11:41:28Z</time>
      </trkpt>
      <trkpt lat="27.93811300" lon="-15.6380130">
        <ele>1033.4430</ele>
        <time>2009-01-05T11:41:29Z</time>
      </trkpt>
      <trkpt lat="27.93813900" lon="-15.6379790">
        <ele>1033.1440</ele>
        <time>2009-01-05T11:41:30Z</time>
      </trkpt>
      <trkpt lat="27.93816700" lon="-15.6379460">
        <ele>1033.7280</ele>
        <time>2009-01-05T11:41:31Z</time>
      </trkpt>
      <trkpt lat="27.93819500" lon="-15.6379160">
        <ele>1033.8210</ele>
        <time>2009-01-05T11:41:32Z</time>
      </trkpt>
      <trkpt lat="27.93822300" lon="-15.6378890">
        <ele>1034.7080</ele>
        <time>2009-01-05T11:41:33Z</time>
      </trkpt>
      <trkpt lat="27.93825500" lon="-15.6378660">
        <ele>1034.6030</ele>
        <time>2009-01-05T11:41:34Z</time>
      </trkpt>
      <trkpt lat="27.93828900" lon="-15.6378470">
        <ele>1034.8790</ele>
        <time>2009-01-05T11:41:35Z</time>
      </trkpt>
      <trkpt lat="27.93832600" lon="-15.6378310">
        <ele>1034.5590</ele>
        <time>2009-01-05T11:41:36Z</time>
      </trkpt>
      <trkpt lat="27.93836200" lon="-15.6378200">
        <ele>1034.1930</ele>
        <time>2009-01-05T11:41:37Z</time>
      </trkpt>
      <trkpt lat="27.93839900" lon="-15.6378120">
        <ele>1034.0130</ele>
        <time>2009-01-05T11:41:38Z</time>
      </trkpt>
      <trkpt lat="27.93844000" lon="-15.6378060">
        <ele>1034.2550</ele>
        <time>2009-01-05T11:41:39Z</time>
      </trkpt>
      <trkpt lat="27.93848100" lon="-15.6378020">
        <ele>1034.4450</ele>
        <time>2009-01-05T11:41:40Z</time>
      </trkpt>
      <trkpt lat="27.93852300" lon="-15.6377990">
        <ele>1034.7220</ele>
        <time>2009-01-05T11:41:41Z</time>
      </trkpt>
      <trkpt lat="27.93856600" lon="-15.6377970">
        <ele>1034.8480</ele>
        <time>2009-01-05T11:41:42Z</time>
      </trkpt>
      <trkpt lat="27.93860800" lon="-15.6377980">
        <ele>1035.4730</ele>
        <time>2009-01-05T11:41:43Z</time>
      </trkpt>
      <trkpt lat="27.93865100" lon="-15.6378000">
        <ele>1035.2580</ele>
        <time>2009-01-05T11:41:44Z</time>
      </trkpt>
      <trkpt lat="27.93869400" lon="-15.6378030">
        <ele>1035.1750</ele>
        <time>2009-01-05T11:41:45Z</time>
      </trkpt>
      <trkpt lat="27.93873800" lon="-15.6378070">
        <ele>1035.2160</ele>
        <time>2009-01-05T11:41:46Z</time>
      </trkpt>
      <trkpt lat="27.93878100" lon="-15.6378140">
        <ele>1035.2890</ele>
        <time>2009-01-05T11:41:47Z</time>
      </trkpt>
      <trkpt lat="27.93882700" lon="-15.6378230">
        <ele>1035.0770</ele>
        <time>2009-01-05T11:41:48Z</time>
      </trkpt>
      <trkpt lat="27.93887200" lon="-15.6378320">
        <ele>1034.8910</ele>
        <time>2009-01-05T11:41:49Z</time>
      </trkpt>
      <trkpt lat="27.93892100" lon="-15.6378410">
        <ele>1034.8750</ele>
        <time>2009-01-05T11:41:50Z</time>
      </trkpt>
      <trkpt lat="27.93897000" lon="-15.6378490">
        <ele>1035.1020</ele>
        <time>2009-01-05T11:41:51Z</time>
      </trkpt>
      <trkpt lat="27.93902000" lon="-15.6378570">
        <ele>1035.3180</ele>
        <time>2009-01-05T11:41:52Z</time>
      </trkpt>
      <trkpt lat="27.93907500" lon="-15.6378650">
        <ele>1035.0910</ele>
        <time>2009-01-05T11:41:53Z</time>
      </trkpt>
      <trkpt lat="27.93913200" lon="-15.6378730">
        <ele>1035.3340</ele>
        <time>2009-01-05T11:41:54Z</time>
      </trkpt>
      <trkpt lat="27.93918300" lon="-15.6378840">
        <ele>1035.6270</ele>
        <time>2009-01-05T11:41:55Z</time>
      </trkpt>
      <trkpt lat="27.93923300" lon="-15.6378950">
        <ele>1035.5750</ele>
        <time>2009-01-05T11:41:56Z</time>
      </trkpt>
      <trkpt lat="27.93928600" lon="-15.6379070">
        <ele>1035.8070</ele>
        <time>2009-01-05T11:41:57Z</time>
      </trkpt>
      <trkpt lat="27.93933800" lon="-15.6379180">
        <ele>1035.9460</ele>
        <time>2009-01-05T11:41:58Z</time>
      </trkpt>
      <trkpt lat="27.93939000" lon="-15.6379290">
        <ele>1036.4380</ele>
        <time>2009-01-05T11:41:59Z</time>
      </trkpt>
      <trkpt lat="27.93944100" lon="-15.6379390">
        <ele>1036.5000</ele>
        <time>2009-01-05T11:42:00Z</time>
      </trkpt>
      <trkpt lat="27.93949200" lon="-15.6379490">
        <ele>1036.4920</ele>
        <time>2009-01-05T11:42:01Z</time>
      </trkpt>
      <trkpt lat="27.93954600" lon="-15.6379590">
        <ele>1036.6800</ele>
        <time>2009-01-05T11:42:02Z</time>
      </trkpt>
      <trkpt lat="27.93959800" lon="-15.6379680">
        <ele>1036.9180</ele>
        <time>2009-01-05T11:42:03Z</time>
      </trkpt>
      <trkpt lat="27.93965100" lon="-15.6379760">
        <ele>1037.0150</ele>
        <time>2009-01-05T11:42:04Z</time>
      </trkpt>
      <trkpt lat="27.93970200" lon="-15.6379840">
        <ele>1036.9940</ele>
        <time>2009-01-05T11:42:05Z</time>
      </trkpt>
      <trkpt lat="27.93975200" lon="-15.6379900">
        <ele>1037.2310</ele>
        <time>2009-01-05T11:42:06Z</time>
      </trkpt>
      <trkpt lat="27.93980400" lon="-15.6379950">
        <ele>1037.0980</ele>
        <time>2009-01-05T11:42:07Z</time>
      </trkpt>
      <trkpt lat="27.93985500" lon="-15.6379980">
        <ele>1037.3080</ele>
        <time>2009-01-05T11:42:08Z</time>
      </trkpt>
      <trkpt lat="27.93990800" lon="-15.6379980">
        <ele>1037.4390</ele>
        <time>2009-01-05T11:42:09Z</time>
      </trkpt>
      <trkpt lat="27.93995800" lon="-15.6379930">
        <ele>1037.8240</ele>
        <time>2009-01-05T11:42:10Z</time>
      </trkpt>
      <trkpt lat="27.94000800" lon="-15.6379750">
        <ele>1037.8850</ele>
        <time>2009-01-05T11:42:11Z</time>
      </trkpt>
      <trkpt lat="27.94005300" lon="-15.6379460">
        <ele>1038.0900</ele>
        <time>2009-01-05T11:42:12Z</time>
      </trkpt>
      <trkpt lat="27.94009200" lon="-15.6379040">
        <ele>1037.9720</ele>
        <time>2009-01-05T11:42:13Z</time>
      </trkpt>
      <trkpt lat="27.94012400" lon="-15.6378530">
        <ele>1038.4160</ele>
        <time>2009-01-05T11:42:14Z</time>
      </trkpt>
      <trkpt lat="27.94015000" lon="-15.6377990">
        <ele>1038.3320</ele>
        <time>2009-01-05T11:42:15Z</time>
      </trkpt>
      <trkpt lat="27.94017100" lon="-15.6377430">
        <ele>1038.5270</ele>
        <time>2009-01-05T11:42:16Z</time>
      </trkpt>
      <trkpt lat="27.94018600" lon="-15.6376830">
        <ele>1038.7600</ele>
        <time>2009-01-05T11:42:17Z</time>
      </trkpt>
      <trkpt lat="27.94019400" lon="-15.6376220">
        <ele>1038.7120</ele>
        <time>2009-01-05T11:42:18Z</time>
      </trkpt>
      <trkpt lat="27.94019500" lon="-15.6375600">
        <ele>1039.1080</ele>
        <time>2009-01-05T11:42:19Z</time>
      </trkpt>
      <trkpt lat="27.94019100" lon="-15.6374980">
        <ele>1038.9760</ele>
        <time>2009-01-05T11:42:20Z</time>
      </trkpt>
      <trkpt lat="27.94018200" lon="-15.6374360">
        <ele>1039.0230</ele>
        <time>2009-01-05T11:42:21Z</time>
      </trkpt>
      <trkpt lat="27.94017100" lon="-15.6373760">
        <ele>1039.5420</ele>
        <time>2009-01-05T11:42:22Z</time>
      </trkpt>
      <trkpt lat="27.94015900" lon="-15.6373160">
        <ele>1039.6430</ele>
        <time>2009-01-05T11:42:23Z</time>
      </trkpt>
      <trkpt lat="27.94014900" lon="-15.6372570">
        <ele>1039.9600</ele>
        <time>2009-01-05T11:42:24Z</time>
      </trkpt>
      <trkpt lat="27.94014100" lon="-15.6371990">
        <ele>1040.0070</ele>
        <time>2009-01-05T11:42:25Z</time>
      </trkpt>
      <trkpt lat="27.94013700" lon="-15.6371410">
        <ele>1040.2400</ele>
        <time>2009-01-05T11:42:26Z</time>
      </trkpt>
      <trkpt lat="27.94013800" lon="-15.6370840">
        <ele>1040.0540</ele>
        <time>2009-01-05T11:42:27Z</time>
      </trkpt>
      <trkpt lat="27.94014400" lon="-15.6370280">
        <ele>1040.3410</ele>
        <time>2009-01-05T11:42:28Z</time>
      </trkpt>
      <trkpt lat="27.94015400" lon="-15.6369730">
        <ele>1040.8030</ele>
        <time>2009-01-05T11:42:29Z</time>
      </trkpt>
      <trkpt lat="27.94017000" lon="-15.6369200">
        <ele>1040.8320</ele>
        <time>2009-01-05T11:42:30Z</time>
      </trkpt>
      <trkpt lat="27.94019000" lon="-15.6368680">
        <ele>1041.0480</ele>
        <time>2009-01-05T11:42:31Z</time>
      </trkpt>
      <trkpt lat="27.94021100" lon="-15.6368150">
        <ele>1041.0500</ele>
        <time>2009-01-05T11:42:32Z</time>
      </trkpt>
      <trkpt lat="27.94023200" lon="-15.6367610">
        <ele>1041.0680</ele>
        <time>2009-01-05T11:42:33Z</time>
      </trkpt>
      <trkpt lat="27.94025100" lon="-15.6367050">
        <ele>1041.0600</ele>
        <time>2009-01-05T11:42:34Z</time>
      </trkpt>
      <trkpt lat="27.94026700" lon="-15.6366470">
        <ele>1041.3530</ele>
        <time>2009-01-05T11:42:35Z</time>
      </trkpt>
      <trkpt lat="27.94027900" lon="-15.6365890">
        <ele>1041.4770</ele>
        <time>2009-01-05T11:42:36Z</time>
      </trkpt>
      <trkpt lat="27.94028300" lon="-15.6365310">
        <ele>1041.8860</ele>
        <time>2009-01-05T11:42:37Z</time>
      </trkpt>
      <trkpt lat="27.94028000" lon="-15.6364700">
        <ele>1042.0280</ele>
        <time>2009-01-05T11:42:38Z</time>
      </trkpt>
      <trkpt lat="27.94026800" lon="-15.6364100">
        <ele>1042.0120</ele>
        <time>2009-01-05T11:42:39Z</time>
      </trkpt>
      <trkpt lat="27.94024600" lon="-15.6363550">
        <ele>1041.8930</ele>
        <time>2009-01-05T11:42:40Z</time>
      </trkpt>
      <trkpt lat="27.94021500" lon="-15.6363050">
        <ele>1042.3190</ele>
        <time>2009-01-05T11:42:41Z</time>
      </trkpt>
      <trkpt lat="27.94017900" lon="-15.6362570">
        <ele>1042.1400</ele>
        <time>2009-01-05T11:42:42Z</time>
      </trkpt>
      <trkpt lat="27.94014300" lon="-15.6362100">
        <ele>1042.3510</ele>
        <time>2009-01-05T11:42:43Z</time>
      </trkpt>
      <trkpt lat="27.94010800" lon="-15.6361640">
        <ele>1042.5470</ele>
        <time>2009-01-05T11:42:44Z</time>
      </trkpt>
      <trkpt lat="27.94007200" lon="-15.6361190">
        <ele>1042.4390</ele>
        <time>2009-01-05T11:42:45Z</time>
      </trkpt>
      <trkpt lat="27.94003400" lon="-15.6360710">
        <ele>1042.1860</ele>
        <time>2009-01-05T11:42:46Z</time>
      </trkpt>
      <trkpt lat="27.93999800" lon="-15.6360270">
        <ele>1042.5590</ele>
        <time>2009-01-05T11:42:47Z</time>
      </trkpt>
      <trkpt lat="27.93996700" lon="-15.6359820">
        <ele>1042.5130</ele>
        <time>2009-01-05T11:42:48Z</time>
      </trkpt>
      <trkpt lat="27.93993900" lon="-15.6359350">
        <ele>1042.7810</ele>
        <time>2009-01-05T11:42:49Z</time>
      </trkpt>
      <trkpt lat="27.93991000" lon="-15.6358900">
        <ele>1042.6400</ele>
        <time>2009-01-05T11:42:50Z</time>
      </trkpt>
      <trkpt lat="27.93988000" lon="-15.6358470">
        <ele>1042.5860</ele>
        <time>2009-01-05T11:42:51Z</time>
      </trkpt>
      <trkpt lat="27.93984800" lon="-15.6358050">
        <ele>1042.5620</ele>
        <time>2009-01-05T11:42:52Z</time>
      </trkpt>
      <trkpt lat="27.93981500" lon="-15.6357630">
        <ele>1042.5660</ele>
        <time>2009-01-05T11:42:53Z</time>
      </trkpt>
      <trkpt lat="27.93978300" lon="-15.6357200">
        <ele>1043.0120</ele>
        <time>2009-01-05T11:42:54Z</time>
      </trkpt>
      <trkpt lat="27.93975400" lon="-15.6356740">
        <ele>1042.9410</ele>
        <time>2009-01-05T11:42:55Z</time>
      </trkpt>
      <trkpt lat="27.93972800" lon="-15.6356270">
        <ele>1043.3470</ele>
        <time>2009-01-05T11:42:56Z</time>
      </trkpt>
      <trkpt lat="27.93970400" lon="-15.6355750">
        <ele>1043.5980</ele>
        <time>2009-01-05T11:42:57Z</time>
      </trkpt>
      <trkpt lat="27.93968500" lon="-15.6355180">
        <ele>1043.6910</ele>
        <time>2009-01-05T11:42:58Z</time>
      </trkpt>
      <trkpt lat="27.93966900" lon="-15.6354580">
        <ele>1043.5690</ele>
        <time>2009-01-05T11:42:59Z</time>
      </trkpt>
      <trkpt lat="27.93965500" lon="-15.6353970">
        <ele>1043.5920</ele>
        <time>2009-01-05T11:43:00Z</time>
      </trkpt>
      <trkpt lat="27.93964700" lon="-15.6353370">
        <ele>1043.5230</ele>
        <time>2009-01-05T11:43:01Z</time>
      </trkpt>
      <trkpt lat="27.93964400" lon="-15.6352750">
        <ele>1043.7750</ele>
        <time>2009-01-05T11:43:02Z</time>
      </trkpt>
      <trkpt lat="27.93964900" lon="-15.6352130">
        <ele>1043.8500</ele>
        <time>2009-01-05T11:43:03Z</time>
      </trkpt>
      <trkpt lat="27.93966500" lon="-15.6351550">
        <ele>1043.8900</ele>
        <time>2009-01-05T11:43:04Z</time>
      </trkpt>
      <trkpt lat="27.93969200" lon="-15.6351030">
        <ele>1044.1840</ele>
        <time>2009-01-05T11:43:05Z</time>
      </trkpt>
      <trkpt lat="27.93972700" lon="-15.6350570">
        <ele>1044.5460</ele>
        <time>2009-01-05T11:43:06Z</time>
      </trkpt>
      <trkpt lat="27.93976700" lon="-15.6350170">
        <ele>1044.4060</ele>
        <time>2009-01-05T11:43:07Z</time>
      </trkpt>
      <trkpt lat="27.93980800" lon="-15.6349820">
        <ele>1044.3320</ele>
        <time>2009-01-05T11:43:08Z</time>
      </trkpt>
      <trkpt lat="27.93985100" lon="-15.6349510">
        <ele>1044.3540</ele>
        <time>2009-01-05T11:43:09Z</time>
      </trkpt>
      <trkpt lat="27.93989500" lon="-15.6349210">
        <ele>1044.8660</ele>
        <time>2009-01-05T11:43:10Z</time>
      </trkpt>
      <trkpt lat="27.93993700" lon="-15.6348920">
        <ele>1044.6770</ele>
        <time>2009-01-05T11:43:11Z</time>
      </trkpt>
      <trkpt lat="27.93998100" lon="-15.6348640">
        <ele>1044.9680</ele>
        <time>2009-01-05T11:43:12Z</time>
      </trkpt>
      <trkpt lat="27.94002500" lon="-15.6348360">
        <ele>1045.2250</ele>
        <time>2009-01-05T11:43:13Z</time>
      </trkpt>
      <trkpt lat="27.94006800" lon="-15.6348070">
        <ele>1045.1970</ele>
        <time>2009-01-05T11:43:14Z</time>
      </trkpt>
      <trkpt lat="27.94011100" lon="-15.6347790">
        <ele>1045.4480</ele>
        <time>2009-01-05T11:43:15Z</time>
      </trkpt>
      <trkpt lat="27.94015300" lon="-15.6347500">
        <ele>1045.3960</ele>
        <time>2009-01-05T11:43:16Z</time>
      </trkpt>
      <trkpt lat="27.94019400" lon="-15.6347220">
        <ele>1045.8060</ele>
        <time>2009-01-05T11:43:17Z</time>
      </trkpt>
      <trkpt lat="27.94023400" lon="-15.6346950">
        <ele>1046.2030</ele>
        <time>2009-01-05T11:43:18Z</time>
      </trkpt>
      <trkpt lat="27.94027200" lon="-15.6346700">
        <ele>1046.3220</ele>
        <time>2009-01-05T11:43:19Z</time>
      </trkpt>
      <trkpt lat="27.94031000" lon="-15.6346460">
        <ele>1046.4760</ele>
        <time>2009-01-05T11:43:20Z</time>
      </trkpt>
      <trkpt lat="27.94034400" lon="-15.6346240">
        <ele>1046.8940</ele>
        <time>2009-01-05T11:43:21Z</time>
      </trkpt>
      <trkpt lat="27.94037700" lon="-15.6346030">
        <ele>1047.3120</ele>
        <time>2009-01-05T11:43:22Z</time>
      </trkpt>
      <trkpt lat="27.94041200" lon="-15.6345850">
        <ele>1046.9640</ele>
        <time>2009-01-05T11:43:23Z</time>
      </trkpt>
      <trkpt lat="27.94044700" lon="-15.6345700">
        <ele>1046.9190</ele>
        <time>2009-01-05T11:43:24Z</time>
      </trkpt>
      <trkpt lat="27.94048600" lon="-15.6345550">
        <ele>1046.9460</ele>
        <time>2009-01-05T11:43:25Z</time>
      </trkpt>
      <trkpt lat="27.94052500" lon="-15.6345390">
        <ele>1047.3040</ele>
        <time>2009-01-05T11:43:26Z</time>
      </trkpt>
      <trkpt lat="27.94056100" lon="-15.6345290">
        <ele>1047.4900</ele>
        <time>2009-01-05T11:43:27Z</time>
      </trkpt>
      <trkpt lat="27.94060000" lon="-15.6345250">
        <ele>1047.9190</ele>
        <time>2009-01-05T11:43:28Z</time>
      </trkpt>
      <trkpt lat="27.94063900" lon="-15.6345200">
        <ele>1048.0860</ele>
        <time>2009-01-05T11:43:29Z</time>
      </trkpt>
      <trkpt lat="27.94067900" lon="-15.6345150">
        <ele>1048.4170</ele>
        <time>2009-01-05T11:43:30Z</time>
      </trkpt>
      <trkpt lat="27.94071800" lon="-15.6345100">
        <ele>1048.5870</ele>
        <time>2009-01-05T11:43:31Z</time>
      </trkpt>
      <trkpt lat="27.94075600" lon="-15.6345060">
        <ele>1048.9840</ele>
        <time>2009-01-05T11:43:32Z</time>
      </trkpt>
      <trkpt lat="27.94079400" lon="-15.6344990">
        <ele>1049.0400</ele>
        <time>2009-01-05T11:43:33Z</time>
      </trkpt>
      <trkpt lat="27.94083200" lon="-15.6344920">
        <ele>1049.3340</ele>
        <time>2009-01-05T11:43:34Z</time>
      </trkpt>
      <trkpt lat="27.94087000" lon="-15.6344910">
        <ele>1049.7190</ele>
        <time>2009-01-05T11:43:35Z</time>
      </trkpt>
      <trkpt lat="27.94090500" lon="-15.6344950">
        <ele>1049.9630</ele>
        <time>2009-01-05T11:43:36Z</time>
      </trkpt>
      <trkpt lat="27.94094100" lon="-15.6345000">
        <ele>1050.1050</ele>
        <time>2009-01-05T11:43:37Z</time>
      </trkpt>
      <trkpt lat="27.94097500" lon="-15.6345080">
        <ele>1050.6820</ele>
        <time>2009-01-05T11:43:38Z</time>
      </trkpt>
      <trkpt lat="27.94100700" lon="-15.6345190">
        <ele>1050.7580</ele>
        <time>2009-01-05T11:43:39Z</time>
      </trkpt>
      <trkpt lat="27.94103800" lon="-15.6345320">
        <ele>1050.6930</ele>
        <time>2009-01-05T11:43:40Z</time>
      </trkpt>
      <trkpt lat="27.94106800" lon="-15.6345490">
        <ele>1051.0810</ele>
        <time>2009-01-05T11:43:41Z</time>
      </trkpt>
      <trkpt lat="27.94109800" lon="-15.6345690">
        <ele>1051.5180</ele>
        <time>2009-01-05T11:43:42Z</time>
      </trkpt>
      <trkpt lat="27.94112600" lon="-15.6345880">
        <ele>1051.6410</ele>
        <time>2009-01-05T11:43:43Z</time>
      </trkpt>
      <trkpt lat="27.94115500" lon="-15.6346070">
        <ele>1051.7370</ele>
        <time>2009-01-05T11:43:44Z</time>
      </trkpt>
      <trkpt lat="27.94118500" lon="-15.6346250">
        <ele>1052.0240</ele>
        <time>2009-01-05T11:43:45Z</time>
      </trkpt>
      <trkpt lat="27.94121500" lon="-15.6346440">
        <ele>1052.2250</ele>
        <time>2009-01-05T11:43:46Z</time>
      </trkpt>
      <trkpt lat="27.94124500" lon="-15.6346640">
        <ele>1052.3190</ele>
        <time>2009-01-05T11:43:47Z</time>
      </trkpt>
      <trkpt lat="27.94127700" lon="-15.6346860">
        <ele>1052.7580</ele>
        <time>2009-01-05T11:43:48Z</time>
      </trkpt>
      <trkpt lat="27.94130800" lon="-15.6347090">
        <ele>1052.8750</ele>
        <time>2009-01-05T11:43:49Z</time>
      </trkpt>
      <trkpt lat="27.94134000" lon="-15.6347320">
        <ele>1052.8990</ele>
        <time>2009-01-05T11:43:50Z</time>
      </trkpt>
      <trkpt lat="27.94136800" lon="-15.6347550">
        <ele>1053.1950</ele>
        <time>2009-01-05T11:43:51Z</time>
      </trkpt>
      <trkpt lat="27.94140100" lon="-15.6347780">
        <ele>1053.6790</ele>
        <time>2009-01-05T11:43:52Z</time>
      </trkpt>
      <trkpt lat="27.94143200" lon="-15.6348000">
        <ele>1053.9860</ele>
        <time>2009-01-05T11:43:53Z</time>
      </trkpt>
      <trkpt lat="27.94146800" lon="-15.6348220">
        <ele>1054.0420</ele>
        <time>2009-01-05T11:43:54Z</time>
      </trkpt>
      <trkpt lat="27.94150200" lon="-15.6348430">
        <ele>1054.3720</ele>
        <time>2009-01-05T11:43:55Z</time>
      </trkpt>
      <trkpt lat="27.94153600" lon="-15.6348640">
        <ele>1054.5860</ele>
        <time>2009-01-05T11:43:56Z</time>
      </trkpt>
      <trkpt lat="27.94157000" lon="-15.6348860">
        <ele>1054.7390</ele>
        <time>2009-01-05T11:43:57Z</time>
      </trkpt>
      <trkpt lat="27.94159900" lon="-15.6349090">
        <ele>1054.5070</ele>
        <time>2009-01-05T11:43:58Z</time>
      </trkpt>
      <trkpt lat="27.94163200" lon="-15.6349310">
        <ele>1054.8270</ele>
        <time>2009-01-05T11:43:59Z</time>
      </trkpt>
      <trkpt lat="27.94166600" lon="-15.6349520">
        <ele>1054.8770</ele>
        <time>2009-01-05T11:44:00Z</time>
      </trkpt>
      <trkpt lat="27.94170100" lon="-15.6349710">
        <ele>1055.1500</ele>
        <time>2009-01-05T11:44:01Z</time>
      </trkpt>
      <trkpt lat="27.94173100" lon="-15.6349900">
        <ele>1055.3700</ele>
        <time>2009-01-05T11:44:02Z</time>
      </trkpt>
      <trkpt lat="27.94175800" lon="-15.6350100">
        <ele>1055.4980</ele>
        <time>2009-01-05T11:44:03Z</time>
      </trkpt>
      <trkpt lat="27.94178600" lon="-15.6350280">
        <ele>1055.9220</ele>
        <time>2009-01-05T11:44:04Z</time>
      </trkpt>
      <trkpt lat="27.94181800" lon="-15.6350470">
        <ele>1056.5780</ele>
        <time>2009-01-05T11:44:05Z</time>
      </trkpt>
      <trkpt lat="27.94184200" lon="-15.6350680">
        <ele>1056.5100</ele>
        <time>2009-01-05T11:44:06Z</time>
      </trkpt>
      <trkpt lat="27.94186200" lon="-15.6350920">
        <ele>1056.7200</ele>
        <time>2009-01-05T11:44:07Z</time>
      </trkpt>
      <trkpt lat="27.94188300" lon="-15.6351160">
        <ele>1056.5600</ele>
        <time>2009-01-05T11:44:08Z</time>
      </trkpt>
      <trkpt lat="27.94191000" lon="-15.6351390">
        <ele>1057.3530</ele>
        <time>2009-01-05T11:44:09Z</time>
      </trkpt>
      <trkpt lat="27.94193700" lon="-15.6351620">
        <ele>1057.5470</ele>
        <time>2009-01-05T11:44:10Z</time>
      </trkpt>
      <trkpt lat="27.94196400" lon="-15.6351840">
        <ele>1057.4290</ele>
        <time>2009-01-05T11:44:11Z</time>
      </trkpt>
      <trkpt lat="27.94199300" lon="-15.6352050">
        <ele>1057.6600</ele>
        <time>2009-01-05T11:44:12Z</time>
      </trkpt>
      <trkpt lat="27.94201900" lon="-15.6352250">
        <ele>1057.8830</ele>
        <time>2009-01-05T11:44:13Z</time>
      </trkpt>
      <trkpt lat="27.94204400" lon="-15.6352440">
        <ele>1058.4840</ele>
        <time>2009-01-05T11:44:14Z</time>
      </trkpt>
      <trkpt lat="27.94206700" lon="-15.6352620">
        <ele>1058.4480</ele>
        <time>2009-01-05T11:44:15Z</time>
      </trkpt>
      <trkpt lat="27.94208900" lon="-15.6352790">
        <ele>1058.7480</ele>
        <time>2009-01-05T11:44:16Z</time>
      </trkpt>
      <trkpt lat="27.94211600" lon="-15.6352930">
        <ele>1059.3330</ele>
        <time>2009-01-05T11:44:17Z</time>
      </trkpt>
      <trkpt lat="27.94214300" lon="-15.6353060">
        <ele>1059.3660</ele>
        <time>2009-01-05T11:44:18Z</time>
      </trkpt>
      <trkpt lat="27.94217100" lon="-15.6353180">
        <ele>1059.4170</ele>
        <time>2009-01-05T11:44:19Z</time>
      </trkpt>
      <trkpt lat="27.94219400" lon="-15.6353290">
        <ele>1059.5710</ele>
        <time>2009-01-05T11:44:20Z</time>
      </trkpt>
      <trkpt lat="27.94221700" lon="-15.6353390">
        <ele>1059.7620</ele>
        <time>2009-01-05T11:44:21Z</time>
      </trkpt>
      <trkpt lat="27.94223900" lon="-15.6353470">
        <ele>1060.1280</ele>
        <time>2009-01-05T11:44:22Z</time>
      </trkpt>
      <trkpt lat="27.94226500" lon="-15.6353500">
        <ele>1060.1980</ele>
        <time>2009-01-05T11:44:23Z</time>
      </trkpt>
      <trkpt lat="27.94229300" lon="-15.6353510">
        <ele>1060.7770</ele>
        <time>2009-01-05T11:44:24Z</time>
      </trkpt>
      <trkpt lat="27.94232400" lon="-15.6353500">
        <ele>1060.8840</ele>
        <time>2009-01-05T11:44:25Z</time>
      </trkpt>
      <trkpt lat="27.94235700" lon="-15.6353470">
        <ele>1061.2600</ele>
        <time>2009-01-05T11:44:26Z</time>
      </trkpt>
      <trkpt lat="27.94238600" lon="-15.6353430">
        <ele>1061.4520</ele>
        <time>2009-01-05T11:44:27Z</time>
      </trkpt>
      <trkpt lat="27.94241400" lon="-15.6353390">
        <ele>1061.1890</ele>
        <time>2009-01-05T11:44:28Z</time>
      </trkpt>
      <trkpt lat="27.94244400" lon="-15.6353350">
        <ele>1061.6120</ele>
        <time>2009-01-05T11:44:29Z</time>
      </trkpt>
      <trkpt lat="27.94247400" lon="-15.6353290">
        <ele>1062.0360</ele>
        <time>2009-01-05T11:44:30Z</time>
      </trkpt>
      <trkpt lat="27.94250500" lon="-15.6353220">
        <ele>1062.3620</ele>
        <time>2009-01-05T11:44:31Z</time>
      </trkpt>
      <trkpt lat="27.94253400" lon="-15.6353160">
        <ele>1062.5740</ele>
        <time>2009-01-05T11:44:32Z</time>
      </trkpt>
      <trkpt lat="27.94256200" lon="-15.6353110">
        <ele>1062.6330</ele>
        <time>2009-01-05T11:44:33Z</time>
      </trkpt>
      <trkpt lat="27.94259000" lon="-15.6353050">
        <ele>1062.9660</ele>
        <time>2009-01-05T11:44:34Z</time>
      </trkpt>
      <trkpt lat="27.94262000" lon="-15.6352990">
        <ele>1063.1040</ele>
        <time>2009-01-05T11:44:35Z</time>
      </trkpt>
      <trkpt lat="27.94264900" lon="-15.6352910">
        <ele>1063.1780</ele>
        <time>2009-01-05T11:44:36Z</time>
      </trkpt>
      <trkpt lat="27.94268000" lon="-15.6352850">
        <ele>1063.6570</ele>
        <time>2009-01-05T11:44:37Z</time>
      </trkpt>
      <trkpt lat="27.94271200" lon="-15.6352800">
        <ele>1063.7890</ele>
        <time>2009-01-05T11:44:38Z</time>
      </trkpt>
      <trkpt lat="27.94274400" lon="-15.6352770">
        <ele>1064.1230</ele>
        <time>2009-01-05T11:44:39Z</time>
      </trkpt>
      <trkpt lat="27.94277500" lon="-15.6352720">
        <ele>1064.3660</ele>
        <time>2009-01-05T11:44:40Z</time>
      </trkpt>
      <trkpt lat="27.94280500" lon="-15.6352670">
        <ele>1064.6460</ele>
        <time>2009-01-05T11:44:41Z</time>
      </trkpt>
      <trkpt lat="27.94283400" lon="-15.6352630">
        <ele>1065.2590</ele>
        <time>2009-01-05T11:44:42Z</time>
      </trkpt>
      <trkpt lat="27.94286400" lon="-15.6352580">
        <ele>1065.5000</ele>
        <time>2009-01-05T11:44:43Z</time>
      </trkpt>
      <trkpt lat="27.94289300" lon="-15.6352510">
        <ele>1065.8780</ele>
        <time>2009-01-05T11:44:44Z</time>
      </trkpt>
      <trkpt lat="27.94292100" lon="-15.6352460">
        <ele>1065.5630</ele>
        <time>2009-01-05T11:44:45Z</time>
      </trkpt>
      <trkpt lat="27.94295000" lon="-15.6352430">
        <ele>1066.0250</ele>
        <time>2009-01-05T11:44:46Z</time>
      </trkpt>
      <trkpt lat="27.94297900" lon="-15.6352420">
        <ele>1066.0670</ele>
        <time>2009-01-05T11:44:47Z</time>
      </trkpt>
      <trkpt lat="27.94300800" lon="-15.6352420">
        <ele>1066.5610</ele>
        <time>2009-01-05T11:44:48Z</time>
      </trkpt>
      <trkpt lat="27.94303800" lon="-15.6352440">
        <ele>1066.6030</ele>
        <time>2009-01-05T11:44:49Z</time>
      </trkpt>
      <trkpt lat="27.94306800" lon="-15.6352470">
        <ele>1067.1200</ele>
        <time>2009-01-05T11:44:50Z</time>
      </trkpt>
      <trkpt lat="27.94309900" lon="-15.6352510">
        <ele>1066.8610</ele>
        <time>2009-01-05T11:44:51Z</time>
      </trkpt>
      <trkpt lat="27.94313100" lon="-15.6352590">
        <ele>1066.8760</ele>
        <time>2009-01-05T11:44:52Z</time>
      </trkpt>
      <trkpt lat="27.94316100" lon="-15.6352720">
        <ele>1066.7640</ele>
        <time>2009-01-05T11:44:53Z</time>
      </trkpt>
      <trkpt lat="27.94319100" lon="-15.6352890">
        <ele>1066.5940</ele>
        <time>2009-01-05T11:44:54Z</time>
      </trkpt>
      <trkpt lat="27.94321700" lon="-15.6353130">
        <ele>1067.0480</ele>
        <time>2009-01-05T11:44:55Z</time>
      </trkpt>
      <trkpt lat="27.94324500" lon="-15.6353390">
        <ele>1067.2190</ele>
        <time>2009-01-05T11:44:56Z</time>
      </trkpt>
      <trkpt lat="27.94327500" lon="-15.6353680">
        <ele>1067.3800</ele>
        <time>2009-01-05T11:44:57Z</time>
      </trkpt>
      <trkpt lat="27.94330800" lon="-15.6353960">
        <ele>1067.4470</ele>
        <time>2009-01-05T11:44:58Z</time>
      </trkpt>
      <trkpt lat="27.94334100" lon="-15.6354270">
        <ele>1067.4880</ele>
        <time>2009-01-05T11:44:59Z</time>
      </trkpt>
      <trkpt lat="27.94337200" lon="-15.6354600">
        <ele>1067.4530</ele>
        <time>2009-01-05T11:45:00Z</time>
      </trkpt>
      <trkpt lat="27.94340200" lon="-15.6354950">
        <ele>1068.0780</ele>
        <time>2009-01-05T11:45:01Z</time>
      </trkpt>
      <trkpt lat="27.94343200" lon="-15.6355300">
        <ele>1068.2410</ele>
        <time>2009-01-05T11:45:02Z</time>
      </trkpt>
      <trkpt lat="27.94346300" lon="-15.6355630">
        <ele>1069.2070</ele>
        <time>2009-01-05T11:45:03Z</time>
      </trkpt>
      <trkpt lat="27.94349600" lon="-15.6355920">
        <ele>1068.8520</ele>
        <time>2009-01-05T11:45:04Z</time>
      </trkpt>
      <trkpt lat="27.94352500" lon="-15.6356200">
        <ele>1069.1600</ele>
        <time>2009-01-05T11:45:05Z</time>
      </trkpt>
      <trkpt lat="27.94355200" lon="-15.6356480">
        <ele>1069.3810</ele>
        <time>2009-01-05T11:45:06Z</time>
      </trkpt>
      <trkpt lat="27.94358500" lon="-15.6356750">
        <ele>1069.4270</ele>
        <time>2009-01-05T11:45:07Z</time>
      </trkpt>
      <trkpt lat="27.94361500" lon="-15.6357020">
        <ele>1069.6610</ele>
        <time>2009-01-05T11:45:08Z</time>
      </trkpt>
      <trkpt lat="27.94385600" lon="-15.6357320">
        <ele>1071.0100</ele>
        <time>2009-01-05T11:45:14Z</time>
      </trkpt>
      <trkpt lat="27.94389600" lon="-15.6357250">
        <ele>1071.0100</ele>
        <time>2009-01-05T11:45:15Z</time>
      </trkpt>
      <trkpt lat="27.94393500" lon="-15.6357140">
        <ele>1071.7370</ele>
        <time>2009-01-05T11:45:16Z</time>
      </trkpt>
      <trkpt lat="27.94397400" lon="-15.6356990">
        <ele>1071.7370</ele>
        <time>2009-01-05T11:45:17Z</time>
      </trkpt>
      <trkpt lat="27.94401100" lon="-15.6356790">
        <ele>1071.8030</ele>
        <time>2009-01-05T11:45:18Z</time>
      </trkpt>
      <trkpt lat="27.94404600" lon="-15.6356520">
        <ele>1071.8500</ele>
        <time>2009-01-05T11:45:19Z</time>
      </trkpt>
      <trkpt lat="27.94407800" lon="-15.6356150">
        <ele>1072.0560</ele>
        <time>2009-01-05T11:45:20Z</time>
      </trkpt>
      <trkpt lat="27.94410300" lon="-15.6355710">
        <ele>1072.1050</ele>
        <time>2009-01-05T11:45:21Z</time>
      </trkpt>
      <trkpt lat="27.94412100" lon="-15.6355230">
        <ele>1072.3690</ele>
        <time>2009-01-05T11:45:22Z</time>
      </trkpt>
      <trkpt lat="27.94413400" lon="-15.6354740">
        <ele>1072.2750</ele>
        <time>2009-01-05T11:45:23Z</time>
      </trkpt>
      <trkpt lat="27.94414300" lon="-15.6354210">
        <ele>1072.6070</ele>
        <time>2009-01-05T11:45:24Z</time>
      </trkpt>
      <trkpt lat="27.94414700" lon="-15.6353670">
        <ele>1072.8110</ele>
        <time>2009-01-05T11:45:25Z</time>
      </trkpt>
      <trkpt lat="27.94414300" lon="-15.6353100">
        <ele>1073.0840</ele>
        <time>2009-01-05T11:45:26Z</time>
      </trkpt>
      <trkpt lat="27.94413300" lon="-15.6352520">
        <ele>1073.3120</ele>
        <time>2009-01-05T11:45:27Z</time>
      </trkpt>
      <trkpt lat="27.94411800" lon="-15.6351940">
        <ele>1073.6770</ele>
        <time>2009-01-05T11:45:28Z</time>
      </trkpt>
      <trkpt lat="27.94410100" lon="-15.6351380">
        <ele>1073.3020</ele>
        <time>2009-01-05T11:45:29Z</time>
      </trkpt>
      <trkpt lat="27.94408400" lon="-15.6350810">
        <ele>1073.0860</ele>
        <time>2009-01-05T11:45:30Z</time>
      </trkpt>
      <trkpt lat="27.94407000" lon="-15.6350240">
        <ele>1073.3700</ele>
        <time>2009-01-05T11:45:31Z</time>
      </trkpt>
      <trkpt lat="27.94406000" lon="-15.6349690">
        <ele>1073.4080</ele>
        <time>2009-01-05T11:45:32Z</time>
      </trkpt>
      <trkpt lat="27.94405600" lon="-15.6349120">
        <ele>1073.2220</ele>
        <time>2009-01-05T11:45:33Z</time>
      </trkpt>
      <trkpt lat="27.94405800" lon="-15.6348540">
        <ele>1073.1940</ele>
        <time>2009-01-05T11:45:34Z</time>
      </trkpt>
      <trkpt lat="27.94406600" lon="-15.6347970">
        <ele>1073.2310</ele>
        <time>2009-01-05T11:45:35Z</time>
      </trkpt>
      <trkpt lat="27.94407900" lon="-15.6347400">
        <ele>1072.9790</ele>
        <time>2009-01-05T11:45:36Z</time>
      </trkpt>
      <trkpt lat="27.94409700" lon="-15.6346850">
        <ele>1073.0480</ele>
        <time>2009-01-05T11:45:37Z</time>
      </trkpt>
      <trkpt lat="27.94412000" lon="-15.6346320">
        <ele>1072.9230</ele>
        <time>2009-01-05T11:45:38Z</time>
      </trkpt>
      <trkpt lat="27.94414800" lon="-15.6345810">
        <ele>1073.2750</ele>
        <time>2009-01-05T11:45:39Z</time>
      </trkpt>
      <trkpt lat="27.94418000" lon="-15.6345330">
        <ele>1073.8140</ele>
        <time>2009-01-05T11:45:40Z</time>
      </trkpt>
      <trkpt lat="27.94421500" lon="-15.6344890">
        <ele>1073.7930</ele>
        <time>2009-01-05T11:45:41Z</time>
      </trkpt>
      <trkpt lat="27.94425200" lon="-15.6344490">
        <ele>1073.6450</ele>
        <time>2009-01-05T11:45:42Z</time>
      </trkpt>
      <trkpt lat="27.94429000" lon="-15.6344110">
        <ele>1073.4890</ele>
        <time>2009-01-05T11:45:43Z</time>
      </trkpt>
      <trkpt lat="27.94432900" lon="-15.6343740">
        <ele>1073.6480</ele>
        <time>2009-01-05T11:45:44Z</time>
      </trkpt>
      <trkpt lat="27.94436900" lon="-15.6343390">
        <ele>1073.6930</ele>
        <time>2009-01-05T11:45:45Z</time>
      </trkpt>
      <trkpt lat="27.94441200" lon="-15.6343050">
        <ele>1073.4530</ele>
        <time>2009-01-05T11:45:46Z</time>
      </trkpt>
      <trkpt lat="27.94445400" lon="-15.6342740">
        <ele>1073.1760</ele>
        <time>2009-01-05T11:45:47Z</time>
      </trkpt>
      <trkpt lat="27.94449700" lon="-15.6342480">
        <ele>1073.5010</ele>
        <time>2009-01-05T11:45:48Z</time>
      </trkpt>
      <trkpt lat="27.94454100" lon="-15.6342270">
        <ele>1073.5760</ele>
        <time>2009-01-05T11:45:49Z</time>
      </trkpt>
      <trkpt lat="27.94458600" lon="-15.6342120">
        <ele>1073.3900</ele>
        <time>2009-01-05T11:45:50Z</time>
      </trkpt>
      <trkpt lat="27.94463300" lon="-15.6342010">
        <ele>1073.8840</ele>
        <time>2009-01-05T11:45:51Z</time>
      </trkpt>
      <trkpt lat="27.94468000" lon="-15.6341970">
        <ele>1073.8820</ele>
        <time>2009-01-05T11:45:52Z</time>
      </trkpt>
      <trkpt lat="27.94472600" lon="-15.6342000">
        <ele>1073.8910</ele>
        <time>2009-01-05T11:45:53Z</time>
      </trkpt>
      <trkpt lat="27.94477200" lon="-15.6342080">
        <ele>1074.3540</ele>
        <time>2009-01-05T11:45:54Z</time>
      </trkpt>
      <trkpt lat="27.94481800" lon="-15.6342230">
        <ele>1074.3890</ele>
        <time>2009-01-05T11:45:55Z</time>
      </trkpt>
      <trkpt lat="27.94486200" lon="-15.6342450">
        <ele>1074.3630</ele>
        <time>2009-01-05T11:45:56Z</time>
      </trkpt>
      <trkpt lat="27.94490500" lon="-15.6342710">
        <ele>1074.3500</ele>
        <time>2009-01-05T11:45:57Z</time>
      </trkpt>
      <trkpt lat="27.94495000" lon="-15.6342990">
        <ele>1074.2740</ele>
        <time>2009-01-05T11:45:58Z</time>
      </trkpt>
      <trkpt lat="27.94499500" lon="-15.6343290">
        <ele>1074.6580</ele>
        <time>2009-01-05T11:45:59Z</time>
      </trkpt>
      <trkpt lat="27.94503800" lon="-15.6343600">
        <ele>1074.8170</ele>
        <time>2009-01-05T11:46:00Z</time>
      </trkpt>
      <trkpt lat="27.94508300" lon="-15.6343900">
        <ele>1075.0580</ele>
        <time>2009-01-05T11:46:01Z</time>
      </trkpt>
      <trkpt lat="27.94512400" lon="-15.6344190">
        <ele>1075.2140</ele>
        <time>2009-01-05T11:46:02Z</time>
      </trkpt>
      <trkpt lat="27.94516300" lon="-15.6344480">
        <ele>1074.8940</ele>
        <time>2009-01-05T11:46:03Z</time>
      </trkpt>
      <trkpt lat="27.94520200" lon="-15.6344750">
        <ele>1075.1900</ele>
        <time>2009-01-05T11:46:04Z</time>
      </trkpt>
      <trkpt lat="27.94523900" lon="-15.6345030">
        <ele>1075.3690</ele>
        <time>2009-01-05T11:46:05Z</time>
      </trkpt>
      <trkpt lat="27.94527500" lon="-15.6345290">
        <ele>1075.4640</ele>
        <time>2009-01-05T11:46:06Z</time>
      </trkpt>
      <trkpt lat="27.94531200" lon="-15.6345540">
        <ele>1075.4630</ele>
        <time>2009-01-05T11:46:07Z</time>
      </trkpt>
      <trkpt lat="27.94534400" lon="-15.6345780">
        <ele>1075.4470</ele>
        <time>2009-01-05T11:46:08Z</time>
      </trkpt>
      <trkpt lat="27.94537200" lon="-15.6345980">
        <ele>1075.2630</ele>
        <time>2009-01-05T11:46:09Z</time>
      </trkpt>
      <trkpt lat="27.94540000" lon="-15.6346110">
        <ele>1075.1990</ele>
        <time>2009-01-05T11:46:10Z</time>
      </trkpt>
      <trkpt lat="27.94542500" lon="-15.6346200">
        <ele>1074.8030</ele>
        <time>2009-01-05T11:46:11Z</time>
      </trkpt>
      <trkpt lat="27.94544100" lon="-15.6346260">
        <ele>1074.6850</ele>
        <time>2009-01-05T11:46:12Z</time>
      </trkpt>
      <trkpt lat="27.94544800" lon="-15.6346290">
        <ele>1074.7080</ele>
        <time>2009-01-05T11:46:13Z</time>
      </trkpt>
      <trkpt lat="27.94545200" lon="-15.6346320">
        <ele>1074.7720</ele>
        <time>2009-01-05T11:46:14Z</time>
      </trkpt>
      <trkpt lat="27.94545400" lon="-15.6346350">
        <ele>1074.6350</ele>
        <time>2009-01-05T11:46:15Z</time>
      </trkpt>
      <trkpt lat="27.94545400" lon="-15.6346340">
        <ele>1074.5960</ele>
        <time>2009-01-05T11:46:16Z</time>
      </trkpt>
    </trkseg>
    <trkseg>
      <trkpt lat="27.94542400" lon="-15.6346940">
        <ele>1074.7480</ele>
        <time>2009-01-05T11:46:47Z</time>
      </trkpt>
      <trkpt lat="27.94542200" lon="-15.6346960">
        <ele>1074.9250</ele>
        <time>2009-01-05T11:46:48Z</time>
      </trkpt>
    </trkseg>
    <trkseg>
      <trkpt lat="27.94543200" lon="-15.6347260">
        <ele>1075.0230</ele>
        <time>2009-01-05T11:46:54Z</time>
      </trkpt>
      <trkpt lat="27.94544400" lon="-15.6347410">
        <ele>1075.1070</ele>
        <time>2009-01-05T11:46:55Z</time>
      </trkpt>
      <trkpt lat="27.94546100" lon="-15.6347570">
        <ele>1075.0240</ele>
        <time>2009-01-05T11:46:56Z</time>
      </trkpt>
      <trkpt lat="27.94548500" lon="-15.6347740">
        <ele>1075.2960</ele>
        <time>2009-01-05T11:46:57Z</time>
      </trkpt>
      <trkpt lat="27.94551200" lon="-15.6347890">
        <ele>1075.5780</ele>
        <time>2009-01-05T11:46:58Z</time>
      </trkpt>
      <trkpt lat="27.94553900" lon="-15.6348060">
        <ele>1076.0500</ele>
        <time>2009-01-05T11:46:59Z</time>
      </trkpt>
      <trkpt lat="27.94557100" lon="-15.6348240">
        <ele>1075.9910</ele>
        <time>2009-01-05T11:47:00Z</time>
      </trkpt>
      <trkpt lat="27.94560200" lon="-15.6348450">
        <ele>1076.0350</ele>
        <time>2009-01-05T11:47:01Z</time>
      </trkpt>
      <trkpt lat="27.94563400" lon="-15.6348690">
        <ele>1076.3420</ele>
        <time>2009-01-05T11:47:02Z</time>
      </trkpt>
      <trkpt lat="27.94566800" lon="-15.6348910">
        <ele>1076.4690</ele>
        <time>2009-01-05T11:47:03Z</time>
      </trkpt>
      <trkpt lat="27.94570100" lon="-15.6349130">
        <ele>1076.6390</ele>
        <time>2009-01-05T11:47:04Z</time>
      </trkpt>
      <trkpt lat="27.94573400" lon="-15.6349340">
        <ele>1076.9370</ele>
        <time>2009-01-05T11:47:05Z</time>
      </trkpt>
      <trkpt lat="27.94576600" lon="-15.6349540">
        <ele>1076.9930</ele>
        <time>2009-01-05T11:47:06Z</time>
      </trkpt>
      <trkpt lat="27.94579500" lon="-15.6349720">
        <ele>1077.4970</ele>
        <time>2009-01-05T11:47:07Z</time>
      </trkpt>
      <trkpt lat="27.94582700" lon="-15.6349910">
        <ele>1077.1920</ele>
        <time>2009-01-05T11:47:08Z</time>
      </trkpt>
      <trkpt lat="27.94585800" lon="-15.6350120">
        <ele>1077.7910</ele>
        <time>2009-01-05T11:47:09Z</time>
      </trkpt>
      <trkpt lat="27.94588800" lon="-15.6350330">
        <ele>1077.7470</ele>
        <time>2009-01-05T11:47:10Z</time>
      </trkpt>
      <trkpt lat="27.94591700" lon="-15.6350570">
        <ele>1077.9380</ele>
        <time>2009-01-05T11:47:11Z</time>
      </trkpt>
      <trkpt lat="27.94594500" lon="-15.6350830">
        <ele>1078.1850</ele>
        <time>2009-01-05T11:47:12Z</time>
      </trkpt>
      <trkpt lat="27.94597500" lon="-15.6351070">
        <ele>1078.2260</ele>
        <time>2009-01-05T11:47:13Z</time>
      </trkpt>
      <trkpt lat="27.94601000" lon="-15.6351260">
        <ele>1078.4270</ele>
        <time>2009-01-05T11:47:14Z</time>
      </trkpt>
      <trkpt lat="27.94604900" lon="-15.6351440">
        <ele>1078.7260</ele>
        <time>2009-01-05T11:47:15Z</time>
      </trkpt>
      <trkpt lat="27.94608600" lon="-15.6351630">
        <ele>1079.1570</ele>
        <time>2009-01-05T11:47:16Z</time>
      </trkpt>
      <trkpt lat="27.94612400" lon="-15.6351810">
        <ele>1079.5640</ele>
        <time>2009-01-05T11:47:17Z</time>
      </trkpt>
      <trkpt lat="27.94616700" lon="-15.6351970">
        <ele>1079.6060</ele>
        <time>2009-01-05T11:47:18Z</time>
      </trkpt>
      <trkpt lat="27.94621100" lon="-15.6352130">
        <ele>1079.5350</ele>
        <time>2009-01-05T11:47:19Z</time>
      </trkpt>
      <trkpt lat="27.94623700" lon="-15.6352340">
        <ele>1079.7430</ele>
        <time>2009-01-05T11:47:20Z</time>
      </trkpt>
      <trkpt lat="27.94626400" lon="-15.6352570">
        <ele>1080.5490</ele>
        <time>2009-01-05T11:47:21Z</time>
      </trkpt>
      <trkpt lat="27.94629200" lon="-15.6352790">
        <ele>1080.0490</ele>
        <time>2009-01-05T11:47:22Z</time>
      </trkpt>
      <trkpt lat="27.94632300" lon="-15.6353000">
        <ele>1079.7290</ele>
        <time>2009-01-05T11:47:23Z</time>
      </trkpt>
      <trkpt lat="27.94635700" lon="-15.6353200">
        <ele>1079.9950</ele>
        <time>2009-01-05T11:47:24Z</time>
      </trkpt>
      <trkpt lat="27.94638800" lon="-15.6353420">
        <ele>1080.0000</ele>
        <time>2009-01-05T11:47:25Z</time>
      </trkpt>
      <trkpt lat="27.94641500" lon="-15.6353650">
        <ele>1080.1530</ele>
        <time>2009-01-05T11:47:26Z</time>
      </trkpt>
      <trkpt lat="27.94644500" lon="-15.6353870">
        <ele>1080.1630</ele>
        <time>2009-01-05T11:47:27Z</time>
      </trkpt>
      <trkpt lat="27.94647300" lon="-15.6354080">
        <ele>1080.6780</ele>
        <time>2009-01-05T11:47:28Z</time>
      </trkpt>
      <trkpt lat="27.94650000" lon="-15.6354300">
        <ele>1080.4210</ele>
        <time>2009-01-05T11:47:29Z</time>
      </trkpt>
      <trkpt lat="27.94652400" lon="-15.6354530">
        <ele>1080.4550</ele>
        <time>2009-01-05T11:47:30Z</time>
      </trkpt>
      <trkpt lat="27.94654800" lon="-15.6354760">
        <ele>1080.6500</ele>
        <time>2009-01-05T11:47:31Z</time>
      </trkpt>
      <trkpt lat="27.94657600" lon="-15.6354980">
        <ele>1081.2140</ele>
        <time>2009-01-05T11:47:32Z</time>
      </trkpt>
      <trkpt lat="27.94660500" lon="-15.6355170">
        <ele>1081.4300</ele>
        <time>2009-01-05T11:47:33Z</time>
      </trkpt>
      <trkpt lat="27.94663800" lon="-15.6355340">
        <ele>1081.8040</ele>
        <time>2009-01-05T11:47:34Z</time>
      </trkpt>
      <trkpt lat="27.94667000" lon="-15.6355510">
        <ele>1082.0460</ele>
        <time>2009-01-05T11:47:35Z</time>
      </trkpt>
      <trkpt lat="27.94670400" lon="-15.6355660">
        <ele>1082.0450</ele>
        <time>2009-01-05T11:47:36Z</time>
      </trkpt>
      <trkpt lat="27.94674500" lon="-15.6355780">
        <ele>1082.2440</ele>
        <time>2009-01-05T11:47:37Z</time>
      </trkpt>
      <trkpt lat="27.94678700" lon="-15.6355850">
        <ele>1082.6970</ele>
        <time>2009-01-05T11:47:38Z</time>
      </trkpt>
      <trkpt lat="27.94682500" lon="-15.6355870">
        <ele>1082.8270</ele>
        <time>2009-01-05T11:47:39Z</time>
      </trkpt>
      <trkpt lat="27.94686400" lon="-15.6355830">
        <ele>1082.7880</ele>
        <time>2009-01-05T11:47:40Z</time>
      </trkpt>
      <trkpt lat="27.94690100" lon="-15.6355760">
        <ele>1083.1000</ele>
        <time>2009-01-05T11:47:41Z</time>
      </trkpt>
      <trkpt lat="27.94693900" lon="-15.6355630">
        <ele>1083.3520</ele>
        <time>2009-01-05T11:47:42Z</time>
      </trkpt>
      <trkpt lat="27.94697200" lon="-15.6355430">
        <ele>1083.6640</ele>
        <time>2009-01-05T11:47:43Z</time>
      </trkpt>
      <trkpt lat="27.94700000" lon="-15.6355170">
        <ele>1083.6580</ele>
        <time>2009-01-05T11:47:44Z</time>
      </trkpt>
      <trkpt lat="27.94702300" lon="-15.6354850">
        <ele>1084.2710</ele>
        <time>2009-01-05T11:47:45Z</time>
      </trkpt>
      <trkpt lat="27.94704000" lon="-15.6354500">
        <ele>1084.4320</ele>
        <time>2009-01-05T11:47:46Z</time>
      </trkpt>
      <trkpt lat="27.94705100" lon="-15.6354140">
        <ele>1084.9310</ele>
        <time>2009-01-05T11:47:47Z</time>
      </trkpt>
      <trkpt lat="27.94705700" lon="-15.6353760">
        <ele>1085.0410</ele>
        <time>2009-01-05T11:47:48Z</time>
      </trkpt>
      <trkpt lat="27.94705900" lon="-15.6353380">
        <ele>1085.3140</ele>
        <time>2009-01-05T11:47:49Z</time>
      </trkpt>
      <trkpt lat="27.94706100" lon="-15.6352990">
        <ele>1085.3710</ele>
        <time>2009-01-05T11:47:50Z</time>
      </trkpt>
      <trkpt lat="27.94706500" lon="-15.6352600">
        <ele>1085.8320</ele>
        <time>2009-01-05T11:47:51Z</time>
      </trkpt>
      <trkpt lat="27.94706800" lon="-15.6352220">
        <ele>1086.1720</ele>
        <time>2009-01-05T11:47:52Z</time>
      </trkpt>
      <trkpt lat="27.94707100" lon="-15.6351850">
        <ele>1086.6360</ele>
        <time>2009-01-05T11:47:53Z</time>
      </trkpt>
      <trkpt lat="27.94707500" lon="-15.6351490">
        <ele>1087.1650</ele>
        <time>2009-01-05T11:47:54Z</time>
      </trkpt>
      <trkpt lat="27.94708300" lon="-15.6351130">
        <ele>1086.9470</ele>
        <time>2009-01-05T11:47:55Z</time>
      </trkpt>
      <trkpt lat="27.94708800" lon="-15.6350730">
        <ele>1087.0240</ele>
        <time>2009-01-05T11:47:56Z</time>
      </trkpt>
      <trkpt lat="27.94709200" lon="-15.6350330">
        <ele>1087.3790</ele>
        <time>2009-01-05T11:47:57Z</time>
      </trkpt>
      <trkpt lat="27.94709600" lon="-15.6349920">
        <ele>1087.4310</ele>
        <time>2009-01-05T11:47:58Z</time>
      </trkpt>
      <trkpt lat="27.94710000" lon="-15.6349520">
        <ele>1088.1080</ele>
        <time>2009-01-05T11:47:59Z</time>
      </trkpt>
      <trkpt lat="27.94710300" lon="-15.6349110">
        <ele>1088.2030</ele>
        <time>2009-01-05T11:48:00Z</time>
      </trkpt>
      <trkpt lat="27.94710400" lon="-15.6348720">
        <ele>1088.4100</ele>
        <time>2009-01-05T11:48:01Z</time>
      </trkpt>
      <trkpt lat="27.94710700" lon="-15.6348370">
        <ele>1088.5810</ele>
        <time>2009-01-05T11:48:02Z</time>
      </trkpt>
      <trkpt lat="27.94711300" lon="-15.6348050">
        <ele>1088.8180</ele>
        <time>2009-01-05T11:48:03Z</time>
      </trkpt>
      <trkpt lat="27.94712100" lon="-15.6347730">
        <ele>1088.9050</ele>
        <time>2009-01-05T11:48:04Z</time>
      </trkpt>
      <trkpt lat="27.94713100" lon="-15.6347400">
        <ele>1089.3380</ele>
        <time>2009-01-05T11:48:05Z</time>
      </trkpt>
      <trkpt lat="27.94714300" lon="-15.6347080">
        <ele>1089.2640</ele>
        <time>2009-01-05T11:48:06Z</time>
      </trkpt>
      <trkpt lat="27.94715700" lon="-15.6346770">
        <ele>1089.7160</ele>
        <time>2009-01-05T11:48:07Z</time>
      </trkpt>
      <trkpt lat="27.94717200" lon="-15.6346460">
        <ele>1089.9430</ele>
        <time>2009-01-05T11:48:08Z</time>
      </trkpt>
      <trkpt lat="27.94719000" lon="-15.6346170">
        <ele>1090.0410</ele>
        <time>2009-01-05T11:48:09Z</time>
      </trkpt>
      <trkpt lat="27.94721300" lon="-15.6345920">
        <ele>1090.0940</ele>
        <time>2009-01-05T11:48:10Z</time>
      </trkpt>
      <trkpt lat="27.94724000" lon="-15.6345730">
        <ele>1090.1500</ele>
        <time>2009-01-05T11:48:11Z</time>
      </trkpt>
      <trkpt lat="27.94727200" lon="-15.6345620">
        <ele>1090.4730</ele>
        <time>2009-01-05T11:48:12Z</time>
      </trkpt>
      <trkpt lat="27.94730600" lon="-15.6345550">
        <ele>1090.5260</ele>
        <time>2009-01-05T11:48:13Z</time>
      </trkpt>
      <trkpt lat="27.94734200" lon="-15.6345520">
        <ele>1090.5950</ele>
        <time>2009-01-05T11:48:14Z</time>
      </trkpt>
      <trkpt lat="27.94737800" lon="-15.6345520">
        <ele>1090.7120</ele>
        <time>2009-01-05T11:48:15Z</time>
      </trkpt>
      <trkpt lat="27.94741400" lon="-15.6345530">
        <ele>1090.7150</ele>
        <time>2009-01-05T11:48:16Z</time>
      </trkpt>
      <trkpt lat="27.94745100" lon="-15.6345540">
        <ele>1090.9430</ele>
        <time>2009-01-05T11:48:17Z</time>
      </trkpt>
      <trkpt lat="27.94748700" lon="-15.6345570">
        <ele>1091.1280</ele>
        <time>2009-01-05T11:48:18Z</time>
      </trkpt>
      <trkpt lat="27.94752300" lon="-15.6345610">
        <ele>1091.3510</ele>
        <time>2009-01-05T11:48:19Z</time>
      </trkpt>
      <trkpt lat="27.94755800" lon="-15.6345640">
        <ele>1091.6790</ele>
        <time>2009-01-05T11:48:20Z</time>
      </trkpt>
      <trkpt lat="27.94759300" lon="-15.6345660">
        <ele>1092.0810</ele>
        <time>2009-01-05T11:48:21Z</time>
      </trkpt>
      <trkpt lat="27.94762700" lon="-15.6345680">
        <ele>1091.9480</ele>
        <time>2009-01-05T11:48:22Z</time>
      </trkpt>
      <trkpt lat="27.94766000" lon="-15.6345700">
        <ele>1092.2000</ele>
        <time>2009-01-05T11:48:23Z</time>
      </trkpt>
      <trkpt lat="27.94769200" lon="-15.6345730">
        <ele>1092.2880</ele>
        <time>2009-01-05T11:48:24Z</time>
      </trkpt>
      <trkpt lat="27.94772400" lon="-15.6345790">
        <ele>1092.5880</ele>
        <time>2009-01-05T11:48:25Z</time>
      </trkpt>
      <trkpt lat="27.94775500" lon="-15.6345870">
        <ele>1092.4470</ele>
        <time>2009-01-05T11:48:26Z</time>
      </trkpt>
      <trkpt lat="27.94778500" lon="-15.6345960">
        <ele>1092.5630</ele>
        <time>2009-01-05T11:48:27Z</time>
      </trkpt>
      <trkpt lat="27.94781400" lon="-15.6346040">
        <ele>1093.0060</ele>
        <time>2009-01-05T11:48:28Z</time>
      </trkpt>
      <trkpt lat="27.94784100" lon="-15.6346120">
        <ele>1093.1770</ele>
        <time>2009-01-05T11:48:29Z</time>
      </trkpt>
      <trkpt lat="27.94786900" lon="-15.6346180">
        <ele>1093.5730</ele>
        <time>2009-01-05T11:48:30Z</time>
      </trkpt>
      <trkpt lat="27.94789800" lon="-15.6346220">
        <ele>1093.3920</ele>
        <time>2009-01-05T11:48:31Z</time>
      </trkpt>
      <trkpt lat="27.94792700" lon="-15.6346260">
        <ele>1094.0210</ele>
        <time>2009-01-05T11:48:32Z</time>
      </trkpt>
      <trkpt lat="27.94795900" lon="-15.6346280">
        <ele>1094.2950</ele>
        <time>2009-01-05T11:48:33Z</time>
      </trkpt>
      <trkpt lat="27.94799200" lon="-15.6346280">
        <ele>1094.4360</ele>
        <time>2009-01-05T11:48:34Z</time>
      </trkpt>
      <trkpt lat="27.94802600" lon="-15.6346290">
        <ele>1094.4160</ele>
        <time>2009-01-05T11:48:35Z</time>
      </trkpt>
      <trkpt lat="27.94806000" lon="-15.6346330">
        <ele>1094.7750</ele>
        <time>2009-01-05T11:48:36Z</time>
      </trkpt>
      <trkpt lat="27.94809400" lon="-15.6346370">
        <ele>1095.0450</ele>
        <time>2009-01-05T11:48:37Z</time>
      </trkpt>
      <trkpt lat="27.94812800" lon="-15.6346420">
        <ele>1095.0430</ele>
        <time>2009-01-05T11:48:38Z</time>
      </trkpt>
      <trkpt lat="27.94816100" lon="-15.6346470">
        <ele>1095.4350</ele>
        <time>2009-01-05T11:48:39Z</time>
      </trkpt>
      <trkpt lat="27.94819400" lon="-15.6346510">
        <ele>1095.7880</ele>
        <time>2009-01-05T11:48:40Z</time>
      </trkpt>
      <trkpt lat="27.94822700" lon="-15.6346550">
        <ele>1095.8600</ele>
        <time>2009-01-05T11:48:41Z</time>
      </trkpt>
      <trkpt lat="27.94825900" lon="-15.6346620">
        <ele>1096.2410</ele>
        <time>2009-01-05T11:48:42Z</time>
      </trkpt>
      <trkpt lat="27.94828900" lon="-15.6346700">
        <ele>1096.2570</ele>
        <time>2009-01-05T11:48:43Z</time>
      </trkpt>
      <trkpt lat="27.94832000" lon="-15.6346790">
        <ele>1096.6190</ele>
        <time>2009-01-05T11:48:44Z</time>
      </trkpt>
      <trkpt lat="27.94834900" lon="-15.6346880">
        <ele>1096.7700</ele>
        <time>2009-01-05T11:48:45Z</time>
      </trkpt>
      <trkpt lat="27.94838000" lon="-15.6346970">
        <ele>1096.9440</ele>
        <time>2009-01-05T11:48:46Z</time>
      </trkpt>
      <trkpt lat="27.94841000" lon="-15.6347060">
        <ele>1097.3170</ele>
        <time>2009-01-05T11:48:47Z</time>
      </trkpt>
      <trkpt lat="27.94844100" lon="-15.6347150">
        <ele>1097.4810</ele>
        <time>2009-01-05T11:48:48Z</time>
      </trkpt>
      <trkpt lat="27.94847100" lon="-15.6347270">
        <ele>1097.6600</ele>
        <time>2009-01-05T11:48:49Z</time>
      </trkpt>
      <trkpt lat="27.94849900" lon="-15.6347410">
        <ele>1097.6800</ele>
        <time>2009-01-05T11:48:50Z</time>
      </trkpt>
      <trkpt lat="27.94852800" lon="-15.6347560">
        <ele>1097.9670</ele>
        <time>2009-01-05T11:48:51Z</time>
      </trkpt>
      <trkpt lat="27.94855900" lon="-15.6347730">
        <ele>1098.3250</ele>
        <time>2009-01-05T11:48:52Z</time>
      </trkpt>
      <trkpt lat="27.94858800" lon="-15.6347900">
        <ele>1098.4060</ele>
        <time>2009-01-05T11:48:53Z</time>
      </trkpt>
      <trkpt lat="27.94861500" lon="-15.6348090">
        <ele>1098.8770</ele>
        <time>2009-01-05T11:48:54Z</time>
      </trkpt>
      <trkpt lat="27.94864000" lon="-15.6348290">
        <ele>1098.6740</ele>
        <time>2009-01-05T11:48:55Z</time>
      </trkpt>
      <trkpt lat="27.94866100" lon="-15.6348530">
        <ele>1099.1610</ele>
        <time>2009-01-05T11:48:56Z</time>
      </trkpt>
      <trkpt lat="27.94868400" lon="-15.6348770">
        <ele>1099.2720</ele>
        <time>2009-01-05T11:48:57Z</time>
      </trkpt>
      <trkpt lat="27.94870400" lon="-15.6349020">
        <ele>1099.3520</ele>
        <time>2009-01-05T11:48:58Z</time>
      </trkpt>
      <trkpt lat="27.94872000" lon="-15.6349290">
        <ele>1099.3620</ele>
        <time>2009-01-05T11:48:59Z</time>
      </trkpt>
      <trkpt lat="27.94873700" lon="-15.6349550">
        <ele>1099.8270</ele>
        <time>2009-01-05T11:49:00Z</time>
      </trkpt>
      <trkpt lat="27.94875400" lon="-15.6349810">
        <ele>1100.4900</ele>
        <time>2009-01-05T11:49:01Z</time>
      </trkpt>
      <trkpt lat="27.94877200" lon="-15.6350080">
        <ele>1100.2380</ele>
        <time>2009-01-05T11:49:02Z</time>
      </trkpt>
      <trkpt lat="27.94878800" lon="-15.6350340">
        <ele>1100.8320</ele>
        <time>2009-01-05T11:49:03Z</time>
      </trkpt>
      <trkpt lat="27.94880600" lon="-15.6350610">
        <ele>1100.8360</ele>
        <time>2009-01-05T11:49:04Z</time>
      </trkpt>
      <trkpt lat="27.94882500" lon="-15.6350860">
        <ele>1101.1050</ele>
        <time>2009-01-05T11:49:05Z</time>
      </trkpt>
      <trkpt lat="27.94883900" lon="-15.6351120">
        <ele>1101.1240</ele>
        <time>2009-01-05T11:49:06Z</time>
      </trkpt>
      <trkpt lat="27.94885600" lon="-15.6351380">
        <ele>1101.4370</ele>
        <time>2009-01-05T11:49:07Z</time>
      </trkpt>
      <trkpt lat="27.94887100" lon="-15.6351650">
        <ele>1101.8400</ele>
        <time>2009-01-05T11:49:08Z</time>
      </trkpt>
      <trkpt lat="27.94888500" lon="-15.6351920">
        <ele>1101.7670</ele>
        <time>2009-01-05T11:49:09Z</time>
      </trkpt>
      <trkpt lat="27.94890300" lon="-15.6352190">
        <ele>1101.8650</ele>
        <time>2009-01-05T11:49:10Z</time>
      </trkpt>
      <trkpt lat="27.94891600" lon="-15.6352470">
        <ele>1101.9560</ele>
        <time>2009-01-05T11:49:11Z</time>
      </trkpt>
      <trkpt lat="27.94893200" lon="-15.6352750">
        <ele>1102.3300</ele>
        <time>2009-01-05T11:49:12Z</time>
      </trkpt>
      <trkpt lat="27.94895000" lon="-15.6353020">
        <ele>1102.6260</ele>
        <time>2009-01-05T11:49:13Z</time>
      </trkpt>
      <trkpt lat="27.94897300" lon="-15.6353280">
        <ele>1102.5160</ele>
        <time>2009-01-05T11:49:14Z</time>
      </trkpt>
      <trkpt lat="27.94899000" lon="-15.6353550">
        <ele>1102.9000</ele>
        <time>2009-01-05T11:49:15Z</time>
      </trkpt>
      <trkpt lat="27.94900800" lon="-15.6353810">
        <ele>1102.9580</ele>
        <time>2009-01-05T11:49:16Z</time>
      </trkpt>
      <trkpt lat="27.94902600" lon="-15.6354060">
        <ele>1103.2170</ele>
        <time>2009-01-05T11:49:17Z</time>
      </trkpt>
      <trkpt lat="27.94904300" lon="-15.6354310">
        <ele>1103.5110</ele>
        <time>2009-01-05T11:49:18Z</time>
      </trkpt>
      <trkpt lat="27.94906000" lon="-15.6354550">
        <ele>1103.4530</ele>
        <time>2009-01-05T11:49:19Z</time>
      </trkpt>
      <trkpt lat="27.94907200" lon="-15.6354810">
        <ele>1103.6690</ele>
        <time>2009-01-05T11:49:20Z</time>
      </trkpt>
      <trkpt lat="27.94908400" lon="-15.6355070">
        <ele>1103.7080</ele>
        <time>2009-01-05T11:49:21Z</time>
      </trkpt>
      <trkpt lat="27.94909900" lon="-15.6355320">
        <ele>1104.0320</ele>
        <time>2009-01-05T11:49:22Z</time>
      </trkpt>
      <trkpt lat="27.94911500" lon="-15.6355560">
        <ele>1104.3800</ele>
        <time>2009-01-05T11:49:23Z</time>
      </trkpt>
      <trkpt lat="27.94913400" lon="-15.6355790">
        <ele>1104.4480</ele>
        <time>2009-01-05T11:49:24Z</time>
      </trkpt>
      <trkpt lat="27.94915500" lon="-15.6356020">
        <ele>1104.9570</ele>
        <time>2009-01-05T11:49:25Z</time>
      </trkpt>
      <trkpt lat="27.94917400" lon="-15.6356260">
        <ele>1105.2570</ele>
        <time>2009-01-05T11:49:26Z</time>
      </trkpt>
      <trkpt lat="27.94919200" lon="-15.6356500">
        <ele>1105.4830</ele>
        <time>2009-01-05T11:49:27Z</time>
      </trkpt>
      <trkpt lat="27.94921200" lon="-15.6356730">
        <ele>1105.5630</ele>
        <time>2009-01-05T11:49:28Z</time>
      </trkpt>
      <trkpt lat="27.94923000" lon="-15.6356970">
        <ele>1105.6780</ele>
        <time>2009-01-05T11:49:29Z</time>
      </trkpt>
      <trkpt lat="27.94924700" lon="-15.6357190">
        <ele>1106.0360</ele>
        <time>2009-01-05T11:49:30Z</time>
      </trkpt>
      <trkpt lat="27.94926400" lon="-15.6357420">
        <ele>1106.1290</ele>
        <time>2009-01-05T11:49:31Z</time>
      </trkpt>
      <trkpt lat="27.94928500" lon="-15.6357630">
        <ele>1106.6660</ele>
        <time>2009-01-05T11:49:32Z</time>
      </trkpt>
      <trkpt lat="27.94930700" lon="-15.6357840">
        <ele>1106.6270</ele>
        <time>2009-01-05T11:49:33Z</time>
      </trkpt>
      <trkpt lat="27.94933100" lon="-15.6358030">
        <ele>1106.6940</ele>
        <time>2009-01-05T11:49:34Z</time>
      </trkpt>
      <trkpt lat="27.94935900" lon="-15.6358200">
        <ele>1107.0250</ele>
        <time>2009-01-05T11:49:35Z</time>
      </trkpt>
      <trkpt lat="27.94939200" lon="-15.6358340">
        <ele>1107.3410</ele>
        <time>2009-01-05T11:49:36Z</time>
      </trkpt>
      <trkpt lat="27.94942200" lon="-15.6358470">
        <ele>1107.4440</ele>
        <time>2009-01-05T11:49:37Z</time>
      </trkpt>
      <trkpt lat="27.94944900" lon="-15.6358590">
        <ele>1107.4500</ele>
        <time>2009-01-05T11:49:38Z</time>
      </trkpt>
      <trkpt lat="27.94947700" lon="-15.6358700">
        <ele>1107.5910</ele>
        <time>2009-01-05T11:49:39Z</time>
      </trkpt>
      <trkpt lat="27.94950800" lon="-15.6358780">
        <ele>1107.8210</ele>
        <time>2009-01-05T11:49:40Z</time>
      </trkpt>
      <trkpt lat="27.94954100" lon="-15.6358830">
        <ele>1107.9590</ele>
        <time>2009-01-05T11:49:41Z</time>
      </trkpt>
      <trkpt lat="27.94956800" lon="-15.6358890">
        <ele>1108.1460</ele>
        <time>2009-01-05T11:49:42Z</time>
      </trkpt>
      <trkpt lat="27.94959600" lon="-15.6358910">
        <ele>1108.4650</ele>
        <time>2009-01-05T11:49:43Z</time>
      </trkpt>
      <trkpt lat="27.94962700" lon="-15.6358880">
        <ele>1108.5310</ele>
        <time>2009-01-05T11:49:44Z</time>
      </trkpt>
      <trkpt lat="27.94965400" lon="-15.6358820">
        <ele>1108.8080</ele>
        <time>2009-01-05T11:49:45Z</time>
      </trkpt>
      <trkpt lat="27.94968000" lon="-15.6358710">
        <ele>1109.0240</ele>
        <time>2009-01-05T11:49:46Z</time>
      </trkpt>
      <trkpt lat="27.94970500" lon="-15.6358570">
        <ele>1109.3650</ele>
        <time>2009-01-05T11:49:47Z</time>
      </trkpt>
      <trkpt lat="27.94972600" lon="-15.6358370">
        <ele>1109.4780</ele>
        <time>2009-01-05T11:49:48Z</time>
      </trkpt>
      <trkpt lat="27.94974500" lon="-15.6358140">
        <ele>1109.8950</ele>
        <time>2009-01-05T11:49:49Z</time>
      </trkpt>
      <trkpt lat="27.94976100" lon="-15.6357890">
        <ele>1110.1210</ele>
        <time>2009-01-05T11:49:50Z</time>
      </trkpt>
      <trkpt lat="27.94977500" lon="-15.6357630">
        <ele>1110.1730</ele>
        <time>2009-01-05T11:49:51Z</time>
      </trkpt>
      <trkpt lat="27.94978700" lon="-15.6357360">
        <ele>1110.5030</ele>
        <time>2009-01-05T11:49:52Z</time>
      </trkpt>
      <trkpt lat="27.94979600" lon="-15.6357080">
        <ele>1110.9350</ele>
        <time>2009-01-05T11:49:53Z</time>
      </trkpt>
      <trkpt lat="27.94980400" lon="-15.6356770">
        <ele>1110.8110</ele>
        <time>2009-01-05T11:49:54Z</time>
      </trkpt>
      <trkpt lat="27.94981200" lon="-15.6356460">
        <ele>1111.0260</ele>
        <time>2009-01-05T11:49:55Z</time>
      </trkpt>
      <trkpt lat="27.94981800" lon="-15.6356160">
        <ele>1111.4350</ele>
        <time>2009-01-05T11:49:56Z</time>
      </trkpt>
      <trkpt lat="27.94982300" lon="-15.6355850">
        <ele>1111.8360</ele>
        <time>2009-01-05T11:49:57Z</time>
      </trkpt>
      <trkpt lat="27.94982700" lon="-15.6355540">
        <ele>1111.8590</ele>
        <time>2009-01-05T11:49:58Z</time>
      </trkpt>
      <trkpt lat="27.94983100" lon="-15.6355240">
        <ele>1111.8930</ele>
        <time>2009-01-05T11:49:59Z</time>
      </trkpt>
      <trkpt lat="27.94983600" lon="-15.6354940">
        <ele>1112.2890</ele>
        <time>2009-01-05T11:50:00Z</time>
      </trkpt>
      <trkpt lat="27.94984100" lon="-15.6354630">
        <ele>1112.7030</ele>
        <time>2009-01-05T11:50:01Z</time>
      </trkpt>
      <trkpt lat="27.94984500" lon="-15.6354310">
        <ele>1112.8160</ele>
        <time>2009-01-05T11:50:02Z</time>
      </trkpt>
      <trkpt lat="27.94984800" lon="-15.6353970">
        <ele>1113.1270</ele>
        <time>2009-01-05T11:50:03Z</time>
      </trkpt>
      <trkpt lat="27.94985300" lon="-15.6353620">
        <ele>1113.1100</ele>
        <time>2009-01-05T11:50:04Z</time>
      </trkpt>
      <trkpt lat="27.94986100" lon="-15.6353260">
        <ele>1113.2730</ele>
        <time>2009-01-05T11:50:05Z</time>
      </trkpt>
      <trkpt lat="27.94986900" lon="-15.6352900">
        <ele>1113.8730</ele>
        <time>2009-01-05T11:50:06Z</time>
      </trkpt>
      <trkpt lat="27.94987700" lon="-15.6352520">
        <ele>1113.7380</ele>
        <time>2009-01-05T11:50:07Z</time>
      </trkpt>
      <trkpt lat="27.94988200" lon="-15.6352110">
        <ele>1113.8970</ele>
        <time>2009-01-05T11:50:08Z</time>
      </trkpt>
      <trkpt lat="27.94988600" lon="-15.6351740">
        <ele>1114.1490</ele>
        <time>2009-01-05T11:50:09Z</time>
      </trkpt>
      <trkpt lat="27.94989100" lon="-15.6351390">
        <ele>1114.6610</ele>
        <time>2009-01-05T11:50:10Z</time>
      </trkpt>
      <trkpt lat="27.94989700" lon="-15.6350990">
        <ele>1115.3640</ele>
        <time>2009-01-05T11:50:11Z</time>
      </trkpt>
      <trkpt lat="27.94990300" lon="-15.6350600">
        <ele>1115.4350</ele>
        <time>2009-01-05T11:50:12Z</time>
      </trkpt>
      <trkpt lat="27.94991100" lon="-15.6350260">
        <ele>1115.3540</ele>
        <time>2009-01-05T11:50:13Z</time>
      </trkpt>
      <trkpt lat="27.94991800" lon="-15.6349910">
        <ele>1115.2620</ele>
        <time>2009-01-05T11:50:14Z</time>
      </trkpt>
      <trkpt lat="27.94992600" lon="-15.6349560">
        <ele>1115.8770</ele>
        <time>2009-01-05T11:50:15Z</time>
      </trkpt>
      <trkpt lat="27.94993300" lon="-15.6349200">
        <ele>1116.1630</ele>
        <time>2009-01-05T11:50:16Z</time>
      </trkpt>
      <trkpt lat="27.94993800" lon="-15.6348770">
        <ele>1116.2730</ele>
        <time>2009-01-05T11:50:17Z</time>
      </trkpt>
      <trkpt lat="27.94994700" lon="-15.6348460">
        <ele>1116.5210</ele>
        <time>2009-01-05T11:50:18Z</time>
      </trkpt>
      <trkpt lat="27.94995800" lon="-15.6348180">
        <ele>1116.3880</ele>
        <time>2009-01-05T11:50:19Z</time>
      </trkpt>
      <trkpt lat="27.94997000" lon="-15.6347880">
        <ele>1116.4720</ele>
        <time>2009-01-05T11:50:20Z</time>
      </trkpt>
      <trkpt lat="27.94998100" lon="-15.6347590">
        <ele>1117.0000</ele>
        <time>2009-01-05T11:50:21Z</time>
      </trkpt>
      <trkpt lat="27.94999200" lon="-15.6347290">
        <ele>1117.1800</ele>
        <time>2009-01-05T11:50:22Z</time>
      </trkpt>
      <trkpt lat="27.95000100" lon="-15.6346980">
        <ele>1117.5860</ele>
        <time>2009-01-05T11:50:23Z</time>
      </trkpt>
      <trkpt lat="27.95000800" lon="-15.6346660">
        <ele>1117.2260</ele>
        <time>2009-01-05T11:50:24Z</time>
      </trkpt>
      <trkpt lat="27.95001400" lon="-15.6346330">
        <ele>1117.1360</ele>
        <time>2009-01-05T11:50:25Z</time>
      </trkpt>
      <trkpt lat="27.95002200" lon="-15.6346010">
        <ele>1117.0640</ele>
        <time>2009-01-05T11:50:26Z</time>
      </trkpt>
      <trkpt lat="27.95003100" lon="-15.6345680">
        <ele>1117.4120</ele>
        <time>2009-01-05T11:50:27Z</time>
      </trkpt>
      <trkpt lat="27.95004000" lon="-15.6345360">
        <ele>1117.4230</ele>
        <time>2009-01-05T11:50:28Z</time>
      </trkpt>
      <trkpt lat="27.95004800" lon="-15.6345040">
        <ele>1117.5920</ele>
        <time>2009-01-05T11:50:29Z</time>
      </trkpt>
      <trkpt lat="27.95005800" lon="-15.6344720">
        <ele>1117.7790</ele>
        <time>2009-01-05T11:50:30Z</time>
      </trkpt>
      <trkpt lat="27.95006800" lon="-15.6344410">
        <ele>1117.7770</ele>
        <time>2009-01-05T11:50:31Z</time>
      </trkpt>
      <trkpt lat="27.95007800" lon="-15.6344100">
        <ele>1117.8220</ele>
        <time>2009-01-05T11:50:32Z</time>
      </trkpt>
      <trkpt lat="27.95008700" lon="-15.6343790">
        <ele>1117.8560</ele>
        <time>2009-01-05T11:50:33Z</time>
      </trkpt>
      <trkpt lat="27.95009500" lon="-15.6343460">
        <ele>1117.9570</ele>
        <time>2009-01-05T11:50:34Z</time>
      </trkpt>
      <trkpt lat="27.95010200" lon="-15.6343110">
        <ele>1118.2110</ele>
        <time>2009-01-05T11:50:35Z</time>
      </trkpt>
      <trkpt lat="27.95010900" lon="-15.6342770">
        <ele>1118.5910</ele>
        <time>2009-01-05T11:50:36Z</time>
      </trkpt>
      <trkpt lat="27.95011600" lon="-15.6342440">
        <ele>1118.8190</ele>
        <time>2009-01-05T11:50:37Z</time>
      </trkpt>
      <trkpt lat="27.95012200" lon="-15.6342110">
        <ele>1118.9830</ele>
        <time>2009-01-05T11:50:38Z</time>
      </trkpt>
      <trkpt lat="27.95013100" lon="-15.6341780">
        <ele>1119.3240</ele>
        <time>2009-01-05T11:50:39Z</time>
      </trkpt>
      <trkpt lat="27.95014000" lon="-15.6341450">
        <ele>1119.4360</ele>
        <time>2009-01-05T11:50:40Z</time>
      </trkpt>
      <trkpt lat="27.95015100" lon="-15.6341130">
        <ele>1119.7560</ele>
        <time>2009-01-05T11:50:41Z</time>
      </trkpt>
      <trkpt lat="27.95016400" lon="-15.6340800">
        <ele>1119.8280</ele>
        <time>2009-01-05T11:50:42Z</time>
      </trkpt>
      <trkpt lat="27.95018000" lon="-15.6340490">
        <ele>1120.0660</ele>
        <time>2009-01-05T11:50:43Z</time>
      </trkpt>
      <trkpt lat="27.95019100" lon="-15.6340150">
        <ele>1120.3360</ele>
        <time>2009-01-05T11:50:44Z</time>
      </trkpt>
      <trkpt lat="27.95020600" lon="-15.6339830">
        <ele>1120.7270</ele>
        <time>2009-01-05T11:50:45Z</time>
      </trkpt>
      <trkpt lat="27.95022300" lon="-15.6339490">
        <ele>1120.9150</ele>
        <time>2009-01-05T11:50:46Z</time>
      </trkpt>
      <trkpt lat="27.95024400" lon="-15.6339150">
        <ele>1121.1840</ele>
        <time>2009-01-05T11:50:47Z</time>
      </trkpt>
      <trkpt lat="27.95026800" lon="-15.6338830">
        <ele>1121.4620</ele>
        <time>2009-01-05T11:50:48Z</time>
      </trkpt>
      <trkpt lat="27.95028900" lon="-15.6338490">
        <ele>1121.6470</ele>
        <time>2009-01-05T11:50:49Z</time>
      </trkpt>
      <trkpt lat="27.95031000" lon="-15.6338140">
        <ele>1121.8790</ele>
        <time>2009-01-05T11:50:50Z</time>
      </trkpt>
      <trkpt lat="27.95033400" lon="-15.6337760">
        <ele>1122.1220</ele>
        <time>2009-01-05T11:50:51Z</time>
      </trkpt>
      <trkpt lat="27.95035700" lon="-15.6337370">
        <ele>1122.2240</ele>
        <time>2009-01-05T11:50:52Z</time>
      </trkpt>
      <trkpt lat="27.95037200" lon="-15.6337020">
        <ele>1122.3400</ele>
        <time>2009-01-05T11:50:53Z</time>
      </trkpt>
      <trkpt lat="27.95038300" lon="-15.6336670">
        <ele>1122.5220</ele>
        <time>2009-01-05T11:50:54Z</time>
      </trkpt>
      <trkpt lat="27.95039200" lon="-15.6336340">
        <ele>1122.7130</ele>
        <time>2009-01-05T11:50:55Z</time>
      </trkpt>
      <trkpt lat="27.95040100" lon="-15.6336020">
        <ele>1122.9610</ele>
        <time>2009-01-05T11:50:56Z</time>
      </trkpt>
      <trkpt lat="27.95041000" lon="-15.6335680">
        <ele>1122.9380</ele>
        <time>2009-01-05T11:50:57Z</time>
      </trkpt>
      <trkpt lat="27.95042400" lon="-15.6335340">
        <ele>1123.0280</ele>
        <time>2009-01-05T11:50:58Z</time>
      </trkpt>
      <trkpt lat="27.95044200" lon="-15.6335070">
        <ele>1123.4680</ele>
        <time>2009-01-05T11:50:59Z</time>
      </trkpt>
      <trkpt lat="27.95045500" lon="-15.6334810">
        <ele>1123.8490</ele>
        <time>2009-01-05T11:51:00Z</time>
      </trkpt>
      <trkpt lat="27.95046300" lon="-15.6334550">
        <ele>1123.7690</ele>
        <time>2009-01-05T11:51:01Z</time>
      </trkpt>
      <trkpt lat="27.95046900" lon="-15.6334240">
        <ele>1124.0220</ele>
        <time>2009-01-05T11:51:02Z</time>
      </trkpt>
      <trkpt lat="27.95047300" lon="-15.6333910">
        <ele>1124.1470</ele>
        <time>2009-01-05T11:51:03Z</time>
      </trkpt>
      <trkpt lat="27.95047400" lon="-15.6333500">
        <ele>1124.0530</ele>
        <time>2009-01-05T11:51:04Z</time>
      </trkpt>
      <trkpt lat="27.95047300" lon="-15.6333090">
        <ele>1124.4450</ele>
        <time>2009-01-05T11:51:05Z</time>
      </trkpt>
      <trkpt lat="27.95047000" lon="-15.6332670">
        <ele>1124.7070</ele>
        <time>2009-01-05T11:51:06Z</time>
      </trkpt>
      <trkpt lat="27.95046300" lon="-15.6332260">
        <ele>1124.6500</ele>
        <time>2009-01-05T11:51:07Z</time>
      </trkpt>
      <trkpt lat="27.95045300" lon="-15.6331870">
        <ele>1124.8680</ele>
        <time>2009-01-05T11:51:08Z</time>
      </trkpt>
      <trkpt lat="27.95043800" lon="-15.6331440">
        <ele>1125.2790</ele>
        <time>2009-01-05T11:51:09Z</time>
      </trkpt>
      <trkpt lat="27.95042000" lon="-15.6331060">
        <ele>1125.5730</ele>
        <time>2009-01-05T11:51:10Z</time>
      </trkpt>
      <trkpt lat="27.95039900" lon="-15.6330690">
        <ele>1125.6960</ele>
        <time>2009-01-05T11:51:11Z</time>
      </trkpt>
      <trkpt lat="27.95037700" lon="-15.6330390">
        <ele>1125.8530</ele>
        <time>2009-01-05T11:51:12Z</time>
      </trkpt>
      <trkpt lat="27.95035300" lon="-15.6330090">
        <ele>1125.9240</ele>
        <time>2009-01-05T11:51:13Z</time>
      </trkpt>
      <trkpt lat="27.95032600" lon="-15.6329810">
        <ele>1126.2110</ele>
        <time>2009-01-05T11:51:14Z</time>
      </trkpt>
      <trkpt lat="27.95029900" lon="-15.6329560">
        <ele>1126.6720</ele>
        <time>2009-01-05T11:51:15Z</time>
      </trkpt>
      <trkpt lat="27.95026600" lon="-15.6329370">
        <ele>1126.5780</ele>
        <time>2009-01-05T11:51:16Z</time>
      </trkpt>
      <trkpt lat="27.95023400" lon="-15.6329160">
        <ele>1126.7490</ele>
        <time>2009-01-05T11:51:17Z</time>
      </trkpt>
      <trkpt lat="27.95020200" lon="-15.6328930">
        <ele>1126.6460</ele>
        <time>2009-01-05T11:51:18Z</time>
      </trkpt>
      <trkpt lat="27.95016900" lon="-15.6328660">
        <ele>1127.0620</ele>
        <time>2009-01-05T11:51:19Z</time>
      </trkpt>
      <trkpt lat="27.95013700" lon="-15.6328460">
        <ele>1127.2740</ele>
        <time>2009-01-05T11:51:20Z</time>
      </trkpt>
      <trkpt lat="27.95010400" lon="-15.6328280">
        <ele>1127.6620</ele>
        <time>2009-01-05T11:51:21Z</time>
      </trkpt>
      <trkpt lat="27.95007200" lon="-15.6328070">
        <ele>1127.8460</ele>
        <time>2009-01-05T11:51:22Z</time>
      </trkpt>
      <trkpt lat="27.95004100" lon="-15.6327810">
        <ele>1127.9240</ele>
        <time>2009-01-05T11:51:23Z</time>
      </trkpt>
      <trkpt lat="27.95001300" lon="-15.6327540">
        <ele>1128.0200</ele>
        <time>2009-01-05T11:51:24Z</time>
      </trkpt>
      <trkpt lat="27.94998600" lon="-15.6327240">
        <ele>1128.2140</ele>
        <time>2009-01-05T11:51:25Z</time>
      </trkpt>
      <trkpt lat="27.94995600" lon="-15.6326990">
        <ele>1128.2770</ele>
        <time>2009-01-05T11:51:26Z</time>
      </trkpt>
      <trkpt lat="27.94992900" lon="-15.6326680">
        <ele>1128.5240</ele>
        <time>2009-01-05T11:51:27Z</time>
      </trkpt>
      <trkpt lat="27.94990400" lon="-15.6326350">
        <ele>1128.5790</ele>
        <time>2009-01-05T11:51:28Z</time>
      </trkpt>
      <trkpt lat="27.94988500" lon="-15.6325950">
        <ele>1128.5850</ele>
        <time>2009-01-05T11:51:29Z</time>
      </trkpt>
      <trkpt lat="27.94986400" lon="-15.6325550">
        <ele>1128.8140</ele>
        <time>2009-01-05T11:51:30Z</time>
      </trkpt>
      <trkpt lat="27.94984000" lon="-15.6325190">
        <ele>1129.0280</ele>
        <time>2009-01-05T11:51:31Z</time>
      </trkpt>
      <trkpt lat="27.94981800" lon="-15.6324810">
        <ele>1129.0540</ele>
        <time>2009-01-05T11:51:32Z</time>
      </trkpt>
      <trkpt lat="27.94979700" lon="-15.6324400">
        <ele>1129.2960</ele>
        <time>2009-01-05T11:51:33Z</time>
      </trkpt>
      <trkpt lat="27.94977700" lon="-15.6323980">
        <ele>1129.3200</ele>
        <time>2009-01-05T11:51:34Z</time>
      </trkpt>
      <trkpt lat="27.94975600" lon="-15.6323550">
        <ele>1129.2410</ele>
        <time>2009-01-05T11:51:35Z</time>
      </trkpt>
      <trkpt lat="27.94973200" lon="-15.6323130">
        <ele>1129.5570</ele>
        <time>2009-01-05T11:51:36Z</time>
      </trkpt>
      <trkpt lat="27.94970600" lon="-15.6322750">
        <ele>1129.4300</ele>
        <time>2009-01-05T11:51:37Z</time>
      </trkpt>
      <trkpt lat="27.94967900" lon="-15.6322370">
        <ele>1129.7380</ele>
        <time>2009-01-05T11:51:38Z</time>
      </trkpt>
      <trkpt lat="27.94965400" lon="-15.6321990">
        <ele>1129.6330</ele>
        <time>2009-01-05T11:51:39Z</time>
      </trkpt>
      <trkpt lat="27.94963200" lon="-15.6321580">
        <ele>1129.8480</ele>
        <time>2009-01-05T11:51:40Z</time>
      </trkpt>
      <trkpt lat="27.94961300" lon="-15.6321160">
        <ele>1129.9410</ele>
        <time>2009-01-05T11:51:41Z</time>
      </trkpt>
      <trkpt lat="27.94959500" lon="-15.6320730">
        <ele>1130.2480</ele>
        <time>2009-01-05T11:51:42Z</time>
      </trkpt>
      <trkpt lat="27.94957800" lon="-15.6320300">
        <ele>1130.3380</ele>
        <time>2009-01-05T11:51:43Z</time>
      </trkpt>
      <trkpt lat="27.94956300" lon="-15.6319860">
        <ele>1130.4100</ele>
        <time>2009-01-05T11:51:44Z</time>
      </trkpt>
      <trkpt lat="27.94954900" lon="-15.6319430">
        <ele>1130.7670</ele>
        <time>2009-01-05T11:51:45Z</time>
      </trkpt>
      <trkpt lat="27.94953300" lon="-15.6318990">
        <ele>1130.7720</ele>
        <time>2009-01-05T11:51:46Z</time>
      </trkpt>
      <trkpt lat="27.94951700" lon="-15.6318550">
        <ele>1130.6200</ele>
        <time>2009-01-05T11:51:47Z</time>
      </trkpt>
      <trkpt lat="27.94950100" lon="-15.6318100">
        <ele>1131.0000</ele>
        <time>2009-01-05T11:51:48Z</time>
      </trkpt>
      <trkpt lat="27.94948400" lon="-15.6317670">
        <ele>1130.8160</ele>
        <time>2009-01-05T11:51:49Z</time>
      </trkpt>
      <trkpt lat="27.94946900" lon="-15.6317230">
        <ele>1131.1780</ele>
        <time>2009-01-05T11:51:50Z</time>
      </trkpt>
      <trkpt lat="27.94945400" lon="-15.6316790">
        <ele>1131.2770</ele>
        <time>2009-01-05T11:51:51Z</time>
      </trkpt>
      <trkpt lat="27.94944000" lon="-15.6316350">
        <ele>1131.5870</ele>
        <time>2009-01-05T11:51:52Z</time>
      </trkpt>
      <trkpt lat="27.94942600" lon="-15.6315900">
        <ele>1131.4480</ele>
        <time>2009-01-05T11:51:53Z</time>
      </trkpt>
      <trkpt lat="27.94941500" lon="-15.6315420">
        <ele>1131.8420</ele>
        <time>2009-01-05T11:51:54Z</time>
      </trkpt>
      <trkpt lat="27.94940300" lon="-15.6314950">
        <ele>1132.0970</ele>
        <time>2009-01-05T11:51:55Z</time>
      </trkpt>
      <trkpt lat="27.94939300" lon="-15.6314480">
        <ele>1132.2140</ele>
        <time>2009-01-05T11:51:56Z</time>
      </trkpt>
      <trkpt lat="27.94938700" lon="-15.6314010">
        <ele>1132.3650</ele>
        <time>2009-01-05T11:51:57Z</time>
      </trkpt>
      <trkpt lat="27.94938400" lon="-15.6313540">
        <ele>1132.4300</ele>
        <time>2009-01-05T11:51:58Z</time>
      </trkpt>
      <trkpt lat="27.94938700" lon="-15.6313070">
        <ele>1132.8710</ele>
        <time>2009-01-05T11:51:59Z</time>
      </trkpt>
      <trkpt lat="27.94939300" lon="-15.6312600">
        <ele>1132.7770</ele>
        <time>2009-01-05T11:52:00Z</time>
      </trkpt>
      <trkpt lat="27.94940500" lon="-15.6312130">
        <ele>1132.9480</ele>
        <time>2009-01-05T11:52:01Z</time>
      </trkpt>
      <trkpt lat="27.94942700" lon="-15.6311720">
        <ele>1133.2790</ele>
        <time>2009-01-05T11:52:02Z</time>
      </trkpt>
      <trkpt lat="27.94945700" lon="-15.6311360">
        <ele>1133.2110</ele>
        <time>2009-01-05T11:52:03Z</time>
      </trkpt>
      <trkpt lat="27.94949000" lon="-15.6311050">
        <ele>1133.2590</ele>
        <time>2009-01-05T11:52:04Z</time>
      </trkpt>
      <trkpt lat="27.94952800" lon="-15.6310810">
        <ele>1133.5900</ele>
        <time>2009-01-05T11:52:05Z</time>
      </trkpt>
      <trkpt lat="27.94956800" lon="-15.6310620">
        <ele>1133.7200</ele>
        <time>2009-01-05T11:52:06Z</time>
      </trkpt>
      <trkpt lat="27.94961000" lon="-15.6310450">
        <ele>1133.8680</ele>
        <time>2009-01-05T11:52:07Z</time>
      </trkpt>
      <trkpt lat="27.94965000" lon="-15.6310300">
        <ele>1133.8550</ele>
        <time>2009-01-05T11:52:08Z</time>
      </trkpt>
      <trkpt lat="27.94969000" lon="-15.6310150">
        <ele>1134.1720</ele>
        <time>2009-01-05T11:52:09Z</time>
      </trkpt>
      <trkpt lat="27.94973100" lon="-15.6310030">
        <ele>1134.2480</ele>
        <time>2009-01-05T11:52:10Z</time>
      </trkpt>
      <trkpt lat="27.94977200" lon="-15.6309950">
        <ele>1134.6020</ele>
        <time>2009-01-05T11:52:11Z</time>
      </trkpt>
      <trkpt lat="27.94981400" lon="-15.6309930">
        <ele>1134.7260</ele>
        <time>2009-01-05T11:52:12Z</time>
      </trkpt>
      <trkpt lat="27.94985600" lon="-15.6309940">
        <ele>1135.0270</ele>
        <time>2009-01-05T11:52:13Z</time>
      </trkpt>
      <trkpt lat="27.94989800" lon="-15.6309990">
        <ele>1135.0610</ele>
        <time>2009-01-05T11:52:14Z</time>
      </trkpt>
      <trkpt lat="27.94994100" lon="-15.6310060">
        <ele>1135.3910</ele>
        <time>2009-01-05T11:52:15Z</time>
      </trkpt>
      <trkpt lat="27.94998500" lon="-15.6310140">
        <ele>1135.4940</ele>
        <time>2009-01-05T11:52:16Z</time>
      </trkpt>
      <trkpt lat="27.95002900" lon="-15.6310240">
        <ele>1135.6710</ele>
        <time>2009-01-05T11:52:17Z</time>
      </trkpt>
      <trkpt lat="27.95007400" lon="-15.6310330">
        <ele>1135.6410</ele>
        <time>2009-01-05T11:52:18Z</time>
      </trkpt>
      <trkpt lat="27.95011800" lon="-15.6310430">
        <ele>1135.3160</ele>
        <time>2009-01-05T11:52:19Z</time>
      </trkpt>
      <trkpt lat="27.95016200" lon="-15.6310530">
        <ele>1135.8230</ele>
        <time>2009-01-05T11:52:20Z</time>
      </trkpt>
      <trkpt lat="27.95020500" lon="-15.6310630">
        <ele>1136.2720</ele>
        <time>2009-01-05T11:52:21Z</time>
      </trkpt>
      <trkpt lat="27.95024800" lon="-15.6310750">
        <ele>1136.2550</ele>
        <time>2009-01-05T11:52:22Z</time>
      </trkpt>
      <trkpt lat="27.95029000" lon="-15.6310860">
        <ele>1136.3130</ele>
        <time>2009-01-05T11:52:23Z</time>
      </trkpt>
      <trkpt lat="27.95033100" lon="-15.6310990">
        <ele>1136.4680</ele>
        <time>2009-01-05T11:52:24Z</time>
      </trkpt>
      <trkpt lat="27.95037300" lon="-15.6311110">
        <ele>1136.6390</ele>
        <time>2009-01-05T11:52:25Z</time>
      </trkpt>
      <trkpt lat="27.95042400" lon="-15.6311300">
        <ele>1136.9840</ele>
        <time>2009-01-05T11:52:26Z</time>
      </trkpt>
      <trkpt lat="27.95046800" lon="-15.6311450">
        <ele>1136.8380</ele>
        <time>2009-01-05T11:52:27Z</time>
      </trkpt>
      <trkpt lat="27.95051200" lon="-15.6311570">
        <ele>1137.1850</ele>
        <time>2009-01-05T11:52:28Z</time>
      </trkpt>
      <trkpt lat="27.95055400" lon="-15.6311720">
        <ele>1137.1520</ele>
        <time>2009-01-05T11:52:29Z</time>
      </trkpt>
      <trkpt lat="27.95059700" lon="-15.6311820">
        <ele>1137.6820</ele>
        <time>2009-01-05T11:52:30Z</time>
      </trkpt>
      <trkpt lat="27.95063800" lon="-15.6311940">
        <ele>1137.5530</ele>
        <time>2009-01-05T11:52:31Z</time>
      </trkpt>
      <trkpt lat="27.95067600" lon="-15.6312040">
        <ele>1137.7260</ele>
        <time>2009-01-05T11:52:32Z</time>
      </trkpt>
      <trkpt lat="27.95071300" lon="-15.6312130">
        <ele>1138.0380</ele>
        <time>2009-01-05T11:52:33Z</time>
      </trkpt>
      <trkpt lat="27.95075100" lon="-15.6312220">
        <ele>1137.9510</ele>
        <time>2009-01-05T11:52:34Z</time>
      </trkpt>
      <trkpt lat="27.95078900" lon="-15.6312320">
        <ele>1138.2850</ele>
        <time>2009-01-05T11:52:35Z</time>
      </trkpt>
      <trkpt lat="27.95082900" lon="-15.6312420">
        <ele>1138.5570</ele>
        <time>2009-01-05T11:52:36Z</time>
      </trkpt>
      <trkpt lat="27.95086900" lon="-15.6312520">
        <ele>1138.4380</ele>
        <time>2009-01-05T11:52:37Z</time>
      </trkpt>
      <trkpt lat="27.95090900" lon="-15.6312650">
        <ele>1139.0080</ele>
        <time>2009-01-05T11:52:38Z</time>
      </trkpt>
      <trkpt lat="27.95094900" lon="-15.6312760">
        <ele>1139.2950</ele>
        <time>2009-01-05T11:52:39Z</time>
      </trkpt>
      <trkpt lat="27.95098800" lon="-15.6312850">
        <ele>1139.1390</ele>
        <time>2009-01-05T11:52:40Z</time>
      </trkpt>
      <trkpt lat="27.95102700" lon="-15.6312930">
        <ele>1139.7450</ele>
        <time>2009-01-05T11:52:41Z</time>
      </trkpt>
      <trkpt lat="27.95106400" lon="-15.6313010">
        <ele>1139.5060</ele>
        <time>2009-01-05T11:52:42Z</time>
      </trkpt>
      <trkpt lat="27.95110100" lon="-15.6313090">
        <ele>1139.4890</ele>
        <time>2009-01-05T11:52:43Z</time>
      </trkpt>
      <trkpt lat="27.95113800" lon="-15.6313170">
        <ele>1139.5430</ele>
        <time>2009-01-05T11:52:44Z</time>
      </trkpt>
      <trkpt lat="27.95117400" lon="-15.6313270">
        <ele>1139.9990</ele>
        <time>2009-01-05T11:52:45Z</time>
      </trkpt>
      <trkpt lat="27.95121000" lon="-15.6313360">
        <ele>1140.2400</ele>
        <time>2009-01-05T11:52:46Z</time>
      </trkpt>
      <trkpt lat="27.95124400" lon="-15.6313450">
        <ele>1140.4430</ele>
        <time>2009-01-05T11:52:47Z</time>
      </trkpt>
      <trkpt lat="27.95127900" lon="-15.6313530">
        <ele>1140.3910</ele>
        <time>2009-01-05T11:52:48Z</time>
      </trkpt>
      <trkpt lat="27.95131300" lon="-15.6313620">
        <ele>1140.6440</ele>
        <time>2009-01-05T11:52:49Z</time>
      </trkpt>
      <trkpt lat="27.95134800" lon="-15.6313710">
        <ele>1141.0930</ele>
        <time>2009-01-05T11:52:50Z</time>
      </trkpt>
      <trkpt lat="27.95138000" lon="-15.6313820">
        <ele>1140.7650</ele>
        <time>2009-01-05T11:52:51Z</time>
      </trkpt>
      <trkpt lat="27.95141600" lon="-15.6313890">
        <ele>1140.9350</ele>
        <time>2009-01-05T11:52:52Z</time>
      </trkpt>
      <trkpt lat="27.95145200" lon="-15.6313980">
        <ele>1140.9040</ele>
        <time>2009-01-05T11:52:53Z</time>
      </trkpt>
      <trkpt lat="27.95148800" lon="-15.6314070">
        <ele>1141.4650</ele>
        <time>2009-01-05T11:52:54Z</time>
      </trkpt>
      <trkpt lat="27.95152300" lon="-15.6314160">
        <ele>1141.5490</ele>
        <time>2009-01-05T11:52:55Z</time>
      </trkpt>
      <trkpt lat="27.95155700" lon="-15.6314280">
        <ele>1141.4340</ele>
        <time>2009-01-05T11:52:56Z</time>
      </trkpt>
      <trkpt lat="27.95159200" lon="-15.6314390">
        <ele>1141.8740</ele>
        <time>2009-01-05T11:52:57Z</time>
      </trkpt>
      <trkpt lat="27.95162700" lon="-15.6314510">
        <ele>1142.1130</ele>
        <time>2009-01-05T11:52:58Z</time>
      </trkpt>
      <trkpt lat="27.95166200" lon="-15.6314610">
        <ele>1142.5160</ele>
        <time>2009-01-05T11:52:59Z</time>
      </trkpt>
      <trkpt lat="27.95170100" lon="-15.6314680">
        <ele>1142.4930</ele>
        <time>2009-01-05T11:53:00Z</time>
      </trkpt>
      <trkpt lat="27.95173700" lon="-15.6314770">
        <ele>1142.7980</ele>
        <time>2009-01-05T11:53:01Z</time>
      </trkpt>
      <trkpt lat="27.95177200" lon="-15.6314870">
        <ele>1142.8910</ele>
        <time>2009-01-05T11:53:02Z</time>
      </trkpt>
      <trkpt lat="27.95180400" lon="-15.6314980">
        <ele>1143.0500</ele>
        <time>2009-01-05T11:53:03Z</time>
      </trkpt>
      <trkpt lat="27.95183900" lon="-15.6315080">
        <ele>1143.2460</ele>
        <time>2009-01-05T11:53:04Z</time>
      </trkpt>
      <trkpt lat="27.95187300" lon="-15.6315180">
        <ele>1143.5740</ele>
        <time>2009-01-05T11:53:05Z</time>
      </trkpt>
      <trkpt lat="27.95190800" lon="-15.6315280">
        <ele>1143.5720</ele>
        <time>2009-01-05T11:53:06Z</time>
      </trkpt>
      <trkpt lat="27.95194500" lon="-15.6315350">
        <ele>1143.5320</ele>
        <time>2009-01-05T11:53:07Z</time>
      </trkpt>
      <trkpt lat="27.95198000" lon="-15.6315420">
        <ele>1143.5600</ele>
        <time>2009-01-05T11:53:08Z</time>
      </trkpt>
      <trkpt lat="27.95201500" lon="-15.6315510">
        <ele>1143.8240</ele>
        <time>2009-01-05T11:53:09Z</time>
      </trkpt>
      <trkpt lat="27.95204900" lon="-15.6315600">
        <ele>1143.9840</ele>
        <time>2009-01-05T11:53:10Z</time>
      </trkpt>
      <trkpt lat="27.95208200" lon="-15.6315700">
        <ele>1144.1580</ele>
        <time>2009-01-05T11:53:11Z</time>
      </trkpt>
      <trkpt lat="27.95211500" lon="-15.6315800">
        <ele>1144.7480</ele>
        <time>2009-01-05T11:53:12Z</time>
      </trkpt>
      <trkpt lat="27.95214800" lon="-15.6315880">
        <ele>1144.6890</ele>
        <time>2009-01-05T11:53:13Z</time>
      </trkpt>
      <trkpt lat="27.95218200" lon="-15.6315960">
        <ele>1144.6320</ele>
        <time>2009-01-05T11:53:14Z</time>
      </trkpt>
      <trkpt lat="27.95221600" lon="-15.6316040">
        <ele>1145.2670</ele>
        <time>2009-01-05T11:53:15Z</time>
      </trkpt>
      <trkpt lat="27.95225000" lon="-15.6316120">
        <ele>1145.0170</ele>
        <time>2009-01-05T11:53:16Z</time>
      </trkpt>
      <trkpt lat="27.95228400" lon="-15.6316210">
        <ele>1145.3930</ele>
        <time>2009-01-05T11:53:17Z</time>
      </trkpt>
      <trkpt lat="27.95231600" lon="-15.6316310">
        <ele>1145.3990</ele>
        <time>2009-01-05T11:53:18Z</time>
      </trkpt>
      <trkpt lat="27.95234800" lon="-15.6316410">
        <ele>1145.8990</ele>
        <time>2009-01-05T11:53:19Z</time>
      </trkpt>
      <trkpt lat="27.95238000" lon="-15.6316510">
        <ele>1145.9680</ele>
        <time>2009-01-05T11:53:20Z</time>
      </trkpt>
      <trkpt lat="27.95241300" lon="-15.6316590">
        <ele>1146.3600</ele>
        <time>2009-01-05T11:53:21Z</time>
      </trkpt>
      <trkpt lat="27.95244600" lon="-15.6316660">
        <ele>1146.2170</ele>
        <time>2009-01-05T11:53:22Z</time>
      </trkpt>
      <trkpt lat="27.95247800" lon="-15.6316740">
        <ele>1146.4340</ele>
        <time>2009-01-05T11:53:23Z</time>
      </trkpt>
      <trkpt lat="27.95250900" lon="-15.6316840">
        <ele>1147.0580</ele>
        <time>2009-01-05T11:53:24Z</time>
      </trkpt>
      <trkpt lat="27.95253800" lon="-15.6316960">
        <ele>1147.0900</ele>
        <time>2009-01-05T11:53:25Z</time>
      </trkpt>
      <trkpt lat="27.95256800" lon="-15.6317070">
        <ele>1147.7110</ele>
        <time>2009-01-05T11:53:26Z</time>
      </trkpt>
      <trkpt lat="27.95260200" lon="-15.6317170">
        <ele>1147.5800</ele>
        <time>2009-01-05T11:53:27Z</time>
      </trkpt>
      <trkpt lat="27.95263200" lon="-15.6317270">
        <ele>1147.9160</ele>
        <time>2009-01-05T11:53:28Z</time>
      </trkpt>
      <trkpt lat="27.95266400" lon="-15.6317360">
        <ele>1148.0520</ele>
        <time>2009-01-05T11:53:29Z</time>
      </trkpt>
      <trkpt lat="27.95269700" lon="-15.6317410">
        <ele>1148.4060</ele>
        <time>2009-01-05T11:53:30Z</time>
      </trkpt>
      <trkpt lat="27.95273100" lon="-15.6317460">
        <ele>1148.4910</ele>
        <time>2009-01-05T11:53:31Z</time>
      </trkpt>
      <trkpt lat="27.95276400" lon="-15.6317530">
        <ele>1148.6260</ele>
        <time>2009-01-05T11:53:32Z</time>
      </trkpt>
      <trkpt lat="27.95279800" lon="-15.6317600">
        <ele>1148.6740</ele>
        <time>2009-01-05T11:53:33Z</time>
      </trkpt>
      <trkpt lat="27.95283400" lon="-15.6317630">
        <ele>1149.0120</ele>
        <time>2009-01-05T11:53:34Z</time>
      </trkpt>
      <trkpt lat="27.95286900" lon="-15.6317600">
        <ele>1149.5400</ele>
        <time>2009-01-05T11:53:35Z</time>
      </trkpt>
      <trkpt lat="27.95290300" lon="-15.6317500">
        <ele>1149.4820</ele>
        <time>2009-01-05T11:53:36Z</time>
      </trkpt>
      <trkpt lat="27.95293500" lon="-15.6317340">
        <ele>1149.8070</ele>
        <time>2009-01-05T11:53:37Z</time>
      </trkpt>
      <trkpt lat="27.95296400" lon="-15.6317150">
        <ele>1150.0790</ele>
        <time>2009-01-05T11:53:38Z</time>
      </trkpt>
      <trkpt lat="27.95299300" lon="-15.6316910">
        <ele>1150.4330</ele>
        <time>2009-01-05T11:53:39Z</time>
      </trkpt>
      <trkpt lat="27.95301800" lon="-15.6316640">
        <ele>1150.4240</ele>
        <time>2009-01-05T11:53:40Z</time>
      </trkpt>
      <trkpt lat="27.95304000" lon="-15.6316340">
        <ele>1150.7180</ele>
        <time>2009-01-05T11:53:41Z</time>
      </trkpt>
      <trkpt lat="27.95305800" lon="-15.6316030">
        <ele>1150.8050</ele>
        <time>2009-01-05T11:53:42Z</time>
      </trkpt>
      <trkpt lat="27.95307200" lon="-15.6315690">
        <ele>1151.1950</ele>
        <time>2009-01-05T11:53:43Z</time>
      </trkpt>
      <trkpt lat="27.95308400" lon="-15.6315350">
        <ele>1151.7660</ele>
        <time>2009-01-05T11:53:44Z</time>
      </trkpt>
      <trkpt lat="27.95309200" lon="-15.6315010">
        <ele>1152.2510</ele>
        <time>2009-01-05T11:53:45Z</time>
      </trkpt>
      <trkpt lat="27.95309800" lon="-15.6314670">
        <ele>1152.4030</ele>
        <time>2009-01-05T11:53:46Z</time>
      </trkpt>
      <trkpt lat="27.95310000" lon="-15.6314310">
        <ele>1152.4330</ele>
        <time>2009-01-05T11:53:47Z</time>
      </trkpt>
      <trkpt lat="27.95310000" lon="-15.6313960">
        <ele>1152.6170</ele>
        <time>2009-01-05T11:53:48Z</time>
      </trkpt>
      <trkpt lat="27.95309800" lon="-15.6313600">
        <ele>1152.7800</ele>
        <time>2009-01-05T11:53:49Z</time>
      </trkpt>
      <trkpt lat="27.95309500" lon="-15.6313250">
        <ele>1153.1070</ele>
        <time>2009-01-05T11:53:50Z</time>
      </trkpt>
      <trkpt lat="27.95309300" lon="-15.6312910">
        <ele>1153.2170</ele>
        <time>2009-01-05T11:53:51Z</time>
      </trkpt>
      <trkpt lat="27.95309100" lon="-15.6312570">
        <ele>1153.4050</ele>
        <time>2009-01-05T11:53:52Z</time>
      </trkpt>
      <trkpt lat="27.95309100" lon="-15.6312220">
        <ele>1154.0280</ele>
        <time>2009-01-05T11:53:53Z</time>
      </trkpt>
      <trkpt lat="27.95309100" lon="-15.6311850">
        <ele>1154.1110</ele>
        <time>2009-01-05T11:53:54Z</time>
      </trkpt>
      <trkpt lat="27.95309200" lon="-15.6311470">
        <ele>1154.6580</ele>
        <time>2009-01-05T11:53:55Z</time>
      </trkpt>
      <trkpt lat="27.95309200" lon="-15.6311140">
        <ele>1154.8750</ele>
        <time>2009-01-05T11:53:56Z</time>
      </trkpt>
      <trkpt lat="27.95309500" lon="-15.6310810">
        <ele>1155.2670</ele>
        <time>2009-01-05T11:53:57Z</time>
      </trkpt>
      <trkpt lat="27.95309800" lon="-15.6310470">
        <ele>1155.2910</ele>
        <time>2009-01-05T11:53:58Z</time>
      </trkpt>
      <trkpt lat="27.95309800" lon="-15.6310150">
        <ele>1155.6030</ele>
        <time>2009-01-05T11:53:59Z</time>
      </trkpt>
      <trkpt lat="27.95310000" lon="-15.6309840">
        <ele>1155.8330</ele>
        <time>2009-01-05T11:54:00Z</time>
      </trkpt>
      <trkpt lat="27.95310100" lon="-15.6309540">
        <ele>1155.9870</ele>
        <time>2009-01-05T11:54:01Z</time>
      </trkpt>
      <trkpt lat="27.95310500" lon="-15.6309260">
        <ele>1156.0780</ele>
        <time>2009-01-05T11:54:02Z</time>
      </trkpt>
      <trkpt lat="27.95311100" lon="-15.6308960">
        <ele>1156.7710</ele>
        <time>2009-01-05T11:54:03Z</time>
      </trkpt>
      <trkpt lat="27.95312100" lon="-15.6308670">
        <ele>1157.0330</ele>
        <time>2009-01-05T11:54:04Z</time>
      </trkpt>
      <trkpt lat="27.95313400" lon="-15.6308390">
        <ele>1157.5570</ele>
        <time>2009-01-05T11:54:05Z</time>
      </trkpt>
      <trkpt lat="27.95315400" lon="-15.6308120">
        <ele>1157.4070</ele>
        <time>2009-01-05T11:54:06Z</time>
      </trkpt>
      <trkpt lat="27.95316900" lon="-15.6307870">
        <ele>1157.5950</ele>
        <time>2009-01-05T11:54:07Z</time>
      </trkpt>
      <trkpt lat="27.95318700" lon="-15.6307610">
        <ele>1158.2380</ele>
        <time>2009-01-05T11:54:08Z</time>
      </trkpt>
      <trkpt lat="27.95321000" lon="-15.6307350">
        <ele>1157.9530</ele>
        <time>2009-01-05T11:54:09Z</time>
      </trkpt>
      <trkpt lat="27.95323500" lon="-15.6307090">
        <ele>1158.3390</ele>
        <time>2009-01-05T11:54:10Z</time>
      </trkpt>
      <trkpt lat="27.95326200" lon="-15.6306860">
        <ele>1158.5420</ele>
        <time>2009-01-05T11:54:11Z</time>
      </trkpt>
      <trkpt lat="27.95329000" lon="-15.6306630">
        <ele>1158.5270</ele>
        <time>2009-01-05T11:54:12Z</time>
      </trkpt>
      <trkpt lat="27.95331800" lon="-15.6306390">
        <ele>1158.7440</ele>
        <time>2009-01-05T11:54:13Z</time>
      </trkpt>
      <trkpt lat="27.95334300" lon="-15.6306160">
        <ele>1158.6330</ele>
        <time>2009-01-05T11:54:14Z</time>
      </trkpt>
      <trkpt lat="27.95336900" lon="-15.6305930">
        <ele>1159.1350</ele>
        <time>2009-01-05T11:54:15Z</time>
      </trkpt>
      <trkpt lat="27.95339400" lon="-15.6305710">
        <ele>1159.1040</ele>
        <time>2009-01-05T11:54:16Z</time>
      </trkpt>
      <trkpt lat="27.95341900" lon="-15.6305500">
        <ele>1159.0650</ele>
        <time>2009-01-05T11:54:17Z</time>
      </trkpt>
      <trkpt lat="27.95344400" lon="-15.6305300">
        <ele>1159.4140</ele>
        <time>2009-01-05T11:54:18Z</time>
      </trkpt>
      <trkpt lat="27.95346800" lon="-15.6305090">
        <ele>1159.7980</ele>
        <time>2009-01-05T11:54:19Z</time>
      </trkpt>
      <trkpt lat="27.95349200" lon="-15.6304880">
        <ele>1159.8540</ele>
        <time>2009-01-05T11:54:20Z</time>
      </trkpt>
      <trkpt lat="27.95351700" lon="-15.6304660">
        <ele>1160.0940</ele>
        <time>2009-01-05T11:54:21Z</time>
      </trkpt>
      <trkpt lat="27.95354200" lon="-15.6304450">
        <ele>1160.7130</ele>
        <time>2009-01-05T11:54:22Z</time>
      </trkpt>
      <trkpt lat="27.95356800" lon="-15.6304240">
        <ele>1161.3350</ele>
        <time>2009-01-05T11:54:23Z</time>
      </trkpt>
      <trkpt lat="27.95359500" lon="-15.6304030">
        <ele>1161.3880</ele>
        <time>2009-01-05T11:54:24Z</time>
      </trkpt>
      <trkpt lat="27.95362100" lon="-15.6303810">
        <ele>1161.3860</ele>
        <time>2009-01-05T11:54:25Z</time>
      </trkpt>
      <trkpt lat="27.95364700" lon="-15.6303590">
        <ele>1161.4420</ele>
        <time>2009-01-05T11:54:26Z</time>
      </trkpt>
      <trkpt lat="27.95367300" lon="-15.6303360">
        <ele>1161.6940</ele>
        <time>2009-01-05T11:54:27Z</time>
      </trkpt>
      <trkpt lat="27.95369900" lon="-15.6303130">
        <ele>1161.7640</ele>
        <time>2009-01-05T11:54:28Z</time>
      </trkpt>
      <trkpt lat="27.95372400" lon="-15.6302900">
        <ele>1162.1330</ele>
        <time>2009-01-05T11:54:29Z</time>
      </trkpt>
      <trkpt lat="27.95374900" lon="-15.6302660">
        <ele>1162.5390</ele>
        <time>2009-01-05T11:54:30Z</time>
      </trkpt>
      <trkpt lat="27.95377300" lon="-15.6302440">
        <ele>1162.7570</ele>
        <time>2009-01-05T11:54:31Z</time>
      </trkpt>
      <trkpt lat="27.95379700" lon="-15.6302220">
        <ele>1162.8080</ele>
        <time>2009-01-05T11:54:32Z</time>
      </trkpt>
      <trkpt lat="27.95382100" lon="-15.6302010">
        <ele>1162.9680</ele>
        <time>2009-01-05T11:54:33Z</time>
      </trkpt>
      <trkpt lat="27.95384400" lon="-15.6301800">
        <ele>1163.1890</ele>
        <time>2009-01-05T11:54:34Z</time>
      </trkpt>
      <trkpt lat="27.95386600" lon="-15.6301570">
        <ele>1163.2600</ele>
        <time>2009-01-05T11:54:35Z</time>
      </trkpt>
      <trkpt lat="27.95388600" lon="-15.6301340">
        <ele>1163.7190</ele>
        <time>2009-01-05T11:54:36Z</time>
      </trkpt>
      <trkpt lat="27.95390700" lon="-15.6301110">
        <ele>1163.7130</ele>
        <time>2009-01-05T11:54:37Z</time>
      </trkpt>
      <trkpt lat="27.95392700" lon="-15.6300880">
        <ele>1163.9160</ele>
        <time>2009-01-05T11:54:38Z</time>
      </trkpt>
      <trkpt lat="27.95394400" lon="-15.6300620">
        <ele>1164.0630</ele>
        <time>2009-01-05T11:54:39Z</time>
      </trkpt>
      <trkpt lat="27.95396100" lon="-15.6300360">
        <ele>1164.6700</ele>
        <time>2009-01-05T11:54:40Z</time>
      </trkpt>
      <trkpt lat="27.95398100" lon="-15.6300120">
        <ele>1164.5040</ele>
        <time>2009-01-05T11:54:41Z</time>
      </trkpt>
      <trkpt lat="27.95400100" lon="-15.6299870">
        <ele>1165.0290</ele>
        <time>2009-01-05T11:54:42Z</time>
      </trkpt>
      <trkpt lat="27.95401800" lon="-15.6299590">
        <ele>1165.0030</ele>
        <time>2009-01-05T11:54:43Z</time>
      </trkpt>
      <trkpt lat="27.95403300" lon="-15.6299310">
        <ele>1165.0630</ele>
        <time>2009-01-05T11:54:44Z</time>
      </trkpt>
      <trkpt lat="27.95404900" lon="-15.6299030">
        <ele>1165.5840</ele>
        <time>2009-01-05T11:54:45Z</time>
      </trkpt>
      <trkpt lat="27.95406400" lon="-15.6298750">
        <ele>1166.0280</ele>
        <time>2009-01-05T11:54:46Z</time>
      </trkpt>
      <trkpt lat="27.95407700" lon="-15.6298460">
        <ele>1165.8930</ele>
        <time>2009-01-05T11:54:47Z</time>
      </trkpt>
      <trkpt lat="27.95408800" lon="-15.6298150">
        <ele>1166.1680</ele>
        <time>2009-01-05T11:54:48Z</time>
      </trkpt>
      <trkpt lat="27.95410000" lon="-15.6297840">
        <ele>1166.3690</ele>
        <time>2009-01-05T11:54:49Z</time>
      </trkpt>
      <trkpt lat="27.95411200" lon="-15.6297530">
        <ele>1166.4010</ele>
        <time>2009-01-05T11:54:50Z</time>
      </trkpt>
      <trkpt lat="27.95412400" lon="-15.6297210">
        <ele>1166.5010</ele>
        <time>2009-01-05T11:54:51Z</time>
      </trkpt>
      <trkpt lat="27.95413600" lon="-15.6296890">
        <ele>1166.6020</ele>
        <time>2009-01-05T11:54:52Z</time>
      </trkpt>
      <trkpt lat="27.95414700" lon="-15.6296580">
        <ele>1166.8430</ele>
        <time>2009-01-05T11:54:53Z</time>
      </trkpt>
      <trkpt lat="27.95415900" lon="-15.6296260">
        <ele>1167.1420</ele>
        <time>2009-01-05T11:54:54Z</time>
      </trkpt>
      <trkpt lat="27.95417100" lon="-15.6295960">
        <ele>1166.8350</ele>
        <time>2009-01-05T11:54:55Z</time>
      </trkpt>
      <trkpt lat="27.95418100" lon="-15.6295640">
        <ele>1167.5890</ele>
        <time>2009-01-05T11:54:56Z</time>
      </trkpt>
      <trkpt lat="27.95418900" lon="-15.6295300">
        <ele>1167.8580</ele>
        <time>2009-01-05T11:54:57Z</time>
      </trkpt>
      <trkpt lat="27.95419500" lon="-15.6294960">
        <ele>1168.2100</ele>
        <time>2009-01-05T11:54:58Z</time>
      </trkpt>
      <trkpt lat="27.95419900" lon="-15.6294600">
        <ele>1168.1700</ele>
        <time>2009-01-05T11:54:59Z</time>
      </trkpt>
      <trkpt lat="27.95420300" lon="-15.6294230">
        <ele>1168.2810</ele>
        <time>2009-01-05T11:55:00Z</time>
      </trkpt>
      <trkpt lat="27.95420300" lon="-15.6293850">
        <ele>1168.6060</ele>
        <time>2009-01-05T11:55:01Z</time>
      </trkpt>
      <trkpt lat="27.95419800" lon="-15.6293480">
        <ele>1168.8750</ele>
        <time>2009-01-05T11:55:02Z</time>
      </trkpt>
      <trkpt lat="27.95418800" lon="-15.6293100">
        <ele>1168.8460</ele>
        <time>2009-01-05T11:55:03Z</time>
      </trkpt>
      <trkpt lat="27.95417500" lon="-15.6292720">
        <ele>1169.4370</ele>
        <time>2009-01-05T11:55:04Z</time>
      </trkpt>
      <trkpt lat="27.95416000" lon="-15.6292360">
        <ele>1169.2650</ele>
        <time>2009-01-05T11:55:05Z</time>
      </trkpt>
      <trkpt lat="27.95414200" lon="-15.6292000">
        <ele>1169.3490</ele>
        <time>2009-01-05T11:55:06Z</time>
      </trkpt>
      <trkpt lat="27.95412200" lon="-15.6291670">
        <ele>1169.5250</ele>
        <time>2009-01-05T11:55:07Z</time>
      </trkpt>
      <trkpt lat="27.95409900" lon="-15.6291340">
        <ele>1170.0870</ele>
        <time>2009-01-05T11:55:08Z</time>
      </trkpt>
      <trkpt lat="27.95407500" lon="-15.6291020">
        <ele>1170.6360</ele>
        <time>2009-01-05T11:55:09Z</time>
      </trkpt>
      <trkpt lat="27.95404700" lon="-15.6290750">
        <ele>1170.5160</ele>
        <time>2009-01-05T11:55:10Z</time>
      </trkpt>
      <trkpt lat="27.95401500" lon="-15.6290510">
        <ele>1170.3850</ele>
        <time>2009-01-05T11:55:11Z</time>
      </trkpt>
      <trkpt lat="27.95398100" lon="-15.6290280">
        <ele>1170.2630</ele>
        <time>2009-01-05T11:55:12Z</time>
      </trkpt>
      <trkpt lat="27.95394400" lon="-15.6290030">
        <ele>1170.4330</ele>
        <time>2009-01-05T11:55:13Z</time>
      </trkpt>
      <trkpt lat="27.95390500" lon="-15.6289800">
        <ele>1170.7340</ele>
        <time>2009-01-05T11:55:14Z</time>
      </trkpt>
      <trkpt lat="27.95386400" lon="-15.6289600">
        <ele>1170.7440</ele>
        <time>2009-01-05T11:55:15Z</time>
      </trkpt>
      <trkpt lat="27.95382200" lon="-15.6289460">
        <ele>1170.9840</ele>
        <time>2009-01-05T11:55:16Z</time>
      </trkpt>
      <trkpt lat="27.95377800" lon="-15.6289340">
        <ele>1170.7300</ele>
        <time>2009-01-05T11:55:17Z</time>
      </trkpt>
      <trkpt lat="27.95373400" lon="-15.6289190">
        <ele>1171.2220</ele>
        <time>2009-01-05T11:55:18Z</time>
      </trkpt>
      <trkpt lat="27.95368900" lon="-15.6289020">
        <ele>1171.0530</ele>
        <time>2009-01-05T11:55:19Z</time>
      </trkpt>
      <trkpt lat="27.95364000" lon="-15.6288900">
        <ele>1171.2510</ele>
        <time>2009-01-05T11:55:20Z</time>
      </trkpt>
      <trkpt lat="27.95359200" lon="-15.6288820">
        <ele>1171.4660</ele>
        <time>2009-01-05T11:55:21Z</time>
      </trkpt>
      <trkpt lat="27.95354300" lon="-15.6288740">
        <ele>1170.9570</ele>
        <time>2009-01-05T11:55:22Z</time>
      </trkpt>
      <trkpt lat="27.95349500" lon="-15.6288550">
        <ele>1170.7580</ele>
        <time>2009-01-05T11:55:23Z</time>
      </trkpt>
      <trkpt lat="27.95344300" lon="-15.6288400">
        <ele>1171.4920</ele>
        <time>2009-01-05T11:55:24Z</time>
      </trkpt>
      <trkpt lat="27.95338800" lon="-15.6288220">
        <ele>1171.2020</ele>
        <time>2009-01-05T11:55:25Z</time>
      </trkpt>
      <trkpt lat="27.95333300" lon="-15.6288010">
        <ele>1170.4970</ele>
        <time>2009-01-05T11:55:26Z</time>
      </trkpt>
      <trkpt lat="27.95327500" lon="-15.6287900">
        <ele>1170.2210</ele>
        <time>2009-01-05T11:55:27Z</time>
      </trkpt>
      <trkpt lat="27.95321500" lon="-15.6287820">
        <ele>1170.1650</ele>
        <time>2009-01-05T11:55:28Z</time>
      </trkpt>
      <trkpt lat="27.95315500" lon="-15.6287700">
        <ele>1170.0380</ele>
        <time>2009-01-05T11:55:29Z</time>
      </trkpt>
      <trkpt lat="27.95309300" lon="-15.6287580">
        <ele>1170.3060</ele>
        <time>2009-01-05T11:55:30Z</time>
      </trkpt>
      <trkpt lat="27.95303100" lon="-15.6287460">
        <ele>1169.9050</ele>
        <time>2009-01-05T11:55:31Z</time>
      </trkpt>
      <trkpt lat="27.95296700" lon="-15.6287360">
        <ele>1169.8050</ele>
        <time>2009-01-05T11:55:32Z</time>
      </trkpt>
      <trkpt lat="27.95290000" lon="-15.6287270">
        <ele>1169.5410</ele>
        <time>2009-01-05T11:55:33Z</time>
      </trkpt>
      <trkpt lat="27.95283300" lon="-15.6287140">
        <ele>1169.5200</ele>
        <time>2009-01-05T11:55:34Z</time>
      </trkpt>
      <trkpt lat="27.95276500" lon="-15.6287110">
        <ele>1169.5150</ele>
        <time>2009-01-05T11:55:35Z</time>
      </trkpt>
      <trkpt lat="27.95269900" lon="-15.6287100">
        <ele>1169.4120</ele>
        <time>2009-01-05T11:55:36Z</time>
      </trkpt>
      <trkpt lat="27.95263300" lon="-15.6287070">
        <ele>1169.2750</ele>
        <time>2009-01-05T11:55:37Z</time>
      </trkpt>
      <trkpt lat="27.95256600" lon="-15.6287020">
        <ele>1169.0900</ele>
        <time>2009-01-05T11:55:38Z</time>
      </trkpt>
      <trkpt lat="27.95250000" lon="-15.6286990">
        <ele>1169.0670</ele>
        <time>2009-01-05T11:55:39Z</time>
      </trkpt>
      <trkpt lat="27.95243300" lon="-15.6286950">
        <ele>1168.9850</ele>
        <time>2009-01-05T11:55:40Z</time>
      </trkpt>
      <trkpt lat="27.95236700" lon="-15.6286900">
        <ele>1168.8820</ele>
        <time>2009-01-05T11:55:41Z</time>
      </trkpt>
      <trkpt lat="27.95230000" lon="-15.6286840">
        <ele>1168.9710</ele>
        <time>2009-01-05T11:55:42Z</time>
      </trkpt>
      <trkpt lat="27.95223400" lon="-15.6286770">
        <ele>1168.8740</ele>
        <time>2009-01-05T11:55:43Z</time>
      </trkpt>
      <trkpt lat="27.95216900" lon="-15.6286680">
        <ele>1168.6120</ele>
        <time>2009-01-05T11:55:44Z</time>
      </trkpt>
      <trkpt lat="27.95210300" lon="-15.6286590">
        <ele>1168.6960</ele>
        <time>2009-01-05T11:55:45Z</time>
      </trkpt>
      <trkpt lat="27.95203800" lon="-15.6286490">
        <ele>1168.7490</ele>
        <time>2009-01-05T11:55:46Z</time>
      </trkpt>
      <trkpt lat="27.95197300" lon="-15.6286340">
        <ele>1168.6610</ele>
        <time>2009-01-05T11:55:47Z</time>
      </trkpt>
      <trkpt lat="27.95190900" lon="-15.6286100">
        <ele>1168.5240</ele>
        <time>2009-01-05T11:55:48Z</time>
      </trkpt>
      <trkpt lat="27.95185100" lon="-15.6285760">
        <ele>1168.7620</ele>
        <time>2009-01-05T11:55:49Z</time>
      </trkpt>
      <trkpt lat="27.95180000" lon="-15.6285290">
        <ele>1168.7820</ele>
        <time>2009-01-05T11:55:50Z</time>
      </trkpt>
      <trkpt lat="27.95175700" lon="-15.6284740">
        <ele>1168.9740</ele>
        <time>2009-01-05T11:55:51Z</time>
      </trkpt>
      <trkpt lat="27.95172100" lon="-15.6284140">
        <ele>1168.9750</ele>
        <time>2009-01-05T11:55:52Z</time>
      </trkpt>
      <trkpt lat="27.95169100" lon="-15.6283480">
        <ele>1169.1930</ele>
        <time>2009-01-05T11:55:53Z</time>
      </trkpt>
      <trkpt lat="27.95166500" lon="-15.6282840">
        <ele>1169.0800</ele>
        <time>2009-01-05T11:55:54Z</time>
      </trkpt>
      <trkpt lat="27.95164100" lon="-15.6282190">
        <ele>1169.1060</ele>
        <time>2009-01-05T11:55:55Z</time>
      </trkpt>
      <trkpt lat="27.95161900" lon="-15.6281570">
        <ele>1169.5840</ele>
        <time>2009-01-05T11:55:56Z</time>
      </trkpt>
      <trkpt lat="27.95159600" lon="-15.6280970">
        <ele>1169.9040</ele>
        <time>2009-01-05T11:55:57Z</time>
      </trkpt>
      <trkpt lat="27.95157400" lon="-15.6280390">
        <ele>1169.2250</ele>
        <time>2009-01-05T11:55:58Z</time>
      </trkpt>
      <trkpt lat="27.95155400" lon="-15.6279830">
        <ele>1169.3400</ele>
        <time>2009-01-05T11:55:59Z</time>
      </trkpt>
      <trkpt lat="27.95153500" lon="-15.6279290">
        <ele>1169.1770</ele>
        <time>2009-01-05T11:56:00Z</time>
      </trkpt>
      <trkpt lat="27.95151900" lon="-15.6278740">
        <ele>1169.8710</ele>
        <time>2009-01-05T11:56:01Z</time>
      </trkpt>
      <trkpt lat="27.95150600" lon="-15.6278190">
        <ele>1169.9930</ele>
        <time>2009-01-05T11:56:02Z</time>
      </trkpt>
      <trkpt lat="27.95149700" lon="-15.6277650">
        <ele>1170.4630</ele>
        <time>2009-01-05T11:56:03Z</time>
      </trkpt>
      <trkpt lat="27.95149100" lon="-15.6277100">
        <ele>1171.0120</ele>
        <time>2009-01-05T11:56:04Z</time>
      </trkpt>
      <trkpt lat="27.95148800" lon="-15.6276550">
        <ele>1171.0380</ele>
        <time>2009-01-05T11:56:05Z</time>
      </trkpt>
      <trkpt lat="27.95148900" lon="-15.6276010">
        <ele>1170.6990</ele>
        <time>2009-01-05T11:56:06Z</time>
      </trkpt>
      <trkpt lat="27.95149500" lon="-15.6275470">
        <ele>1171.3190</ele>
        <time>2009-01-05T11:56:07Z</time>
      </trkpt>
      <trkpt lat="27.95150600" lon="-15.6274930">
        <ele>1171.0620</ele>
        <time>2009-01-05T11:56:08Z</time>
      </trkpt>
      <trkpt lat="27.95152600" lon="-15.6274410">
        <ele>1170.9390</ele>
        <time>2009-01-05T11:56:09Z</time>
      </trkpt>
      <trkpt lat="27.95154900" lon="-15.6273920">
        <ele>1171.3580</ele>
        <time>2009-01-05T11:56:10Z</time>
      </trkpt>
      <trkpt lat="27.95157900" lon="-15.6273450">
        <ele>1171.5650</ele>
        <time>2009-01-05T11:56:11Z</time>
      </trkpt>
      <trkpt lat="27.95161700" lon="-15.6273010">
        <ele>1171.7700</ele>
        <time>2009-01-05T11:56:12Z</time>
      </trkpt>
      <trkpt lat="27.95164500" lon="-15.6272550">
        <ele>1171.3530</ele>
        <time>2009-01-05T11:56:13Z</time>
      </trkpt>
      <trkpt lat="27.95167500" lon="-15.6272080">
        <ele>1171.2290</ele>
        <time>2009-01-05T11:56:14Z</time>
      </trkpt>
      <trkpt lat="27.95170600" lon="-15.6271610">
        <ele>1172.0810</ele>
        <time>2009-01-05T11:56:15Z</time>
      </trkpt>
      <trkpt lat="27.95174000" lon="-15.6271120">
        <ele>1171.8270</ele>
        <time>2009-01-05T11:56:16Z</time>
      </trkpt>
      <trkpt lat="27.95177500" lon="-15.6270630">
        <ele>1172.0970</ele>
        <time>2009-01-05T11:56:17Z</time>
      </trkpt>
      <trkpt lat="27.95181200" lon="-15.6270160">
        <ele>1171.8430</ele>
        <time>2009-01-05T11:56:18Z</time>
      </trkpt>
      <trkpt lat="27.95184900" lon="-15.6269700">
        <ele>1171.8690</ele>
        <time>2009-01-05T11:56:19Z</time>
      </trkpt>
      <trkpt lat="27.95188800" lon="-15.6269250">
        <ele>1172.1040</ele>
        <time>2009-01-05T11:56:20Z</time>
      </trkpt>
      <trkpt lat="27.95192600" lon="-15.6268800">
        <ele>1172.1930</ele>
        <time>2009-01-05T11:56:21Z</time>
      </trkpt>
      <trkpt lat="27.95196200" lon="-15.6268350">
        <ele>1172.1460</ele>
        <time>2009-01-05T11:56:22Z</time>
      </trkpt>
      <trkpt lat="27.95199600" lon="-15.6267890">
        <ele>1172.2800</ele>
        <time>2009-01-05T11:56:23Z</time>
      </trkpt>
      <trkpt lat="27.95202900" lon="-15.6267430">
        <ele>1172.3270</ele>
        <time>2009-01-05T11:56:24Z</time>
      </trkpt>
      <trkpt lat="27.95206000" lon="-15.6266980">
        <ele>1172.8820</ele>
        <time>2009-01-05T11:56:25Z</time>
      </trkpt>
      <trkpt lat="27.95209000" lon="-15.6266550">
        <ele>1172.6150</ele>
        <time>2009-01-05T11:56:26Z</time>
      </trkpt>
      <trkpt lat="27.95212000" lon="-15.6266140">
        <ele>1172.5880</ele>
        <time>2009-01-05T11:56:27Z</time>
      </trkpt>
      <trkpt lat="27.95214900" lon="-15.6265740">
        <ele>1173.1370</ele>
        <time>2009-01-05T11:56:28Z</time>
      </trkpt>
      <trkpt lat="27.95217800" lon="-15.6265350">
        <ele>1173.4480</ele>
        <time>2009-01-05T11:56:29Z</time>
      </trkpt>
      <trkpt lat="27.95220400" lon="-15.6264960">
        <ele>1173.1650</ele>
        <time>2009-01-05T11:56:30Z</time>
      </trkpt>
      <trkpt lat="27.95223000" lon="-15.6264560">
        <ele>1172.8480</ele>
        <time>2009-01-05T11:56:31Z</time>
      </trkpt>
      <trkpt lat="27.95225500" lon="-15.6264170">
        <ele>1173.0830</ele>
        <time>2009-01-05T11:56:32Z</time>
      </trkpt>
      <trkpt lat="27.95228100" lon="-15.6263790">
        <ele>1173.5750</ele>
        <time>2009-01-05T11:56:33Z</time>
      </trkpt>
      <trkpt lat="27.95230600" lon="-15.6263430">
        <ele>1173.3420</ele>
        <time>2009-01-05T11:56:34Z</time>
      </trkpt>
      <trkpt lat="27.95233300" lon="-15.6263070">
        <ele>1173.6090</ele>
        <time>2009-01-05T11:56:35Z</time>
      </trkpt>
      <trkpt lat="27.95236000" lon="-15.6262730">
        <ele>1174.1930</ele>
        <time>2009-01-05T11:56:36Z</time>
      </trkpt>
      <trkpt lat="27.95238600" lon="-15.6262380">
        <ele>1174.2760</ele>
        <time>2009-01-05T11:56:37Z</time>
      </trkpt>
      <trkpt lat="27.95241300" lon="-15.6262040">
        <ele>1174.5000</ele>
        <time>2009-01-05T11:56:38Z</time>
      </trkpt>
      <trkpt lat="27.95243900" lon="-15.6261710">
        <ele>1174.6010</ele>
        <time>2009-01-05T11:56:39Z</time>
      </trkpt>
      <trkpt lat="27.95246800" lon="-15.6261390">
        <ele>1174.7570</ele>
        <time>2009-01-05T11:56:40Z</time>
      </trkpt>
      <trkpt lat="27.95249900" lon="-15.6261110">
        <ele>1175.0560</ele>
        <time>2009-01-05T11:56:41Z</time>
      </trkpt>
      <trkpt lat="27.95253000" lon="-15.6260850">
        <ele>1175.2600</ele>
        <time>2009-01-05T11:56:42Z</time>
      </trkpt>
      <trkpt lat="27.95256100" lon="-15.6260640">
        <ele>1175.9710</ele>
        <time>2009-01-05T11:56:43Z</time>
      </trkpt>
      <trkpt lat="27.95259400" lon="-15.6260450">
        <ele>1176.1850</ele>
        <time>2009-01-05T11:56:44Z</time>
      </trkpt>
      <trkpt lat="27.95263100" lon="-15.6260280">
        <ele>1176.1620</ele>
        <time>2009-01-05T11:56:45Z</time>
      </trkpt>
      <trkpt lat="27.95266700" lon="-15.6260130">
        <ele>1176.6830</ele>
        <time>2009-01-05T11:56:46Z</time>
      </trkpt>
      <trkpt lat="27.95270300" lon="-15.6260010">
        <ele>1176.5570</ele>
        <time>2009-01-05T11:56:47Z</time>
      </trkpt>
      <trkpt lat="27.95274100" lon="-15.6259930">
        <ele>1176.6830</ele>
        <time>2009-01-05T11:56:48Z</time>
      </trkpt>
      <trkpt lat="27.95278000" lon="-15.6259890">
        <ele>1176.5220</ele>
        <time>2009-01-05T11:56:49Z</time>
      </trkpt>
      <trkpt lat="27.95282000" lon="-15.6259880">
        <ele>1176.7390</ele>
        <time>2009-01-05T11:56:50Z</time>
      </trkpt>
      <trkpt lat="27.95286100" lon="-15.6259900">
        <ele>1176.7530</ele>
        <time>2009-01-05T11:56:51Z</time>
      </trkpt>
      <trkpt lat="27.95290400" lon="-15.6259930">
        <ele>1177.0520</ele>
        <time>2009-01-05T11:56:52Z</time>
      </trkpt>
      <trkpt lat="27.95294800" lon="-15.6259970">
        <ele>1177.3400</ele>
        <time>2009-01-05T11:56:53Z</time>
      </trkpt>
      <trkpt lat="27.95299100" lon="-15.6260010">
        <ele>1177.2030</ele>
        <time>2009-01-05T11:56:54Z</time>
      </trkpt>
      <trkpt lat="27.95303400" lon="-15.6260040">
        <ele>1177.3670</ele>
        <time>2009-01-05T11:56:55Z</time>
      </trkpt>
      <trkpt lat="27.95307700" lon="-15.6260100">
        <ele>1177.6340</ele>
        <time>2009-01-05T11:56:56Z</time>
      </trkpt>
      <trkpt lat="27.95312000" lon="-15.6260170">
        <ele>1177.5960</ele>
        <time>2009-01-05T11:56:57Z</time>
      </trkpt>
      <trkpt lat="27.95316300" lon="-15.6260240">
        <ele>1177.5080</ele>
        <time>2009-01-05T11:56:58Z</time>
      </trkpt>
      <trkpt lat="27.95320600" lon="-15.6260270">
        <ele>1177.7290</ele>
        <time>2009-01-05T11:56:59Z</time>
      </trkpt>
      <trkpt lat="27.95324800" lon="-15.6260230">
        <ele>1178.0820</ele>
        <time>2009-01-05T11:57:00Z</time>
      </trkpt>
      <trkpt lat="27.95328800" lon="-15.6260150">
        <ele>1178.4590</ele>
        <time>2009-01-05T11:57:01Z</time>
      </trkpt>
      <trkpt lat="27.95332800" lon="-15.6260020">
        <ele>1178.6000</ele>
        <time>2009-01-05T11:57:02Z</time>
      </trkpt>
      <trkpt lat="27.95336600" lon="-15.6259850">
        <ele>1178.6900</ele>
        <time>2009-01-05T11:57:03Z</time>
      </trkpt>
      <trkpt lat="27.95340100" lon="-15.6259650">
        <ele>1178.8440</ele>
        <time>2009-01-05T11:57:04Z</time>
      </trkpt>
      <trkpt lat="27.95343300" lon="-15.6259410">
        <ele>1179.1670</ele>
        <time>2009-01-05T11:57:05Z</time>
      </trkpt>
      <trkpt lat="27.95346300" lon="-15.6259150">
        <ele>1179.4290</ele>
        <time>2009-01-05T11:57:06Z</time>
      </trkpt>
      <trkpt lat="27.95348900" lon="-15.6258870">
        <ele>1179.8100</ele>
        <time>2009-01-05T11:57:07Z</time>
      </trkpt>
      <trkpt lat="27.95351300" lon="-15.6258560">
        <ele>1179.8000</ele>
        <time>2009-01-05T11:57:08Z</time>
      </trkpt>
      <trkpt lat="27.95353300" lon="-15.6258240">
        <ele>1179.8370</ele>
        <time>2009-01-05T11:57:09Z</time>
      </trkpt>
      <trkpt lat="27.95355200" lon="-15.6257920">
        <ele>1180.4140</ele>
        <time>2009-01-05T11:57:10Z</time>
      </trkpt>
      <trkpt lat="27.95356700" lon="-15.6257590">
        <ele>1180.7000</ele>
        <time>2009-01-05T11:57:11Z</time>
      </trkpt>
      <trkpt lat="27.95357600" lon="-15.6257230">
        <ele>1180.9670</ele>
        <time>2009-01-05T11:57:12Z</time>
      </trkpt>
      <trkpt lat="27.95358300" lon="-15.6256870">
        <ele>1181.3240</ele>
        <time>2009-01-05T11:57:13Z</time>
      </trkpt>
      <trkpt lat="27.95358800" lon="-15.6256510">
        <ele>1181.6720</ele>
        <time>2009-01-05T11:57:14Z</time>
      </trkpt>
      <trkpt lat="27.95359000" lon="-15.6256140">
        <ele>1181.8150</ele>
        <time>2009-01-05T11:57:15Z</time>
      </trkpt>
      <trkpt lat="27.95358900" lon="-15.6255790">
        <ele>1182.2900</ele>
        <time>2009-01-05T11:57:16Z</time>
      </trkpt>
      <trkpt lat="27.95358500" lon="-15.6255440">
        <ele>1182.3860</ele>
        <time>2009-01-05T11:57:17Z</time>
      </trkpt>
      <trkpt lat="27.95357800" lon="-15.6255090">
        <ele>1182.4940</ele>
        <time>2009-01-05T11:57:18Z</time>
      </trkpt>
      <trkpt lat="27.95357100" lon="-15.6254740">
        <ele>1183.0270</ele>
        <time>2009-01-05T11:57:19Z</time>
      </trkpt>
      <trkpt lat="27.95356500" lon="-15.6254370">
        <ele>1182.9440</ele>
        <time>2009-01-05T11:57:20Z</time>
      </trkpt>
      <trkpt lat="27.95355900" lon="-15.6253990">
        <ele>1183.1240</ele>
        <time>2009-01-05T11:57:21Z</time>
      </trkpt>
      <trkpt lat="27.95355300" lon="-15.6253630">
        <ele>1183.5250</ele>
        <time>2009-01-05T11:57:22Z</time>
      </trkpt>
      <trkpt lat="27.95354700" lon="-15.6253280">
        <ele>1183.9140</ele>
        <time>2009-01-05T11:57:23Z</time>
      </trkpt>
      <trkpt lat="27.95353900" lon="-15.6252940">
        <ele>1183.8000</ele>
        <time>2009-01-05T11:57:24Z</time>
      </trkpt>
      <trkpt lat="27.95353200" lon="-15.6252610">
        <ele>1183.8750</ele>
        <time>2009-01-05T11:57:25Z</time>
      </trkpt>
      <trkpt lat="27.95352500" lon="-15.6252280">
        <ele>1184.4170</ele>
        <time>2009-01-05T11:57:26Z</time>
      </trkpt>
      <trkpt lat="27.95351900" lon="-15.6251940">
        <ele>1184.7850</ele>
        <time>2009-01-05T11:57:27Z</time>
      </trkpt>
      <trkpt lat="27.95351500" lon="-15.6251610">
        <ele>1185.1840</ele>
        <time>2009-01-05T11:57:28Z</time>
      </trkpt>
      <trkpt lat="27.95351200" lon="-15.6251270">
        <ele>1185.3220</ele>
        <time>2009-01-05T11:57:29Z</time>
      </trkpt>
      <trkpt lat="27.95351000" lon="-15.6250940">
        <ele>1185.4550</ele>
        <time>2009-01-05T11:57:30Z</time>
      </trkpt>
      <trkpt lat="27.95350800" lon="-15.6250600">
        <ele>1185.8180</ele>
        <time>2009-01-05T11:57:31Z</time>
      </trkpt>
      <trkpt lat="27.95350700" lon="-15.6250250">
        <ele>1186.3630</ele>
        <time>2009-01-05T11:57:32Z</time>
      </trkpt>
      <trkpt lat="27.95350600" lon="-15.6249890">
        <ele>1186.4190</ele>
        <time>2009-01-05T11:57:33Z</time>
      </trkpt>
      <trkpt lat="27.95350700" lon="-15.6249550">
        <ele>1186.3980</ele>
        <time>2009-01-05T11:57:34Z</time>
      </trkpt>
      <trkpt lat="27.95350800" lon="-15.6249220">
        <ele>1186.8480</ele>
        <time>2009-01-05T11:57:35Z</time>
      </trkpt>
      <trkpt lat="27.95351000" lon="-15.6248890">
        <ele>1187.1790</ele>
        <time>2009-01-05T11:57:36Z</time>
      </trkpt>
      <trkpt lat="27.95351200" lon="-15.6248580">
        <ele>1187.2640</ele>
        <time>2009-01-05T11:57:37Z</time>
      </trkpt>
      <trkpt lat="27.95351500" lon="-15.6248270">
        <ele>1187.8040</ele>
        <time>2009-01-05T11:57:38Z</time>
      </trkpt>
      <trkpt lat="27.95351900" lon="-15.6247970">
        <ele>1187.8410</ele>
        <time>2009-01-05T11:57:39Z</time>
      </trkpt>
      <trkpt lat="27.95352400" lon="-15.6247680">
        <ele>1188.1820</ele>
        <time>2009-01-05T11:57:40Z</time>
      </trkpt>
      <trkpt lat="27.95352900" lon="-15.6247400">
        <ele>1188.3910</ele>
        <time>2009-01-05T11:57:41Z</time>
      </trkpt>
      <trkpt lat="27.95353600" lon="-15.6247120">
        <ele>1188.6690</ele>
        <time>2009-01-05T11:57:42Z</time>
      </trkpt>
      <trkpt lat="27.95354200" lon="-15.6246840">
        <ele>1189.1190</ele>
        <time>2009-01-05T11:57:43Z</time>
      </trkpt>
      <trkpt lat="27.95355000" lon="-15.6246570">
        <ele>1189.5210</ele>
        <time>2009-01-05T11:57:44Z</time>
      </trkpt>
      <trkpt lat="27.95355900" lon="-15.6246290">
        <ele>1189.7350</ele>
        <time>2009-01-05T11:57:45Z</time>
      </trkpt>
      <trkpt lat="27.95357000" lon="-15.6246010">
        <ele>1189.8780</ele>
        <time>2009-01-05T11:57:46Z</time>
      </trkpt>
      <trkpt lat="27.95358600" lon="-15.6245760">
        <ele>1189.8280</ele>
        <time>2009-01-05T11:57:47Z</time>
      </trkpt>
      <trkpt lat="27.95360800" lon="-15.6245520">
        <ele>1190.5310</ele>
        <time>2009-01-05T11:57:48Z</time>
      </trkpt>
      <trkpt lat="27.95362900" lon="-15.6245290">
        <ele>1190.3750</ele>
        <time>2009-01-05T11:57:49Z</time>
      </trkpt>
      <trkpt lat="27.95365200" lon="-15.6245090">
        <ele>1190.6680</ele>
        <time>2009-01-05T11:57:50Z</time>
      </trkpt>
      <trkpt lat="27.95368200" lon="-15.6244910">
        <ele>1190.5940</ele>
        <time>2009-01-05T11:57:51Z</time>
      </trkpt>
      <trkpt lat="27.95371100" lon="-15.6244750">
        <ele>1190.6410</ele>
        <time>2009-01-05T11:57:52Z</time>
      </trkpt>
      <trkpt lat="27.95373800" lon="-15.6244630">
        <ele>1191.4640</ele>
        <time>2009-01-05T11:57:53Z</time>
      </trkpt>
      <trkpt lat="27.95376600" lon="-15.6244510">
        <ele>1191.5170</ele>
        <time>2009-01-05T11:57:54Z</time>
      </trkpt>
      <trkpt lat="27.95379300" lon="-15.6244400">
        <ele>1191.7510</ele>
        <time>2009-01-05T11:57:55Z</time>
      </trkpt>
      <trkpt lat="27.95382000" lon="-15.6244320">
        <ele>1191.7320</ele>
        <time>2009-01-05T11:57:56Z</time>
      </trkpt>
      <trkpt lat="27.95384800" lon="-15.6244280">
        <ele>1191.9530</ele>
        <time>2009-01-05T11:57:57Z</time>
      </trkpt>
      <trkpt lat="27.95387700" lon="-15.6244250">
        <ele>1192.2500</ele>
        <time>2009-01-05T11:57:58Z</time>
      </trkpt>
      <trkpt lat="27.95390600" lon="-15.6244240">
        <ele>1192.2580</ele>
        <time>2009-01-05T11:57:59Z</time>
      </trkpt>
      <trkpt lat="27.95393700" lon="-15.6244250">
        <ele>1192.7190</ele>
        <time>2009-01-05T11:58:00Z</time>
      </trkpt>
      <trkpt lat="27.95396700" lon="-15.6244240">
        <ele>1192.5230</ele>
        <time>2009-01-05T11:58:01Z</time>
      </trkpt>
      <trkpt lat="27.95399900" lon="-15.6244220">
        <ele>1192.6510</ele>
        <time>2009-01-05T11:58:02Z</time>
      </trkpt>
      <trkpt lat="27.95403000" lon="-15.6244200">
        <ele>1192.6450</ele>
        <time>2009-01-05T11:58:03Z</time>
      </trkpt>
      <trkpt lat="27.95406100" lon="-15.6244190">
        <ele>1192.9490</ele>
        <time>2009-01-05T11:58:04Z</time>
      </trkpt>
      <trkpt lat="27.95409100" lon="-15.6244200">
        <ele>1193.1330</ele>
        <time>2009-01-05T11:58:05Z</time>
      </trkpt>
      <trkpt lat="27.95412100" lon="-15.6244200">
        <ele>1193.7510</ele>
        <time>2009-01-05T11:58:06Z</time>
      </trkpt>
      <trkpt lat="27.95414900" lon="-15.6244210">
        <ele>1199.0930</ele>
        <time>2009-01-05T11:58:07Z</time>
      </trkpt>
      <trkpt lat="27.95417800" lon="-15.6244240">
        <ele>1194.5820</ele>
        <time>2009-01-05T11:58:08Z</time>
      </trkpt>
      <trkpt lat="27.95420700" lon="-15.6244270">
        <ele>1194.3400</ele>
        <time>2009-01-05T11:58:09Z</time>
      </trkpt>
      <trkpt lat="27.95423700" lon="-15.6244280">
        <ele>1194.3450</ele>
        <time>2009-01-05T11:58:10Z</time>
      </trkpt>
      <trkpt lat="27.95426700" lon="-15.6244280">
        <ele>1194.3360</ele>
        <time>2009-01-05T11:58:11Z</time>
      </trkpt>
      <trkpt lat="27.95429800" lon="-15.6244280">
        <ele>1194.4670</ele>
        <time>2009-01-05T11:58:12Z</time>
      </trkpt>
      <trkpt lat="27.95432800" lon="-15.6244270">
        <ele>1194.8660</ele>
        <time>2009-01-05T11:58:13Z</time>
      </trkpt>
      <trkpt lat="27.95435800" lon="-15.6244270">
        <ele>1195.0920</ele>
        <time>2009-01-05T11:58:14Z</time>
      </trkpt>
      <trkpt lat="27.95438800" lon="-15.6244260">
        <ele>1195.6200</ele>
        <time>2009-01-05T11:58:15Z</time>
      </trkpt>
      <trkpt lat="27.95441800" lon="-15.6244250">
        <ele>1195.4580</ele>
        <time>2009-01-05T11:58:16Z</time>
      </trkpt>
      <trkpt lat="27.95444900" lon="-15.6244230">
        <ele>1195.8910</ele>
        <time>2009-01-05T11:58:17Z</time>
      </trkpt>
      <trkpt lat="27.95448000" lon="-15.6244230">
        <ele>1195.9770</ele>
        <time>2009-01-05T11:58:18Z</time>
      </trkpt>
      <trkpt lat="27.95451100" lon="-15.6244230">
        <ele>1196.0080</ele>
        <time>2009-01-05T11:58:19Z</time>
      </trkpt>
      <trkpt lat="27.95454500" lon="-15.6244240">
        <ele>1196.2260</ele>
        <time>2009-01-05T11:58:20Z</time>
      </trkpt>
      <trkpt lat="27.95458100" lon="-15.6244250">
        <ele>1196.4150</ele>
        <time>2009-01-05T11:58:21Z</time>
      </trkpt>
      <trkpt lat="27.95461500" lon="-15.6244270">
        <ele>1196.2820</ele>
        <time>2009-01-05T11:58:22Z</time>
      </trkpt>
      <trkpt lat="27.95465100" lon="-15.6244280">
        <ele>1196.5190</ele>
        <time>2009-01-05T11:58:23Z</time>
      </trkpt>
      <trkpt lat="27.95468600" lon="-15.6244260">
        <ele>1196.3930</ele>
        <time>2009-01-05T11:58:24Z</time>
      </trkpt>
      <trkpt lat="27.95472200" lon="-15.6244240">
        <ele>1196.5140</ele>
        <time>2009-01-05T11:58:25Z</time>
      </trkpt>
      <trkpt lat="27.95475800" lon="-15.6244200">
        <ele>1196.5070</ele>
        <time>2009-01-05T11:58:26Z</time>
      </trkpt>
      <trkpt lat="27.95479200" lon="-15.6244150">
        <ele>1196.1840</ele>
        <time>2009-01-05T11:58:27Z</time>
      </trkpt>
      <trkpt lat="27.95482700" lon="-15.6244090">
        <ele>1196.4760</ele>
        <time>2009-01-05T11:58:28Z</time>
      </trkpt>
      <trkpt lat="27.95485800" lon="-15.6244010">
        <ele>1196.4510</ele>
        <time>2009-01-05T11:58:29Z</time>
      </trkpt>
      <trkpt lat="27.95489000" lon="-15.6243910">
        <ele>1196.0680</ele>
        <time>2009-01-05T11:58:30Z</time>
      </trkpt>
      <trkpt lat="27.95492300" lon="-15.6243790">
        <ele>1196.3310</ele>
        <time>2009-01-05T11:58:31Z</time>
      </trkpt>
      <trkpt lat="27.95495500" lon="-15.6243610">
        <ele>1196.6460</ele>
        <time>2009-01-05T11:58:32Z</time>
      </trkpt>
      <trkpt lat="27.95498700" lon="-15.6243380">
        <ele>1196.4740</ele>
        <time>2009-01-05T11:58:33Z</time>
      </trkpt>
      <trkpt lat="27.95501700" lon="-15.6243100">
        <ele>1197.0950</ele>
        <time>2009-01-05T11:58:34Z</time>
      </trkpt>
      <trkpt lat="27.95504300" lon="-15.6242760">
        <ele>1197.3640</ele>
        <time>2009-01-05T11:58:35Z</time>
      </trkpt>
      <trkpt lat="27.95506400" lon="-15.6242380">
        <ele>1197.0860</ele>
        <time>2009-01-05T11:58:36Z</time>
      </trkpt>
      <trkpt lat="27.95507800" lon="-15.6241970">
        <ele>1197.7360</ele>
        <time>2009-01-05T11:58:37Z</time>
      </trkpt>
      <trkpt lat="27.95508700" lon="-15.6241550">
        <ele>1197.5040</ele>
        <time>2009-01-05T11:58:38Z</time>
      </trkpt>
      <trkpt lat="27.95509000" lon="-15.6241120">
        <ele>1198.0940</ele>
        <time>2009-01-05T11:58:39Z</time>
      </trkpt>
      <trkpt lat="27.95508700" lon="-15.6240680">
        <ele>1198.1840</ele>
        <time>2009-01-05T11:58:40Z</time>
      </trkpt>
      <trkpt lat="27.95508200" lon="-15.6240270">
        <ele>1198.5650</ele>
        <time>2009-01-05T11:58:41Z</time>
      </trkpt>
      <trkpt lat="27.95507200" lon="-15.6239850">
        <ele>1198.8730</ele>
        <time>2009-01-05T11:58:42Z</time>
      </trkpt>
      <trkpt lat="27.95505900" lon="-15.6239440">
        <ele>1198.9560</ele>
        <time>2009-01-05T11:58:43Z</time>
      </trkpt>
      <trkpt lat="27.95504500" lon="-15.6239050">
        <ele>1199.0960</ele>
        <time>2009-01-05T11:58:44Z</time>
      </trkpt>
      <trkpt lat="27.95503000" lon="-15.6238650">
        <ele>1199.3850</ele>
        <time>2009-01-05T11:58:45Z</time>
      </trkpt>
      <trkpt lat="27.95501800" lon="-15.6238260">
        <ele>1199.7860</ele>
        <time>2009-01-05T11:58:46Z</time>
      </trkpt>
      <trkpt lat="27.95501000" lon="-15.6237870">
        <ele>1199.8160</ele>
        <time>2009-01-05T11:58:47Z</time>
      </trkpt>
      <trkpt lat="27.95500600" lon="-15.6237470">
        <ele>1200.0440</ele>
        <time>2009-01-05T11:58:48Z</time>
      </trkpt>
      <trkpt lat="27.95500500" lon="-15.6237080">
        <ele>1200.5880</ele>
        <time>2009-01-05T11:58:49Z</time>
      </trkpt>
      <trkpt lat="27.95500400" lon="-15.6236710">
        <ele>1200.6730</ele>
        <time>2009-01-05T11:58:50Z</time>
      </trkpt>
      <trkpt lat="27.95500300" lon="-15.6236350">
        <ele>1201.0760</ele>
        <time>2009-01-05T11:58:51Z</time>
      </trkpt>
      <trkpt lat="27.95500500" lon="-15.6235950">
        <ele>1201.3260</ele>
        <time>2009-01-05T11:58:52Z</time>
      </trkpt>
      <trkpt lat="27.95501300" lon="-15.6235570">
        <ele>1201.5460</ele>
        <time>2009-01-05T11:58:53Z</time>
      </trkpt>
      <trkpt lat="27.95502000" lon="-15.6235160">
        <ele>1202.1700</ele>
        <time>2009-01-05T11:58:54Z</time>
      </trkpt>
      <trkpt lat="27.95502700" lon="-15.6234770">
        <ele>1202.6010</ele>
        <time>2009-01-05T11:58:55Z</time>
      </trkpt>
      <trkpt lat="27.95503600" lon="-15.6234390">
        <ele>1203.2140</ele>
        <time>2009-01-05T11:58:56Z</time>
      </trkpt>
      <trkpt lat="27.95504600" lon="-15.6234020">
        <ele>1202.2530</ele>
        <time>2009-01-05T11:58:57Z</time>
      </trkpt>
      <trkpt lat="27.95506100" lon="-15.6233660">
        <ele>1201.8480</ele>
        <time>2009-01-05T11:58:58Z</time>
      </trkpt>
      <trkpt lat="27.95508000" lon="-15.6233320">
        <ele>1203.2200</ele>
        <time>2009-01-05T11:58:59Z</time>
      </trkpt>
      <trkpt lat="27.95510400" lon="-15.6233010">
        <ele>1202.6480</ele>
        <time>2009-01-05T11:59:00Z</time>
      </trkpt>
      <trkpt lat="27.95513100" lon="-15.6232700">
        <ele>1203.1080</ele>
        <time>2009-01-05T11:59:01Z</time>
      </trkpt>
      <trkpt lat="27.95516000" lon="-15.6232420">
        <ele>1203.1010</ele>
        <time>2009-01-05T11:59:02Z</time>
      </trkpt>
      <trkpt lat="27.95519000" lon="-15.6232140">
        <ele>1203.3420</ele>
        <time>2009-01-05T11:59:03Z</time>
      </trkpt>
      <trkpt lat="27.95521800" lon="-15.6231880">
        <ele>1203.5620</ele>
        <time>2009-01-05T11:59:04Z</time>
      </trkpt>
      <trkpt lat="27.95524700" lon="-15.6231640">
        <ele>1203.8430</ele>
        <time>2009-01-05T11:59:05Z</time>
      </trkpt>
      <trkpt lat="27.95527700" lon="-15.6231440">
        <ele>1204.2080</ele>
        <time>2009-01-05T11:59:06Z</time>
      </trkpt>
      <trkpt lat="27.95530900" lon="-15.6231250">
        <ele>1204.2960</ele>
        <time>2009-01-05T11:59:07Z</time>
      </trkpt>
      <trkpt lat="27.95534200" lon="-15.6231100">
        <ele>1204.4740</ele>
        <time>2009-01-05T11:59:08Z</time>
      </trkpt>
      <trkpt lat="27.95537500" lon="-15.6230980">
        <ele>1204.5310</ele>
        <time>2009-01-05T11:59:09Z</time>
      </trkpt>
      <trkpt lat="27.95540800" lon="-15.6230860">
        <ele>1205.0100</ele>
        <time>2009-01-05T11:59:10Z</time>
      </trkpt>
      <trkpt lat="27.95543900" lon="-15.6230760">
        <ele>1204.9110</ele>
        <time>2009-01-05T11:59:11Z</time>
      </trkpt>
      <trkpt lat="27.95547100" lon="-15.6230690">
        <ele>1205.4700</ele>
        <time>2009-01-05T11:59:12Z</time>
      </trkpt>
      <trkpt lat="27.95550400" lon="-15.6230650">
        <ele>1205.6490</ele>
        <time>2009-01-05T11:59:13Z</time>
      </trkpt>
      <trkpt lat="27.95553600" lon="-15.6230620">
        <ele>1205.8360</ele>
        <time>2009-01-05T11:59:14Z</time>
      </trkpt>
      <trkpt lat="27.95556900" lon="-15.6230580">
        <ele>1206.4940</ele>
        <time>2009-01-05T11:59:15Z</time>
      </trkpt>
      <trkpt lat="27.95560100" lon="-15.6230550">
        <ele>1206.1970</ele>
        <time>2009-01-05T11:59:16Z</time>
      </trkpt>
      <trkpt lat="27.95563200" lon="-15.6230520">
        <ele>1206.7730</ele>
        <time>2009-01-05T11:59:17Z</time>
      </trkpt>
      <trkpt lat="27.95566400" lon="-15.6230480">
        <ele>1206.6220</ele>
        <time>2009-01-05T11:59:18Z</time>
      </trkpt>
      <trkpt lat="27.95569200" lon="-15.6230460">
        <ele>1206.6650</ele>
        <time>2009-01-05T11:59:19Z</time>
      </trkpt>
      <trkpt lat="27.95572600" lon="-15.6230370">
        <ele>1206.7660</ele>
        <time>2009-01-05T11:59:20Z</time>
      </trkpt>
      <trkpt lat="27.95575800" lon="-15.6230330">
        <ele>1207.0280</ele>
        <time>2009-01-05T11:59:21Z</time>
      </trkpt>
      <trkpt lat="27.95579100" lon="-15.6230330">
        <ele>1207.5370</ele>
        <time>2009-01-05T11:59:22Z</time>
      </trkpt>
      <trkpt lat="27.95582400" lon="-15.6230320">
        <ele>1207.5560</ele>
        <time>2009-01-05T11:59:23Z</time>
      </trkpt>
      <trkpt lat="27.95585600" lon="-15.6230290">
        <ele>1207.6320</ele>
        <time>2009-01-05T11:59:24Z</time>
      </trkpt>
      <trkpt lat="27.95588700" lon="-15.6230260">
        <ele>1208.1950</ele>
        <time>2009-01-05T11:59:25Z</time>
      </trkpt>
      <trkpt lat="27.95591800" lon="-15.6230260">
        <ele>1208.4520</ele>
        <time>2009-01-05T11:59:26Z</time>
      </trkpt>
      <trkpt lat="27.95595000" lon="-15.6230240">
        <ele>1208.5560</ele>
        <time>2009-01-05T11:59:27Z</time>
      </trkpt>
      <trkpt lat="27.95598200" lon="-15.6230210">
        <ele>1208.6840</ele>
        <time>2009-01-05T11:59:28Z</time>
      </trkpt>
      <trkpt lat="27.95601500" lon="-15.6230180">
        <ele>1208.7560</ele>
        <time>2009-01-05T11:59:29Z</time>
      </trkpt>
      <trkpt lat="27.95604800" lon="-15.6230160">
        <ele>1209.1310</ele>
        <time>2009-01-05T11:59:30Z</time>
      </trkpt>
      <trkpt lat="27.95608100" lon="-15.6230150">
        <ele>1209.1670</ele>
        <time>2009-01-05T11:59:31Z</time>
      </trkpt>
      <trkpt lat="27.95611400" lon="-15.6230080">
        <ele>1209.4120</ele>
        <time>2009-01-05T11:59:32Z</time>
      </trkpt>
      <trkpt lat="27.95614800" lon="-15.6230010">
        <ele>1209.5570</ele>
        <time>2009-01-05T11:59:33Z</time>
      </trkpt>
      <trkpt lat="27.95618200" lon="-15.6229930">
        <ele>1209.6600</ele>
        <time>2009-01-05T11:59:34Z</time>
      </trkpt>
      <trkpt lat="27.95621500" lon="-15.6229830">
        <ele>1209.4220</ele>
        <time>2009-01-05T11:59:35Z</time>
      </trkpt>
      <trkpt lat="27.95624900" lon="-15.6229710">
        <ele>1209.9510</ele>
        <time>2009-01-05T11:59:36Z</time>
      </trkpt>
      <trkpt lat="27.95628000" lon="-15.6229570">
        <ele>1210.1770</ele>
        <time>2009-01-05T11:59:37Z</time>
      </trkpt>
      <trkpt lat="27.95631100" lon="-15.6229400">
        <ele>1210.0010</ele>
        <time>2009-01-05T11:59:38Z</time>
      </trkpt>
      <trkpt lat="27.95634000" lon="-15.6229200">
        <ele>1210.4330</ele>
        <time>2009-01-05T11:59:39Z</time>
      </trkpt>
      <trkpt lat="27.95636700" lon="-15.6228960">
        <ele>1210.6800</ele>
        <time>2009-01-05T11:59:40Z</time>
      </trkpt>
      <trkpt lat="27.95639200" lon="-15.6228700">
        <ele>1211.6990</ele>
        <time>2009-01-05T11:59:41Z</time>
      </trkpt>
      <trkpt lat="27.95641500" lon="-15.6228420">
        <ele>1211.4500</ele>
        <time>2009-01-05T11:59:42Z</time>
      </trkpt>
      <trkpt lat="27.95643500" lon="-15.6228120">
        <ele>1211.7060</ele>
        <time>2009-01-05T11:59:43Z</time>
      </trkpt>
      <trkpt lat="27.95645100" lon="-15.6227790">
        <ele>1212.0280</ele>
        <time>2009-01-05T11:59:44Z</time>
      </trkpt>
      <trkpt lat="27.95646500" lon="-15.6227470">
        <ele>1212.2710</ele>
        <time>2009-01-05T11:59:45Z</time>
      </trkpt>
      <trkpt lat="27.95647900" lon="-15.6227140">
        <ele>1212.8100</ele>
        <time>2009-01-05T11:59:46Z</time>
      </trkpt>
      <trkpt lat="27.95649000" lon="-15.6226810">
        <ele>1212.5920</ele>
        <time>2009-01-05T11:59:47Z</time>
      </trkpt>
      <trkpt lat="27.95649900" lon="-15.6226460">
        <ele>1212.8410</ele>
        <time>2009-01-05T11:59:48Z</time>
      </trkpt>
      <trkpt lat="27.95650500" lon="-15.6226120">
        <ele>1213.4500</ele>
        <time>2009-01-05T11:59:49Z</time>
      </trkpt>
      <trkpt lat="27.95650800" lon="-15.6225740">
        <ele>1213.4460</ele>
        <time>2009-01-05T11:59:50Z</time>
      </trkpt>
      <trkpt lat="27.95651100" lon="-15.6225380">
        <ele>1213.8350</ele>
        <time>2009-01-05T11:59:51Z</time>
      </trkpt>
      <trkpt lat="27.95651100" lon="-15.6225020">
        <ele>1214.0990</ele>
        <time>2009-01-05T11:59:52Z</time>
      </trkpt>
      <trkpt lat="27.95650900" lon="-15.6224660">
        <ele>1214.0320</ele>
        <time>2009-01-05T11:59:53Z</time>
      </trkpt>
      <trkpt lat="27.95650700" lon="-15.6224280">
        <ele>1214.2830</ele>
        <time>2009-01-05T11:59:54Z</time>
      </trkpt>
      <trkpt lat="27.95650200" lon="-15.6223890">
        <ele>1214.6860</ele>
        <time>2009-01-05T11:59:55Z</time>
      </trkpt>
      <trkpt lat="27.95649100" lon="-15.6223510">
        <ele>1214.4490</ele>
        <time>2009-01-05T11:59:56Z</time>
      </trkpt>
      <trkpt lat="27.95647800" lon="-15.6223150">
        <ele>1214.0940</ele>
        <time>2009-01-05T11:59:57Z</time>
      </trkpt>
      <trkpt lat="27.95646500" lon="-15.6222780">
        <ele>1214.2590</ele>
        <time>2009-01-05T11:59:58Z</time>
      </trkpt>
      <trkpt lat="27.95645100" lon="-15.6222390">
        <ele>1214.4530</ele>
        <time>2009-01-05T11:59:59Z</time>
      </trkpt>
      <trkpt lat="27.95643400" lon="-15.6222030">
        <ele>1214.5760</ele>
        <time>2009-01-05T12:00:00Z</time>
      </trkpt>
      <trkpt lat="27.95641400" lon="-15.6221690">
        <ele>1214.6440</ele>
        <time>2009-01-05T12:00:01Z</time>
      </trkpt>
      <trkpt lat="27.95639100" lon="-15.6221360">
        <ele>1215.0710</ele>
        <time>2009-01-05T12:00:02Z</time>
      </trkpt>
      <trkpt lat="27.95636300" lon="-15.6221070">
        <ele>1214.9150</ele>
        <time>2009-01-05T12:00:03Z</time>
      </trkpt>
      <trkpt lat="27.95633400" lon="-15.6220790">
        <ele>1215.1470</ele>
        <time>2009-01-05T12:00:04Z</time>
      </trkpt>
      <trkpt lat="27.95630200" lon="-15.6220500">
        <ele>1215.5590</ele>
        <time>2009-01-05T12:00:05Z</time>
      </trkpt>
      <trkpt lat="27.95627000" lon="-15.6220250">
        <ele>1215.8710</ele>
        <time>2009-01-05T12:00:06Z</time>
      </trkpt>
      <trkpt lat="27.95623500" lon="-15.6220030">
        <ele>1216.0680</ele>
        <time>2009-01-05T12:00:07Z</time>
      </trkpt>
      <trkpt lat="27.95620100" lon="-15.6219810">
        <ele>1216.1360</ele>
        <time>2009-01-05T12:00:08Z</time>
      </trkpt>
      <trkpt lat="27.95616700" lon="-15.6219610">
        <ele>1216.6780</ele>
        <time>2009-01-05T12:00:09Z</time>
      </trkpt>
      <trkpt lat="27.95613400" lon="-15.6219410">
        <ele>1216.9410</ele>
        <time>2009-01-05T12:00:10Z</time>
      </trkpt>
      <trkpt lat="27.95610200" lon="-15.6219210">
        <ele>1217.3110</ele>
        <time>2009-01-05T12:00:11Z</time>
      </trkpt>
      <trkpt lat="27.95607000" lon="-15.6219030">
        <ele>1217.4330</ele>
        <time>2009-01-05T12:00:12Z</time>
      </trkpt>
      <trkpt lat="27.95603800" lon="-15.6218870">
        <ele>1217.7080</ele>
        <time>2009-01-05T12:00:13Z</time>
      </trkpt>
      <trkpt lat="27.95600700" lon="-15.6218710">
        <ele>1217.8430</ele>
        <time>2009-01-05T12:00:14Z</time>
      </trkpt>
      <trkpt lat="27.95597700" lon="-15.6218530">
        <ele>1218.1680</ele>
        <time>2009-01-05T12:00:15Z</time>
      </trkpt>
      <trkpt lat="27.95594700" lon="-15.6218360">
        <ele>1218.8320</ele>
        <time>2009-01-05T12:00:16Z</time>
      </trkpt>
      <trkpt lat="27.95591900" lon="-15.6218180">
        <ele>1218.8080</ele>
        <time>2009-01-05T12:00:17Z</time>
      </trkpt>
      <trkpt lat="27.95589000" lon="-15.6218020">
        <ele>1219.1460</ele>
        <time>2009-01-05T12:00:18Z</time>
      </trkpt>
      <trkpt lat="27.95586200" lon="-15.6217850">
        <ele>1219.2120</ele>
        <time>2009-01-05T12:00:19Z</time>
      </trkpt>
      <trkpt lat="27.95583400" lon="-15.6217700">
        <ele>1219.6530</ele>
        <time>2009-01-05T12:00:20Z</time>
      </trkpt>
      <trkpt lat="27.95580700" lon="-15.6217550">
        <ele>1219.6370</ele>
        <time>2009-01-05T12:00:21Z</time>
      </trkpt>
      <trkpt lat="27.95577900" lon="-15.6217400">
        <ele>1220.1360</ele>
        <time>2009-01-05T12:00:22Z</time>
      </trkpt>
      <trkpt lat="27.95575300" lon="-15.6217240">
        <ele>1220.2620</ele>
        <time>2009-01-05T12:00:23Z</time>
      </trkpt>
      <trkpt lat="27.95572700" lon="-15.6217080">
        <ele>1220.3540</ele>
        <time>2009-01-05T12:00:24Z</time>
      </trkpt>
      <trkpt lat="27.95570000" lon="-15.6216920">
        <ele>1220.9040</ele>
        <time>2009-01-05T12:00:25Z</time>
      </trkpt>
      <trkpt lat="27.95567400" lon="-15.6216750">
        <ele>1221.2150</ele>
        <time>2009-01-05T12:00:26Z</time>
      </trkpt>
      <trkpt lat="27.95564700" lon="-15.6216570">
        <ele>1221.1910</ele>
        <time>2009-01-05T12:00:27Z</time>
      </trkpt>
      <trkpt lat="27.95562100" lon="-15.6216390">
        <ele>1221.5390</ele>
        <time>2009-01-05T12:00:28Z</time>
      </trkpt>
      <trkpt lat="27.95559600" lon="-15.6216210">
        <ele>1221.7470</ele>
        <time>2009-01-05T12:00:29Z</time>
      </trkpt>
      <trkpt lat="27.95557000" lon="-15.6216020">
        <ele>1222.3330</ele>
        <time>2009-01-05T12:00:30Z</time>
      </trkpt>
      <trkpt lat="27.95554400" lon="-15.6215820">
        <ele>1222.4880</ele>
        <time>2009-01-05T12:00:31Z</time>
      </trkpt>
      <trkpt lat="27.95551800" lon="-15.6215610">
        <ele>1222.9860</ele>
        <time>2009-01-05T12:00:32Z</time>
      </trkpt>
      <trkpt lat="27.95549300" lon="-15.6215410">
        <ele>1223.0860</ele>
        <time>2009-01-05T12:00:33Z</time>
      </trkpt>
      <trkpt lat="27.95546800" lon="-15.6215190">
        <ele>1223.4150</ele>
        <time>2009-01-05T12:00:34Z</time>
      </trkpt>
      <trkpt lat="27.95544400" lon="-15.6214970">
        <ele>1223.6790</ele>
        <time>2009-01-05T12:00:35Z</time>
      </trkpt>
      <trkpt lat="27.95542100" lon="-15.6214750">
        <ele>1223.4880</ele>
        <time>2009-01-05T12:00:36Z</time>
      </trkpt>
      <trkpt lat="27.95539600" lon="-15.6214530">
        <ele>1223.5080</ele>
        <time>2009-01-05T12:00:37Z</time>
      </trkpt>
      <trkpt lat="27.95537200" lon="-15.6214310">
        <ele>1223.9640</ele>
        <time>2009-01-05T12:00:38Z</time>
      </trkpt>
      <trkpt lat="27.95534700" lon="-15.6214110">
        <ele>1224.3680</ele>
        <time>2009-01-05T12:00:39Z</time>
      </trkpt>
      <trkpt lat="27.95532200" lon="-15.6213910">
        <ele>1224.6970</ele>
        <time>2009-01-05T12:00:40Z</time>
      </trkpt>
      <trkpt lat="27.95529800" lon="-15.6213700">
        <ele>1224.5510</ele>
        <time>2009-01-05T12:00:41Z</time>
      </trkpt>
      <trkpt lat="27.95527500" lon="-15.6213490">
        <ele>1224.2330</ele>
        <time>2009-01-05T12:00:42Z</time>
      </trkpt>
      <trkpt lat="27.95525100" lon="-15.6213270">
        <ele>1225.0010</ele>
        <time>2009-01-05T12:00:43Z</time>
      </trkpt>
      <trkpt lat="27.95522800" lon="-15.6213050">
        <ele>1225.2680</ele>
        <time>2009-01-05T12:00:44Z</time>
      </trkpt>
      <trkpt lat="27.95520500" lon="-15.6212840">
        <ele>1225.5070</ele>
        <time>2009-01-05T12:00:45Z</time>
      </trkpt>
      <trkpt lat="27.95518300" lon="-15.6212630">
        <ele>1225.4590</ele>
        <time>2009-01-05T12:00:46Z</time>
      </trkpt>
      <trkpt lat="27.95516300" lon="-15.6212410">
        <ele>1225.5290</ele>
        <time>2009-01-05T12:00:47Z</time>
      </trkpt>
      <trkpt lat="27.95514200" lon="-15.6212190">
        <ele>1226.0540</ele>
        <time>2009-01-05T12:00:48Z</time>
      </trkpt>
      <trkpt lat="27.95512400" lon="-15.6211980">
        <ele>1226.4940</ele>
        <time>2009-01-05T12:00:49Z</time>
      </trkpt>
      <trkpt lat="27.95510600" lon="-15.6211770">
        <ele>1226.7260</ele>
        <time>2009-01-05T12:00:50Z</time>
      </trkpt>
      <trkpt lat="27.95508600" lon="-15.6211570">
        <ele>1227.1740</ele>
        <time>2009-01-05T12:00:51Z</time>
      </trkpt>
      <trkpt lat="27.95506800" lon="-15.6211370">
        <ele>1227.2970</ele>
        <time>2009-01-05T12:00:52Z</time>
      </trkpt>
      <trkpt lat="27.95505000" lon="-15.6211160">
        <ele>1227.7000</ele>
        <time>2009-01-05T12:00:53Z</time>
      </trkpt>
      <trkpt lat="27.95503200" lon="-15.6210940">
        <ele>1228.0450</ele>
        <time>2009-01-05T12:00:54Z</time>
      </trkpt>
      <trkpt lat="27.95501600" lon="-15.6210690">
        <ele>1228.0540</ele>
        <time>2009-01-05T12:00:55Z</time>
      </trkpt>
      <trkpt lat="27.95500100" lon="-15.6210450">
        <ele>1227.9430</ele>
        <time>2009-01-05T12:00:56Z</time>
      </trkpt>
      <trkpt lat="27.95498700" lon="-15.6210190">
        <ele>1228.4460</ele>
        <time>2009-01-05T12:00:57Z</time>
      </trkpt>
      <trkpt lat="27.95497500" lon="-15.6209890">
        <ele>1228.6460</ele>
        <time>2009-01-05T12:00:58Z</time>
      </trkpt>
      <trkpt lat="27.95496400" lon="-15.6209610">
        <ele>1229.1250</ele>
        <time>2009-01-05T12:00:59Z</time>
      </trkpt>
      <trkpt lat="27.95495400" lon="-15.6209320">
        <ele>1229.3030</ele>
        <time>2009-01-05T12:01:00Z</time>
      </trkpt>
      <trkpt lat="27.95495100" lon="-15.6208960">
        <ele>1229.6160</ele>
        <time>2009-01-05T12:01:01Z</time>
      </trkpt>
      <trkpt lat="27.95494800" lon="-15.6208620">
        <ele>1229.7490</ele>
        <time>2009-01-05T12:01:02Z</time>
      </trkpt>
      <trkpt lat="27.95494600" lon="-15.6208250">
        <ele>1230.4220</ele>
        <time>2009-01-05T12:01:03Z</time>
      </trkpt>
      <trkpt lat="27.95494400" lon="-15.6207880">
        <ele>1230.3090</ele>
        <time>2009-01-05T12:01:04Z</time>
      </trkpt>
      <trkpt lat="27.95494200" lon="-15.6207530">
        <ele>1231.0300</ele>
        <time>2009-01-05T12:01:05Z</time>
      </trkpt>
      <trkpt lat="27.95493900" lon="-15.6207170">
        <ele>1230.9950</ele>
        <time>2009-01-05T12:01:06Z</time>
      </trkpt>
      <trkpt lat="27.95493600" lon="-15.6206820">
        <ele>1231.3010</ele>
        <time>2009-01-05T12:01:07Z</time>
      </trkpt>
      <trkpt lat="27.95493200" lon="-15.6206460">
        <ele>1231.4550</ele>
        <time>2009-01-05T12:01:08Z</time>
      </trkpt>
      <trkpt lat="27.95492600" lon="-15.6206110">
        <ele>1231.5380</ele>
        <time>2009-01-05T12:01:09Z</time>
      </trkpt>
      <trkpt lat="27.95491900" lon="-15.6205760">
        <ele>1231.5080</ele>
        <time>2009-01-05T12:01:10Z</time>
      </trkpt>
      <trkpt lat="27.95491000" lon="-15.6205420">
        <ele>1231.9370</ele>
        <time>2009-01-05T12:01:11Z</time>
      </trkpt>
      <trkpt lat="27.95489900" lon="-15.6205080">
        <ele>1232.1570</ele>
        <time>2009-01-05T12:01:12Z</time>
      </trkpt>
      <trkpt lat="27.95488800" lon="-15.6204750">
        <ele>1232.2870</ele>
        <time>2009-01-05T12:01:13Z</time>
      </trkpt>
      <trkpt lat="27.95487700" lon="-15.6204420">
        <ele>1232.6890</ele>
        <time>2009-01-05T12:01:14Z</time>
      </trkpt>
      <trkpt lat="27.95486400" lon="-15.6204090">
        <ele>1232.9530</ele>
        <time>2009-01-05T12:01:15Z</time>
      </trkpt>
      <trkpt lat="27.95484900" lon="-15.6203770">
        <ele>1232.8510</ele>
        <time>2009-01-05T12:01:16Z</time>
      </trkpt>
      <trkpt lat="27.95483200" lon="-15.6203480">
        <ele>1232.9160</ele>
        <time>2009-01-05T12:01:17Z</time>
      </trkpt>
      <trkpt lat="27.95481400" lon="-15.6203190">
        <ele>1233.2880</ele>
        <time>2009-01-05T12:01:18Z</time>
      </trkpt>
      <trkpt lat="27.95479600" lon="-15.6202900">
        <ele>1233.3480</ele>
        <time>2009-01-05T12:01:19Z</time>
      </trkpt>
      <trkpt lat="27.95477700" lon="-15.6202610">
        <ele>1233.4650</ele>
        <time>2009-01-05T12:01:20Z</time>
      </trkpt>
      <trkpt lat="27.95475700" lon="-15.6202340">
        <ele>1233.6330</ele>
        <time>2009-01-05T12:01:21Z</time>
      </trkpt>
      <trkpt lat="27.95473600" lon="-15.6202090">
        <ele>1233.9440</ele>
        <time>2009-01-05T12:01:22Z</time>
      </trkpt>
      <trkpt lat="27.95471300" lon="-15.6201860">
        <ele>1234.0160</ele>
        <time>2009-01-05T12:01:23Z</time>
      </trkpt>
      <trkpt lat="27.95468700" lon="-15.6201670">
        <ele>1234.6510</ele>
        <time>2009-01-05T12:01:24Z</time>
      </trkpt>
      <trkpt lat="27.95466000" lon="-15.6201480">
        <ele>1234.8670</ele>
        <time>2009-01-05T12:01:25Z</time>
      </trkpt>
      <trkpt lat="27.95463300" lon="-15.6201300">
        <ele>1235.1350</ele>
        <time>2009-01-05T12:01:26Z</time>
      </trkpt>
      <trkpt lat="27.95460600" lon="-15.6201160">
        <ele>1235.1940</ele>
        <time>2009-01-05T12:01:27Z</time>
      </trkpt>
      <trkpt lat="27.95457900" lon="-15.6201020">
        <ele>1235.0550</ele>
        <time>2009-01-05T12:01:28Z</time>
      </trkpt>
      <trkpt lat="27.95455000" lon="-15.6200920">
        <ele>1235.4230</ele>
        <time>2009-01-05T12:01:29Z</time>
      </trkpt>
      <trkpt lat="27.95452100" lon="-15.6200860">
        <ele>1235.8440</ele>
        <time>2009-01-05T12:01:30Z</time>
      </trkpt>
      <trkpt lat="27.95449300" lon="-15.6200800">
        <ele>1236.1780</ele>
        <time>2009-01-05T12:01:31Z</time>
      </trkpt>
      <trkpt lat="27.95446600" lon="-15.6200770">
        <ele>1236.2240</ele>
        <time>2009-01-05T12:01:32Z</time>
      </trkpt>
      <trkpt lat="27.95443900" lon="-15.6200750">
        <ele>1236.4860</ele>
        <time>2009-01-05T12:01:33Z</time>
      </trkpt>
      <trkpt lat="27.95441300" lon="-15.6200740">
        <ele>1236.9360</ele>
        <time>2009-01-05T12:01:34Z</time>
      </trkpt>
      <trkpt lat="27.95438800" lon="-15.6200750">
        <ele>1237.2590</ele>
        <time>2009-01-05T12:01:35Z</time>
      </trkpt>
      <trkpt lat="27.95436300" lon="-15.6200750">
        <ele>1237.1410</ele>
        <time>2009-01-05T12:01:36Z</time>
      </trkpt>
      <trkpt lat="27.95433900" lon="-15.6200780">
        <ele>1237.4170</ele>
        <time>2009-01-05T12:01:37Z</time>
      </trkpt>
      <trkpt lat="27.95431500" lon="-15.6200810">
        <ele>1237.7080</ele>
        <time>2009-01-05T12:01:38Z</time>
      </trkpt>
      <trkpt lat="27.95429100" lon="-15.6200820">
        <ele>1237.9500</ele>
        <time>2009-01-05T12:01:39Z</time>
      </trkpt>
      <trkpt lat="27.95426700" lon="-15.6200830">
        <ele>1238.2810</ele>
        <time>2009-01-05T12:01:40Z</time>
      </trkpt>
      <trkpt lat="27.95424400" lon="-15.6200880">
        <ele>1238.5910</ele>
        <time>2009-01-05T12:01:41Z</time>
      </trkpt>
      <trkpt lat="27.95422100" lon="-15.6200960">
        <ele>1238.8850</ele>
        <time>2009-01-05T12:01:42Z</time>
      </trkpt>
      <trkpt lat="27.95419600" lon="-15.6201040">
        <ele>1239.0390</ele>
        <time>2009-01-05T12:01:43Z</time>
      </trkpt>
      <trkpt lat="27.95417100" lon="-15.6201090">
        <ele>1239.3620</ele>
        <time>2009-01-05T12:01:44Z</time>
      </trkpt>
      <trkpt lat="27.95414600" lon="-15.6201110">
        <ele>1239.4880</ele>
        <time>2009-01-05T12:01:45Z</time>
      </trkpt>
      <trkpt lat="27.95412000" lon="-15.6201120">
        <ele>1239.6880</ele>
        <time>2009-01-05T12:01:46Z</time>
      </trkpt>
      <trkpt lat="27.95409500" lon="-15.6201140">
        <ele>1239.4880</ele>
        <time>2009-01-05T12:01:47Z</time>
      </trkpt>
      <trkpt lat="27.95407000" lon="-15.6201170">
        <ele>1239.8310</ele>
        <time>2009-01-05T12:01:48Z</time>
      </trkpt>
      <trkpt lat="27.95404500" lon="-15.6201180">
        <ele>1240.4140</ele>
        <time>2009-01-05T12:01:49Z</time>
      </trkpt>
      <trkpt lat="27.95402100" lon="-15.6201180">
        <ele>1240.7680</ele>
        <time>2009-01-05T12:01:50Z</time>
      </trkpt>
      <trkpt lat="27.95399600" lon="-15.6201160">
        <ele>1240.8730</ele>
        <time>2009-01-05T12:01:51Z</time>
      </trkpt>
      <trkpt lat="27.95397100" lon="-15.6201120">
        <ele>1241.0950</ele>
        <time>2009-01-05T12:01:52Z</time>
      </trkpt>
      <trkpt lat="27.95394700" lon="-15.6201040">
        <ele>1241.4890</ele>
        <time>2009-01-05T12:01:53Z</time>
      </trkpt>
      <trkpt lat="27.95392400" lon="-15.6200930">
        <ele>1241.8430</ele>
        <time>2009-01-05T12:01:54Z</time>
      </trkpt>
      <trkpt lat="27.95389900" lon="-15.6200820">
        <ele>1241.6000</ele>
        <time>2009-01-05T12:01:55Z</time>
      </trkpt>
      <trkpt lat="27.95387400" lon="-15.6200720">
        <ele>1241.9940</ele>
        <time>2009-01-05T12:01:56Z</time>
      </trkpt>
      <trkpt lat="27.95385000" lon="-15.6200620">
        <ele>1241.9370</ele>
        <time>2009-01-05T12:01:57Z</time>
      </trkpt>
      <trkpt lat="27.95382700" lon="-15.6200490">
        <ele>1242.4210</ele>
        <time>2009-01-05T12:01:58Z</time>
      </trkpt>
      <trkpt lat="27.95380600" lon="-15.6200320">
        <ele>1242.7630</ele>
        <time>2009-01-05T12:01:59Z</time>
      </trkpt>
      <trkpt lat="27.95378700" lon="-15.6200110">
        <ele>1242.5680</ele>
        <time>2009-01-05T12:02:00Z</time>
      </trkpt>
      <trkpt lat="27.95376900" lon="-15.6199880">
        <ele>1242.9210</ele>
        <time>2009-01-05T12:02:01Z</time>
      </trkpt>
      <trkpt lat="27.95375100" lon="-15.6199630">
        <ele>1242.9830</ele>
        <time>2009-01-05T12:02:02Z</time>
      </trkpt>
      <trkpt lat="27.95373500" lon="-15.6199360">
        <ele>1243.1720</ele>
        <time>2009-01-05T12:02:03Z</time>
      </trkpt>
      <trkpt lat="27.95372100" lon="-15.6199050">
        <ele>1243.3900</ele>
        <time>2009-01-05T12:02:04Z</time>
      </trkpt>
      <trkpt lat="27.95371100" lon="-15.6198720">
        <ele>1243.8330</ele>
        <time>2009-01-05T12:02:05Z</time>
      </trkpt>
      <trkpt lat="27.95370400" lon="-15.6198380">
        <ele>1243.9750</ele>
        <time>2009-01-05T12:02:06Z</time>
      </trkpt>
      <trkpt lat="27.95370300" lon="-15.6198030">
        <ele>1243.9870</ele>
        <time>2009-01-05T12:02:07Z</time>
      </trkpt>
      <trkpt lat="27.95370600" lon="-15.6197660">
        <ele>1244.0120</ele>
        <time>2009-01-05T12:02:08Z</time>
      </trkpt>
      <trkpt lat="27.95371400" lon="-15.6197290">
        <ele>1244.2100</ele>
        <time>2009-01-05T12:02:09Z</time>
      </trkpt>
      <trkpt lat="27.95372600" lon="-15.6196920">
        <ele>1244.1980</ele>
        <time>2009-01-05T12:02:10Z</time>
      </trkpt>
      <trkpt lat="27.95374000" lon="-15.6196540">
        <ele>1244.3850</ele>
        <time>2009-01-05T12:02:11Z</time>
      </trkpt>
      <trkpt lat="27.95375700" lon="-15.6196160">
        <ele>1244.7960</ele>
        <time>2009-01-05T12:02:12Z</time>
      </trkpt>
      <trkpt lat="27.95377700" lon="-15.6195800">
        <ele>1244.9140</ele>
        <time>2009-01-05T12:02:13Z</time>
      </trkpt>
      <trkpt lat="27.95379800" lon="-15.6195460">
        <ele>1245.1670</ele>
        <time>2009-01-05T12:02:14Z</time>
      </trkpt>
      <trkpt lat="27.95381900" lon="-15.6195120">
        <ele>1245.2690</ele>
        <time>2009-01-05T12:02:15Z</time>
      </trkpt>
      <trkpt lat="27.95383900" lon="-15.6194780">
        <ele>1245.6720</ele>
        <time>2009-01-05T12:02:16Z</time>
      </trkpt>
      <trkpt lat="27.95385800" lon="-15.6194450">
        <ele>1245.8350</ele>
        <time>2009-01-05T12:02:17Z</time>
      </trkpt>
      <trkpt lat="27.95387800" lon="-15.6194140">
        <ele>1246.0540</ele>
        <time>2009-01-05T12:02:18Z</time>
      </trkpt>
      <trkpt lat="27.95389800" lon="-15.6193830">
        <ele>1246.4090</ele>
        <time>2009-01-05T12:02:19Z</time>
      </trkpt>
      <trkpt lat="27.95391500" lon="-15.6193510">
        <ele>1246.4930</ele>
        <time>2009-01-05T12:02:20Z</time>
      </trkpt>
      <trkpt lat="27.95393000" lon="-15.6193210">
        <ele>1246.7830</ele>
        <time>2009-01-05T12:02:21Z</time>
      </trkpt>
      <trkpt lat="27.95394600" lon="-15.6192920">
        <ele>1247.0770</ele>
        <time>2009-01-05T12:02:22Z</time>
      </trkpt>
      <trkpt lat="27.95396300" lon="-15.6192630">
        <ele>1247.3060</ele>
        <time>2009-01-05T12:02:23Z</time>
      </trkpt>
      <trkpt lat="27.95398200" lon="-15.6192360">
        <ele>1247.7780</ele>
        <time>2009-01-05T12:02:24Z</time>
      </trkpt>
      <trkpt lat="27.95400000" lon="-15.6192090">
        <ele>1247.9220</ele>
        <time>2009-01-05T12:02:25Z</time>
      </trkpt>
      <trkpt lat="27.95402000" lon="-15.6191830">
        <ele>1247.9770</ele>
        <time>2009-01-05T12:02:26Z</time>
      </trkpt>
      <trkpt lat="27.95403800" lon="-15.6191560">
        <ele>1248.3670</ele>
        <time>2009-01-05T12:02:27Z</time>
      </trkpt>
      <trkpt lat="27.95405600" lon="-15.6191290">
        <ele>1248.7910</ele>
        <time>2009-01-05T12:02:28Z</time>
      </trkpt>
      <trkpt lat="27.95407200" lon="-15.6191020">
        <ele>1248.9380</ele>
        <time>2009-01-05T12:02:29Z</time>
      </trkpt>
      <trkpt lat="27.95408700" lon="-15.6190740">
        <ele>1249.6610</ele>
        <time>2009-01-05T12:02:30Z</time>
      </trkpt>
      <trkpt lat="27.95410300" lon="-15.6190460">
        <ele>1249.5770</ele>
        <time>2009-01-05T12:02:31Z</time>
      </trkpt>
      <trkpt lat="27.95411900" lon="-15.6190180">
        <ele>1250.0540</ele>
        <time>2009-01-05T12:02:32Z</time>
      </trkpt>
      <trkpt lat="27.95413400" lon="-15.6189900">
        <ele>1249.6670</ele>
        <time>2009-01-05T12:02:33Z</time>
      </trkpt>
      <trkpt lat="27.95414800" lon="-15.6189610">
        <ele>1250.2440</ele>
        <time>2009-01-05T12:02:34Z</time>
      </trkpt>
      <trkpt lat="27.95415900" lon="-15.6189310">
        <ele>1250.7190</ele>
        <time>2009-01-05T12:02:35Z</time>
      </trkpt>
      <trkpt lat="27.95416900" lon="-15.6188990">
        <ele>1250.7780</ele>
        <time>2009-01-05T12:02:36Z</time>
      </trkpt>
      <trkpt lat="27.95417600" lon="-15.6188670">
        <ele>1251.1890</ele>
        <time>2009-01-05T12:02:37Z</time>
      </trkpt>
      <trkpt lat="27.95418100" lon="-15.6188350">
        <ele>1251.6580</ele>
        <time>2009-01-05T12:02:38Z</time>
      </trkpt>
      <trkpt lat="27.95418500" lon="-15.6188020">
        <ele>1252.1510</ele>
        <time>2009-01-05T12:02:39Z</time>
      </trkpt>
      <trkpt lat="27.95418600" lon="-15.6187690">
        <ele>1252.3160</ele>
        <time>2009-01-05T12:02:40Z</time>
      </trkpt>
      <trkpt lat="27.95418600" lon="-15.6187370">
        <ele>1252.5730</ele>
        <time>2009-01-05T12:02:41Z</time>
      </trkpt>
      <trkpt lat="27.95418500" lon="-15.6187040">
        <ele>1252.8700</ele>
        <time>2009-01-05T12:02:42Z</time>
      </trkpt>
      <trkpt lat="27.95418100" lon="-15.6186710">
        <ele>1253.1390</ele>
        <time>2009-01-05T12:02:43Z</time>
      </trkpt>
      <trkpt lat="27.95417700" lon="-15.6186380">
        <ele>1253.4220</ele>
        <time>2009-01-05T12:02:44Z</time>
      </trkpt>
      <trkpt lat="27.95417100" lon="-15.6186050">
        <ele>1253.7040</ele>
        <time>2009-01-05T12:02:45Z</time>
      </trkpt>
      <trkpt lat="27.95416300" lon="-15.6185720">
        <ele>1254.0250</ele>
        <time>2009-01-05T12:02:46Z</time>
      </trkpt>
      <trkpt lat="27.95415000" lon="-15.6185410">
        <ele>1253.9310</ele>
        <time>2009-01-05T12:02:47Z</time>
      </trkpt>
      <trkpt lat="27.95413500" lon="-15.6185120">
        <ele>1254.3820</ele>
        <time>2009-01-05T12:02:48Z</time>
      </trkpt>
      <trkpt lat="27.95412000" lon="-15.6184820">
        <ele>1254.6720</ele>
        <time>2009-01-05T12:02:49Z</time>
      </trkpt>
      <trkpt lat="27.95410700" lon="-15.6184530">
        <ele>1255.4030</ele>
        <time>2009-01-05T12:02:50Z</time>
      </trkpt>
      <trkpt lat="27.95409200" lon="-15.6184240">
        <ele>1255.3440</ele>
        <time>2009-01-05T12:02:51Z</time>
      </trkpt>
      <trkpt lat="27.95401500" lon="-15.6182490">
        <ele>1256.5420</ele>
        <time>2009-01-05T12:02:57Z</time>
      </trkpt>
      <trkpt lat="27.95400600" lon="-15.6182190">
        <ele>1256.5420</ele>
        <time>2009-01-05T12:02:58Z</time>
      </trkpt>
      <trkpt lat="27.95399800" lon="-15.6181890">
        <ele>1257.4540</ele>
        <time>2009-01-05T12:02:59Z</time>
      </trkpt>
      <trkpt lat="27.95399200" lon="-15.6181570">
        <ele>1257.4540</ele>
        <time>2009-01-05T12:03:00Z</time>
      </trkpt>
      <trkpt lat="27.95398700" lon="-15.6181260">
        <ele>1257.8180</ele>
        <time>2009-01-05T12:03:01Z</time>
      </trkpt>
      <trkpt lat="27.95398500" lon="-15.6180940">
        <ele>1257.9390</ele>
        <time>2009-01-05T12:03:02Z</time>
      </trkpt>
      <trkpt lat="27.95398600" lon="-15.6180610">
        <ele>1258.1580</ele>
        <time>2009-01-05T12:03:03Z</time>
      </trkpt>
      <trkpt lat="27.95398900" lon="-15.6180290">
        <ele>1258.3190</ele>
        <time>2009-01-05T12:03:04Z</time>
      </trkpt>
      <trkpt lat="27.95399600" lon="-15.6179970">
        <ele>1258.7090</ele>
        <time>2009-01-05T12:03:05Z</time>
      </trkpt>
      <trkpt lat="27.95400500" lon="-15.6179660">
        <ele>1258.9010</ele>
        <time>2009-01-05T12:03:06Z</time>
      </trkpt>
      <trkpt lat="27.95401600" lon="-15.6179390">
        <ele>1259.0780</ele>
        <time>2009-01-05T12:03:07Z</time>
      </trkpt>
      <trkpt lat="27.95402800" lon="-15.6179110">
        <ele>1259.6340</ele>
        <time>2009-01-05T12:03:08Z</time>
      </trkpt>
      <trkpt lat="27.95404300" lon="-15.6178840">
        <ele>1259.9160</ele>
        <time>2009-01-05T12:03:09Z</time>
      </trkpt>
      <trkpt lat="27.95406200" lon="-15.6178570">
        <ele>1260.2030</ele>
        <time>2009-01-05T12:03:10Z</time>
      </trkpt>
      <trkpt lat="27.95408100" lon="-15.6178290">
        <ele>1260.3470</ele>
        <time>2009-01-05T12:03:11Z</time>
      </trkpt>
      <trkpt lat="27.95410000" lon="-15.6178000">
        <ele>1260.9050</ele>
        <time>2009-01-05T12:03:12Z</time>
      </trkpt>
      <trkpt lat="27.95411900" lon="-15.6177730">
        <ele>1261.0940</ele>
        <time>2009-01-05T12:03:13Z</time>
      </trkpt>
      <trkpt lat="27.95414100" lon="-15.6177460">
        <ele>1261.4920</ele>
        <time>2009-01-05T12:03:14Z</time>
      </trkpt>
      <trkpt lat="27.95416200" lon="-15.6177200">
        <ele>1261.9420</ele>
        <time>2009-01-05T12:03:15Z</time>
      </trkpt>
      <trkpt lat="27.95418500" lon="-15.6176950">
        <ele>1262.0140</ele>
        <time>2009-01-05T12:03:16Z</time>
      </trkpt>
      <trkpt lat="27.95420700" lon="-15.6176710">
        <ele>1262.3770</ele>
        <time>2009-01-05T12:03:17Z</time>
      </trkpt>
      <trkpt lat="27.95423000" lon="-15.6176460">
        <ele>1262.6100</ele>
        <time>2009-01-05T12:03:18Z</time>
      </trkpt>
      <trkpt lat="27.95425200" lon="-15.6176220">
        <ele>1262.7860</ele>
        <time>2009-01-05T12:03:19Z</time>
      </trkpt>
      <trkpt lat="27.95427600" lon="-15.6175990">
        <ele>1263.0510</ele>
        <time>2009-01-05T12:03:20Z</time>
      </trkpt>
      <trkpt lat="27.95429900" lon="-15.6175750">
        <ele>1263.3460</ele>
        <time>2009-01-05T12:03:21Z</time>
      </trkpt>
      <trkpt lat="27.95432100" lon="-15.6175520">
        <ele>1263.4520</ele>
        <time>2009-01-05T12:03:22Z</time>
      </trkpt>
      <trkpt lat="27.95434300" lon="-15.6175300">
        <ele>1264.1060</ele>
        <time>2009-01-05T12:03:23Z</time>
      </trkpt>
      <trkpt lat="27.95436500" lon="-15.6175100">
        <ele>1264.3450</ele>
        <time>2009-01-05T12:03:24Z</time>
      </trkpt>
      <trkpt lat="27.95438600" lon="-15.6174910">
        <ele>1264.7820</ele>
        <time>2009-01-05T12:03:25Z</time>
      </trkpt>
      <trkpt lat="27.95440700" lon="-15.6174730">
        <ele>1264.9280</ele>
        <time>2009-01-05T12:03:26Z</time>
      </trkpt>
      <trkpt lat="27.95443000" lon="-15.6174560">
        <ele>1265.5130</ele>
        <time>2009-01-05T12:03:27Z</time>
      </trkpt>
      <trkpt lat="27.95445400" lon="-15.6174400">
        <ele>1265.7120</ele>
        <time>2009-01-05T12:03:28Z</time>
      </trkpt>
      <trkpt lat="27.95447600" lon="-15.6174240">
        <ele>1265.7970</ele>
        <time>2009-01-05T12:03:29Z</time>
      </trkpt>
      <trkpt lat="27.95449800" lon="-15.6174070">
        <ele>1266.1760</ele>
        <time>2009-01-05T12:03:30Z</time>
      </trkpt>
      <trkpt lat="27.95451800" lon="-15.6173900">
        <ele>1266.0660</ele>
        <time>2009-01-05T12:03:31Z</time>
      </trkpt>
      <trkpt lat="27.95454100" lon="-15.6173750">
        <ele>1266.6030</ele>
        <time>2009-01-05T12:03:32Z</time>
      </trkpt>
      <trkpt lat="27.95456700" lon="-15.6173610">
        <ele>1266.9110</ele>
        <time>2009-01-05T12:03:33Z</time>
      </trkpt>
      <trkpt lat="27.95459200" lon="-15.6173470">
        <ele>1266.9860</ele>
        <time>2009-01-05T12:03:34Z</time>
      </trkpt>
      <trkpt lat="27.95461400" lon="-15.6173320">
        <ele>1267.5250</ele>
        <time>2009-01-05T12:03:35Z</time>
      </trkpt>
      <trkpt lat="27.95463500" lon="-15.6173140">
        <ele>1267.3070</ele>
        <time>2009-01-05T12:03:36Z</time>
      </trkpt>
      <trkpt lat="27.95465500" lon="-15.6172930">
        <ele>1267.8650</ele>
        <time>2009-01-05T12:03:37Z</time>
      </trkpt>
      <trkpt lat="27.95467800" lon="-15.6172750">
        <ele>1267.8500</ele>
        <time>2009-01-05T12:03:38Z</time>
      </trkpt>
      <trkpt lat="27.95470200" lon="-15.6172580">
        <ele>1268.1620</ele>
        <time>2009-01-05T12:03:39Z</time>
      </trkpt>
      <trkpt lat="27.95472500" lon="-15.6172410">
        <ele>1268.4580</ele>
        <time>2009-01-05T12:03:40Z</time>
      </trkpt>
      <trkpt lat="27.95474800" lon="-15.6172230">
        <ele>1268.6310</ele>
        <time>2009-01-05T12:03:41Z</time>
      </trkpt>
      <trkpt lat="27.95477200" lon="-15.6172070">
        <ele>1269.1570</ele>
        <time>2009-01-05T12:03:42Z</time>
      </trkpt>
      <trkpt lat="27.95479600" lon="-15.6171910">
        <ele>1269.1710</ele>
        <time>2009-01-05T12:03:43Z</time>
      </trkpt>
      <trkpt lat="27.95482100" lon="-15.6171740">
        <ele>1269.3330</ele>
        <time>2009-01-05T12:03:44Z</time>
      </trkpt>
      <trkpt lat="27.95484300" lon="-15.6171550">
        <ele>1269.4310</ele>
        <time>2009-01-05T12:03:45Z</time>
      </trkpt>
      <trkpt lat="27.95486400" lon="-15.6171350">
        <ele>1269.8220</ele>
        <time>2009-01-05T12:03:46Z</time>
      </trkpt>
      <trkpt lat="27.95488300" lon="-15.6171130">
        <ele>1270.1240</ele>
        <time>2009-01-05T12:03:47Z</time>
      </trkpt>
      <trkpt lat="27.95490000" lon="-15.6170890">
        <ele>1270.2220</ele>
        <time>2009-01-05T12:03:48Z</time>
      </trkpt>
      <trkpt lat="27.95491700" lon="-15.6170610">
        <ele>1270.4420</ele>
        <time>2009-01-05T12:03:49Z</time>
      </trkpt>
      <trkpt lat="27.95493300" lon="-15.6170310">
        <ele>1270.7330</ele>
        <time>2009-01-05T12:03:50Z</time>
      </trkpt>
      <trkpt lat="27.95494400" lon="-15.6169960">
        <ele>1270.9480</ele>
        <time>2009-01-05T12:03:51Z</time>
      </trkpt>
      <trkpt lat="27.95495300" lon="-15.6169610">
        <ele>1271.7890</ele>
        <time>2009-01-05T12:03:52Z</time>
      </trkpt>
      <trkpt lat="27.95495900" lon="-15.6169270">
        <ele>1271.8380</ele>
        <time>2009-01-05T12:03:53Z</time>
      </trkpt>
      <trkpt lat="27.95496100" lon="-15.6168910">
        <ele>1271.7690</ele>
        <time>2009-01-05T12:03:54Z</time>
      </trkpt>
      <trkpt lat="27.95496000" lon="-15.6168520">
        <ele>1272.7760</ele>
        <time>2009-01-05T12:03:55Z</time>
      </trkpt>
      <trkpt lat="27.95495900" lon="-15.6168130">
        <ele>1272.6240</ele>
        <time>2009-01-05T12:03:56Z</time>
      </trkpt>
      <trkpt lat="27.95495500" lon="-15.6167730">
        <ele>1273.0040</ele>
        <time>2009-01-05T12:03:57Z</time>
      </trkpt>
      <trkpt lat="27.95495000" lon="-15.6167320">
        <ele>1272.8930</ele>
        <time>2009-01-05T12:03:58Z</time>
      </trkpt>
      <trkpt lat="27.95494700" lon="-15.6166900">
        <ele>1273.3320</ele>
        <time>2009-01-05T12:03:59Z</time>
      </trkpt>
      <trkpt lat="27.95494400" lon="-15.6166460">
        <ele>1273.1020</ele>
        <time>2009-01-05T12:04:00Z</time>
      </trkpt>
      <trkpt lat="27.95494000" lon="-15.6166020">
        <ele>1272.5760</ele>
        <time>2009-01-05T12:04:01Z</time>
      </trkpt>
      <trkpt lat="27.95493700" lon="-15.6165570">
        <ele>1273.2600</ele>
        <time>2009-01-05T12:04:02Z</time>
      </trkpt>
      <trkpt lat="27.95493300" lon="-15.6165110">
        <ele>1272.3620</ele>
        <time>2009-01-05T12:04:03Z</time>
      </trkpt>
      <trkpt lat="27.95492800" lon="-15.6164650">
        <ele>1272.7080</ele>
        <time>2009-01-05T12:04:04Z</time>
      </trkpt>
      <trkpt lat="27.95492500" lon="-15.6164200">
        <ele>1273.3690</ele>
        <time>2009-01-05T12:04:05Z</time>
      </trkpt>
      <trkpt lat="27.95492200" lon="-15.6163770">
        <ele>1273.2110</ele>
        <time>2009-01-05T12:04:06Z</time>
      </trkpt>
      <trkpt lat="27.95491900" lon="-15.6163330">
        <ele>1273.6320</ele>
        <time>2009-01-05T12:04:07Z</time>
      </trkpt>
      <trkpt lat="27.95491700" lon="-15.6162900">
        <ele>1273.6270</ele>
        <time>2009-01-05T12:04:08Z</time>
      </trkpt>
      <trkpt lat="27.95491400" lon="-15.6162470">
        <ele>1273.2890</ele>
        <time>2009-01-05T12:04:09Z</time>
      </trkpt>
      <trkpt lat="27.95491000" lon="-15.6162060">
        <ele>1272.5180</ele>
        <time>2009-01-05T12:04:10Z</time>
      </trkpt>
      <trkpt lat="27.95490700" lon="-15.6161640">
        <ele>1272.5010</ele>
        <time>2009-01-05T12:04:11Z</time>
      </trkpt>
      <trkpt lat="27.95490500" lon="-15.6161220">
        <ele>1272.3750</ele>
        <time>2009-01-05T12:04:12Z</time>
      </trkpt>
      <trkpt lat="27.95490300" lon="-15.6160790">
        <ele>1272.8600</ele>
        <time>2009-01-05T12:04:13Z</time>
      </trkpt>
      <trkpt lat="27.95489900" lon="-15.6160350">
        <ele>1272.7010</ele>
        <time>2009-01-05T12:04:14Z</time>
      </trkpt>
      <trkpt lat="27.95489500" lon="-15.6159910">
        <ele>1272.9190</ele>
        <time>2009-01-05T12:04:15Z</time>
      </trkpt>
      <trkpt lat="27.95489100" lon="-15.6159460">
        <ele>1273.4620</ele>
        <time>2009-01-05T12:04:16Z</time>
      </trkpt>
      <trkpt lat="27.95488800" lon="-15.6159020">
        <ele>1273.4290</ele>
        <time>2009-01-05T12:04:17Z</time>
      </trkpt>
      <trkpt lat="27.95488400" lon="-15.6158580">
        <ele>1273.4070</ele>
        <time>2009-01-05T12:04:18Z</time>
      </trkpt>
      <trkpt lat="27.95488000" lon="-15.6158130">
        <ele>1273.7650</ele>
        <time>2009-01-05T12:04:19Z</time>
      </trkpt>
      <trkpt lat="27.95487700" lon="-15.6157680">
        <ele>1273.8330</ele>
        <time>2009-01-05T12:04:20Z</time>
      </trkpt>
      <trkpt lat="27.95487400" lon="-15.6157240">
        <ele>1273.7730</ele>
        <time>2009-01-05T12:04:21Z</time>
      </trkpt>
      <trkpt lat="27.95487300" lon="-15.6156800">
        <ele>1273.7640</ele>
        <time>2009-01-05T12:04:22Z</time>
      </trkpt>
      <trkpt lat="27.95487100" lon="-15.6156360">
        <ele>1274.4290</ele>
        <time>2009-01-05T12:04:23Z</time>
      </trkpt>
      <trkpt lat="27.95486800" lon="-15.6155920">
        <ele>1274.3730</ele>
        <time>2009-01-05T12:04:24Z</time>
      </trkpt>
      <trkpt lat="27.95486400" lon="-15.6155480">
        <ele>1274.1340</ele>
        <time>2009-01-05T12:04:25Z</time>
      </trkpt>
      <trkpt lat="27.95486000" lon="-15.6155040">
        <ele>1274.3100</ele>
        <time>2009-01-05T12:04:26Z</time>
      </trkpt>
      <trkpt lat="27.95485600" lon="-15.6154580">
        <ele>1273.9970</ele>
        <time>2009-01-05T12:04:27Z</time>
      </trkpt>
      <trkpt lat="27.95485400" lon="-15.6154130">
        <ele>1273.8690</ele>
        <time>2009-01-05T12:04:28Z</time>
      </trkpt>
      <trkpt lat="27.95485300" lon="-15.6153680">
        <ele>1274.0510</ele>
        <time>2009-01-05T12:04:29Z</time>
      </trkpt>
      <trkpt lat="27.95485400" lon="-15.6153230">
        <ele>1274.3540</ele>
        <time>2009-01-05T12:04:30Z</time>
      </trkpt>
      <trkpt lat="27.95485600" lon="-15.6152780">
        <ele>1274.5620</ele>
        <time>2009-01-05T12:04:31Z</time>
      </trkpt>
      <trkpt lat="27.95485900" lon="-15.6152340">
        <ele>1274.4750</ele>
        <time>2009-01-05T12:04:32Z</time>
      </trkpt>
      <trkpt lat="27.95486600" lon="-15.6151910">
        <ele>1274.5640</ele>
        <time>2009-01-05T12:04:33Z</time>
      </trkpt>
      <trkpt lat="27.95487700" lon="-15.6151470">
        <ele>1274.5600</ele>
        <time>2009-01-05T12:04:34Z</time>
      </trkpt>
      <trkpt lat="27.95488700" lon="-15.6151020">
        <ele>1274.9750</ele>
        <time>2009-01-05T12:04:35Z</time>
      </trkpt>
      <trkpt lat="27.95489700" lon="-15.6150570">
        <ele>1275.0140</ele>
        <time>2009-01-05T12:04:36Z</time>
      </trkpt>
      <trkpt lat="27.95490700" lon="-15.6150120">
        <ele>1274.8700</ele>
        <time>2009-01-05T12:04:37Z</time>
      </trkpt>
      <trkpt lat="27.95491700" lon="-15.6149690">
        <ele>1274.9070</ele>
        <time>2009-01-05T12:04:38Z</time>
      </trkpt>
      <trkpt lat="27.95492700" lon="-15.6149260">
        <ele>1275.3260</ele>
        <time>2009-01-05T12:04:39Z</time>
      </trkpt>
      <trkpt lat="27.95493700" lon="-15.6148840">
        <ele>1275.8040</ele>
        <time>2009-01-05T12:04:40Z</time>
      </trkpt>
      <trkpt lat="27.95494800" lon="-15.6148430">
        <ele>1275.8750</ele>
        <time>2009-01-05T12:04:41Z</time>
      </trkpt>
      <trkpt lat="27.95496000" lon="-15.6148040">
        <ele>1276.0250</ele>
        <time>2009-01-05T12:04:42Z</time>
      </trkpt>
      <trkpt lat="27.95497100" lon="-15.6147660">
        <ele>1276.1610</ele>
        <time>2009-01-05T12:04:43Z</time>
      </trkpt>
      <trkpt lat="27.95498400" lon="-15.6147280">
        <ele>1276.0600</ele>
        <time>2009-01-05T12:04:44Z</time>
      </trkpt>
      <trkpt lat="27.95499600" lon="-15.6146890">
        <ele>1276.6800</ele>
        <time>2009-01-05T12:04:45Z</time>
      </trkpt>
      <trkpt lat="27.95500700" lon="-15.6146490">
        <ele>1276.6500</ele>
        <time>2009-01-05T12:04:46Z</time>
      </trkpt>
      <trkpt lat="27.95501700" lon="-15.6146090">
        <ele>1276.1470</ele>
        <time>2009-01-05T12:04:47Z</time>
      </trkpt>
      <trkpt lat="27.95502800" lon="-15.6145680">
        <ele>1276.1330</ele>
        <time>2009-01-05T12:04:48Z</time>
      </trkpt>
      <trkpt lat="27.95504100" lon="-15.6145280">
        <ele>1276.3940</ele>
        <time>2009-01-05T12:04:49Z</time>
      </trkpt>
      <trkpt lat="27.95505600" lon="-15.6144880">
        <ele>1276.6520</ele>
        <time>2009-01-05T12:04:50Z</time>
      </trkpt>
      <trkpt lat="27.95507100" lon="-15.6144470">
        <ele>1276.6800</ele>
        <time>2009-01-05T12:04:51Z</time>
      </trkpt>
      <trkpt lat="27.95508700" lon="-15.6144060">
        <ele>1276.8270</ele>
        <time>2009-01-05T12:04:52Z</time>
      </trkpt>
      <trkpt lat="27.95510100" lon="-15.6143640">
        <ele>1276.8980</ele>
        <time>2009-01-05T12:04:53Z</time>
      </trkpt>
      <trkpt lat="27.95511500" lon="-15.6143230">
        <ele>1277.5600</ele>
        <time>2009-01-05T12:04:54Z</time>
      </trkpt>
      <trkpt lat="27.95512700" lon="-15.6142820">
        <ele>1277.4380</ele>
        <time>2009-01-05T12:04:55Z</time>
      </trkpt>
      <trkpt lat="27.95513900" lon="-15.6142410">
        <ele>1277.4760</ele>
        <time>2009-01-05T12:04:56Z</time>
      </trkpt>
      <trkpt lat="27.95515000" lon="-15.6142000">
        <ele>1277.7610</ele>
        <time>2009-01-05T12:04:57Z</time>
      </trkpt>
      <trkpt lat="27.95516200" lon="-15.6141600">
        <ele>1278.1460</ele>
        <time>2009-01-05T12:04:58Z</time>
      </trkpt>
      <trkpt lat="27.95517700" lon="-15.6141210">
        <ele>1278.0330</ele>
        <time>2009-01-05T12:04:59Z</time>
      </trkpt>
      <trkpt lat="27.95519400" lon="-15.6140820">
        <ele>1278.0240</ele>
        <time>2009-01-05T12:05:00Z</time>
      </trkpt>
      <trkpt lat="27.95521100" lon="-15.6140430">
        <ele>1278.1980</ele>
        <time>2009-01-05T12:05:01Z</time>
      </trkpt>
      <trkpt lat="27.95522700" lon="-15.6140040">
        <ele>1277.9720</ele>
        <time>2009-01-05T12:05:02Z</time>
      </trkpt>
      <trkpt lat="27.95524400" lon="-15.6139660">
        <ele>1278.1320</ele>
        <time>2009-01-05T12:05:03Z</time>
      </trkpt>
      <trkpt lat="27.95526300" lon="-15.6139300">
        <ele>1278.3370</ele>
        <time>2009-01-05T12:05:04Z</time>
      </trkpt>
      <trkpt lat="27.95528300" lon="-15.6138950">
        <ele>1278.9390</ele>
        <time>2009-01-05T12:05:05Z</time>
      </trkpt>
      <trkpt lat="27.95530300" lon="-15.6138610">
        <ele>1278.9670</ele>
        <time>2009-01-05T12:05:06Z</time>
      </trkpt>
      <trkpt lat="27.95532300" lon="-15.6138270">
        <ele>1279.0060</ele>
        <time>2009-01-05T12:05:07Z</time>
      </trkpt>
      <trkpt lat="27.95534300" lon="-15.6137940">
        <ele>1279.3140</ele>
        <time>2009-01-05T12:05:08Z</time>
      </trkpt>
      <trkpt lat="27.95536600" lon="-15.6137630">
        <ele>1279.2680</ele>
        <time>2009-01-05T12:05:09Z</time>
      </trkpt>
      <trkpt lat="27.95539100" lon="-15.6137320">
        <ele>1279.3940</ele>
        <time>2009-01-05T12:05:10Z</time>
      </trkpt>
      <trkpt lat="27.95541900" lon="-15.6137020">
        <ele>1279.4190</ele>
        <time>2009-01-05T12:05:11Z</time>
      </trkpt>
      <trkpt lat="27.95544600" lon="-15.6136730">
        <ele>1279.4710</ele>
        <time>2009-01-05T12:05:12Z</time>
      </trkpt>
      <trkpt lat="27.95547200" lon="-15.6136440">
        <ele>1279.8720</ele>
        <time>2009-01-05T12:05:13Z</time>
      </trkpt>
      <trkpt lat="27.95549700" lon="-15.6136170">
        <ele>1280.2720</ele>
        <time>2009-01-05T12:05:14Z</time>
      </trkpt>
      <trkpt lat="27.95552100" lon="-15.6135900">
        <ele>1280.3750</ele>
        <time>2009-01-05T12:05:15Z</time>
      </trkpt>
      <trkpt lat="27.95554500" lon="-15.6135640">
        <ele>1280.6350</ele>
        <time>2009-01-05T12:05:16Z</time>
      </trkpt>
      <trkpt lat="27.95556800" lon="-15.6135380">
        <ele>1280.8510</ele>
        <time>2009-01-05T12:05:17Z</time>
      </trkpt>
      <trkpt lat="27.95559100" lon="-15.6135130">
        <ele>1280.7610</ele>
        <time>2009-01-05T12:05:18Z</time>
      </trkpt>
      <trkpt lat="27.95561600" lon="-15.6134900">
        <ele>1281.2460</ele>
        <time>2009-01-05T12:05:19Z</time>
      </trkpt>
      <trkpt lat="27.95564200" lon="-15.6134680">
        <ele>1281.3750</ele>
        <time>2009-01-05T12:05:20Z</time>
      </trkpt>
      <trkpt lat="27.95566700" lon="-15.6134450">
        <ele>1281.5520</ele>
        <time>2009-01-05T12:05:21Z</time>
      </trkpt>
      <trkpt lat="27.95569200" lon="-15.6134200">
        <ele>1281.5960</ele>
        <time>2009-01-05T12:05:22Z</time>
      </trkpt>
      <trkpt lat="27.95571500" lon="-15.6133930">
        <ele>1281.7200</ele>
        <time>2009-01-05T12:05:23Z</time>
      </trkpt>
      <trkpt lat="27.95573700" lon="-15.6133640">
        <ele>1281.9010</ele>
        <time>2009-01-05T12:05:24Z</time>
      </trkpt>
      <trkpt lat="27.95575900" lon="-15.6133350">
        <ele>1282.0390</ele>
        <time>2009-01-05T12:05:25Z</time>
      </trkpt>
      <trkpt lat="27.95578200" lon="-15.6133080">
        <ele>1282.6170</ele>
        <time>2009-01-05T12:05:26Z</time>
      </trkpt>
      <trkpt lat="27.95580500" lon="-15.6132810">
        <ele>1282.8680</ele>
        <time>2009-01-05T12:05:27Z</time>
      </trkpt>
      <trkpt lat="27.95582800" lon="-15.6132540">
        <ele>1282.9040</ele>
        <time>2009-01-05T12:05:28Z</time>
      </trkpt>
      <trkpt lat="27.95585100" lon="-15.6132280">
        <ele>1283.1500</ele>
        <time>2009-01-05T12:05:29Z</time>
      </trkpt>
      <trkpt lat="27.95587300" lon="-15.6132020">
        <ele>1283.3340</ele>
        <time>2009-01-05T12:05:30Z</time>
      </trkpt>
      <trkpt lat="27.95589500" lon="-15.6131770">
        <ele>1283.9260</ele>
        <time>2009-01-05T12:05:31Z</time>
      </trkpt>
      <trkpt lat="27.95591800" lon="-15.6131520">
        <ele>1284.3380</ele>
        <time>2009-01-05T12:05:32Z</time>
      </trkpt>
      <trkpt lat="27.95594100" lon="-15.6131290">
        <ele>1284.5140</ele>
        <time>2009-01-05T12:05:33Z</time>
      </trkpt>
      <trkpt lat="27.95596300" lon="-15.6131050">
        <ele>1284.5240</ele>
        <time>2009-01-05T12:05:34Z</time>
      </trkpt>
      <trkpt lat="27.95598400" lon="-15.6130800">
        <ele>1284.9150</ele>
        <time>2009-01-05T12:05:35Z</time>
      </trkpt>
      <trkpt lat="27.95600500" lon="-15.6130550">
        <ele>1285.3220</ele>
        <time>2009-01-05T12:05:36Z</time>
      </trkpt>
      <trkpt lat="27.95602500" lon="-15.6130300">
        <ele>1285.5060</ele>
        <time>2009-01-05T12:05:37Z</time>
      </trkpt>
      <trkpt lat="27.95604500" lon="-15.6130050">
        <ele>1285.6110</ele>
        <time>2009-01-05T12:05:38Z</time>
      </trkpt>
      <trkpt lat="27.95606700" lon="-15.6129800">
        <ele>1285.8330</ele>
        <time>2009-01-05T12:05:39Z</time>
      </trkpt>
      <trkpt lat="27.95608900" lon="-15.6129540">
        <ele>1286.4430</ele>
        <time>2009-01-05T12:05:40Z</time>
      </trkpt>
      <trkpt lat="27.95611300" lon="-15.6129290">
        <ele>1287.0770</ele>
        <time>2009-01-05T12:05:41Z</time>
      </trkpt>
      <trkpt lat="27.95613700" lon="-15.6129050">
        <ele>1286.6610</ele>
        <time>2009-01-05T12:05:42Z</time>
      </trkpt>
      <trkpt lat="27.95616300" lon="-15.6128810">
        <ele>1286.6790</ele>
        <time>2009-01-05T12:05:43Z</time>
      </trkpt>
      <trkpt lat="27.95618900" lon="-15.6128570">
        <ele>1286.8560</ele>
        <time>2009-01-05T12:05:44Z</time>
      </trkpt>
      <trkpt lat="27.95621600" lon="-15.6128340">
        <ele>1287.1330</ele>
        <time>2009-01-05T12:05:45Z</time>
      </trkpt>
      <trkpt lat="27.95624300" lon="-15.6128110">
        <ele>1287.4260</ele>
        <time>2009-01-05T12:05:46Z</time>
      </trkpt>
      <trkpt lat="27.95627200" lon="-15.6127860">
        <ele>1287.2690</ele>
        <time>2009-01-05T12:05:47Z</time>
      </trkpt>
      <trkpt lat="27.95630200" lon="-15.6127620">
        <ele>1288.1170</ele>
        <time>2009-01-05T12:05:48Z</time>
      </trkpt>
      <trkpt lat="27.95633400" lon="-15.6127360">
        <ele>1288.1010</ele>
        <time>2009-01-05T12:05:49Z</time>
      </trkpt>
      <trkpt lat="27.95636700" lon="-15.6127120">
        <ele>1288.0850</ele>
        <time>2009-01-05T12:05:50Z</time>
      </trkpt>
      <trkpt lat="27.95640100" lon="-15.6126890">
        <ele>1288.8480</ele>
        <time>2009-01-05T12:05:51Z</time>
      </trkpt>
      <trkpt lat="27.95643600" lon="-15.6126670">
        <ele>1288.1870</ele>
        <time>2009-01-05T12:05:52Z</time>
      </trkpt>
      <trkpt lat="27.95647100" lon="-15.6126450">
        <ele>1288.6280</ele>
        <time>2009-01-05T12:05:53Z</time>
      </trkpt>
      <trkpt lat="27.95650500" lon="-15.6126230">
        <ele>1288.6230</ele>
        <time>2009-01-05T12:05:54Z</time>
      </trkpt>
      <trkpt lat="27.95654000" lon="-15.6126020">
        <ele>1289.1670</ele>
        <time>2009-01-05T12:05:55Z</time>
      </trkpt>
      <trkpt lat="27.95657400" lon="-15.6125810">
        <ele>1289.0040</ele>
        <time>2009-01-05T12:05:56Z</time>
      </trkpt>
      <trkpt lat="27.95660700" lon="-15.6125600">
        <ele>1289.5790</ele>
        <time>2009-01-05T12:05:57Z</time>
      </trkpt>
      <trkpt lat="27.95664000" lon="-15.6125380">
        <ele>1290.2300</ele>
        <time>2009-01-05T12:05:58Z</time>
      </trkpt>
      <trkpt lat="27.95667400" lon="-15.6125170">
        <ele>1290.7240</ele>
        <time>2009-01-05T12:05:59Z</time>
      </trkpt>
      <trkpt lat="27.95670800" lon="-15.6124970">
        <ele>1290.8690</ele>
        <time>2009-01-05T12:06:00Z</time>
      </trkpt>
      <trkpt lat="27.95674300" lon="-15.6124760">
        <ele>1290.7690</ele>
        <time>2009-01-05T12:06:01Z</time>
      </trkpt>
      <trkpt lat="27.95677700" lon="-15.6124560">
        <ele>1290.8800</ele>
        <time>2009-01-05T12:06:02Z</time>
      </trkpt>
      <trkpt lat="27.95681200" lon="-15.6124360">
        <ele>1291.1330</ele>
        <time>2009-01-05T12:06:03Z</time>
      </trkpt>
      <trkpt lat="27.95684600" lon="-15.6124150">
        <ele>1291.3420</ele>
        <time>2009-01-05T12:06:04Z</time>
      </trkpt>
      <trkpt lat="27.95687700" lon="-15.6123930">
        <ele>1291.4250</ele>
        <time>2009-01-05T12:06:05Z</time>
      </trkpt>
      <trkpt lat="27.95690600" lon="-15.6123700">
        <ele>1292.0030</ele>
        <time>2009-01-05T12:06:06Z</time>
      </trkpt>
      <trkpt lat="27.95693400" lon="-15.6123460">
        <ele>1292.1750</ele>
        <time>2009-01-05T12:06:07Z</time>
      </trkpt>
      <trkpt lat="27.95696000" lon="-15.6123220">
        <ele>1292.3340</ele>
        <time>2009-01-05T12:06:08Z</time>
      </trkpt>
      <trkpt lat="27.95698900" lon="-15.6122970">
        <ele>1292.8530</ele>
        <time>2009-01-05T12:06:09Z</time>
      </trkpt>
      <trkpt lat="27.95701900" lon="-15.6122710">
        <ele>1293.0140</ele>
        <time>2009-01-05T12:06:10Z</time>
      </trkpt>
      <trkpt lat="27.95704800" lon="-15.6122450">
        <ele>1293.0190</ele>
        <time>2009-01-05T12:06:11Z</time>
      </trkpt>
      <trkpt lat="27.95707100" lon="-15.6122150">
        <ele>1293.4690</ele>
        <time>2009-01-05T12:06:12Z</time>
      </trkpt>
      <trkpt lat="27.95709000" lon="-15.6121840">
        <ele>1293.4670</ele>
        <time>2009-01-05T12:06:13Z</time>
      </trkpt>
      <trkpt lat="27.95711200" lon="-15.6121530">
        <ele>1293.6600</ele>
        <time>2009-01-05T12:06:14Z</time>
      </trkpt>
      <trkpt lat="27.95713400" lon="-15.6121220">
        <ele>1293.7570</ele>
        <time>2009-01-05T12:06:15Z</time>
      </trkpt>
      <trkpt lat="27.95715600" lon="-15.6120900">
        <ele>1294.3100</ele>
        <time>2009-01-05T12:06:16Z</time>
      </trkpt>
      <trkpt lat="27.95717700" lon="-15.6120560">
        <ele>1295.0050</ele>
        <time>2009-01-05T12:06:17Z</time>
      </trkpt>
      <trkpt lat="27.95719700" lon="-15.6120240">
        <ele>1294.7280</ele>
        <time>2009-01-05T12:06:18Z</time>
      </trkpt>
      <trkpt lat="27.95721900" lon="-15.6119910">
        <ele>1295.0100</ele>
        <time>2009-01-05T12:06:19Z</time>
      </trkpt>
      <trkpt lat="27.95724000" lon="-15.6119590">
        <ele>1295.1050</ele>
        <time>2009-01-05T12:06:20Z</time>
      </trkpt>
      <trkpt lat="27.95726200" lon="-15.6119280">
        <ele>1295.4020</ele>
        <time>2009-01-05T12:06:21Z</time>
      </trkpt>
      <trkpt lat="27.95728300" lon="-15.6118960">
        <ele>1295.3730</ele>
        <time>2009-01-05T12:06:22Z</time>
      </trkpt>
      <trkpt lat="27.95730300" lon="-15.6118650">
        <ele>1295.9020</ele>
        <time>2009-01-05T12:06:23Z</time>
      </trkpt>
      <trkpt lat="27.95732200" lon="-15.6118330">
        <ele>1296.0630</ele>
        <time>2009-01-05T12:06:24Z</time>
      </trkpt>
      <trkpt lat="27.95734000" lon="-15.6118020">
        <ele>1296.2490</ele>
        <time>2009-01-05T12:06:25Z</time>
      </trkpt>
      <trkpt lat="27.95735700" lon="-15.6117680">
        <ele>1296.5850</ele>
        <time>2009-01-05T12:06:26Z</time>
      </trkpt>
      <trkpt lat="27.95737500" lon="-15.6117350">
        <ele>1296.8340</ele>
        <time>2009-01-05T12:06:27Z</time>
      </trkpt>
      <trkpt lat="27.95739100" lon="-15.6117010">
        <ele>1297.2950</ele>
        <time>2009-01-05T12:06:28Z</time>
      </trkpt>
      <trkpt lat="27.95740500" lon="-15.6116660">
        <ele>1297.2500</ele>
        <time>2009-01-05T12:06:29Z</time>
      </trkpt>
      <trkpt lat="27.95741800" lon="-15.6116290">
        <ele>1297.3700</ele>
        <time>2009-01-05T12:06:30Z</time>
      </trkpt>
      <trkpt lat="27.95742900" lon="-15.6115900">
        <ele>1297.6300</ele>
        <time>2009-01-05T12:06:31Z</time>
      </trkpt>
      <trkpt lat="27.95743900" lon="-15.6115520">
        <ele>1297.6780</ele>
        <time>2009-01-05T12:06:32Z</time>
      </trkpt>
      <trkpt lat="27.95744600" lon="-15.6115140">
        <ele>1298.1570</ele>
        <time>2009-01-05T12:06:33Z</time>
      </trkpt>
      <trkpt lat="27.95745200" lon="-15.6114760">
        <ele>1298.2240</ele>
        <time>2009-01-05T12:06:34Z</time>
      </trkpt>
      <trkpt lat="27.95745800" lon="-15.6114380">
        <ele>1298.5130</ele>
        <time>2009-01-05T12:06:35Z</time>
      </trkpt>
      <trkpt lat="27.95746300" lon="-15.6114010">
        <ele>1298.7600</ele>
        <time>2009-01-05T12:06:36Z</time>
      </trkpt>
      <trkpt lat="27.95746900" lon="-15.6113640">
        <ele>1299.1650</ele>
        <time>2009-01-05T12:06:37Z</time>
      </trkpt>
      <trkpt lat="27.95747600" lon="-15.6113250">
        <ele>1299.2850</ele>
        <time>2009-01-05T12:06:38Z</time>
      </trkpt>
      <trkpt lat="27.95748100" lon="-15.6112870">
        <ele>1299.2010</ele>
        <time>2009-01-05T12:06:39Z</time>
      </trkpt>
      <trkpt lat="27.95748400" lon="-15.6112480">
        <ele>1299.4690</ele>
        <time>2009-01-05T12:06:40Z</time>
      </trkpt>
      <trkpt lat="27.95748800" lon="-15.6112100">
        <ele>1299.7420</ele>
        <time>2009-01-05T12:06:41Z</time>
      </trkpt>
      <trkpt lat="27.95749100" lon="-15.6111730">
        <ele>1299.7170</ele>
        <time>2009-01-05T12:06:42Z</time>
      </trkpt>
      <trkpt lat="27.95749400" lon="-15.6111350">
        <ele>1299.6780</ele>
        <time>2009-01-05T12:06:43Z</time>
      </trkpt>
      <trkpt lat="27.95749700" lon="-15.6110970">
        <ele>1299.8030</ele>
        <time>2009-01-05T12:06:44Z</time>
      </trkpt>
      <trkpt lat="27.95750100" lon="-15.6110590">
        <ele>1300.6610</ele>
        <time>2009-01-05T12:06:45Z</time>
      </trkpt>
      <trkpt lat="27.95750500" lon="-15.6110210">
        <ele>1301.0190</ele>
        <time>2009-01-05T12:06:46Z</time>
      </trkpt>
      <trkpt lat="27.95750700" lon="-15.6109820">
        <ele>1301.4740</ele>
        <time>2009-01-05T12:06:47Z</time>
      </trkpt>
      <trkpt lat="27.95750800" lon="-15.6109440">
        <ele>1301.5360</ele>
        <time>2009-01-05T12:06:48Z</time>
      </trkpt>
      <trkpt lat="27.95751000" lon="-15.6109080">
        <ele>1301.9220</ele>
        <time>2009-01-05T12:06:49Z</time>
      </trkpt>
      <trkpt lat="27.95751400" lon="-15.6108710">
        <ele>1301.6350</ele>
        <time>2009-01-05T12:06:50Z</time>
      </trkpt>
      <trkpt lat="27.95751900" lon="-15.6108340">
        <ele>1302.0500</ele>
        <time>2009-01-05T12:06:51Z</time>
      </trkpt>
      <trkpt lat="27.95752600" lon="-15.6107960">
        <ele>1302.3680</ele>
        <time>2009-01-05T12:06:52Z</time>
      </trkpt>
      <trkpt lat="27.95753500" lon="-15.6107580">
        <ele>1302.6170</ele>
        <time>2009-01-05T12:06:53Z</time>
      </trkpt>
      <trkpt lat="27.95754700" lon="-15.6107220">
        <ele>1302.9140</ele>
        <time>2009-01-05T12:06:54Z</time>
      </trkpt>
      <trkpt lat="27.95756200" lon="-15.6106880">
        <ele>1302.9750</ele>
        <time>2009-01-05T12:06:55Z</time>
      </trkpt>
      <trkpt lat="27.95758000" lon="-15.6106550">
        <ele>1303.1000</ele>
        <time>2009-01-05T12:06:56Z</time>
      </trkpt>
      <trkpt lat="27.95760200" lon="-15.6106240">
        <ele>1303.2480</ele>
        <time>2009-01-05T12:06:57Z</time>
      </trkpt>
      <trkpt lat="27.95762700" lon="-15.6105940">
        <ele>1303.2560</ele>
        <time>2009-01-05T12:06:58Z</time>
      </trkpt>
      <trkpt lat="27.95765100" lon="-15.6105640">
        <ele>1303.2880</ele>
        <time>2009-01-05T12:06:59Z</time>
      </trkpt>
      <trkpt lat="27.95767300" lon="-15.6105310">
        <ele>1303.3090</ele>
        <time>2009-01-05T12:07:00Z</time>
      </trkpt>
      <trkpt lat="27.95769700" lon="-15.6105000">
        <ele>1303.7170</ele>
        <time>2009-01-05T12:07:01Z</time>
      </trkpt>
      <trkpt lat="27.95772300" lon="-15.6104710">
        <ele>1304.7290</ele>
        <time>2009-01-05T12:07:02Z</time>
      </trkpt>
      <trkpt lat="27.95775000" lon="-15.6104440">
        <ele>1304.5780</ele>
        <time>2009-01-05T12:07:03Z</time>
      </trkpt>
      <trkpt lat="27.95777600" lon="-15.6104190">
        <ele>1304.6550</ele>
        <time>2009-01-05T12:07:04Z</time>
      </trkpt>
      <trkpt lat="27.95780000" lon="-15.6103920">
        <ele>1304.6730</ele>
        <time>2009-01-05T12:07:05Z</time>
      </trkpt>
      <trkpt lat="27.95782100" lon="-15.6103630">
        <ele>1305.1850</ele>
        <time>2009-01-05T12:07:06Z</time>
      </trkpt>
      <trkpt lat="27.95783700" lon="-15.6103310">
        <ele>1304.7520</ele>
        <time>2009-01-05T12:07:07Z</time>
      </trkpt>
      <trkpt lat="27.95784800" lon="-15.6102940">
        <ele>1304.8360</ele>
        <time>2009-01-05T12:07:08Z</time>
      </trkpt>
      <trkpt lat="27.95785600" lon="-15.6102530">
        <ele>1305.1350</ele>
        <time>2009-01-05T12:07:09Z</time>
      </trkpt>
      <trkpt lat="27.95786000" lon="-15.6102090">
        <ele>1305.7160</ele>
        <time>2009-01-05T12:07:10Z</time>
      </trkpt>
      <trkpt lat="27.95786700" lon="-15.6101620">
        <ele>1304.8300</ele>
        <time>2009-01-05T12:07:11Z</time>
      </trkpt>
      <trkpt lat="27.95787900" lon="-15.6101130">
        <ele>1304.2170</ele>
        <time>2009-01-05T12:07:12Z</time>
      </trkpt>
      <trkpt lat="27.95789600" lon="-15.6100610">
        <ele>1304.2590</ele>
        <time>2009-01-05T12:07:13Z</time>
      </trkpt>
      <trkpt lat="27.95791500" lon="-15.6100070">
        <ele>1304.3620</ele>
        <time>2009-01-05T12:07:14Z</time>
      </trkpt>
      <trkpt lat="27.95793600" lon="-15.6099490">
        <ele>1303.8810</ele>
        <time>2009-01-05T12:07:15Z</time>
      </trkpt>
      <trkpt lat="27.95795600" lon="-15.6098880">
        <ele>1304.6330</ele>
        <time>2009-01-05T12:07:16Z</time>
      </trkpt>
      <trkpt lat="27.95797700" lon="-15.6098260">
        <ele>1303.7320</ele>
        <time>2009-01-05T12:07:17Z</time>
      </trkpt>
      <trkpt lat="27.95799900" lon="-15.6097630">
        <ele>1303.3290</ele>
        <time>2009-01-05T12:07:18Z</time>
      </trkpt>
      <trkpt lat="27.95802000" lon="-15.6096980">
        <ele>1303.2700</ele>
        <time>2009-01-05T12:07:19Z</time>
      </trkpt>
      <trkpt lat="27.95804100" lon="-15.6096320">
        <ele>1303.0830</ele>
        <time>2009-01-05T12:07:20Z</time>
      </trkpt>
      <trkpt lat="27.95806300" lon="-15.6095650">
        <ele>1302.9640</ele>
        <time>2009-01-05T12:07:21Z</time>
      </trkpt>
      <trkpt lat="27.95808400" lon="-15.6094970">
        <ele>1303.2560</ele>
        <time>2009-01-05T12:07:22Z</time>
      </trkpt>
      <trkpt lat="27.95810300" lon="-15.6094290">
        <ele>1303.1460</ele>
        <time>2009-01-05T12:07:23Z</time>
      </trkpt>
      <trkpt lat="27.95812300" lon="-15.6093640">
        <ele>1303.5330</ele>
        <time>2009-01-05T12:07:24Z</time>
      </trkpt>
      <trkpt lat="27.95814700" lon="-15.6093060">
        <ele>1303.5150</ele>
        <time>2009-01-05T12:07:25Z</time>
      </trkpt>
      <trkpt lat="27.95817800" lon="-15.6092550">
        <ele>1303.5610</ele>
        <time>2009-01-05T12:07:26Z</time>
      </trkpt>
      <trkpt lat="27.95821300" lon="-15.6092080">
        <ele>1303.8760</ele>
        <time>2009-01-05T12:07:27Z</time>
      </trkpt>
      <trkpt lat="27.95825100" lon="-15.6091650">
        <ele>1304.2500</ele>
        <time>2009-01-05T12:07:28Z</time>
      </trkpt>
      <trkpt lat="27.95829000" lon="-15.6091250">
        <ele>1304.4090</ele>
        <time>2009-01-05T12:07:29Z</time>
      </trkpt>
      <trkpt lat="27.95832800" lon="-15.6090870">
        <ele>1304.3220</ele>
        <time>2009-01-05T12:07:30Z</time>
      </trkpt>
      <trkpt lat="27.95836300" lon="-15.6090510">
        <ele>1305.0720</ele>
        <time>2009-01-05T12:07:31Z</time>
      </trkpt>
      <trkpt lat="27.95839700" lon="-15.6090150">
        <ele>1305.4820</ele>
        <time>2009-01-05T12:07:32Z</time>
      </trkpt>
      <trkpt lat="27.95842800" lon="-15.6089790">
        <ele>1305.1670</ele>
        <time>2009-01-05T12:07:33Z</time>
      </trkpt>
      <trkpt lat="27.95845700" lon="-15.6089410">
        <ele>1304.9930</ele>
        <time>2009-01-05T12:07:34Z</time>
      </trkpt>
      <trkpt lat="27.95848100" lon="-15.6089000">
        <ele>1305.2140</ele>
        <time>2009-01-05T12:07:35Z</time>
      </trkpt>
      <trkpt lat="27.95849600" lon="-15.6088550">
        <ele>1305.2800</ele>
        <time>2009-01-05T12:07:36Z</time>
      </trkpt>
      <trkpt lat="27.95849900" lon="-15.6088110">
        <ele>1305.3330</ele>
        <time>2009-01-05T12:07:37Z</time>
      </trkpt>
      <trkpt lat="27.95849100" lon="-15.6087690">
        <ele>1304.8860</ele>
        <time>2009-01-05T12:07:38Z</time>
      </trkpt>
      <trkpt lat="27.95847200" lon="-15.6087360">
        <ele>1305.0810</ele>
        <time>2009-01-05T12:07:39Z</time>
      </trkpt>
      <trkpt lat="27.95844400" lon="-15.6087100">
        <ele>1305.0310</ele>
        <time>2009-01-05T12:07:40Z</time>
      </trkpt>
      <trkpt lat="27.95841200" lon="-15.6086900">
        <ele>1305.3320</ele>
        <time>2009-01-05T12:07:41Z</time>
      </trkpt>
      <trkpt lat="27.95837900" lon="-15.6086760">
        <ele>1305.2340</ele>
        <time>2009-01-05T12:07:42Z</time>
      </trkpt>
      <trkpt lat="27.95834700" lon="-15.6086690">
        <ele>1305.0830</ele>
        <time>2009-01-05T12:07:43Z</time>
      </trkpt>
      <trkpt lat="27.95831400" lon="-15.6086690">
        <ele>1305.5340</ele>
        <time>2009-01-05T12:07:44Z</time>
      </trkpt>
      <trkpt lat="27.95828100" lon="-15.6086710">
        <ele>1305.5260</ele>
        <time>2009-01-05T12:07:45Z</time>
      </trkpt>
      <trkpt lat="27.95825000" lon="-15.6086670">
        <ele>1305.1630</ele>
        <time>2009-01-05T12:07:46Z</time>
      </trkpt>
      <trkpt lat="27.95822000" lon="-15.6086590">
        <ele>1305.2410</ele>
        <time>2009-01-05T12:07:47Z</time>
      </trkpt>
      <trkpt lat="27.95819200" lon="-15.6086520">
        <ele>1305.4280</ele>
        <time>2009-01-05T12:07:48Z</time>
      </trkpt>
      <trkpt lat="27.95816400" lon="-15.6086490">
        <ele>1305.3000</ele>
        <time>2009-01-05T12:07:49Z</time>
      </trkpt>
      <trkpt lat="27.95813900" lon="-15.6086450">
        <ele>1305.4840</ele>
        <time>2009-01-05T12:07:50Z</time>
      </trkpt>
      <trkpt lat="27.95812400" lon="-15.6086390">
        <ele>1305.1790</ele>
        <time>2009-01-05T12:07:51Z</time>
      </trkpt>
      <trkpt lat="27.95812000" lon="-15.6086370">
        <ele>1305.4320</ele>
        <time>2009-01-05T12:07:52Z</time>
      </trkpt>
    </trkseg>
    <trkseg>
      <trkpt lat="27.95809000" lon="-15.6086280">
        <ele>1305.3440</ele>
        <time>2009-01-05T12:10:05Z</time>
      </trkpt>
      <trkpt lat="27.95806700" lon="-15.6086130">
        <ele>1305.3780</ele>
        <time>2009-01-05T12:10:06Z</time>
      </trkpt>
      <trkpt lat="27.95803400" lon="-15.6085940">
        <ele>1305.4360</ele>
        <time>2009-01-05T12:10:07Z</time>
      </trkpt>
      <trkpt lat="27.95799400" lon="-15.6085770">
        <ele>1305.7320</ele>
        <time>2009-01-05T12:10:08Z</time>
      </trkpt>
      <trkpt lat="27.95795200" lon="-15.6085610">
        <ele>1305.3200</ele>
        <time>2009-01-05T12:10:09Z</time>
      </trkpt>
      <trkpt lat="27.95790900" lon="-15.6085440">
        <ele>1305.4070</ele>
        <time>2009-01-05T12:10:10Z</time>
      </trkpt>
      <trkpt lat="27.95786200" lon="-15.6085250">
        <ele>1305.4370</ele>
        <time>2009-01-05T12:10:11Z</time>
      </trkpt>
      <trkpt lat="27.95781200" lon="-15.6085020">
        <ele>1305.1170</ele>
        <time>2009-01-05T12:10:12Z</time>
      </trkpt>
      <trkpt lat="27.95775900" lon="-15.6084760">
        <ele>1305.1050</ele>
        <time>2009-01-05T12:10:13Z</time>
      </trkpt>
      <trkpt lat="27.95770200" lon="-15.6084510">
        <ele>1305.0660</ele>
        <time>2009-01-05T12:10:14Z</time>
      </trkpt>
      <trkpt lat="27.95764300" lon="-15.6084260">
        <ele>1304.7840</ele>
        <time>2009-01-05T12:10:15Z</time>
      </trkpt>
      <trkpt lat="27.95757900" lon="-15.6084010">
        <ele>1304.1420</ele>
        <time>2009-01-05T12:10:16Z</time>
      </trkpt>
      <trkpt lat="27.95751000" lon="-15.6083820">
        <ele>1303.5910</ele>
        <time>2009-01-05T12:10:17Z</time>
      </trkpt>
      <trkpt lat="27.95743800" lon="-15.6083780">
        <ele>1303.5570</ele>
        <time>2009-01-05T12:10:18Z</time>
      </trkpt>
      <trkpt lat="27.95736400" lon="-15.6083920">
        <ele>1303.5190</ele>
        <time>2009-01-05T12:10:19Z</time>
      </trkpt>
      <trkpt lat="27.95728900" lon="-15.6084200">
        <ele>1302.9240</ele>
        <time>2009-01-05T12:10:20Z</time>
      </trkpt>
      <trkpt lat="27.95721600" lon="-15.6084610">
        <ele>1303.2610</ele>
        <time>2009-01-05T12:10:21Z</time>
      </trkpt>
      <trkpt lat="27.95715100" lon="-15.6085190">
        <ele>1302.3820</ele>
        <time>2009-01-05T12:10:22Z</time>
      </trkpt>
      <trkpt lat="27.95709500" lon="-15.6085890">
        <ele>1302.0640</ele>
        <time>2009-01-05T12:10:23Z</time>
      </trkpt>
      <trkpt lat="27.95704400" lon="-15.6086670">
        <ele>1301.7660</ele>
        <time>2009-01-05T12:10:24Z</time>
      </trkpt>
      <trkpt lat="27.95699400" lon="-15.6087470">
        <ele>1301.5190</ele>
        <time>2009-01-05T12:10:25Z</time>
      </trkpt>
      <trkpt lat="27.95694500" lon="-15.6088280">
        <ele>1301.4750</ele>
        <time>2009-01-05T12:10:26Z</time>
      </trkpt>
      <trkpt lat="27.95689600" lon="-15.6089070">
        <ele>1301.3680</ele>
        <time>2009-01-05T12:10:27Z</time>
      </trkpt>
      <trkpt lat="27.95684500" lon="-15.6089830">
        <ele>1301.2070</ele>
        <time>2009-01-05T12:10:28Z</time>
      </trkpt>
      <trkpt lat="27.95679000" lon="-15.6090530">
        <ele>1301.0310</ele>
        <time>2009-01-05T12:10:29Z</time>
      </trkpt>
      <trkpt lat="27.95673200" lon="-15.6091180">
        <ele>1301.1730</ele>
        <time>2009-01-05T12:10:30Z</time>
      </trkpt>
      <trkpt lat="27.95667300" lon="-15.6091790">
        <ele>1301.0520</ele>
        <time>2009-01-05T12:10:31Z</time>
      </trkpt>
      <trkpt lat="27.95660800" lon="-15.6092340">
        <ele>1301.1920</ele>
        <time>2009-01-05T12:10:32Z</time>
      </trkpt>
      <trkpt lat="27.95653500" lon="-15.6092770">
        <ele>1300.8610</ele>
        <time>2009-01-05T12:10:33Z</time>
      </trkpt>
      <trkpt lat="27.95645400" lon="-15.6093110">
        <ele>1300.4940</ele>
        <time>2009-01-05T12:10:34Z</time>
      </trkpt>
      <trkpt lat="27.95637100" lon="-15.6093420">
        <ele>1300.1530</ele>
        <time>2009-01-05T12:10:35Z</time>
      </trkpt>
      <trkpt lat="27.95628700" lon="-15.6093780">
        <ele>1299.9790</ele>
        <time>2009-01-05T12:10:36Z</time>
      </trkpt>
      <trkpt lat="27.95620400" lon="-15.6094150">
        <ele>1300.0000</ele>
        <time>2009-01-05T12:10:37Z</time>
      </trkpt>
      <trkpt lat="27.95611900" lon="-15.6094470">
        <ele>1300.0770</ele>
        <time>2009-01-05T12:10:38Z</time>
      </trkpt>
      <trkpt lat="27.95603300" lon="-15.6094690">
        <ele>1299.8390</ele>
        <time>2009-01-05T12:10:39Z</time>
      </trkpt>
      <trkpt lat="27.95594800" lon="-15.6094770">
        <ele>1299.7370</ele>
        <time>2009-01-05T12:10:40Z</time>
      </trkpt>
      <trkpt lat="27.95586500" lon="-15.6094670">
        <ele>1299.6930</ele>
        <time>2009-01-05T12:10:41Z</time>
      </trkpt>
      <trkpt lat="27.95578600" lon="-15.6094430">
        <ele>1299.6750</ele>
        <time>2009-01-05T12:10:42Z</time>
      </trkpt>
      <trkpt lat="27.95571000" lon="-15.6094100">
        <ele>1299.3460</ele>
        <time>2009-01-05T12:10:43Z</time>
      </trkpt>
      <trkpt lat="27.95563800" lon="-15.6093710">
        <ele>1299.5660</ele>
        <time>2009-01-05T12:10:44Z</time>
      </trkpt>
      <trkpt lat="27.95556600" lon="-15.6093320">
        <ele>1299.0990</ele>
        <time>2009-01-05T12:10:45Z</time>
      </trkpt>
      <trkpt lat="27.95549400" lon="-15.6092920">
        <ele>1299.3590</ele>
        <time>2009-01-05T12:10:46Z</time>
      </trkpt>
      <trkpt lat="27.95542400" lon="-15.6092500">
        <ele>1299.2830</ele>
        <time>2009-01-05T12:10:47Z</time>
      </trkpt>
      <trkpt lat="27.95535400" lon="-15.6092030">
        <ele>1298.8500</ele>
        <time>2009-01-05T12:10:48Z</time>
      </trkpt>
      <trkpt lat="27.95528600" lon="-15.6091500">
        <ele>1298.8210</ele>
        <time>2009-01-05T12:10:49Z</time>
      </trkpt>
      <trkpt lat="27.95522200" lon="-15.6090910">
        <ele>1298.7340</ele>
        <time>2009-01-05T12:10:50Z</time>
      </trkpt>
      <trkpt lat="27.95515800" lon="-15.6090280">
        <ele>1298.6130</ele>
        <time>2009-01-05T12:10:51Z</time>
      </trkpt>
      <trkpt lat="27.95509500" lon="-15.6089620">
        <ele>1297.9470</ele>
        <time>2009-01-05T12:10:52Z</time>
      </trkpt>
      <trkpt lat="27.95502900" lon="-15.6088940">
        <ele>1296.7680</ele>
        <time>2009-01-05T12:10:53Z</time>
      </trkpt>
      <trkpt lat="27.95495900" lon="-15.6088250">
        <ele>1296.0590</ele>
        <time>2009-01-05T12:10:54Z</time>
      </trkpt>
      <trkpt lat="27.95488200" lon="-15.6087570">
        <ele>1295.7850</ele>
        <time>2009-01-05T12:10:55Z</time>
      </trkpt>
      <trkpt lat="27.95479600" lon="-15.6086920">
        <ele>1294.5930</ele>
        <time>2009-01-05T12:10:56Z</time>
      </trkpt>
      <trkpt lat="27.95470400" lon="-15.6086270">
        <ele>1293.7730</ele>
        <time>2009-01-05T12:10:57Z</time>
      </trkpt>
      <trkpt lat="27.95460600" lon="-15.6085600">
        <ele>1292.7960</ele>
        <time>2009-01-05T12:10:58Z</time>
      </trkpt>
      <trkpt lat="27.95450400" lon="-15.6084940">
        <ele>1292.9280</ele>
        <time>2009-01-05T12:10:59Z</time>
      </trkpt>
      <trkpt lat="27.95440100" lon="-15.6084270">
        <ele>1291.8680</ele>
        <time>2009-01-05T12:11:00Z</time>
      </trkpt>
      <trkpt lat="27.95429800" lon="-15.6083610">
        <ele>1291.2050</ele>
        <time>2009-01-05T12:11:01Z</time>
      </trkpt>
      <trkpt lat="27.95419500" lon="-15.6082940">
        <ele>1290.9070</ele>
        <time>2009-01-05T12:11:02Z</time>
      </trkpt>
      <trkpt lat="27.95409500" lon="-15.6082260">
        <ele>1290.9280</ele>
        <time>2009-01-05T12:11:03Z</time>
      </trkpt>
      <trkpt lat="27.95399500" lon="-15.6081590">
        <ele>1290.6750</ele>
        <time>2009-01-05T12:11:04Z</time>
      </trkpt>
      <trkpt lat="27.95389700" lon="-15.6080940">
        <ele>1290.4110</ele>
        <time>2009-01-05T12:11:05Z</time>
      </trkpt>
      <trkpt lat="27.95380100" lon="-15.6080300">
        <ele>1290.1630</ele>
        <time>2009-01-05T12:11:06Z</time>
      </trkpt>
      <trkpt lat="27.95370900" lon="-15.6079630">
        <ele>1289.4860</ele>
        <time>2009-01-05T12:11:07Z</time>
      </trkpt>
      <trkpt lat="27.95362800" lon="-15.6078850">
        <ele>1289.4010</ele>
        <time>2009-01-05T12:11:08Z</time>
      </trkpt>
      <trkpt lat="27.95356600" lon="-15.6077910">
        <ele>1289.6520</ele>
        <time>2009-01-05T12:11:09Z</time>
      </trkpt>
      <trkpt lat="27.95352200" lon="-15.6076880">
        <ele>1289.4170</ele>
        <time>2009-01-05T12:11:10Z</time>
      </trkpt>
      <trkpt lat="27.95348700" lon="-15.6075840">
        <ele>1289.6380</ele>
        <time>2009-01-05T12:11:11Z</time>
      </trkpt>
      <trkpt lat="27.95345500" lon="-15.6074820">
        <ele>1289.5420</ele>
        <time>2009-01-05T12:11:12Z</time>
      </trkpt>
      <trkpt lat="27.95342300" lon="-15.6073810">
        <ele>1289.2260</ele>
        <time>2009-01-05T12:11:13Z</time>
      </trkpt>
      <trkpt lat="27.95338900" lon="-15.6072810">
        <ele>1289.0760</ele>
        <time>2009-01-05T12:11:14Z</time>
      </trkpt>
      <trkpt lat="27.95334800" lon="-15.6071860">
        <ele>1289.0080</ele>
        <time>2009-01-05T12:11:15Z</time>
      </trkpt>
      <trkpt lat="27.95329300" lon="-15.6071060">
        <ele>1288.7870</ele>
        <time>2009-01-05T12:11:16Z</time>
      </trkpt>
      <trkpt lat="27.95322300" lon="-15.6070480">
        <ele>1288.7190</ele>
        <time>2009-01-05T12:11:17Z</time>
      </trkpt>
      <trkpt lat="27.95314500" lon="-15.6070160">
        <ele>1288.7170</ele>
        <time>2009-01-05T12:11:18Z</time>
      </trkpt>
      <trkpt lat="27.95306500" lon="-15.6070090">
        <ele>1288.6990</ele>
        <time>2009-01-05T12:11:19Z</time>
      </trkpt>
      <trkpt lat="27.95298600" lon="-15.6070180">
        <ele>1288.3540</ele>
        <time>2009-01-05T12:11:20Z</time>
      </trkpt>
      <trkpt lat="27.95291100" lon="-15.6070410">
        <ele>1287.9760</ele>
        <time>2009-01-05T12:11:21Z</time>
      </trkpt>
      <trkpt lat="27.95284700" lon="-15.6070830">
        <ele>1287.4200</ele>
        <time>2009-01-05T12:11:22Z</time>
      </trkpt>
      <trkpt lat="27.95279300" lon="-15.6071450">
        <ele>1287.9360</ele>
        <time>2009-01-05T12:11:23Z</time>
      </trkpt>
      <trkpt lat="27.95274600" lon="-15.6072170">
        <ele>1287.4540</ele>
        <time>2009-01-05T12:11:24Z</time>
      </trkpt>
      <trkpt lat="27.95270100" lon="-15.6072910">
        <ele>1287.3180</ele>
        <time>2009-01-05T12:11:25Z</time>
      </trkpt>
      <trkpt lat="27.95265400" lon="-15.6073650">
        <ele>1288.2440</ele>
        <time>2009-01-05T12:11:26Z</time>
      </trkpt>
      <trkpt lat="27.95260300" lon="-15.6074380">
        <ele>1288.5930</ele>
        <time>2009-01-05T12:11:27Z</time>
      </trkpt>
      <trkpt lat="27.95254700" lon="-15.6075010">
        <ele>1287.4580</ele>
        <time>2009-01-05T12:11:28Z</time>
      </trkpt>
      <trkpt lat="27.95248400" lon="-15.6075530">
        <ele>1287.5150</ele>
        <time>2009-01-05T12:11:29Z</time>
      </trkpt>
      <trkpt lat="27.95241700" lon="-15.6076000">
        <ele>1287.4800</ele>
        <time>2009-01-05T12:11:30Z</time>
      </trkpt>
      <trkpt lat="27.95234800" lon="-15.6076520">
        <ele>1287.3950</ele>
        <time>2009-01-05T12:11:31Z</time>
      </trkpt>
      <trkpt lat="27.95229000" lon="-15.6077190">
        <ele>1286.4990</ele>
        <time>2009-01-05T12:11:32Z</time>
      </trkpt>
      <trkpt lat="27.95225000" lon="-15.6078030">
        <ele>1286.5750</ele>
        <time>2009-01-05T12:11:33Z</time>
      </trkpt>
      <trkpt lat="27.95221700" lon="-15.6078900">
        <ele>1286.8840</ele>
        <time>2009-01-05T12:11:34Z</time>
      </trkpt>
      <trkpt lat="27.95217400" lon="-15.6079710">
        <ele>1286.6010</ele>
        <time>2009-01-05T12:11:35Z</time>
      </trkpt>
      <trkpt lat="27.95211300" lon="-15.6080360">
        <ele>1286.6670</ele>
        <time>2009-01-05T12:11:36Z</time>
      </trkpt>
      <trkpt lat="27.95203600" lon="-15.6080820">
        <ele>1286.3520</ele>
        <time>2009-01-05T12:11:37Z</time>
      </trkpt>
      <trkpt lat="27.95195200" lon="-15.6081140">
        <ele>1286.3570</ele>
        <time>2009-01-05T12:11:38Z</time>
      </trkpt>
      <trkpt lat="27.95186700" lon="-15.6081480">
        <ele>1285.7890</ele>
        <time>2009-01-05T12:11:39Z</time>
      </trkpt>
      <trkpt lat="27.95178400" lon="-15.6081980">
        <ele>1284.7030</ele>
        <time>2009-01-05T12:11:40Z</time>
      </trkpt>
      <trkpt lat="27.95171000" lon="-15.6082680">
        <ele>1284.1740</ele>
        <time>2009-01-05T12:11:41Z</time>
      </trkpt>
      <trkpt lat="27.95164800" lon="-15.6083510">
        <ele>1284.0550</ele>
        <time>2009-01-05T12:11:42Z</time>
      </trkpt>
      <trkpt lat="27.95159400" lon="-15.6084420">
        <ele>1283.8790</ele>
        <time>2009-01-05T12:11:43Z</time>
      </trkpt>
      <trkpt lat="27.95154700" lon="-15.6085380">
        <ele>1283.5560</ele>
        <time>2009-01-05T12:11:44Z</time>
      </trkpt>
      <trkpt lat="27.95150500" lon="-15.6086380">
        <ele>1282.7420</ele>
        <time>2009-01-05T12:11:45Z</time>
      </trkpt>
      <trkpt lat="27.95146800" lon="-15.6087420">
        <ele>1282.6760</ele>
        <time>2009-01-05T12:11:46Z</time>
      </trkpt>
      <trkpt lat="27.95143300" lon="-15.6088480">
        <ele>1282.4810</ele>
        <time>2009-01-05T12:11:47Z</time>
      </trkpt>
      <trkpt lat="27.95140000" lon="-15.6089550">
        <ele>1282.0740</ele>
        <time>2009-01-05T12:11:48Z</time>
      </trkpt>
      <trkpt lat="27.95137300" lon="-15.6090640">
        <ele>1281.3710</ele>
        <time>2009-01-05T12:11:49Z</time>
      </trkpt>
      <trkpt lat="27.95135300" lon="-15.6091760">
        <ele>1280.8770</ele>
        <time>2009-01-05T12:11:50Z</time>
      </trkpt>
      <trkpt lat="27.95134100" lon="-15.6092890">
        <ele>1280.3800</ele>
        <time>2009-01-05T12:11:51Z</time>
      </trkpt>
      <trkpt lat="27.95133700" lon="-15.6094020">
        <ele>1280.0560</ele>
        <time>2009-01-05T12:11:52Z</time>
      </trkpt>
      <trkpt lat="27.95134200" lon="-15.6095170">
        <ele>1280.2750</ele>
        <time>2009-01-05T12:11:53Z</time>
      </trkpt>
      <trkpt lat="27.95135300" lon="-15.6096320">
        <ele>1279.7270</ele>
        <time>2009-01-05T12:11:54Z</time>
      </trkpt>
      <trkpt lat="27.95136700" lon="-15.6097470">
        <ele>1279.6580</ele>
        <time>2009-01-05T12:11:55Z</time>
      </trkpt>
      <trkpt lat="27.95138000" lon="-15.6098640">
        <ele>1279.0620</ele>
        <time>2009-01-05T12:11:56Z</time>
      </trkpt>
      <trkpt lat="27.95140700" lon="-15.6099820">
        <ele>1279.2150</ele>
        <time>2009-01-05T12:11:57Z</time>
      </trkpt>
      <trkpt lat="27.95144500" lon="-15.6100920">
        <ele>1279.3290</ele>
        <time>2009-01-05T12:11:58Z</time>
      </trkpt>
      <trkpt lat="27.95148800" lon="-15.6101970">
        <ele>1279.1640</ele>
        <time>2009-01-05T12:11:59Z</time>
      </trkpt>
      <trkpt lat="27.95153300" lon="-15.6103000">
        <ele>1278.9840</ele>
        <time>2009-01-05T12:12:00Z</time>
      </trkpt>
      <trkpt lat="27.95157100" lon="-15.6104060">
        <ele>1279.2900</ele>
        <time>2009-01-05T12:12:01Z</time>
      </trkpt>
      <trkpt lat="27.95159200" lon="-15.6105160">
        <ele>1279.4130</ele>
        <time>2009-01-05T12:12:02Z</time>
      </trkpt>
      <trkpt lat="27.95159200" lon="-15.6106320">
        <ele>1279.1950</ele>
        <time>2009-01-05T12:12:03Z</time>
      </trkpt>
      <trkpt lat="27.95157400" lon="-15.6107450">
        <ele>1278.9870</ele>
        <time>2009-01-05T12:12:04Z</time>
      </trkpt>
      <trkpt lat="27.95154700" lon="-15.6108570">
        <ele>1279.1200</ele>
        <time>2009-01-05T12:12:05Z</time>
      </trkpt>
      <trkpt lat="27.95152000" lon="-15.6109700">
        <ele>1279.3510</ele>
        <time>2009-01-05T12:12:06Z</time>
      </trkpt>
      <trkpt lat="27.95149400" lon="-15.6110820">
        <ele>1279.7030</ele>
        <time>2009-01-05T12:12:07Z</time>
      </trkpt>
      <trkpt lat="27.95146500" lon="-15.6111920">
        <ele>1279.5240</ele>
        <time>2009-01-05T12:12:08Z</time>
      </trkpt>
      <trkpt lat="27.95143600" lon="-15.6113020">
        <ele>1279.5430</ele>
        <time>2009-01-05T12:12:09Z</time>
      </trkpt>
      <trkpt lat="27.95140900" lon="-15.6114080">
        <ele>1278.7010</ele>
        <time>2009-01-05T12:12:10Z</time>
      </trkpt>
      <trkpt lat="27.95137100" lon="-15.6115060">
        <ele>1279.2160</ele>
        <time>2009-01-05T12:12:11Z</time>
      </trkpt>
      <trkpt lat="27.95131900" lon="-15.6115960">
        <ele>1278.2080</ele>
        <time>2009-01-05T12:12:12Z</time>
      </trkpt>
      <trkpt lat="27.95124800" lon="-15.6116650">
        <ele>1277.8540</ele>
        <time>2009-01-05T12:12:13Z</time>
      </trkpt>
      <trkpt lat="27.95116200" lon="-15.6117130">
        <ele>1277.5160</ele>
        <time>2009-01-05T12:12:14Z</time>
      </trkpt>
      <trkpt lat="27.95107100" lon="-15.6117530">
        <ele>1277.8340</ele>
        <time>2009-01-05T12:12:15Z</time>
      </trkpt>
      <trkpt lat="27.95098000" lon="-15.6117980">
        <ele>1276.7110</ele>
        <time>2009-01-05T12:12:16Z</time>
      </trkpt>
      <trkpt lat="27.95089300" lon="-15.6118590">
        <ele>1275.5990</ele>
        <time>2009-01-05T12:12:17Z</time>
      </trkpt>
      <trkpt lat="27.95081600" lon="-15.6119330">
        <ele>1275.3720</ele>
        <time>2009-01-05T12:12:18Z</time>
      </trkpt>
      <trkpt lat="27.95075300" lon="-15.6120190">
        <ele>1275.2010</ele>
        <time>2009-01-05T12:12:19Z</time>
      </trkpt>
      <trkpt lat="27.95070500" lon="-15.6121120">
        <ele>1274.8610</ele>
        <time>2009-01-05T12:12:20Z</time>
      </trkpt>
      <trkpt lat="27.95067000" lon="-15.6122090">
        <ele>1274.3540</ele>
        <time>2009-01-05T12:12:21Z</time>
      </trkpt>
      <trkpt lat="27.95063200" lon="-15.6123070">
        <ele>1274.0610</ele>
        <time>2009-01-05T12:12:22Z</time>
      </trkpt>
      <trkpt lat="27.95058700" lon="-15.6124030">
        <ele>1274.1120</ele>
        <time>2009-01-05T12:12:23Z</time>
      </trkpt>
      <trkpt lat="27.95052500" lon="-15.6124920">
        <ele>1273.7220</ele>
        <time>2009-01-05T12:12:24Z</time>
      </trkpt>
      <trkpt lat="27.95045600" lon="-15.6125760">
        <ele>1272.5730</ele>
        <time>2009-01-05T12:12:25Z</time>
      </trkpt>
      <trkpt lat="27.95038100" lon="-15.6126520">
        <ele>1273.4690</ele>
        <time>2009-01-05T12:12:26Z</time>
      </trkpt>
      <trkpt lat="27.95029500" lon="-15.6127170">
        <ele>1272.7160</ele>
        <time>2009-01-05T12:12:27Z</time>
      </trkpt>
      <trkpt lat="27.95019400" lon="-15.6127710">
        <ele>1272.4840</ele>
        <time>2009-01-05T12:12:28Z</time>
      </trkpt>
      <trkpt lat="27.95009400" lon="-15.6128250">
        <ele>1271.8310</ele>
        <time>2009-01-05T12:12:29Z</time>
      </trkpt>
      <trkpt lat="27.95000100" lon="-15.6128840">
        <ele>1271.3340</ele>
        <time>2009-01-05T12:12:30Z</time>
      </trkpt>
      <trkpt lat="27.94991000" lon="-15.6129520">
        <ele>1270.5520</ele>
        <time>2009-01-05T12:12:31Z</time>
      </trkpt>
      <trkpt lat="27.94982100" lon="-15.6130260">
        <ele>1270.4680</ele>
        <time>2009-01-05T12:12:32Z</time>
      </trkpt>
      <trkpt lat="27.94972800" lon="-15.6130970">
        <ele>1270.5030</ele>
        <time>2009-01-05T12:12:33Z</time>
      </trkpt>
      <trkpt lat="27.94963300" lon="-15.6131700">
        <ele>1269.5610</ele>
        <time>2009-01-05T12:12:34Z</time>
      </trkpt>
      <trkpt lat="27.94954800" lon="-15.6132580">
        <ele>1269.3610</ele>
        <time>2009-01-05T12:12:35Z</time>
      </trkpt>
      <trkpt lat="27.94947100" lon="-15.6133560">
        <ele>1268.1040</ele>
        <time>2009-01-05T12:12:36Z</time>
      </trkpt>
      <trkpt lat="27.94939900" lon="-15.6134610">
        <ele>1266.9300</ele>
        <time>2009-01-05T12:12:37Z</time>
      </trkpt>
      <trkpt lat="27.94932700" lon="-15.6135670">
        <ele>1266.4750</ele>
        <time>2009-01-05T12:12:38Z</time>
      </trkpt>
      <trkpt lat="27.94925100" lon="-15.6136710">
        <ele>1266.6810</ele>
        <time>2009-01-05T12:12:39Z</time>
      </trkpt>
      <trkpt lat="27.94916600" lon="-15.6137630">
        <ele>1266.6230</ele>
        <time>2009-01-05T12:12:40Z</time>
      </trkpt>
      <trkpt lat="27.94905800" lon="-15.6138200">
        <ele>1266.2820</ele>
        <time>2009-01-05T12:12:41Z</time>
      </trkpt>
      <trkpt lat="27.94895100" lon="-15.6138340">
        <ele>1265.3020</ele>
        <time>2009-01-05T12:12:42Z</time>
      </trkpt>
      <trkpt lat="27.94884800" lon="-15.6138110">
        <ele>1264.3480</ele>
        <time>2009-01-05T12:12:43Z</time>
      </trkpt>
      <trkpt lat="27.94874300" lon="-15.6137500">
        <ele>1264.3860</ele>
        <time>2009-01-05T12:12:44Z</time>
      </trkpt>
      <trkpt lat="27.94865800" lon="-15.6136760">
        <ele>1264.3290</ele>
        <time>2009-01-05T12:12:45Z</time>
      </trkpt>
      <trkpt lat="27.94857900" lon="-15.6135880">
        <ele>1264.0790</ele>
        <time>2009-01-05T12:12:46Z</time>
      </trkpt>
      <trkpt lat="27.94850400" lon="-15.6134980">
        <ele>1264.8150</ele>
        <time>2009-01-05T12:12:47Z</time>
      </trkpt>
      <trkpt lat="27.94843000" lon="-15.6134110">
        <ele>1264.4090</ele>
        <time>2009-01-05T12:12:48Z</time>
      </trkpt>
      <trkpt lat="27.94835100" lon="-15.6133340">
        <ele>1264.0210</ele>
        <time>2009-01-05T12:12:49Z</time>
      </trkpt>
      <trkpt lat="27.94826100" lon="-15.6132730">
        <ele>1263.3700</ele>
        <time>2009-01-05T12:12:50Z</time>
      </trkpt>
      <trkpt lat="27.94816300" lon="-15.6132320">
        <ele>1263.2990</ele>
        <time>2009-01-05T12:12:51Z</time>
      </trkpt>
      <trkpt lat="27.94806200" lon="-15.6132020">
        <ele>1262.9890</ele>
        <time>2009-01-05T12:12:52Z</time>
      </trkpt>
      <trkpt lat="27.94795900" lon="-15.6131770">
        <ele>1263.1540</ele>
        <time>2009-01-05T12:12:53Z</time>
      </trkpt>
      <trkpt lat="27.94785600" lon="-15.6131500">
        <ele>1262.6880</ele>
        <time>2009-01-05T12:12:54Z</time>
      </trkpt>
      <trkpt lat="27.94775400" lon="-15.6131220">
        <ele>1262.3900</ele>
        <time>2009-01-05T12:12:55Z</time>
      </trkpt>
      <trkpt lat="27.94765300" lon="-15.6130950">
        <ele>1262.6580</ele>
        <time>2009-01-05T12:12:56Z</time>
      </trkpt>
      <trkpt lat="27.94755100" lon="-15.6130680">
        <ele>1262.1360</ele>
        <time>2009-01-05T12:12:57Z</time>
      </trkpt>
      <trkpt lat="27.94745000" lon="-15.6130390">
        <ele>1261.8960</ele>
        <time>2009-01-05T12:12:58Z</time>
      </trkpt>
      <trkpt lat="27.94735000" lon="-15.6130070">
        <ele>1262.1880</ele>
        <time>2009-01-05T12:12:59Z</time>
      </trkpt>
      <trkpt lat="27.94725500" lon="-15.6129700">
        <ele>1261.9910</ele>
        <time>2009-01-05T12:13:00Z</time>
      </trkpt>
      <trkpt lat="27.94716300" lon="-15.6129290">
        <ele>1261.7890</ele>
        <time>2009-01-05T12:13:01Z</time>
      </trkpt>
      <trkpt lat="27.94707800" lon="-15.6128760">
        <ele>1261.4450</ele>
        <time>2009-01-05T12:13:02Z</time>
      </trkpt>
      <trkpt lat="27.94699700" lon="-15.6128170">
        <ele>1261.3940</ele>
        <time>2009-01-05T12:13:03Z</time>
      </trkpt>
      <trkpt lat="27.94692400" lon="-15.6127480">
        <ele>1261.4110</ele>
        <time>2009-01-05T12:13:04Z</time>
      </trkpt>
      <trkpt lat="27.94685900" lon="-15.6126710">
        <ele>1261.6440</ele>
        <time>2009-01-05T12:13:05Z</time>
      </trkpt>
      <trkpt lat="27.94680100" lon="-15.6125910">
        <ele>1262.2450</ele>
        <time>2009-01-05T12:13:06Z</time>
      </trkpt>
      <trkpt lat="27.94674400" lon="-15.6125110">
        <ele>1262.6340</ele>
        <time>2009-01-05T12:13:07Z</time>
      </trkpt>
      <trkpt lat="27.94668800" lon="-15.6124340">
        <ele>1263.5850</ele>
        <time>2009-01-05T12:13:08Z</time>
      </trkpt>
      <trkpt lat="27.94663700" lon="-15.6123560">
        <ele>1263.4870</ele>
        <time>2009-01-05T12:13:09Z</time>
      </trkpt>
      <trkpt lat="27.94658700" lon="-15.6122820">
        <ele>1262.5720</ele>
        <time>2009-01-05T12:13:10Z</time>
      </trkpt>
      <trkpt lat="27.94653300" lon="-15.6122180">
        <ele>1261.6380</ele>
        <time>2009-01-05T12:13:11Z</time>
      </trkpt>
      <trkpt lat="27.94647000" lon="-15.6121710">
        <ele>1261.8070</ele>
        <time>2009-01-05T12:13:12Z</time>
      </trkpt>
      <trkpt lat="27.94640300" lon="-15.6121420">
        <ele>1261.4850</ele>
        <time>2009-01-05T12:13:13Z</time>
      </trkpt>
      <trkpt lat="27.94633400" lon="-15.6121340">
        <ele>1261.2020</ele>
        <time>2009-01-05T12:13:14Z</time>
      </trkpt>
      <trkpt lat="27.94626900" lon="-15.6121500">
        <ele>1261.1600</ele>
        <time>2009-01-05T12:13:15Z</time>
      </trkpt>
      <trkpt lat="27.94621400" lon="-15.6121850">
        <ele>1261.3250</ele>
        <time>2009-01-05T12:13:16Z</time>
      </trkpt>
      <trkpt lat="27.94616300" lon="-15.6122320">
        <ele>1261.8220</ele>
        <time>2009-01-05T12:13:17Z</time>
      </trkpt>
      <trkpt lat="27.94611400" lon="-15.6122820">
        <ele>1261.8590</ele>
        <time>2009-01-05T12:13:18Z</time>
      </trkpt>
      <trkpt lat="27.94606600" lon="-15.6123310">
        <ele>1262.1320</ele>
        <time>2009-01-05T12:13:19Z</time>
      </trkpt>
      <trkpt lat="27.94601900" lon="-15.6123800">
        <ele>1262.5230</ele>
        <time>2009-01-05T12:13:20Z</time>
      </trkpt>
      <trkpt lat="27.94597300" lon="-15.6124300">
        <ele>1262.6880</ele>
        <time>2009-01-05T12:13:21Z</time>
      </trkpt>
      <trkpt lat="27.94592900" lon="-15.6124810">
        <ele>1262.3920</ele>
        <time>2009-01-05T12:13:22Z</time>
      </trkpt>
      <trkpt lat="27.94588500" lon="-15.6125320">
        <ele>1262.6540</ele>
        <time>2009-01-05T12:13:23Z</time>
      </trkpt>
      <trkpt lat="27.94584300" lon="-15.6125840">
        <ele>1263.4930</ele>
        <time>2009-01-05T12:13:24Z</time>
      </trkpt>
      <trkpt lat="27.94580100" lon="-15.6126370">
        <ele>1263.7690</ele>
        <time>2009-01-05T12:13:25Z</time>
      </trkpt>
      <trkpt lat="27.94576000" lon="-15.6126880">
        <ele>1264.2380</ele>
        <time>2009-01-05T12:13:26Z</time>
      </trkpt>
      <trkpt lat="27.94571900" lon="-15.6127370">
        <ele>1264.5250</ele>
        <time>2009-01-05T12:13:27Z</time>
      </trkpt>
      <trkpt lat="27.94567900" lon="-15.6127860">
        <ele>1264.6930</ele>
        <time>2009-01-05T12:13:28Z</time>
      </trkpt>
      <trkpt lat="27.94564100" lon="-15.6128320">
        <ele>1264.8990</ele>
        <time>2009-01-05T12:13:29Z</time>
      </trkpt>
      <trkpt lat="27.94560300" lon="-15.6128780">
        <ele>1265.2120</ele>
        <time>2009-01-05T12:13:30Z</time>
      </trkpt>
      <trkpt lat="27.94556700" lon="-15.6129260">
        <ele>1265.4310</ele>
        <time>2009-01-05T12:13:31Z</time>
      </trkpt>
      <trkpt lat="27.94553400" lon="-15.6129760">
        <ele>1265.7560</ele>
        <time>2009-01-05T12:13:32Z</time>
      </trkpt>
      <trkpt lat="27.94550100" lon="-15.6130250">
        <ele>1265.7790</ele>
        <time>2009-01-05T12:13:33Z</time>
      </trkpt>
      <trkpt lat="27.94547000" lon="-15.6130740">
        <ele>1266.0570</ele>
        <time>2009-01-05T12:13:34Z</time>
      </trkpt>
      <trkpt lat="27.94543800" lon="-15.6131230">
        <ele>1266.6380</ele>
        <time>2009-01-05T12:13:35Z</time>
      </trkpt>
      <trkpt lat="27.94540800" lon="-15.6131720">
        <ele>1266.9650</ele>
        <time>2009-01-05T12:13:36Z</time>
      </trkpt>
      <trkpt lat="27.94538000" lon="-15.6132230">
        <ele>1266.8970</ele>
        <time>2009-01-05T12:13:37Z</time>
      </trkpt>
      <trkpt lat="27.94535200" lon="-15.6132770">
        <ele>1266.8230</ele>
        <time>2009-01-05T12:13:38Z</time>
      </trkpt>
      <trkpt lat="27.94532600" lon="-15.6133330">
        <ele>1266.8780</ele>
        <time>2009-01-05T12:13:39Z</time>
      </trkpt>
      <trkpt lat="27.94529900" lon="-15.6133930">
        <ele>1267.1800</ele>
        <time>2009-01-05T12:13:40Z</time>
      </trkpt>
      <trkpt lat="27.94527000" lon="-15.6134560">
        <ele>1266.6110</ele>
        <time>2009-01-05T12:13:41Z</time>
      </trkpt>
      <trkpt lat="27.94523800" lon="-15.6135200">
        <ele>1266.3950</ele>
        <time>2009-01-05T12:13:42Z</time>
      </trkpt>
      <trkpt lat="27.94520300" lon="-15.6135880">
        <ele>1266.1020</ele>
        <time>2009-01-05T12:13:43Z</time>
      </trkpt>
      <trkpt lat="27.94516900" lon="-15.6136590">
        <ele>1265.7500</ele>
        <time>2009-01-05T12:13:44Z</time>
      </trkpt>
      <trkpt lat="27.94513500" lon="-15.6137360">
        <ele>1266.0620</ele>
        <time>2009-01-05T12:13:45Z</time>
      </trkpt>
      <trkpt lat="27.94510000" lon="-15.6138140">
        <ele>1265.9570</ele>
        <time>2009-01-05T12:13:46Z</time>
      </trkpt>
      <trkpt lat="27.94505300" lon="-15.6138920">
        <ele>1265.0610</ele>
        <time>2009-01-05T12:13:47Z</time>
      </trkpt>
      <trkpt lat="27.94499500" lon="-15.6139620">
        <ele>1264.7060</ele>
        <time>2009-01-05T12:13:48Z</time>
      </trkpt>
      <trkpt lat="27.94492500" lon="-15.6140250">
        <ele>1263.7970</ele>
        <time>2009-01-05T12:13:49Z</time>
      </trkpt>
      <trkpt lat="27.94485100" lon="-15.6140860">
        <ele>1263.2610</ele>
        <time>2009-01-05T12:13:50Z</time>
      </trkpt>
      <trkpt lat="27.94477600" lon="-15.6141490">
        <ele>1263.0100</ele>
        <time>2009-01-05T12:13:51Z</time>
      </trkpt>
      <trkpt lat="27.94470200" lon="-15.6142180">
        <ele>1262.5320</ele>
        <time>2009-01-05T12:13:52Z</time>
      </trkpt>
      <trkpt lat="27.94463000" lon="-15.6142890">
        <ele>1262.3660</ele>
        <time>2009-01-05T12:13:53Z</time>
      </trkpt>
      <trkpt lat="27.94455900" lon="-15.6143610">
        <ele>1261.6720</ele>
        <time>2009-01-05T12:13:54Z</time>
      </trkpt>
      <trkpt lat="27.94448900" lon="-15.6144340">
        <ele>1261.1280</ele>
        <time>2009-01-05T12:13:55Z</time>
      </trkpt>
      <trkpt lat="27.94441800" lon="-15.6145090">
        <ele>1260.3310</ele>
        <time>2009-01-05T12:13:56Z</time>
      </trkpt>
      <trkpt lat="27.94434500" lon="-15.6145770">
        <ele>1259.8560</ele>
        <time>2009-01-05T12:13:57Z</time>
      </trkpt>
      <trkpt lat="27.94426600" lon="-15.6146350">
        <ele>1259.7100</ele>
        <time>2009-01-05T12:13:58Z</time>
      </trkpt>
      <trkpt lat="27.94417900" lon="-15.6146780">
        <ele>1259.1940</ele>
        <time>2009-01-05T12:13:59Z</time>
      </trkpt>
      <trkpt lat="27.94408700" lon="-15.6147050">
        <ele>1258.7280</ele>
        <time>2009-01-05T12:14:00Z</time>
      </trkpt>
      <trkpt lat="27.94398900" lon="-15.6147220">
        <ele>1258.0660</ele>
        <time>2009-01-05T12:14:01Z</time>
      </trkpt>
      <trkpt lat="27.94388900" lon="-15.6147450">
        <ele>1257.9090</ele>
        <time>2009-01-05T12:14:02Z</time>
      </trkpt>
      <trkpt lat="27.94378900" lon="-15.6147830">
        <ele>1257.9240</ele>
        <time>2009-01-05T12:14:03Z</time>
      </trkpt>
      <trkpt lat="27.94369300" lon="-15.6148380">
        <ele>1257.0590</ele>
        <time>2009-01-05T12:14:04Z</time>
      </trkpt>
      <trkpt lat="27.94360100" lon="-15.6149060">
        <ele>1256.2200</ele>
        <time>2009-01-05T12:14:05Z</time>
      </trkpt>
      <trkpt lat="27.94351500" lon="-15.6149770">
        <ele>1254.5380</ele>
        <time>2009-01-05T12:14:06Z</time>
      </trkpt>
      <trkpt lat="27.94342900" lon="-15.6150360">
        <ele>1253.8310</ele>
        <time>2009-01-05T12:14:07Z</time>
      </trkpt>
      <trkpt lat="27.94333500" lon="-15.6150600">
        <ele>1253.6610</ele>
        <time>2009-01-05T12:14:08Z</time>
      </trkpt>
      <trkpt lat="27.94324000" lon="-15.6150500">
        <ele>1253.0120</ele>
        <time>2009-01-05T12:14:09Z</time>
      </trkpt>
      <trkpt lat="27.94313600" lon="-15.6150250">
        <ele>1252.5700</ele>
        <time>2009-01-05T12:14:10Z</time>
      </trkpt>
      <trkpt lat="27.94303000" lon="-15.6150030">
        <ele>1252.5710</ele>
        <time>2009-01-05T12:14:11Z</time>
      </trkpt>
      <trkpt lat="27.94292300" lon="-15.6149970">
        <ele>1251.6880</ele>
        <time>2009-01-05T12:14:12Z</time>
      </trkpt>
      <trkpt lat="27.94281500" lon="-15.6150170">
        <ele>1251.3420</ele>
        <time>2009-01-05T12:14:13Z</time>
      </trkpt>
      <trkpt lat="27.94271300" lon="-15.6150660">
        <ele>1250.9730</ele>
        <time>2009-01-05T12:14:14Z</time>
      </trkpt>
      <trkpt lat="27.94261600" lon="-15.6151270">
        <ele>1249.9030</ele>
        <time>2009-01-05T12:14:15Z</time>
      </trkpt>
      <trkpt lat="27.94251500" lon="-15.6151760">
        <ele>1249.1500</ele>
        <time>2009-01-05T12:14:16Z</time>
      </trkpt>
      <trkpt lat="27.94240800" lon="-15.6152070">
        <ele>1248.5720</ele>
        <time>2009-01-05T12:14:17Z</time>
      </trkpt>
      <trkpt lat="27.94230000" lon="-15.6152360">
        <ele>1248.6670</ele>
        <time>2009-01-05T12:14:18Z</time>
      </trkpt>
      <trkpt lat="27.94219900" lon="-15.6152790">
        <ele>1247.5700</ele>
        <time>2009-01-05T12:14:19Z</time>
      </trkpt>
      <trkpt lat="27.94210800" lon="-15.6153680">
        <ele>1246.4900</ele>
        <time>2009-01-05T12:14:20Z</time>
      </trkpt>
      <trkpt lat="27.94206000" lon="-15.6154660">
        <ele>1246.1640</ele>
        <time>2009-01-05T12:14:21Z</time>
      </trkpt>
      <trkpt lat="27.94200500" lon="-15.6155540">
        <ele>1245.4990</ele>
        <time>2009-01-05T12:14:22Z</time>
      </trkpt>
      <trkpt lat="27.94192800" lon="-15.6156260">
        <ele>1245.2720</ele>
        <time>2009-01-05T12:14:23Z</time>
      </trkpt>
      <trkpt lat="27.94183500" lon="-15.6156710">
        <ele>1244.9240</ele>
        <time>2009-01-05T12:14:24Z</time>
      </trkpt>
      <trkpt lat="27.94172800" lon="-15.6156710">
        <ele>1245.0960</ele>
        <time>2009-01-05T12:14:25Z</time>
      </trkpt>
      <trkpt lat="27.94162300" lon="-15.6156280">
        <ele>1244.5210</ele>
        <time>2009-01-05T12:14:26Z</time>
      </trkpt>
      <trkpt lat="27.94152500" lon="-15.6155740">
        <ele>1243.7610</ele>
        <time>2009-01-05T12:14:27Z</time>
      </trkpt>
      <trkpt lat="27.94142700" lon="-15.6155190">
        <ele>1243.3840</ele>
        <time>2009-01-05T12:14:28Z</time>
      </trkpt>
      <trkpt lat="27.94132600" lon="-15.6154660">
        <ele>1242.8930</ele>
        <time>2009-01-05T12:14:29Z</time>
      </trkpt>
      <trkpt lat="27.94122300" lon="-15.6154150">
        <ele>1242.0690</ele>
        <time>2009-01-05T12:14:30Z</time>
      </trkpt>
      <trkpt lat="27.94111700" lon="-15.6153650">
        <ele>1241.4640</ele>
        <time>2009-01-05T12:14:31Z</time>
      </trkpt>
      <trkpt lat="27.94100900" lon="-15.6153170">
        <ele>1240.1680</ele>
        <time>2009-01-05T12:14:32Z</time>
      </trkpt>
      <trkpt lat="27.94089900" lon="-15.6152740">
        <ele>1239.8360</ele>
        <time>2009-01-05T12:14:33Z</time>
      </trkpt>
      <trkpt lat="27.94078700" lon="-15.6152330">
        <ele>1239.3880</ele>
        <time>2009-01-05T12:14:34Z</time>
      </trkpt>
      <trkpt lat="27.94067500" lon="-15.6151880">
        <ele>1238.0950</ele>
        <time>2009-01-05T12:14:35Z</time>
      </trkpt>
      <trkpt lat="27.94056600" lon="-15.6151320">
        <ele>1237.9220</ele>
        <time>2009-01-05T12:14:36Z</time>
      </trkpt>
      <trkpt lat="27.94046500" lon="-15.6150600">
        <ele>1237.2490</ele>
        <time>2009-01-05T12:14:37Z</time>
      </trkpt>
      <trkpt lat="27.94036900" lon="-15.6149770">
        <ele>1237.5330</ele>
        <time>2009-01-05T12:14:38Z</time>
      </trkpt>
      <trkpt lat="27.94027600" lon="-15.6148920">
        <ele>1236.9670</ele>
        <time>2009-01-05T12:14:39Z</time>
      </trkpt>
      <trkpt lat="27.94018200" lon="-15.6148090">
        <ele>1235.5410</ele>
        <time>2009-01-05T12:14:40Z</time>
      </trkpt>
      <trkpt lat="27.94008600" lon="-15.6147300">
        <ele>1235.1630</ele>
        <time>2009-01-05T12:14:41Z</time>
      </trkpt>
      <trkpt lat="27.93998500" lon="-15.6146640">
        <ele>1234.7150</ele>
        <time>2009-01-05T12:14:42Z</time>
      </trkpt>
      <trkpt lat="27.93987400" lon="-15.6146240">
        <ele>1234.8430</ele>
        <time>2009-01-05T12:14:43Z</time>
      </trkpt>
      <trkpt lat="27.93975900" lon="-15.6146170">
        <ele>1233.9220</ele>
        <time>2009-01-05T12:14:44Z</time>
      </trkpt>
      <trkpt lat="27.93964400" lon="-15.6146720">
        <ele>1233.5770</ele>
        <time>2009-01-05T12:14:45Z</time>
      </trkpt>
      <trkpt lat="27.93953600" lon="-15.6147310">
        <ele>1233.1000</ele>
        <time>2009-01-05T12:14:46Z</time>
      </trkpt>
      <trkpt lat="27.93943600" lon="-15.6147940">
        <ele>1232.7210</ele>
        <time>2009-01-05T12:14:47Z</time>
      </trkpt>
      <trkpt lat="27.93933400" lon="-15.6148580">
        <ele>1231.8280</ele>
        <time>2009-01-05T12:14:48Z</time>
      </trkpt>
      <trkpt lat="27.93922700" lon="-15.6149110">
        <ele>1231.2430</ele>
        <time>2009-01-05T12:14:49Z</time>
      </trkpt>
      <trkpt lat="27.93911800" lon="-15.6149400">
        <ele>1230.7740</ele>
        <time>2009-01-05T12:14:50Z</time>
      </trkpt>
      <trkpt lat="27.93901500" lon="-15.6149180">
        <ele>1229.9000</ele>
        <time>2009-01-05T12:14:51Z</time>
      </trkpt>
      <trkpt lat="27.93892100" lon="-15.6148580">
        <ele>1229.6350</ele>
        <time>2009-01-05T12:14:52Z</time>
      </trkpt>
      <trkpt lat="27.93884500" lon="-15.6147630">
        <ele>1229.5170</ele>
        <time>2009-01-05T12:14:53Z</time>
      </trkpt>
      <trkpt lat="27.93878500" lon="-15.6146590">
        <ele>1228.7940</ele>
        <time>2009-01-05T12:14:54Z</time>
      </trkpt>
      <trkpt lat="27.93872700" lon="-15.6145520">
        <ele>1228.2920</ele>
        <time>2009-01-05T12:14:55Z</time>
      </trkpt>
      <trkpt lat="27.93865600" lon="-15.6144570">
        <ele>1227.7080</ele>
        <time>2009-01-05T12:14:56Z</time>
      </trkpt>
      <trkpt lat="27.93856700" lon="-15.6143830">
        <ele>1227.2220</ele>
        <time>2009-01-05T12:14:57Z</time>
      </trkpt>
      <trkpt lat="27.93847200" lon="-15.6143200">
        <ele>1227.2710</ele>
        <time>2009-01-05T12:14:58Z</time>
      </trkpt>
      <trkpt lat="27.93839000" lon="-15.6142550">
        <ele>1225.9490</ele>
        <time>2009-01-05T12:14:59Z</time>
      </trkpt>
      <trkpt lat="27.93835000" lon="-15.6141700">
        <ele>1225.3080</ele>
        <time>2009-01-05T12:15:00Z</time>
      </trkpt>
      <trkpt lat="27.93835800" lon="-15.6140660">
        <ele>1224.5150</ele>
        <time>2009-01-05T12:15:01Z</time>
      </trkpt>
      <trkpt lat="27.93838800" lon="-15.6139650">
        <ele>1224.2940</ele>
        <time>2009-01-05T12:15:02Z</time>
      </trkpt>
      <trkpt lat="27.93841200" lon="-15.6138630">
        <ele>1224.1130</ele>
        <time>2009-01-05T12:15:03Z</time>
      </trkpt>
      <trkpt lat="27.93840700" lon="-15.6137580">
        <ele>1224.0010</ele>
        <time>2009-01-05T12:15:04Z</time>
      </trkpt>
      <trkpt lat="27.93837600" lon="-15.6136560">
        <ele>1223.8830</ele>
        <time>2009-01-05T12:15:05Z</time>
      </trkpt>
      <trkpt lat="27.93833300" lon="-15.6135570">
        <ele>1223.7310</ele>
        <time>2009-01-05T12:15:06Z</time>
      </trkpt>
      <trkpt lat="27.93828900" lon="-15.6134570">
        <ele>1223.5360</ele>
        <time>2009-01-05T12:15:07Z</time>
      </trkpt>
      <trkpt lat="27.93824900" lon="-15.6133530">
        <ele>1222.7360</ele>
        <time>2009-01-05T12:15:08Z</time>
      </trkpt>
      <trkpt lat="27.93821200" lon="-15.6132440">
        <ele>1222.2190</ele>
        <time>2009-01-05T12:15:09Z</time>
      </trkpt>
      <trkpt lat="27.93818000" lon="-15.6131310">
        <ele>1221.7700</ele>
        <time>2009-01-05T12:15:10Z</time>
      </trkpt>
      <trkpt lat="27.93815000" lon="-15.6130150">
        <ele>1221.3840</ele>
        <time>2009-01-05T12:15:11Z</time>
      </trkpt>
      <trkpt lat="27.93812200" lon="-15.6128980">
        <ele>1221.4430</ele>
        <time>2009-01-05T12:15:12Z</time>
      </trkpt>
      <trkpt lat="27.93809600" lon="-15.6127810">
        <ele>1221.3920</ele>
        <time>2009-01-05T12:15:13Z</time>
      </trkpt>
      <trkpt lat="27.93807700" lon="-15.6126620">
        <ele>1220.8930</ele>
        <time>2009-01-05T12:15:14Z</time>
      </trkpt>
      <trkpt lat="27.93806400" lon="-15.6125440">
        <ele>1220.5940</ele>
        <time>2009-01-05T12:15:15Z</time>
      </trkpt>
      <trkpt lat="27.93804800" lon="-15.6124260">
        <ele>1220.0440</ele>
        <time>2009-01-05T12:15:16Z</time>
      </trkpt>
      <trkpt lat="27.93802100" lon="-15.6123130">
        <ele>1219.7790</ele>
        <time>2009-01-05T12:15:17Z</time>
      </trkpt>
      <trkpt lat="27.93799000" lon="-15.6122010">
        <ele>1219.3140</ele>
        <time>2009-01-05T12:15:18Z</time>
      </trkpt>
      <trkpt lat="27.93796800" lon="-15.6120880">
        <ele>1218.8250</ele>
        <time>2009-01-05T12:15:19Z</time>
      </trkpt>
      <trkpt lat="27.93795700" lon="-15.6119750">
        <ele>1218.8590</ele>
        <time>2009-01-05T12:15:20Z</time>
      </trkpt>
      <trkpt lat="27.93796200" lon="-15.6118620">
        <ele>1218.3380</ele>
        <time>2009-01-05T12:15:21Z</time>
      </trkpt>
      <trkpt lat="27.93798400" lon="-15.6117530">
        <ele>1217.9070</ele>
        <time>2009-01-05T12:15:22Z</time>
      </trkpt>
      <trkpt lat="27.93802200" lon="-15.6116510">
        <ele>1217.7320</ele>
        <time>2009-01-05T12:15:23Z</time>
      </trkpt>
      <trkpt lat="27.93806700" lon="-15.6115550">
        <ele>1217.8170</ele>
        <time>2009-01-05T12:15:24Z</time>
      </trkpt>
      <trkpt lat="27.93811400" lon="-15.6114610">
        <ele>1217.5570</ele>
        <time>2009-01-05T12:15:25Z</time>
      </trkpt>
      <trkpt lat="27.93815900" lon="-15.6113690">
        <ele>1217.2450</ele>
        <time>2009-01-05T12:15:26Z</time>
      </trkpt>
      <trkpt lat="27.93820000" lon="-15.6112750">
        <ele>1216.7060</ele>
        <time>2009-01-05T12:15:27Z</time>
      </trkpt>
      <trkpt lat="27.93823300" lon="-15.6111770">
        <ele>1216.4350</ele>
        <time>2009-01-05T12:15:28Z</time>
      </trkpt>
      <trkpt lat="27.93825300" lon="-15.6110760">
        <ele>1215.7670</ele>
        <time>2009-01-05T12:15:29Z</time>
      </trkpt>
      <trkpt lat="27.93825900" lon="-15.6109750">
        <ele>1215.6870</ele>
        <time>2009-01-05T12:15:30Z</time>
      </trkpt>
      <trkpt lat="27.93826200" lon="-15.6108750">
        <ele>1215.5760</ele>
        <time>2009-01-05T12:15:31Z</time>
      </trkpt>
      <trkpt lat="27.93827800" lon="-15.6107790">
        <ele>1214.8750</ele>
        <time>2009-01-05T12:15:32Z</time>
      </trkpt>
      <trkpt lat="27.93831800" lon="-15.6106940">
        <ele>1215.0470</ele>
        <time>2009-01-05T12:15:33Z</time>
      </trkpt>
      <trkpt lat="27.93837800" lon="-15.6106260">
        <ele>1214.7560</ele>
        <time>2009-01-05T12:15:34Z</time>
      </trkpt>
      <trkpt lat="27.93845200" lon="-15.6105760">
        <ele>1214.6770</ele>
        <time>2009-01-05T12:15:35Z</time>
      </trkpt>
      <trkpt lat="27.93853600" lon="-15.6105430">
        <ele>1214.5630</ele>
        <time>2009-01-05T12:15:36Z</time>
      </trkpt>
      <trkpt lat="27.93862400" lon="-15.6105170">
        <ele>1214.3780</ele>
        <time>2009-01-05T12:15:37Z</time>
      </trkpt>
      <trkpt lat="27.93871200" lon="-15.6104850">
        <ele>1214.0520</ele>
        <time>2009-01-05T12:15:38Z</time>
      </trkpt>
      <trkpt lat="27.93878900" lon="-15.6104330">
        <ele>1213.8590</ele>
        <time>2009-01-05T12:15:39Z</time>
      </trkpt>
      <trkpt lat="27.93885000" lon="-15.6103580">
        <ele>1214.0050</ele>
        <time>2009-01-05T12:15:40Z</time>
      </trkpt>
      <trkpt lat="27.93890100" lon="-15.6102730">
        <ele>1213.6740</ele>
        <time>2009-01-05T12:15:41Z</time>
      </trkpt>
      <trkpt lat="27.93896000" lon="-15.6101950">
        <ele>1213.3880</ele>
        <time>2009-01-05T12:15:42Z</time>
      </trkpt>
      <trkpt lat="27.93903100" lon="-15.6101290">
        <ele>1213.0740</ele>
        <time>2009-01-05T12:15:43Z</time>
      </trkpt>
      <trkpt lat="27.93910800" lon="-15.6100670">
        <ele>1212.5870</ele>
        <time>2009-01-05T12:15:44Z</time>
      </trkpt>
      <trkpt lat="27.93918000" lon="-15.6099970">
        <ele>1212.3120</ele>
        <time>2009-01-05T12:15:45Z</time>
      </trkpt>
      <trkpt lat="27.93923900" lon="-15.6099150">
        <ele>1212.9460</ele>
        <time>2009-01-05T12:15:46Z</time>
      </trkpt>
      <trkpt lat="27.93927600" lon="-15.6098180">
        <ele>1212.9170</ele>
        <time>2009-01-05T12:15:47Z</time>
      </trkpt>
      <trkpt lat="27.93928800" lon="-15.6097140">
        <ele>1212.8550</ele>
        <time>2009-01-05T12:15:48Z</time>
      </trkpt>
      <trkpt lat="27.93927700" lon="-15.6096100">
        <ele>1212.0750</ele>
        <time>2009-01-05T12:15:49Z</time>
      </trkpt>
      <trkpt lat="27.93924500" lon="-15.6095100">
        <ele>1212.2010</ele>
        <time>2009-01-05T12:15:50Z</time>
      </trkpt>
      <trkpt lat="27.93917300" lon="-15.6094440">
        <ele>1211.2430</ele>
        <time>2009-01-05T12:15:51Z</time>
      </trkpt>
      <trkpt lat="27.93908300" lon="-15.6093990">
        <ele>1210.4760</ele>
        <time>2009-01-05T12:15:52Z</time>
      </trkpt>
      <trkpt lat="27.93899300" lon="-15.6093650">
        <ele>1210.4720</ele>
        <time>2009-01-05T12:15:53Z</time>
      </trkpt>
      <trkpt lat="27.93890300" lon="-15.6093270">
        <ele>1209.8610</ele>
        <time>2009-01-05T12:15:54Z</time>
      </trkpt>
      <trkpt lat="27.93881500" lon="-15.6092790">
        <ele>1209.6150</ele>
        <time>2009-01-05T12:15:55Z</time>
      </trkpt>
      <trkpt lat="27.93873000" lon="-15.6092230">
        <ele>1209.2780</ele>
        <time>2009-01-05T12:15:56Z</time>
      </trkpt>
      <trkpt lat="27.93864500" lon="-15.6091630">
        <ele>1209.0660</ele>
        <time>2009-01-05T12:15:57Z</time>
      </trkpt>
      <trkpt lat="27.93855900" lon="-15.6091020">
        <ele>1209.0020</ele>
        <time>2009-01-05T12:15:58Z</time>
      </trkpt>
      <trkpt lat="27.93847300" lon="-15.6090430">
        <ele>1208.4060</ele>
        <time>2009-01-05T12:15:59Z</time>
      </trkpt>
      <trkpt lat="27.93839300" lon="-15.6089750">
        <ele>1208.2650</ele>
        <time>2009-01-05T12:16:00Z</time>
      </trkpt>
      <trkpt lat="27.93834200" lon="-15.6088750">
        <ele>1208.1660</ele>
        <time>2009-01-05T12:16:01Z</time>
      </trkpt>
      <trkpt lat="27.93831600" lon="-15.6087650">
        <ele>1207.4080</ele>
        <time>2009-01-05T12:16:02Z</time>
      </trkpt>
      <trkpt lat="27.93830700" lon="-15.6086470">
        <ele>1207.1740</ele>
        <time>2009-01-05T12:16:03Z</time>
      </trkpt>
      <trkpt lat="27.93830700" lon="-15.6085260">
        <ele>1206.5840</ele>
        <time>2009-01-05T12:16:04Z</time>
      </trkpt>
      <trkpt lat="27.93830700" lon="-15.6084050">
        <ele>1206.5450</ele>
        <time>2009-01-05T12:16:05Z</time>
      </trkpt>
      <trkpt lat="27.93829300" lon="-15.6082860">
        <ele>1205.7040</ele>
        <time>2009-01-05T12:16:06Z</time>
      </trkpt>
      <trkpt lat="27.93824700" lon="-15.6081850">
        <ele>1205.9640</ele>
        <time>2009-01-05T12:16:07Z</time>
      </trkpt>
      <trkpt lat="27.93817000" lon="-15.6081150">
        <ele>1206.2760</ele>
        <time>2009-01-05T12:16:08Z</time>
      </trkpt>
      <trkpt lat="27.93808400" lon="-15.6080710">
        <ele>1205.8310</ele>
        <time>2009-01-05T12:16:09Z</time>
      </trkpt>
      <trkpt lat="27.93799400" lon="-15.6080390">
        <ele>1205.7560</ele>
        <time>2009-01-05T12:16:10Z</time>
      </trkpt>
      <trkpt lat="27.93790500" lon="-15.6080170">
        <ele>1205.2900</ele>
        <time>2009-01-05T12:16:11Z</time>
      </trkpt>
      <trkpt lat="27.93781500" lon="-15.6080030">
        <ele>1205.4790</ele>
        <time>2009-01-05T12:16:12Z</time>
      </trkpt>
      <trkpt lat="27.93772400" lon="-15.6079970">
        <ele>1205.6950</ele>
        <time>2009-01-05T12:16:13Z</time>
      </trkpt>
      <trkpt lat="27.93763400" lon="-15.6079980">
        <ele>1205.8900</ele>
        <time>2009-01-05T12:16:14Z</time>
      </trkpt>
      <trkpt lat="27.93754600" lon="-15.6080060">
        <ele>1206.0530</ele>
        <time>2009-01-05T12:16:15Z</time>
      </trkpt>
      <trkpt lat="27.93746100" lon="-15.6080190">
        <ele>1205.6340</ele>
        <time>2009-01-05T12:16:16Z</time>
      </trkpt>
      <trkpt lat="27.93737800" lon="-15.6080360">
        <ele>1205.4720</ele>
        <time>2009-01-05T12:16:17Z</time>
      </trkpt>
      <trkpt lat="27.93729700" lon="-15.6080500">
        <ele>1205.6670</ele>
        <time>2009-01-05T12:16:18Z</time>
      </trkpt>
      <trkpt lat="27.93722000" lon="-15.6080520">
        <ele>1205.7170</ele>
        <time>2009-01-05T12:16:19Z</time>
      </trkpt>
      <trkpt lat="27.93714900" lon="-15.6080290">
        <ele>1205.7860</ele>
        <time>2009-01-05T12:16:20Z</time>
      </trkpt>
      <trkpt lat="27.93709400" lon="-15.6079730">
        <ele>1205.8670</ele>
        <time>2009-01-05T12:16:21Z</time>
      </trkpt>
      <trkpt lat="27.93706100" lon="-15.6078950">
        <ele>1205.5000</ele>
        <time>2009-01-05T12:16:22Z</time>
      </trkpt>
      <trkpt lat="27.93703300" lon="-15.6078030">
        <ele>1204.9080</ele>
        <time>2009-01-05T12:16:23Z</time>
      </trkpt>
      <trkpt lat="27.93700400" lon="-15.6077040">
        <ele>1204.3450</ele>
        <time>2009-01-05T12:16:24Z</time>
      </trkpt>
      <trkpt lat="27.93697200" lon="-15.6076010">
        <ele>1204.2470</ele>
        <time>2009-01-05T12:16:25Z</time>
      </trkpt>
      <trkpt lat="27.93693100" lon="-15.6074980">
        <ele>1203.6340</ele>
        <time>2009-01-05T12:16:26Z</time>
      </trkpt>
      <trkpt lat="27.93688300" lon="-15.6073980">
        <ele>1203.0210</ele>
        <time>2009-01-05T12:16:27Z</time>
      </trkpt>
      <trkpt lat="27.93682400" lon="-15.6073060">
        <ele>1202.4990</ele>
        <time>2009-01-05T12:16:28Z</time>
      </trkpt>
      <trkpt lat="27.93675600" lon="-15.6072220">
        <ele>1202.0950</ele>
        <time>2009-01-05T12:16:29Z</time>
      </trkpt>
      <trkpt lat="27.93668200" lon="-15.6071460">
        <ele>1201.4800</ele>
        <time>2009-01-05T12:16:30Z</time>
      </trkpt>
      <trkpt lat="27.93660000" lon="-15.6070770">
        <ele>1200.9020</ele>
        <time>2009-01-05T12:16:31Z</time>
      </trkpt>
      <trkpt lat="27.93651000" lon="-15.6070200">
        <ele>1200.3130</ele>
        <time>2009-01-05T12:16:32Z</time>
      </trkpt>
      <trkpt lat="27.93641200" lon="-15.6069750">
        <ele>1200.0910</ele>
        <time>2009-01-05T12:16:33Z</time>
      </trkpt>
      <trkpt lat="27.93631300" lon="-15.6069330">
        <ele>1198.9810</ele>
        <time>2009-01-05T12:16:34Z</time>
      </trkpt>
      <trkpt lat="27.93621900" lon="-15.6068790">
        <ele>1198.3980</ele>
        <time>2009-01-05T12:16:35Z</time>
      </trkpt>
      <trkpt lat="27.93613700" lon="-15.6067930">
        <ele>1197.2300</ele>
        <time>2009-01-05T12:16:36Z</time>
      </trkpt>
      <trkpt lat="27.93608700" lon="-15.6066810">
        <ele>1196.7920</ele>
        <time>2009-01-05T12:16:37Z</time>
      </trkpt>
      <trkpt lat="27.93605600" lon="-15.6065600">
        <ele>1196.1390</ele>
        <time>2009-01-05T12:16:38Z</time>
      </trkpt>
      <trkpt lat="27.93604100" lon="-15.6064330">
        <ele>1195.6300</ele>
        <time>2009-01-05T12:16:39Z</time>
      </trkpt>
      <trkpt lat="27.93602800" lon="-15.6063060">
        <ele>1195.6520</ele>
        <time>2009-01-05T12:16:40Z</time>
      </trkpt>
      <trkpt lat="27.93601400" lon="-15.6061840">
        <ele>1195.8610</ele>
        <time>2009-01-05T12:16:41Z</time>
      </trkpt>
      <trkpt lat="27.93600700" lon="-15.6060680">
        <ele>1195.9010</ele>
        <time>2009-01-05T12:16:42Z</time>
      </trkpt>
      <trkpt lat="27.93600900" lon="-15.6059590">
        <ele>1196.4720</ele>
        <time>2009-01-05T12:16:43Z</time>
      </trkpt>
      <trkpt lat="27.93601500" lon="-15.6058530">
        <ele>1197.2460</ele>
        <time>2009-01-05T12:16:44Z</time>
      </trkpt>
      <trkpt lat="27.93602000" lon="-15.6057490">
        <ele>1197.6450</ele>
        <time>2009-01-05T12:16:45Z</time>
      </trkpt>
      <trkpt lat="27.93602400" lon="-15.6056510">
        <ele>1198.2180</ele>
        <time>2009-01-05T12:16:46Z</time>
      </trkpt>
      <trkpt lat="27.93603500" lon="-15.6055570">
        <ele>1198.4320</ele>
        <time>2009-01-05T12:16:47Z</time>
      </trkpt>
      <trkpt lat="27.93606200" lon="-15.6054730">
        <ele>1198.9340</ele>
        <time>2009-01-05T12:16:48Z</time>
      </trkpt>
      <trkpt lat="27.93610000" lon="-15.6053970">
        <ele>1198.8640</ele>
        <time>2009-01-05T12:16:49Z</time>
      </trkpt>
      <trkpt lat="27.93614100" lon="-15.6053240">
        <ele>1199.3050</ele>
        <time>2009-01-05T12:16:50Z</time>
      </trkpt>
      <trkpt lat="27.93617400" lon="-15.6052490">
        <ele>1199.3870</ele>
        <time>2009-01-05T12:16:51Z</time>
      </trkpt>
      <trkpt lat="27.93619300" lon="-15.6051700">
        <ele>1199.7280</ele>
        <time>2009-01-05T12:16:52Z</time>
      </trkpt>
      <trkpt lat="27.93620000" lon="-15.6050880">
        <ele>1200.5680</ele>
        <time>2009-01-05T12:16:53Z</time>
      </trkpt>
      <trkpt lat="27.93620200" lon="-15.6050070">
        <ele>1200.7730</ele>
        <time>2009-01-05T12:16:54Z</time>
      </trkpt>
      <trkpt lat="27.93620400" lon="-15.6049280">
        <ele>1200.8200</ele>
        <time>2009-01-05T12:16:55Z</time>
      </trkpt>
      <trkpt lat="27.93620800" lon="-15.6048510">
        <ele>1201.0080</ele>
        <time>2009-01-05T12:16:56Z</time>
      </trkpt>
      <trkpt lat="27.93621300" lon="-15.6047760">
        <ele>1201.6940</ele>
        <time>2009-01-05T12:16:57Z</time>
      </trkpt>
      <trkpt lat="27.93622200" lon="-15.6047040">
        <ele>1202.1060</ele>
        <time>2009-01-05T12:16:58Z</time>
      </trkpt>
      <trkpt lat="27.93623000" lon="-15.6046330">
        <ele>1202.5680</ele>
        <time>2009-01-05T12:16:59Z</time>
      </trkpt>
      <trkpt lat="27.93623300" lon="-15.6045630">
        <ele>1203.5110</ele>
        <time>2009-01-05T12:17:00Z</time>
      </trkpt>
      <trkpt lat="27.93622900" lon="-15.6044950">
        <ele>1203.0540</ele>
        <time>2009-01-05T12:17:01Z</time>
      </trkpt>
      <trkpt lat="27.93621800" lon="-15.6044280">
        <ele>1203.2040</ele>
        <time>2009-01-05T12:17:02Z</time>
      </trkpt>
      <trkpt lat="27.93620000" lon="-15.6043630">
        <ele>1203.4780</ele>
        <time>2009-01-05T12:17:03Z</time>
      </trkpt>
      <trkpt lat="27.93617500" lon="-15.6043010">
        <ele>1203.8850</ele>
        <time>2009-01-05T12:17:04Z</time>
      </trkpt>
      <trkpt lat="27.93614300" lon="-15.6042460">
        <ele>1204.0590</ele>
        <time>2009-01-05T12:17:05Z</time>
      </trkpt>
      <trkpt lat="27.93610200" lon="-15.6042010">
        <ele>1204.4600</ele>
        <time>2009-01-05T12:17:06Z</time>
      </trkpt>
      <trkpt lat="27.93605100" lon="-15.6041710">
        <ele>1205.0100</ele>
        <time>2009-01-05T12:17:07Z</time>
      </trkpt>
      <trkpt lat="27.93599600" lon="-15.6041600">
        <ele>1204.7190</ele>
        <time>2009-01-05T12:17:08Z</time>
      </trkpt>
      <trkpt lat="27.93594200" lon="-15.6041650">
        <ele>1204.8240</ele>
        <time>2009-01-05T12:17:09Z</time>
      </trkpt>
      <trkpt lat="27.93588800" lon="-15.6041710">
        <ele>1205.1070</ele>
        <time>2009-01-05T12:17:10Z</time>
      </trkpt>
      <trkpt lat="27.93583200" lon="-15.6041680">
        <ele>1205.2230</ele>
        <time>2009-01-05T12:17:11Z</time>
      </trkpt>
      <trkpt lat="27.93577800" lon="-15.6041490">
        <ele>1205.4710</ele>
        <time>2009-01-05T12:17:12Z</time>
      </trkpt>
      <trkpt lat="27.93572900" lon="-15.6041130">
        <ele>1205.5320</ele>
        <time>2009-01-05T12:17:13Z</time>
      </trkpt>
      <trkpt lat="27.93568900" lon="-15.6040670">
        <ele>1205.5870</ele>
        <time>2009-01-05T12:17:14Z</time>
      </trkpt>
      <trkpt lat="27.93566100" lon="-15.6040130">
        <ele>1205.8220</ele>
        <time>2009-01-05T12:17:15Z</time>
      </trkpt>
      <trkpt lat="27.93564200" lon="-15.6039590">
        <ele>1205.5260</ele>
        <time>2009-01-05T12:17:16Z</time>
      </trkpt>
      <trkpt lat="27.93562700" lon="-15.6039060">
        <ele>1205.6820</ele>
        <time>2009-01-05T12:17:17Z</time>
      </trkpt>
      <trkpt lat="27.93561500" lon="-15.6038530">
        <ele>1206.0450</ele>
        <time>2009-01-05T12:17:18Z</time>
      </trkpt>
      <trkpt lat="27.93560400" lon="-15.6038000">
        <ele>1206.3620</ele>
        <time>2009-01-05T12:17:19Z</time>
      </trkpt>
      <trkpt lat="27.93559300" lon="-15.6037500">
        <ele>1206.4660</ele>
        <time>2009-01-05T12:17:20Z</time>
      </trkpt>
      <trkpt lat="27.93558000" lon="-15.6036990">
        <ele>1206.4850</ele>
        <time>2009-01-05T12:17:21Z</time>
      </trkpt>
      <trkpt lat="27.93556300" lon="-15.6036490">
        <ele>1206.7890</ele>
        <time>2009-01-05T12:17:22Z</time>
      </trkpt>
      <trkpt lat="27.93554400" lon="-15.6036010">
        <ele>1206.8480</ele>
        <time>2009-01-05T12:17:23Z</time>
      </trkpt>
      <trkpt lat="27.93552400" lon="-15.6035500">
        <ele>1207.2710</ele>
        <time>2009-01-05T12:17:24Z</time>
      </trkpt>
      <trkpt lat="27.93550600" lon="-15.6034970">
        <ele>1207.6100</ele>
        <time>2009-01-05T12:17:25Z</time>
      </trkpt>
      <trkpt lat="27.93549000" lon="-15.6034450">
        <ele>1207.3970</ele>
        <time>2009-01-05T12:17:26Z</time>
      </trkpt>
      <trkpt lat="27.93547200" lon="-15.6033930">
        <ele>1208.2010</ele>
        <time>2009-01-05T12:17:27Z</time>
      </trkpt>
      <trkpt lat="27.93545500" lon="-15.6033400">
        <ele>1208.5450</ele>
        <time>2009-01-05T12:17:28Z</time>
      </trkpt>
      <trkpt lat="27.93543800" lon="-15.6032870">
        <ele>1208.4640</ele>
        <time>2009-01-05T12:17:29Z</time>
      </trkpt>
      <trkpt lat="27.93542100" lon="-15.6032340">
        <ele>1208.6220</ele>
        <time>2009-01-05T12:17:30Z</time>
      </trkpt>
      <trkpt lat="27.93540300" lon="-15.6031840">
        <ele>1209.0350</ele>
        <time>2009-01-05T12:17:31Z</time>
      </trkpt>
      <trkpt lat="27.93538300" lon="-15.6031360">
        <ele>1209.1490</ele>
        <time>2009-01-05T12:17:32Z</time>
      </trkpt>
      <trkpt lat="27.93536600" lon="-15.6030880">
        <ele>1209.5860</ele>
        <time>2009-01-05T12:17:33Z</time>
      </trkpt>
      <trkpt lat="27.93534900" lon="-15.6030400">
        <ele>1210.0650</ele>
        <time>2009-01-05T12:17:34Z</time>
      </trkpt>
      <trkpt lat="27.93533200" lon="-15.6029920">
        <ele>1209.9910</ele>
        <time>2009-01-05T12:17:35Z</time>
      </trkpt>
      <trkpt lat="27.93531500" lon="-15.6029450">
        <ele>1210.1450</ele>
        <time>2009-01-05T12:17:36Z</time>
      </trkpt>
      <trkpt lat="27.93529600" lon="-15.6029000">
        <ele>1210.1640</ele>
        <time>2009-01-05T12:17:37Z</time>
      </trkpt>
      <trkpt lat="27.93527900" lon="-15.6028550">
        <ele>1210.5600</ele>
        <time>2009-01-05T12:17:38Z</time>
      </trkpt>
      <trkpt lat="27.93526200" lon="-15.6028090">
        <ele>1210.4890</ele>
        <time>2009-01-05T12:17:39Z</time>
      </trkpt>
      <trkpt lat="27.93524600" lon="-15.6027620">
        <ele>1210.8020</ele>
        <time>2009-01-05T12:17:40Z</time>
      </trkpt>
      <trkpt lat="27.93522900" lon="-15.6027150">
        <ele>1211.3520</ele>
        <time>2009-01-05T12:17:41Z</time>
      </trkpt>
      <trkpt lat="27.93521200" lon="-15.6026670">
        <ele>1211.2990</ele>
        <time>2009-01-05T12:17:42Z</time>
      </trkpt>
      <trkpt lat="27.93519600" lon="-15.6026190">
        <ele>1211.2840</ele>
        <time>2009-01-05T12:17:43Z</time>
      </trkpt>
      <trkpt lat="27.93517900" lon="-15.6025690">
        <ele>1211.5030</ele>
        <time>2009-01-05T12:17:44Z</time>
      </trkpt>
      <trkpt lat="27.93516200" lon="-15.6025190">
        <ele>1212.1060</ele>
        <time>2009-01-05T12:17:45Z</time>
      </trkpt>
      <trkpt lat="27.93514400" lon="-15.6024690">
        <ele>1212.2550</ele>
        <time>2009-01-05T12:17:46Z</time>
      </trkpt>
      <trkpt lat="27.93512500" lon="-15.6024180">
        <ele>1212.1810</ele>
        <time>2009-01-05T12:17:47Z</time>
      </trkpt>
      <trkpt lat="27.93510600" lon="-15.6023670">
        <ele>1212.2470</ele>
        <time>2009-01-05T12:17:48Z</time>
      </trkpt>
      <trkpt lat="27.93508700" lon="-15.6023190">
        <ele>1212.3020</ele>
        <time>2009-01-05T12:17:49Z</time>
      </trkpt>
      <trkpt lat="27.93506700" lon="-15.6022720">
        <ele>1212.3690</ele>
        <time>2009-01-05T12:17:50Z</time>
      </trkpt>
      <trkpt lat="27.93504700" lon="-15.6022240">
        <ele>1213.0140</ele>
        <time>2009-01-05T12:17:51Z</time>
      </trkpt>
      <trkpt lat="27.93502600" lon="-15.6021750">
        <ele>1212.9670</ele>
        <time>2009-01-05T12:17:52Z</time>
      </trkpt>
      <trkpt lat="27.93500500" lon="-15.6021270">
        <ele>1213.3240</ele>
        <time>2009-01-05T12:17:53Z</time>
      </trkpt>
      <trkpt lat="27.93498600" lon="-15.6020800">
        <ele>1213.5090</ele>
        <time>2009-01-05T12:17:54Z</time>
      </trkpt>
      <trkpt lat="27.93497100" lon="-15.6020320">
        <ele>1213.6290</ele>
        <time>2009-01-05T12:17:55Z</time>
      </trkpt>
      <trkpt lat="27.93495800" lon="-15.6019850">
        <ele>1213.9330</ele>
        <time>2009-01-05T12:17:56Z</time>
      </trkpt>
      <trkpt lat="27.93494800" lon="-15.6019360">
        <ele>1214.1500</ele>
        <time>2009-01-05T12:17:57Z</time>
      </trkpt>
      <trkpt lat="27.93494200" lon="-15.6018860">
        <ele>1214.1780</ele>
        <time>2009-01-05T12:17:58Z</time>
      </trkpt>
      <trkpt lat="27.93493700" lon="-15.6018350">
        <ele>1214.3340</ele>
        <time>2009-01-05T12:17:59Z</time>
      </trkpt>
      <trkpt lat="27.93493300" lon="-15.6017820">
        <ele>1214.3750</ele>
        <time>2009-01-05T12:18:00Z</time>
      </trkpt>
      <trkpt lat="27.93492900" lon="-15.6017290">
        <ele>1214.8890</ele>
        <time>2009-01-05T12:18:01Z</time>
      </trkpt>
      <trkpt lat="27.93492300" lon="-15.6016760">
        <ele>1214.9960</ele>
        <time>2009-01-05T12:18:02Z</time>
      </trkpt>
      <trkpt lat="27.93491600" lon="-15.6016230">
        <ele>1215.1510</ele>
        <time>2009-01-05T12:18:03Z</time>
      </trkpt>
      <trkpt lat="27.93490800" lon="-15.6015700">
        <ele>1215.5040</ele>
        <time>2009-01-05T12:18:04Z</time>
      </trkpt>
      <trkpt lat="27.93490200" lon="-15.6015190">
        <ele>1215.5320</ele>
        <time>2009-01-05T12:18:05Z</time>
      </trkpt>
      <trkpt lat="27.93489900" lon="-15.6014680">
        <ele>1216.0150</ele>
        <time>2009-01-05T12:18:06Z</time>
      </trkpt>
      <trkpt lat="27.93489700" lon="-15.6014160">
        <ele>1215.8480</ele>
        <time>2009-01-05T12:18:07Z</time>
      </trkpt>
      <trkpt lat="27.93489600" lon="-15.6013620">
        <ele>1216.2310</ele>
        <time>2009-01-05T12:18:08Z</time>
      </trkpt>
      <trkpt lat="27.93489200" lon="-15.6013050">
        <ele>1216.5090</ele>
        <time>2009-01-05T12:18:09Z</time>
      </trkpt>
      <trkpt lat="27.93488100" lon="-15.6012490">
        <ele>1216.6910</ele>
        <time>2009-01-05T12:18:10Z</time>
      </trkpt>
      <trkpt lat="27.93485800" lon="-15.6011950">
        <ele>1216.8760</ele>
        <time>2009-01-05T12:18:11Z</time>
      </trkpt>
      <trkpt lat="27.93482600" lon="-15.6011450">
        <ele>1216.8870</ele>
        <time>2009-01-05T12:18:12Z</time>
      </trkpt>
      <trkpt lat="27.93479000" lon="-15.6010980">
        <ele>1217.2250</ele>
        <time>2009-01-05T12:18:13Z</time>
      </trkpt>
      <trkpt lat="27.93475300" lon="-15.6010520">
        <ele>1216.8530</ele>
        <time>2009-01-05T12:18:14Z</time>
      </trkpt>
      <trkpt lat="27.93471600" lon="-15.6010070">
        <ele>1217.1910</ele>
        <time>2009-01-05T12:18:15Z</time>
      </trkpt>
      <trkpt lat="27.93467800" lon="-15.6009640">
        <ele>1217.3300</ele>
        <time>2009-01-05T12:18:16Z</time>
      </trkpt>
      <trkpt lat="27.93463600" lon="-15.6009240">
        <ele>1217.2700</ele>
        <time>2009-01-05T12:18:17Z</time>
      </trkpt>
      <trkpt lat="27.93459300" lon="-15.6008860">
        <ele>1217.6460</ele>
        <time>2009-01-05T12:18:18Z</time>
      </trkpt>
      <trkpt lat="27.93454700" lon="-15.6008520">
        <ele>1217.6250</ele>
        <time>2009-01-05T12:18:19Z</time>
      </trkpt>
      <trkpt lat="27.93449800" lon="-15.6008210">
        <ele>1217.6260</ele>
        <time>2009-01-05T12:18:20Z</time>
      </trkpt>
      <trkpt lat="27.93444800" lon="-15.6007930">
        <ele>1217.7060</ele>
        <time>2009-01-05T12:18:21Z</time>
      </trkpt>
      <trkpt lat="27.93439500" lon="-15.6007670">
        <ele>1217.6940</ele>
        <time>2009-01-05T12:18:22Z</time>
      </trkpt>
      <trkpt lat="27.93434100" lon="-15.6007450">
        <ele>1217.7000</ele>
        <time>2009-01-05T12:18:23Z</time>
      </trkpt>
      <trkpt lat="27.93428600" lon="-15.6007270">
        <ele>1217.8780</ele>
        <time>2009-01-05T12:18:24Z</time>
      </trkpt>
      <trkpt lat="27.93423000" lon="-15.6007130">
        <ele>1218.3130</ele>
        <time>2009-01-05T12:18:25Z</time>
      </trkpt>
      <trkpt lat="27.93417500" lon="-15.6006990">
        <ele>1218.1880</ele>
        <time>2009-01-05T12:18:26Z</time>
      </trkpt>
      <trkpt lat="27.93412000" lon="-15.6006850">
        <ele>1218.2950</ele>
        <time>2009-01-05T12:18:27Z</time>
      </trkpt>
      <trkpt lat="27.93406700" lon="-15.6006700">
        <ele>1218.6590</ele>
        <time>2009-01-05T12:18:28Z</time>
      </trkpt>
      <trkpt lat="27.93401500" lon="-15.6006500">
        <ele>1218.9430</ele>
        <time>2009-01-05T12:18:29Z</time>
      </trkpt>
      <trkpt lat="27.93396600" lon="-15.6006230">
        <ele>1219.3600</ele>
        <time>2009-01-05T12:18:30Z</time>
      </trkpt>
      <trkpt lat="27.93391900" lon="-15.6005930">
        <ele>1219.4140</ele>
        <time>2009-01-05T12:18:31Z</time>
      </trkpt>
      <trkpt lat="27.93387300" lon="-15.6005610">
        <ele>1219.7730</ele>
        <time>2009-01-05T12:18:32Z</time>
      </trkpt>
      <trkpt lat="27.93382600" lon="-15.6005320">
        <ele>1219.7240</ele>
        <time>2009-01-05T12:18:33Z</time>
      </trkpt>
      <trkpt lat="27.93377900" lon="-15.6005040">
        <ele>1220.0300</ele>
        <time>2009-01-05T12:18:34Z</time>
      </trkpt>
      <trkpt lat="27.93372900" lon="-15.6004810">
        <ele>1220.3830</ele>
        <time>2009-01-05T12:18:35Z</time>
      </trkpt>
      <trkpt lat="27.93367900" lon="-15.6004630">
        <ele>1220.6060</ele>
        <time>2009-01-05T12:18:36Z</time>
      </trkpt>
      <trkpt lat="27.93362800" lon="-15.6004480">
        <ele>1220.6900</ele>
        <time>2009-01-05T12:18:37Z</time>
      </trkpt>
      <trkpt lat="27.93357700" lon="-15.6004350">
        <ele>1220.7540</ele>
        <time>2009-01-05T12:18:38Z</time>
      </trkpt>
      <trkpt lat="27.93352600" lon="-15.6004250">
        <ele>1221.2470</ele>
        <time>2009-01-05T12:18:39Z</time>
      </trkpt>
      <trkpt lat="27.93347300" lon="-15.6004210">
        <ele>1221.3120</ele>
        <time>2009-01-05T12:18:40Z</time>
      </trkpt>
      <trkpt lat="27.93341900" lon="-15.6004260">
        <ele>1221.6220</ele>
        <time>2009-01-05T12:18:41Z</time>
      </trkpt>
      <trkpt lat="27.93336600" lon="-15.6004400">
        <ele>1221.6470</ele>
        <time>2009-01-05T12:18:42Z</time>
      </trkpt>
      <trkpt lat="27.93331600" lon="-15.6004610">
        <ele>1221.5980</ele>
        <time>2009-01-05T12:18:43Z</time>
      </trkpt>
      <trkpt lat="27.93326900" lon="-15.6004870">
        <ele>1221.9270</ele>
        <time>2009-01-05T12:18:44Z</time>
      </trkpt>
      <trkpt lat="27.93322400" lon="-15.6005130">
        <ele>1222.3720</ele>
        <time>2009-01-05T12:18:45Z</time>
      </trkpt>
      <trkpt lat="27.93317800" lon="-15.6005360">
        <ele>1222.4720</ele>
        <time>2009-01-05T12:18:46Z</time>
      </trkpt>
      <trkpt lat="27.93313200" lon="-15.6005580">
        <ele>1222.7350</ele>
        <time>2009-01-05T12:18:47Z</time>
      </trkpt>
      <trkpt lat="27.93308600" lon="-15.6005760">
        <ele>1222.8530</ele>
        <time>2009-01-05T12:18:48Z</time>
      </trkpt>
      <trkpt lat="27.93303700" lon="-15.6005910">
        <ele>1223.2920</ele>
        <time>2009-01-05T12:18:49Z</time>
      </trkpt>
      <trkpt lat="27.93298700" lon="-15.6005990">
        <ele>1223.6140</ele>
        <time>2009-01-05T12:18:50Z</time>
      </trkpt>
      <trkpt lat="27.93293600" lon="-15.6006030">
        <ele>1223.5210</ele>
        <time>2009-01-05T12:18:51Z</time>
      </trkpt>
      <trkpt lat="27.93288300" lon="-15.6005990">
        <ele>1223.3980</ele>
        <time>2009-01-05T12:18:52Z</time>
      </trkpt>
      <trkpt lat="27.93283100" lon="-15.6005900">
        <ele>1223.2340</ele>
        <time>2009-01-05T12:18:53Z</time>
      </trkpt>
      <trkpt lat="27.93278100" lon="-15.6005700">
        <ele>1223.5980</ele>
        <time>2009-01-05T12:18:54Z</time>
      </trkpt>
      <trkpt lat="27.93273600" lon="-15.6005390">
        <ele>1223.8220</ele>
        <time>2009-01-05T12:18:55Z</time>
      </trkpt>
      <trkpt lat="27.93269500" lon="-15.6004990">
        <ele>1223.9090</ele>
        <time>2009-01-05T12:18:56Z</time>
      </trkpt>
      <trkpt lat="27.93265900" lon="-15.6004530">
        <ele>1223.6860</ele>
        <time>2009-01-05T12:18:57Z</time>
      </trkpt>
      <trkpt lat="27.93262700" lon="-15.6004040">
        <ele>1223.7990</ele>
        <time>2009-01-05T12:18:58Z</time>
      </trkpt>
      <trkpt lat="27.93259600" lon="-15.6003530">
        <ele>1224.3900</ele>
        <time>2009-01-05T12:18:59Z</time>
      </trkpt>
      <trkpt lat="27.93256300" lon="-15.6003050">
        <ele>1224.7430</ele>
        <time>2009-01-05T12:19:00Z</time>
      </trkpt>
      <trkpt lat="27.93252900" lon="-15.6002600">
        <ele>1224.9510</ele>
        <time>2009-01-05T12:19:01Z</time>
      </trkpt>
      <trkpt lat="27.93249200" lon="-15.6002200">
        <ele>1224.9290</ele>
        <time>2009-01-05T12:19:02Z</time>
      </trkpt>
      <trkpt lat="27.93245400" lon="-15.6001880">
        <ele>1225.3350</ele>
        <time>2009-01-05T12:19:03Z</time>
      </trkpt>
      <trkpt lat="27.93241500" lon="-15.6001610">
        <ele>1225.5950</ele>
        <time>2009-01-05T12:19:04Z</time>
      </trkpt>
      <trkpt lat="27.93237600" lon="-15.6001360">
        <ele>1225.9880</ele>
        <time>2009-01-05T12:19:05Z</time>
      </trkpt>
      <trkpt lat="27.93233800" lon="-15.6001120">
        <ele>1226.4450</ele>
        <time>2009-01-05T12:19:06Z</time>
      </trkpt>
      <trkpt lat="27.93230100" lon="-15.6000900">
        <ele>1226.4250</ele>
        <time>2009-01-05T12:19:07Z</time>
      </trkpt>
      <trkpt lat="27.93226500" lon="-15.6000670">
        <ele>1226.6890</ele>
        <time>2009-01-05T12:19:08Z</time>
      </trkpt>
      <trkpt lat="27.93223000" lon="-15.6000450">
        <ele>1227.0630</ele>
        <time>2009-01-05T12:19:09Z</time>
      </trkpt>
      <trkpt lat="27.93219700" lon="-15.6000220">
        <ele>1227.2210</ele>
        <time>2009-01-05T12:19:10Z</time>
      </trkpt>
      <trkpt lat="27.93216600" lon="-15.6000010">
        <ele>1227.5080</ele>
        <time>2009-01-05T12:19:11Z</time>
      </trkpt>
      <trkpt lat="27.93213400" lon="-15.5999790">
        <ele>1227.7160</ele>
        <time>2009-01-05T12:19:12Z</time>
      </trkpt>
      <trkpt lat="27.93210200" lon="-15.5999560">
        <ele>1228.5450</ele>
        <time>2009-01-05T12:19:13Z</time>
      </trkpt>
      <trkpt lat="27.93207000" lon="-15.5999320">
        <ele>1228.5730</ele>
        <time>2009-01-05T12:19:14Z</time>
      </trkpt>
      <trkpt lat="27.93203800" lon="-15.5999080">
        <ele>1229.0100</ele>
        <time>2009-01-05T12:19:15Z</time>
      </trkpt>
      <trkpt lat="27.93200700" lon="-15.5998820">
        <ele>1229.3370</ele>
        <time>2009-01-05T12:19:16Z</time>
      </trkpt>
      <trkpt lat="27.93197600" lon="-15.5998560">
        <ele>1229.3170</ele>
        <time>2009-01-05T12:19:17Z</time>
      </trkpt>
      <trkpt lat="27.93194500" lon="-15.5998310">
        <ele>1229.8260</ele>
        <time>2009-01-05T12:19:18Z</time>
      </trkpt>
      <trkpt lat="27.93191300" lon="-15.5998060">
        <ele>1230.0250</ele>
        <time>2009-01-05T12:19:19Z</time>
      </trkpt>
      <trkpt lat="27.93188300" lon="-15.5997820">
        <ele>1230.3460</ele>
        <time>2009-01-05T12:19:20Z</time>
      </trkpt>
      <trkpt lat="27.93185300" lon="-15.5997580">
        <ele>1230.8360</ele>
        <time>2009-01-05T12:19:21Z</time>
      </trkpt>
      <trkpt lat="27.93182400" lon="-15.5997360">
        <ele>1230.8130</ele>
        <time>2009-01-05T12:19:22Z</time>
      </trkpt>
      <trkpt lat="27.93179600" lon="-15.5997140">
        <ele>1231.1970</ele>
        <time>2009-01-05T12:19:23Z</time>
      </trkpt>
      <trkpt lat="27.93176800" lon="-15.5996920">
        <ele>1231.4550</ele>
        <time>2009-01-05T12:19:24Z</time>
      </trkpt>
      <trkpt lat="27.93174000" lon="-15.5996710">
        <ele>1231.7700</ele>
        <time>2009-01-05T12:19:25Z</time>
      </trkpt>
      <trkpt lat="27.93171200" lon="-15.5996510">
        <ele>1232.1090</ele>
        <time>2009-01-05T12:19:26Z</time>
      </trkpt>
      <trkpt lat="27.93168400" lon="-15.5996310">
        <ele>1232.3740</ele>
        <time>2009-01-05T12:19:27Z</time>
      </trkpt>
      <trkpt lat="27.93165600" lon="-15.5996110">
        <ele>1232.4300</ele>
        <time>2009-01-05T12:19:28Z</time>
      </trkpt>
      <trkpt lat="27.93162500" lon="-15.5995890">
        <ele>1232.9070</ele>
        <time>2009-01-05T12:19:29Z</time>
      </trkpt>
      <trkpt lat="27.93159500" lon="-15.5995690">
        <ele>1233.2170</ele>
        <time>2009-01-05T12:19:30Z</time>
      </trkpt>
      <trkpt lat="27.93156400" lon="-15.5995490">
        <ele>1233.4470</ele>
        <time>2009-01-05T12:19:31Z</time>
      </trkpt>
      <trkpt lat="27.93153500" lon="-15.5995280">
        <ele>1233.5660</ele>
        <time>2009-01-05T12:19:32Z</time>
      </trkpt>
      <trkpt lat="27.93150600" lon="-15.5995080">
        <ele>1233.5770</ele>
        <time>2009-01-05T12:19:33Z</time>
      </trkpt>
      <trkpt lat="27.93147700" lon="-15.5994880">
        <ele>1234.2010</ele>
        <time>2009-01-05T12:19:34Z</time>
      </trkpt>
      <trkpt lat="27.93144900" lon="-15.5994680">
        <ele>1234.5840</ele>
        <time>2009-01-05T12:19:35Z</time>
      </trkpt>
      <trkpt lat="27.93142000" lon="-15.5994490">
        <ele>1234.8230</ele>
        <time>2009-01-05T12:19:36Z</time>
      </trkpt>
      <trkpt lat="27.93139100" lon="-15.5994290">
        <ele>1234.9550</ele>
        <time>2009-01-05T12:19:37Z</time>
      </trkpt>
      <trkpt lat="27.93136100" lon="-15.5994110">
        <ele>1234.9760</ele>
        <time>2009-01-05T12:19:38Z</time>
      </trkpt>
      <trkpt lat="27.93133100" lon="-15.5993910">
        <ele>1235.4830</ele>
        <time>2009-01-05T12:19:39Z</time>
      </trkpt>
      <trkpt lat="27.93130000" lon="-15.5993710">
        <ele>1235.6390</ele>
        <time>2009-01-05T12:19:40Z</time>
      </trkpt>
      <trkpt lat="27.93127000" lon="-15.5993490">
        <ele>1235.8930</ele>
        <time>2009-01-05T12:19:41Z</time>
      </trkpt>
      <trkpt lat="27.93124000" lon="-15.5993260">
        <ele>1236.0750</ele>
        <time>2009-01-05T12:19:42Z</time>
      </trkpt>
      <trkpt lat="27.93120900" lon="-15.5993030">
        <ele>1236.4140</ele>
        <time>2009-01-05T12:19:43Z</time>
      </trkpt>
      <trkpt lat="27.93117900" lon="-15.5992810">
        <ele>1236.5930</ele>
        <time>2009-01-05T12:19:44Z</time>
      </trkpt>
      <trkpt lat="27.93114800" lon="-15.5992600">
        <ele>1236.8180</ele>
        <time>2009-01-05T12:19:45Z</time>
      </trkpt>
      <trkpt lat="27.93111700" lon="-15.5992420">
        <ele>1237.3200</ele>
        <time>2009-01-05T12:19:46Z</time>
      </trkpt>
      <trkpt lat="27.93108600" lon="-15.5992250">
        <ele>1237.2480</ele>
        <time>2009-01-05T12:19:47Z</time>
      </trkpt>
      <trkpt lat="27.93105500" lon="-15.5992080">
        <ele>1237.8190</ele>
        <time>2009-01-05T12:19:48Z</time>
      </trkpt>
      <trkpt lat="27.93102400" lon="-15.5991920">
        <ele>1238.0720</ele>
        <time>2009-01-05T12:19:49Z</time>
      </trkpt>
      <trkpt lat="27.93099200" lon="-15.5991770">
        <ele>1238.2170</ele>
        <time>2009-01-05T12:19:50Z</time>
      </trkpt>
      <trkpt lat="27.93096100" lon="-15.5991600">
        <ele>1238.5020</ele>
        <time>2009-01-05T12:19:51Z</time>
      </trkpt>
      <trkpt lat="27.93093100" lon="-15.5991400">
        <ele>1238.5460</ele>
        <time>2009-01-05T12:19:52Z</time>
      </trkpt>
      <trkpt lat="27.93090200" lon="-15.5991190">
        <ele>1239.0160</ele>
        <time>2009-01-05T12:19:53Z</time>
      </trkpt>
      <trkpt lat="27.93087400" lon="-15.5990950">
        <ele>1239.1420</ele>
        <time>2009-01-05T12:19:54Z</time>
      </trkpt>
      <trkpt lat="27.93084800" lon="-15.5990680">
        <ele>1239.5670</ele>
        <time>2009-01-05T12:19:55Z</time>
      </trkpt>
      <trkpt lat="27.93082300" lon="-15.5990380">
        <ele>1239.7330</ele>
        <time>2009-01-05T12:19:56Z</time>
      </trkpt>
      <trkpt lat="27.93080000" lon="-15.5990060">
        <ele>1239.7580</ele>
        <time>2009-01-05T12:19:57Z</time>
      </trkpt>
      <trkpt lat="27.93078000" lon="-15.5989710">
        <ele>1239.8690</ele>
        <time>2009-01-05T12:19:58Z</time>
      </trkpt>
      <trkpt lat="27.93076300" lon="-15.5989340">
        <ele>1240.2190</ele>
        <time>2009-01-05T12:19:59Z</time>
      </trkpt>
      <trkpt lat="27.93075000" lon="-15.5988960">
        <ele>1240.8480</ele>
        <time>2009-01-05T12:20:00Z</time>
      </trkpt>
      <trkpt lat="27.93074000" lon="-15.5988550">
        <ele>1240.9380</ele>
        <time>2009-01-05T12:20:01Z</time>
      </trkpt>
      <trkpt lat="27.93072900" lon="-15.5988160">
        <ele>1240.9980</ele>
        <time>2009-01-05T12:20:02Z</time>
      </trkpt>
      <trkpt lat="27.93071800" lon="-15.5987770">
        <ele>1241.0770</ele>
        <time>2009-01-05T12:20:03Z</time>
      </trkpt>
      <trkpt lat="27.93070700" lon="-15.5987390">
        <ele>1241.4540</ele>
        <time>2009-01-05T12:20:04Z</time>
      </trkpt>
      <trkpt lat="27.93069300" lon="-15.5987020">
        <ele>1241.5620</ele>
        <time>2009-01-05T12:20:05Z</time>
      </trkpt>
      <trkpt lat="27.93067700" lon="-15.5986660">
        <ele>1241.9830</ele>
        <time>2009-01-05T12:20:06Z</time>
      </trkpt>
      <trkpt lat="27.93065800" lon="-15.5986300">
        <ele>1242.1730</ele>
        <time>2009-01-05T12:20:07Z</time>
      </trkpt>
      <trkpt lat="27.93063400" lon="-15.5985960">
        <ele>1242.0850</ele>
        <time>2009-01-05T12:20:08Z</time>
      </trkpt>
      <trkpt lat="27.93060400" lon="-15.5985680">
        <ele>1242.2650</ele>
        <time>2009-01-05T12:20:09Z</time>
      </trkpt>
      <trkpt lat="27.93056900" lon="-15.5985460">
        <ele>1242.4630</ele>
        <time>2009-01-05T12:20:10Z</time>
      </trkpt>
      <trkpt lat="27.93053000" lon="-15.5985310">
        <ele>1242.8430</ele>
        <time>2009-01-05T12:20:11Z</time>
      </trkpt>
      <trkpt lat="27.93049100" lon="-15.5985200">
        <ele>1242.9830</ele>
        <time>2009-01-05T12:20:12Z</time>
      </trkpt>
      <trkpt lat="27.93045000" lon="-15.5985120">
        <ele>1243.1830</ele>
        <time>2009-01-05T12:20:13Z</time>
      </trkpt>
      <trkpt lat="27.93040900" lon="-15.5985070">
        <ele>1243.2860</ele>
        <time>2009-01-05T12:20:14Z</time>
      </trkpt>
      <trkpt lat="27.93036800" lon="-15.5985040">
        <ele>1243.7410</ele>
        <time>2009-01-05T12:20:15Z</time>
      </trkpt>
      <trkpt lat="27.93032700" lon="-15.5985010">
        <ele>1243.9940</ele>
        <time>2009-01-05T12:20:16Z</time>
      </trkpt>
      <trkpt lat="27.93028800" lon="-15.5984980">
        <ele>1244.1260</ele>
        <time>2009-01-05T12:20:17Z</time>
      </trkpt>
      <trkpt lat="27.93025000" lon="-15.5984940">
        <ele>1244.5170</ele>
        <time>2009-01-05T12:20:18Z</time>
      </trkpt>
      <trkpt lat="27.93021100" lon="-15.5984890">
        <ele>1244.8180</ele>
        <time>2009-01-05T12:20:19Z</time>
      </trkpt>
      <trkpt lat="27.93017100" lon="-15.5984830">
        <ele>1245.0950</ele>
        <time>2009-01-05T12:20:20Z</time>
      </trkpt>
      <trkpt lat="27.93013100" lon="-15.5984750">
        <ele>1245.1690</ele>
        <time>2009-01-05T12:20:21Z</time>
      </trkpt>
      <trkpt lat="27.93009100" lon="-15.5984670">
        <ele>1245.3720</ele>
        <time>2009-01-05T12:20:22Z</time>
      </trkpt>
      <trkpt lat="27.93005200" lon="-15.5984580">
        <ele>1246.0410</ele>
        <time>2009-01-05T12:20:23Z</time>
      </trkpt>
      <trkpt lat="27.93001400" lon="-15.5984490">
        <ele>1246.3160</ele>
        <time>2009-01-05T12:20:24Z</time>
      </trkpt>
      <trkpt lat="27.92997600" lon="-15.5984390">
        <ele>1246.2210</ele>
        <time>2009-01-05T12:20:25Z</time>
      </trkpt>
      <trkpt lat="27.92993700" lon="-15.5984290">
        <ele>1246.4610</ele>
        <time>2009-01-05T12:20:26Z</time>
      </trkpt>
      <trkpt lat="27.92989900" lon="-15.5984170">
        <ele>1246.3800</ele>
        <time>2009-01-05T12:20:27Z</time>
      </trkpt>
      <trkpt lat="27.92986200" lon="-15.5984020">
        <ele>1246.9860</ele>
        <time>2009-01-05T12:20:28Z</time>
      </trkpt>
      <trkpt lat="27.92982600" lon="-15.5983850">
        <ele>1247.1900</ele>
        <time>2009-01-05T12:20:29Z</time>
      </trkpt>
      <trkpt lat="27.92978900" lon="-15.5983690">
        <ele>1247.8060</ele>
        <time>2009-01-05T12:20:30Z</time>
      </trkpt>
      <trkpt lat="27.92975300" lon="-15.5983550">
        <ele>1248.1050</ele>
        <time>2009-01-05T12:20:31Z</time>
      </trkpt>
      <trkpt lat="27.92971900" lon="-15.5983360">
        <ele>1248.3060</ele>
        <time>2009-01-05T12:20:32Z</time>
      </trkpt>
      <trkpt lat="27.92968800" lon="-15.5983110">
        <ele>1249.0970</ele>
        <time>2009-01-05T12:20:33Z</time>
      </trkpt>
      <trkpt lat="27.92966100" lon="-15.5982780">
        <ele>1248.9620</ele>
        <time>2009-01-05T12:20:34Z</time>
      </trkpt>
      <trkpt lat="27.92963900" lon="-15.5982380">
        <ele>1248.9280</ele>
        <time>2009-01-05T12:20:35Z</time>
      </trkpt>
      <trkpt lat="27.92962700" lon="-15.5981900">
        <ele>1248.9180</ele>
        <time>2009-01-05T12:20:36Z</time>
      </trkpt>
      <trkpt lat="27.92962600" lon="-15.5981350">
        <ele>1248.8440</ele>
        <time>2009-01-05T12:20:37Z</time>
      </trkpt>
      <trkpt lat="27.92963700" lon="-15.5980770">
        <ele>1248.4770</ele>
        <time>2009-01-05T12:20:38Z</time>
      </trkpt>
      <trkpt lat="27.92965900" lon="-15.5980210">
        <ele>1248.3520</ele>
        <time>2009-01-05T12:20:39Z</time>
      </trkpt>
      <trkpt lat="27.92969100" lon="-15.5979700">
        <ele>1248.0930</ele>
        <time>2009-01-05T12:20:40Z</time>
      </trkpt>
      <trkpt lat="27.92973400" lon="-15.5979280">
        <ele>1248.0580</ele>
        <time>2009-01-05T12:20:41Z</time>
      </trkpt>
      <trkpt lat="27.92978700" lon="-15.5978980">
        <ele>1248.4200</ele>
        <time>2009-01-05T12:20:42Z</time>
      </trkpt>
      <trkpt lat="27.92984600" lon="-15.5978770">
        <ele>1247.7790</ele>
        <time>2009-01-05T12:20:43Z</time>
      </trkpt>
      <trkpt lat="27.92991100" lon="-15.5978590">
        <ele>1247.4010</ele>
        <time>2009-01-05T12:20:44Z</time>
      </trkpt>
      <trkpt lat="27.92998000" lon="-15.5978440">
        <ele>1246.7310</ele>
        <time>2009-01-05T12:20:45Z</time>
      </trkpt>
      <trkpt lat="27.93005100" lon="-15.5978220">
        <ele>1246.3130</ele>
        <time>2009-01-05T12:20:46Z</time>
      </trkpt>
      <trkpt lat="27.93012100" lon="-15.5977850">
        <ele>1246.0560</ele>
        <time>2009-01-05T12:20:47Z</time>
      </trkpt>
      <trkpt lat="27.93018600" lon="-15.5977290">
        <ele>1245.8620</ele>
        <time>2009-01-05T12:20:48Z</time>
      </trkpt>
      <trkpt lat="27.93023900" lon="-15.5976520">
        <ele>1246.3390</ele>
        <time>2009-01-05T12:20:49Z</time>
      </trkpt>
      <trkpt lat="27.93028000" lon="-15.5975630">
        <ele>1245.2010</ele>
        <time>2009-01-05T12:20:50Z</time>
      </trkpt>
      <trkpt lat="27.93031500" lon="-15.5974680">
        <ele>1244.5780</ele>
        <time>2009-01-05T12:20:51Z</time>
      </trkpt>
      <trkpt lat="27.93035600" lon="-15.5973740">
        <ele>1244.2170</ele>
        <time>2009-01-05T12:20:52Z</time>
      </trkpt>
      <trkpt lat="27.93041700" lon="-15.5972910">
        <ele>1243.2240</ele>
        <time>2009-01-05T12:20:53Z</time>
      </trkpt>
      <trkpt lat="27.93049900" lon="-15.5972290">
        <ele>1242.2780</ele>
        <time>2009-01-05T12:20:54Z</time>
      </trkpt>
      <trkpt lat="27.93059400" lon="-15.5971810">
        <ele>1240.6670</ele>
        <time>2009-01-05T12:20:55Z</time>
      </trkpt>
      <trkpt lat="27.93069600" lon="-15.5971390">
        <ele>1240.4770</ele>
        <time>2009-01-05T12:20:56Z</time>
      </trkpt>
      <trkpt lat="27.93079900" lon="-15.5970860">
        <ele>1239.6660</ele>
        <time>2009-01-05T12:20:57Z</time>
      </trkpt>
      <trkpt lat="27.93089500" lon="-15.5970110">
        <ele>1237.8460</ele>
        <time>2009-01-05T12:20:58Z</time>
      </trkpt>
      <trkpt lat="27.93098200" lon="-15.5969160">
        <ele>1237.2460</ele>
        <time>2009-01-05T12:20:59Z</time>
      </trkpt>
      <trkpt lat="27.93106900" lon="-15.5968200">
        <ele>1236.8240</ele>
        <time>2009-01-05T12:21:00Z</time>
      </trkpt>
      <trkpt lat="27.93116600" lon="-15.5967360">
        <ele>1236.5990</ele>
        <time>2009-01-05T12:21:01Z</time>
      </trkpt>
      <trkpt lat="27.93127500" lon="-15.5966710">
        <ele>1235.7160</ele>
        <time>2009-01-05T12:21:02Z</time>
      </trkpt>
      <trkpt lat="27.93139300" lon="-15.5966220">
        <ele>1234.1510</ele>
        <time>2009-01-05T12:21:03Z</time>
      </trkpt>
      <trkpt lat="27.93151700" lon="-15.5965850">
        <ele>1232.8100</ele>
        <time>2009-01-05T12:21:04Z</time>
      </trkpt>
      <trkpt lat="27.93164300" lon="-15.5965590">
        <ele>1231.9440</ele>
        <time>2009-01-05T12:21:05Z</time>
      </trkpt>
      <trkpt lat="27.93176900" lon="-15.5965440">
        <ele>1231.4810</ele>
        <time>2009-01-05T12:21:06Z</time>
      </trkpt>
      <trkpt lat="27.93189400" lon="-15.5965500">
        <ele>1230.2780</ele>
        <time>2009-01-05T12:21:07Z</time>
      </trkpt>
      <trkpt lat="27.93201500" lon="-15.5965840">
        <ele>1228.4670</ele>
        <time>2009-01-05T12:21:08Z</time>
      </trkpt>
      <trkpt lat="27.93213600" lon="-15.5966330">
        <ele>1227.4670</ele>
        <time>2009-01-05T12:21:09Z</time>
      </trkpt>
      <trkpt lat="27.93226000" lon="-15.5966690">
        <ele>1226.5390</ele>
        <time>2009-01-05T12:21:10Z</time>
      </trkpt>
      <trkpt lat="27.93238900" lon="-15.5966750">
        <ele>1225.8010</ele>
        <time>2009-01-05T12:21:11Z</time>
      </trkpt>
      <trkpt lat="27.93251900" lon="-15.5966630">
        <ele>1224.6850</ele>
        <time>2009-01-05T12:21:12Z</time>
      </trkpt>
      <trkpt lat="27.93265000" lon="-15.5966660">
        <ele>1223.7840</ele>
        <time>2009-01-05T12:21:13Z</time>
      </trkpt>
      <trkpt lat="27.93278100" lon="-15.5966800">
        <ele>1222.7820</ele>
        <time>2009-01-05T12:21:14Z</time>
      </trkpt>
      <trkpt lat="27.93291200" lon="-15.5966840">
        <ele>1221.0290</ele>
        <time>2009-01-05T12:21:15Z</time>
      </trkpt>
      <trkpt lat="27.93303900" lon="-15.5966580">
        <ele>1220.8060</ele>
        <time>2009-01-05T12:21:16Z</time>
      </trkpt>
      <trkpt lat="27.93315700" lon="-15.5965950">
        <ele>1219.3470</ele>
        <time>2009-01-05T12:21:17Z</time>
      </trkpt>
      <trkpt lat="27.93326400" lon="-15.5965040">
        <ele>1217.1920</ele>
        <time>2009-01-05T12:21:18Z</time>
      </trkpt>
      <trkpt lat="27.93336500" lon="-15.5964000">
        <ele>1216.2560</ele>
        <time>2009-01-05T12:21:19Z</time>
      </trkpt>
      <trkpt lat="27.93345400" lon="-15.5962960">
        <ele>1215.1500</ele>
        <time>2009-01-05T12:21:20Z</time>
      </trkpt>
      <trkpt lat="27.93351900" lon="-15.5961870">
        <ele>1213.0250</ele>
        <time>2009-01-05T12:21:21Z</time>
      </trkpt>
      <trkpt lat="27.93355200" lon="-15.5960650">
        <ele>1212.0940</ele>
        <time>2009-01-05T12:21:22Z</time>
      </trkpt>
      <trkpt lat="27.93356100" lon="-15.5959340">
        <ele>1211.7710</ele>
        <time>2009-01-05T12:21:23Z</time>
      </trkpt>
      <trkpt lat="27.93356300" lon="-15.5958050">
        <ele>1211.5640</ele>
        <time>2009-01-05T12:21:24Z</time>
      </trkpt>
      <trkpt lat="27.93357500" lon="-15.5956910">
        <ele>1210.4270</ele>
        <time>2009-01-05T12:21:25Z</time>
      </trkpt>
      <trkpt lat="27.93360800" lon="-15.5956010">
        <ele>1210.4920</ele>
        <time>2009-01-05T12:21:26Z</time>
      </trkpt>
      <trkpt lat="27.93368400" lon="-15.5955690">
        <ele>1210.0850</ele>
        <time>2009-01-05T12:21:27Z</time>
      </trkpt>
      <trkpt lat="27.93377600" lon="-15.5955660">
        <ele>1210.1930</ele>
        <time>2009-01-05T12:21:28Z</time>
      </trkpt>
      <trkpt lat="27.93386300" lon="-15.5955760">
        <ele>1209.2980</ele>
        <time>2009-01-05T12:21:29Z</time>
      </trkpt>
      <trkpt lat="27.93394900" lon="-15.5955790">
        <ele>1208.6550</ele>
        <time>2009-01-05T12:21:30Z</time>
      </trkpt>
      <trkpt lat="27.93402500" lon="-15.5955430">
        <ele>1208.1020</ele>
        <time>2009-01-05T12:21:31Z</time>
      </trkpt>
      <trkpt lat="27.93407900" lon="-15.5954660">
        <ele>1206.8640</ele>
        <time>2009-01-05T12:21:32Z</time>
      </trkpt>
      <trkpt lat="27.93410400" lon="-15.5953590">
        <ele>1206.1240</ele>
        <time>2009-01-05T12:21:33Z</time>
      </trkpt>
      <trkpt lat="27.93410300" lon="-15.5952490">
        <ele>1205.2590</ele>
        <time>2009-01-05T12:21:34Z</time>
      </trkpt>
      <trkpt lat="27.93409900" lon="-15.5951350">
        <ele>1204.6930</ele>
        <time>2009-01-05T12:21:35Z</time>
      </trkpt>
      <trkpt lat="27.93411900" lon="-15.5950300">
        <ele>1204.8270</ele>
        <time>2009-01-05T12:21:36Z</time>
      </trkpt>
      <trkpt lat="27.93417700" lon="-15.5949510">
        <ele>1204.4220</ele>
        <time>2009-01-05T12:21:37Z</time>
      </trkpt>
      <trkpt lat="27.93425300" lon="-15.5949170">
        <ele>1203.9990</ele>
        <time>2009-01-05T12:21:38Z</time>
      </trkpt>
      <trkpt lat="27.93433900" lon="-15.5949350">
        <ele>1203.6680</ele>
        <time>2009-01-05T12:21:39Z</time>
      </trkpt>
      <trkpt lat="27.93443200" lon="-15.5949790">
        <ele>1203.0670</ele>
        <time>2009-01-05T12:21:40Z</time>
      </trkpt>
      <trkpt lat="27.93452100" lon="-15.5949870">
        <ele>1201.0390</ele>
        <time>2009-01-05T12:21:41Z</time>
      </trkpt>
      <trkpt lat="27.93459600" lon="-15.5949500">
        <ele>1200.5700</ele>
        <time>2009-01-05T12:21:42Z</time>
      </trkpt>
      <trkpt lat="27.93461400" lon="-15.5948610">
        <ele>1199.7370</ele>
        <time>2009-01-05T12:21:43Z</time>
      </trkpt>
      <trkpt lat="27.93458600" lon="-15.5947680">
        <ele>1199.4540</ele>
        <time>2009-01-05T12:21:44Z</time>
      </trkpt>
      <trkpt lat="27.93454400" lon="-15.5946740">
        <ele>1198.3310</ele>
        <time>2009-01-05T12:21:45Z</time>
      </trkpt>
      <trkpt lat="27.93449700" lon="-15.5945730">
        <ele>1197.3740</ele>
        <time>2009-01-05T12:21:46Z</time>
      </trkpt>
      <trkpt lat="27.93445500" lon="-15.5944650">
        <ele>1196.9000</ele>
        <time>2009-01-05T12:21:47Z</time>
      </trkpt>
      <trkpt lat="27.93442500" lon="-15.5943500">
        <ele>1196.2760</ele>
        <time>2009-01-05T12:21:48Z</time>
      </trkpt>
      <trkpt lat="27.93441900" lon="-15.5942300">
        <ele>1196.5610</ele>
        <time>2009-01-05T12:21:49Z</time>
      </trkpt>
      <trkpt lat="27.93446400" lon="-15.5941110">
        <ele>1196.1350</ele>
        <time>2009-01-05T12:21:50Z</time>
      </trkpt>
      <trkpt lat="27.93454100" lon="-15.5940190">
        <ele>1196.0510</ele>
        <time>2009-01-05T12:21:51Z</time>
      </trkpt>
      <trkpt lat="27.93463400" lon="-15.5939630">
        <ele>1195.2270</ele>
        <time>2009-01-05T12:21:52Z</time>
      </trkpt>
      <trkpt lat="27.93473100" lon="-15.5939250">
        <ele>1196.2850</ele>
        <time>2009-01-05T12:21:53Z</time>
      </trkpt>
      <trkpt lat="27.93482600" lon="-15.5938990">
        <ele>1195.9840</ele>
        <time>2009-01-05T12:21:54Z</time>
      </trkpt>
      <trkpt lat="27.93492000" lon="-15.5938790">
        <ele>1194.4800</ele>
        <time>2009-01-05T12:21:55Z</time>
      </trkpt>
      <trkpt lat="27.93501100" lon="-15.5938520">
        <ele>1192.7620</ele>
        <time>2009-01-05T12:21:56Z</time>
      </trkpt>
      <trkpt lat="27.93508900" lon="-15.5938030">
        <ele>1192.8130</ele>
        <time>2009-01-05T12:21:57Z</time>
      </trkpt>
      <trkpt lat="27.93513400" lon="-15.5937080">
        <ele>1191.3630</ele>
        <time>2009-01-05T12:21:58Z</time>
      </trkpt>
      <trkpt lat="27.93515400" lon="-15.5936060">
        <ele>1190.2940</ele>
        <time>2009-01-05T12:21:59Z</time>
      </trkpt>
      <trkpt lat="27.93512600" lon="-15.5934910">
        <ele>1189.3460</ele>
        <time>2009-01-05T12:22:00Z</time>
      </trkpt>
      <trkpt lat="27.93507800" lon="-15.5933810">
        <ele>1188.4230</ele>
        <time>2009-01-05T12:22:01Z</time>
      </trkpt>
      <trkpt lat="27.93504300" lon="-15.5932710">
        <ele>1188.1440</ele>
        <time>2009-01-05T12:22:02Z</time>
      </trkpt>
      <trkpt lat="27.93505500" lon="-15.5931570">
        <ele>1186.8580</ele>
        <time>2009-01-05T12:22:03Z</time>
      </trkpt>
      <trkpt lat="27.93511100" lon="-15.5930580">
        <ele>1186.4760</ele>
        <time>2009-01-05T12:22:04Z</time>
      </trkpt>
      <trkpt lat="27.93519800" lon="-15.5930070">
        <ele>1186.7040</ele>
        <time>2009-01-05T12:22:05Z</time>
      </trkpt>
      <trkpt lat="27.93530800" lon="-15.5930070">
        <ele>1186.8240</ele>
        <time>2009-01-05T12:22:06Z</time>
      </trkpt>
      <trkpt lat="27.93540000" lon="-15.5930530">
        <ele>1186.1080</ele>
        <time>2009-01-05T12:22:07Z</time>
      </trkpt>
      <trkpt lat="27.93547800" lon="-15.5931100">
        <ele>1184.9770</ele>
        <time>2009-01-05T12:22:08Z</time>
      </trkpt>
      <trkpt lat="27.93555800" lon="-15.5931700">
        <ele>1183.9500</ele>
        <time>2009-01-05T12:22:09Z</time>
      </trkpt>
      <trkpt lat="27.93604800" lon="-15.5932720">
        <ele>1180.2530</ele>
        <time>2009-01-05T12:22:15Z</time>
      </trkpt>
      <trkpt lat="27.93609100" lon="-15.5931510">
        <ele>1179.5720</ele>
        <time>2009-01-05T12:22:16Z</time>
      </trkpt>
      <trkpt lat="27.93610300" lon="-15.5930390">
        <ele>1178.7420</ele>
        <time>2009-01-05T12:22:17Z</time>
      </trkpt>
      <trkpt lat="27.93610200" lon="-15.5929230">
        <ele>1178.2370</ele>
        <time>2009-01-05T12:22:18Z</time>
      </trkpt>
      <trkpt lat="27.93610400" lon="-15.5928070">
        <ele>1177.9230</ele>
        <time>2009-01-05T12:22:19Z</time>
      </trkpt>
      <trkpt lat="27.93613400" lon="-15.5926990">
        <ele>1177.3500</ele>
        <time>2009-01-05T12:22:20Z</time>
      </trkpt>
      <trkpt lat="27.93620800" lon="-15.5926250">
        <ele>1176.6720</ele>
        <time>2009-01-05T12:22:21Z</time>
      </trkpt>
      <trkpt lat="27.93629800" lon="-15.5925720">
        <ele>1176.5140</ele>
        <time>2009-01-05T12:22:22Z</time>
      </trkpt>
      <trkpt lat="27.93637500" lon="-15.5925130">
        <ele>1175.3810</ele>
        <time>2009-01-05T12:22:23Z</time>
      </trkpt>
      <trkpt lat="27.93641800" lon="-15.5924210">
        <ele>1174.2830</ele>
        <time>2009-01-05T12:22:24Z</time>
      </trkpt>
      <trkpt lat="27.93643000" lon="-15.5923170">
        <ele>1173.1080</ele>
        <time>2009-01-05T12:22:25Z</time>
      </trkpt>
      <trkpt lat="27.93643900" lon="-15.5922000">
        <ele>1172.6350</ele>
        <time>2009-01-05T12:22:26Z</time>
      </trkpt>
      <trkpt lat="27.93647700" lon="-15.5920850">
        <ele>1172.7050</ele>
        <time>2009-01-05T12:22:27Z</time>
      </trkpt>
      <trkpt lat="27.93655800" lon="-15.5919970">
        <ele>1171.8440</ele>
        <time>2009-01-05T12:22:28Z</time>
      </trkpt>
      <trkpt lat="27.93666700" lon="-15.5919580">
        <ele>1170.6150</ele>
        <time>2009-01-05T12:22:29Z</time>
      </trkpt>
      <trkpt lat="27.93678100" lon="-15.5919360">
        <ele>1169.7090</ele>
        <time>2009-01-05T12:22:30Z</time>
      </trkpt>
      <trkpt lat="27.93689600" lon="-15.5919200">
        <ele>1169.6590</ele>
        <time>2009-01-05T12:22:31Z</time>
      </trkpt>
      <trkpt lat="27.93701100" lon="-15.5919060">
        <ele>1168.7820</ele>
        <time>2009-01-05T12:22:32Z</time>
      </trkpt>
      <trkpt lat="27.93712700" lon="-15.5918880">
        <ele>1167.9970</ele>
        <time>2009-01-05T12:22:33Z</time>
      </trkpt>
      <trkpt lat="27.93724300" lon="-15.5918690">
        <ele>1167.2380</ele>
        <time>2009-01-05T12:22:34Z</time>
      </trkpt>
      <trkpt lat="27.93735900" lon="-15.5918510">
        <ele>1166.5250</ele>
        <time>2009-01-05T12:22:35Z</time>
      </trkpt>
      <trkpt lat="27.93747800" lon="-15.5918420">
        <ele>1166.8260</ele>
        <time>2009-01-05T12:22:36Z</time>
      </trkpt>
      <trkpt lat="27.93759700" lon="-15.5918430">
        <ele>1165.7110</ele>
        <time>2009-01-05T12:22:37Z</time>
      </trkpt>
      <trkpt lat="27.93771900" lon="-15.5918590">
        <ele>1164.4130</ele>
        <time>2009-01-05T12:22:38Z</time>
      </trkpt>
      <trkpt lat="27.93783400" lon="-15.5918840">
        <ele>1164.5210</ele>
        <time>2009-01-05T12:22:39Z</time>
      </trkpt>
      <trkpt lat="27.93794900" lon="-15.5919140">
        <ele>1162.4860</ele>
        <time>2009-01-05T12:22:40Z</time>
      </trkpt>
      <trkpt lat="27.93806700" lon="-15.5919410">
        <ele>1161.1510</ele>
        <time>2009-01-05T12:22:41Z</time>
      </trkpt>
      <trkpt lat="27.93818700" lon="-15.5919570">
        <ele>1160.3320</ele>
        <time>2009-01-05T12:22:42Z</time>
      </trkpt>
      <trkpt lat="27.93830800" lon="-15.5919560">
        <ele>1159.8020</ele>
        <time>2009-01-05T12:22:43Z</time>
      </trkpt>
      <trkpt lat="27.93843000" lon="-15.5919390">
        <ele>1159.1540</ele>
        <time>2009-01-05T12:22:44Z</time>
      </trkpt>
      <trkpt lat="27.93855100" lon="-15.5919160">
        <ele>1157.9920</ele>
        <time>2009-01-05T12:22:45Z</time>
      </trkpt>
      <trkpt lat="27.93867200" lon="-15.5918940">
        <ele>1157.8840</ele>
        <time>2009-01-05T12:22:46Z</time>
      </trkpt>
      <trkpt lat="27.93879400" lon="-15.5918790">
        <ele>1157.7630</ele>
        <time>2009-01-05T12:22:47Z</time>
      </trkpt>
      <trkpt lat="27.93891300" lon="-15.5918660">
        <ele>1157.2960</ele>
        <time>2009-01-05T12:22:48Z</time>
      </trkpt>
      <trkpt lat="27.93903300" lon="-15.5918530">
        <ele>1157.3170</ele>
        <time>2009-01-05T12:22:49Z</time>
      </trkpt>
      <trkpt lat="27.93915000" lon="-15.5918330">
        <ele>1156.6170</ele>
        <time>2009-01-05T12:22:50Z</time>
      </trkpt>
      <trkpt lat="27.93926000" lon="-15.5917920">
        <ele>1156.7600</ele>
        <time>2009-01-05T12:22:51Z</time>
      </trkpt>
      <trkpt lat="27.93935200" lon="-15.5917230">
        <ele>1156.2970</ele>
        <time>2009-01-05T12:22:52Z</time>
      </trkpt>
      <trkpt lat="27.93942300" lon="-15.5916290">
        <ele>1155.4780</ele>
        <time>2009-01-05T12:22:53Z</time>
      </trkpt>
      <trkpt lat="27.93947200" lon="-15.5915190">
        <ele>1154.6960</ele>
        <time>2009-01-05T12:22:54Z</time>
      </trkpt>
      <trkpt lat="27.93946900" lon="-15.5913890">
        <ele>1153.9680</ele>
        <time>2009-01-05T12:22:55Z</time>
      </trkpt>
      <trkpt lat="27.93942700" lon="-15.5912560">
        <ele>1152.7470</ele>
        <time>2009-01-05T12:22:56Z</time>
      </trkpt>
      <trkpt lat="27.93935600" lon="-15.5911400">
        <ele>1152.6930</ele>
        <time>2009-01-05T12:22:57Z</time>
      </trkpt>
      <trkpt lat="27.93927500" lon="-15.5910390">
        <ele>1151.6260</ele>
        <time>2009-01-05T12:22:58Z</time>
      </trkpt>
      <trkpt lat="27.93918300" lon="-15.5909530">
        <ele>1151.0140</ele>
        <time>2009-01-05T12:22:59Z</time>
      </trkpt>
      <trkpt lat="27.93907900" lon="-15.5908840">
        <ele>1150.3400</ele>
        <time>2009-01-05T12:23:00Z</time>
      </trkpt>
      <trkpt lat="27.93896400" lon="-15.5908310">
        <ele>1149.5380</ele>
        <time>2009-01-05T12:23:01Z</time>
      </trkpt>
      <trkpt lat="27.93884500" lon="-15.5907990">
        <ele>1149.1520</ele>
        <time>2009-01-05T12:23:02Z</time>
      </trkpt>
      <trkpt lat="27.93872300" lon="-15.5907700">
        <ele>1148.4240</ele>
        <time>2009-01-05T12:23:03Z</time>
      </trkpt>
      <trkpt lat="27.93860100" lon="-15.5907390">
        <ele>1147.4750</ele>
        <time>2009-01-05T12:23:04Z</time>
      </trkpt>
      <trkpt lat="27.93848000" lon="-15.5907030">
        <ele>1146.5460</ele>
        <time>2009-01-05T12:23:05Z</time>
      </trkpt>
      <trkpt lat="27.93836200" lon="-15.5906480">
        <ele>1145.3130</ele>
        <time>2009-01-05T12:23:06Z</time>
      </trkpt>
      <trkpt lat="27.93826000" lon="-15.5905790">
        <ele>1144.9160</ele>
        <time>2009-01-05T12:23:07Z</time>
      </trkpt>
      <trkpt lat="27.93817200" lon="-15.5904680">
        <ele>1143.8720</ele>
        <time>2009-01-05T12:23:08Z</time>
      </trkpt>
      <trkpt lat="27.93810000" lon="-15.5903540">
        <ele>1143.0940</ele>
        <time>2009-01-05T12:23:09Z</time>
      </trkpt>
      <trkpt lat="27.93802200" lon="-15.5902420">
        <ele>1141.1150</ele>
        <time>2009-01-05T12:23:10Z</time>
      </trkpt>
      <trkpt lat="27.93792700" lon="-15.5901410">
        <ele>1139.9070</ele>
        <time>2009-01-05T12:23:11Z</time>
      </trkpt>
      <trkpt lat="27.93781600" lon="-15.5900550">
        <ele>1139.0060</ele>
        <time>2009-01-05T12:23:12Z</time>
      </trkpt>
      <trkpt lat="27.93769500" lon="-15.5899800">
        <ele>1137.9370</ele>
        <time>2009-01-05T12:23:13Z</time>
      </trkpt>
      <trkpt lat="27.93756800" lon="-15.5899150">
        <ele>1136.1450</ele>
        <time>2009-01-05T12:23:14Z</time>
      </trkpt>
      <trkpt lat="27.93743400" lon="-15.5898660">
        <ele>1134.5880</ele>
        <time>2009-01-05T12:23:15Z</time>
      </trkpt>
      <trkpt lat="27.93729300" lon="-15.5898370">
        <ele>1133.3940</ele>
        <time>2009-01-05T12:23:16Z</time>
      </trkpt>
      <trkpt lat="27.93715500" lon="-15.5898240">
        <ele>1132.0260</ele>
        <time>2009-01-05T12:23:17Z</time>
      </trkpt>
      <trkpt lat="27.93702800" lon="-15.5898130">
        <ele>1130.1430</ele>
        <time>2009-01-05T12:23:18Z</time>
      </trkpt>
      <trkpt lat="27.93690500" lon="-15.5897850">
        <ele>1128.4000</ele>
        <time>2009-01-05T12:23:19Z</time>
      </trkpt>
      <trkpt lat="27.93679200" lon="-15.5897230">
        <ele>1127.2380</ele>
        <time>2009-01-05T12:23:20Z</time>
      </trkpt>
      <trkpt lat="27.93669500" lon="-15.5896260">
        <ele>1125.7400</ele>
        <time>2009-01-05T12:23:21Z</time>
      </trkpt>
      <trkpt lat="27.93660700" lon="-15.5895120">
        <ele>1125.4930</ele>
        <time>2009-01-05T12:23:22Z</time>
      </trkpt>
      <trkpt lat="27.93652200" lon="-15.5893920">
        <ele>1124.4440</ele>
        <time>2009-01-05T12:23:23Z</time>
      </trkpt>
      <trkpt lat="27.93643600" lon="-15.5892690">
        <ele>1123.7500</ele>
        <time>2009-01-05T12:23:24Z</time>
      </trkpt>
      <trkpt lat="27.93635200" lon="-15.5891430">
        <ele>1123.0520</ele>
        <time>2009-01-05T12:23:25Z</time>
      </trkpt>
      <trkpt lat="27.93628200" lon="-15.5890060">
        <ele>1121.6860</ele>
        <time>2009-01-05T12:23:26Z</time>
      </trkpt>
      <trkpt lat="27.93623400" lon="-15.5888560">
        <ele>1121.3890</ele>
        <time>2009-01-05T12:23:27Z</time>
      </trkpt>
      <trkpt lat="27.93619500" lon="-15.5886990">
        <ele>1120.0650</ele>
        <time>2009-01-05T12:23:28Z</time>
      </trkpt>
      <trkpt lat="27.93614100" lon="-15.5885500">
        <ele>1118.5920</ele>
        <time>2009-01-05T12:23:29Z</time>
      </trkpt>
      <trkpt lat="27.93607300" lon="-15.5884220">
        <ele>1117.6440</ele>
        <time>2009-01-05T12:23:30Z</time>
      </trkpt>
      <trkpt lat="27.93601500" lon="-15.5883070">
        <ele>1116.7400</ele>
        <time>2009-01-05T12:23:31Z</time>
      </trkpt>
      <trkpt lat="27.93597400" lon="-15.5881920">
        <ele>1114.7960</ele>
        <time>2009-01-05T12:23:32Z</time>
      </trkpt>
      <trkpt lat="27.93598000" lon="-15.5880620">
        <ele>1115.0200</ele>
        <time>2009-01-05T12:23:33Z</time>
      </trkpt>
      <trkpt lat="27.93599700" lon="-15.5879370">
        <ele>1114.5730</ele>
        <time>2009-01-05T12:23:34Z</time>
      </trkpt>
      <trkpt lat="27.93602400" lon="-15.5878100">
        <ele>1113.6510</ele>
        <time>2009-01-05T12:23:35Z</time>
      </trkpt>
      <trkpt lat="27.93605000" lon="-15.5876830">
        <ele>1112.9840</ele>
        <time>2009-01-05T12:23:36Z</time>
      </trkpt>
      <trkpt lat="27.93607500" lon="-15.5875550">
        <ele>1112.8280</ele>
        <time>2009-01-05T12:23:37Z</time>
      </trkpt>
      <trkpt lat="27.93610000" lon="-15.5874290">
        <ele>1111.9260</ele>
        <time>2009-01-05T12:23:38Z</time>
      </trkpt>
      <trkpt lat="27.93613300" lon="-15.5873040">
        <ele>1111.6530</ele>
        <time>2009-01-05T12:23:39Z</time>
      </trkpt>
      <trkpt lat="27.93618400" lon="-15.5871860">
        <ele>1110.9710</ele>
        <time>2009-01-05T12:23:40Z</time>
      </trkpt>
      <trkpt lat="27.93625400" lon="-15.5870790">
        <ele>1110.5530</ele>
        <time>2009-01-05T12:23:41Z</time>
      </trkpt>
      <trkpt lat="27.93633800" lon="-15.5869850">
        <ele>1109.8320</ele>
        <time>2009-01-05T12:23:42Z</time>
      </trkpt>
      <trkpt lat="27.93643100" lon="-15.5869020">
        <ele>1108.8430</ele>
        <time>2009-01-05T12:23:43Z</time>
      </trkpt>
      <trkpt lat="27.93653400" lon="-15.5868360">
        <ele>1108.2010</ele>
        <time>2009-01-05T12:23:44Z</time>
      </trkpt>
      <trkpt lat="27.93665000" lon="-15.5867990">
        <ele>1107.5140</ele>
        <time>2009-01-05T12:23:45Z</time>
      </trkpt>
      <trkpt lat="27.93676800" lon="-15.5867790">
        <ele>1107.4900</ele>
        <time>2009-01-05T12:23:46Z</time>
      </trkpt>
      <trkpt lat="27.93687200" lon="-15.5867480">
        <ele>1106.6470</ele>
        <time>2009-01-05T12:23:47Z</time>
      </trkpt>
      <trkpt lat="27.93695300" lon="-15.5866920">
        <ele>1105.0140</ele>
        <time>2009-01-05T12:23:48Z</time>
      </trkpt>
      <trkpt lat="27.93700000" lon="-15.5866120">
        <ele>1104.2370</ele>
        <time>2009-01-05T12:23:49Z</time>
      </trkpt>
      <trkpt lat="27.93700000" lon="-15.5865120">
        <ele>1103.5130</ele>
        <time>2009-01-05T12:23:50Z</time>
      </trkpt>
      <trkpt lat="27.93698800" lon="-15.5864050">
        <ele>1103.1890</ele>
        <time>2009-01-05T12:23:51Z</time>
      </trkpt>
      <trkpt lat="27.93698900" lon="-15.5862930">
        <ele>1103.0310</ele>
        <time>2009-01-05T12:23:52Z</time>
      </trkpt>
      <trkpt lat="27.93701000" lon="-15.5861750">
        <ele>1102.1830</ele>
        <time>2009-01-05T12:23:53Z</time>
      </trkpt>
      <trkpt lat="27.93704400" lon="-15.5860560">
        <ele>1101.3960</ele>
        <time>2009-01-05T12:23:54Z</time>
      </trkpt>
      <trkpt lat="27.93708300" lon="-15.5859340">
        <ele>1100.5900</ele>
        <time>2009-01-05T12:23:55Z</time>
      </trkpt>
      <trkpt lat="27.93712200" lon="-15.5858090">
        <ele>1100.2890</ele>
        <time>2009-01-05T12:23:56Z</time>
      </trkpt>
      <trkpt lat="27.93716100" lon="-15.5856800">
        <ele>1098.9860</ele>
        <time>2009-01-05T12:23:57Z</time>
      </trkpt>
      <trkpt lat="27.93720000" lon="-15.5855480">
        <ele>1098.8140</ele>
        <time>2009-01-05T12:23:58Z</time>
      </trkpt>
      <trkpt lat="27.93723800" lon="-15.5854130">
        <ele>1098.2780</ele>
        <time>2009-01-05T12:23:59Z</time>
      </trkpt>
      <trkpt lat="27.93727800" lon="-15.5852770">
        <ele>1097.0250</ele>
        <time>2009-01-05T12:24:00Z</time>
      </trkpt>
      <trkpt lat="27.93731800" lon="-15.5851410">
        <ele>1096.7280</ele>
        <time>2009-01-05T12:24:01Z</time>
      </trkpt>
      <trkpt lat="27.93735900" lon="-15.5850040">
        <ele>1095.9850</ele>
        <time>2009-01-05T12:24:02Z</time>
      </trkpt>
      <trkpt lat="27.93740100" lon="-15.5848670">
        <ele>1095.0650</ele>
        <time>2009-01-05T12:24:03Z</time>
      </trkpt>
      <trkpt lat="27.93744100" lon="-15.5847280">
        <ele>1093.7140</ele>
        <time>2009-01-05T12:24:04Z</time>
      </trkpt>
      <trkpt lat="27.93747900" lon="-15.5845880">
        <ele>1093.0070</ele>
        <time>2009-01-05T12:24:05Z</time>
      </trkpt>
      <trkpt lat="27.93751700" lon="-15.5844470">
        <ele>1092.6310</ele>
        <time>2009-01-05T12:24:06Z</time>
      </trkpt>
      <trkpt lat="27.93755600" lon="-15.5843060">
        <ele>1091.5680</ele>
        <time>2009-01-05T12:24:07Z</time>
      </trkpt>
      <trkpt lat="27.93759300" lon="-15.5841640">
        <ele>1091.0630</ele>
        <time>2009-01-05T12:24:08Z</time>
      </trkpt>
      <trkpt lat="27.93762700" lon="-15.5840200">
        <ele>1090.7370</ele>
        <time>2009-01-05T12:24:09Z</time>
      </trkpt>
      <trkpt lat="27.93766300" lon="-15.5838760">
        <ele>1089.1690</ele>
        <time>2009-01-05T12:24:10Z</time>
      </trkpt>
      <trkpt lat="27.93770200" lon="-15.5837330">
        <ele>1088.7000</ele>
        <time>2009-01-05T12:24:11Z</time>
      </trkpt>
      <trkpt lat="27.93773900" lon="-15.5835880">
        <ele>1088.1260</ele>
        <time>2009-01-05T12:24:12Z</time>
      </trkpt>
      <trkpt lat="27.93777500" lon="-15.5834430">
        <ele>1087.7420</ele>
        <time>2009-01-05T12:24:13Z</time>
      </trkpt>
      <trkpt lat="27.93781000" lon="-15.5832940">
        <ele>1087.4240</ele>
        <time>2009-01-05T12:24:14Z</time>
      </trkpt>
      <trkpt lat="27.93784100" lon="-15.5831440">
        <ele>1086.7610</ele>
        <time>2009-01-05T12:24:15Z</time>
      </trkpt>
      <trkpt lat="27.93786200" lon="-15.5829910">
        <ele>1086.5780</ele>
        <time>2009-01-05T12:24:16Z</time>
      </trkpt>
      <trkpt lat="27.93786800" lon="-15.5828370">
        <ele>1086.2930</ele>
        <time>2009-01-05T12:24:17Z</time>
      </trkpt>
      <trkpt lat="27.93786400" lon="-15.5826830">
        <ele>1084.8030</ele>
        <time>2009-01-05T12:24:18Z</time>
      </trkpt>
      <trkpt lat="27.93784700" lon="-15.5825300">
        <ele>1082.8850</ele>
        <time>2009-01-05T12:24:19Z</time>
      </trkpt>
      <trkpt lat="27.93781900" lon="-15.5823770">
        <ele>1081.1600</ele>
        <time>2009-01-05T12:24:20Z</time>
      </trkpt>
      <trkpt lat="27.93778700" lon="-15.5822260">
        <ele>1080.5450</ele>
        <time>2009-01-05T12:24:21Z</time>
      </trkpt>
      <trkpt lat="27.93775400" lon="-15.5820730">
        <ele>1078.9320</ele>
        <time>2009-01-05T12:24:22Z</time>
      </trkpt>
      <trkpt lat="27.93772100" lon="-15.5819200">
        <ele>1078.0110</ele>
        <time>2009-01-05T12:24:23Z</time>
      </trkpt>
      <trkpt lat="27.93769200" lon="-15.5817640">
        <ele>1076.6120</ele>
        <time>2009-01-05T12:24:24Z</time>
      </trkpt>
      <trkpt lat="27.93766500" lon="-15.5816070">
        <ele>1075.6940</ele>
        <time>2009-01-05T12:24:25Z</time>
      </trkpt>
      <trkpt lat="27.93763500" lon="-15.5814500">
        <ele>1074.8470</ele>
        <time>2009-01-05T12:24:26Z</time>
      </trkpt>
      <trkpt lat="27.93760200" lon="-15.5812920">
        <ele>1073.3980</ele>
        <time>2009-01-05T12:24:27Z</time>
      </trkpt>
      <trkpt lat="27.93756700" lon="-15.5811350">
        <ele>1073.1830</ele>
        <time>2009-01-05T12:24:28Z</time>
      </trkpt>
      <trkpt lat="27.93752900" lon="-15.5809790">
        <ele>1071.6660</ele>
        <time>2009-01-05T12:24:29Z</time>
      </trkpt>
      <trkpt lat="27.93748400" lon="-15.5808250">
        <ele>1070.8000</ele>
        <time>2009-01-05T12:24:30Z</time>
      </trkpt>
      <trkpt lat="27.93743200" lon="-15.5806740">
        <ele>1070.3340</ele>
        <time>2009-01-05T12:24:31Z</time>
      </trkpt>
      <trkpt lat="27.93737800" lon="-15.5805230">
        <ele>1068.4490</ele>
        <time>2009-01-05T12:24:32Z</time>
      </trkpt>
      <trkpt lat="27.93732100" lon="-15.5803730">
        <ele>1067.6340</ele>
        <time>2009-01-05T12:24:33Z</time>
      </trkpt>
      <trkpt lat="27.93726500" lon="-15.5802230">
        <ele>1066.2960</ele>
        <time>2009-01-05T12:24:34Z</time>
      </trkpt>
      <trkpt lat="27.93721000" lon="-15.5800730">
        <ele>1065.5710</ele>
        <time>2009-01-05T12:24:35Z</time>
      </trkpt>
      <trkpt lat="27.93715600" lon="-15.5799210">
        <ele>1064.9150</ele>
        <time>2009-01-05T12:24:36Z</time>
      </trkpt>
      <trkpt lat="27.93710500" lon="-15.5797690">
        <ele>1064.7810</ele>
        <time>2009-01-05T12:24:37Z</time>
      </trkpt>
      <trkpt lat="27.93705700" lon="-15.5796170">
        <ele>1063.5090</ele>
        <time>2009-01-05T12:24:38Z</time>
      </trkpt>
      <trkpt lat="27.93701000" lon="-15.5794660">
        <ele>1062.8550</ele>
        <time>2009-01-05T12:24:39Z</time>
      </trkpt>
      <trkpt lat="27.93696500" lon="-15.5793160">
        <ele>1062.3650</ele>
        <time>2009-01-05T12:24:40Z</time>
      </trkpt>
      <trkpt lat="27.93692500" lon="-15.5791660">
        <ele>1061.5440</ele>
        <time>2009-01-05T12:24:41Z</time>
      </trkpt>
      <trkpt lat="27.93689200" lon="-15.5790160">
        <ele>1061.1250</ele>
        <time>2009-01-05T12:24:42Z</time>
      </trkpt>
      <trkpt lat="27.93687000" lon="-15.5788650">
        <ele>1059.7990</ele>
        <time>2009-01-05T12:24:43Z</time>
      </trkpt>
      <trkpt lat="27.93685400" lon="-15.5787150">
        <ele>1059.1340</ele>
        <time>2009-01-05T12:24:44Z</time>
      </trkpt>
      <trkpt lat="27.93684000" lon="-15.5785640">
        <ele>1057.9250</ele>
        <time>2009-01-05T12:24:45Z</time>
      </trkpt>
      <trkpt lat="27.93682500" lon="-15.5784120">
        <ele>1057.1490</ele>
        <time>2009-01-05T12:24:46Z</time>
      </trkpt>
      <trkpt lat="27.93681100" lon="-15.5782610">
        <ele>1056.4760</ele>
        <time>2009-01-05T12:24:47Z</time>
      </trkpt>
      <trkpt lat="27.93680000" lon="-15.5781100">
        <ele>1054.6830</ele>
        <time>2009-01-05T12:24:48Z</time>
      </trkpt>
      <trkpt lat="27.93678700" lon="-15.5779600">
        <ele>1054.0730</ele>
        <time>2009-01-05T12:24:49Z</time>
      </trkpt>
      <trkpt lat="27.93677000" lon="-15.5778190">
        <ele>1052.6450</ele>
        <time>2009-01-05T12:24:50Z</time>
      </trkpt>
      <trkpt lat="27.93674300" lon="-15.5776920">
        <ele>1051.7690</ele>
        <time>2009-01-05T12:24:51Z</time>
      </trkpt>
      <trkpt lat="27.93668100" lon="-15.5775880">
        <ele>1051.5150</ele>
        <time>2009-01-05T12:24:52Z</time>
      </trkpt>
      <trkpt lat="27.93659100" lon="-15.5775050">
        <ele>1050.5950</ele>
        <time>2009-01-05T12:24:53Z</time>
      </trkpt>
      <trkpt lat="27.93649800" lon="-15.5774400">
        <ele>1050.2500</ele>
        <time>2009-01-05T12:24:54Z</time>
      </trkpt>
      <trkpt lat="27.93640400" lon="-15.5773740">
        <ele>1049.2300</ele>
        <time>2009-01-05T12:24:55Z</time>
      </trkpt>
      <trkpt lat="27.93631100" lon="-15.5773050">
        <ele>1048.7870</ele>
        <time>2009-01-05T12:24:56Z</time>
      </trkpt>
      <trkpt lat="27.93621700" lon="-15.5772340">
        <ele>1048.5780</ele>
        <time>2009-01-05T12:24:57Z</time>
      </trkpt>
      <trkpt lat="27.93612400" lon="-15.5771620">
        <ele>1048.0440</ele>
        <time>2009-01-05T12:24:58Z</time>
      </trkpt>
      <trkpt lat="27.93603100" lon="-15.5770910">
        <ele>1047.3530</ele>
        <time>2009-01-05T12:24:59Z</time>
      </trkpt>
      <trkpt lat="27.93594000" lon="-15.5770170">
        <ele>1046.3110</ele>
        <time>2009-01-05T12:25:00Z</time>
      </trkpt>
      <trkpt lat="27.93585000" lon="-15.5769420">
        <ele>1045.9580</ele>
        <time>2009-01-05T12:25:01Z</time>
      </trkpt>
      <trkpt lat="27.93575900" lon="-15.5768680">
        <ele>1045.5170</ele>
        <time>2009-01-05T12:25:02Z</time>
      </trkpt>
      <trkpt lat="27.93566700" lon="-15.5767960">
        <ele>1045.2620</ele>
        <time>2009-01-05T12:25:03Z</time>
      </trkpt>
      <trkpt lat="27.93557500" lon="-15.5767260">
        <ele>1044.3370</ele>
        <time>2009-01-05T12:25:04Z</time>
      </trkpt>
      <trkpt lat="27.93548100" lon="-15.5766560">
        <ele>1043.4990</ele>
        <time>2009-01-05T12:25:05Z</time>
      </trkpt>
      <trkpt lat="27.93538900" lon="-15.5765850">
        <ele>1042.9250</ele>
        <time>2009-01-05T12:25:06Z</time>
      </trkpt>
      <trkpt lat="27.93529800" lon="-15.5765110">
        <ele>1042.0610</ele>
        <time>2009-01-05T12:25:07Z</time>
      </trkpt>
      <trkpt lat="27.93520600" lon="-15.5764400">
        <ele>1041.3290</ele>
        <time>2009-01-05T12:25:08Z</time>
      </trkpt>
      <trkpt lat="27.93511400" lon="-15.5763670">
        <ele>1040.8010</ele>
        <time>2009-01-05T12:25:09Z</time>
      </trkpt>
      <trkpt lat="27.93502200" lon="-15.5762940">
        <ele>1039.5110</ele>
        <time>2009-01-05T12:25:10Z</time>
      </trkpt>
      <trkpt lat="27.93492400" lon="-15.5762300">
        <ele>1039.0460</ele>
        <time>2009-01-05T12:25:11Z</time>
      </trkpt>
      <trkpt lat="27.93481600" lon="-15.5761900">
        <ele>1039.0010</ele>
        <time>2009-01-05T12:25:12Z</time>
      </trkpt>
      <trkpt lat="27.93470200" lon="-15.5761750">
        <ele>1037.5630</ele>
        <time>2009-01-05T12:25:13Z</time>
      </trkpt>
      <trkpt lat="27.93458700" lon="-15.5761750">
        <ele>1036.8860</ele>
        <time>2009-01-05T12:25:14Z</time>
      </trkpt>
      <trkpt lat="27.93447200" lon="-15.5761800">
        <ele>1035.8760</ele>
        <time>2009-01-05T12:25:15Z</time>
      </trkpt>
      <trkpt lat="27.93435600" lon="-15.5761880">
        <ele>1035.6410</ele>
        <time>2009-01-05T12:25:16Z</time>
      </trkpt>
      <trkpt lat="27.93423900" lon="-15.5762060">
        <ele>1034.9240</ele>
        <time>2009-01-05T12:25:17Z</time>
      </trkpt>
      <trkpt lat="27.93412300" lon="-15.5762380">
        <ele>1033.8820</ele>
        <time>2009-01-05T12:25:18Z</time>
      </trkpt>
      <trkpt lat="27.93400600" lon="-15.5762800">
        <ele>1033.0100</ele>
        <time>2009-01-05T12:25:19Z</time>
      </trkpt>
      <trkpt lat="27.93388900" lon="-15.5763260">
        <ele>1031.5770</ele>
        <time>2009-01-05T12:25:20Z</time>
      </trkpt>
      <trkpt lat="27.93377000" lon="-15.5763740">
        <ele>1030.5990</ele>
        <time>2009-01-05T12:25:21Z</time>
      </trkpt>
      <trkpt lat="27.93365000" lon="-15.5764230">
        <ele>1029.7880</ele>
        <time>2009-01-05T12:25:22Z</time>
      </trkpt>
      <trkpt lat="27.93352600" lon="-15.5764720">
        <ele>1029.3090</ele>
        <time>2009-01-05T12:25:23Z</time>
      </trkpt>
      <trkpt lat="27.93340000" lon="-15.5765210">
        <ele>1028.3450</ele>
        <time>2009-01-05T12:25:24Z</time>
      </trkpt>
      <trkpt lat="27.93327200" lon="-15.5765700">
        <ele>1026.4570</ele>
        <time>2009-01-05T12:25:25Z</time>
      </trkpt>
      <trkpt lat="27.93314700" lon="-15.5766180">
        <ele>1026.0310</ele>
        <time>2009-01-05T12:25:26Z</time>
      </trkpt>
      <trkpt lat="27.93303400" lon="-15.5766590">
        <ele>1024.4160</ele>
        <time>2009-01-05T12:25:27Z</time>
      </trkpt>
      <trkpt lat="27.93293600" lon="-15.5766910">
        <ele>1022.5610</ele>
        <time>2009-01-05T12:25:28Z</time>
      </trkpt>
      <trkpt lat="27.93285200" lon="-15.5766980">
        <ele>1021.5670</ele>
        <time>2009-01-05T12:25:29Z</time>
      </trkpt>
      <trkpt lat="27.93278000" lon="-15.5766530">
        <ele>1020.7770</ele>
        <time>2009-01-05T12:25:30Z</time>
      </trkpt>
      <trkpt lat="27.93273700" lon="-15.5765590">
        <ele>1020.2660</ele>
        <time>2009-01-05T12:25:31Z</time>
      </trkpt>
      <trkpt lat="27.93273400" lon="-15.5764520">
        <ele>1019.1750</ele>
        <time>2009-01-05T12:25:32Z</time>
      </trkpt>
      <trkpt lat="27.93278000" lon="-15.5763410">
        <ele>1018.3440</ele>
        <time>2009-01-05T12:25:33Z</time>
      </trkpt>
      <trkpt lat="27.93285100" lon="-15.5762420">
        <ele>1016.8350</ele>
        <time>2009-01-05T12:25:34Z</time>
      </trkpt>
      <trkpt lat="27.93293700" lon="-15.5761570">
        <ele>1015.7630</ele>
        <time>2009-01-05T12:25:35Z</time>
      </trkpt>
      <trkpt lat="27.93302800" lon="-15.5760710">
        <ele>1014.8940</ele>
        <time>2009-01-05T12:25:36Z</time>
      </trkpt>
      <trkpt lat="27.93311900" lon="-15.5759780">
        <ele>1013.7820</ele>
        <time>2009-01-05T12:25:37Z</time>
      </trkpt>
      <trkpt lat="27.93321200" lon="-15.5758850">
        <ele>1012.2840</ele>
        <time>2009-01-05T12:25:38Z</time>
      </trkpt>
      <trkpt lat="27.93330900" lon="-15.5757920">
        <ele>1011.0770</ele>
        <time>2009-01-05T12:25:39Z</time>
      </trkpt>
      <trkpt lat="27.93341000" lon="-15.5756980">
        <ele>1009.9550</ele>
        <time>2009-01-05T12:25:40Z</time>
      </trkpt>
      <trkpt lat="27.93350900" lon="-15.5756060">
        <ele>1009.4420</ele>
        <time>2009-01-05T12:25:41Z</time>
      </trkpt>
      <trkpt lat="27.93359700" lon="-15.5755240">
        <ele>1007.4640</ele>
        <time>2009-01-05T12:25:42Z</time>
      </trkpt>
      <trkpt lat="27.93366500" lon="-15.5754470">
        <ele>1006.2140</ele>
        <time>2009-01-05T12:25:43Z</time>
      </trkpt>
      <trkpt lat="27.93370800" lon="-15.5753580">
        <ele>1005.4570</ele>
        <time>2009-01-05T12:25:44Z</time>
      </trkpt>
      <trkpt lat="27.93369400" lon="-15.5752440">
        <ele>1004.3800</ele>
        <time>2009-01-05T12:25:45Z</time>
      </trkpt>
      <trkpt lat="27.93363100" lon="-15.5751370">
        <ele>1004.3200</ele>
        <time>2009-01-05T12:25:46Z</time>
      </trkpt>
      <trkpt lat="27.93354300" lon="-15.5750810">
        <ele>1003.4140</ele>
        <time>2009-01-05T12:25:47Z</time>
      </trkpt>
      <trkpt lat="27.93344800" lon="-15.5750170">
        <ele>1002.0960</ele>
        <time>2009-01-05T12:25:48Z</time>
      </trkpt>
      <trkpt lat="27.93334800" lon="-15.5749490">
        <ele>1001.2260</ele>
        <time>2009-01-05T12:25:49Z</time>
      </trkpt>
      <trkpt lat="27.93324500" lon="-15.5748740">
        <ele>999.48200</ele>
        <time>2009-01-05T12:25:50Z</time>
      </trkpt>
      <trkpt lat="27.93313900" lon="-15.5747940">
        <ele>998.55700</ele>
        <time>2009-01-05T12:25:51Z</time>
      </trkpt>
      <trkpt lat="27.93303200" lon="-15.5747100">
        <ele>996.59400</ele>
        <time>2009-01-05T12:25:52Z</time>
      </trkpt>
      <trkpt lat="27.93292900" lon="-15.5746350">
        <ele>994.27700</ele>
        <time>2009-01-05T12:25:53Z</time>
      </trkpt>
      <trkpt lat="27.93283800" lon="-15.5745830">
        <ele>992.16600</ele>
        <time>2009-01-05T12:25:54Z</time>
      </trkpt>
      <trkpt lat="27.93275200" lon="-15.5745910">
        <ele>990.11600</ele>
        <time>2009-01-05T12:25:55Z</time>
      </trkpt>
      <trkpt lat="27.93267900" lon="-15.5746520">
        <ele>989.90300</ele>
        <time>2009-01-05T12:25:56Z</time>
      </trkpt>
      <trkpt lat="27.93263000" lon="-15.5747490">
        <ele>988.72600</ele>
        <time>2009-01-05T12:25:57Z</time>
      </trkpt>
      <trkpt lat="27.93260300" lon="-15.5748530">
        <ele>987.97000</ele>
        <time>2009-01-05T12:25:58Z</time>
      </trkpt>
      <trkpt lat="27.93258200" lon="-15.5749630">
        <ele>987.51100</ele>
        <time>2009-01-05T12:25:59Z</time>
      </trkpt>
      <trkpt lat="27.93256100" lon="-15.5750740">
        <ele>986.87900</ele>
        <time>2009-01-05T12:26:00Z</time>
      </trkpt>
      <trkpt lat="27.93253200" lon="-15.5751840">
        <ele>986.90200</ele>
        <time>2009-01-05T12:26:01Z</time>
      </trkpt>
      <trkpt lat="27.93249000" lon="-15.5752860">
        <ele>986.09700</ele>
        <time>2009-01-05T12:26:02Z</time>
      </trkpt>
      <trkpt lat="27.93242500" lon="-15.5753760">
        <ele>985.73600</ele>
        <time>2009-01-05T12:26:03Z</time>
      </trkpt>
      <trkpt lat="27.93233000" lon="-15.5754250">
        <ele>984.84700</ele>
        <time>2009-01-05T12:26:04Z</time>
      </trkpt>
      <trkpt lat="27.93222400" lon="-15.5754370">
        <ele>984.12200</ele>
        <time>2009-01-05T12:26:05Z</time>
      </trkpt>
      <trkpt lat="27.93212500" lon="-15.5754190">
        <ele>983.33300</ele>
        <time>2009-01-05T12:26:06Z</time>
      </trkpt>
      <trkpt lat="27.93202200" lon="-15.5753840">
        <ele>982.69700</ele>
        <time>2009-01-05T12:26:07Z</time>
      </trkpt>
      <trkpt lat="27.93191800" lon="-15.5753470">
        <ele>982.01900</ele>
        <time>2009-01-05T12:26:08Z</time>
      </trkpt>
      <trkpt lat="27.93181100" lon="-15.5753170">
        <ele>981.88900</ele>
        <time>2009-01-05T12:26:09Z</time>
      </trkpt>
      <trkpt lat="27.93170600" lon="-15.5753050">
        <ele>981.77500</ele>
        <time>2009-01-05T12:26:10Z</time>
      </trkpt>
      <trkpt lat="27.93160700" lon="-15.5753320">
        <ele>980.13100</ele>
        <time>2009-01-05T12:26:11Z</time>
      </trkpt>
      <trkpt lat="27.93151800" lon="-15.5753970">
        <ele>979.01300</ele>
        <time>2009-01-05T12:26:12Z</time>
      </trkpt>
      <trkpt lat="27.93143600" lon="-15.5754810">
        <ele>977.54000</ele>
        <time>2009-01-05T12:26:13Z</time>
      </trkpt>
      <trkpt lat="27.93135700" lon="-15.5755730">
        <ele>976.75100</ele>
        <time>2009-01-05T12:26:14Z</time>
      </trkpt>
      <trkpt lat="27.93127700" lon="-15.5756690">
        <ele>975.51000</ele>
        <time>2009-01-05T12:26:15Z</time>
      </trkpt>
      <trkpt lat="27.93119500" lon="-15.5757660">
        <ele>974.85600</ele>
        <time>2009-01-05T12:26:16Z</time>
      </trkpt>
      <trkpt lat="27.93111000" lon="-15.5758690">
        <ele>974.00100</ele>
        <time>2009-01-05T12:26:17Z</time>
      </trkpt>
      <trkpt lat="27.93102500" lon="-15.5759710">
        <ele>973.08000</ele>
        <time>2009-01-05T12:26:18Z</time>
      </trkpt>
      <trkpt lat="27.93093800" lon="-15.5760650">
        <ele>972.35500</ele>
        <time>2009-01-05T12:26:19Z</time>
      </trkpt>
      <trkpt lat="27.93084100" lon="-15.5761380">
        <ele>970.56700</ele>
        <time>2009-01-05T12:26:20Z</time>
      </trkpt>
      <trkpt lat="27.93072500" lon="-15.5761690">
        <ele>970.72000</ele>
        <time>2009-01-05T12:26:21Z</time>
      </trkpt>
      <trkpt lat="27.93060400" lon="-15.5761620">
        <ele>969.57400</ele>
        <time>2009-01-05T12:26:22Z</time>
      </trkpt>
      <trkpt lat="27.93048200" lon="-15.5761280">
        <ele>969.18000</ele>
        <time>2009-01-05T12:26:23Z</time>
      </trkpt>
      <trkpt lat="27.93036200" lon="-15.5760800">
        <ele>968.26800</ele>
        <time>2009-01-05T12:26:24Z</time>
      </trkpt>
      <trkpt lat="27.93024800" lon="-15.5760340">
        <ele>966.16400</ele>
        <time>2009-01-05T12:26:25Z</time>
      </trkpt>
      <trkpt lat="27.93014600" lon="-15.5760090">
        <ele>965.29600</ele>
        <time>2009-01-05T12:26:26Z</time>
      </trkpt>
      <trkpt lat="27.93005100" lon="-15.5760290">
        <ele>964.30700</ele>
        <time>2009-01-05T12:26:27Z</time>
      </trkpt>
      <trkpt lat="27.92996800" lon="-15.5760860">
        <ele>963.24500</ele>
        <time>2009-01-05T12:26:28Z</time>
      </trkpt>
      <trkpt lat="27.92988700" lon="-15.5761610">
        <ele>962.28800</ele>
        <time>2009-01-05T12:26:29Z</time>
      </trkpt>
      <trkpt lat="27.92980400" lon="-15.5762380">
        <ele>962.17900</ele>
        <time>2009-01-05T12:26:30Z</time>
      </trkpt>
      <trkpt lat="27.92970500" lon="-15.5762980">
        <ele>961.79200</ele>
        <time>2009-01-05T12:26:31Z</time>
      </trkpt>
      <trkpt lat="27.92959700" lon="-15.5763340">
        <ele>961.17000</ele>
        <time>2009-01-05T12:26:32Z</time>
      </trkpt>
      <trkpt lat="27.92948300" lon="-15.5763450">
        <ele>959.53100</ele>
        <time>2009-01-05T12:26:33Z</time>
      </trkpt>
      <trkpt lat="27.92936500" lon="-15.5763390">
        <ele>959.14100</ele>
        <time>2009-01-05T12:26:34Z</time>
      </trkpt>
      <trkpt lat="27.92924500" lon="-15.5763260">
        <ele>957.83000</ele>
        <time>2009-01-05T12:26:35Z</time>
      </trkpt>
      <trkpt lat="27.92912300" lon="-15.5763100">
        <ele>957.81300</ele>
        <time>2009-01-05T12:26:36Z</time>
      </trkpt>
      <trkpt lat="27.92900700" lon="-15.5762970">
        <ele>956.68400</ele>
        <time>2009-01-05T12:26:37Z</time>
      </trkpt>
      <trkpt lat="27.92890100" lon="-15.5763010">
        <ele>955.32200</ele>
        <time>2009-01-05T12:26:38Z</time>
      </trkpt>
      <trkpt lat="27.92880300" lon="-15.5763470">
        <ele>954.43000</ele>
        <time>2009-01-05T12:26:39Z</time>
      </trkpt>
      <trkpt lat="27.92873000" lon="-15.5764310">
        <ele>954.08300</ele>
        <time>2009-01-05T12:26:40Z</time>
      </trkpt>
      <trkpt lat="27.92865600" lon="-15.5765260">
        <ele>952.84500</ele>
        <time>2009-01-05T12:26:41Z</time>
      </trkpt>
      <trkpt lat="27.92856800" lon="-15.5766070">
        <ele>952.84500</ele>
        <time>2009-01-05T12:26:42Z</time>
      </trkpt>
      <trkpt lat="27.92834200" lon="-15.5766560">
        <ele>949.84000</ele>
        <time>2009-01-05T12:26:44Z</time>
      </trkpt>
      <trkpt lat="27.92821900" lon="-15.5766280">
        <ele>948.70500</ele>
        <time>2009-01-05T12:26:45Z</time>
      </trkpt>
      <trkpt lat="27.92809800" lon="-15.5765840">
        <ele>947.78700</ele>
        <time>2009-01-05T12:26:46Z</time>
      </trkpt>
      <trkpt lat="27.92798100" lon="-15.5765390">
        <ele>946.01100</ele>
        <time>2009-01-05T12:26:47Z</time>
      </trkpt>
      <trkpt lat="27.92787100" lon="-15.5765070">
        <ele>944.12000</ele>
        <time>2009-01-05T12:26:48Z</time>
      </trkpt>
      <trkpt lat="27.92776200" lon="-15.5765020">
        <ele>943.88900</ele>
        <time>2009-01-05T12:26:49Z</time>
      </trkpt>
      <trkpt lat="27.92765800" lon="-15.5765340">
        <ele>941.76600</ele>
        <time>2009-01-05T12:26:50Z</time>
      </trkpt>
      <trkpt lat="27.92755300" lon="-15.5765710">
        <ele>941.21800</ele>
        <time>2009-01-05T12:26:51Z</time>
      </trkpt>
      <trkpt lat="27.92744500" lon="-15.5765770">
        <ele>940.41900</ele>
        <time>2009-01-05T12:26:52Z</time>
      </trkpt>
      <trkpt lat="27.92733700" lon="-15.5765390">
        <ele>940.21800</ele>
        <time>2009-01-05T12:26:53Z</time>
      </trkpt>
      <trkpt lat="27.92723100" lon="-15.5764870">
        <ele>938.98800</ele>
        <time>2009-01-05T12:26:54Z</time>
      </trkpt>
      <trkpt lat="27.92712100" lon="-15.5764530">
        <ele>938.03900</ele>
        <time>2009-01-05T12:26:55Z</time>
      </trkpt>
      <trkpt lat="27.92700600" lon="-15.5764480">
        <ele>937.57300</ele>
        <time>2009-01-05T12:26:56Z</time>
      </trkpt>
      <trkpt lat="27.92689200" lon="-15.5764740">
        <ele>935.92600</ele>
        <time>2009-01-05T12:26:57Z</time>
      </trkpt>
      <trkpt lat="27.92678200" lon="-15.5765300">
        <ele>935.02200</ele>
        <time>2009-01-05T12:26:58Z</time>
      </trkpt>
      <trkpt lat="27.92669200" lon="-15.5766290">
        <ele>933.55000</ele>
        <time>2009-01-05T12:26:59Z</time>
      </trkpt>
      <trkpt lat="27.92661700" lon="-15.5767390">
        <ele>932.55700</ele>
        <time>2009-01-05T12:27:00Z</time>
      </trkpt>
      <trkpt lat="27.92654200" lon="-15.5768470">
        <ele>931.24400</ele>
        <time>2009-01-05T12:27:01Z</time>
      </trkpt>
      <trkpt lat="27.92646100" lon="-15.5769530">
        <ele>930.21900</ele>
        <time>2009-01-05T12:27:02Z</time>
      </trkpt>
      <trkpt lat="27.92637500" lon="-15.5770480">
        <ele>928.72100</ele>
        <time>2009-01-05T12:27:03Z</time>
      </trkpt>
      <trkpt lat="27.92629500" lon="-15.5771650">
        <ele>927.75200</ele>
        <time>2009-01-05T12:27:04Z</time>
      </trkpt>
      <trkpt lat="27.92622400" lon="-15.5772930">
        <ele>926.76700</ele>
        <time>2009-01-05T12:27:05Z</time>
      </trkpt>
      <trkpt lat="27.92617000" lon="-15.5774270">
        <ele>925.39900</ele>
        <time>2009-01-05T12:27:06Z</time>
      </trkpt>
      <trkpt lat="27.92613300" lon="-15.5775710">
        <ele>924.46500</ele>
        <time>2009-01-05T12:27:07Z</time>
      </trkpt>
      <trkpt lat="27.92610100" lon="-15.5777170">
        <ele>922.88600</ele>
        <time>2009-01-05T12:27:08Z</time>
      </trkpt>
      <trkpt lat="27.92608000" lon="-15.5778670">
        <ele>922.20300</ele>
        <time>2009-01-05T12:27:09Z</time>
      </trkpt>
      <trkpt lat="27.92606900" lon="-15.5780210">
        <ele>921.64200</ele>
        <time>2009-01-05T12:27:10Z</time>
      </trkpt>
      <trkpt lat="27.92606800" lon="-15.5781780">
        <ele>920.51000</ele>
        <time>2009-01-05T12:27:11Z</time>
      </trkpt>
      <trkpt lat="27.92607800" lon="-15.5783330">
        <ele>919.51200</ele>
        <time>2009-01-05T12:27:12Z</time>
      </trkpt>
      <trkpt lat="27.92609800" lon="-15.5784890">
        <ele>918.93900</ele>
        <time>2009-01-05T12:27:13Z</time>
      </trkpt>
      <trkpt lat="27.92612900" lon="-15.5786360">
        <ele>917.50200</ele>
        <time>2009-01-05T12:27:14Z</time>
      </trkpt>
      <trkpt lat="27.92615900" lon="-15.5787670">
        <ele>916.35600</ele>
        <time>2009-01-05T12:27:15Z</time>
      </trkpt>
      <trkpt lat="27.92617000" lon="-15.5788840">
        <ele>916.44600</ele>
        <time>2009-01-05T12:27:16Z</time>
      </trkpt>
      <trkpt lat="27.92615400" lon="-15.5789870">
        <ele>915.82400</ele>
        <time>2009-01-05T12:27:17Z</time>
      </trkpt>
      <trkpt lat="27.92611700" lon="-15.5790780">
        <ele>915.42400</ele>
        <time>2009-01-05T12:27:18Z</time>
      </trkpt>
      <trkpt lat="27.92606400" lon="-15.5791530">
        <ele>916.08300</ele>
        <time>2009-01-05T12:27:19Z</time>
      </trkpt>
      <trkpt lat="27.92599700" lon="-15.5791990">
        <ele>915.81800</ele>
        <time>2009-01-05T12:27:20Z</time>
      </trkpt>
      <trkpt lat="27.92590900" lon="-15.5791980">
        <ele>915.56500</ele>
        <time>2009-01-05T12:27:21Z</time>
      </trkpt>
      <trkpt lat="27.92583000" lon="-15.5791560">
        <ele>915.99400</ele>
        <time>2009-01-05T12:27:22Z</time>
      </trkpt>
      <trkpt lat="27.92575600" lon="-15.5790630">
        <ele>916.26100</ele>
        <time>2009-01-05T12:27:23Z</time>
      </trkpt>
      <trkpt lat="27.92569900" lon="-15.5789740">
        <ele>915.56600</ele>
        <time>2009-01-05T12:27:24Z</time>
      </trkpt>
      <trkpt lat="27.92564100" lon="-15.5788780">
        <ele>915.25100</ele>
        <time>2009-01-05T12:27:25Z</time>
      </trkpt>
      <trkpt lat="27.92558700" lon="-15.5787760">
        <ele>914.48400</ele>
        <time>2009-01-05T12:27:26Z</time>
      </trkpt>
      <trkpt lat="27.92553500" lon="-15.5786770">
        <ele>914.14600</ele>
        <time>2009-01-05T12:27:27Z</time>
      </trkpt>
      <trkpt lat="27.92548000" lon="-15.5785780">
        <ele>913.23400</ele>
        <time>2009-01-05T12:27:28Z</time>
      </trkpt>
      <trkpt lat="27.92542500" lon="-15.5784770">
        <ele>912.76000</ele>
        <time>2009-01-05T12:27:29Z</time>
      </trkpt>
      <trkpt lat="27.92537300" lon="-15.5783720">
        <ele>912.62500</ele>
        <time>2009-01-05T12:27:30Z</time>
      </trkpt>
      <trkpt lat="27.92532800" lon="-15.5782630">
        <ele>912.21500</ele>
        <time>2009-01-05T12:27:31Z</time>
      </trkpt>
      <trkpt lat="27.92529400" lon="-15.5781510">
        <ele>911.35300</ele>
        <time>2009-01-05T12:27:32Z</time>
      </trkpt>
      <trkpt lat="27.92526500" lon="-15.5780340">
        <ele>910.94800</ele>
        <time>2009-01-05T12:27:33Z</time>
      </trkpt>
      <trkpt lat="27.92525100" lon="-15.5779130">
        <ele>910.36100</ele>
        <time>2009-01-05T12:27:34Z</time>
      </trkpt>
      <trkpt lat="27.92524800" lon="-15.5777920">
        <ele>910.04000</ele>
        <time>2009-01-05T12:27:35Z</time>
      </trkpt>
      <trkpt lat="27.92524900" lon="-15.5776680">
        <ele>909.27100</ele>
        <time>2009-01-05T12:27:36Z</time>
      </trkpt>
      <trkpt lat="27.92525500" lon="-15.5775370">
        <ele>909.02100</ele>
        <time>2009-01-05T12:27:37Z</time>
      </trkpt>
      <trkpt lat="27.92526700" lon="-15.5774050">
        <ele>908.39100</ele>
        <time>2009-01-05T12:27:38Z</time>
      </trkpt>
      <trkpt lat="27.92528300" lon="-15.5772760">
        <ele>908.05700</ele>
        <time>2009-01-05T12:27:39Z</time>
      </trkpt>
      <trkpt lat="27.92530600" lon="-15.5771480">
        <ele>907.78400</ele>
        <time>2009-01-05T12:27:40Z</time>
      </trkpt>
      <trkpt lat="27.92533800" lon="-15.5770230">
        <ele>907.19100</ele>
        <time>2009-01-05T12:27:41Z</time>
      </trkpt>
      <trkpt lat="27.92538100" lon="-15.5769030">
        <ele>906.62000</ele>
        <time>2009-01-05T12:27:42Z</time>
      </trkpt>
      <trkpt lat="27.92543100" lon="-15.5767850">
        <ele>905.79400</ele>
        <time>2009-01-05T12:27:43Z</time>
      </trkpt>
      <trkpt lat="27.92547800" lon="-15.5766650">
        <ele>905.22000</ele>
        <time>2009-01-05T12:27:44Z</time>
      </trkpt>
      <trkpt lat="27.92551300" lon="-15.5765460">
        <ele>904.88100</ele>
        <time>2009-01-05T12:27:45Z</time>
      </trkpt>
      <trkpt lat="27.92554600" lon="-15.5764240">
        <ele>904.46100</ele>
        <time>2009-01-05T12:27:46Z</time>
      </trkpt>
      <trkpt lat="27.92556900" lon="-15.5763030">
        <ele>904.89100</ele>
        <time>2009-01-05T12:27:47Z</time>
      </trkpt>
      <trkpt lat="27.92557900" lon="-15.5761810">
        <ele>904.57900</ele>
        <time>2009-01-05T12:27:48Z</time>
      </trkpt>
      <trkpt lat="27.92557100" lon="-15.5760600">
        <ele>903.69800</ele>
        <time>2009-01-05T12:27:49Z</time>
      </trkpt>
      <trkpt lat="27.92554900" lon="-15.5759420">
        <ele>903.41400</ele>
        <time>2009-01-05T12:27:50Z</time>
      </trkpt>
      <trkpt lat="27.92551100" lon="-15.5758310">
        <ele>903.49600</ele>
        <time>2009-01-05T12:27:51Z</time>
      </trkpt>
      <trkpt lat="27.92545700" lon="-15.5757220">
        <ele>903.16500</ele>
        <time>2009-01-05T12:27:52Z</time>
      </trkpt>
      <trkpt lat="27.92543900" lon="-15.5756130">
        <ele>903.41900</ele>
        <time>2009-01-05T12:27:53Z</time>
      </trkpt>
      <trkpt lat="27.92540800" lon="-15.5755020">
        <ele>903.53900</ele>
        <time>2009-01-05T12:27:54Z</time>
      </trkpt>
      <trkpt lat="27.92538200" lon="-15.5753900">
        <ele>903.23800</ele>
        <time>2009-01-05T12:27:55Z</time>
      </trkpt>
      <trkpt lat="27.92537200" lon="-15.5752760">
        <ele>902.96600</ele>
        <time>2009-01-05T12:27:56Z</time>
      </trkpt>
      <trkpt lat="27.92537400" lon="-15.5751620">
        <ele>902.52900</ele>
        <time>2009-01-05T12:27:57Z</time>
      </trkpt>
      <trkpt lat="27.92538000" lon="-15.5750460">
        <ele>902.38400</ele>
        <time>2009-01-05T12:27:58Z</time>
      </trkpt>
      <trkpt lat="27.92538800" lon="-15.5749320">
        <ele>902.22500</ele>
        <time>2009-01-05T12:27:59Z</time>
      </trkpt>
      <trkpt lat="27.92540100" lon="-15.5748190">
        <ele>901.41600</ele>
        <time>2009-01-05T12:28:00Z</time>
      </trkpt>
      <trkpt lat="27.92541800" lon="-15.5747090">
        <ele>901.48700</ele>
        <time>2009-01-05T12:28:01Z</time>
      </trkpt>
      <trkpt lat="27.92544600" lon="-15.5746040">
        <ele>901.19400</ele>
        <time>2009-01-05T12:28:02Z</time>
      </trkpt>
      <trkpt lat="27.92548400" lon="-15.5745000">
        <ele>900.23400</ele>
        <time>2009-01-05T12:28:03Z</time>
      </trkpt>
      <trkpt lat="27.92551600" lon="-15.5743950">
        <ele>899.91900</ele>
        <time>2009-01-05T12:28:04Z</time>
      </trkpt>
      <trkpt lat="27.92553900" lon="-15.5742850">
        <ele>899.74800</ele>
        <time>2009-01-05T12:28:05Z</time>
      </trkpt>
      <trkpt lat="27.92555700" lon="-15.5741730">
        <ele>899.19000</ele>
        <time>2009-01-05T12:28:06Z</time>
      </trkpt>
      <trkpt lat="27.92556000" lon="-15.5740580">
        <ele>899.06600</ele>
        <time>2009-01-05T12:28:07Z</time>
      </trkpt>
      <trkpt lat="27.92556000" lon="-15.5739430">
        <ele>898.18500</ele>
        <time>2009-01-05T12:28:08Z</time>
      </trkpt>
      <trkpt lat="27.92556000" lon="-15.5738270">
        <ele>897.67000</ele>
        <time>2009-01-05T12:28:09Z</time>
      </trkpt>
      <trkpt lat="27.92556000" lon="-15.5737110">
        <ele>897.48200</ele>
        <time>2009-01-05T12:28:10Z</time>
      </trkpt>
      <trkpt lat="27.92556100" lon="-15.5735990">
        <ele>896.77100</ele>
        <time>2009-01-05T12:28:11Z</time>
      </trkpt>
      <trkpt lat="27.92555800" lon="-15.5735030">
        <ele>896.07000</ele>
        <time>2009-01-05T12:28:12Z</time>
      </trkpt>
      <trkpt lat="27.92555000" lon="-15.5734230">
        <ele>895.43900</ele>
        <time>2009-01-05T12:28:13Z</time>
      </trkpt>
      <trkpt lat="27.92553900" lon="-15.5733540">
        <ele>894.82000</ele>
        <time>2009-01-05T12:28:14Z</time>
      </trkpt>
      <trkpt lat="27.92552100" lon="-15.5732910">
        <ele>894.60900</ele>
        <time>2009-01-05T12:28:15Z</time>
      </trkpt>
      <trkpt lat="27.92548500" lon="-15.5732600">
        <ele>894.78100</ele>
        <time>2009-01-05T12:28:16Z</time>
      </trkpt>
      <trkpt lat="27.92542400" lon="-15.5731950">
        <ele>894.54100</ele>
        <time>2009-01-05T12:28:17Z</time>
      </trkpt>
      <trkpt lat="27.92535800" lon="-15.5731830">
        <ele>894.53800</ele>
        <time>2009-01-05T12:28:18Z</time>
      </trkpt>
      <trkpt lat="27.92530800" lon="-15.5731770">
        <ele>894.41100</ele>
        <time>2009-01-05T12:28:19Z</time>
      </trkpt>
      <trkpt lat="27.92525900" lon="-15.5731780">
        <ele>894.53200</ele>
        <time>2009-01-05T12:28:20Z</time>
      </trkpt>
      <trkpt lat="27.92521300" lon="-15.5731830">
        <ele>894.98100</ele>
        <time>2009-01-05T12:28:21Z</time>
      </trkpt>
      <trkpt lat="27.92516900" lon="-15.5731930">
        <ele>895.02300</ele>
        <time>2009-01-05T12:28:22Z</time>
      </trkpt>
      <trkpt lat="27.92512800" lon="-15.5732080">
        <ele>894.99600</ele>
        <time>2009-01-05T12:28:23Z</time>
      </trkpt>
      <trkpt lat="27.92508700" lon="-15.5732200">
        <ele>895.25300</ele>
        <time>2009-01-05T12:28:24Z</time>
      </trkpt>
      <trkpt lat="27.92504600" lon="-15.5732330">
        <ele>895.32900</ele>
        <time>2009-01-05T12:28:25Z</time>
      </trkpt>
      <trkpt lat="27.92500500" lon="-15.5732430">
        <ele>895.81300</ele>
        <time>2009-01-05T12:28:26Z</time>
      </trkpt>
      <trkpt lat="27.92496300" lon="-15.5732510">
        <ele>896.08100</ele>
        <time>2009-01-05T12:28:27Z</time>
      </trkpt>
      <trkpt lat="27.92492300" lon="-15.5732580">
        <ele>896.19500</ele>
        <time>2009-01-05T12:28:28Z</time>
      </trkpt>
      <trkpt lat="27.92488700" lon="-15.5732660">
        <ele>896.30900</ele>
        <time>2009-01-05T12:28:29Z</time>
      </trkpt>
      <trkpt lat="27.92486100" lon="-15.5732750">
        <ele>896.52900</ele>
        <time>2009-01-05T12:28:30Z</time>
      </trkpt>
      <trkpt lat="27.92484400" lon="-15.5732830">
        <ele>896.28600</ele>
        <time>2009-01-05T12:28:31Z</time>
      </trkpt>
      <trkpt lat="27.92483000" lon="-15.5732890">
        <ele>895.96400</ele>
        <time>2009-01-05T12:28:32Z</time>
      </trkpt>
      <trkpt lat="27.92481700" lon="-15.5732940">
        <ele>896.52700</ele>
        <time>2009-01-05T12:28:33Z</time>
      </trkpt>
      <trkpt lat="27.92480400" lon="-15.5732980">
        <ele>896.38600</ele>
        <time>2009-01-05T12:28:34Z</time>
      </trkpt>
      <trkpt lat="27.92478700" lon="-15.5733050">
        <ele>896.48800</ele>
        <time>2009-01-05T12:28:35Z</time>
      </trkpt>
      <trkpt lat="27.92476500" lon="-15.5733140">
        <ele>896.48400</ele>
        <time>2009-01-05T12:28:36Z</time>
      </trkpt>
      <trkpt lat="27.92473500" lon="-15.5733270">
        <ele>896.78900</ele>
        <time>2009-01-05T12:28:37Z</time>
      </trkpt>
      <trkpt lat="27.92469300" lon="-15.5733260">
        <ele>896.87400</ele>
        <time>2009-01-05T12:28:38Z</time>
      </trkpt>
      <trkpt lat="27.92464100" lon="-15.5733170">
        <ele>896.59800</ele>
        <time>2009-01-05T12:28:39Z</time>
      </trkpt>
      <trkpt lat="27.92458200" lon="-15.5732900">
        <ele>896.91200</ele>
        <time>2009-01-05T12:28:40Z</time>
      </trkpt>
      <trkpt lat="27.92451800" lon="-15.5732590">
        <ele>896.88600</ele>
        <time>2009-01-05T12:28:41Z</time>
      </trkpt>
      <trkpt lat="27.92444900" lon="-15.5732350">
        <ele>896.77500</ele>
        <time>2009-01-05T12:28:42Z</time>
      </trkpt>
      <trkpt lat="27.92437900" lon="-15.5732120">
        <ele>896.98700</ele>
        <time>2009-01-05T12:28:43Z</time>
      </trkpt>
      <trkpt lat="27.92430900" lon="-15.5731870">
        <ele>896.68000</ele>
        <time>2009-01-05T12:28:44Z</time>
      </trkpt>
      <trkpt lat="27.92424500" lon="-15.5731660">
        <ele>896.59200</ele>
        <time>2009-01-05T12:28:45Z</time>
      </trkpt>
      <trkpt lat="27.92418600" lon="-15.5731480">
        <ele>896.13600</ele>
        <time>2009-01-05T12:28:46Z</time>
      </trkpt>
      <trkpt lat="27.92413200" lon="-15.5731300">
        <ele>896.30000</ele>
        <time>2009-01-05T12:28:47Z</time>
      </trkpt>
      <trkpt lat="27.92407300" lon="-15.5731120">
        <ele>896.05400</ele>
        <time>2009-01-05T12:28:48Z</time>
      </trkpt>
      <trkpt lat="27.92401200" lon="-15.5730950">
        <ele>896.10600</ele>
        <time>2009-01-05T12:28:49Z</time>
      </trkpt>
      <trkpt lat="27.92394900" lon="-15.5730870">
        <ele>895.99400</ele>
        <time>2009-01-05T12:28:50Z</time>
      </trkpt>
      <trkpt lat="27.92386800" lon="-15.5730820">
        <ele>895.65000</ele>
        <time>2009-01-05T12:28:51Z</time>
      </trkpt>
      <trkpt lat="27.92378500" lon="-15.5730810">
        <ele>895.25100</ele>
        <time>2009-01-05T12:28:52Z</time>
      </trkpt>
      <trkpt lat="27.92371300" lon="-15.5731750">
        <ele>894.53400</ele>
        <time>2009-01-05T12:28:53Z</time>
      </trkpt>
      <trkpt lat="27.92364100" lon="-15.5732140">
        <ele>894.43700</ele>
        <time>2009-01-05T12:28:54Z</time>
      </trkpt>
      <trkpt lat="27.92357400" lon="-15.5732570">
        <ele>894.39200</ele>
        <time>2009-01-05T12:28:55Z</time>
      </trkpt>
      <trkpt lat="27.92350400" lon="-15.5733040">
        <ele>894.88500</ele>
        <time>2009-01-05T12:28:56Z</time>
      </trkpt>
      <trkpt lat="27.92342500" lon="-15.5733450">
        <ele>893.45300</ele>
        <time>2009-01-05T12:28:57Z</time>
      </trkpt>
      <trkpt lat="27.92334400" lon="-15.5733890">
        <ele>892.47300</ele>
        <time>2009-01-05T12:28:58Z</time>
      </trkpt>
      <trkpt lat="27.92325900" lon="-15.5734310">
        <ele>890.96700</ele>
        <time>2009-01-05T12:28:59Z</time>
      </trkpt>
      <trkpt lat="27.92316900" lon="-15.5734650">
        <ele>890.42600</ele>
        <time>2009-01-05T12:29:00Z</time>
      </trkpt>
      <trkpt lat="27.92307500" lon="-15.5734990">
        <ele>889.77700</ele>
        <time>2009-01-05T12:29:01Z</time>
      </trkpt>
      <trkpt lat="27.92297900" lon="-15.5735310">
        <ele>888.57600</ele>
        <time>2009-01-05T12:29:02Z</time>
      </trkpt>
      <trkpt lat="27.92287800" lon="-15.5735570">
        <ele>887.49500</ele>
        <time>2009-01-05T12:29:03Z</time>
      </trkpt>
      <trkpt lat="27.92277000" lon="-15.5735750">
        <ele>886.39400</ele>
        <time>2009-01-05T12:29:04Z</time>
      </trkpt>
      <trkpt lat="27.92265500" lon="-15.5735820">
        <ele>885.72500</ele>
        <time>2009-01-05T12:29:05Z</time>
      </trkpt>
      <trkpt lat="27.92253500" lon="-15.5735720">
        <ele>884.53800</ele>
        <time>2009-01-05T12:29:06Z</time>
      </trkpt>
      <trkpt lat="27.92242300" lon="-15.5735510">
        <ele>884.70900</ele>
        <time>2009-01-05T12:29:07Z</time>
      </trkpt>
      <trkpt lat="27.92233800" lon="-15.5734890">
        <ele>885.53000</ele>
        <time>2009-01-05T12:29:08Z</time>
      </trkpt>
      <trkpt lat="27.92228600" lon="-15.5734030">
        <ele>886.73900</ele>
        <time>2009-01-05T12:29:09Z</time>
      </trkpt>
      <trkpt lat="27.92224300" lon="-15.5733230">
        <ele>887.12800</ele>
        <time>2009-01-05T12:29:10Z</time>
      </trkpt>
      <trkpt lat="27.92219700" lon="-15.5732300">
        <ele>887.94100</ele>
        <time>2009-01-05T12:29:11Z</time>
      </trkpt>
      <trkpt lat="27.92214500" lon="-15.5731560">
        <ele>888.72500</ele>
        <time>2009-01-05T12:29:12Z</time>
      </trkpt>
      <trkpt lat="27.92208400" lon="-15.5730990">
        <ele>889.14300</ele>
        <time>2009-01-05T12:29:13Z</time>
      </trkpt>
      <trkpt lat="27.92201800" lon="-15.5730580">
        <ele>889.66000</ele>
        <time>2009-01-05T12:29:14Z</time>
      </trkpt>
      <trkpt lat="27.92194900" lon="-15.5730280">
        <ele>890.00600</ele>
        <time>2009-01-05T12:29:15Z</time>
      </trkpt>
      <trkpt lat="27.92188100" lon="-15.5730060">
        <ele>890.56000</ele>
        <time>2009-01-05T12:29:16Z</time>
      </trkpt>
      <trkpt lat="27.92181200" lon="-15.5729980">
        <ele>891.72700</ele>
        <time>2009-01-05T12:29:17Z</time>
      </trkpt>
      <trkpt lat="27.92174400" lon="-15.5730080">
        <ele>891.80300</ele>
        <time>2009-01-05T12:29:18Z</time>
      </trkpt>
      <trkpt lat="27.92168100" lon="-15.5730350">
        <ele>892.24900</ele>
        <time>2009-01-05T12:29:19Z</time>
      </trkpt>
      <trkpt lat="27.92162400" lon="-15.5730750">
        <ele>892.46700</ele>
        <time>2009-01-05T12:29:20Z</time>
      </trkpt>
      <trkpt lat="27.92157200" lon="-15.5731190">
        <ele>892.72500</ele>
        <time>2009-01-05T12:29:21Z</time>
      </trkpt>
      <trkpt lat="27.92151600" lon="-15.5731600">
        <ele>893.04900</ele>
        <time>2009-01-05T12:29:22Z</time>
      </trkpt>
      <trkpt lat="27.92145900" lon="-15.5731910">
        <ele>893.69000</ele>
        <time>2009-01-05T12:29:23Z</time>
      </trkpt>
      <trkpt lat="27.92140000" lon="-15.5732080">
        <ele>894.33400</ele>
        <time>2009-01-05T12:29:24Z</time>
      </trkpt>
      <trkpt lat="27.92134200" lon="-15.5732130">
        <ele>895.17100</ele>
        <time>2009-01-05T12:29:25Z</time>
      </trkpt>
      <trkpt lat="27.92128900" lon="-15.5732060">
        <ele>895.48700</ele>
        <time>2009-01-05T12:29:26Z</time>
      </trkpt>
      <trkpt lat="27.92124000" lon="-15.5731950">
        <ele>895.86400</ele>
        <time>2009-01-05T12:29:27Z</time>
      </trkpt>
      <trkpt lat="27.92119300" lon="-15.5731790">
        <ele>896.44100</ele>
        <time>2009-01-05T12:29:28Z</time>
      </trkpt>
      <trkpt lat="27.92114700" lon="-15.5731640">
        <ele>896.97600</ele>
        <time>2009-01-05T12:29:29Z</time>
      </trkpt>
      <trkpt lat="27.92110200" lon="-15.5731520">
        <ele>896.97400</ele>
        <time>2009-01-05T12:29:30Z</time>
      </trkpt>
      <trkpt lat="27.92105600" lon="-15.5731460">
        <ele>897.91900</ele>
        <time>2009-01-05T12:29:31Z</time>
      </trkpt>
      <trkpt lat="27.92101200" lon="-15.5731440">
        <ele>897.87800</ele>
        <time>2009-01-05T12:29:32Z</time>
      </trkpt>
      <trkpt lat="27.92097200" lon="-15.5731460">
        <ele>898.18500</ele>
        <time>2009-01-05T12:29:33Z</time>
      </trkpt>
      <trkpt lat="27.92093500" lon="-15.5731470">
        <ele>898.16800</ele>
        <time>2009-01-05T12:29:34Z</time>
      </trkpt>
      <trkpt lat="27.92089800" lon="-15.5731480">
        <ele>898.40200</ele>
        <time>2009-01-05T12:29:35Z</time>
      </trkpt>
      <trkpt lat="27.92086100" lon="-15.5731470">
        <ele>898.36900</ele>
        <time>2009-01-05T12:29:36Z</time>
      </trkpt>
      <trkpt lat="27.92082500" lon="-15.5731470">
        <ele>898.78800</ele>
        <time>2009-01-05T12:29:37Z</time>
      </trkpt>
      <trkpt lat="27.92078900" lon="-15.5731450">
        <ele>898.71300</ele>
        <time>2009-01-05T12:29:38Z</time>
      </trkpt>
      <trkpt lat="27.92075400" lon="-15.5731440">
        <ele>899.13200</ele>
        <time>2009-01-05T12:29:39Z</time>
      </trkpt>
      <trkpt lat="27.92071800" lon="-15.5731430">
        <ele>899.51200</ele>
        <time>2009-01-05T12:29:40Z</time>
      </trkpt>
      <trkpt lat="27.92068200" lon="-15.5731410">
        <ele>899.66700</ele>
        <time>2009-01-05T12:29:41Z</time>
      </trkpt>
      <trkpt lat="27.92064600" lon="-15.5731350">
        <ele>900.13900</ele>
        <time>2009-01-05T12:29:42Z</time>
      </trkpt>
      <trkpt lat="27.92061000" lon="-15.5731260">
        <ele>900.33900</ele>
        <time>2009-01-05T12:29:43Z</time>
      </trkpt>
      <trkpt lat="27.92057500" lon="-15.5731160">
        <ele>900.78400</ele>
        <time>2009-01-05T12:29:44Z</time>
      </trkpt>
      <trkpt lat="27.92054000" lon="-15.5731050">
        <ele>901.09700</ele>
        <time>2009-01-05T12:29:45Z</time>
      </trkpt>
      <trkpt lat="27.92050600" lon="-15.5730910">
        <ele>901.40000</ele>
        <time>2009-01-05T12:29:46Z</time>
      </trkpt>
      <trkpt lat="27.92047400" lon="-15.5730760">
        <ele>901.48900</ele>
        <time>2009-01-05T12:29:47Z</time>
      </trkpt>
      <trkpt lat="27.92044300" lon="-15.5730630">
        <ele>901.93400</ele>
        <time>2009-01-05T12:29:48Z</time>
      </trkpt>
      <trkpt lat="27.92041300" lon="-15.5730520">
        <ele>902.13900</ele>
        <time>2009-01-05T12:29:49Z</time>
      </trkpt>
      <trkpt lat="27.92038400" lon="-15.5730400">
        <ele>902.18500</ele>
        <time>2009-01-05T12:29:50Z</time>
      </trkpt>
      <trkpt lat="27.92035600" lon="-15.5730260">
        <ele>902.63300</ele>
        <time>2009-01-05T12:29:51Z</time>
      </trkpt>
      <trkpt lat="27.92032700" lon="-15.5730120">
        <ele>902.89100</ele>
        <time>2009-01-05T12:29:52Z</time>
      </trkpt>
      <trkpt lat="27.92029900" lon="-15.5730000">
        <ele>903.00400</ele>
        <time>2009-01-05T12:29:53Z</time>
      </trkpt>
      <trkpt lat="27.92026900" lon="-15.5729860">
        <ele>903.39100</ele>
        <time>2009-01-05T12:29:54Z</time>
      </trkpt>
      <trkpt lat="27.92024000" lon="-15.5729710">
        <ele>903.71200</ele>
        <time>2009-01-05T12:29:55Z</time>
      </trkpt>
      <trkpt lat="27.92021300" lon="-15.5729550">
        <ele>903.94600</ele>
        <time>2009-01-05T12:29:56Z</time>
      </trkpt>
      <trkpt lat="27.92018600" lon="-15.5729330">
        <ele>904.18800</ele>
        <time>2009-01-05T12:29:57Z</time>
      </trkpt>
      <trkpt lat="27.92015900" lon="-15.5729130">
        <ele>904.27400</ele>
        <time>2009-01-05T12:29:58Z</time>
      </trkpt>
      <trkpt lat="27.92013200" lon="-15.5728930">
        <ele>904.31000</ele>
        <time>2009-01-05T12:29:59Z</time>
      </trkpt>
      <trkpt lat="27.92010300" lon="-15.5728740">
        <ele>904.67300</ele>
        <time>2009-01-05T12:30:00Z</time>
      </trkpt>
      <trkpt lat="27.92007200" lon="-15.5728560">
        <ele>905.12900</ele>
        <time>2009-01-05T12:30:01Z</time>
      </trkpt>
      <trkpt lat="27.92004100" lon="-15.5728420">
        <ele>905.41100</ele>
        <time>2009-01-05T12:30:02Z</time>
      </trkpt>
      <trkpt lat="27.92001000" lon="-15.5728350">
        <ele>906.17800</ele>
        <time>2009-01-05T12:30:03Z</time>
      </trkpt>
      <trkpt lat="27.91997900" lon="-15.5728280">
        <ele>906.00000</ele>
        <time>2009-01-05T12:30:04Z</time>
      </trkpt>
      <trkpt lat="27.91994600" lon="-15.5728220">
        <ele>906.79600</ele>
        <time>2009-01-05T12:30:05Z</time>
      </trkpt>
      <trkpt lat="27.91991200" lon="-15.5728190">
        <ele>906.85000</ele>
        <time>2009-01-05T12:30:06Z</time>
      </trkpt>
      <trkpt lat="27.91987800" lon="-15.5728190">
        <ele>907.23700</ele>
        <time>2009-01-05T12:30:07Z</time>
      </trkpt>
      <trkpt lat="27.91984400" lon="-15.5728210">
        <ele>907.95400</ele>
        <time>2009-01-05T12:30:08Z</time>
      </trkpt>
      <trkpt lat="27.91981000" lon="-15.5728200">
        <ele>907.75700</ele>
        <time>2009-01-05T12:30:09Z</time>
      </trkpt>
      <trkpt lat="27.91977600" lon="-15.5728120">
        <ele>907.95300</ele>
        <time>2009-01-05T12:30:10Z</time>
      </trkpt>
      <trkpt lat="27.91974400" lon="-15.5727920">
        <ele>907.92500</ele>
        <time>2009-01-05T12:30:11Z</time>
      </trkpt>
      <trkpt lat="27.91971500" lon="-15.5727680">
        <ele>908.58400</ele>
        <time>2009-01-05T12:30:12Z</time>
      </trkpt>
      <trkpt lat="27.91968900" lon="-15.5727400">
        <ele>908.47600</ele>
        <time>2009-01-05T12:30:13Z</time>
      </trkpt>
      <trkpt lat="27.91966400" lon="-15.5727110">
        <ele>908.67600</ele>
        <time>2009-01-05T12:30:14Z</time>
      </trkpt>
      <trkpt lat="27.91963700" lon="-15.5726840">
        <ele>908.87000</ele>
        <time>2009-01-05T12:30:15Z</time>
      </trkpt>
      <trkpt lat="27.91961000" lon="-15.5726560">
        <ele>908.88400</ele>
        <time>2009-01-05T12:30:16Z</time>
      </trkpt>
      <trkpt lat="27.91958200" lon="-15.5726310">
        <ele>909.21300</ele>
        <time>2009-01-05T12:30:17Z</time>
      </trkpt>
      <trkpt lat="27.91955100" lon="-15.5726090">
        <ele>909.81400</ele>
        <time>2009-01-05T12:30:18Z</time>
      </trkpt>
      <trkpt lat="27.91951800" lon="-15.5725900">
        <ele>909.78600</ele>
        <time>2009-01-05T12:30:19Z</time>
      </trkpt>
      <trkpt lat="27.91948400" lon="-15.5725770">
        <ele>910.01200</ele>
        <time>2009-01-05T12:30:20Z</time>
      </trkpt>
      <trkpt lat="27.91945000" lon="-15.5725680">
        <ele>910.31500</ele>
        <time>2009-01-05T12:30:21Z</time>
      </trkpt>
      <trkpt lat="27.91941400" lon="-15.5725640">
        <ele>910.72300</ele>
        <time>2009-01-05T12:30:22Z</time>
      </trkpt>
      <trkpt lat="27.91937900" lon="-15.5725610">
        <ele>910.87200</ele>
        <time>2009-01-05T12:30:23Z</time>
      </trkpt>
      <trkpt lat="27.91934300" lon="-15.5725620">
        <ele>911.19600</ele>
        <time>2009-01-05T12:30:24Z</time>
      </trkpt>
      <trkpt lat="27.91930700" lon="-15.5725650">
        <ele>911.52500</ele>
        <time>2009-01-05T12:30:25Z</time>
      </trkpt>
      <trkpt lat="27.91927200" lon="-15.5725710">
        <ele>911.76700</ele>
        <time>2009-01-05T12:30:26Z</time>
      </trkpt>
      <trkpt lat="27.91923800" lon="-15.5725820">
        <ele>912.82800</ele>
        <time>2009-01-05T12:30:27Z</time>
      </trkpt>
      <trkpt lat="27.91920500" lon="-15.5725960">
        <ele>912.77900</ele>
        <time>2009-01-05T12:30:28Z</time>
      </trkpt>
      <trkpt lat="27.91917400" lon="-15.5726120">
        <ele>912.70600</ele>
        <time>2009-01-05T12:30:29Z</time>
      </trkpt>
      <trkpt lat="27.91914300" lon="-15.5726290">
        <ele>912.67200</ele>
        <time>2009-01-05T12:30:30Z</time>
      </trkpt>
      <trkpt lat="27.91911200" lon="-15.5726460">
        <ele>912.54900</ele>
        <time>2009-01-05T12:30:31Z</time>
      </trkpt>
      <trkpt lat="27.91907900" lon="-15.5726610">
        <ele>913.47200</ele>
        <time>2009-01-05T12:30:32Z</time>
      </trkpt>
      <trkpt lat="27.91904500" lon="-15.5726730">
        <ele>913.31200</ele>
        <time>2009-01-05T12:30:33Z</time>
      </trkpt>
      <trkpt lat="27.91901300" lon="-15.5726860">
        <ele>913.72600</ele>
        <time>2009-01-05T12:30:34Z</time>
      </trkpt>
      <trkpt lat="27.91897900" lon="-15.5726960">
        <ele>913.86200</ele>
        <time>2009-01-05T12:30:35Z</time>
      </trkpt>
      <trkpt lat="27.91894500" lon="-15.5727000">
        <ele>914.26000</ele>
        <time>2009-01-05T12:30:36Z</time>
      </trkpt>
      <trkpt lat="27.91890900" lon="-15.5726970">
        <ele>914.39100</ele>
        <time>2009-01-05T12:30:37Z</time>
      </trkpt>
      <trkpt lat="27.91887200" lon="-15.5726890">
        <ele>914.49100</ele>
        <time>2009-01-05T12:30:38Z</time>
      </trkpt>
      <trkpt lat="27.91883500" lon="-15.5726780">
        <ele>915.05500</ele>
        <time>2009-01-05T12:30:39Z</time>
      </trkpt>
      <trkpt lat="27.91879900" lon="-15.5726630">
        <ele>914.73700</ele>
        <time>2009-01-05T12:30:40Z</time>
      </trkpt>
      <trkpt lat="27.91876500" lon="-15.5726460">
        <ele>915.21700</ele>
        <time>2009-01-05T12:30:41Z</time>
      </trkpt>
      <trkpt lat="27.91873200" lon="-15.5726300">
        <ele>915.28000</ele>
        <time>2009-01-05T12:30:42Z</time>
      </trkpt>
      <trkpt lat="27.91869800" lon="-15.5726160">
        <ele>915.55500</ele>
        <time>2009-01-05T12:30:43Z</time>
      </trkpt>
      <trkpt lat="27.91866400" lon="-15.5726010">
        <ele>915.77600</ele>
        <time>2009-01-05T12:30:44Z</time>
      </trkpt>
      <trkpt lat="27.91863100" lon="-15.5725860">
        <ele>915.93900</ele>
        <time>2009-01-05T12:30:45Z</time>
      </trkpt>
      <trkpt lat="27.91859900" lon="-15.5725710">
        <ele>916.35500</ele>
        <time>2009-01-05T12:30:46Z</time>
      </trkpt>
      <trkpt lat="27.91856600" lon="-15.5725570">
        <ele>916.50500</ele>
        <time>2009-01-05T12:30:47Z</time>
      </trkpt>
      <trkpt lat="27.91853400" lon="-15.5725410">
        <ele>916.77600</ele>
        <time>2009-01-05T12:30:48Z</time>
      </trkpt>
      <trkpt lat="27.91850200" lon="-15.5725260">
        <ele>916.90200</ele>
        <time>2009-01-05T12:30:49Z</time>
      </trkpt>
      <trkpt lat="27.91847100" lon="-15.5725140">
        <ele>917.02200</ele>
        <time>2009-01-05T12:30:50Z</time>
      </trkpt>
      <trkpt lat="27.91844000" lon="-15.5725030">
        <ele>917.52800</ele>
        <time>2009-01-05T12:30:51Z</time>
      </trkpt>
      <trkpt lat="27.91841000" lon="-15.5724920">
        <ele>917.65400</ele>
        <time>2009-01-05T12:30:52Z</time>
      </trkpt>
      <trkpt lat="27.91838000" lon="-15.5724830">
        <ele>917.81600</ele>
        <time>2009-01-05T12:30:53Z</time>
      </trkpt>
      <trkpt lat="27.91835100" lon="-15.5724740">
        <ele>918.05000</ele>
        <time>2009-01-05T12:30:54Z</time>
      </trkpt>
      <trkpt lat="27.91832100" lon="-15.5724660">
        <ele>918.20200</ele>
        <time>2009-01-05T12:30:55Z</time>
      </trkpt>
      <trkpt lat="27.91829300" lon="-15.5724590">
        <ele>918.79800</ele>
        <time>2009-01-05T12:30:56Z</time>
      </trkpt>
      <trkpt lat="27.91826400" lon="-15.5724530">
        <ele>919.19400</ele>
        <time>2009-01-05T12:30:57Z</time>
      </trkpt>
      <trkpt lat="27.91823700" lon="-15.5724480">
        <ele>919.57300</ele>
        <time>2009-01-05T12:30:58Z</time>
      </trkpt>
      <trkpt lat="27.91820900" lon="-15.5724440">
        <ele>919.54200</ele>
        <time>2009-01-05T12:30:59Z</time>
      </trkpt>
      <trkpt lat="27.91818000" lon="-15.5724420">
        <ele>919.80500</ele>
        <time>2009-01-05T12:31:00Z</time>
      </trkpt>
      <trkpt lat="27.91815000" lon="-15.5724410">
        <ele>920.17400</ele>
        <time>2009-01-05T12:31:01Z</time>
      </trkpt>
      <trkpt lat="27.91812000" lon="-15.5724400">
        <ele>920.33400</ele>
        <time>2009-01-05T12:31:02Z</time>
      </trkpt>
      <trkpt lat="27.91809200" lon="-15.5724460">
        <ele>920.81300</ele>
        <time>2009-01-05T12:31:03Z</time>
      </trkpt>
      <trkpt lat="27.91806500" lon="-15.5724580">
        <ele>920.94200</ele>
        <time>2009-01-05T12:31:04Z</time>
      </trkpt>
      <trkpt lat="27.91803900" lon="-15.5724740">
        <ele>921.34200</ele>
        <time>2009-01-05T12:31:05Z</time>
      </trkpt>
      <trkpt lat="27.91801500" lon="-15.5724940">
        <ele>921.45400</ele>
        <time>2009-01-05T12:31:06Z</time>
      </trkpt>
      <trkpt lat="27.91799100" lon="-15.5725130">
        <ele>921.76700</ele>
        <time>2009-01-05T12:31:07Z</time>
      </trkpt>
      <trkpt lat="27.91796700" lon="-15.5725310">
        <ele>922.29900</ele>
        <time>2009-01-05T12:31:08Z</time>
      </trkpt>
      <trkpt lat="27.91794300" lon="-15.5725500">
        <ele>922.39800</ele>
        <time>2009-01-05T12:31:09Z</time>
      </trkpt>
      <trkpt lat="27.91792000" lon="-15.5725700">
        <ele>922.30600</ele>
        <time>2009-01-05T12:31:10Z</time>
      </trkpt>
      <trkpt lat="27.91789600" lon="-15.5725900">
        <ele>922.91500</ele>
        <time>2009-01-05T12:31:11Z</time>
      </trkpt>
      <trkpt lat="27.91787300" lon="-15.5726100">
        <ele>923.10600</ele>
        <time>2009-01-05T12:31:12Z</time>
      </trkpt>
      <trkpt lat="27.91785100" lon="-15.5726320">
        <ele>923.47200</ele>
        <time>2009-01-05T12:31:13Z</time>
      </trkpt>
      <trkpt lat="27.91783100" lon="-15.5726560">
        <ele>923.55500</ele>
        <time>2009-01-05T12:31:14Z</time>
      </trkpt>
      <trkpt lat="27.91781000" lon="-15.5726780">
        <ele>924.13400</ele>
        <time>2009-01-05T12:31:15Z</time>
      </trkpt>
      <trkpt lat="27.91778800" lon="-15.5727000">
        <ele>924.61700</ele>
        <time>2009-01-05T12:31:16Z</time>
      </trkpt>
      <trkpt lat="27.91776900" lon="-15.5727260">
        <ele>924.72300</ele>
        <time>2009-01-05T12:31:17Z</time>
      </trkpt>
      <trkpt lat="27.91775100" lon="-15.5727530">
        <ele>925.12600</ele>
        <time>2009-01-05T12:31:18Z</time>
      </trkpt>
      <trkpt lat="27.91773500" lon="-15.5727820">
        <ele>925.06100</ele>
        <time>2009-01-05T12:31:19Z</time>
      </trkpt>
      <trkpt lat="27.91772000" lon="-15.5728140">
        <ele>925.42600</ele>
        <time>2009-01-05T12:31:20Z</time>
      </trkpt>
      <trkpt lat="27.91770700" lon="-15.5728470">
        <ele>925.74700</ele>
        <time>2009-01-05T12:31:21Z</time>
      </trkpt>
      <trkpt lat="27.91769700" lon="-15.5728800">
        <ele>926.03000</ele>
        <time>2009-01-05T12:31:22Z</time>
      </trkpt>
      <trkpt lat="27.91768900" lon="-15.5729140">
        <ele>926.23200</ele>
        <time>2009-01-05T12:31:23Z</time>
      </trkpt>
      <trkpt lat="27.91768500" lon="-15.5729480">
        <ele>926.52900</ele>
        <time>2009-01-05T12:31:24Z</time>
      </trkpt>
      <trkpt lat="27.91768200" lon="-15.5729820">
        <ele>926.72000</ele>
        <time>2009-01-05T12:31:25Z</time>
      </trkpt>
      <trkpt lat="27.91768100" lon="-15.5730150">
        <ele>926.92900</ele>
        <time>2009-01-05T12:31:26Z</time>
      </trkpt>
      <trkpt lat="27.91768100" lon="-15.5730480">
        <ele>927.28100</ele>
        <time>2009-01-05T12:31:27Z</time>
      </trkpt>
      <trkpt lat="27.91768000" lon="-15.5730810">
        <ele>927.43000</ele>
        <time>2009-01-05T12:31:28Z</time>
      </trkpt>
      <trkpt lat="27.91767500" lon="-15.5731130">
        <ele>927.67600</ele>
        <time>2009-01-05T12:31:29Z</time>
      </trkpt>
      <trkpt lat="27.91766500" lon="-15.5731480">
        <ele>927.85800</ele>
        <time>2009-01-05T12:31:30Z</time>
      </trkpt>
      <trkpt lat="27.91765600" lon="-15.5731810">
        <ele>928.26500</ele>
        <time>2009-01-05T12:31:31Z</time>
      </trkpt>
      <trkpt lat="27.91764400" lon="-15.5732140">
        <ele>928.71800</ele>
        <time>2009-01-05T12:31:32Z</time>
      </trkpt>
      <trkpt lat="27.91763000" lon="-15.5732460">
        <ele>928.85300</ele>
        <time>2009-01-05T12:31:33Z</time>
      </trkpt>
      <trkpt lat="27.91760900" lon="-15.5732760">
        <ele>929.20800</ele>
        <time>2009-01-05T12:31:34Z</time>
      </trkpt>
      <trkpt lat="27.91758600" lon="-15.5733030">
        <ele>929.45600</ele>
        <time>2009-01-05T12:31:35Z</time>
      </trkpt>
      <trkpt lat="27.91755600" lon="-15.5733250">
        <ele>929.88200</ele>
        <time>2009-01-05T12:31:36Z</time>
      </trkpt>
      <trkpt lat="27.91752400" lon="-15.5733380">
        <ele>930.62200</ele>
        <time>2009-01-05T12:31:37Z</time>
      </trkpt>
      <trkpt lat="27.91749500" lon="-15.5733460">
        <ele>930.78700</ele>
        <time>2009-01-05T12:31:38Z</time>
      </trkpt>
      <trkpt lat="27.91746600" lon="-15.5733470">
        <ele>930.70100</ele>
        <time>2009-01-05T12:31:39Z</time>
      </trkpt>
      <trkpt lat="27.91743800" lon="-15.5733450">
        <ele>931.31300</ele>
        <time>2009-01-05T12:31:40Z</time>
      </trkpt>
      <trkpt lat="27.91741100" lon="-15.5733410">
        <ele>931.69800</ele>
        <time>2009-01-05T12:31:41Z</time>
      </trkpt>
      <trkpt lat="27.91738300" lon="-15.5733350">
        <ele>931.77100</ele>
        <time>2009-01-05T12:31:42Z</time>
      </trkpt>
      <trkpt lat="27.91735500" lon="-15.5733270">
        <ele>932.21300</ele>
        <time>2009-01-05T12:31:43Z</time>
      </trkpt>
      <trkpt lat="27.91732900" lon="-15.5733190">
        <ele>932.29900</ele>
        <time>2009-01-05T12:31:44Z</time>
      </trkpt>
      <trkpt lat="27.91730200" lon="-15.5733100">
        <ele>932.72600</ele>
        <time>2009-01-05T12:31:45Z</time>
      </trkpt>
      <trkpt lat="27.91727500" lon="-15.5733000">
        <ele>933.02100</ele>
        <time>2009-01-05T12:31:46Z</time>
      </trkpt>
      <trkpt lat="27.91724800" lon="-15.5732920">
        <ele>933.59100</ele>
        <time>2009-01-05T12:31:47Z</time>
      </trkpt>
      <trkpt lat="27.91722000" lon="-15.5732840">
        <ele>933.57100</ele>
        <time>2009-01-05T12:31:48Z</time>
      </trkpt>
      <trkpt lat="27.91719100" lon="-15.5732790">
        <ele>933.80000</ele>
        <time>2009-01-05T12:31:49Z</time>
      </trkpt>
      <trkpt lat="27.91716300" lon="-15.5732750">
        <ele>933.92300</ele>
        <time>2009-01-05T12:31:50Z</time>
      </trkpt>
      <trkpt lat="27.91713500" lon="-15.5732740">
        <ele>934.63000</ele>
        <time>2009-01-05T12:31:51Z</time>
      </trkpt>
      <trkpt lat="27.91710700" lon="-15.5732760">
        <ele>934.59000</ele>
        <time>2009-01-05T12:31:52Z</time>
      </trkpt>
      <trkpt lat="27.91708000" lon="-15.5732780">
        <ele>935.09100</ele>
        <time>2009-01-05T12:31:53Z</time>
      </trkpt>
      <trkpt lat="27.91705300" lon="-15.5732820">
        <ele>935.17500</ele>
        <time>2009-01-05T12:31:54Z</time>
      </trkpt>
      <trkpt lat="27.91702600" lon="-15.5732870">
        <ele>935.35200</ele>
        <time>2009-01-05T12:31:55Z</time>
      </trkpt>
      <trkpt lat="27.91699900" lon="-15.5732940">
        <ele>936.12200</ele>
        <time>2009-01-05T12:31:56Z</time>
      </trkpt>
      <trkpt lat="27.91697200" lon="-15.5733040">
        <ele>936.51800</ele>
        <time>2009-01-05T12:31:57Z</time>
      </trkpt>
      <trkpt lat="27.91694200" lon="-15.5733180">
        <ele>937.03000</ele>
        <time>2009-01-05T12:31:58Z</time>
      </trkpt>
      <trkpt lat="27.91691400" lon="-15.5733320">
        <ele>937.08700</ele>
        <time>2009-01-05T12:31:59Z</time>
      </trkpt>
      <trkpt lat="27.91688600" lon="-15.5733460">
        <ele>937.25300</ele>
        <time>2009-01-05T12:32:00Z</time>
      </trkpt>
      <trkpt lat="27.91686200" lon="-15.5733600">
        <ele>937.49800</ele>
        <time>2009-01-05T12:32:01Z</time>
      </trkpt>
      <trkpt lat="27.91683500" lon="-15.5733730">
        <ele>938.02600</ele>
        <time>2009-01-05T12:32:02Z</time>
      </trkpt>
      <trkpt lat="27.91680900" lon="-15.5733850">
        <ele>938.27200</ele>
        <time>2009-01-05T12:32:03Z</time>
      </trkpt>
      <trkpt lat="27.91678100" lon="-15.5733960">
        <ele>938.68100</ele>
        <time>2009-01-05T12:32:04Z</time>
      </trkpt>
      <trkpt lat="27.91675200" lon="-15.5734060">
        <ele>938.69600</ele>
        <time>2009-01-05T12:32:05Z</time>
      </trkpt>
      <trkpt lat="27.91672100" lon="-15.5734150">
        <ele>939.27700</ele>
        <time>2009-01-05T12:32:06Z</time>
      </trkpt>
      <trkpt lat="27.91669200" lon="-15.5734240">
        <ele>939.23700</ele>
        <time>2009-01-05T12:32:07Z</time>
      </trkpt>
      <trkpt lat="27.91666200" lon="-15.5734330">
        <ele>939.79400</ele>
        <time>2009-01-05T12:32:08Z</time>
      </trkpt>
      <trkpt lat="27.91663300" lon="-15.5734440">
        <ele>940.07600</ele>
        <time>2009-01-05T12:32:09Z</time>
      </trkpt>
      <trkpt lat="27.91660300" lon="-15.5734560">
        <ele>940.25500</ele>
        <time>2009-01-05T12:32:10Z</time>
      </trkpt>
      <trkpt lat="27.91657100" lon="-15.5734670">
        <ele>940.47400</ele>
        <time>2009-01-05T12:32:11Z</time>
      </trkpt>
      <trkpt lat="27.91653700" lon="-15.5734770">
        <ele>940.82000</ele>
        <time>2009-01-05T12:32:12Z</time>
      </trkpt>
      <trkpt lat="27.91650400" lon="-15.5734880">
        <ele>940.88000</ele>
        <time>2009-01-05T12:32:13Z</time>
      </trkpt>
      <trkpt lat="27.91647100" lon="-15.5734990">
        <ele>941.31100</ele>
        <time>2009-01-05T12:32:14Z</time>
      </trkpt>
      <trkpt lat="27.91643700" lon="-15.5735070">
        <ele>941.69500</ele>
        <time>2009-01-05T12:32:15Z</time>
      </trkpt>
      <trkpt lat="27.91640400" lon="-15.5735170">
        <ele>941.75200</ele>
        <time>2009-01-05T12:32:16Z</time>
      </trkpt>
      <trkpt lat="27.91636900" lon="-15.5735240">
        <ele>942.24000</ele>
        <time>2009-01-05T12:32:17Z</time>
      </trkpt>
      <trkpt lat="27.91633500" lon="-15.5735270">
        <ele>942.36000</ele>
        <time>2009-01-05T12:32:18Z</time>
      </trkpt>
      <trkpt lat="27.91630200" lon="-15.5735300">
        <ele>942.74300</ele>
        <time>2009-01-05T12:32:19Z</time>
      </trkpt>
      <trkpt lat="27.91626800" lon="-15.5735310">
        <ele>942.84900</ele>
        <time>2009-01-05T12:32:20Z</time>
      </trkpt>
      <trkpt lat="27.91623500" lon="-15.5735280">
        <ele>942.91700</ele>
        <time>2009-01-05T12:32:21Z</time>
      </trkpt>
      <trkpt lat="27.91620500" lon="-15.5735260">
        <ele>943.53500</ele>
        <time>2009-01-05T12:32:22Z</time>
      </trkpt>
      <trkpt lat="27.91617600" lon="-15.5735220">
        <ele>943.53700</ele>
        <time>2009-01-05T12:32:23Z</time>
      </trkpt>
      <trkpt lat="27.91614600" lon="-15.5735200">
        <ele>943.67100</ele>
        <time>2009-01-05T12:32:24Z</time>
      </trkpt>
      <trkpt lat="27.91611300" lon="-15.5735170">
        <ele>944.07000</ele>
        <time>2009-01-05T12:32:25Z</time>
      </trkpt>
      <trkpt lat="27.91607800" lon="-15.5735170">
        <ele>944.12300</ele>
        <time>2009-01-05T12:32:26Z</time>
      </trkpt>
      <trkpt lat="27.91604200" lon="-15.5735200">
        <ele>944.39200</ele>
        <time>2009-01-05T12:32:27Z</time>
      </trkpt>
      <trkpt lat="27.91600900" lon="-15.5735230">
        <ele>944.15600</ele>
        <time>2009-01-05T12:32:28Z</time>
      </trkpt>
      <trkpt lat="27.91597600" lon="-15.5735240">
        <ele>944.94300</ele>
        <time>2009-01-05T12:32:29Z</time>
      </trkpt>
      <trkpt lat="27.91594300" lon="-15.5735250">
        <ele>945.45000</ele>
        <time>2009-01-05T12:32:30Z</time>
      </trkpt>
      <trkpt lat="27.91590700" lon="-15.5735270">
        <ele>945.74800</ele>
        <time>2009-01-05T12:32:31Z</time>
      </trkpt>
      <trkpt lat="27.91587100" lon="-15.5735250">
        <ele>946.18800</ele>
        <time>2009-01-05T12:32:32Z</time>
      </trkpt>
      <trkpt lat="27.91583500" lon="-15.5735240">
        <ele>946.27700</ele>
        <time>2009-01-05T12:32:33Z</time>
      </trkpt>
      <trkpt lat="27.91580000" lon="-15.5735280">
        <ele>946.25200</ele>
        <time>2009-01-05T12:32:34Z</time>
      </trkpt>
      <trkpt lat="27.91576300" lon="-15.5735350">
        <ele>946.71900</ele>
        <time>2009-01-05T12:32:35Z</time>
      </trkpt>
      <trkpt lat="27.91572900" lon="-15.5735430">
        <ele>946.91900</ele>
        <time>2009-01-05T12:32:36Z</time>
      </trkpt>
      <trkpt lat="27.91569400" lon="-15.5735530">
        <ele>947.02400</ele>
        <time>2009-01-05T12:32:37Z</time>
      </trkpt>
      <trkpt lat="27.91566000" lon="-15.5735670">
        <ele>947.26700</ele>
        <time>2009-01-05T12:32:38Z</time>
      </trkpt>
      <trkpt lat="27.91562600" lon="-15.5735840">
        <ele>947.29500</ele>
        <time>2009-01-05T12:32:39Z</time>
      </trkpt>
      <trkpt lat="27.91559500" lon="-15.5736070">
        <ele>947.64900</ele>
        <time>2009-01-05T12:32:40Z</time>
      </trkpt>
      <trkpt lat="27.91556900" lon="-15.5736350">
        <ele>947.89100</ele>
        <time>2009-01-05T12:32:41Z</time>
      </trkpt>
      <trkpt lat="27.91554700" lon="-15.5736720">
        <ele>948.21300</ele>
        <time>2009-01-05T12:32:42Z</time>
      </trkpt>
      <trkpt lat="27.91553200" lon="-15.5737160">
        <ele>948.17300</ele>
        <time>2009-01-05T12:32:43Z</time>
      </trkpt>
      <trkpt lat="27.91552300" lon="-15.5737650">
        <ele>948.01900</ele>
        <time>2009-01-05T12:32:44Z</time>
      </trkpt>
      <trkpt lat="27.91552400" lon="-15.5738160">
        <ele>947.86000</ele>
        <time>2009-01-05T12:32:45Z</time>
      </trkpt>
      <trkpt lat="27.91553400" lon="-15.5738700">
        <ele>947.72700</ele>
        <time>2009-01-05T12:32:46Z</time>
      </trkpt>
      <trkpt lat="27.91555800" lon="-15.5739210">
        <ele>947.45700</ele>
        <time>2009-01-05T12:32:47Z</time>
      </trkpt>
      <trkpt lat="27.91559300" lon="-15.5739670">
        <ele>947.39800</ele>
        <time>2009-01-05T12:32:48Z</time>
      </trkpt>
      <trkpt lat="27.91563500" lon="-15.5740110">
        <ele>947.23000</ele>
        <time>2009-01-05T12:32:49Z</time>
      </trkpt>
      <trkpt lat="27.91568400" lon="-15.5740510">
        <ele>947.02600</ele>
        <time>2009-01-05T12:32:50Z</time>
      </trkpt>
      <trkpt lat="27.91573500" lon="-15.5740940">
        <ele>947.04000</ele>
        <time>2009-01-05T12:32:51Z</time>
      </trkpt>
      <trkpt lat="27.91578500" lon="-15.5741390">
        <ele>946.37500</ele>
        <time>2009-01-05T12:32:52Z</time>
      </trkpt>
      <trkpt lat="27.91583400" lon="-15.5741890">
        <ele>946.30200</ele>
        <time>2009-01-05T12:32:53Z</time>
      </trkpt>
      <trkpt lat="27.91587400" lon="-15.5742480">
        <ele>946.30300</ele>
        <time>2009-01-05T12:32:54Z</time>
      </trkpt>
      <trkpt lat="27.91590200" lon="-15.5743180">
        <ele>946.25100</ele>
        <time>2009-01-05T12:32:55Z</time>
      </trkpt>
      <trkpt lat="27.91591300" lon="-15.5743940">
        <ele>946.05100</ele>
        <time>2009-01-05T12:32:56Z</time>
      </trkpt>
      <trkpt lat="27.91590000" lon="-15.5744720">
        <ele>945.84500</ele>
        <time>2009-01-05T12:32:57Z</time>
      </trkpt>
      <trkpt lat="27.91586700" lon="-15.5745450">
        <ele>945.55000</ele>
        <time>2009-01-05T12:32:58Z</time>
      </trkpt>
      <trkpt lat="27.91581800" lon="-15.5746060">
        <ele>945.89900</ele>
        <time>2009-01-05T12:32:59Z</time>
      </trkpt>
      <trkpt lat="27.91575900" lon="-15.5746580">
        <ele>945.42300</ele>
        <time>2009-01-05T12:33:00Z</time>
      </trkpt>
      <trkpt lat="27.91569500" lon="-15.5747050">
        <ele>945.35700</ele>
        <time>2009-01-05T12:33:01Z</time>
      </trkpt>
      <trkpt lat="27.91562900" lon="-15.5747490">
        <ele>945.05200</ele>
        <time>2009-01-05T12:33:02Z</time>
      </trkpt>
      <trkpt lat="27.91556100" lon="-15.5747930">
        <ele>944.68500</ele>
        <time>2009-01-05T12:33:03Z</time>
      </trkpt>
      <trkpt lat="27.91548900" lon="-15.5748370">
        <ele>943.83300</ele>
        <time>2009-01-05T12:33:04Z</time>
      </trkpt>
      <trkpt lat="27.91541300" lon="-15.5748740">
        <ele>943.50200</ele>
        <time>2009-01-05T12:33:05Z</time>
      </trkpt>
      <trkpt lat="27.91533300" lon="-15.5748970">
        <ele>943.13500</ele>
        <time>2009-01-05T12:33:06Z</time>
      </trkpt>
      <trkpt lat="27.91525300" lon="-15.5748980">
        <ele>943.02100</ele>
        <time>2009-01-05T12:33:07Z</time>
      </trkpt>
      <trkpt lat="27.91517500" lon="-15.5748760">
        <ele>942.75400</ele>
        <time>2009-01-05T12:33:08Z</time>
      </trkpt>
      <trkpt lat="27.91510000" lon="-15.5748390">
        <ele>942.74400</ele>
        <time>2009-01-05T12:33:09Z</time>
      </trkpt>
      <trkpt lat="27.91502700" lon="-15.5747930">
        <ele>943.32600</ele>
        <time>2009-01-05T12:33:10Z</time>
      </trkpt>
      <trkpt lat="27.91495500" lon="-15.5747430">
        <ele>942.76800</ele>
        <time>2009-01-05T12:33:11Z</time>
      </trkpt>
      <trkpt lat="27.91488300" lon="-15.5746900">
        <ele>941.61600</ele>
        <time>2009-01-05T12:33:12Z</time>
      </trkpt>
      <trkpt lat="27.91481000" lon="-15.5746340">
        <ele>941.77100</ele>
        <time>2009-01-05T12:33:13Z</time>
      </trkpt>
      <trkpt lat="27.91473700" lon="-15.5745770">
        <ele>941.78700</ele>
        <time>2009-01-05T12:33:14Z</time>
      </trkpt>
      <trkpt lat="27.91466200" lon="-15.5745220">
        <ele>941.63400</ele>
        <time>2009-01-05T12:33:15Z</time>
      </trkpt>
      <trkpt lat="27.91458700" lon="-15.5744660">
        <ele>941.50900</ele>
        <time>2009-01-05T12:33:16Z</time>
      </trkpt>
      <trkpt lat="27.91451200" lon="-15.5744100">
        <ele>940.70300</ele>
        <time>2009-01-05T12:33:17Z</time>
      </trkpt>
      <trkpt lat="27.91443700" lon="-15.5743550">
        <ele>940.71400</ele>
        <time>2009-01-05T12:33:18Z</time>
      </trkpt>
      <trkpt lat="27.91436000" lon="-15.5742990">
        <ele>940.79600</ele>
        <time>2009-01-05T12:33:19Z</time>
      </trkpt>
      <trkpt lat="27.91428200" lon="-15.5742410">
        <ele>940.40800</ele>
        <time>2009-01-05T12:33:20Z</time>
      </trkpt>
      <trkpt lat="27.91420800" lon="-15.5741780">
        <ele>939.87100</ele>
        <time>2009-01-05T12:33:21Z</time>
      </trkpt>
      <trkpt lat="27.91413700" lon="-15.5741110">
        <ele>939.31100</ele>
        <time>2009-01-05T12:33:22Z</time>
      </trkpt>
      <trkpt lat="27.91407100" lon="-15.5740420">
        <ele>938.84900</ele>
        <time>2009-01-05T12:33:23Z</time>
      </trkpt>
      <trkpt lat="27.91400500" lon="-15.5739710">
        <ele>938.95500</ele>
        <time>2009-01-05T12:33:24Z</time>
      </trkpt>
      <trkpt lat="27.91393600" lon="-15.5738970">
        <ele>938.79400</ele>
        <time>2009-01-05T12:33:25Z</time>
      </trkpt>
      <trkpt lat="27.91386400" lon="-15.5738220">
        <ele>938.50700</ele>
        <time>2009-01-05T12:33:26Z</time>
      </trkpt>
      <trkpt lat="27.91378700" lon="-15.5737470">
        <ele>937.67200</ele>
        <time>2009-01-05T12:33:27Z</time>
      </trkpt>
      <trkpt lat="27.91370600" lon="-15.5736740">
        <ele>937.51300</ele>
        <time>2009-01-05T12:33:28Z</time>
      </trkpt>
      <trkpt lat="27.91362300" lon="-15.5736000">
        <ele>936.71500</ele>
        <time>2009-01-05T12:33:29Z</time>
      </trkpt>
      <trkpt lat="27.91353700" lon="-15.5735240">
        <ele>935.22900</ele>
        <time>2009-01-05T12:33:30Z</time>
      </trkpt>
      <trkpt lat="27.91345200" lon="-15.5734430">
        <ele>934.81400</ele>
        <time>2009-01-05T12:33:31Z</time>
      </trkpt>
      <trkpt lat="27.91336500" lon="-15.5733580">
        <ele>933.66200</ele>
        <time>2009-01-05T12:33:32Z</time>
      </trkpt>
      <trkpt lat="27.91327600" lon="-15.5732710">
        <ele>932.62300</ele>
        <time>2009-01-05T12:33:33Z</time>
      </trkpt>
      <trkpt lat="27.91318400" lon="-15.5731840">
        <ele>931.26400</ele>
        <time>2009-01-05T12:33:34Z</time>
      </trkpt>
      <trkpt lat="27.91309300" lon="-15.5730970">
        <ele>931.29300</ele>
        <time>2009-01-05T12:33:35Z</time>
      </trkpt>
      <trkpt lat="27.91300700" lon="-15.5730130">
        <ele>931.46200</ele>
        <time>2009-01-05T12:33:36Z</time>
      </trkpt>
      <trkpt lat="27.91292400" lon="-15.5729320">
        <ele>931.71200</ele>
        <time>2009-01-05T12:33:37Z</time>
      </trkpt>
      <trkpt lat="27.91284400" lon="-15.5728560">
        <ele>932.38000</ele>
        <time>2009-01-05T12:33:38Z</time>
      </trkpt>
      <trkpt lat="27.91276600" lon="-15.5727860">
        <ele>933.38800</ele>
        <time>2009-01-05T12:33:39Z</time>
      </trkpt>
      <trkpt lat="27.91268800" lon="-15.5727220">
        <ele>933.05400</ele>
        <time>2009-01-05T12:33:40Z</time>
      </trkpt>
      <trkpt lat="27.91261000" lon="-15.5726670">
        <ele>933.04700</ele>
        <time>2009-01-05T12:33:41Z</time>
      </trkpt>
      <trkpt lat="27.91253400" lon="-15.5726170">
        <ele>933.43000</ele>
        <time>2009-01-05T12:33:42Z</time>
      </trkpt>
      <trkpt lat="27.91246000" lon="-15.5725670">
        <ele>933.33100</ele>
        <time>2009-01-05T12:33:43Z</time>
      </trkpt>
      <trkpt lat="27.91238900" lon="-15.5725170">
        <ele>933.65500</ele>
        <time>2009-01-05T12:33:44Z</time>
      </trkpt>
      <trkpt lat="27.91231900" lon="-15.5724650">
        <ele>933.77600</ele>
        <time>2009-01-05T12:33:45Z</time>
      </trkpt>
      <trkpt lat="27.91225100" lon="-15.5724120">
        <ele>934.39600</ele>
        <time>2009-01-05T12:33:46Z</time>
      </trkpt>
      <trkpt lat="27.91218400" lon="-15.5723530">
        <ele>933.15600</ele>
        <time>2009-01-05T12:33:47Z</time>
      </trkpt>
      <trkpt lat="27.91211700" lon="-15.5722910">
        <ele>932.24000</ele>
        <time>2009-01-05T12:33:48Z</time>
      </trkpt>
      <trkpt lat="27.91205100" lon="-15.5722280">
        <ele>931.85600</ele>
        <time>2009-01-05T12:33:49Z</time>
      </trkpt>
      <trkpt lat="27.91198600" lon="-15.5721620">
        <ele>931.63000</ele>
        <time>2009-01-05T12:33:50Z</time>
      </trkpt>
      <trkpt lat="27.91192200" lon="-15.5720960">
        <ele>931.35200</ele>
        <time>2009-01-05T12:33:51Z</time>
      </trkpt>
      <trkpt lat="27.91185500" lon="-15.5720300">
        <ele>931.89800</ele>
        <time>2009-01-05T12:33:52Z</time>
      </trkpt>
      <trkpt lat="27.91178500" lon="-15.5719660">
        <ele>932.10300</ele>
        <time>2009-01-05T12:33:53Z</time>
      </trkpt>
      <trkpt lat="27.91171100" lon="-15.5719070">
        <ele>931.72700</ele>
        <time>2009-01-05T12:33:54Z</time>
      </trkpt>
      <trkpt lat="27.91163600" lon="-15.5718490">
        <ele>930.41700</ele>
        <time>2009-01-05T12:33:55Z</time>
      </trkpt>
      <trkpt lat="27.91156100" lon="-15.5717920">
        <ele>929.67300</ele>
        <time>2009-01-05T12:33:56Z</time>
      </trkpt>
      <trkpt lat="27.91148600" lon="-15.5717330">
        <ele>929.21700</ele>
        <time>2009-01-05T12:33:57Z</time>
      </trkpt>
      <trkpt lat="27.91141300" lon="-15.5716700">
        <ele>928.61900</ele>
        <time>2009-01-05T12:33:58Z</time>
      </trkpt>
      <trkpt lat="27.91134700" lon="-15.5715990">
        <ele>928.57000</ele>
        <time>2009-01-05T12:33:59Z</time>
      </trkpt>
      <trkpt lat="27.91128900" lon="-15.5715200">
        <ele>928.87100</ele>
        <time>2009-01-05T12:34:00Z</time>
      </trkpt>
      <trkpt lat="27.91123900" lon="-15.5714350">
        <ele>928.73000</ele>
        <time>2009-01-05T12:34:01Z</time>
      </trkpt>
      <trkpt lat="27.91119500" lon="-15.5713470">
        <ele>928.56000</ele>
        <time>2009-01-05T12:34:02Z</time>
      </trkpt>
      <trkpt lat="27.91115500" lon="-15.5712570">
        <ele>928.02700</ele>
        <time>2009-01-05T12:34:03Z</time>
      </trkpt>
      <trkpt lat="27.91111500" lon="-15.5711660">
        <ele>927.66400</ele>
        <time>2009-01-05T12:34:04Z</time>
      </trkpt>
      <trkpt lat="27.91107500" lon="-15.5710740">
        <ele>927.14000</ele>
        <time>2009-01-05T12:34:05Z</time>
      </trkpt>
      <trkpt lat="27.91103300" lon="-15.5709790">
        <ele>926.86100</ele>
        <time>2009-01-05T12:34:06Z</time>
      </trkpt>
      <trkpt lat="27.91099000" lon="-15.5708820">
        <ele>926.12300</ele>
        <time>2009-01-05T12:34:07Z</time>
      </trkpt>
      <trkpt lat="27.91094400" lon="-15.5707800">
        <ele>926.00600</ele>
        <time>2009-01-05T12:34:08Z</time>
      </trkpt>
      <trkpt lat="27.91090000" lon="-15.5706810">
        <ele>925.14400</ele>
        <time>2009-01-05T12:34:09Z</time>
      </trkpt>
      <trkpt lat="27.91085700" lon="-15.5705820">
        <ele>924.56200</ele>
        <time>2009-01-05T12:34:10Z</time>
      </trkpt>
      <trkpt lat="27.91081300" lon="-15.5704780">
        <ele>923.91400</ele>
        <time>2009-01-05T12:34:11Z</time>
      </trkpt>
      <trkpt lat="27.91076500" lon="-15.5703760">
        <ele>923.12600</ele>
        <time>2009-01-05T12:34:12Z</time>
      </trkpt>
      <trkpt lat="27.91071100" lon="-15.5702760">
        <ele>922.96900</ele>
        <time>2009-01-05T12:34:13Z</time>
      </trkpt>
      <trkpt lat="27.91064500" lon="-15.5701810">
        <ele>922.27100</ele>
        <time>2009-01-05T12:34:14Z</time>
      </trkpt>
      <trkpt lat="27.91057000" lon="-15.5700940">
        <ele>922.20100</ele>
        <time>2009-01-05T12:34:15Z</time>
      </trkpt>
      <trkpt lat="27.91048400" lon="-15.5700230">
        <ele>921.52700</ele>
        <time>2009-01-05T12:34:16Z</time>
      </trkpt>
      <trkpt lat="27.91039200" lon="-15.5699730">
        <ele>921.29300</ele>
        <time>2009-01-05T12:34:17Z</time>
      </trkpt>
      <trkpt lat="27.91029800" lon="-15.5699320">
        <ele>921.24000</ele>
        <time>2009-01-05T12:34:18Z</time>
      </trkpt>
      <trkpt lat="27.91020400" lon="-15.5698940">
        <ele>920.84000</ele>
        <time>2009-01-05T12:34:19Z</time>
      </trkpt>
      <trkpt lat="27.91011100" lon="-15.5698550">
        <ele>920.48400</ele>
        <time>2009-01-05T12:34:20Z</time>
      </trkpt>
      <trkpt lat="27.91001900" lon="-15.5698170">
        <ele>920.33800</ele>
        <time>2009-01-05T12:34:21Z</time>
      </trkpt>
      <trkpt lat="27.90992800" lon="-15.5697770">
        <ele>920.40300</ele>
        <time>2009-01-05T12:34:22Z</time>
      </trkpt>
      <trkpt lat="27.90984000" lon="-15.5697350">
        <ele>920.51500</ele>
        <time>2009-01-05T12:34:23Z</time>
      </trkpt>
      <trkpt lat="27.90975300" lon="-15.5696930">
        <ele>920.71800</ele>
        <time>2009-01-05T12:34:24Z</time>
      </trkpt>
      <trkpt lat="27.90966600" lon="-15.5696540">
        <ele>920.90700</ele>
        <time>2009-01-05T12:34:25Z</time>
      </trkpt>
      <trkpt lat="27.90958100" lon="-15.5696180">
        <ele>921.13500</ele>
        <time>2009-01-05T12:34:26Z</time>
      </trkpt>
      <trkpt lat="27.90949700" lon="-15.5695840">
        <ele>921.27700</ele>
        <time>2009-01-05T12:34:27Z</time>
      </trkpt>
      <trkpt lat="27.90941500" lon="-15.5695520">
        <ele>921.01400</ele>
        <time>2009-01-05T12:34:28Z</time>
      </trkpt>
      <trkpt lat="27.90933300" lon="-15.5695240">
        <ele>921.56500</ele>
        <time>2009-01-05T12:34:29Z</time>
      </trkpt>
      <trkpt lat="27.90925200" lon="-15.5695000">
        <ele>921.62200</ele>
        <time>2009-01-05T12:34:30Z</time>
      </trkpt>
      <trkpt lat="27.90917400" lon="-15.5694800">
        <ele>922.00100</ele>
        <time>2009-01-05T12:34:31Z</time>
      </trkpt>
      <trkpt lat="27.90909800" lon="-15.5694600">
        <ele>922.07400</ele>
        <time>2009-01-05T12:34:32Z</time>
      </trkpt>
      <trkpt lat="27.90902500" lon="-15.5694400">
        <ele>922.12600</ele>
        <time>2009-01-05T12:34:33Z</time>
      </trkpt>
      <trkpt lat="27.90895600" lon="-15.5694220">
        <ele>922.88400</ele>
        <time>2009-01-05T12:34:34Z</time>
      </trkpt>
      <trkpt lat="27.90888900" lon="-15.5694050">
        <ele>923.04700</ele>
        <time>2009-01-05T12:34:35Z</time>
      </trkpt>
      <trkpt lat="27.90882300" lon="-15.5693890">
        <ele>923.52500</ele>
        <time>2009-01-05T12:34:36Z</time>
      </trkpt>
      <trkpt lat="27.90876100" lon="-15.5693720">
        <ele>923.45000</ele>
        <time>2009-01-05T12:34:37Z</time>
      </trkpt>
      <trkpt lat="27.90869900" lon="-15.5693580">
        <ele>924.19400</ele>
        <time>2009-01-05T12:34:38Z</time>
      </trkpt>
      <trkpt lat="27.90864000" lon="-15.5693420">
        <ele>924.66200</ele>
        <time>2009-01-05T12:34:39Z</time>
      </trkpt>
      <trkpt lat="27.90858200" lon="-15.5693260">
        <ele>925.06000</ele>
        <time>2009-01-05T12:34:40Z</time>
      </trkpt>
      <trkpt lat="27.90852400" lon="-15.5693060">
        <ele>925.48800</ele>
        <time>2009-01-05T12:34:41Z</time>
      </trkpt>
      <trkpt lat="27.90846900" lon="-15.5692830">
        <ele>925.79600</ele>
        <time>2009-01-05T12:34:42Z</time>
      </trkpt>
      <trkpt lat="27.90841500" lon="-15.5692580">
        <ele>925.93000</ele>
        <time>2009-01-05T12:34:43Z</time>
      </trkpt>
      <trkpt lat="27.90836100" lon="-15.5692300">
        <ele>926.65300</ele>
        <time>2009-01-05T12:34:44Z</time>
      </trkpt>
      <trkpt lat="27.90830800" lon="-15.5692010">
        <ele>926.81900</ele>
        <time>2009-01-05T12:34:45Z</time>
      </trkpt>
      <trkpt lat="27.90825500" lon="-15.5691720">
        <ele>927.48400</ele>
        <time>2009-01-05T12:34:46Z</time>
      </trkpt>
      <trkpt lat="27.90820300" lon="-15.5691450">
        <ele>927.56500</ele>
        <time>2009-01-05T12:34:47Z</time>
      </trkpt>
      <trkpt lat="27.90815100" lon="-15.5691190">
        <ele>927.42200</ele>
        <time>2009-01-05T12:34:48Z</time>
      </trkpt>
      <trkpt lat="27.90809800" lon="-15.5690930">
        <ele>927.51600</ele>
        <time>2009-01-05T12:34:49Z</time>
      </trkpt>
      <trkpt lat="27.90804500" lon="-15.5690690">
        <ele>928.04900</ele>
        <time>2009-01-05T12:34:50Z</time>
      </trkpt>
      <trkpt lat="27.90799200" lon="-15.5690470">
        <ele>928.52500</ele>
        <time>2009-01-05T12:34:51Z</time>
      </trkpt>
      <trkpt lat="27.90793700" lon="-15.5690310">
        <ele>928.49800</ele>
        <time>2009-01-05T12:34:52Z</time>
      </trkpt>
      <trkpt lat="27.90788100" lon="-15.5690250">
        <ele>928.72200</ele>
        <time>2009-01-05T12:34:53Z</time>
      </trkpt>
      <trkpt lat="27.90782600" lon="-15.5690310">
        <ele>929.02900</ele>
        <time>2009-01-05T12:34:54Z</time>
      </trkpt>
      <trkpt lat="27.90777200" lon="-15.5690440">
        <ele>929.62000</ele>
        <time>2009-01-05T12:34:55Z</time>
      </trkpt>
      <trkpt lat="27.90771900" lon="-15.5690580">
        <ele>930.37100</ele>
        <time>2009-01-05T12:34:56Z</time>
      </trkpt>
      <trkpt lat="27.90766800" lon="-15.5690720">
        <ele>930.51100</ele>
        <time>2009-01-05T12:34:57Z</time>
      </trkpt>
      <trkpt lat="27.90761800" lon="-15.5690890">
        <ele>930.74300</ele>
        <time>2009-01-05T12:34:58Z</time>
      </trkpt>
      <trkpt lat="27.90756900" lon="-15.5691080">
        <ele>930.70800</ele>
        <time>2009-01-05T12:34:59Z</time>
      </trkpt>
      <trkpt lat="27.90752000" lon="-15.5691250">
        <ele>930.97200</ele>
        <time>2009-01-05T12:35:00Z</time>
      </trkpt>
      <trkpt lat="27.90747200" lon="-15.5691420">
        <ele>931.60600</ele>
        <time>2009-01-05T12:35:01Z</time>
      </trkpt>
      <trkpt lat="27.90742600" lon="-15.5691610">
        <ele>931.56400</ele>
        <time>2009-01-05T12:35:02Z</time>
      </trkpt>
      <trkpt lat="27.90738200" lon="-15.5691820">
        <ele>931.92000</ele>
        <time>2009-01-05T12:35:03Z</time>
      </trkpt>
      <trkpt lat="27.90733700" lon="-15.5692010">
        <ele>932.42700</ele>
        <time>2009-01-05T12:35:04Z</time>
      </trkpt>
      <trkpt lat="27.90729300" lon="-15.5692190">
        <ele>932.76300</ele>
        <time>2009-01-05T12:35:05Z</time>
      </trkpt>
      <trkpt lat="27.90725000" lon="-15.5692380">
        <ele>932.70000</ele>
        <time>2009-01-05T12:35:06Z</time>
      </trkpt>
      <trkpt lat="27.90720900" lon="-15.5692610">
        <ele>932.65700</ele>
        <time>2009-01-05T12:35:07Z</time>
      </trkpt>
      <trkpt lat="27.90717000" lon="-15.5692900">
        <ele>932.40400</ele>
        <time>2009-01-05T12:35:08Z</time>
      </trkpt>
      <trkpt lat="27.90713000" lon="-15.5693280">
        <ele>931.92100</ele>
        <time>2009-01-05T12:35:09Z</time>
      </trkpt>
      <trkpt lat="27.90709100" lon="-15.5693750">
        <ele>931.41100</ele>
        <time>2009-01-05T12:35:10Z</time>
      </trkpt>
      <trkpt lat="27.90705400" lon="-15.5694310">
        <ele>931.44100</ele>
        <time>2009-01-05T12:35:11Z</time>
      </trkpt>
      <trkpt lat="27.90702400" lon="-15.5694980">
        <ele>930.94800</ele>
        <time>2009-01-05T12:35:12Z</time>
      </trkpt>
      <trkpt lat="27.90700300" lon="-15.5695750">
        <ele>930.11300</ele>
        <time>2009-01-05T12:35:13Z</time>
      </trkpt>
      <trkpt lat="27.90699100" lon="-15.5696600">
        <ele>929.50600</ele>
        <time>2009-01-05T12:35:14Z</time>
      </trkpt>
      <trkpt lat="27.90698000" lon="-15.5697510">
        <ele>929.13200</ele>
        <time>2009-01-05T12:35:15Z</time>
      </trkpt>
      <trkpt lat="27.90695600" lon="-15.5698400">
        <ele>928.22700</ele>
        <time>2009-01-05T12:35:16Z</time>
      </trkpt>
      <trkpt lat="27.90689500" lon="-15.5699300">
        <ele>927.89200</ele>
        <time>2009-01-05T12:35:17Z</time>
      </trkpt>
      <trkpt lat="27.90681800" lon="-15.5699690">
        <ele>927.62200</ele>
        <time>2009-01-05T12:35:18Z</time>
      </trkpt>
      <trkpt lat="27.90673100" lon="-15.5699470">
        <ele>926.94300</ele>
        <time>2009-01-05T12:35:19Z</time>
      </trkpt>
      <trkpt lat="27.90665500" lon="-15.5698880">
        <ele>926.39200</ele>
        <time>2009-01-05T12:35:20Z</time>
      </trkpt>
      <trkpt lat="27.90657800" lon="-15.5698130">
        <ele>926.01500</ele>
        <time>2009-01-05T12:35:21Z</time>
      </trkpt>
      <trkpt lat="27.90650200" lon="-15.5697380">
        <ele>925.88300</ele>
        <time>2009-01-05T12:35:22Z</time>
      </trkpt>
      <trkpt lat="27.90642000" lon="-15.5696630">
        <ele>924.86800</ele>
        <time>2009-01-05T12:35:23Z</time>
      </trkpt>
      <trkpt lat="27.90633400" lon="-15.5695960">
        <ele>924.15400</ele>
        <time>2009-01-05T12:35:24Z</time>
      </trkpt>
      <trkpt lat="27.90624200" lon="-15.5695390">
        <ele>923.36100</ele>
        <time>2009-01-05T12:35:25Z</time>
      </trkpt>
      <trkpt lat="27.90614400" lon="-15.5695000">
        <ele>923.40600</ele>
        <time>2009-01-05T12:35:26Z</time>
      </trkpt>
      <trkpt lat="27.90604100" lon="-15.5694830">
        <ele>921.46600</ele>
        <time>2009-01-05T12:35:27Z</time>
      </trkpt>
      <trkpt lat="27.90593700" lon="-15.5694870">
        <ele>921.02500</ele>
        <time>2009-01-05T12:35:28Z</time>
      </trkpt>
      <trkpt lat="27.90583400" lon="-15.5695010">
        <ele>920.50800</ele>
        <time>2009-01-05T12:35:29Z</time>
      </trkpt>
      <trkpt lat="27.90573000" lon="-15.5695200">
        <ele>919.82600</ele>
        <time>2009-01-05T12:35:30Z</time>
      </trkpt>
      <trkpt lat="27.90562700" lon="-15.5695400">
        <ele>919.90500</ele>
        <time>2009-01-05T12:35:31Z</time>
      </trkpt>
      <trkpt lat="27.90552400" lon="-15.5695590">
        <ele>919.41100</ele>
        <time>2009-01-05T12:35:32Z</time>
      </trkpt>
      <trkpt lat="27.90542300" lon="-15.5695700">
        <ele>918.71800</ele>
        <time>2009-01-05T12:35:33Z</time>
      </trkpt>
      <trkpt lat="27.90532700" lon="-15.5695580">
        <ele>918.10500</ele>
        <time>2009-01-05T12:35:34Z</time>
      </trkpt>
      <trkpt lat="27.90525200" lon="-15.5695030">
        <ele>916.70200</ele>
        <time>2009-01-05T12:35:35Z</time>
      </trkpt>
      <trkpt lat="27.90521400" lon="-15.5694060">
        <ele>916.37400</ele>
        <time>2009-01-05T12:35:36Z</time>
      </trkpt>
      <trkpt lat="27.90522800" lon="-15.5692970">
        <ele>915.62100</ele>
        <time>2009-01-05T12:35:37Z</time>
      </trkpt>
      <trkpt lat="27.90528500" lon="-15.5692090">
        <ele>915.14300</ele>
        <time>2009-01-05T12:35:38Z</time>
      </trkpt>
      <trkpt lat="27.90537300" lon="-15.5691680">
        <ele>914.41600</ele>
        <time>2009-01-05T12:35:39Z</time>
      </trkpt>
      <trkpt lat="27.90546900" lon="-15.5691550">
        <ele>913.78200</ele>
        <time>2009-01-05T12:35:40Z</time>
      </trkpt>
      <trkpt lat="27.90557500" lon="-15.5691520">
        <ele>913.37700</ele>
        <time>2009-01-05T12:35:41Z</time>
      </trkpt>
      <trkpt lat="27.90567800" lon="-15.5691320">
        <ele>912.82700</ele>
        <time>2009-01-05T12:35:42Z</time>
      </trkpt>
      <trkpt lat="27.90576500" lon="-15.5690650">
        <ele>912.29600</ele>
        <time>2009-01-05T12:35:43Z</time>
      </trkpt>
      <trkpt lat="27.90582000" lon="-15.5689600">
        <ele>911.35500</ele>
        <time>2009-01-05T12:35:44Z</time>
      </trkpt>
      <trkpt lat="27.90584300" lon="-15.5688350">
        <ele>910.53000</ele>
        <time>2009-01-05T12:35:45Z</time>
      </trkpt>
      <trkpt lat="27.90584900" lon="-15.5687080">
        <ele>909.77400</ele>
        <time>2009-01-05T12:35:46Z</time>
      </trkpt>
      <trkpt lat="27.90584700" lon="-15.5685760">
        <ele>909.17900</ele>
        <time>2009-01-05T12:35:47Z</time>
      </trkpt>
      <trkpt lat="27.90584700" lon="-15.5684420">
        <ele>908.97500</ele>
        <time>2009-01-05T12:35:48Z</time>
      </trkpt>
      <trkpt lat="27.90585000" lon="-15.5683110">
        <ele>908.19800</ele>
        <time>2009-01-05T12:35:49Z</time>
      </trkpt>
      <trkpt lat="27.90585500" lon="-15.5681780">
        <ele>907.39500</ele>
        <time>2009-01-05T12:35:50Z</time>
      </trkpt>
      <trkpt lat="27.90586300" lon="-15.5680430">
        <ele>906.83100</ele>
        <time>2009-01-05T12:35:51Z</time>
      </trkpt>
      <trkpt lat="27.90587800" lon="-15.5679090">
        <ele>906.31900</ele>
        <time>2009-01-05T12:35:52Z</time>
      </trkpt>
      <trkpt lat="27.90589800" lon="-15.5677740">
        <ele>905.57000</ele>
        <time>2009-01-05T12:35:53Z</time>
      </trkpt>
      <trkpt lat="27.90592200" lon="-15.5676400">
        <ele>904.45800</ele>
        <time>2009-01-05T12:35:54Z</time>
      </trkpt>
      <trkpt lat="27.90594600" lon="-15.5675060">
        <ele>904.02500</ele>
        <time>2009-01-05T12:35:55Z</time>
      </trkpt>
      <trkpt lat="27.90596900" lon="-15.5673720">
        <ele>903.47800</ele>
        <time>2009-01-05T12:35:56Z</time>
      </trkpt>
      <trkpt lat="27.90599200" lon="-15.5672380">
        <ele>903.01300</ele>
        <time>2009-01-05T12:35:57Z</time>
      </trkpt>
      <trkpt lat="27.90601600" lon="-15.5671050">
        <ele>902.17300</ele>
        <time>2009-01-05T12:35:58Z</time>
      </trkpt>
      <trkpt lat="27.90604100" lon="-15.5669740">
        <ele>901.61100</ele>
        <time>2009-01-05T12:35:59Z</time>
      </trkpt>
      <trkpt lat="27.90606600" lon="-15.5668430">
        <ele>900.72600</ele>
        <time>2009-01-05T12:36:00Z</time>
      </trkpt>
      <trkpt lat="27.90609000" lon="-15.5667140">
        <ele>900.60000</ele>
        <time>2009-01-05T12:36:01Z</time>
      </trkpt>
      <trkpt lat="27.90611300" lon="-15.5665870">
        <ele>899.99000</ele>
        <time>2009-01-05T12:36:02Z</time>
      </trkpt>
      <trkpt lat="27.90612900" lon="-15.5664630">
        <ele>899.03600</ele>
        <time>2009-01-05T12:36:03Z</time>
      </trkpt>
      <trkpt lat="27.90612800" lon="-15.5663500">
        <ele>897.91600</ele>
        <time>2009-01-05T12:36:04Z</time>
      </trkpt>
      <trkpt lat="27.90607900" lon="-15.5662750">
        <ele>898.01400</ele>
        <time>2009-01-05T12:36:05Z</time>
      </trkpt>
      <trkpt lat="27.90600200" lon="-15.5662540">
        <ele>897.58200</ele>
        <time>2009-01-05T12:36:06Z</time>
      </trkpt>
      <trkpt lat="27.90592100" lon="-15.5662690">
        <ele>897.07800</ele>
        <time>2009-01-05T12:36:07Z</time>
      </trkpt>
      <trkpt lat="27.90586100" lon="-15.5663280">
        <ele>895.85200</ele>
        <time>2009-01-05T12:36:08Z</time>
      </trkpt>
      <trkpt lat="27.90583300" lon="-15.5664170">
        <ele>894.97000</ele>
        <time>2009-01-05T12:36:09Z</time>
      </trkpt>
      <trkpt lat="27.90584100" lon="-15.5665130">
        <ele>894.26300</ele>
        <time>2009-01-05T12:36:10Z</time>
      </trkpt>
      <trkpt lat="27.90587100" lon="-15.5666060">
        <ele>893.97000</ele>
        <time>2009-01-05T12:36:11Z</time>
      </trkpt>
      <trkpt lat="27.90590300" lon="-15.5667030">
        <ele>893.16800</ele>
        <time>2009-01-05T12:36:12Z</time>
      </trkpt>
      <trkpt lat="27.90591800" lon="-15.5668070">
        <ele>892.51300</ele>
        <time>2009-01-05T12:36:13Z</time>
      </trkpt>
      <trkpt lat="27.90590800" lon="-15.5669140">
        <ele>891.95800</ele>
        <time>2009-01-05T12:36:14Z</time>
      </trkpt>
      <trkpt lat="27.90586900" lon="-15.5670180">
        <ele>891.18700</ele>
        <time>2009-01-05T12:36:15Z</time>
      </trkpt>
      <trkpt lat="27.90580400" lon="-15.5671040">
        <ele>890.66500</ele>
        <time>2009-01-05T12:36:16Z</time>
      </trkpt>
      <trkpt lat="27.90569700" lon="-15.5671660">
        <ele>890.17700</ele>
        <time>2009-01-05T12:36:17Z</time>
      </trkpt>
      <trkpt lat="27.90559600" lon="-15.5672150">
        <ele>889.77300</ele>
        <time>2009-01-05T12:36:18Z</time>
      </trkpt>
      <trkpt lat="27.90550900" lon="-15.5672850">
        <ele>889.56000</ele>
        <time>2009-01-05T12:36:19Z</time>
      </trkpt>
      <trkpt lat="27.90543900" lon="-15.5673800">
        <ele>888.03300</ele>
        <time>2009-01-05T12:36:20Z</time>
      </trkpt>
      <trkpt lat="27.90538300" lon="-15.5674860">
        <ele>887.45900</ele>
        <time>2009-01-05T12:36:21Z</time>
      </trkpt>
      <trkpt lat="27.90532900" lon="-15.5675950">
        <ele>886.59800</ele>
        <time>2009-01-05T12:36:22Z</time>
      </trkpt>
      <trkpt lat="27.90527300" lon="-15.5677070">
        <ele>885.65300</ele>
        <time>2009-01-05T12:36:23Z</time>
      </trkpt>
      <trkpt lat="27.90521000" lon="-15.5678170">
        <ele>884.58800</ele>
        <time>2009-01-05T12:36:24Z</time>
      </trkpt>
      <trkpt lat="27.90513300" lon="-15.5679180">
        <ele>884.36100</ele>
        <time>2009-01-05T12:36:25Z</time>
      </trkpt>
      <trkpt lat="27.90503600" lon="-15.5679970">
        <ele>884.18800</ele>
        <time>2009-01-05T12:36:26Z</time>
      </trkpt>
      <trkpt lat="27.90491100" lon="-15.5680300">
        <ele>882.83000</ele>
        <time>2009-01-05T12:36:27Z</time>
      </trkpt>
      <trkpt lat="27.90478400" lon="-15.5680040">
        <ele>881.95300</ele>
        <time>2009-01-05T12:36:28Z</time>
      </trkpt>
      <trkpt lat="27.90466500" lon="-15.5679590">
        <ele>880.79000</ele>
        <time>2009-01-05T12:36:29Z</time>
      </trkpt>
      <trkpt lat="27.90454600" lon="-15.5679210">
        <ele>881.62600</ele>
        <time>2009-01-05T12:36:30Z</time>
      </trkpt>
      <trkpt lat="27.90442400" lon="-15.5679000">
        <ele>879.95100</ele>
        <time>2009-01-05T12:36:31Z</time>
      </trkpt>
      <trkpt lat="27.90430000" lon="-15.5678870">
        <ele>878.99700</ele>
        <time>2009-01-05T12:36:32Z</time>
      </trkpt>
      <trkpt lat="27.90417600" lon="-15.5678740">
        <ele>878.31500</ele>
        <time>2009-01-05T12:36:33Z</time>
      </trkpt>
      <trkpt lat="27.90405600" lon="-15.5678640">
        <ele>876.70800</ele>
        <time>2009-01-05T12:36:34Z</time>
      </trkpt>
      <trkpt lat="27.90393900" lon="-15.5678740">
        <ele>876.42500</ele>
        <time>2009-01-05T12:36:35Z</time>
      </trkpt>
      <trkpt lat="27.90382800" lon="-15.5679130">
        <ele>875.43700</ele>
        <time>2009-01-05T12:36:36Z</time>
      </trkpt>
      <trkpt lat="27.90372600" lon="-15.5679760">
        <ele>874.59300</ele>
        <time>2009-01-05T12:36:37Z</time>
      </trkpt>
      <trkpt lat="27.90362900" lon="-15.5680520">
        <ele>873.01300</ele>
        <time>2009-01-05T12:36:38Z</time>
      </trkpt>
      <trkpt lat="27.90353300" lon="-15.5681310">
        <ele>872.18500</ele>
        <time>2009-01-05T12:36:39Z</time>
      </trkpt>
      <trkpt lat="27.90343500" lon="-15.5682100">
        <ele>871.89200</ele>
        <time>2009-01-05T12:36:40Z</time>
      </trkpt>
      <trkpt lat="27.90333600" lon="-15.5682900">
        <ele>870.70800</ele>
        <time>2009-01-05T12:36:41Z</time>
      </trkpt>
      <trkpt lat="27.90324100" lon="-15.5683790">
        <ele>869.70400</ele>
        <time>2009-01-05T12:36:42Z</time>
      </trkpt>
      <trkpt lat="27.90315300" lon="-15.5684810">
        <ele>868.64200</ele>
        <time>2009-01-05T12:36:43Z</time>
      </trkpt>
      <trkpt lat="27.90307300" lon="-15.5685890">
        <ele>867.31300</ele>
        <time>2009-01-05T12:36:44Z</time>
      </trkpt>
      <trkpt lat="27.90299700" lon="-15.5687020">
        <ele>866.83500</ele>
        <time>2009-01-05T12:36:45Z</time>
      </trkpt>
      <trkpt lat="27.90293000" lon="-15.5688210">
        <ele>866.63800</ele>
        <time>2009-01-05T12:36:46Z</time>
      </trkpt>
      <trkpt lat="27.90287400" lon="-15.5689460">
        <ele>866.37800</ele>
        <time>2009-01-05T12:36:47Z</time>
      </trkpt>
      <trkpt lat="27.90282200" lon="-15.5690650">
        <ele>865.67300</ele>
        <time>2009-01-05T12:36:48Z</time>
      </trkpt>
      <trkpt lat="27.90275800" lon="-15.5691660">
        <ele>865.03900</ele>
        <time>2009-01-05T12:36:49Z</time>
      </trkpt>
      <trkpt lat="27.90266300" lon="-15.5692140">
        <ele>864.39300</ele>
        <time>2009-01-05T12:36:50Z</time>
      </trkpt>
      <trkpt lat="27.90256300" lon="-15.5692010">
        <ele>864.04200</ele>
        <time>2009-01-05T12:36:51Z</time>
      </trkpt>
      <trkpt lat="27.90246700" lon="-15.5691620">
        <ele>864.21600</ele>
        <time>2009-01-05T12:36:52Z</time>
      </trkpt>
      <trkpt lat="27.90236800" lon="-15.5691160">
        <ele>863.89200</ele>
        <time>2009-01-05T12:36:53Z</time>
      </trkpt>
      <trkpt lat="27.90226100" lon="-15.5690750">
        <ele>862.24200</ele>
        <time>2009-01-05T12:36:54Z</time>
      </trkpt>
      <trkpt lat="27.90214900" lon="-15.5690340">
        <ele>861.45800</ele>
        <time>2009-01-05T12:36:55Z</time>
      </trkpt>
      <trkpt lat="27.90203600" lon="-15.5689800">
        <ele>860.36700</ele>
        <time>2009-01-05T12:36:56Z</time>
      </trkpt>
      <trkpt lat="27.90193100" lon="-15.5689310">
        <ele>858.15300</ele>
        <time>2009-01-05T12:36:57Z</time>
      </trkpt>
      <trkpt lat="27.90182900" lon="-15.5689200">
        <ele>856.45500</ele>
        <time>2009-01-05T12:36:58Z</time>
      </trkpt>
      <trkpt lat="27.90172800" lon="-15.5689510">
        <ele>855.25100</ele>
        <time>2009-01-05T12:36:59Z</time>
      </trkpt>
      <trkpt lat="27.90164100" lon="-15.5690230">
        <ele>854.95600</ele>
        <time>2009-01-05T12:37:00Z</time>
      </trkpt>
      <trkpt lat="27.90157700" lon="-15.5691240">
        <ele>854.05000</ele>
        <time>2009-01-05T12:37:01Z</time>
      </trkpt>
      <trkpt lat="27.90151300" lon="-15.5692290">
        <ele>853.20800</ele>
        <time>2009-01-05T12:37:02Z</time>
      </trkpt>
      <trkpt lat="27.90143500" lon="-15.5693200">
        <ele>851.91900</ele>
        <time>2009-01-05T12:37:03Z</time>
      </trkpt>
      <trkpt lat="27.90133000" lon="-15.5693820">
        <ele>851.24300</ele>
        <time>2009-01-05T12:37:04Z</time>
      </trkpt>
      <trkpt lat="27.90120900" lon="-15.5693840">
        <ele>850.69900</ele>
        <time>2009-01-05T12:37:05Z</time>
      </trkpt>
      <trkpt lat="27.90110200" lon="-15.5693300">
        <ele>850.09700</ele>
        <time>2009-01-05T12:37:06Z</time>
      </trkpt>
      <trkpt lat="27.90100500" lon="-15.5692400">
        <ele>848.96200</ele>
        <time>2009-01-05T12:37:07Z</time>
      </trkpt>
      <trkpt lat="27.90092700" lon="-15.5691410">
        <ele>847.90300</ele>
        <time>2009-01-05T12:37:08Z</time>
      </trkpt>
      <trkpt lat="27.90084300" lon="-15.5690690">
        <ele>846.27000</ele>
        <time>2009-01-05T12:37:09Z</time>
      </trkpt>
      <trkpt lat="27.90074800" lon="-15.5690790">
        <ele>846.05900</ele>
        <time>2009-01-05T12:37:10Z</time>
      </trkpt>
      <trkpt lat="27.90065000" lon="-15.5691120">
        <ele>845.16900</ele>
        <time>2009-01-05T12:37:11Z</time>
      </trkpt>
      <trkpt lat="27.90055200" lon="-15.5691630">
        <ele>844.17000</ele>
        <time>2009-01-05T12:37:12Z</time>
      </trkpt>
      <trkpt lat="27.90045000" lon="-15.5692100">
        <ele>843.25100</ele>
        <time>2009-01-05T12:37:13Z</time>
      </trkpt>
      <trkpt lat="27.90033900" lon="-15.5692410">
        <ele>842.67000</ele>
        <time>2009-01-05T12:37:14Z</time>
      </trkpt>
      <trkpt lat="27.90022200" lon="-15.5692590">
        <ele>842.22100</ele>
        <time>2009-01-05T12:37:15Z</time>
      </trkpt>
      <trkpt lat="27.90010200" lon="-15.5692710">
        <ele>841.41200</ele>
        <time>2009-01-05T12:37:16Z</time>
      </trkpt>
      <trkpt lat="27.89998000" lon="-15.5692830">
        <ele>840.34800</ele>
        <time>2009-01-05T12:37:17Z</time>
      </trkpt>
      <trkpt lat="27.89985800" lon="-15.5692980">
        <ele>838.50800</ele>
        <time>2009-01-05T12:37:18Z</time>
      </trkpt>
      <trkpt lat="27.89973700" lon="-15.5693120">
        <ele>838.58200</ele>
        <time>2009-01-05T12:37:19Z</time>
      </trkpt>
      <trkpt lat="27.89961600" lon="-15.5693240">
        <ele>837.61300</ele>
        <time>2009-01-05T12:37:20Z</time>
      </trkpt>
      <trkpt lat="27.89950300" lon="-15.5693350">
        <ele>835.81300</ele>
        <time>2009-01-05T12:37:21Z</time>
      </trkpt>
      <trkpt lat="27.89940500" lon="-15.5693410">
        <ele>834.32300</ele>
        <time>2009-01-05T12:37:22Z</time>
      </trkpt>
      <trkpt lat="27.89931900" lon="-15.5693320">
        <ele>833.17900</ele>
        <time>2009-01-05T12:37:23Z</time>
      </trkpt>
      <trkpt lat="27.89926600" lon="-15.5692770">
        <ele>832.01200</ele>
        <time>2009-01-05T12:37:24Z</time>
      </trkpt>
      <trkpt lat="27.89924900" lon="-15.5691830">
        <ele>831.55900</ele>
        <time>2009-01-05T12:37:25Z</time>
      </trkpt>
      <trkpt lat="27.89928100" lon="-15.5691000">
        <ele>830.72000</ele>
        <time>2009-01-05T12:37:26Z</time>
      </trkpt>
      <trkpt lat="27.89935200" lon="-15.5690520">
        <ele>829.63800</ele>
        <time>2009-01-05T12:37:27Z</time>
      </trkpt>
      <trkpt lat="27.89943700" lon="-15.5690380">
        <ele>829.20900</ele>
        <time>2009-01-05T12:37:28Z</time>
      </trkpt>
      <trkpt lat="27.89953100" lon="-15.5690380">
        <ele>828.76400</ele>
        <time>2009-01-05T12:37:29Z</time>
      </trkpt>
      <trkpt lat="27.89963000" lon="-15.5690350">
        <ele>828.74200</ele>
        <time>2009-01-05T12:37:30Z</time>
      </trkpt>
      <trkpt lat="27.89973300" lon="-15.5690210">
        <ele>828.19100</ele>
        <time>2009-01-05T12:37:31Z</time>
      </trkpt>
      <trkpt lat="27.89983200" lon="-15.5689900">
        <ele>827.51900</ele>
        <time>2009-01-05T12:37:32Z</time>
      </trkpt>
      <trkpt lat="27.89992500" lon="-15.5689430">
        <ele>827.04000</ele>
        <time>2009-01-05T12:37:33Z</time>
      </trkpt>
      <trkpt lat="27.90001900" lon="-15.5688970">
        <ele>827.32400</ele>
        <time>2009-01-05T12:37:34Z</time>
      </trkpt>
      <trkpt lat="27.90011900" lon="-15.5688720">
        <ele>826.96700</ele>
        <time>2009-01-05T12:37:35Z</time>
      </trkpt>
      <trkpt lat="27.90022100" lon="-15.5688540">
        <ele>826.24400</ele>
        <time>2009-01-05T12:37:36Z</time>
      </trkpt>
      <trkpt lat="27.90032000" lon="-15.5688200">
        <ele>826.00500</ele>
        <time>2009-01-05T12:37:37Z</time>
      </trkpt>
      <trkpt lat="27.90041100" lon="-15.5687590">
        <ele>824.91500</ele>
        <time>2009-01-05T12:37:38Z</time>
      </trkpt>
      <trkpt lat="27.90049700" lon="-15.5686830">
        <ele>824.58100</ele>
        <time>2009-01-05T12:37:39Z</time>
      </trkpt>
      <trkpt lat="27.90059000" lon="-15.5686200">
        <ele>823.56800</ele>
        <time>2009-01-05T12:37:40Z</time>
      </trkpt>
      <trkpt lat="27.90069300" lon="-15.5685850">
        <ele>823.03900</ele>
        <time>2009-01-05T12:37:41Z</time>
      </trkpt>
      <trkpt lat="27.90080400" lon="-15.5686010">
        <ele>822.07600</ele>
        <time>2009-01-05T12:37:42Z</time>
      </trkpt>
      <trkpt lat="27.90091000" lon="-15.5686450">
        <ele>821.85500</ele>
        <time>2009-01-05T12:37:43Z</time>
      </trkpt>
      <trkpt lat="27.90101400" lon="-15.5686930">
        <ele>821.54000</ele>
        <time>2009-01-05T12:37:44Z</time>
      </trkpt>
      <trkpt lat="27.90111800" lon="-15.5687320">
        <ele>820.82800</ele>
        <time>2009-01-05T12:37:45Z</time>
      </trkpt>
      <trkpt lat="27.90122600" lon="-15.5687500">
        <ele>820.48900</ele>
        <time>2009-01-05T12:37:46Z</time>
      </trkpt>
      <trkpt lat="27.90132800" lon="-15.5687270">
        <ele>819.89900</ele>
        <time>2009-01-05T12:37:47Z</time>
      </trkpt>
      <trkpt lat="27.90141000" lon="-15.5686740">
        <ele>818.94600</ele>
        <time>2009-01-05T12:37:48Z</time>
      </trkpt>
      <trkpt lat="27.90145900" lon="-15.5685810">
        <ele>818.37400</ele>
        <time>2009-01-05T12:37:49Z</time>
      </trkpt>
      <trkpt lat="27.90146500" lon="-15.5684730">
        <ele>816.84000</ele>
        <time>2009-01-05T12:37:50Z</time>
      </trkpt>
      <trkpt lat="27.90145300" lon="-15.5683610">
        <ele>815.63700</ele>
        <time>2009-01-05T12:37:51Z</time>
      </trkpt>
      <trkpt lat="27.90141700" lon="-15.5682460">
        <ele>815.40600</ele>
        <time>2009-01-05T12:37:52Z</time>
      </trkpt>
      <trkpt lat="27.90137300" lon="-15.5681340">
        <ele>814.07600</ele>
        <time>2009-01-05T12:37:53Z</time>
      </trkpt>
      <trkpt lat="27.90133800" lon="-15.5680210">
        <ele>813.42000</ele>
        <time>2009-01-05T12:37:54Z</time>
      </trkpt>
      <trkpt lat="27.90132400" lon="-15.5679190">
        <ele>812.07100</ele>
        <time>2009-01-05T12:37:55Z</time>
      </trkpt>
      <trkpt lat="27.90135100" lon="-15.5678340">
        <ele>811.45200</ele>
        <time>2009-01-05T12:37:56Z</time>
      </trkpt>
      <trkpt lat="27.90142200" lon="-15.5678000">
        <ele>810.58500</ele>
        <time>2009-01-05T12:37:57Z</time>
      </trkpt>
      <trkpt lat="27.90150700" lon="-15.5678220">
        <ele>809.74300</ele>
        <time>2009-01-05T12:37:58Z</time>
      </trkpt>
      <trkpt lat="27.90158600" lon="-15.5678730">
        <ele>809.09800</ele>
        <time>2009-01-05T12:37:59Z</time>
      </trkpt>
      <trkpt lat="27.90166500" lon="-15.5679340">
        <ele>808.67400</ele>
        <time>2009-01-05T12:38:00Z</time>
      </trkpt>
      <trkpt lat="27.90174700" lon="-15.5679970">
        <ele>808.18200</ele>
        <time>2009-01-05T12:38:01Z</time>
      </trkpt>
      <trkpt lat="27.90183500" lon="-15.5680570">
        <ele>807.09200</ele>
        <time>2009-01-05T12:38:02Z</time>
      </trkpt>
      <trkpt lat="27.90192500" lon="-15.5681060">
        <ele>806.93000</ele>
        <time>2009-01-05T12:38:03Z</time>
      </trkpt>
      <trkpt lat="27.90201300" lon="-15.5681280">
        <ele>807.80300</ele>
        <time>2009-01-05T12:38:04Z</time>
      </trkpt>
      <trkpt lat="27.90209100" lon="-15.5680950">
        <ele>805.87000</ele>
        <time>2009-01-05T12:38:05Z</time>
      </trkpt>
      <trkpt lat="27.90215100" lon="-15.5680190">
        <ele>804.66900</ele>
        <time>2009-01-05T12:38:06Z</time>
      </trkpt>
      <trkpt lat="27.90218800" lon="-15.5679280">
        <ele>803.51500</ele>
        <time>2009-01-05T12:38:07Z</time>
      </trkpt>
      <trkpt lat="27.90221800" lon="-15.5678290">
        <ele>803.05900</ele>
        <time>2009-01-05T12:38:08Z</time>
      </trkpt>
      <trkpt lat="27.90225400" lon="-15.5677270">
        <ele>802.62200</ele>
        <time>2009-01-05T12:38:09Z</time>
      </trkpt>
      <trkpt lat="27.90229500" lon="-15.5676240">
        <ele>802.12300</ele>
        <time>2009-01-05T12:38:10Z</time>
      </trkpt>
      <trkpt lat="27.90233300" lon="-15.5675160">
        <ele>800.92700</ele>
        <time>2009-01-05T12:38:11Z</time>
      </trkpt>
      <trkpt lat="27.90233700" lon="-15.5673950">
        <ele>799.65400</ele>
        <time>2009-01-05T12:38:12Z</time>
      </trkpt>
      <trkpt lat="27.90230200" lon="-15.5672790">
        <ele>798.21100</ele>
        <time>2009-01-05T12:38:13Z</time>
      </trkpt>
      <trkpt lat="27.90225300" lon="-15.5671700">
        <ele>797.96900</ele>
        <time>2009-01-05T12:38:14Z</time>
      </trkpt>
      <trkpt lat="27.90220200" lon="-15.5670610">
        <ele>796.86500</ele>
        <time>2009-01-05T12:38:15Z</time>
      </trkpt>
      <trkpt lat="27.90217000" lon="-15.5669590">
        <ele>795.58500</ele>
        <time>2009-01-05T12:38:16Z</time>
      </trkpt>
      <trkpt lat="27.90217500" lon="-15.5668640">
        <ele>795.06500</ele>
        <time>2009-01-05T12:38:17Z</time>
      </trkpt>
      <trkpt lat="27.90222500" lon="-15.5667790">
        <ele>794.32000</ele>
        <time>2009-01-05T12:38:18Z</time>
      </trkpt>
      <trkpt lat="27.90229300" lon="-15.5667090">
        <ele>794.07600</ele>
        <time>2009-01-05T12:38:19Z</time>
      </trkpt>
      <trkpt lat="27.90237700" lon="-15.5666590">
        <ele>793.41600</ele>
        <time>2009-01-05T12:38:20Z</time>
      </trkpt>
      <trkpt lat="27.90247500" lon="-15.5666230">
        <ele>792.34100</ele>
        <time>2009-01-05T12:38:21Z</time>
      </trkpt>
      <trkpt lat="27.90257600" lon="-15.5666050">
        <ele>791.67300</ele>
        <time>2009-01-05T12:38:22Z</time>
      </trkpt>
      <trkpt lat="27.90267500" lon="-15.5665990">
        <ele>790.05900</ele>
        <time>2009-01-05T12:38:23Z</time>
      </trkpt>
      <trkpt lat="27.90275800" lon="-15.5665840">
        <ele>789.55800</ele>
        <time>2009-01-05T12:38:24Z</time>
      </trkpt>
      <trkpt lat="27.90281000" lon="-15.5665340">
        <ele>789.24200</ele>
        <time>2009-01-05T12:38:25Z</time>
      </trkpt>
      <trkpt lat="27.90281800" lon="-15.5664680">
        <ele>788.44200</ele>
        <time>2009-01-05T12:38:26Z</time>
      </trkpt>
      <trkpt lat="27.90278800" lon="-15.5663920">
        <ele>787.29600</ele>
        <time>2009-01-05T12:38:27Z</time>
      </trkpt>
      <trkpt lat="27.90272400" lon="-15.5663220">
        <ele>786.79200</ele>
        <time>2009-01-05T12:38:28Z</time>
      </trkpt>
      <trkpt lat="27.90264700" lon="-15.5662640">
        <ele>786.42800</ele>
        <time>2009-01-05T12:38:29Z</time>
      </trkpt>
      <trkpt lat="27.90255800" lon="-15.5662100">
        <ele>786.50300</ele>
        <time>2009-01-05T12:38:30Z</time>
      </trkpt>
      <trkpt lat="27.90246200" lon="-15.5661610">
        <ele>786.20500</ele>
        <time>2009-01-05T12:38:31Z</time>
      </trkpt>
      <trkpt lat="27.90235900" lon="-15.5661220">
        <ele>785.28500</ele>
        <time>2009-01-05T12:38:32Z</time>
      </trkpt>
      <trkpt lat="27.90225300" lon="-15.5660900">
        <ele>784.49300</ele>
        <time>2009-01-05T12:38:33Z</time>
      </trkpt>
      <trkpt lat="27.90214400" lon="-15.5660610">
        <ele>784.02500</ele>
        <time>2009-01-05T12:38:34Z</time>
      </trkpt>
      <trkpt lat="27.90203300" lon="-15.5660330">
        <ele>782.57400</ele>
        <time>2009-01-05T12:38:35Z</time>
      </trkpt>
      <trkpt lat="27.90192000" lon="-15.5660040">
        <ele>781.42200</ele>
        <time>2009-01-05T12:38:36Z</time>
      </trkpt>
      <trkpt lat="27.90180700" lon="-15.5659710">
        <ele>780.05500</ele>
        <time>2009-01-05T12:38:37Z</time>
      </trkpt>
      <trkpt lat="27.90169300" lon="-15.5659330">
        <ele>779.47400</ele>
        <time>2009-01-05T12:38:38Z</time>
      </trkpt>
      <trkpt lat="27.90158100" lon="-15.5658860">
        <ele>778.64200</ele>
        <time>2009-01-05T12:38:39Z</time>
      </trkpt>
      <trkpt lat="27.90147100" lon="-15.5658250">
        <ele>777.77500</ele>
        <time>2009-01-05T12:38:40Z</time>
      </trkpt>
      <trkpt lat="27.90136700" lon="-15.5657490">
        <ele>776.64700</ele>
        <time>2009-01-05T12:38:41Z</time>
      </trkpt>
      <trkpt lat="27.90126900" lon="-15.5656580">
        <ele>775.08200</ele>
        <time>2009-01-05T12:38:42Z</time>
      </trkpt>
      <trkpt lat="27.90118200" lon="-15.5655590">
        <ele>774.46400</ele>
        <time>2009-01-05T12:38:43Z</time>
      </trkpt>
      <trkpt lat="27.90111400" lon="-15.5654540">
        <ele>772.67400</ele>
        <time>2009-01-05T12:38:44Z</time>
      </trkpt>
      <trkpt lat="27.90108700" lon="-15.5653210">
        <ele>771.06000</ele>
        <time>2009-01-05T12:38:45Z</time>
      </trkpt>
      <trkpt lat="27.90107200" lon="-15.5651970">
        <ele>769.09900</ele>
        <time>2009-01-05T12:38:46Z</time>
      </trkpt>
      <trkpt lat="27.90106100" lon="-15.5651040">
        <ele>767.53700</ele>
        <time>2009-01-05T12:38:47Z</time>
      </trkpt>
      <trkpt lat="27.90103100" lon="-15.5650620">
        <ele>766.79000</ele>
        <time>2009-01-05T12:38:48Z</time>
      </trkpt>
      <trkpt lat="27.90098000" lon="-15.5650660">
        <ele>766.13800</ele>
        <time>2009-01-05T12:38:49Z</time>
      </trkpt>
      <trkpt lat="27.90092600" lon="-15.5651060">
        <ele>765.53700</ele>
        <time>2009-01-05T12:38:50Z</time>
      </trkpt>
      <trkpt lat="27.90088300" lon="-15.5651720">
        <ele>765.10500</ele>
        <time>2009-01-05T12:38:51Z</time>
      </trkpt>
      <trkpt lat="27.90085500" lon="-15.5652610">
        <ele>764.60100</ele>
        <time>2009-01-05T12:38:52Z</time>
      </trkpt>
      <trkpt lat="27.90084000" lon="-15.5653610">
        <ele>764.15700</ele>
        <time>2009-01-05T12:38:53Z</time>
      </trkpt>
      <trkpt lat="27.90084700" lon="-15.5654660">
        <ele>763.72200</ele>
        <time>2009-01-05T12:38:54Z</time>
      </trkpt>
      <trkpt lat="27.90087500" lon="-15.5655690">
        <ele>763.10400</ele>
        <time>2009-01-05T12:38:55Z</time>
      </trkpt>
      <trkpt lat="27.90094400" lon="-15.5656620">
        <ele>762.10300</ele>
        <time>2009-01-05T12:38:56Z</time>
      </trkpt>
      <trkpt lat="27.90103200" lon="-15.5657330">
        <ele>761.43700</ele>
        <time>2009-01-05T12:38:57Z</time>
      </trkpt>
      <trkpt lat="27.90111400" lon="-15.5657910">
        <ele>760.25100</ele>
        <time>2009-01-05T12:38:58Z</time>
      </trkpt>
      <trkpt lat="27.90118300" lon="-15.5658450">
        <ele>759.73900</ele>
        <time>2009-01-05T12:38:59Z</time>
      </trkpt>
      <trkpt lat="27.90122000" lon="-15.5659150">
        <ele>759.09000</ele>
        <time>2009-01-05T12:39:00Z</time>
      </trkpt>
      <trkpt lat="27.90121000" lon="-15.5659810">
        <ele>758.14800</ele>
        <time>2009-01-05T12:39:01Z</time>
      </trkpt>
      <trkpt lat="27.90115300" lon="-15.5660200">
        <ele>757.87400</ele>
        <time>2009-01-05T12:39:02Z</time>
      </trkpt>
      <trkpt lat="27.90107700" lon="-15.5660130">
        <ele>757.47600</ele>
        <time>2009-01-05T12:39:03Z</time>
      </trkpt>
      <trkpt lat="27.90100400" lon="-15.5659690">
        <ele>757.08800</ele>
        <time>2009-01-05T12:39:04Z</time>
      </trkpt>
      <trkpt lat="27.90092600" lon="-15.5659140">
        <ele>756.67400</ele>
        <time>2009-01-05T12:39:05Z</time>
      </trkpt>
      <trkpt lat="27.90084600" lon="-15.5658580">
        <ele>756.11500</ele>
        <time>2009-01-05T12:39:06Z</time>
      </trkpt>
      <trkpt lat="27.90076300" lon="-15.5658010">
        <ele>755.50200</ele>
        <time>2009-01-05T12:39:07Z</time>
      </trkpt>
      <trkpt lat="27.90067600" lon="-15.5657470">
        <ele>754.91800</ele>
        <time>2009-01-05T12:39:08Z</time>
      </trkpt>
      <trkpt lat="27.90058900" lon="-15.5656890">
        <ele>754.37700</ele>
        <time>2009-01-05T12:39:09Z</time>
      </trkpt>
      <trkpt lat="27.90050900" lon="-15.5656170">
        <ele>753.38600</ele>
        <time>2009-01-05T12:39:10Z</time>
      </trkpt>
      <trkpt lat="27.90044500" lon="-15.5655280">
        <ele>752.54000</ele>
        <time>2009-01-05T12:39:11Z</time>
      </trkpt>
      <trkpt lat="27.90039600" lon="-15.5654240">
        <ele>751.68400</ele>
        <time>2009-01-05T12:39:12Z</time>
      </trkpt>
      <trkpt lat="27.90036800" lon="-15.5653100">
        <ele>751.24000</ele>
        <time>2009-01-05T12:39:13Z</time>
      </trkpt>
      <trkpt lat="27.90039500" lon="-15.5651790">
        <ele>750.57200</ele>
        <time>2009-01-05T12:39:14Z</time>
      </trkpt>
      <trkpt lat="27.90046200" lon="-15.5650750">
        <ele>749.54400</ele>
        <time>2009-01-05T12:39:15Z</time>
      </trkpt>
      <trkpt lat="27.90054600" lon="-15.5649880">
        <ele>748.87300</ele>
        <time>2009-01-05T12:39:16Z</time>
      </trkpt>
      <trkpt lat="27.90062500" lon="-15.5649110">
        <ele>747.81600</ele>
        <time>2009-01-05T12:39:17Z</time>
      </trkpt>
      <trkpt lat="27.90068600" lon="-15.5648330">
        <ele>747.02100</ele>
        <time>2009-01-05T12:39:18Z</time>
      </trkpt>
      <trkpt lat="27.90070500" lon="-15.5647450">
        <ele>745.96200</ele>
        <time>2009-01-05T12:39:19Z</time>
      </trkpt>
      <trkpt lat="27.90067700" lon="-15.5646530">
        <ele>745.52100</ele>
        <time>2009-01-05T12:39:20Z</time>
      </trkpt>
      <trkpt lat="27.90061300" lon="-15.5645800">
        <ele>744.55700</ele>
        <time>2009-01-05T12:39:21Z</time>
      </trkpt>
      <trkpt lat="27.90053800" lon="-15.5645150">
        <ele>743.84600</ele>
        <time>2009-01-05T12:39:22Z</time>
      </trkpt>
      <trkpt lat="27.90045500" lon="-15.5644590">
        <ele>743.55100</ele>
        <time>2009-01-05T12:39:23Z</time>
      </trkpt>
      <trkpt lat="27.90036400" lon="-15.5644150">
        <ele>742.85600</ele>
        <time>2009-01-05T12:39:24Z</time>
      </trkpt>
      <trkpt lat="27.90026700" lon="-15.5643800">
        <ele>742.25100</ele>
        <time>2009-01-05T12:39:25Z</time>
      </trkpt>
      <trkpt lat="27.89960500" lon="-15.5642390">
        <ele>737.24600</ele>
        <time>2009-01-05T12:39:31Z</time>
      </trkpt>
      <trkpt lat="27.89949300" lon="-15.5641980">
        <ele>737.24600</ele>
        <time>2009-01-05T12:39:32Z</time>
      </trkpt>
      <trkpt lat="27.89938700" lon="-15.5641390">
        <ele>736.72000</ele>
        <time>2009-01-05T12:39:33Z</time>
      </trkpt>
      <trkpt lat="27.89929200" lon="-15.5640590">
        <ele>735.32800</ele>
        <time>2009-01-05T12:39:34Z</time>
      </trkpt>
      <trkpt lat="27.89921300" lon="-15.5639590">
        <ele>734.95000</ele>
        <time>2009-01-05T12:39:35Z</time>
      </trkpt>
      <trkpt lat="27.89914300" lon="-15.5638510">
        <ele>734.29100</ele>
        <time>2009-01-05T12:39:36Z</time>
      </trkpt>
      <trkpt lat="27.89907400" lon="-15.5637410">
        <ele>733.19600</ele>
        <time>2009-01-05T12:39:37Z</time>
      </trkpt>
      <trkpt lat="27.89900500" lon="-15.5636290">
        <ele>731.91800</ele>
        <time>2009-01-05T12:39:38Z</time>
      </trkpt>
      <trkpt lat="27.89893300" lon="-15.5635180">
        <ele>730.35000</ele>
        <time>2009-01-05T12:39:39Z</time>
      </trkpt>
      <trkpt lat="27.89884900" lon="-15.5634130">
        <ele>729.42600</ele>
        <time>2009-01-05T12:39:40Z</time>
      </trkpt>
      <trkpt lat="27.89874900" lon="-15.5633300">
        <ele>727.82100</ele>
        <time>2009-01-05T12:39:41Z</time>
      </trkpt>
      <trkpt lat="27.89863600" lon="-15.5632660">
        <ele>726.95600</ele>
        <time>2009-01-05T12:39:42Z</time>
      </trkpt>
      <trkpt lat="27.89851700" lon="-15.5632130">
        <ele>726.12300</ele>
        <time>2009-01-05T12:39:43Z</time>
      </trkpt>
      <trkpt lat="27.89839500" lon="-15.5631620">
        <ele>725.25800</ele>
        <time>2009-01-05T12:39:44Z</time>
      </trkpt>
      <trkpt lat="27.89827800" lon="-15.5631180">
        <ele>723.88600</ele>
        <time>2009-01-05T12:39:45Z</time>
      </trkpt>
      <trkpt lat="27.89816600" lon="-15.5630920">
        <ele>722.14300</ele>
        <time>2009-01-05T12:39:46Z</time>
      </trkpt>
      <trkpt lat="27.89804700" lon="-15.5631230">
        <ele>721.26800</ele>
        <time>2009-01-05T12:39:47Z</time>
      </trkpt>
      <trkpt lat="27.89793600" lon="-15.5631720">
        <ele>721.13300</ele>
        <time>2009-01-05T12:39:48Z</time>
      </trkpt>
      <trkpt lat="27.89782800" lon="-15.5632310">
        <ele>720.05400</ele>
        <time>2009-01-05T12:39:49Z</time>
      </trkpt>
      <trkpt lat="27.89771400" lon="-15.5632800">
        <ele>718.86200</ele>
        <time>2009-01-05T12:39:50Z</time>
      </trkpt>
      <trkpt lat="27.89758900" lon="-15.5633030">
        <ele>717.65100</ele>
        <time>2009-01-05T12:39:51Z</time>
      </trkpt>
      <trkpt lat="27.89746200" lon="-15.5632830">
        <ele>716.90700</ele>
        <time>2009-01-05T12:39:52Z</time>
      </trkpt>
      <trkpt lat="27.89734300" lon="-15.5632330">
        <ele>716.02900</ele>
        <time>2009-01-05T12:39:53Z</time>
      </trkpt>
      <trkpt lat="27.89723700" lon="-15.5631420">
        <ele>714.22100</ele>
        <time>2009-01-05T12:39:54Z</time>
      </trkpt>
      <trkpt lat="27.89715100" lon="-15.5630390">
        <ele>713.46400</ele>
        <time>2009-01-05T12:39:55Z</time>
      </trkpt>
      <trkpt lat="27.89706800" lon="-15.5629290">
        <ele>711.63000</ele>
        <time>2009-01-05T12:39:56Z</time>
      </trkpt>
      <trkpt lat="27.89698300" lon="-15.5628310">
        <ele>710.59800</ele>
        <time>2009-01-05T12:39:57Z</time>
      </trkpt>
      <trkpt lat="27.89689500" lon="-15.5627550">
        <ele>708.83500</ele>
        <time>2009-01-05T12:39:58Z</time>
      </trkpt>
      <trkpt lat="27.89680600" lon="-15.5626980">
        <ele>706.93500</ele>
        <time>2009-01-05T12:39:59Z</time>
      </trkpt>
      <trkpt lat="27.89671900" lon="-15.5626930">
        <ele>705.66400</ele>
        <time>2009-01-05T12:40:00Z</time>
      </trkpt>
      <trkpt lat="27.89664800" lon="-15.5627520">
        <ele>705.46100</ele>
        <time>2009-01-05T12:40:01Z</time>
      </trkpt>
      <trkpt lat="27.89659400" lon="-15.5628420">
        <ele>704.75900</ele>
        <time>2009-01-05T12:40:02Z</time>
      </trkpt>
      <trkpt lat="27.89655400" lon="-15.5629380">
        <ele>704.35200</ele>
        <time>2009-01-05T12:40:03Z</time>
      </trkpt>
      <trkpt lat="27.89649600" lon="-15.5630340">
        <ele>703.24300</ele>
        <time>2009-01-05T12:40:04Z</time>
      </trkpt>
      <trkpt lat="27.89642200" lon="-15.5631100">
        <ele>703.60600</ele>
        <time>2009-01-05T12:40:05Z</time>
      </trkpt>
      <trkpt lat="27.89633300" lon="-15.5631720">
        <ele>703.13900</ele>
        <time>2009-01-05T12:40:06Z</time>
      </trkpt>
      <trkpt lat="27.89623200" lon="-15.5632200">
        <ele>702.88800</ele>
        <time>2009-01-05T12:40:07Z</time>
      </trkpt>
      <trkpt lat="27.89612400" lon="-15.5632570">
        <ele>702.19600</ele>
        <time>2009-01-05T12:40:08Z</time>
      </trkpt>
      <trkpt lat="27.89601200" lon="-15.5632810">
        <ele>701.36400</ele>
        <time>2009-01-05T12:40:09Z</time>
      </trkpt>
      <trkpt lat="27.89589500" lon="-15.5632930">
        <ele>699.74600</ele>
        <time>2009-01-05T12:40:10Z</time>
      </trkpt>
      <trkpt lat="27.89577600" lon="-15.5632920">
        <ele>698.25300</ele>
        <time>2009-01-05T12:40:11Z</time>
      </trkpt>
      <trkpt lat="27.89565700" lon="-15.5632880">
        <ele>697.82200</ele>
        <time>2009-01-05T12:40:12Z</time>
      </trkpt>
      <trkpt lat="27.89554400" lon="-15.5632820">
        <ele>696.27900</ele>
        <time>2009-01-05T12:40:13Z</time>
      </trkpt>
      <trkpt lat="27.89543900" lon="-15.5632570">
        <ele>695.59400</ele>
        <time>2009-01-05T12:40:14Z</time>
      </trkpt>
      <trkpt lat="27.89535600" lon="-15.5631680">
        <ele>694.09300</ele>
        <time>2009-01-05T12:40:15Z</time>
      </trkpt>
      <trkpt lat="27.89529400" lon="-15.5630670">
        <ele>693.19500</ele>
        <time>2009-01-05T12:40:16Z</time>
      </trkpt>
      <trkpt lat="27.89523600" lon="-15.5629620">
        <ele>691.79700</ele>
        <time>2009-01-05T12:40:17Z</time>
      </trkpt>
      <trkpt lat="27.89515700" lon="-15.5628660">
        <ele>689.91400</ele>
        <time>2009-01-05T12:40:18Z</time>
      </trkpt>
      <trkpt lat="27.89505500" lon="-15.5628230">
        <ele>689.00800</ele>
        <time>2009-01-05T12:40:19Z</time>
      </trkpt>
      <trkpt lat="27.89496200" lon="-15.5628670">
        <ele>688.30600</ele>
        <time>2009-01-05T12:40:20Z</time>
      </trkpt>
      <trkpt lat="27.89487000" lon="-15.5629250">
        <ele>688.28300</ele>
        <time>2009-01-05T12:40:21Z</time>
      </trkpt>
      <trkpt lat="27.89478100" lon="-15.5629890">
        <ele>687.43600</ele>
        <time>2009-01-05T12:40:22Z</time>
      </trkpt>
      <trkpt lat="27.89469100" lon="-15.5630510">
        <ele>686.76100</ele>
        <time>2009-01-05T12:40:23Z</time>
      </trkpt>
      <trkpt lat="27.89459800" lon="-15.5631020">
        <ele>686.19600</ele>
        <time>2009-01-05T12:40:24Z</time>
      </trkpt>
      <trkpt lat="27.89449400" lon="-15.5631240">
        <ele>685.15100</ele>
        <time>2009-01-05T12:40:25Z</time>
      </trkpt>
      <trkpt lat="27.89438600" lon="-15.5631070">
        <ele>684.48400</ele>
        <time>2009-01-05T12:40:26Z</time>
      </trkpt>
      <trkpt lat="27.89427800" lon="-15.5630660">
        <ele>683.26400</ele>
        <time>2009-01-05T12:40:27Z</time>
      </trkpt>
      <trkpt lat="27.89416800" lon="-15.5630140">
        <ele>682.10700</ele>
        <time>2009-01-05T12:40:28Z</time>
      </trkpt>
      <trkpt lat="27.89405600" lon="-15.5629580">
        <ele>681.17800</ele>
        <time>2009-01-05T12:40:29Z</time>
      </trkpt>
      <trkpt lat="27.89393900" lon="-15.5629070">
        <ele>680.01400</ele>
        <time>2009-01-05T12:40:30Z</time>
      </trkpt>
      <trkpt lat="27.89381400" lon="-15.5628770">
        <ele>679.32300</ele>
        <time>2009-01-05T12:40:31Z</time>
      </trkpt>
      <trkpt lat="27.89367500" lon="-15.5628880">
        <ele>677.49000</ele>
        <time>2009-01-05T12:40:32Z</time>
      </trkpt>
      <trkpt lat="27.89355000" lon="-15.5629350">
        <ele>676.36800</ele>
        <time>2009-01-05T12:40:33Z</time>
      </trkpt>
      <trkpt lat="27.89343400" lon="-15.5630050">
        <ele>675.93100</ele>
        <time>2009-01-05T12:40:34Z</time>
      </trkpt>
      <trkpt lat="27.89332500" lon="-15.5630870">
        <ele>675.60400</ele>
        <time>2009-01-05T12:40:35Z</time>
      </trkpt>
      <trkpt lat="27.89321900" lon="-15.5631720">
        <ele>675.69000</ele>
        <time>2009-01-05T12:40:36Z</time>
      </trkpt>
      <trkpt lat="27.89311100" lon="-15.5632550">
        <ele>674.93900</ele>
        <time>2009-01-05T12:40:37Z</time>
      </trkpt>
      <trkpt lat="27.89300200" lon="-15.5633290">
        <ele>673.69800</ele>
        <time>2009-01-05T12:40:38Z</time>
      </trkpt>
      <trkpt lat="27.89290400" lon="-15.5633840">
        <ele>672.05800</ele>
        <time>2009-01-05T12:40:39Z</time>
      </trkpt>
      <trkpt lat="27.89280700" lon="-15.5634180">
        <ele>671.23200</ele>
        <time>2009-01-05T12:40:40Z</time>
      </trkpt>
      <trkpt lat="27.89270300" lon="-15.5634000">
        <ele>670.62300</ele>
        <time>2009-01-05T12:40:41Z</time>
      </trkpt>
      <trkpt lat="27.89260500" lon="-15.5633510">
        <ele>669.54400</ele>
        <time>2009-01-05T12:40:42Z</time>
      </trkpt>
      <trkpt lat="27.89251700" lon="-15.5632790">
        <ele>668.61300</ele>
        <time>2009-01-05T12:40:43Z</time>
      </trkpt>
      <trkpt lat="27.89242900" lon="-15.5631990">
        <ele>667.81700</ele>
        <time>2009-01-05T12:40:44Z</time>
      </trkpt>
      <trkpt lat="27.89233600" lon="-15.5631290">
        <ele>667.02300</ele>
        <time>2009-01-05T12:40:45Z</time>
      </trkpt>
      <trkpt lat="27.89223000" lon="-15.5630700">
        <ele>666.99500</ele>
        <time>2009-01-05T12:40:46Z</time>
      </trkpt>
      <trkpt lat="27.89212400" lon="-15.5630180">
        <ele>665.38800</ele>
        <time>2009-01-05T12:40:47Z</time>
      </trkpt>
      <trkpt lat="27.89201600" lon="-15.5629850">
        <ele>664.36900</ele>
        <time>2009-01-05T12:40:48Z</time>
      </trkpt>
      <trkpt lat="27.89190000" lon="-15.5630020">
        <ele>663.70200</ele>
        <time>2009-01-05T12:40:49Z</time>
      </trkpt>
      <trkpt lat="27.89179600" lon="-15.5630660">
        <ele>663.01900</ele>
        <time>2009-01-05T12:40:50Z</time>
      </trkpt>
      <trkpt lat="27.89170900" lon="-15.5631490">
        <ele>662.65900</ele>
        <time>2009-01-05T12:40:51Z</time>
      </trkpt>
      <trkpt lat="27.89164300" lon="-15.5632420">
        <ele>661.78400</ele>
        <time>2009-01-05T12:40:52Z</time>
      </trkpt>
      <trkpt lat="27.89157700" lon="-15.5633150">
        <ele>661.06900</ele>
        <time>2009-01-05T12:40:53Z</time>
      </trkpt>
      <trkpt lat="27.89150000" lon="-15.5633500">
        <ele>660.27600</ele>
        <time>2009-01-05T12:40:54Z</time>
      </trkpt>
      <trkpt lat="27.89140900" lon="-15.5633540">
        <ele>659.58500</ele>
        <time>2009-01-05T12:40:55Z</time>
      </trkpt>
      <trkpt lat="27.89131300" lon="-15.5633490">
        <ele>659.55600</ele>
        <time>2009-01-05T12:40:56Z</time>
      </trkpt>
      <trkpt lat="27.89121500" lon="-15.5633430">
        <ele>659.23500</ele>
        <time>2009-01-05T12:40:57Z</time>
      </trkpt>
      <trkpt lat="27.89111200" lon="-15.5633330">
        <ele>658.38100</ele>
        <time>2009-01-05T12:40:58Z</time>
      </trkpt>
      <trkpt lat="27.89100500" lon="-15.5633220">
        <ele>657.44100</ele>
        <time>2009-01-05T12:40:59Z</time>
      </trkpt>
      <trkpt lat="27.89089600" lon="-15.5633140">
        <ele>656.28700</ele>
        <time>2009-01-05T12:41:00Z</time>
      </trkpt>
      <trkpt lat="27.89078500" lon="-15.5633080">
        <ele>655.84700</ele>
        <time>2009-01-05T12:41:01Z</time>
      </trkpt>
      <trkpt lat="27.89067300" lon="-15.5633000">
        <ele>655.06000</ele>
        <time>2009-01-05T12:41:02Z</time>
      </trkpt>
      <trkpt lat="27.89056400" lon="-15.5632750">
        <ele>654.75700</ele>
        <time>2009-01-05T12:41:03Z</time>
      </trkpt>
      <trkpt lat="27.89046700" lon="-15.5632040">
        <ele>653.75900</ele>
        <time>2009-01-05T12:41:04Z</time>
      </trkpt>
      <trkpt lat="27.89038000" lon="-15.5631190">
        <ele>652.65000</ele>
        <time>2009-01-05T12:41:05Z</time>
      </trkpt>
      <trkpt lat="27.89030100" lon="-15.5630280">
        <ele>652.18700</ele>
        <time>2009-01-05T12:41:06Z</time>
      </trkpt>
      <trkpt lat="27.89022700" lon="-15.5629330">
        <ele>651.35300</ele>
        <time>2009-01-05T12:41:07Z</time>
      </trkpt>
      <trkpt lat="27.89018500" lon="-15.5628130">
        <ele>650.42300</ele>
        <time>2009-01-05T12:41:08Z</time>
      </trkpt>
      <trkpt lat="27.89016100" lon="-15.5626840">
        <ele>649.66400</ele>
        <time>2009-01-05T12:41:09Z</time>
      </trkpt>
      <trkpt lat="27.89013800" lon="-15.5625460">
        <ele>649.14400</ele>
        <time>2009-01-05T12:41:10Z</time>
      </trkpt>
      <trkpt lat="27.89009600" lon="-15.5624180">
        <ele>648.52300</ele>
        <time>2009-01-05T12:41:11Z</time>
      </trkpt>
      <trkpt lat="27.89002500" lon="-15.5623100">
        <ele>648.50000</ele>
        <time>2009-01-05T12:41:12Z</time>
      </trkpt>
      <trkpt lat="27.88994200" lon="-15.5622510">
        <ele>647.13100</ele>
        <time>2009-01-05T12:41:13Z</time>
      </trkpt>
      <trkpt lat="27.88985500" lon="-15.5622370">
        <ele>646.23300</ele>
        <time>2009-01-05T12:41:14Z</time>
      </trkpt>
      <trkpt lat="27.88977700" lon="-15.5622750">
        <ele>645.53100</ele>
        <time>2009-01-05T12:41:15Z</time>
      </trkpt>
      <trkpt lat="27.88971000" lon="-15.5623420">
        <ele>645.32000</ele>
        <time>2009-01-05T12:41:16Z</time>
      </trkpt>
      <trkpt lat="27.88966000" lon="-15.5624280">
        <ele>644.67900</ele>
        <time>2009-01-05T12:41:17Z</time>
      </trkpt>
      <trkpt lat="27.88961700" lon="-15.5625190">
        <ele>644.23500</ele>
        <time>2009-01-05T12:41:18Z</time>
      </trkpt>
      <trkpt lat="27.88957200" lon="-15.5626110">
        <ele>643.64700</ele>
        <time>2009-01-05T12:41:19Z</time>
      </trkpt>
      <trkpt lat="27.88952300" lon="-15.5627080">
        <ele>643.39600</ele>
        <time>2009-01-05T12:41:20Z</time>
      </trkpt>
      <trkpt lat="27.88945800" lon="-15.5627970">
        <ele>642.80200</ele>
        <time>2009-01-05T12:41:21Z</time>
      </trkpt>
      <trkpt lat="27.88937500" lon="-15.5628700">
        <ele>642.41200</ele>
        <time>2009-01-05T12:41:22Z</time>
      </trkpt>
      <trkpt lat="27.88928400" lon="-15.5629360">
        <ele>641.24500</ele>
        <time>2009-01-05T12:41:23Z</time>
      </trkpt>
      <trkpt lat="27.88919200" lon="-15.5630070">
        <ele>640.59100</ele>
        <time>2009-01-05T12:41:24Z</time>
      </trkpt>
      <trkpt lat="27.88910400" lon="-15.5630890">
        <ele>640.00200</ele>
        <time>2009-01-05T12:41:25Z</time>
      </trkpt>
      <trkpt lat="27.88902100" lon="-15.5631780">
        <ele>639.19200</ele>
        <time>2009-01-05T12:41:26Z</time>
      </trkpt>
      <trkpt lat="27.88894500" lon="-15.5632690">
        <ele>637.72700</ele>
        <time>2009-01-05T12:41:27Z</time>
      </trkpt>
      <trkpt lat="27.88887100" lon="-15.5633430">
        <ele>636.24300</ele>
        <time>2009-01-05T12:41:28Z</time>
      </trkpt>
      <trkpt lat="27.88878600" lon="-15.5633800">
        <ele>635.50500</ele>
        <time>2009-01-05T12:41:29Z</time>
      </trkpt>
      <trkpt lat="27.88869300" lon="-15.5633650">
        <ele>634.77400</ele>
        <time>2009-01-05T12:41:30Z</time>
      </trkpt>
      <trkpt lat="27.88859500" lon="-15.5633300">
        <ele>634.43500</ele>
        <time>2009-01-05T12:41:31Z</time>
      </trkpt>
      <trkpt lat="27.88849300" lon="-15.5632930">
        <ele>633.10200</ele>
        <time>2009-01-05T12:41:32Z</time>
      </trkpt>
      <trkpt lat="27.88838600" lon="-15.5632650">
        <ele>632.02000</ele>
        <time>2009-01-05T12:41:33Z</time>
      </trkpt>
      <trkpt lat="27.88827300" lon="-15.5632550">
        <ele>631.41400</ele>
        <time>2009-01-05T12:41:34Z</time>
      </trkpt>
      <trkpt lat="27.88815800" lon="-15.5632590">
        <ele>631.11600</ele>
        <time>2009-01-05T12:41:35Z</time>
      </trkpt>
      <trkpt lat="27.88804000" lon="-15.5632660">
        <ele>629.06100</ele>
        <time>2009-01-05T12:41:36Z</time>
      </trkpt>
      <trkpt lat="27.88792200" lon="-15.5632700">
        <ele>628.36900</ele>
        <time>2009-01-05T12:41:37Z</time>
      </trkpt>
      <trkpt lat="27.88781300" lon="-15.5632770">
        <ele>626.50900</ele>
        <time>2009-01-05T12:41:38Z</time>
      </trkpt>
      <trkpt lat="27.88771800" lon="-15.5632940">
        <ele>624.40300</ele>
        <time>2009-01-05T12:41:39Z</time>
      </trkpt>
      <trkpt lat="27.88763700" lon="-15.5633340">
        <ele>623.70900</ele>
        <time>2009-01-05T12:41:40Z</time>
      </trkpt>
      <trkpt lat="27.88757200" lon="-15.5634050">
        <ele>622.52600</ele>
        <time>2009-01-05T12:41:41Z</time>
      </trkpt>
      <trkpt lat="27.88753200" lon="-15.5635020">
        <ele>621.38400</ele>
        <time>2009-01-05T12:41:42Z</time>
      </trkpt>
      <trkpt lat="27.88751600" lon="-15.5636130">
        <ele>620.48100</ele>
        <time>2009-01-05T12:41:43Z</time>
      </trkpt>
      <trkpt lat="27.88750900" lon="-15.5637280">
        <ele>619.59100</ele>
        <time>2009-01-05T12:41:44Z</time>
      </trkpt>
      <trkpt lat="27.88748700" lon="-15.5638330">
        <ele>618.97100</ele>
        <time>2009-01-05T12:41:45Z</time>
      </trkpt>
      <trkpt lat="27.88745300" lon="-15.5639230">
        <ele>618.26100</ele>
        <time>2009-01-05T12:41:46Z</time>
      </trkpt>
      <trkpt lat="27.88740000" lon="-15.5639830">
        <ele>617.47000</ele>
        <time>2009-01-05T12:41:47Z</time>
      </trkpt>
      <trkpt lat="27.88732600" lon="-15.5640100">
        <ele>616.81200</ele>
        <time>2009-01-05T12:41:48Z</time>
      </trkpt>
      <trkpt lat="27.88724500" lon="-15.5640100">
        <ele>616.07600</ele>
        <time>2009-01-05T12:41:49Z</time>
      </trkpt>
      <trkpt lat="27.88716200" lon="-15.5639990">
        <ele>615.98800</ele>
        <time>2009-01-05T12:41:50Z</time>
      </trkpt>
      <trkpt lat="27.88707900" lon="-15.5639880">
        <ele>616.06300</ele>
        <time>2009-01-05T12:41:51Z</time>
      </trkpt>
      <trkpt lat="27.88699600" lon="-15.5639770">
        <ele>615.02000</ele>
        <time>2009-01-05T12:41:52Z</time>
      </trkpt>
      <trkpt lat="27.88691100" lon="-15.5639640">
        <ele>614.72500</ele>
        <time>2009-01-05T12:41:53Z</time>
      </trkpt>
      <trkpt lat="27.88682300" lon="-15.5639500">
        <ele>614.34500</ele>
        <time>2009-01-05T12:41:54Z</time>
      </trkpt>
      <trkpt lat="27.88673300" lon="-15.5639380">
        <ele>613.43600</ele>
        <time>2009-01-05T12:41:55Z</time>
      </trkpt>
      <trkpt lat="27.88664100" lon="-15.5639220">
        <ele>612.71200</ele>
        <time>2009-01-05T12:41:56Z</time>
      </trkpt>
      <trkpt lat="27.88655000" lon="-15.5638950">
        <ele>611.85900</ele>
        <time>2009-01-05T12:41:57Z</time>
      </trkpt>
      <trkpt lat="27.88646200" lon="-15.5638510">
        <ele>611.38000</ele>
        <time>2009-01-05T12:41:58Z</time>
      </trkpt>
      <trkpt lat="27.88637800" lon="-15.5637930">
        <ele>610.56900</ele>
        <time>2009-01-05T12:41:59Z</time>
      </trkpt>
      <trkpt lat="27.88629700" lon="-15.5637260">
        <ele>609.80300</ele>
        <time>2009-01-05T12:42:00Z</time>
      </trkpt>
      <trkpt lat="27.88621900" lon="-15.5636510">
        <ele>609.57800</ele>
        <time>2009-01-05T12:42:01Z</time>
      </trkpt>
      <trkpt lat="27.88614000" lon="-15.5635740">
        <ele>609.30600</ele>
        <time>2009-01-05T12:42:02Z</time>
      </trkpt>
      <trkpt lat="27.88605500" lon="-15.5635050">
        <ele>608.22500</ele>
        <time>2009-01-05T12:42:03Z</time>
      </trkpt>
      <trkpt lat="27.88596400" lon="-15.5634500">
        <ele>608.10200</ele>
        <time>2009-01-05T12:42:04Z</time>
      </trkpt>
      <trkpt lat="27.88585800" lon="-15.5634230">
        <ele>607.39400</ele>
        <time>2009-01-05T12:42:05Z</time>
      </trkpt>
      <trkpt lat="27.88575700" lon="-15.5634340">
        <ele>606.82800</ele>
        <time>2009-01-05T12:42:06Z</time>
      </trkpt>
      <trkpt lat="27.88566400" lon="-15.5634800">
        <ele>606.47700</ele>
        <time>2009-01-05T12:42:07Z</time>
      </trkpt>
      <trkpt lat="27.88557700" lon="-15.5635400">
        <ele>606.38700</ele>
        <time>2009-01-05T12:42:08Z</time>
      </trkpt>
      <trkpt lat="27.88550100" lon="-15.5636140">
        <ele>605.68700</ele>
        <time>2009-01-05T12:42:09Z</time>
      </trkpt>
      <trkpt lat="27.88546200" lon="-15.5637240">
        <ele>605.11600</ele>
        <time>2009-01-05T12:42:10Z</time>
      </trkpt>
      <trkpt lat="27.88544400" lon="-15.5638400">
        <ele>605.22600</ele>
        <time>2009-01-05T12:42:11Z</time>
      </trkpt>
      <trkpt lat="27.88544000" lon="-15.5639540">
        <ele>604.79800</ele>
        <time>2009-01-05T12:42:12Z</time>
      </trkpt>
      <trkpt lat="27.88543400" lon="-15.5640620">
        <ele>604.89600</ele>
        <time>2009-01-05T12:42:13Z</time>
      </trkpt>
      <trkpt lat="27.88541600" lon="-15.5641690">
        <ele>604.84600</ele>
        <time>2009-01-05T12:42:14Z</time>
      </trkpt>
      <trkpt lat="27.88539000" lon="-15.5642710">
        <ele>604.70800</ele>
        <time>2009-01-05T12:42:15Z</time>
      </trkpt>
      <trkpt lat="27.88535200" lon="-15.5643690">
        <ele>604.21900</ele>
        <time>2009-01-05T12:42:16Z</time>
      </trkpt>
      <trkpt lat="27.88530800" lon="-15.5644650">
        <ele>603.42800</ele>
        <time>2009-01-05T12:42:17Z</time>
      </trkpt>
      <trkpt lat="27.88526500" lon="-15.5645620">
        <ele>603.14000</ele>
        <time>2009-01-05T12:42:18Z</time>
      </trkpt>
      <trkpt lat="27.88521700" lon="-15.5646570">
        <ele>603.01000</ele>
        <time>2009-01-05T12:42:19Z</time>
      </trkpt>
      <trkpt lat="27.88515700" lon="-15.5647430">
        <ele>602.83800</ele>
        <time>2009-01-05T12:42:20Z</time>
      </trkpt>
      <trkpt lat="27.88508400" lon="-15.5648180">
        <ele>602.23000</ele>
        <time>2009-01-05T12:42:21Z</time>
      </trkpt>
      <trkpt lat="27.88500200" lon="-15.5648870">
        <ele>602.45100</ele>
        <time>2009-01-05T12:42:22Z</time>
      </trkpt>
      <trkpt lat="27.88491400" lon="-15.5649500">
        <ele>601.57600</ele>
        <time>2009-01-05T12:42:23Z</time>
      </trkpt>
      <trkpt lat="27.88482000" lon="-15.5650080">
        <ele>601.27300</ele>
        <time>2009-01-05T12:42:24Z</time>
      </trkpt>
      <trkpt lat="27.88472000" lon="-15.5650620">
        <ele>600.51200</ele>
        <time>2009-01-05T12:42:25Z</time>
      </trkpt>
      <trkpt lat="27.88461500" lon="-15.5651090">
        <ele>599.38300</ele>
        <time>2009-01-05T12:42:26Z</time>
      </trkpt>
      <trkpt lat="27.88450400" lon="-15.5651460">
        <ele>598.27200</ele>
        <time>2009-01-05T12:42:27Z</time>
      </trkpt>
      <trkpt lat="27.88438900" lon="-15.5651730">
        <ele>597.59200</ele>
        <time>2009-01-05T12:42:28Z</time>
      </trkpt>
      <trkpt lat="27.88427200" lon="-15.5651880">
        <ele>596.86200</ele>
        <time>2009-01-05T12:42:29Z</time>
      </trkpt>
      <trkpt lat="27.88415500" lon="-15.5651850">
        <ele>596.52900</ele>
        <time>2009-01-05T12:42:30Z</time>
      </trkpt>
      <trkpt lat="27.88403900" lon="-15.5651700">
        <ele>595.80800</ele>
        <time>2009-01-05T12:42:31Z</time>
      </trkpt>
      <trkpt lat="27.88392200" lon="-15.5651490">
        <ele>595.29500</ele>
        <time>2009-01-05T12:42:32Z</time>
      </trkpt>
      <trkpt lat="27.88380500" lon="-15.5651260">
        <ele>594.47000</ele>
        <time>2009-01-05T12:42:33Z</time>
      </trkpt>
      <trkpt lat="27.88368800" lon="-15.5651010">
        <ele>593.87500</ele>
        <time>2009-01-05T12:42:34Z</time>
      </trkpt>
      <trkpt lat="27.88357100" lon="-15.5650750">
        <ele>593.05300</ele>
        <time>2009-01-05T12:42:35Z</time>
      </trkpt>
      <trkpt lat="27.88345300" lon="-15.5650520">
        <ele>592.73800</ele>
        <time>2009-01-05T12:42:36Z</time>
      </trkpt>
      <trkpt lat="27.88333400" lon="-15.5650300">
        <ele>591.72600</ele>
        <time>2009-01-05T12:42:37Z</time>
      </trkpt>
      <trkpt lat="27.88321600" lon="-15.5650090">
        <ele>591.03800</ele>
        <time>2009-01-05T12:42:38Z</time>
      </trkpt>
      <trkpt lat="27.88309900" lon="-15.5649850">
        <ele>590.68700</ele>
        <time>2009-01-05T12:42:39Z</time>
      </trkpt>
      <trkpt lat="27.88298300" lon="-15.5649600">
        <ele>589.74000</ele>
        <time>2009-01-05T12:42:40Z</time>
      </trkpt>
      <trkpt lat="27.88286700" lon="-15.5649360">
        <ele>589.99400</ele>
        <time>2009-01-05T12:42:41Z</time>
      </trkpt>
      <trkpt lat="27.88275000" lon="-15.5649180">
        <ele>589.21400</ele>
        <time>2009-01-05T12:42:42Z</time>
      </trkpt>
      <trkpt lat="27.88263200" lon="-15.5649120">
        <ele>588.79600</ele>
        <time>2009-01-05T12:42:43Z</time>
      </trkpt>
      <trkpt lat="27.88251400" lon="-15.5649230">
        <ele>588.58700</ele>
        <time>2009-01-05T12:42:44Z</time>
      </trkpt>
      <trkpt lat="27.88239800" lon="-15.5649520">
        <ele>588.25400</ele>
        <time>2009-01-05T12:42:45Z</time>
      </trkpt>
      <trkpt lat="27.88228500" lon="-15.5649880">
        <ele>587.93600</ele>
        <time>2009-01-05T12:42:46Z</time>
      </trkpt>
      <trkpt lat="27.88217100" lon="-15.5650190">
        <ele>587.45200</ele>
        <time>2009-01-05T12:42:47Z</time>
      </trkpt>
      <trkpt lat="27.88205600" lon="-15.5650370">
        <ele>587.11800</ele>
        <time>2009-01-05T12:42:48Z</time>
      </trkpt>
      <trkpt lat="27.88194100" lon="-15.5650370">
        <ele>585.77500</ele>
        <time>2009-01-05T12:42:49Z</time>
      </trkpt>
      <trkpt lat="27.88182400" lon="-15.5650250">
        <ele>584.81000</ele>
        <time>2009-01-05T12:42:50Z</time>
      </trkpt>
      <trkpt lat="27.88170600" lon="-15.5650080">
        <ele>584.43400</ele>
        <time>2009-01-05T12:42:51Z</time>
      </trkpt>
      <trkpt lat="27.88158500" lon="-15.5650040">
        <ele>583.45100</ele>
        <time>2009-01-05T12:42:52Z</time>
      </trkpt>
      <trkpt lat="27.88146300" lon="-15.5650280">
        <ele>581.66400</ele>
        <time>2009-01-05T12:42:53Z</time>
      </trkpt>
      <trkpt lat="27.88134500" lon="-15.5650800">
        <ele>581.40100</ele>
        <time>2009-01-05T12:42:54Z</time>
      </trkpt>
      <trkpt lat="27.88123400" lon="-15.5651520">
        <ele>580.73200</ele>
        <time>2009-01-05T12:42:55Z</time>
      </trkpt>
      <trkpt lat="27.88112900" lon="-15.5652360">
        <ele>579.59400</ele>
        <time>2009-01-05T12:42:56Z</time>
      </trkpt>
      <trkpt lat="27.88103000" lon="-15.5653260">
        <ele>578.76900</ele>
        <time>2009-01-05T12:42:57Z</time>
      </trkpt>
      <trkpt lat="27.88093100" lon="-15.5654150">
        <ele>577.47900</ele>
        <time>2009-01-05T12:42:58Z</time>
      </trkpt>
      <trkpt lat="27.88082700" lon="-15.5654870">
        <ele>576.72500</ele>
        <time>2009-01-05T12:42:59Z</time>
      </trkpt>
      <trkpt lat="27.88071900" lon="-15.5655380">
        <ele>574.87300</ele>
        <time>2009-01-05T12:43:00Z</time>
      </trkpt>
      <trkpt lat="27.88061800" lon="-15.5655870">
        <ele>573.18700</ele>
        <time>2009-01-05T12:43:01Z</time>
      </trkpt>
      <trkpt lat="27.88053200" lon="-15.5656600">
        <ele>571.28400</ele>
        <time>2009-01-05T12:43:02Z</time>
      </trkpt>
      <trkpt lat="27.88047500" lon="-15.5657780">
        <ele>569.99500</ele>
        <time>2009-01-05T12:43:03Z</time>
      </trkpt>
      <trkpt lat="27.88044100" lon="-15.5658980">
        <ele>569.17000</ele>
        <time>2009-01-05T12:43:04Z</time>
      </trkpt>
      <trkpt lat="27.88040000" lon="-15.5660030">
        <ele>567.92100</ele>
        <time>2009-01-05T12:43:05Z</time>
      </trkpt>
      <trkpt lat="27.88032300" lon="-15.5660800">
        <ele>567.14600</ele>
        <time>2009-01-05T12:43:06Z</time>
      </trkpt>
      <trkpt lat="27.88022400" lon="-15.5661390">
        <ele>565.32700</ele>
        <time>2009-01-05T12:43:07Z</time>
      </trkpt>
      <trkpt lat="27.88011200" lon="-15.5661770">
        <ele>564.44500</ele>
        <time>2009-01-05T12:43:08Z</time>
      </trkpt>
      <trkpt lat="27.87999500" lon="-15.5662040">
        <ele>563.52700</ele>
        <time>2009-01-05T12:43:09Z</time>
      </trkpt>
      <trkpt lat="27.87987300" lon="-15.5662180">
        <ele>562.14100</ele>
        <time>2009-01-05T12:43:10Z</time>
      </trkpt>
      <trkpt lat="27.87974600" lon="-15.5662250">
        <ele>560.77000</ele>
        <time>2009-01-05T12:43:11Z</time>
      </trkpt>
      <trkpt lat="27.87961300" lon="-15.5662270">
        <ele>559.18000</ele>
        <time>2009-01-05T12:43:12Z</time>
      </trkpt>
      <trkpt lat="27.87947700" lon="-15.5662260">
        <ele>558.43500</ele>
        <time>2009-01-05T12:43:13Z</time>
      </trkpt>
      <trkpt lat="27.87933600" lon="-15.5662260">
        <ele>556.47000</ele>
        <time>2009-01-05T12:43:14Z</time>
      </trkpt>
      <trkpt lat="27.87919300" lon="-15.5662250">
        <ele>555.67500</ele>
        <time>2009-01-05T12:43:15Z</time>
      </trkpt>
      <trkpt lat="27.87905000" lon="-15.5662190">
        <ele>554.07600</ele>
        <time>2009-01-05T12:43:16Z</time>
      </trkpt>
      <trkpt lat="27.87890600" lon="-15.5662070">
        <ele>552.95800</ele>
        <time>2009-01-05T12:43:17Z</time>
      </trkpt>
      <trkpt lat="27.87876100" lon="-15.5661930">
        <ele>551.54700</ele>
        <time>2009-01-05T12:43:18Z</time>
      </trkpt>
      <trkpt lat="27.87861600" lon="-15.5661860">
        <ele>550.01400</ele>
        <time>2009-01-05T12:43:19Z</time>
      </trkpt>
      <trkpt lat="27.87847100" lon="-15.5661820">
        <ele>549.14200</ele>
        <time>2009-01-05T12:43:20Z</time>
      </trkpt>
      <trkpt lat="27.87832700" lon="-15.5661720">
        <ele>547.42200</ele>
        <time>2009-01-05T12:43:21Z</time>
      </trkpt>
      <trkpt lat="27.87818300" lon="-15.5661540">
        <ele>545.84900</ele>
        <time>2009-01-05T12:43:22Z</time>
      </trkpt>
      <trkpt lat="27.87804000" lon="-15.5661290">
        <ele>545.28100</ele>
        <time>2009-01-05T12:43:23Z</time>
      </trkpt>
      <trkpt lat="27.87789700" lon="-15.5661070">
        <ele>544.34300</ele>
        <time>2009-01-05T12:43:24Z</time>
      </trkpt>
      <trkpt lat="27.87775400" lon="-15.5660960">
        <ele>542.81200</ele>
        <time>2009-01-05T12:43:25Z</time>
      </trkpt>
      <trkpt lat="27.87761300" lon="-15.5661040">
        <ele>541.07300</ele>
        <time>2009-01-05T12:43:26Z</time>
      </trkpt>
      <trkpt lat="27.87747700" lon="-15.5661300">
        <ele>539.78300</ele>
        <time>2009-01-05T12:43:27Z</time>
      </trkpt>
      <trkpt lat="27.87734900" lon="-15.5661610">
        <ele>538.88700</ele>
        <time>2009-01-05T12:43:28Z</time>
      </trkpt>
      <trkpt lat="27.87722400" lon="-15.5661710">
        <ele>537.63200</ele>
        <time>2009-01-05T12:43:29Z</time>
      </trkpt>
      <trkpt lat="27.87710300" lon="-15.5661260">
        <ele>536.47800</ele>
        <time>2009-01-05T12:43:30Z</time>
      </trkpt>
      <trkpt lat="27.87699500" lon="-15.5660580">
        <ele>535.64800</ele>
        <time>2009-01-05T12:43:31Z</time>
      </trkpt>
      <trkpt lat="27.87688900" lon="-15.5659980">
        <ele>535.64800</ele>
        <time>2009-01-05T12:43:32Z</time>
      </trkpt>
      <trkpt lat="27.87678100" lon="-15.5659670">
        <ele>534.63400</ele>
        <time>2009-01-05T12:43:33Z</time>
      </trkpt>
      <trkpt lat="27.87667900" lon="-15.5659910">
        <ele>533.49300</ele>
        <time>2009-01-05T12:43:34Z</time>
      </trkpt>
      <trkpt lat="27.87658400" lon="-15.5660430">
        <ele>532.84700</ele>
        <time>2009-01-05T12:43:35Z</time>
      </trkpt>
      <trkpt lat="27.87649600" lon="-15.5661110">
        <ele>532.86100</ele>
        <time>2009-01-05T12:43:36Z</time>
      </trkpt>
      <trkpt lat="27.87640300" lon="-15.5661740">
        <ele>532.32800</ele>
        <time>2009-01-05T12:43:37Z</time>
      </trkpt>
      <trkpt lat="27.87629400" lon="-15.5662200">
        <ele>531.69400</ele>
        <time>2009-01-05T12:43:38Z</time>
      </trkpt>
      <trkpt lat="27.87618000" lon="-15.5662460">
        <ele>531.51800</ele>
        <time>2009-01-05T12:43:39Z</time>
      </trkpt>
      <trkpt lat="27.87605900" lon="-15.5662470">
        <ele>530.88400</ele>
        <time>2009-01-05T12:43:40Z</time>
      </trkpt>
      <trkpt lat="27.87593800" lon="-15.5662310">
        <ele>530.03100</ele>
        <time>2009-01-05T12:43:41Z</time>
      </trkpt>
      <trkpt lat="27.87581600" lon="-15.5662060">
        <ele>529.56900</ele>
        <time>2009-01-05T12:43:42Z</time>
      </trkpt>
      <trkpt lat="27.87569400" lon="-15.5661800">
        <ele>527.95200</ele>
        <time>2009-01-05T12:43:43Z</time>
      </trkpt>
      <trkpt lat="27.87557200" lon="-15.5661570">
        <ele>526.65000</ele>
        <time>2009-01-05T12:43:44Z</time>
      </trkpt>
      <trkpt lat="27.87544900" lon="-15.5661500">
        <ele>525.35000</ele>
        <time>2009-01-05T12:43:45Z</time>
      </trkpt>
      <trkpt lat="27.87532600" lon="-15.5661690">
        <ele>524.17200</ele>
        <time>2009-01-05T12:43:46Z</time>
      </trkpt>
      <trkpt lat="27.87520300" lon="-15.5662060">
        <ele>523.24800</ele>
        <time>2009-01-05T12:43:47Z</time>
      </trkpt>
      <trkpt lat="27.87507800" lon="-15.5662460">
        <ele>522.36300</ele>
        <time>2009-01-05T12:43:48Z</time>
      </trkpt>
      <trkpt lat="27.87495100" lon="-15.5662740">
        <ele>520.83400</ele>
        <time>2009-01-05T12:43:49Z</time>
      </trkpt>
      <trkpt lat="27.87482600" lon="-15.5662720">
        <ele>520.22400</ele>
        <time>2009-01-05T12:43:50Z</time>
      </trkpt>
      <trkpt lat="27.87472300" lon="-15.5662030">
        <ele>519.02800</ele>
        <time>2009-01-05T12:43:51Z</time>
      </trkpt>
      <trkpt lat="27.87463100" lon="-15.5660800">
        <ele>518.17500</ele>
        <time>2009-01-05T12:43:52Z</time>
      </trkpt>
      <trkpt lat="27.87455900" lon="-15.5659740">
        <ele>517.68700</ele>
        <time>2009-01-05T12:43:53Z</time>
      </trkpt>
      <trkpt lat="27.87449100" lon="-15.5658580">
        <ele>517.94700</ele>
        <time>2009-01-05T12:43:54Z</time>
      </trkpt>
      <trkpt lat="27.87441700" lon="-15.5657470">
        <ele>517.41200</ele>
        <time>2009-01-05T12:43:55Z</time>
      </trkpt>
      <trkpt lat="27.87432600" lon="-15.5656510">
        <ele>517.61600</ele>
        <time>2009-01-05T12:43:56Z</time>
      </trkpt>
      <trkpt lat="27.87422300" lon="-15.5655770">
        <ele>517.08900</ele>
        <time>2009-01-05T12:43:57Z</time>
      </trkpt>
      <trkpt lat="27.87411600" lon="-15.5655140">
        <ele>516.67000</ele>
        <time>2009-01-05T12:43:58Z</time>
      </trkpt>
      <trkpt lat="27.87401100" lon="-15.5654510">
        <ele>516.60700</ele>
        <time>2009-01-05T12:43:59Z</time>
      </trkpt>
      <trkpt lat="27.87391100" lon="-15.5653790">
        <ele>516.36800</ele>
        <time>2009-01-05T12:44:00Z</time>
      </trkpt>
      <trkpt lat="27.87381500" lon="-15.5653000">
        <ele>516.02300</ele>
        <time>2009-01-05T12:44:01Z</time>
      </trkpt>
      <trkpt lat="27.87372000" lon="-15.5652170">
        <ele>515.13300</ele>
        <time>2009-01-05T12:44:02Z</time>
      </trkpt>
      <trkpt lat="27.87362800" lon="-15.5651260">
        <ele>513.66200</ele>
        <time>2009-01-05T12:44:03Z</time>
      </trkpt>
      <trkpt lat="27.87353000" lon="-15.5650320">
        <ele>511.61800</ele>
        <time>2009-01-05T12:44:04Z</time>
      </trkpt>
      <trkpt lat="27.87342200" lon="-15.5649430">
        <ele>509.38600</ele>
        <time>2009-01-05T12:44:05Z</time>
      </trkpt>
      <trkpt lat="27.87330500" lon="-15.5648590">
        <ele>507.91900</ele>
        <time>2009-01-05T12:44:06Z</time>
      </trkpt>
      <trkpt lat="27.87318100" lon="-15.5647760">
        <ele>506.69200</ele>
        <time>2009-01-05T12:44:07Z</time>
      </trkpt>
      <trkpt lat="27.87305400" lon="-15.5646910">
        <ele>505.09800</ele>
        <time>2009-01-05T12:44:08Z</time>
      </trkpt>
      <trkpt lat="27.87292700" lon="-15.5645990">
        <ele>503.21300</ele>
        <time>2009-01-05T12:44:09Z</time>
      </trkpt>
      <trkpt lat="27.87280500" lon="-15.5644940">
        <ele>501.05600</ele>
        <time>2009-01-05T12:44:10Z</time>
      </trkpt>
      <trkpt lat="27.87269600" lon="-15.5643700">
        <ele>499.40800</ele>
        <time>2009-01-05T12:44:11Z</time>
      </trkpt>
      <trkpt lat="27.87260000" lon="-15.5642300">
        <ele>499.19600</ele>
        <time>2009-01-05T12:44:12Z</time>
      </trkpt>
      <trkpt lat="27.87250300" lon="-15.5640890">
        <ele>497.75200</ele>
        <time>2009-01-05T12:44:13Z</time>
      </trkpt>
      <trkpt lat="27.87239900" lon="-15.5639580">
        <ele>495.81600</ele>
        <time>2009-01-05T12:44:14Z</time>
      </trkpt>
      <trkpt lat="27.87229600" lon="-15.5638370">
        <ele>494.45000</ele>
        <time>2009-01-05T12:44:15Z</time>
      </trkpt>
      <trkpt lat="27.87219900" lon="-15.5637310">
        <ele>492.63300</ele>
        <time>2009-01-05T12:44:16Z</time>
      </trkpt>
      <trkpt lat="27.87210900" lon="-15.5636450">
        <ele>491.63000</ele>
        <time>2009-01-05T12:44:17Z</time>
      </trkpt>
      <trkpt lat="27.87201500" lon="-15.5636010">
        <ele>490.28700</ele>
        <time>2009-01-05T12:44:18Z</time>
      </trkpt>
      <trkpt lat="27.87192500" lon="-15.5636190">
        <ele>488.94800</ele>
        <time>2009-01-05T12:44:19Z</time>
      </trkpt>
      <trkpt lat="27.87185400" lon="-15.5636910">
        <ele>488.90200</ele>
        <time>2009-01-05T12:44:20Z</time>
      </trkpt>
      <trkpt lat="27.87181600" lon="-15.5637780">
        <ele>488.70800</ele>
        <time>2009-01-05T12:44:21Z</time>
      </trkpt>
      <trkpt lat="27.87180400" lon="-15.5638760">
        <ele>488.78600</ele>
        <time>2009-01-05T12:44:22Z</time>
      </trkpt>
      <trkpt lat="27.87181100" lon="-15.5639760">
        <ele>489.49000</ele>
        <time>2009-01-05T12:44:23Z</time>
      </trkpt>
      <trkpt lat="27.87181500" lon="-15.5640730">
        <ele>489.84500</ele>
        <time>2009-01-05T12:44:24Z</time>
      </trkpt>
      <trkpt lat="27.87181600" lon="-15.5641680">
        <ele>489.82700</ele>
        <time>2009-01-05T12:44:25Z</time>
      </trkpt>
      <trkpt lat="27.87181100" lon="-15.5642650">
        <ele>489.95900</ele>
        <time>2009-01-05T12:44:26Z</time>
      </trkpt>
      <trkpt lat="27.87179900" lon="-15.5643620">
        <ele>489.40700</ele>
        <time>2009-01-05T12:44:27Z</time>
      </trkpt>
      <trkpt lat="27.87178000" lon="-15.5644570">
        <ele>489.94400</ele>
        <time>2009-01-05T12:44:28Z</time>
      </trkpt>
      <trkpt lat="27.87175300" lon="-15.5645510">
        <ele>490.29600</ele>
        <time>2009-01-05T12:44:29Z</time>
      </trkpt>
      <trkpt lat="27.87171900" lon="-15.5646390">
        <ele>490.60300</ele>
        <time>2009-01-05T12:44:30Z</time>
      </trkpt>
      <trkpt lat="27.87167700" lon="-15.5647220">
        <ele>490.63300</ele>
        <time>2009-01-05T12:44:31Z</time>
      </trkpt>
      <trkpt lat="27.87162400" lon="-15.5647960">
        <ele>491.27000</ele>
        <time>2009-01-05T12:44:32Z</time>
      </trkpt>
      <trkpt lat="27.87155700" lon="-15.5648570">
        <ele>491.04900</ele>
        <time>2009-01-05T12:44:33Z</time>
      </trkpt>
      <trkpt lat="27.87148100" lon="-15.5649070">
        <ele>490.77700</ele>
        <time>2009-01-05T12:44:34Z</time>
      </trkpt>
      <trkpt lat="27.87140200" lon="-15.5649530">
        <ele>490.71900</ele>
        <time>2009-01-05T12:44:35Z</time>
      </trkpt>
      <trkpt lat="27.87132400" lon="-15.5650040">
        <ele>490.23300</ele>
        <time>2009-01-05T12:44:36Z</time>
      </trkpt>
      <trkpt lat="27.87125000" lon="-15.5650660">
        <ele>490.03800</ele>
        <time>2009-01-05T12:44:37Z</time>
      </trkpt>
      <trkpt lat="27.87117900" lon="-15.5651340">
        <ele>489.86700</ele>
        <time>2009-01-05T12:44:38Z</time>
      </trkpt>
      <trkpt lat="27.87110400" lon="-15.5651950">
        <ele>490.04500</ele>
        <time>2009-01-05T12:44:39Z</time>
      </trkpt>
      <trkpt lat="27.87101700" lon="-15.5652360">
        <ele>489.64700</ele>
        <time>2009-01-05T12:44:40Z</time>
      </trkpt>
      <trkpt lat="27.87092300" lon="-15.5652560">
        <ele>489.15100</ele>
        <time>2009-01-05T12:44:41Z</time>
      </trkpt>
      <trkpt lat="27.87082400" lon="-15.5652610">
        <ele>488.62900</ele>
        <time>2009-01-05T12:44:42Z</time>
      </trkpt>
      <trkpt lat="27.87072200" lon="-15.5652540">
        <ele>487.93700</ele>
        <time>2009-01-05T12:44:43Z</time>
      </trkpt>
      <trkpt lat="27.87062000" lon="-15.5652280">
        <ele>487.35100</ele>
        <time>2009-01-05T12:44:44Z</time>
      </trkpt>
      <trkpt lat="27.87052200" lon="-15.5651810">
        <ele>486.63300</ele>
        <time>2009-01-05T12:44:45Z</time>
      </trkpt>
      <trkpt lat="27.87042500" lon="-15.5651310">
        <ele>486.16100</ele>
        <time>2009-01-05T12:44:46Z</time>
      </trkpt>
      <trkpt lat="27.87032100" lon="-15.5651000">
        <ele>486.13800</ele>
        <time>2009-01-05T12:44:47Z</time>
      </trkpt>
      <trkpt lat="27.87021500" lon="-15.5650970">
        <ele>485.39900</ele>
        <time>2009-01-05T12:44:48Z</time>
      </trkpt>
      <trkpt lat="27.87010900" lon="-15.5651190">
        <ele>485.03300</ele>
        <time>2009-01-05T12:44:49Z</time>
      </trkpt>
      <trkpt lat="27.87000400" lon="-15.5651490">
        <ele>485.19800</ele>
        <time>2009-01-05T12:44:50Z</time>
      </trkpt>
      <trkpt lat="27.86989900" lon="-15.5651630">
        <ele>485.07200</ele>
        <time>2009-01-05T12:44:51Z</time>
      </trkpt>
      <trkpt lat="27.86979300" lon="-15.5651530">
        <ele>484.76300</ele>
        <time>2009-01-05T12:44:52Z</time>
      </trkpt>
      <trkpt lat="27.86969000" lon="-15.5651260">
        <ele>484.06900</ele>
        <time>2009-01-05T12:44:53Z</time>
      </trkpt>
      <trkpt lat="27.86958900" lon="-15.5650910">
        <ele>484.03300</ele>
        <time>2009-01-05T12:44:54Z</time>
      </trkpt>
      <trkpt lat="27.86949000" lon="-15.5650500">
        <ele>483.42300</ele>
        <time>2009-01-05T12:44:55Z</time>
      </trkpt>
      <trkpt lat="27.86939200" lon="-15.5650060">
        <ele>482.88200</ele>
        <time>2009-01-05T12:44:56Z</time>
      </trkpt>
      <trkpt lat="27.86929600" lon="-15.5649600">
        <ele>482.80200</ele>
        <time>2009-01-05T12:44:57Z</time>
      </trkpt>
      <trkpt lat="27.86920000" lon="-15.5649120">
        <ele>482.31100</ele>
        <time>2009-01-05T12:44:58Z</time>
      </trkpt>
      <trkpt lat="27.86910700" lon="-15.5648610">
        <ele>481.95300</ele>
        <time>2009-01-05T12:44:59Z</time>
      </trkpt>
      <trkpt lat="27.86901300" lon="-15.5648120">
        <ele>481.80900</ele>
        <time>2009-01-05T12:45:00Z</time>
      </trkpt>
      <trkpt lat="27.86891900" lon="-15.5647650">
        <ele>481.43800</ele>
        <time>2009-01-05T12:45:01Z</time>
      </trkpt>
      <trkpt lat="27.86882500" lon="-15.5647200">
        <ele>481.19600</ele>
        <time>2009-01-05T12:45:02Z</time>
      </trkpt>
      <trkpt lat="27.86872700" lon="-15.5646840">
        <ele>481.33300</ele>
        <time>2009-01-05T12:45:03Z</time>
      </trkpt>
      <trkpt lat="27.86862600" lon="-15.5646620">
        <ele>480.89300</ele>
        <time>2009-01-05T12:45:04Z</time>
      </trkpt>
      <trkpt lat="27.86852300" lon="-15.5646560">
        <ele>480.91800</ele>
        <time>2009-01-05T12:45:05Z</time>
      </trkpt>
      <trkpt lat="27.86842200" lon="-15.5646610">
        <ele>481.33700</ele>
        <time>2009-01-05T12:45:06Z</time>
      </trkpt>
      <trkpt lat="27.86832100" lon="-15.5646690">
        <ele>480.81300</ele>
        <time>2009-01-05T12:45:07Z</time>
      </trkpt>
      <trkpt lat="27.86822100" lon="-15.5646760">
        <ele>480.73700</ele>
        <time>2009-01-05T12:45:08Z</time>
      </trkpt>
      <trkpt lat="27.86812100" lon="-15.5646810">
        <ele>480.32100</ele>
        <time>2009-01-05T12:45:09Z</time>
      </trkpt>
      <trkpt lat="27.86802200" lon="-15.5646870">
        <ele>480.39100</ele>
        <time>2009-01-05T12:45:10Z</time>
      </trkpt>
      <trkpt lat="27.86792400" lon="-15.5646940">
        <ele>479.86400</ele>
        <time>2009-01-05T12:45:11Z</time>
      </trkpt>
      <trkpt lat="27.86782700" lon="-15.5647010">
        <ele>479.72000</ele>
        <time>2009-01-05T12:45:12Z</time>
      </trkpt>
      <trkpt lat="27.86773000" lon="-15.5647060">
        <ele>479.99600</ele>
        <time>2009-01-05T12:45:13Z</time>
      </trkpt>
      <trkpt lat="27.86763500" lon="-15.5647100">
        <ele>479.99800</ele>
        <time>2009-01-05T12:45:14Z</time>
      </trkpt>
      <trkpt lat="27.86754000" lon="-15.5647150">
        <ele>479.42000</ele>
        <time>2009-01-05T12:45:15Z</time>
      </trkpt>
      <trkpt lat="27.86744600" lon="-15.5647200">
        <ele>479.58000</ele>
        <time>2009-01-05T12:45:16Z</time>
      </trkpt>
      <trkpt lat="27.86735100" lon="-15.5647260">
        <ele>478.92000</ele>
        <time>2009-01-05T12:45:17Z</time>
      </trkpt>
      <trkpt lat="27.86725700" lon="-15.5647320">
        <ele>479.19600</ele>
        <time>2009-01-05T12:45:18Z</time>
      </trkpt>
      <trkpt lat="27.86716300" lon="-15.5647390">
        <ele>478.84100</ele>
        <time>2009-01-05T12:45:19Z</time>
      </trkpt>
      <trkpt lat="27.86706900" lon="-15.5647440">
        <ele>478.91000</ele>
        <time>2009-01-05T12:45:20Z</time>
      </trkpt>
      <trkpt lat="27.86697600" lon="-15.5647480">
        <ele>478.14800</ele>
        <time>2009-01-05T12:45:21Z</time>
      </trkpt>
      <trkpt lat="27.86688300" lon="-15.5647540">
        <ele>477.23400</ele>
        <time>2009-01-05T12:45:22Z</time>
      </trkpt>
      <trkpt lat="27.86679100" lon="-15.5647660">
        <ele>477.09500</ele>
        <time>2009-01-05T12:45:23Z</time>
      </trkpt>
      <trkpt lat="27.86670100" lon="-15.5647900">
        <ele>476.97000</ele>
        <time>2009-01-05T12:45:24Z</time>
      </trkpt>
      <trkpt lat="27.86661200" lon="-15.5648240">
        <ele>476.72800</ele>
        <time>2009-01-05T12:45:25Z</time>
      </trkpt>
      <trkpt lat="27.86652500" lon="-15.5648640">
        <ele>476.83500</ele>
        <time>2009-01-05T12:45:26Z</time>
      </trkpt>
      <trkpt lat="27.86643800" lon="-15.5649030">
        <ele>476.27700</ele>
        <time>2009-01-05T12:45:27Z</time>
      </trkpt>
      <trkpt lat="27.86635100" lon="-15.5649410">
        <ele>476.50000</ele>
        <time>2009-01-05T12:45:28Z</time>
      </trkpt>
      <trkpt lat="27.86626200" lon="-15.5649730">
        <ele>476.73400</ele>
        <time>2009-01-05T12:45:29Z</time>
      </trkpt>
      <trkpt lat="27.86617000" lon="-15.5649930">
        <ele>476.38100</ele>
        <time>2009-01-05T12:45:30Z</time>
      </trkpt>
      <trkpt lat="27.86607600" lon="-15.5649980">
        <ele>476.16000</ele>
        <time>2009-01-05T12:45:31Z</time>
      </trkpt>
      <trkpt lat="27.86598000" lon="-15.5649920">
        <ele>475.22000</ele>
        <time>2009-01-05T12:45:32Z</time>
      </trkpt>
      <trkpt lat="27.86588200" lon="-15.5649760">
        <ele>474.51900</ele>
        <time>2009-01-05T12:45:33Z</time>
      </trkpt>
      <trkpt lat="27.86578300" lon="-15.5649480">
        <ele>473.35400</ele>
        <time>2009-01-05T12:45:34Z</time>
      </trkpt>
      <trkpt lat="27.86568700" lon="-15.5649050">
        <ele>473.03000</ele>
        <time>2009-01-05T12:45:35Z</time>
      </trkpt>
      <trkpt lat="27.86560000" lon="-15.5648390">
        <ele>472.25000</ele>
        <time>2009-01-05T12:45:36Z</time>
      </trkpt>
      <trkpt lat="27.86551900" lon="-15.5647600">
        <ele>471.43700</ele>
        <time>2009-01-05T12:45:37Z</time>
      </trkpt>
      <trkpt lat="27.86543300" lon="-15.5646800">
        <ele>470.12500</ele>
        <time>2009-01-05T12:45:38Z</time>
      </trkpt>
      <trkpt lat="27.86533500" lon="-15.5646190">
        <ele>468.42700</ele>
        <time>2009-01-05T12:45:39Z</time>
      </trkpt>
      <trkpt lat="27.86523000" lon="-15.5645900">
        <ele>467.21300</ele>
        <time>2009-01-05T12:45:40Z</time>
      </trkpt>
      <trkpt lat="27.86513100" lon="-15.5645980">
        <ele>465.52300</ele>
        <time>2009-01-05T12:45:41Z</time>
      </trkpt>
      <trkpt lat="27.86504000" lon="-15.5646290">
        <ele>465.15700</ele>
        <time>2009-01-05T12:45:42Z</time>
      </trkpt>
      <trkpt lat="27.86496200" lon="-15.5646810">
        <ele>465.29400</ele>
        <time>2009-01-05T12:45:43Z</time>
      </trkpt>
      <trkpt lat="27.86490800" lon="-15.5647590">
        <ele>465.49100</ele>
        <time>2009-01-05T12:45:44Z</time>
      </trkpt>
      <trkpt lat="27.86488100" lon="-15.5648500">
        <ele>465.34400</ele>
        <time>2009-01-05T12:45:45Z</time>
      </trkpt>
      <trkpt lat="27.86487200" lon="-15.5649450">
        <ele>465.77800</ele>
        <time>2009-01-05T12:45:46Z</time>
      </trkpt>
      <trkpt lat="27.86486500" lon="-15.5650430">
        <ele>465.94800</ele>
        <time>2009-01-05T12:45:47Z</time>
      </trkpt>
      <trkpt lat="27.86485200" lon="-15.5651410">
        <ele>465.93300</ele>
        <time>2009-01-05T12:45:48Z</time>
      </trkpt>
      <trkpt lat="27.86483600" lon="-15.5652390">
        <ele>466.02800</ele>
        <time>2009-01-05T12:45:49Z</time>
      </trkpt>
      <trkpt lat="27.86481900" lon="-15.5653380">
        <ele>466.18300</ele>
        <time>2009-01-05T12:45:50Z</time>
      </trkpt>
      <trkpt lat="27.86480100" lon="-15.5654380">
        <ele>465.63100</ele>
        <time>2009-01-05T12:45:51Z</time>
      </trkpt>
      <trkpt lat="27.86478100" lon="-15.5655380">
        <ele>465.98900</ele>
        <time>2009-01-05T12:45:52Z</time>
      </trkpt>
      <trkpt lat="27.86475600" lon="-15.5656360">
        <ele>465.28600</ele>
        <time>2009-01-05T12:45:53Z</time>
      </trkpt>
      <trkpt lat="27.86471900" lon="-15.5657320">
        <ele>465.03400</ele>
        <time>2009-01-05T12:45:54Z</time>
      </trkpt>
      <trkpt lat="27.86466800" lon="-15.5658170">
        <ele>465.85000</ele>
        <time>2009-01-05T12:45:55Z</time>
      </trkpt>
      <trkpt lat="27.86460500" lon="-15.5658920">
        <ele>465.68400</ele>
        <time>2009-01-05T12:45:56Z</time>
      </trkpt>
      <trkpt lat="27.86453200" lon="-15.5659570">
        <ele>465.03900</ele>
        <time>2009-01-05T12:45:57Z</time>
      </trkpt>
      <trkpt lat="27.86445200" lon="-15.5660170">
        <ele>464.65000</ele>
        <time>2009-01-05T12:45:58Z</time>
      </trkpt>
      <trkpt lat="27.86436600" lon="-15.5660720">
        <ele>464.04800</ele>
        <time>2009-01-05T12:45:59Z</time>
      </trkpt>
      <trkpt lat="27.86427400" lon="-15.5661260">
        <ele>463.27600</ele>
        <time>2009-01-05T12:46:00Z</time>
      </trkpt>
      <trkpt lat="27.86417900" lon="-15.5661810">
        <ele>463.01200</ele>
        <time>2009-01-05T12:46:01Z</time>
      </trkpt>
      <trkpt lat="27.86408100" lon="-15.5662390">
        <ele>461.96400</ele>
        <time>2009-01-05T12:46:02Z</time>
      </trkpt>
      <trkpt lat="27.86398100" lon="-15.5663000">
        <ele>460.82500</ele>
        <time>2009-01-05T12:46:03Z</time>
      </trkpt>
      <trkpt lat="27.86388000" lon="-15.5663630">
        <ele>460.66900</ele>
        <time>2009-01-05T12:46:04Z</time>
      </trkpt>
      <trkpt lat="27.86377800" lon="-15.5664270">
        <ele>460.37600</ele>
        <time>2009-01-05T12:46:05Z</time>
      </trkpt>
      <trkpt lat="27.86367100" lon="-15.5664840">
        <ele>459.42000</ele>
        <time>2009-01-05T12:46:06Z</time>
      </trkpt>
      <trkpt lat="27.86355900" lon="-15.5665320">
        <ele>458.24200</ele>
        <time>2009-01-05T12:46:07Z</time>
      </trkpt>
      <trkpt lat="27.86344100" lon="-15.5665700">
        <ele>457.25400</ele>
        <time>2009-01-05T12:46:08Z</time>
      </trkpt>
      <trkpt lat="27.86332000" lon="-15.5666030">
        <ele>456.50100</ele>
        <time>2009-01-05T12:46:09Z</time>
      </trkpt>
      <trkpt lat="27.86319900" lon="-15.5666350">
        <ele>455.66100</ele>
        <time>2009-01-05T12:46:10Z</time>
      </trkpt>
      <trkpt lat="27.86307700" lon="-15.5666690">
        <ele>455.39500</ele>
        <time>2009-01-05T12:46:11Z</time>
      </trkpt>
      <trkpt lat="27.86295800" lon="-15.5667130">
        <ele>454.11600</ele>
        <time>2009-01-05T12:46:12Z</time>
      </trkpt>
      <trkpt lat="27.86284500" lon="-15.5667730">
        <ele>452.34600</ele>
        <time>2009-01-05T12:46:13Z</time>
      </trkpt>
      <trkpt lat="27.86273800" lon="-15.5668440">
        <ele>451.74100</ele>
        <time>2009-01-05T12:46:14Z</time>
      </trkpt>
      <trkpt lat="27.86262900" lon="-15.5669130">
        <ele>451.23200</ele>
        <time>2009-01-05T12:46:15Z</time>
      </trkpt>
      <trkpt lat="27.86251400" lon="-15.5669600">
        <ele>450.98700</ele>
        <time>2009-01-05T12:46:16Z</time>
      </trkpt>
      <trkpt lat="27.86239300" lon="-15.5669770">
        <ele>450.00200</ele>
        <time>2009-01-05T12:46:17Z</time>
      </trkpt>
      <trkpt lat="27.86227200" lon="-15.5669670">
        <ele>448.56800</ele>
        <time>2009-01-05T12:46:18Z</time>
      </trkpt>
      <trkpt lat="27.86215300" lon="-15.5669400">
        <ele>447.85500</ele>
        <time>2009-01-05T12:46:19Z</time>
      </trkpt>
      <trkpt lat="27.86203700" lon="-15.5669040">
        <ele>447.18700</ele>
        <time>2009-01-05T12:46:20Z</time>
      </trkpt>
      <trkpt lat="27.86192600" lon="-15.5668540">
        <ele>445.26900</ele>
        <time>2009-01-05T12:46:21Z</time>
      </trkpt>
      <trkpt lat="27.86182000" lon="-15.5667880">
        <ele>445.09600</ele>
        <time>2009-01-05T12:46:22Z</time>
      </trkpt>
      <trkpt lat="27.86171900" lon="-15.5667110">
        <ele>443.64100</ele>
        <time>2009-01-05T12:46:23Z</time>
      </trkpt>
      <trkpt lat="27.86162500" lon="-15.5666230">
        <ele>443.41400</ele>
        <time>2009-01-05T12:46:24Z</time>
      </trkpt>
      <trkpt lat="27.86153700" lon="-15.5665230">
        <ele>442.48300</ele>
        <time>2009-01-05T12:46:25Z</time>
      </trkpt>
      <trkpt lat="27.86145200" lon="-15.5664170">
        <ele>441.06700</ele>
        <time>2009-01-05T12:46:26Z</time>
      </trkpt>
      <trkpt lat="27.86136800" lon="-15.5663090">
        <ele>440.20400</ele>
        <time>2009-01-05T12:46:27Z</time>
      </trkpt>
      <trkpt lat="27.86128300" lon="-15.5661970">
        <ele>438.93900</ele>
        <time>2009-01-05T12:46:28Z</time>
      </trkpt>
      <trkpt lat="27.86119600" lon="-15.5660850">
        <ele>438.29000</ele>
        <time>2009-01-05T12:46:29Z</time>
      </trkpt>
      <trkpt lat="27.86110500" lon="-15.5659750">
        <ele>437.18900</ele>
        <time>2009-01-05T12:46:30Z</time>
      </trkpt>
      <trkpt lat="27.86100700" lon="-15.5658700">
        <ele>436.21800</ele>
        <time>2009-01-05T12:46:31Z</time>
      </trkpt>
      <trkpt lat="27.86090000" lon="-15.5657730">
        <ele>434.45200</ele>
        <time>2009-01-05T12:46:32Z</time>
      </trkpt>
      <trkpt lat="27.86078600" lon="-15.5656850">
        <ele>432.74900</ele>
        <time>2009-01-05T12:46:33Z</time>
      </trkpt>
      <trkpt lat="27.86066700" lon="-15.5656000">
        <ele>432.41000</ele>
        <time>2009-01-05T12:46:34Z</time>
      </trkpt>
      <trkpt lat="27.86054700" lon="-15.5655160">
        <ele>430.66300</ele>
        <time>2009-01-05T12:46:35Z</time>
      </trkpt>
      <trkpt lat="27.86042100" lon="-15.5654390">
        <ele>429.41000</ele>
        <time>2009-01-05T12:46:36Z</time>
      </trkpt>
      <trkpt lat="27.86028800" lon="-15.5653800">
        <ele>427.77400</ele>
        <time>2009-01-05T12:46:37Z</time>
      </trkpt>
      <trkpt lat="27.86014800" lon="-15.5653420">
        <ele>427.03600</ele>
        <time>2009-01-05T12:46:38Z</time>
      </trkpt>
      <trkpt lat="27.86000500" lon="-15.5653220">
        <ele>426.05100</ele>
        <time>2009-01-05T12:46:39Z</time>
      </trkpt>
      <trkpt lat="27.85986300" lon="-15.5653110">
        <ele>424.45500</ele>
        <time>2009-01-05T12:46:40Z</time>
      </trkpt>
      <trkpt lat="27.85972200" lon="-15.5652980">
        <ele>423.66400</ele>
        <time>2009-01-05T12:46:41Z</time>
      </trkpt>
      <trkpt lat="27.85958100" lon="-15.5652840">
        <ele>422.86100</ele>
        <time>2009-01-05T12:46:42Z</time>
      </trkpt>
      <trkpt lat="27.85944100" lon="-15.5652690">
        <ele>422.10300</ele>
        <time>2009-01-05T12:46:43Z</time>
      </trkpt>
      <trkpt lat="27.85930100" lon="-15.5652570">
        <ele>420.96100</ele>
        <time>2009-01-05T12:46:44Z</time>
      </trkpt>
      <trkpt lat="27.85916200" lon="-15.5652510">
        <ele>420.34000</ele>
        <time>2009-01-05T12:46:45Z</time>
      </trkpt>
      <trkpt lat="27.85902300" lon="-15.5652590">
        <ele>418.92900</ele>
        <time>2009-01-05T12:46:46Z</time>
      </trkpt>
      <trkpt lat="27.85888400" lon="-15.5652840">
        <ele>418.09300</ele>
        <time>2009-01-05T12:46:47Z</time>
      </trkpt>
      <trkpt lat="27.85874900" lon="-15.5653240">
        <ele>417.02000</ele>
        <time>2009-01-05T12:46:48Z</time>
      </trkpt>
      <trkpt lat="27.85861500" lon="-15.5653730">
        <ele>416.52600</ele>
        <time>2009-01-05T12:46:49Z</time>
      </trkpt>
      <trkpt lat="27.85848300" lon="-15.5654240">
        <ele>415.60500</ele>
        <time>2009-01-05T12:46:50Z</time>
      </trkpt>
      <trkpt lat="27.85835200" lon="-15.5654750">
        <ele>414.22500</ele>
        <time>2009-01-05T12:46:51Z</time>
      </trkpt>
      <trkpt lat="27.85822100" lon="-15.5655280">
        <ele>413.08500</ele>
        <time>2009-01-05T12:46:52Z</time>
      </trkpt>
      <trkpt lat="27.85809300" lon="-15.5655820">
        <ele>411.25800</ele>
        <time>2009-01-05T12:46:53Z</time>
      </trkpt>
      <trkpt lat="27.85796600" lon="-15.5656370">
        <ele>410.21100</ele>
        <time>2009-01-05T12:46:54Z</time>
      </trkpt>
      <trkpt lat="27.85783900" lon="-15.5656900">
        <ele>409.57100</ele>
        <time>2009-01-05T12:46:55Z</time>
      </trkpt>
      <trkpt lat="27.85771200" lon="-15.5657430">
        <ele>408.13300</ele>
        <time>2009-01-05T12:46:56Z</time>
      </trkpt>
      <trkpt lat="27.85758300" lon="-15.5657980">
        <ele>406.43400</ele>
        <time>2009-01-05T12:46:57Z</time>
      </trkpt>
      <trkpt lat="27.85745300" lon="-15.5658550">
        <ele>406.13700</ele>
        <time>2009-01-05T12:46:58Z</time>
      </trkpt>
      <trkpt lat="27.85732300" lon="-15.5659160">
        <ele>404.92400</ele>
        <time>2009-01-05T12:46:59Z</time>
      </trkpt>
      <trkpt lat="27.85719300" lon="-15.5659800">
        <ele>402.63500</ele>
        <time>2009-01-05T12:47:00Z</time>
      </trkpt>
      <trkpt lat="27.85706000" lon="-15.5660380">
        <ele>401.37600</ele>
        <time>2009-01-05T12:47:01Z</time>
      </trkpt>
      <trkpt lat="27.85692300" lon="-15.5660820">
        <ele>399.88000</ele>
        <time>2009-01-05T12:47:02Z</time>
      </trkpt>
      <trkpt lat="27.85678400" lon="-15.5661050">
        <ele>399.39600</ele>
        <time>2009-01-05T12:47:03Z</time>
      </trkpt>
      <trkpt lat="27.85664200" lon="-15.5661040">
        <ele>396.95200</ele>
        <time>2009-01-05T12:47:04Z</time>
      </trkpt>
      <trkpt lat="27.85649900" lon="-15.5660890">
        <ele>395.61200</ele>
        <time>2009-01-05T12:47:05Z</time>
      </trkpt>
      <trkpt lat="27.85635400" lon="-15.5660690">
        <ele>393.84200</ele>
        <time>2009-01-05T12:47:06Z</time>
      </trkpt>
      <trkpt lat="27.85620900" lon="-15.5660570">
        <ele>392.27000</ele>
        <time>2009-01-05T12:47:07Z</time>
      </trkpt>
      <trkpt lat="27.85606200" lon="-15.5660550">
        <ele>391.77400</ele>
        <time>2009-01-05T12:47:08Z</time>
      </trkpt>
      <trkpt lat="27.85591400" lon="-15.5660600">
        <ele>390.20000</ele>
        <time>2009-01-05T12:47:09Z</time>
      </trkpt>
      <trkpt lat="27.85576500" lon="-15.5660690">
        <ele>388.21800</ele>
        <time>2009-01-05T12:47:10Z</time>
      </trkpt>
      <trkpt lat="27.85561400" lon="-15.5660740">
        <ele>387.27800</ele>
        <time>2009-01-05T12:47:11Z</time>
      </trkpt>
      <trkpt lat="27.85546300" lon="-15.5660680">
        <ele>385.75700</ele>
        <time>2009-01-05T12:47:12Z</time>
      </trkpt>
      <trkpt lat="27.85531300" lon="-15.5660510">
        <ele>385.16000</ele>
        <time>2009-01-05T12:47:13Z</time>
      </trkpt>
      <trkpt lat="27.85516200" lon="-15.5660240">
        <ele>384.00300</ele>
        <time>2009-01-05T12:47:14Z</time>
      </trkpt>
      <trkpt lat="27.85501300" lon="-15.5659920">
        <ele>382.95700</ele>
        <time>2009-01-05T12:47:15Z</time>
      </trkpt>
      <trkpt lat="27.85486400" lon="-15.5659570">
        <ele>381.10200</ele>
        <time>2009-01-05T12:47:16Z</time>
      </trkpt>
      <trkpt lat="27.85471700" lon="-15.5659170">
        <ele>379.83400</ele>
        <time>2009-01-05T12:47:17Z</time>
      </trkpt>
      <trkpt lat="27.85457100" lon="-15.5658700">
        <ele>379.23500</ele>
        <time>2009-01-05T12:47:18Z</time>
      </trkpt>
      <trkpt lat="27.85443100" lon="-15.5658120">
        <ele>377.46200</ele>
        <time>2009-01-05T12:47:19Z</time>
      </trkpt>
      <trkpt lat="27.85428900" lon="-15.5657500">
        <ele>376.57800</ele>
        <time>2009-01-05T12:47:20Z</time>
      </trkpt>
      <trkpt lat="27.85414200" lon="-15.5657010">
        <ele>374.75200</ele>
        <time>2009-01-05T12:47:21Z</time>
      </trkpt>
      <trkpt lat="27.85399000" lon="-15.5656720">
        <ele>374.43500</ele>
        <time>2009-01-05T12:47:22Z</time>
      </trkpt>
      <trkpt lat="27.85383600" lon="-15.5656590">
        <ele>373.68400</ele>
        <time>2009-01-05T12:47:23Z</time>
      </trkpt>
      <trkpt lat="27.85368200" lon="-15.5656530">
        <ele>372.56900</ele>
        <time>2009-01-05T12:47:24Z</time>
      </trkpt>
      <trkpt lat="27.85352800" lon="-15.5656490">
        <ele>371.29400</ele>
        <time>2009-01-05T12:47:25Z</time>
      </trkpt>
      <trkpt lat="27.85337600" lon="-15.5656570">
        <ele>369.94600</ele>
        <time>2009-01-05T12:47:26Z</time>
      </trkpt>
      <trkpt lat="27.85322400" lon="-15.5656730">
        <ele>368.36200</ele>
        <time>2009-01-05T12:47:27Z</time>
      </trkpt>
      <trkpt lat="27.85307200" lon="-15.5656770">
        <ele>367.87200</ele>
        <time>2009-01-05T12:47:28Z</time>
      </trkpt>
      <trkpt lat="27.85292200" lon="-15.5656560">
        <ele>366.50800</ele>
        <time>2009-01-05T12:47:29Z</time>
      </trkpt>
      <trkpt lat="27.85277600" lon="-15.5656090">
        <ele>364.76000</ele>
        <time>2009-01-05T12:47:30Z</time>
      </trkpt>
      <trkpt lat="27.85263600" lon="-15.5655430">
        <ele>363.39800</ele>
        <time>2009-01-05T12:47:31Z</time>
      </trkpt>
      <trkpt lat="27.85249500" lon="-15.5654760">
        <ele>362.70600</ele>
        <time>2009-01-05T12:47:32Z</time>
      </trkpt>
      <trkpt lat="27.85235100" lon="-15.5654200">
        <ele>360.69100</ele>
        <time>2009-01-05T12:47:33Z</time>
      </trkpt>
      <trkpt lat="27.85220400" lon="-15.5653770">
        <ele>360.21800</ele>
        <time>2009-01-05T12:47:34Z</time>
      </trkpt>
      <trkpt lat="27.85205800" lon="-15.5653460">
        <ele>360.06700</ele>
        <time>2009-01-05T12:47:35Z</time>
      </trkpt>
      <trkpt lat="27.85191600" lon="-15.5653230">
        <ele>359.91400</ele>
        <time>2009-01-05T12:47:36Z</time>
      </trkpt>
      <trkpt lat="27.85177600" lon="-15.5653030">
        <ele>358.99700</ele>
        <time>2009-01-05T12:47:37Z</time>
      </trkpt>
      <trkpt lat="27.85164000" lon="-15.5652820">
        <ele>358.83500</ele>
        <time>2009-01-05T12:47:38Z</time>
      </trkpt>
      <trkpt lat="27.85150600" lon="-15.5652620">
        <ele>358.23300</ele>
        <time>2009-01-05T12:47:39Z</time>
      </trkpt>
      <trkpt lat="27.85137600" lon="-15.5652430">
        <ele>357.73000</ele>
        <time>2009-01-05T12:47:40Z</time>
      </trkpt>
      <trkpt lat="27.85124800" lon="-15.5652220">
        <ele>357.74100</ele>
        <time>2009-01-05T12:47:41Z</time>
      </trkpt>
      <trkpt lat="27.85112300" lon="-15.5652010">
        <ele>357.32000</ele>
        <time>2009-01-05T12:47:42Z</time>
      </trkpt>
      <trkpt lat="27.85100100" lon="-15.5651790">
        <ele>356.92700</ele>
        <time>2009-01-05T12:47:43Z</time>
      </trkpt>
      <trkpt lat="27.85088000" lon="-15.5651580">
        <ele>356.79900</ele>
        <time>2009-01-05T12:47:44Z</time>
      </trkpt>
      <trkpt lat="27.85076200" lon="-15.5651370">
        <ele>356.93900</ele>
        <time>2009-01-05T12:47:45Z</time>
      </trkpt>
      <trkpt lat="27.85064600" lon="-15.5651170">
        <ele>356.46600</ele>
        <time>2009-01-05T12:47:46Z</time>
      </trkpt>
      <trkpt lat="27.85053200" lon="-15.5650970">
        <ele>356.38300</ele>
        <time>2009-01-05T12:47:47Z</time>
      </trkpt>
      <trkpt lat="27.85041800" lon="-15.5650760">
        <ele>355.97600</ele>
        <time>2009-01-05T12:47:48Z</time>
      </trkpt>
      <trkpt lat="27.85030400" lon="-15.5650560">
        <ele>356.07000</ele>
        <time>2009-01-05T12:47:49Z</time>
      </trkpt>
      <trkpt lat="27.85019100" lon="-15.5650400">
        <ele>355.60700</ele>
        <time>2009-01-05T12:47:50Z</time>
      </trkpt>
      <trkpt lat="27.85007800" lon="-15.5650300">
        <ele>355.28200</ele>
        <time>2009-01-05T12:47:51Z</time>
      </trkpt>
      <trkpt lat="27.84996300" lon="-15.5650290">
        <ele>354.27700</ele>
        <time>2009-01-05T12:47:52Z</time>
      </trkpt>
      <trkpt lat="27.84985000" lon="-15.5650360">
        <ele>354.58300</ele>
        <time>2009-01-05T12:47:53Z</time>
      </trkpt>
      <trkpt lat="27.84973700" lon="-15.5650520">
        <ele>354.55100</ele>
        <time>2009-01-05T12:47:54Z</time>
      </trkpt>
      <trkpt lat="27.84962700" lon="-15.5650760">
        <ele>355.10000</ele>
        <time>2009-01-05T12:47:55Z</time>
      </trkpt>
      <trkpt lat="27.84952200" lon="-15.5651070">
        <ele>353.85400</ele>
        <time>2009-01-05T12:47:56Z</time>
      </trkpt>
      <trkpt lat="27.84942100" lon="-15.5651410">
        <ele>353.60500</ele>
        <time>2009-01-05T12:47:57Z</time>
      </trkpt>
      <trkpt lat="27.84932400" lon="-15.5651750">
        <ele>353.69900</ele>
        <time>2009-01-05T12:47:58Z</time>
      </trkpt>
      <trkpt lat="27.84923100" lon="-15.5652140">
        <ele>354.48100</ele>
        <time>2009-01-05T12:47:59Z</time>
      </trkpt>
      <trkpt lat="27.84914200" lon="-15.5652590">
        <ele>354.37300</ele>
        <time>2009-01-05T12:48:00Z</time>
      </trkpt>
      <trkpt lat="27.84905600" lon="-15.5653040">
        <ele>355.07200</ele>
        <time>2009-01-05T12:48:01Z</time>
      </trkpt>
      <trkpt lat="27.84897300" lon="-15.5653460">
        <ele>354.72600</ele>
        <time>2009-01-05T12:48:02Z</time>
      </trkpt>
      <trkpt lat="27.84889200" lon="-15.5653860">
        <ele>354.97900</ele>
        <time>2009-01-05T12:48:03Z</time>
      </trkpt>
      <trkpt lat="27.84881400" lon="-15.5654250">
        <ele>354.89900</ele>
        <time>2009-01-05T12:48:04Z</time>
      </trkpt>
      <trkpt lat="27.84873800" lon="-15.5654620">
        <ele>355.32200</ele>
        <time>2009-01-05T12:48:05Z</time>
      </trkpt>
      <trkpt lat="27.84866400" lon="-15.5654970">
        <ele>355.87400</ele>
        <time>2009-01-05T12:48:06Z</time>
      </trkpt>
      <trkpt lat="27.84859400" lon="-15.5655270">
        <ele>355.31900</ele>
        <time>2009-01-05T12:48:07Z</time>
      </trkpt>
      <trkpt lat="27.84852600" lon="-15.5655570">
        <ele>355.51400</ele>
        <time>2009-01-05T12:48:08Z</time>
      </trkpt>
      <trkpt lat="27.84845900" lon="-15.5655890">
        <ele>355.41700</ele>
        <time>2009-01-05T12:48:09Z</time>
      </trkpt>
      <trkpt lat="27.84839700" lon="-15.5656280">
        <ele>356.02200</ele>
        <time>2009-01-05T12:48:10Z</time>
      </trkpt>
      <trkpt lat="27.84834200" lon="-15.5656760">
        <ele>356.36600</ele>
        <time>2009-01-05T12:48:11Z</time>
      </trkpt>
      <trkpt lat="27.84829400" lon="-15.5657290">
        <ele>356.48500</ele>
        <time>2009-01-05T12:48:12Z</time>
      </trkpt>
      <trkpt lat="27.84824600" lon="-15.5657810">
        <ele>356.27100</ele>
        <time>2009-01-05T12:48:13Z</time>
      </trkpt>
      <trkpt lat="27.84819800" lon="-15.5658300">
        <ele>356.47500</ele>
        <time>2009-01-05T12:48:14Z</time>
      </trkpt>
      <trkpt lat="27.84814900" lon="-15.5658770">
        <ele>356.60500</ele>
        <time>2009-01-05T12:48:15Z</time>
      </trkpt>
      <trkpt lat="27.84809800" lon="-15.5659200">
        <ele>356.74900</ele>
        <time>2009-01-05T12:48:16Z</time>
      </trkpt>
      <trkpt lat="27.84804600" lon="-15.5659590">
        <ele>356.94000</ele>
        <time>2009-01-05T12:48:17Z</time>
      </trkpt>
      <trkpt lat="27.84799400" lon="-15.5659970">
        <ele>357.49500</ele>
        <time>2009-01-05T12:48:18Z</time>
      </trkpt>
      <trkpt lat="27.84794000" lon="-15.5660320">
        <ele>357.90500</ele>
        <time>2009-01-05T12:48:19Z</time>
      </trkpt>
      <trkpt lat="27.84788700" lon="-15.5660640">
        <ele>358.03000</ele>
        <time>2009-01-05T12:48:20Z</time>
      </trkpt>
      <trkpt lat="27.84783300" lon="-15.5660930">
        <ele>358.45600</ele>
        <time>2009-01-05T12:48:21Z</time>
      </trkpt>
      <trkpt lat="27.84777900" lon="-15.5661200">
        <ele>358.40300</ele>
        <time>2009-01-05T12:48:22Z</time>
      </trkpt>
      <trkpt lat="27.84772400" lon="-15.5661450">
        <ele>358.43300</ele>
        <time>2009-01-05T12:48:23Z</time>
      </trkpt>
      <trkpt lat="27.84766900" lon="-15.5661670">
        <ele>358.70800</ele>
        <time>2009-01-05T12:48:24Z</time>
      </trkpt>
      <trkpt lat="27.84761400" lon="-15.5661860">
        <ele>359.03900</ele>
        <time>2009-01-05T12:48:25Z</time>
      </trkpt>
      <trkpt lat="27.84755900" lon="-15.5662050">
        <ele>358.57900</ele>
        <time>2009-01-05T12:48:26Z</time>
      </trkpt>
      <trkpt lat="27.84750500" lon="-15.5662240">
        <ele>358.88600</ele>
        <time>2009-01-05T12:48:27Z</time>
      </trkpt>
      <trkpt lat="27.84745100" lon="-15.5662470">
        <ele>359.77700</ele>
        <time>2009-01-05T12:48:28Z</time>
      </trkpt>
      <trkpt lat="27.84740100" lon="-15.5662770">
        <ele>359.38700</ele>
        <time>2009-01-05T12:48:29Z</time>
      </trkpt>
      <trkpt lat="27.84735300" lon="-15.5663130">
        <ele>359.24500</ele>
        <time>2009-01-05T12:48:30Z</time>
      </trkpt>
      <trkpt lat="27.84730600" lon="-15.5663520">
        <ele>359.68400</ele>
        <time>2009-01-05T12:48:31Z</time>
      </trkpt>
      <trkpt lat="27.84726100" lon="-15.5663910">
        <ele>360.13700</ele>
        <time>2009-01-05T12:48:32Z</time>
      </trkpt>
      <trkpt lat="27.84721600" lon="-15.5664310">
        <ele>359.99000</ele>
        <time>2009-01-05T12:48:33Z</time>
      </trkpt>
      <trkpt lat="27.84717000" lon="-15.5664700">
        <ele>359.99800</ele>
        <time>2009-01-05T12:48:34Z</time>
      </trkpt>
      <trkpt lat="27.84712400" lon="-15.5665060">
        <ele>359.91200</ele>
        <time>2009-01-05T12:48:35Z</time>
      </trkpt>
      <trkpt lat="27.84707700" lon="-15.5665420">
        <ele>360.00200</ele>
        <time>2009-01-05T12:48:36Z</time>
      </trkpt>
      <trkpt lat="27.84703100" lon="-15.5665780">
        <ele>360.21200</ele>
        <time>2009-01-05T12:48:37Z</time>
      </trkpt>
      <trkpt lat="27.84698600" lon="-15.5666140">
        <ele>360.32100</ele>
        <time>2009-01-05T12:48:38Z</time>
      </trkpt>
      <trkpt lat="27.84694100" lon="-15.5666510">
        <ele>360.34300</ele>
        <time>2009-01-05T12:48:39Z</time>
      </trkpt>
      <trkpt lat="27.84689500" lon="-15.5666870">
        <ele>360.56300</ele>
        <time>2009-01-05T12:48:40Z</time>
      </trkpt>
      <trkpt lat="27.84684800" lon="-15.5667210">
        <ele>360.49500</ele>
        <time>2009-01-05T12:48:41Z</time>
      </trkpt>
      <trkpt lat="27.84680000" lon="-15.5667530">
        <ele>360.68300</ele>
        <time>2009-01-05T12:48:42Z</time>
      </trkpt>
      <trkpt lat="27.84675300" lon="-15.5667850">
        <ele>360.96600</ele>
        <time>2009-01-05T12:48:43Z</time>
      </trkpt>
      <trkpt lat="27.84670500" lon="-15.5668170">
        <ele>361.40800</ele>
        <time>2009-01-05T12:48:44Z</time>
      </trkpt>
      <trkpt lat="27.84665800" lon="-15.5668500">
        <ele>361.49100</ele>
        <time>2009-01-05T12:48:45Z</time>
      </trkpt>
      <trkpt lat="27.84660900" lon="-15.5668800">
        <ele>361.26700</ele>
        <time>2009-01-05T12:48:46Z</time>
      </trkpt>
      <trkpt lat="27.84655800" lon="-15.5669080">
        <ele>361.42300</ele>
        <time>2009-01-05T12:48:47Z</time>
      </trkpt>
      <trkpt lat="27.84650700" lon="-15.5669340">
        <ele>361.61400</ele>
        <time>2009-01-05T12:48:48Z</time>
      </trkpt>
      <trkpt lat="27.84645300" lon="-15.5669590">
        <ele>362.09000</ele>
        <time>2009-01-05T12:48:49Z</time>
      </trkpt>
      <trkpt lat="27.84639900" lon="-15.5669820">
        <ele>362.06200</ele>
        <time>2009-01-05T12:48:50Z</time>
      </trkpt>
      <trkpt lat="27.84634300" lon="-15.5670020">
        <ele>361.93500</ele>
        <time>2009-01-05T12:48:51Z</time>
      </trkpt>
      <trkpt lat="27.84628700" lon="-15.5670170">
        <ele>362.00700</ele>
        <time>2009-01-05T12:48:52Z</time>
      </trkpt>
      <trkpt lat="27.84623000" lon="-15.5670330">
        <ele>362.11600</ele>
        <time>2009-01-05T12:48:53Z</time>
      </trkpt>
      <trkpt lat="27.84617300" lon="-15.5670480">
        <ele>362.15900</ele>
        <time>2009-01-05T12:48:54Z</time>
      </trkpt>
      <trkpt lat="27.84611500" lon="-15.5670650">
        <ele>362.22800</ele>
        <time>2009-01-05T12:48:55Z</time>
      </trkpt>
      <trkpt lat="27.84605800" lon="-15.5670850">
        <ele>362.19200</ele>
        <time>2009-01-05T12:48:56Z</time>
      </trkpt>
      <trkpt lat="27.84600300" lon="-15.5671100">
        <ele>362.55400</ele>
        <time>2009-01-05T12:48:57Z</time>
      </trkpt>
      <trkpt lat="27.84594800" lon="-15.5671380">
        <ele>362.62900</ele>
        <time>2009-01-05T12:48:58Z</time>
      </trkpt>
      <trkpt lat="27.84589700" lon="-15.5671680">
        <ele>362.42900</ele>
        <time>2009-01-05T12:48:59Z</time>
      </trkpt>
      <trkpt lat="27.84584600" lon="-15.5672010">
        <ele>362.80200</ele>
        <time>2009-01-05T12:49:00Z</time>
      </trkpt>
      <trkpt lat="27.84579500" lon="-15.5672350">
        <ele>363.33900</ele>
        <time>2009-01-05T12:49:01Z</time>
      </trkpt>
      <trkpt lat="27.84574500" lon="-15.5672690">
        <ele>363.28900</ele>
        <time>2009-01-05T12:49:02Z</time>
      </trkpt>
      <trkpt lat="27.84569800" lon="-15.5673040">
        <ele>363.51900</ele>
        <time>2009-01-05T12:49:03Z</time>
      </trkpt>
      <trkpt lat="27.84565000" lon="-15.5673410">
        <ele>363.32100</ele>
        <time>2009-01-05T12:49:04Z</time>
      </trkpt>
      <trkpt lat="27.84560200" lon="-15.5673770">
        <ele>363.44000</ele>
        <time>2009-01-05T12:49:05Z</time>
      </trkpt>
      <trkpt lat="27.84555300" lon="-15.5674100">
        <ele>363.82100</ele>
        <time>2009-01-05T12:49:06Z</time>
      </trkpt>
      <trkpt lat="27.84550100" lon="-15.5674380">
        <ele>363.58300</ele>
        <time>2009-01-05T12:49:07Z</time>
      </trkpt>
      <trkpt lat="27.84544700" lon="-15.5674620">
        <ele>363.48300</ele>
        <time>2009-01-05T12:49:08Z</time>
      </trkpt>
      <trkpt lat="27.84539200" lon="-15.5674840">
        <ele>363.67300</ele>
        <time>2009-01-05T12:49:09Z</time>
      </trkpt>
      <trkpt lat="27.84533700" lon="-15.5675070">
        <ele>363.81100</ele>
        <time>2009-01-05T12:49:10Z</time>
      </trkpt>
      <trkpt lat="27.84528300" lon="-15.5675300">
        <ele>363.71500</ele>
        <time>2009-01-05T12:49:11Z</time>
      </trkpt>
      <trkpt lat="27.84522800" lon="-15.5675520">
        <ele>363.67300</ele>
        <time>2009-01-05T12:49:12Z</time>
      </trkpt>
      <trkpt lat="27.84517200" lon="-15.5675760">
        <ele>363.45600</ele>
        <time>2009-01-05T12:49:13Z</time>
      </trkpt>
      <trkpt lat="27.84511900" lon="-15.5676050">
        <ele>363.93200</ele>
        <time>2009-01-05T12:49:14Z</time>
      </trkpt>
      <trkpt lat="27.84506700" lon="-15.5676410">
        <ele>364.28000</ele>
        <time>2009-01-05T12:49:15Z</time>
      </trkpt>
      <trkpt lat="27.84502000" lon="-15.5676830">
        <ele>364.50700</ele>
        <time>2009-01-05T12:49:16Z</time>
      </trkpt>
      <trkpt lat="27.84497500" lon="-15.5677280">
        <ele>364.45600</ele>
        <time>2009-01-05T12:49:17Z</time>
      </trkpt>
      <trkpt lat="27.84493100" lon="-15.5677740">
        <ele>364.66200</ele>
        <time>2009-01-05T12:49:18Z</time>
      </trkpt>
      <trkpt lat="27.84488100" lon="-15.5678220">
        <ele>365.02300</ele>
        <time>2009-01-05T12:49:19Z</time>
      </trkpt>
      <trkpt lat="27.84483400" lon="-15.5678660">
        <ele>364.97000</ele>
        <time>2009-01-05T12:49:20Z</time>
      </trkpt>
      <trkpt lat="27.84478800" lon="-15.5679070">
        <ele>365.12000</ele>
        <time>2009-01-05T12:49:21Z</time>
      </trkpt>
      <trkpt lat="27.84474200" lon="-15.5679450">
        <ele>365.17500</ele>
        <time>2009-01-05T12:49:22Z</time>
      </trkpt>
      <trkpt lat="27.84469300" lon="-15.5679820">
        <ele>365.26700</ele>
        <time>2009-01-05T12:49:23Z</time>
      </trkpt>
      <trkpt lat="27.84464400" lon="-15.5680160">
        <ele>365.49300</ele>
        <time>2009-01-05T12:49:24Z</time>
      </trkpt>
      <trkpt lat="27.84459600" lon="-15.5680490">
        <ele>365.76200</ele>
        <time>2009-01-05T12:49:25Z</time>
      </trkpt>
      <trkpt lat="27.84454500" lon="-15.5680800">
        <ele>366.29200</ele>
        <time>2009-01-05T12:49:26Z</time>
      </trkpt>
      <trkpt lat="27.84449600" lon="-15.5681070">
        <ele>366.50400</ele>
        <time>2009-01-05T12:49:27Z</time>
      </trkpt>
      <trkpt lat="27.84444600" lon="-15.5681280">
        <ele>366.31500</ele>
        <time>2009-01-05T12:49:28Z</time>
      </trkpt>
      <trkpt lat="27.84439800" lon="-15.5681440">
        <ele>366.86800</ele>
        <time>2009-01-05T12:49:29Z</time>
      </trkpt>
      <trkpt lat="27.84435000" lon="-15.5681560">
        <ele>367.39000</ele>
        <time>2009-01-05T12:49:30Z</time>
      </trkpt>
      <trkpt lat="27.84430300" lon="-15.5681620">
        <ele>367.36500</ele>
        <time>2009-01-05T12:49:31Z</time>
      </trkpt>
      <trkpt lat="27.84425900" lon="-15.5681580">
        <ele>367.66800</ele>
        <time>2009-01-05T12:49:32Z</time>
      </trkpt>
      <trkpt lat="27.84421200" lon="-15.5681570">
        <ele>367.89100</ele>
        <time>2009-01-05T12:49:33Z</time>
      </trkpt>
      <trkpt lat="27.84416500" lon="-15.5681590">
        <ele>368.25700</ele>
        <time>2009-01-05T12:49:34Z</time>
      </trkpt>
      <trkpt lat="27.84412000" lon="-15.5681590">
        <ele>368.47200</ele>
        <time>2009-01-05T12:49:35Z</time>
      </trkpt>
      <trkpt lat="27.84407400" lon="-15.5681610">
        <ele>368.69000</ele>
        <time>2009-01-05T12:49:36Z</time>
      </trkpt>
      <trkpt lat="27.84403100" lon="-15.5681640">
        <ele>369.23800</ele>
        <time>2009-01-05T12:49:37Z</time>
      </trkpt>
      <trkpt lat="27.84398800" lon="-15.5681700">
        <ele>369.64700</ele>
        <time>2009-01-05T12:49:38Z</time>
      </trkpt>
      <trkpt lat="27.84394500" lon="-15.5681750">
        <ele>369.78100</ele>
        <time>2009-01-05T12:49:39Z</time>
      </trkpt>
      <trkpt lat="27.84390200" lon="-15.5681810">
        <ele>370.13100</ele>
        <time>2009-01-05T12:49:40Z</time>
      </trkpt>
      <trkpt lat="27.84385800" lon="-15.5681890">
        <ele>370.49200</ele>
        <time>2009-01-05T12:49:41Z</time>
      </trkpt>
      <trkpt lat="27.84381300" lon="-15.5682010">
        <ele>370.78200</ele>
        <time>2009-01-05T12:49:42Z</time>
      </trkpt>
      <trkpt lat="27.84377000" lon="-15.5682170">
        <ele>370.98800</ele>
        <time>2009-01-05T12:49:43Z</time>
      </trkpt>
      <trkpt lat="27.84372700" lon="-15.5682400">
        <ele>371.04600</ele>
        <time>2009-01-05T12:49:44Z</time>
      </trkpt>
      <trkpt lat="27.84368900" lon="-15.5682680">
        <ele>371.22800</ele>
        <time>2009-01-05T12:49:45Z</time>
      </trkpt>
      <trkpt lat="27.84365500" lon="-15.5683030">
        <ele>371.84100</ele>
        <time>2009-01-05T12:49:46Z</time>
      </trkpt>
      <trkpt lat="27.84362400" lon="-15.5683420">
        <ele>372.04200</ele>
        <time>2009-01-05T12:49:47Z</time>
      </trkpt>
      <trkpt lat="27.84359400" lon="-15.5683840">
        <ele>372.63600</ele>
        <time>2009-01-05T12:49:48Z</time>
      </trkpt>
      <trkpt lat="27.84356400" lon="-15.5684250">
        <ele>372.94300</ele>
        <time>2009-01-05T12:49:49Z</time>
      </trkpt>
      <trkpt lat="27.84353200" lon="-15.5684620">
        <ele>373.05700</ele>
        <time>2009-01-05T12:49:50Z</time>
      </trkpt>
      <trkpt lat="27.84349800" lon="-15.5684960">
        <ele>373.51700</ele>
        <time>2009-01-05T12:49:51Z</time>
      </trkpt>
      <trkpt lat="27.84346200" lon="-15.5685260">
        <ele>373.43300</ele>
        <time>2009-01-05T12:49:52Z</time>
      </trkpt>
      <trkpt lat="27.84342500" lon="-15.5685540">
        <ele>373.76400</ele>
        <time>2009-01-05T12:49:53Z</time>
      </trkpt>
      <trkpt lat="27.84338900" lon="-15.5685800">
        <ele>374.13300</ele>
        <time>2009-01-05T12:49:54Z</time>
      </trkpt>
      <trkpt lat="27.84335200" lon="-15.5686030">
        <ele>374.24200</ele>
        <time>2009-01-05T12:49:55Z</time>
      </trkpt>
      <trkpt lat="27.84331400" lon="-15.5686250">
        <ele>374.45500</ele>
        <time>2009-01-05T12:49:56Z</time>
      </trkpt>
      <trkpt lat="27.84327600" lon="-15.5686450">
        <ele>375.18800</ele>
        <time>2009-01-05T12:49:57Z</time>
      </trkpt>
      <trkpt lat="27.84323800" lon="-15.5686640">
        <ele>375.17100</ele>
        <time>2009-01-05T12:49:58Z</time>
      </trkpt>
      <trkpt lat="27.84320100" lon="-15.5686820">
        <ele>375.50000</ele>
        <time>2009-01-05T12:49:59Z</time>
      </trkpt>
      <trkpt lat="27.84316400" lon="-15.5686990">
        <ele>375.55200</ele>
        <time>2009-01-05T12:50:00Z</time>
      </trkpt>
      <trkpt lat="27.84312700" lon="-15.5687180">
        <ele>376.02400</ele>
        <time>2009-01-05T12:50:01Z</time>
      </trkpt>
      <trkpt lat="27.84309200" lon="-15.5687370">
        <ele>376.38200</ele>
        <time>2009-01-05T12:50:02Z</time>
      </trkpt>
      <trkpt lat="27.84305800" lon="-15.5687560">
        <ele>376.46800</ele>
        <time>2009-01-05T12:50:03Z</time>
      </trkpt>
      <trkpt lat="27.84302300" lon="-15.5687730">
        <ele>376.38500</ele>
        <time>2009-01-05T12:50:04Z</time>
      </trkpt>
      <trkpt lat="27.84298900" lon="-15.5687920">
        <ele>376.69100</ele>
        <time>2009-01-05T12:50:05Z</time>
      </trkpt>
      <trkpt lat="27.84295400" lon="-15.5688100">
        <ele>377.23200</ele>
        <time>2009-01-05T12:50:06Z</time>
      </trkpt>
      <trkpt lat="27.84291900" lon="-15.5688280">
        <ele>377.60300</ele>
        <time>2009-01-05T12:50:07Z</time>
      </trkpt>
      <trkpt lat="27.84288400" lon="-15.5688460">
        <ele>377.83800</ele>
        <time>2009-01-05T12:50:08Z</time>
      </trkpt>
      <trkpt lat="27.84285000" lon="-15.5688640">
        <ele>378.19100</ele>
        <time>2009-01-05T12:50:09Z</time>
      </trkpt>
      <trkpt lat="27.84281600" lon="-15.5688830">
        <ele>378.49400</ele>
        <time>2009-01-05T12:50:10Z</time>
      </trkpt>
      <trkpt lat="27.84278100" lon="-15.5689030">
        <ele>378.91300</ele>
        <time>2009-01-05T12:50:11Z</time>
      </trkpt>
      <trkpt lat="27.84274700" lon="-15.5689210">
        <ele>379.33500</ele>
        <time>2009-01-05T12:50:12Z</time>
      </trkpt>
      <trkpt lat="27.84271300" lon="-15.5689370">
        <ele>379.33200</ele>
        <time>2009-01-05T12:50:13Z</time>
      </trkpt>
      <trkpt lat="27.84267900" lon="-15.5689520">
        <ele>379.56800</ele>
        <time>2009-01-05T12:50:14Z</time>
      </trkpt>
      <trkpt lat="27.84264600" lon="-15.5689660">
        <ele>379.70500</ele>
        <time>2009-01-05T12:50:15Z</time>
      </trkpt>
      <trkpt lat="27.84261200" lon="-15.5689790">
        <ele>380.03700</ele>
        <time>2009-01-05T12:50:16Z</time>
      </trkpt>
      <trkpt lat="27.84257700" lon="-15.5689900">
        <ele>380.37500</ele>
        <time>2009-01-05T12:50:17Z</time>
      </trkpt>
      <trkpt lat="27.84254200" lon="-15.5690010">
        <ele>380.76000</ele>
        <time>2009-01-05T12:50:18Z</time>
      </trkpt>
      <trkpt lat="27.84250700" lon="-15.5690120">
        <ele>380.98900</ele>
        <time>2009-01-05T12:50:19Z</time>
      </trkpt>
      <trkpt lat="27.84247100" lon="-15.5690250">
        <ele>381.09400</ele>
        <time>2009-01-05T12:50:20Z</time>
      </trkpt>
      <trkpt lat="27.84243500" lon="-15.5690390">
        <ele>381.36800</ele>
        <time>2009-01-05T12:50:21Z</time>
      </trkpt>
      <trkpt lat="27.84239900" lon="-15.5690540">
        <ele>381.91200</ele>
        <time>2009-01-05T12:50:22Z</time>
      </trkpt>
      <trkpt lat="27.84236400" lon="-15.5690720">
        <ele>381.98300</ele>
        <time>2009-01-05T12:50:23Z</time>
      </trkpt>
      <trkpt lat="27.84233000" lon="-15.5690930">
        <ele>382.33900</ele>
        <time>2009-01-05T12:50:24Z</time>
      </trkpt>
      <trkpt lat="27.84229900" lon="-15.5691190">
        <ele>382.54200</ele>
        <time>2009-01-05T12:50:25Z</time>
      </trkpt>
      <trkpt lat="27.84227200" lon="-15.5691500">
        <ele>382.71000</ele>
        <time>2009-01-05T12:50:26Z</time>
      </trkpt>
      <trkpt lat="27.84225000" lon="-15.5691850">
        <ele>383.61300</ele>
        <time>2009-01-05T12:50:27Z</time>
      </trkpt>
      <trkpt lat="27.84223300" lon="-15.5692210">
        <ele>383.66500</ele>
        <time>2009-01-05T12:50:28Z</time>
      </trkpt>
      <trkpt lat="27.84221800" lon="-15.5692590">
        <ele>384.05800</ele>
        <time>2009-01-05T12:50:29Z</time>
      </trkpt>
      <trkpt lat="27.84220400" lon="-15.5692990">
        <ele>384.18100</ele>
        <time>2009-01-05T12:50:30Z</time>
      </trkpt>
      <trkpt lat="27.84218900" lon="-15.5693380">
        <ele>384.69600</ele>
        <time>2009-01-05T12:50:31Z</time>
      </trkpt>
      <trkpt lat="27.84217300" lon="-15.5693780">
        <ele>384.68200</ele>
        <time>2009-01-05T12:50:32Z</time>
      </trkpt>
      <trkpt lat="27.84215500" lon="-15.5694170">
        <ele>385.08800</ele>
        <time>2009-01-05T12:50:33Z</time>
      </trkpt>
      <trkpt lat="27.84213500" lon="-15.5694560">
        <ele>384.85400</ele>
        <time>2009-01-05T12:50:34Z</time>
      </trkpt>
      <trkpt lat="27.84211300" lon="-15.5694920">
        <ele>385.23100</ele>
        <time>2009-01-05T12:50:35Z</time>
      </trkpt>
      <trkpt lat="27.84209000" lon="-15.5695280">
        <ele>385.36800</ele>
        <time>2009-01-05T12:50:36Z</time>
      </trkpt>
      <trkpt lat="27.84206700" lon="-15.5695630">
        <ele>385.83500</ele>
        <time>2009-01-05T12:50:37Z</time>
      </trkpt>
      <trkpt lat="27.84204400" lon="-15.5695980">
        <ele>385.85700</ele>
        <time>2009-01-05T12:50:38Z</time>
      </trkpt>
      <trkpt lat="27.84202200" lon="-15.5696330">
        <ele>386.15200</ele>
        <time>2009-01-05T12:50:39Z</time>
      </trkpt>
      <trkpt lat="27.84200000" lon="-15.5696670">
        <ele>386.27800</ele>
        <time>2009-01-05T12:50:40Z</time>
      </trkpt>
      <trkpt lat="27.84197800" lon="-15.5697000">
        <ele>386.52600</ele>
        <time>2009-01-05T12:50:41Z</time>
      </trkpt>
      <trkpt lat="27.84195700" lon="-15.5697320">
        <ele>387.04300</ele>
        <time>2009-01-05T12:50:42Z</time>
      </trkpt>
      <trkpt lat="27.84193600" lon="-15.5697620">
        <ele>387.45700</ele>
        <time>2009-01-05T12:50:43Z</time>
      </trkpt>
      <trkpt lat="27.84191400" lon="-15.5697920">
        <ele>387.60900</ele>
        <time>2009-01-05T12:50:44Z</time>
      </trkpt>
      <trkpt lat="27.84189300" lon="-15.5698210">
        <ele>387.79800</ele>
        <time>2009-01-05T12:50:45Z</time>
      </trkpt>
      <trkpt lat="27.84187200" lon="-15.5698500">
        <ele>388.31800</ele>
        <time>2009-01-05T12:50:46Z</time>
      </trkpt>
      <trkpt lat="27.84185100" lon="-15.5698780">
        <ele>388.30400</ele>
        <time>2009-01-05T12:50:47Z</time>
      </trkpt>
      <trkpt lat="27.84182900" lon="-15.5699050">
        <ele>388.67500</ele>
        <time>2009-01-05T12:50:48Z</time>
      </trkpt>
      <trkpt lat="27.84180700" lon="-15.5699310">
        <ele>389.26600</ele>
        <time>2009-01-05T12:50:49Z</time>
      </trkpt>
      <trkpt lat="27.84178400" lon="-15.5699570">
        <ele>389.58200</ele>
        <time>2009-01-05T12:50:50Z</time>
      </trkpt>
      <trkpt lat="27.84176100" lon="-15.5699810">
        <ele>389.39100</ele>
        <time>2009-01-05T12:50:51Z</time>
      </trkpt>
      <trkpt lat="27.84173700" lon="-15.5700040">
        <ele>390.15900</ele>
        <time>2009-01-05T12:50:52Z</time>
      </trkpt>
      <trkpt lat="27.84171200" lon="-15.5700260">
        <ele>389.98300</ele>
        <time>2009-01-05T12:50:53Z</time>
      </trkpt>
      <trkpt lat="27.84168900" lon="-15.5700470">
        <ele>390.35200</ele>
        <time>2009-01-05T12:50:54Z</time>
      </trkpt>
      <trkpt lat="27.84166600" lon="-15.5700680">
        <ele>390.51800</ele>
        <time>2009-01-05T12:50:55Z</time>
      </trkpt>
      <trkpt lat="27.84164200" lon="-15.5700900">
        <ele>391.04200</ele>
        <time>2009-01-05T12:50:56Z</time>
      </trkpt>
      <trkpt lat="27.84161900" lon="-15.5701110">
        <ele>391.39600</ele>
        <time>2009-01-05T12:50:57Z</time>
      </trkpt>
      <trkpt lat="27.84159700" lon="-15.5701320">
        <ele>391.54000</ele>
        <time>2009-01-05T12:50:58Z</time>
      </trkpt>
      <trkpt lat="27.84157500" lon="-15.5701510">
        <ele>391.79500</ele>
        <time>2009-01-05T12:50:59Z</time>
      </trkpt>
      <trkpt lat="27.84155200" lon="-15.5701700">
        <ele>392.18800</ele>
        <time>2009-01-05T12:51:00Z</time>
      </trkpt>
      <trkpt lat="27.84153000" lon="-15.5701890">
        <ele>392.48800</ele>
        <time>2009-01-05T12:51:01Z</time>
      </trkpt>
      <trkpt lat="27.84150800" lon="-15.5702090">
        <ele>392.94200</ele>
        <time>2009-01-05T12:51:02Z</time>
      </trkpt>
      <trkpt lat="27.84148600" lon="-15.5702300">
        <ele>392.98100</ele>
        <time>2009-01-05T12:51:03Z</time>
      </trkpt>
      <trkpt lat="27.84146300" lon="-15.5702530">
        <ele>393.56400</ele>
        <time>2009-01-05T12:51:04Z</time>
      </trkpt>
      <trkpt lat="27.84144000" lon="-15.5702760">
        <ele>393.79800</ele>
        <time>2009-01-05T12:51:05Z</time>
      </trkpt>
      <trkpt lat="27.84141600" lon="-15.5703000">
        <ele>394.10600</ele>
        <time>2009-01-05T12:51:06Z</time>
      </trkpt>
      <trkpt lat="27.84139300" lon="-15.5703260">
        <ele>394.64400</ele>
        <time>2009-01-05T12:51:07Z</time>
      </trkpt>
      <trkpt lat="27.84136900" lon="-15.5703520">
        <ele>395.17100</ele>
        <time>2009-01-05T12:51:08Z</time>
      </trkpt>
      <trkpt lat="27.84134500" lon="-15.5703760">
        <ele>395.36300</ele>
        <time>2009-01-05T12:51:09Z</time>
      </trkpt>
      <trkpt lat="27.84132000" lon="-15.5703980">
        <ele>395.74300</ele>
        <time>2009-01-05T12:51:10Z</time>
      </trkpt>
      <trkpt lat="27.84129200" lon="-15.5704160">
        <ele>395.98500</ele>
        <time>2009-01-05T12:51:11Z</time>
      </trkpt>
      <trkpt lat="27.84126300" lon="-15.5704340">
        <ele>396.37200</ele>
        <time>2009-01-05T12:51:12Z</time>
      </trkpt>
      <trkpt lat="27.84123200" lon="-15.5704500">
        <ele>396.56200</ele>
        <time>2009-01-05T12:51:13Z</time>
      </trkpt>
      <trkpt lat="27.84120000" lon="-15.5704640">
        <ele>396.66700</ele>
        <time>2009-01-05T12:51:14Z</time>
      </trkpt>
      <trkpt lat="27.84116900" lon="-15.5704780">
        <ele>397.65400</ele>
        <time>2009-01-05T12:51:15Z</time>
      </trkpt>
      <trkpt lat="27.84113800" lon="-15.5704900">
        <ele>397.40600</ele>
        <time>2009-01-05T12:51:16Z</time>
      </trkpt>
      <trkpt lat="27.84110700" lon="-15.5705010">
        <ele>397.35700</ele>
        <time>2009-01-05T12:51:17Z</time>
      </trkpt>
      <trkpt lat="27.84107500" lon="-15.5705090">
        <ele>397.75300</ele>
        <time>2009-01-05T12:51:18Z</time>
      </trkpt>
      <trkpt lat="27.84104400" lon="-15.5705170">
        <ele>397.90600</ele>
        <time>2009-01-05T12:51:19Z</time>
      </trkpt>
      <trkpt lat="27.84101200" lon="-15.5705250">
        <ele>398.31000</ele>
        <time>2009-01-05T12:51:20Z</time>
      </trkpt>
      <trkpt lat="27.84098200" lon="-15.5705340">
        <ele>398.28600</ele>
        <time>2009-01-05T12:51:21Z</time>
      </trkpt>
      <trkpt lat="27.84095000" lon="-15.5705410">
        <ele>398.39100</ele>
        <time>2009-01-05T12:51:22Z</time>
      </trkpt>
      <trkpt lat="27.84091900" lon="-15.5705480">
        <ele>398.44400</ele>
        <time>2009-01-05T12:51:23Z</time>
      </trkpt>
      <trkpt lat="27.84088700" lon="-15.5705540">
        <ele>398.78000</ele>
        <time>2009-01-05T12:51:24Z</time>
      </trkpt>
      <trkpt lat="27.84085400" lon="-15.5705620">
        <ele>398.85400</ele>
        <time>2009-01-05T12:51:25Z</time>
      </trkpt>
      <trkpt lat="27.84082300" lon="-15.5705730">
        <ele>399.37200</ele>
        <time>2009-01-05T12:51:26Z</time>
      </trkpt>
      <trkpt lat="27.84079100" lon="-15.5705820">
        <ele>399.69200</ele>
        <time>2009-01-05T12:51:27Z</time>
      </trkpt>
      <trkpt lat="27.84075800" lon="-15.5705900">
        <ele>399.76300</ele>
        <time>2009-01-05T12:51:28Z</time>
      </trkpt>
      <trkpt lat="27.84072600" lon="-15.5705970">
        <ele>400.27300</ele>
        <time>2009-01-05T12:51:29Z</time>
      </trkpt>
      <trkpt lat="27.84069600" lon="-15.5706070">
        <ele>400.44000</ele>
        <time>2009-01-05T12:51:30Z</time>
      </trkpt>
      <trkpt lat="27.84066700" lon="-15.5706200">
        <ele>400.70700</ele>
        <time>2009-01-05T12:51:31Z</time>
      </trkpt>
      <trkpt lat="27.84063800" lon="-15.5706330">
        <ele>400.63500</ele>
        <time>2009-01-05T12:51:32Z</time>
      </trkpt>
      <trkpt lat="27.84061000" lon="-15.5706480">
        <ele>400.81500</ele>
        <time>2009-01-05T12:51:33Z</time>
      </trkpt>
      <trkpt lat="27.84058300" lon="-15.5706640">
        <ele>401.02100</ele>
        <time>2009-01-05T12:51:34Z</time>
      </trkpt>
      <trkpt lat="27.84055800" lon="-15.5706820">
        <ele>401.78500</ele>
        <time>2009-01-05T12:51:35Z</time>
      </trkpt>
      <trkpt lat="27.84053400" lon="-15.5707020">
        <ele>402.19300</ele>
        <time>2009-01-05T12:51:36Z</time>
      </trkpt>
      <trkpt lat="27.84051100" lon="-15.5707220">
        <ele>402.26700</ele>
        <time>2009-01-05T12:51:37Z</time>
      </trkpt>
      <trkpt lat="27.84048800" lon="-15.5707400">
        <ele>402.98000</ele>
        <time>2009-01-05T12:51:38Z</time>
      </trkpt>
      <trkpt lat="27.84046500" lon="-15.5707590">
        <ele>402.97800</ele>
        <time>2009-01-05T12:51:39Z</time>
      </trkpt>
      <trkpt lat="27.84044200" lon="-15.5707790">
        <ele>403.04900</ele>
        <time>2009-01-05T12:51:40Z</time>
      </trkpt>
      <trkpt lat="27.84041900" lon="-15.5707980">
        <ele>403.57200</ele>
        <time>2009-01-05T12:51:41Z</time>
      </trkpt>
      <trkpt lat="27.84039500" lon="-15.5708170">
        <ele>403.57200</ele>
        <time>2009-01-05T12:51:42Z</time>
      </trkpt>
      <trkpt lat="27.84036900" lon="-15.5708330">
        <ele>403.87900</ele>
        <time>2009-01-05T12:51:43Z</time>
      </trkpt>
      <trkpt lat="27.84034300" lon="-15.5708470">
        <ele>404.14100</ele>
        <time>2009-01-05T12:51:44Z</time>
      </trkpt>
      <trkpt lat="27.84031600" lon="-15.5708610">
        <ele>404.16200</ele>
        <time>2009-01-05T12:51:45Z</time>
      </trkpt>
      <trkpt lat="27.84028800" lon="-15.5708730">
        <ele>404.16200</ele>
        <time>2009-01-05T12:51:46Z</time>
      </trkpt>
      <trkpt lat="27.84025800" lon="-15.5708830">
        <ele>404.16000</ele>
        <time>2009-01-05T12:51:47Z</time>
      </trkpt>
      <trkpt lat="27.84022800" lon="-15.5708950">
        <ele>404.15800</ele>
        <time>2009-01-05T12:51:48Z</time>
      </trkpt>
      <trkpt lat="27.84019800" lon="-15.5709070">
        <ele>404.15800</ele>
        <time>2009-01-05T12:51:49Z</time>
      </trkpt>
      <trkpt lat="27.84016700" lon="-15.5709180">
        <ele>404.15800</ele>
        <time>2009-01-05T12:51:50Z</time>
      </trkpt>
      <trkpt lat="27.84013500" lon="-15.5709260">
        <ele>405.68600</ele>
        <time>2009-01-05T12:51:51Z</time>
      </trkpt>
      <trkpt lat="27.84010300" lon="-15.5709320">
        <ele>406.33900</ele>
        <time>2009-01-05T12:51:52Z</time>
      </trkpt>
      <trkpt lat="27.84007100" lon="-15.5709380">
        <ele>406.20200</ele>
        <time>2009-01-05T12:51:53Z</time>
      </trkpt>
      <trkpt lat="27.84004000" lon="-15.5709420">
        <ele>406.46600</ele>
        <time>2009-01-05T12:51:54Z</time>
      </trkpt>
      <trkpt lat="27.84000900" lon="-15.5709460">
        <ele>406.67200</ele>
        <time>2009-01-05T12:51:55Z</time>
      </trkpt>
      <trkpt lat="27.83997800" lon="-15.5709500">
        <ele>406.89700</ele>
        <time>2009-01-05T12:51:56Z</time>
      </trkpt>
      <trkpt lat="27.83994700" lon="-15.5709510">
        <ele>407.14000</ele>
        <time>2009-01-05T12:51:57Z</time>
      </trkpt>
      <trkpt lat="27.83991700" lon="-15.5709500">
        <ele>407.30700</ele>
        <time>2009-01-05T12:51:58Z</time>
      </trkpt>
      <trkpt lat="27.83988700" lon="-15.5709470">
        <ele>407.73000</ele>
        <time>2009-01-05T12:51:59Z</time>
      </trkpt>
      <trkpt lat="27.83985700" lon="-15.5709430">
        <ele>407.89900</ele>
        <time>2009-01-05T12:52:00Z</time>
      </trkpt>
      <trkpt lat="27.83982800" lon="-15.5709390">
        <ele>408.05300</ele>
        <time>2009-01-05T12:52:01Z</time>
      </trkpt>
      <trkpt lat="27.83979900" lon="-15.5709330">
        <ele>408.33100</ele>
        <time>2009-01-05T12:52:02Z</time>
      </trkpt>
      <trkpt lat="27.83976900" lon="-15.5709270">
        <ele>408.60100</ele>
        <time>2009-01-05T12:52:03Z</time>
      </trkpt>
      <trkpt lat="27.83973900" lon="-15.5709210">
        <ele>408.74100</ele>
        <time>2009-01-05T12:52:04Z</time>
      </trkpt>
      <trkpt lat="27.83971000" lon="-15.5709150">
        <ele>408.91000</ele>
        <time>2009-01-05T12:52:05Z</time>
      </trkpt>
      <trkpt lat="27.83968100" lon="-15.5709090">
        <ele>409.18800</ele>
        <time>2009-01-05T12:52:06Z</time>
      </trkpt>
      <trkpt lat="27.83965300" lon="-15.5709020">
        <ele>409.57700</ele>
        <time>2009-01-05T12:52:07Z</time>
      </trkpt>
      <trkpt lat="27.83962500" lon="-15.5708950">
        <ele>409.68800</ele>
        <time>2009-01-05T12:52:08Z</time>
      </trkpt>
      <trkpt lat="27.83959800" lon="-15.5708880">
        <ele>409.86300</ele>
        <time>2009-01-05T12:52:09Z</time>
      </trkpt>
      <trkpt lat="27.83957100" lon="-15.5708780">
        <ele>410.08300</ele>
        <time>2009-01-05T12:52:10Z</time>
      </trkpt>
      <trkpt lat="27.83954500" lon="-15.5708690">
        <ele>410.29200</ele>
        <time>2009-01-05T12:52:11Z</time>
      </trkpt>
      <trkpt lat="27.83951800" lon="-15.5708590">
        <ele>410.41900</ele>
        <time>2009-01-05T12:52:12Z</time>
      </trkpt>
      <trkpt lat="27.83949200" lon="-15.5708500">
        <ele>410.77900</ele>
        <time>2009-01-05T12:52:13Z</time>
      </trkpt>
      <trkpt lat="27.83946600" lon="-15.5708400">
        <ele>410.92500</ele>
        <time>2009-01-05T12:52:14Z</time>
      </trkpt>
      <trkpt lat="27.83944000" lon="-15.5708290">
        <ele>411.49600</ele>
        <time>2009-01-05T12:52:15Z</time>
      </trkpt>
      <trkpt lat="27.83941500" lon="-15.5708160">
        <ele>411.67900</ele>
        <time>2009-01-05T12:52:16Z</time>
      </trkpt>
      <trkpt lat="27.83938800" lon="-15.5708040">
        <ele>411.48900</ele>
        <time>2009-01-05T12:52:17Z</time>
      </trkpt>
      <trkpt lat="27.83936100" lon="-15.5707940">
        <ele>411.78000</ele>
        <time>2009-01-05T12:52:18Z</time>
      </trkpt>
      <trkpt lat="27.83933300" lon="-15.5707840">
        <ele>412.27200</ele>
        <time>2009-01-05T12:52:19Z</time>
      </trkpt>
      <trkpt lat="27.83930600" lon="-15.5707720">
        <ele>412.46500</ele>
        <time>2009-01-05T12:52:20Z</time>
      </trkpt>
      <trkpt lat="27.83927900" lon="-15.5707600">
        <ele>412.52900</ele>
        <time>2009-01-05T12:52:21Z</time>
      </trkpt>
      <trkpt lat="27.83925100" lon="-15.5707480">
        <ele>412.88600</ele>
        <time>2009-01-05T12:52:22Z</time>
      </trkpt>
      <trkpt lat="27.83922400" lon="-15.5707360">
        <ele>413.34400</ele>
        <time>2009-01-05T12:52:23Z</time>
      </trkpt>
      <trkpt lat="27.83919600" lon="-15.5707270">
        <ele>413.14600</ele>
        <time>2009-01-05T12:52:24Z</time>
      </trkpt>
      <trkpt lat="27.83916700" lon="-15.5707220">
        <ele>413.61400</ele>
        <time>2009-01-05T12:52:25Z</time>
      </trkpt>
      <trkpt lat="27.83913700" lon="-15.5707200">
        <ele>413.58500</ele>
        <time>2009-01-05T12:52:26Z</time>
      </trkpt>
      <trkpt lat="27.83910800" lon="-15.5707210">
        <ele>414.02400</ele>
        <time>2009-01-05T12:52:27Z</time>
      </trkpt>
      <trkpt lat="27.83907900" lon="-15.5707250">
        <ele>414.47600</ele>
        <time>2009-01-05T12:52:28Z</time>
      </trkpt>
      <trkpt lat="27.83905100" lon="-15.5707300">
        <ele>414.87800</ele>
        <time>2009-01-05T12:52:29Z</time>
      </trkpt>
      <trkpt lat="27.83902200" lon="-15.5707360">
        <ele>415.16900</ele>
        <time>2009-01-05T12:52:30Z</time>
      </trkpt>
      <trkpt lat="27.83899200" lon="-15.5707430">
        <ele>415.23000</ele>
        <time>2009-01-05T12:52:31Z</time>
      </trkpt>
      <trkpt lat="27.83896100" lon="-15.5707500">
        <ele>415.42600</ele>
        <time>2009-01-05T12:52:32Z</time>
      </trkpt>
      <trkpt lat="27.83892900" lon="-15.5707560">
        <ele>415.99700</ele>
        <time>2009-01-05T12:52:33Z</time>
      </trkpt>
      <trkpt lat="27.83889600" lon="-15.5707620">
        <ele>416.38100</ele>
        <time>2009-01-05T12:52:34Z</time>
      </trkpt>
      <trkpt lat="27.83886400" lon="-15.5707690">
        <ele>416.58900</ele>
        <time>2009-01-05T12:52:35Z</time>
      </trkpt>
      <trkpt lat="27.83883200" lon="-15.5707770">
        <ele>416.65600</ele>
        <time>2009-01-05T12:52:36Z</time>
      </trkpt>
      <trkpt lat="27.83880000" lon="-15.5707840">
        <ele>417.04400</ele>
        <time>2009-01-05T12:52:37Z</time>
      </trkpt>
      <trkpt lat="27.83876800" lon="-15.5707890">
        <ele>417.39600</ele>
        <time>2009-01-05T12:52:38Z</time>
      </trkpt>
      <trkpt lat="27.83873600" lon="-15.5707910">
        <ele>417.51200</ele>
        <time>2009-01-05T12:52:39Z</time>
      </trkpt>
      <trkpt lat="27.83870500" lon="-15.5707900">
        <ele>417.87200</ele>
        <time>2009-01-05T12:52:40Z</time>
      </trkpt>
      <trkpt lat="27.83867300" lon="-15.5707860">
        <ele>418.10200</ele>
        <time>2009-01-05T12:52:41Z</time>
      </trkpt>
      <trkpt lat="27.83864100" lon="-15.5707830">
        <ele>418.11300</ele>
        <time>2009-01-05T12:52:42Z</time>
      </trkpt>
      <trkpt lat="27.83860700" lon="-15.5707780">
        <ele>418.55100</ele>
        <time>2009-01-05T12:52:43Z</time>
      </trkpt>
      <trkpt lat="27.83857300" lon="-15.5707750">
        <ele>418.70500</ele>
        <time>2009-01-05T12:52:44Z</time>
      </trkpt>
      <trkpt lat="27.83853800" lon="-15.5707740">
        <ele>418.82200</ele>
        <time>2009-01-05T12:52:45Z</time>
      </trkpt>
      <trkpt lat="27.83850300" lon="-15.5707750">
        <ele>419.00400</ele>
        <time>2009-01-05T12:52:46Z</time>
      </trkpt>
      <trkpt lat="27.83846700" lon="-15.5707810">
        <ele>419.36100</ele>
        <time>2009-01-05T12:52:47Z</time>
      </trkpt>
      <trkpt lat="27.83843400" lon="-15.5707900">
        <ele>419.82400</ele>
        <time>2009-01-05T12:52:48Z</time>
      </trkpt>
      <trkpt lat="27.83840200" lon="-15.5708040">
        <ele>419.95400</ele>
        <time>2009-01-05T12:52:49Z</time>
      </trkpt>
      <trkpt lat="27.83837000" lon="-15.5708220">
        <ele>420.39500</ele>
        <time>2009-01-05T12:52:50Z</time>
      </trkpt>
      <trkpt lat="27.83834000" lon="-15.5708450">
        <ele>420.43000</ele>
        <time>2009-01-05T12:52:51Z</time>
      </trkpt>
      <trkpt lat="27.83831000" lon="-15.5708680">
        <ele>420.64200</ele>
        <time>2009-01-05T12:52:52Z</time>
      </trkpt>
      <trkpt lat="27.83827900" lon="-15.5708910">
        <ele>421.14200</ele>
        <time>2009-01-05T12:52:53Z</time>
      </trkpt>
      <trkpt lat="27.83825000" lon="-15.5709150">
        <ele>421.45400</ele>
        <time>2009-01-05T12:52:54Z</time>
      </trkpt>
      <trkpt lat="27.83822000" lon="-15.5709380">
        <ele>421.81100</ele>
        <time>2009-01-05T12:52:55Z</time>
      </trkpt>
      <trkpt lat="27.83819000" lon="-15.5709590">
        <ele>421.88300</ele>
        <time>2009-01-05T12:52:56Z</time>
      </trkpt>
      <trkpt lat="27.83816000" lon="-15.5709790">
        <ele>422.20300</ele>
        <time>2009-01-05T12:52:57Z</time>
      </trkpt>
      <trkpt lat="27.83813200" lon="-15.5710000">
        <ele>422.34100</ele>
        <time>2009-01-05T12:52:58Z</time>
      </trkpt>
      <trkpt lat="27.83810400" lon="-15.5710220">
        <ele>422.63700</ele>
        <time>2009-01-05T12:52:59Z</time>
      </trkpt>
      <trkpt lat="27.83807600" lon="-15.5710460">
        <ele>423.21100</ele>
        <time>2009-01-05T12:53:00Z</time>
      </trkpt>
      <trkpt lat="27.83805000" lon="-15.5710710">
        <ele>423.39400</ele>
        <time>2009-01-05T12:53:01Z</time>
      </trkpt>
      <trkpt lat="27.83802600" lon="-15.5710960">
        <ele>423.69800</ele>
        <time>2009-01-05T12:53:02Z</time>
      </trkpt>
      <trkpt lat="27.83800200" lon="-15.5711220">
        <ele>424.14700</ele>
        <time>2009-01-05T12:53:03Z</time>
      </trkpt>
      <trkpt lat="27.83797900" lon="-15.5711480">
        <ele>424.22700</ele>
        <time>2009-01-05T12:53:04Z</time>
      </trkpt>
      <trkpt lat="27.83795700" lon="-15.5711750">
        <ele>424.59100</ele>
        <time>2009-01-05T12:53:05Z</time>
      </trkpt>
      <trkpt lat="27.83793500" lon="-15.5712020">
        <ele>424.95400</ele>
        <time>2009-01-05T12:53:06Z</time>
      </trkpt>
      <trkpt lat="27.83791200" lon="-15.5712270">
        <ele>424.92000</ele>
        <time>2009-01-05T12:53:07Z</time>
      </trkpt>
      <trkpt lat="27.83788800" lon="-15.5712510">
        <ele>425.41400</ele>
        <time>2009-01-05T12:53:08Z</time>
      </trkpt>
      <trkpt lat="27.83786300" lon="-15.5712740">
        <ele>426.05400</ele>
        <time>2009-01-05T12:53:09Z</time>
      </trkpt>
      <trkpt lat="27.83783900" lon="-15.5712970">
        <ele>426.21500</ele>
        <time>2009-01-05T12:53:10Z</time>
      </trkpt>
      <trkpt lat="27.83781300" lon="-15.5713180">
        <ele>426.42400</ele>
        <time>2009-01-05T12:53:11Z</time>
      </trkpt>
      <trkpt lat="27.83778600" lon="-15.5713400">
        <ele>426.73100</ele>
        <time>2009-01-05T12:53:12Z</time>
      </trkpt>
      <trkpt lat="27.83776000" lon="-15.5713600">
        <ele>426.69700</ele>
        <time>2009-01-05T12:53:13Z</time>
      </trkpt>
      <trkpt lat="27.83773300" lon="-15.5713800">
        <ele>426.89800</ele>
        <time>2009-01-05T12:53:14Z</time>
      </trkpt>
      <trkpt lat="27.83770600" lon="-15.5714000">
        <ele>427.43000</ele>
        <time>2009-01-05T12:53:15Z</time>
      </trkpt>
      <trkpt lat="27.83767800" lon="-15.5714190">
        <ele>427.23700</ele>
        <time>2009-01-05T12:53:16Z</time>
      </trkpt>
      <trkpt lat="27.83765100" lon="-15.5714380">
        <ele>427.86200</ele>
        <time>2009-01-05T12:53:17Z</time>
      </trkpt>
      <trkpt lat="27.83762400" lon="-15.5714580">
        <ele>428.11300</ele>
        <time>2009-01-05T12:53:18Z</time>
      </trkpt>
      <trkpt lat="27.83759700" lon="-15.5714770">
        <ele>428.27800</ele>
        <time>2009-01-05T12:53:19Z</time>
      </trkpt>
      <trkpt lat="27.83757000" lon="-15.5714960">
        <ele>428.45300</ele>
        <time>2009-01-05T12:53:20Z</time>
      </trkpt>
      <trkpt lat="27.83754300" lon="-15.5715140">
        <ele>428.62800</ele>
        <time>2009-01-05T12:53:21Z</time>
      </trkpt>
      <trkpt lat="27.83751400" lon="-15.5715290">
        <ele>428.91900</ele>
        <time>2009-01-05T12:53:22Z</time>
      </trkpt>
      <trkpt lat="27.83748500" lon="-15.5715410">
        <ele>429.57800</ele>
        <time>2009-01-05T12:53:23Z</time>
      </trkpt>
      <trkpt lat="27.83745500" lon="-15.5715500">
        <ele>429.80900</ele>
        <time>2009-01-05T12:53:24Z</time>
      </trkpt>
      <trkpt lat="27.83742500" lon="-15.5715560">
        <ele>429.97600</ele>
        <time>2009-01-05T12:53:25Z</time>
      </trkpt>
      <trkpt lat="27.83739400" lon="-15.5715590">
        <ele>430.30200</ele>
        <time>2009-01-05T12:53:26Z</time>
      </trkpt>
      <trkpt lat="27.83736200" lon="-15.5715590">
        <ele>430.28700</ele>
        <time>2009-01-05T12:53:27Z</time>
      </trkpt>
      <trkpt lat="27.83733100" lon="-15.5715560">
        <ele>430.69500</ele>
        <time>2009-01-05T12:53:28Z</time>
      </trkpt>
      <trkpt lat="27.83729900" lon="-15.5715500">
        <ele>430.97800</ele>
        <time>2009-01-05T12:53:29Z</time>
      </trkpt>
      <trkpt lat="27.83726900" lon="-15.5715420">
        <ele>431.16400</ele>
        <time>2009-01-05T12:53:30Z</time>
      </trkpt>
      <trkpt lat="27.83723900" lon="-15.5715320">
        <ele>431.35800</ele>
        <time>2009-01-05T12:53:31Z</time>
      </trkpt>
      <trkpt lat="27.83721000" lon="-15.5715220">
        <ele>431.54400</ele>
        <time>2009-01-05T12:53:32Z</time>
      </trkpt>
      <trkpt lat="27.83718000" lon="-15.5715120">
        <ele>431.81400</ele>
        <time>2009-01-05T12:53:33Z</time>
      </trkpt>
      <trkpt lat="27.83715100" lon="-15.5715020">
        <ele>431.86500</ele>
        <time>2009-01-05T12:53:34Z</time>
      </trkpt>
      <trkpt lat="27.83712300" lon="-15.5714920">
        <ele>432.05300</ele>
        <time>2009-01-05T12:53:35Z</time>
      </trkpt>
      <trkpt lat="27.83709600" lon="-15.5714800">
        <ele>432.08900</ele>
        <time>2009-01-05T12:53:36Z</time>
      </trkpt>
      <trkpt lat="27.83706900" lon="-15.5714650">
        <ele>432.57300</ele>
        <time>2009-01-05T12:53:37Z</time>
      </trkpt>
      <trkpt lat="27.83704300" lon="-15.5714490">
        <ele>432.90500</ele>
        <time>2009-01-05T12:53:38Z</time>
      </trkpt>
      <trkpt lat="27.83701800" lon="-15.5714290">
        <ele>432.89200</ele>
        <time>2009-01-05T12:53:39Z</time>
      </trkpt>
      <trkpt lat="27.83699500" lon="-15.5714050">
        <ele>433.17600</ele>
        <time>2009-01-05T12:53:40Z</time>
      </trkpt>
      <trkpt lat="27.83697400" lon="-15.5713790">
        <ele>433.50900</ele>
        <time>2009-01-05T12:53:41Z</time>
      </trkpt>
      <trkpt lat="27.83695600" lon="-15.5713480">
        <ele>433.75300</ele>
        <time>2009-01-05T12:53:42Z</time>
      </trkpt>
      <trkpt lat="27.83693900" lon="-15.5713170">
        <ele>434.06600</ele>
        <time>2009-01-05T12:53:43Z</time>
      </trkpt>
      <trkpt lat="27.83692400" lon="-15.5712830">
        <ele>434.17800</ele>
        <time>2009-01-05T12:53:44Z</time>
      </trkpt>
      <trkpt lat="27.83691200" lon="-15.5712490">
        <ele>434.41100</ele>
        <time>2009-01-05T12:53:45Z</time>
      </trkpt>
      <trkpt lat="27.83689900" lon="-15.5712160">
        <ele>434.76300</ele>
        <time>2009-01-05T12:53:46Z</time>
      </trkpt>
      <trkpt lat="27.83688700" lon="-15.5711820">
        <ele>435.01800</ele>
        <time>2009-01-05T12:53:47Z</time>
      </trkpt>
      <trkpt lat="27.83687400" lon="-15.5711480">
        <ele>435.30700</ele>
        <time>2009-01-05T12:53:48Z</time>
      </trkpt>
      <trkpt lat="27.83685900" lon="-15.5711130">
        <ele>435.40000</ele>
        <time>2009-01-05T12:53:49Z</time>
      </trkpt>
      <trkpt lat="27.83684400" lon="-15.5710760">
        <ele>435.58600</ele>
        <time>2009-01-05T12:53:50Z</time>
      </trkpt>
      <trkpt lat="27.83682600" lon="-15.5710420">
        <ele>435.99600</ele>
        <time>2009-01-05T12:53:51Z</time>
      </trkpt>
      <trkpt lat="27.83680200" lon="-15.5710100">
        <ele>436.14500</ele>
        <time>2009-01-05T12:53:52Z</time>
      </trkpt>
      <trkpt lat="27.83677400" lon="-15.5709820">
        <ele>436.15100</ele>
        <time>2009-01-05T12:53:53Z</time>
      </trkpt>
      <trkpt lat="27.83674000" lon="-15.5709580">
        <ele>436.90500</ele>
        <time>2009-01-05T12:53:54Z</time>
      </trkpt>
      <trkpt lat="27.83670300" lon="-15.5709410">
        <ele>436.89200</ele>
        <time>2009-01-05T12:53:55Z</time>
      </trkpt>
      <trkpt lat="27.83666300" lon="-15.5709310">
        <ele>437.15700</ele>
        <time>2009-01-05T12:53:56Z</time>
      </trkpt>
      <trkpt lat="27.83662200" lon="-15.5709310">
        <ele>437.35000</ele>
        <time>2009-01-05T12:53:57Z</time>
      </trkpt>
      <trkpt lat="27.83658200" lon="-15.5709420">
        <ele>437.80000</ele>
        <time>2009-01-05T12:53:58Z</time>
      </trkpt>
      <trkpt lat="27.83654400" lon="-15.5709620">
        <ele>437.93300</ele>
        <time>2009-01-05T12:53:59Z</time>
      </trkpt>
      <trkpt lat="27.83650800" lon="-15.5709870">
        <ele>438.03600</ele>
        <time>2009-01-05T12:54:00Z</time>
      </trkpt>
      <trkpt lat="27.83647100" lon="-15.5710140">
        <ele>437.80600</ele>
        <time>2009-01-05T12:54:01Z</time>
      </trkpt>
      <trkpt lat="27.83643000" lon="-15.5710430">
        <ele>437.75100</ele>
        <time>2009-01-05T12:54:02Z</time>
      </trkpt>
      <trkpt lat="27.83638600" lon="-15.5710700">
        <ele>437.90200</ele>
        <time>2009-01-05T12:54:03Z</time>
      </trkpt>
      <trkpt lat="27.83633900" lon="-15.5711000">
        <ele>437.92600</ele>
        <time>2009-01-05T12:54:04Z</time>
      </trkpt>
      <trkpt lat="27.83628900" lon="-15.5711340">
        <ele>437.79200</ele>
        <time>2009-01-05T12:54:05Z</time>
      </trkpt>
      <trkpt lat="27.83623600" lon="-15.5711680">
        <ele>437.83200</ele>
        <time>2009-01-05T12:54:06Z</time>
      </trkpt>
      <trkpt lat="27.83617900" lon="-15.5712030">
        <ele>437.61300</ele>
        <time>2009-01-05T12:54:07Z</time>
      </trkpt>
      <trkpt lat="27.83611900" lon="-15.5712360">
        <ele>437.84900</ele>
        <time>2009-01-05T12:54:08Z</time>
      </trkpt>
      <trkpt lat="27.83605500" lon="-15.5712680">
        <ele>437.42100</ele>
        <time>2009-01-05T12:54:09Z</time>
      </trkpt>
      <trkpt lat="27.83598900" lon="-15.5712970">
        <ele>437.55900</ele>
        <time>2009-01-05T12:54:10Z</time>
      </trkpt>
      <trkpt lat="27.83592000" lon="-15.5713250">
        <ele>437.30300</ele>
        <time>2009-01-05T12:54:11Z</time>
      </trkpt>
      <trkpt lat="27.83585000" lon="-15.5713530">
        <ele>436.86200</ele>
        <time>2009-01-05T12:54:12Z</time>
      </trkpt>
      <trkpt lat="27.83578000" lon="-15.5713830">
        <ele>436.87600</ele>
        <time>2009-01-05T12:54:13Z</time>
      </trkpt>
      <trkpt lat="27.83571000" lon="-15.5714180">
        <ele>436.78900</ele>
        <time>2009-01-05T12:54:14Z</time>
      </trkpt>
      <trkpt lat="27.83564100" lon="-15.5714580">
        <ele>436.68700</ele>
        <time>2009-01-05T12:54:15Z</time>
      </trkpt>
      <trkpt lat="27.83557300" lon="-15.5715010">
        <ele>436.22800</ele>
        <time>2009-01-05T12:54:16Z</time>
      </trkpt>
      <trkpt lat="27.83550400" lon="-15.5715450">
        <ele>436.35800</ele>
        <time>2009-01-05T12:54:17Z</time>
      </trkpt>
      <trkpt lat="27.83543500" lon="-15.5715890">
        <ele>436.47800</ele>
        <time>2009-01-05T12:54:18Z</time>
      </trkpt>
      <trkpt lat="27.83536600" lon="-15.5716330">
        <ele>436.21700</ele>
        <time>2009-01-05T12:54:19Z</time>
      </trkpt>
      <trkpt lat="27.83529900" lon="-15.5716820">
        <ele>436.27000</ele>
        <time>2009-01-05T12:54:20Z</time>
      </trkpt>
      <trkpt lat="27.83524100" lon="-15.5717450">
        <ele>436.28300</ele>
        <time>2009-01-05T12:54:21Z</time>
      </trkpt>
      <trkpt lat="27.83519700" lon="-15.5718220">
        <ele>436.08800</ele>
        <time>2009-01-05T12:54:22Z</time>
      </trkpt>
      <trkpt lat="27.83516400" lon="-15.5719040">
        <ele>436.25000</ele>
        <time>2009-01-05T12:54:23Z</time>
      </trkpt>
      <trkpt lat="27.83513500" lon="-15.5719870">
        <ele>435.99900</ele>
        <time>2009-01-05T12:54:24Z</time>
      </trkpt>
      <trkpt lat="27.83510500" lon="-15.5720700">
        <ele>436.00700</ele>
        <time>2009-01-05T12:54:25Z</time>
      </trkpt>
      <trkpt lat="27.83507200" lon="-15.5721490">
        <ele>436.03300</ele>
        <time>2009-01-05T12:54:26Z</time>
      </trkpt>
      <trkpt lat="27.83503200" lon="-15.5722250">
        <ele>435.29100</ele>
        <time>2009-01-05T12:54:27Z</time>
      </trkpt>
      <trkpt lat="27.83498600" lon="-15.5723000">
        <ele>435.35700</ele>
        <time>2009-01-05T12:54:28Z</time>
      </trkpt>
      <trkpt lat="27.83493600" lon="-15.5723750">
        <ele>434.29200</ele>
        <time>2009-01-05T12:54:29Z</time>
      </trkpt>
      <trkpt lat="27.83488200" lon="-15.5724490">
        <ele>433.68500</ele>
        <time>2009-01-05T12:54:30Z</time>
      </trkpt>
      <trkpt lat="27.83482500" lon="-15.5725210">
        <ele>433.13800</ele>
        <time>2009-01-05T12:54:31Z</time>
      </trkpt>
      <trkpt lat="27.83475800" lon="-15.5725820">
        <ele>432.91200</ele>
        <time>2009-01-05T12:54:32Z</time>
      </trkpt>
      <trkpt lat="27.83467800" lon="-15.5726200">
        <ele>432.78000</ele>
        <time>2009-01-05T12:54:33Z</time>
      </trkpt>
      <trkpt lat="27.83458900" lon="-15.5726320">
        <ele>432.62500</ele>
        <time>2009-01-05T12:54:34Z</time>
      </trkpt>
      <trkpt lat="27.83449700" lon="-15.5726260">
        <ele>432.13700</ele>
        <time>2009-01-05T12:54:35Z</time>
      </trkpt>
      <trkpt lat="27.83440600" lon="-15.5726090">
        <ele>431.81000</ele>
        <time>2009-01-05T12:54:36Z</time>
      </trkpt>
      <trkpt lat="27.83431600" lon="-15.5725820">
        <ele>431.40400</ele>
        <time>2009-01-05T12:54:37Z</time>
      </trkpt>
      <trkpt lat="27.83422800" lon="-15.5725420">
        <ele>431.30400</ele>
        <time>2009-01-05T12:54:38Z</time>
      </trkpt>
      <trkpt lat="27.83414400" lon="-15.5724910">
        <ele>430.87100</ele>
        <time>2009-01-05T12:54:39Z</time>
      </trkpt>
      <trkpt lat="27.83406300" lon="-15.5724320">
        <ele>430.24600</ele>
        <time>2009-01-05T12:54:40Z</time>
      </trkpt>
      <trkpt lat="27.83398300" lon="-15.5723700">
        <ele>429.84700</ele>
        <time>2009-01-05T12:54:41Z</time>
      </trkpt>
      <trkpt lat="27.83390000" lon="-15.5723130">
        <ele>429.35600</ele>
        <time>2009-01-05T12:54:42Z</time>
      </trkpt>
      <trkpt lat="27.83381000" lon="-15.5722680">
        <ele>429.32800</ele>
        <time>2009-01-05T12:54:43Z</time>
      </trkpt>
      <trkpt lat="27.83371500" lon="-15.5722450">
        <ele>429.18100</ele>
        <time>2009-01-05T12:54:44Z</time>
      </trkpt>
      <trkpt lat="27.83361700" lon="-15.5722430">
        <ele>428.55200</ele>
        <time>2009-01-05T12:54:45Z</time>
      </trkpt>
      <trkpt lat="27.83352000" lon="-15.5722630">
        <ele>428.37000</ele>
        <time>2009-01-05T12:54:46Z</time>
      </trkpt>
      <trkpt lat="27.83342800" lon="-15.5723010">
        <ele>428.38200</ele>
        <time>2009-01-05T12:54:47Z</time>
      </trkpt>
      <trkpt lat="27.83334300" lon="-15.5723540">
        <ele>427.94600</ele>
        <time>2009-01-05T12:54:48Z</time>
      </trkpt>
      <trkpt lat="27.83326100" lon="-15.5724160">
        <ele>428.15500</ele>
        <time>2009-01-05T12:54:49Z</time>
      </trkpt>
      <trkpt lat="27.83318100" lon="-15.5724810">
        <ele>427.31500</ele>
        <time>2009-01-05T12:54:50Z</time>
      </trkpt>
      <trkpt lat="27.83310000" lon="-15.5725460">
        <ele>426.77600</ele>
        <time>2009-01-05T12:54:51Z</time>
      </trkpt>
      <trkpt lat="27.83301900" lon="-15.5726100">
        <ele>426.96100</ele>
        <time>2009-01-05T12:54:52Z</time>
      </trkpt>
      <trkpt lat="27.83293700" lon="-15.5726750">
        <ele>426.40900</ele>
        <time>2009-01-05T12:54:53Z</time>
      </trkpt>
      <trkpt lat="27.83285700" lon="-15.5727400">
        <ele>426.41200</ele>
        <time>2009-01-05T12:54:54Z</time>
      </trkpt>
      <trkpt lat="27.83277800" lon="-15.5728070">
        <ele>426.13000</ele>
        <time>2009-01-05T12:54:55Z</time>
      </trkpt>
      <trkpt lat="27.83269900" lon="-15.5728730">
        <ele>426.31700</ele>
        <time>2009-01-05T12:54:56Z</time>
      </trkpt>
      <trkpt lat="27.83261700" lon="-15.5729350">
        <ele>425.81500</ele>
        <time>2009-01-05T12:54:57Z</time>
      </trkpt>
      <trkpt lat="27.83253000" lon="-15.5729840">
        <ele>425.35200</ele>
        <time>2009-01-05T12:54:58Z</time>
      </trkpt>
      <trkpt lat="27.83243700" lon="-15.5730150">
        <ele>424.80800</ele>
        <time>2009-01-05T12:54:59Z</time>
      </trkpt>
      <trkpt lat="27.83234100" lon="-15.5730320">
        <ele>424.40300</ele>
        <time>2009-01-05T12:55:00Z</time>
      </trkpt>
      <trkpt lat="27.83224200" lon="-15.5730420">
        <ele>423.62600</ele>
        <time>2009-01-05T12:55:01Z</time>
      </trkpt>
      <trkpt lat="27.83214100" lon="-15.5730510">
        <ele>423.52100</ele>
        <time>2009-01-05T12:55:02Z</time>
      </trkpt>
      <trkpt lat="27.83204100" lon="-15.5730700">
        <ele>423.22800</ele>
        <time>2009-01-05T12:55:03Z</time>
      </trkpt>
      <trkpt lat="27.83194400" lon="-15.5731060">
        <ele>423.22200</ele>
        <time>2009-01-05T12:55:04Z</time>
      </trkpt>
      <trkpt lat="27.83185100" lon="-15.5731550">
        <ele>422.97700</ele>
        <time>2009-01-05T12:55:05Z</time>
      </trkpt>
      <trkpt lat="27.83176000" lon="-15.5732100">
        <ele>422.22300</ele>
        <time>2009-01-05T12:55:06Z</time>
      </trkpt>
      <trkpt lat="27.83166900" lon="-15.5732660">
        <ele>421.89000</ele>
        <time>2009-01-05T12:55:07Z</time>
      </trkpt>
      <trkpt lat="27.83157600" lon="-15.5733200">
        <ele>421.99300</ele>
        <time>2009-01-05T12:55:08Z</time>
      </trkpt>
      <trkpt lat="27.83148100" lon="-15.5733680">
        <ele>421.72600</ele>
        <time>2009-01-05T12:55:09Z</time>
      </trkpt>
      <trkpt lat="27.83138300" lon="-15.5734070">
        <ele>421.35100</ele>
        <time>2009-01-05T12:55:10Z</time>
      </trkpt>
      <trkpt lat="27.83128200" lon="-15.5734340">
        <ele>420.68700</ele>
        <time>2009-01-05T12:55:11Z</time>
      </trkpt>
      <trkpt lat="27.83118000" lon="-15.5734530">
        <ele>420.40400</ele>
        <time>2009-01-05T12:55:12Z</time>
      </trkpt>
      <trkpt lat="27.83107600" lon="-15.5734710">
        <ele>420.11000</ele>
        <time>2009-01-05T12:55:13Z</time>
      </trkpt>
      <trkpt lat="27.83097200" lon="-15.5734890">
        <ele>419.91500</ele>
        <time>2009-01-05T12:55:14Z</time>
      </trkpt>
      <trkpt lat="27.83086900" lon="-15.5735090">
        <ele>419.45400</ele>
        <time>2009-01-05T12:55:15Z</time>
      </trkpt>
      <trkpt lat="27.83076600" lon="-15.5735350">
        <ele>418.56100</ele>
        <time>2009-01-05T12:55:16Z</time>
      </trkpt>
      <trkpt lat="27.83066600" lon="-15.5735700">
        <ele>418.24000</ele>
        <time>2009-01-05T12:55:17Z</time>
      </trkpt>
      <trkpt lat="27.83057000" lon="-15.5736150">
        <ele>418.17100</ele>
        <time>2009-01-05T12:55:18Z</time>
      </trkpt>
      <trkpt lat="27.83047400" lon="-15.5736620">
        <ele>417.65000</ele>
        <time>2009-01-05T12:55:19Z</time>
      </trkpt>
      <trkpt lat="27.83037600" lon="-15.5737010">
        <ele>417.39900</ele>
        <time>2009-01-05T12:55:20Z</time>
      </trkpt>
      <trkpt lat="27.83027500" lon="-15.5737300">
        <ele>416.87300</ele>
        <time>2009-01-05T12:55:21Z</time>
      </trkpt>
      <trkpt lat="27.83017400" lon="-15.5737530">
        <ele>416.70000</ele>
        <time>2009-01-05T12:55:22Z</time>
      </trkpt>
      <trkpt lat="27.83007200" lon="-15.5737740">
        <ele>416.27200</ele>
        <time>2009-01-05T12:55:23Z</time>
      </trkpt>
      <trkpt lat="27.82997000" lon="-15.5737970">
        <ele>415.92500</ele>
        <time>2009-01-05T12:55:24Z</time>
      </trkpt>
      <trkpt lat="27.82986900" lon="-15.5738240">
        <ele>415.53100</ele>
        <time>2009-01-05T12:55:25Z</time>
      </trkpt>
      <trkpt lat="27.82976800" lon="-15.5738530">
        <ele>415.48000</ele>
        <time>2009-01-05T12:55:26Z</time>
      </trkpt>
      <trkpt lat="27.82966900" lon="-15.5738840">
        <ele>414.52800</ele>
        <time>2009-01-05T12:55:27Z</time>
      </trkpt>
      <trkpt lat="27.82956900" lon="-15.5739160">
        <ele>414.16300</ele>
        <time>2009-01-05T12:55:28Z</time>
      </trkpt>
      <trkpt lat="27.82946900" lon="-15.5739500">
        <ele>413.39100</ele>
        <time>2009-01-05T12:55:29Z</time>
      </trkpt>
      <trkpt lat="27.82937000" lon="-15.5739860">
        <ele>412.97300</ele>
        <time>2009-01-05T12:55:30Z</time>
      </trkpt>
      <trkpt lat="27.82927200" lon="-15.5740250">
        <ele>412.59200</ele>
        <time>2009-01-05T12:55:31Z</time>
      </trkpt>
      <trkpt lat="27.82917500" lon="-15.5740670">
        <ele>412.48300</ele>
        <time>2009-01-05T12:55:32Z</time>
      </trkpt>
      <trkpt lat="27.82907800" lon="-15.5741100">
        <ele>411.98300</ele>
        <time>2009-01-05T12:55:33Z</time>
      </trkpt>
      <trkpt lat="27.82898200" lon="-15.5741540">
        <ele>411.48600</ele>
        <time>2009-01-05T12:55:34Z</time>
      </trkpt>
      <trkpt lat="27.82888700" lon="-15.5742010">
        <ele>411.26600</ele>
        <time>2009-01-05T12:55:35Z</time>
      </trkpt>
      <trkpt lat="27.82879200" lon="-15.5742480">
        <ele>410.49600</ele>
        <time>2009-01-05T12:55:36Z</time>
      </trkpt>
      <trkpt lat="27.82869800" lon="-15.5742960">
        <ele>410.51900</ele>
        <time>2009-01-05T12:55:37Z</time>
      </trkpt>
      <trkpt lat="27.82860600" lon="-15.5743480">
        <ele>409.97200</ele>
        <time>2009-01-05T12:55:38Z</time>
      </trkpt>
      <trkpt lat="27.82852100" lon="-15.5744090">
        <ele>409.18900</ele>
        <time>2009-01-05T12:55:39Z</time>
      </trkpt>
      <trkpt lat="27.82844600" lon="-15.5744850">
        <ele>408.99300</ele>
        <time>2009-01-05T12:55:40Z</time>
      </trkpt>
      <trkpt lat="27.82838100" lon="-15.5745690">
        <ele>409.27000</ele>
        <time>2009-01-05T12:55:41Z</time>
      </trkpt>
      <trkpt lat="27.82831400" lon="-15.5746480">
        <ele>408.84900</ele>
        <time>2009-01-05T12:55:42Z</time>
      </trkpt>
      <trkpt lat="27.82823600" lon="-15.5747170">
        <ele>408.28800</ele>
        <time>2009-01-05T12:55:43Z</time>
      </trkpt>
      <trkpt lat="27.82815100" lon="-15.5747770">
        <ele>407.90700</ele>
        <time>2009-01-05T12:55:44Z</time>
      </trkpt>
      <trkpt lat="27.82805900" lon="-15.5748270">
        <ele>406.89400</ele>
        <time>2009-01-05T12:55:45Z</time>
      </trkpt>
      <trkpt lat="27.82796500" lon="-15.5748730">
        <ele>405.90700</ele>
        <time>2009-01-05T12:55:46Z</time>
      </trkpt>
      <trkpt lat="27.82787500" lon="-15.5749290">
        <ele>405.40400</ele>
        <time>2009-01-05T12:55:47Z</time>
      </trkpt>
      <trkpt lat="27.82778900" lon="-15.5749910">
        <ele>404.65500</ele>
        <time>2009-01-05T12:55:48Z</time>
      </trkpt>
      <trkpt lat="27.82770000" lon="-15.5750290">
        <ele>403.64700</ele>
        <time>2009-01-05T12:55:49Z</time>
      </trkpt>
      <trkpt lat="27.82761400" lon="-15.5750080">
        <ele>402.37500</ele>
        <time>2009-01-05T12:55:50Z</time>
      </trkpt>
      <trkpt lat="27.82755300" lon="-15.5749370">
        <ele>402.00200</ele>
        <time>2009-01-05T12:55:51Z</time>
      </trkpt>
      <trkpt lat="27.82750000" lon="-15.5748380">
        <ele>401.31700</ele>
        <time>2009-01-05T12:55:52Z</time>
      </trkpt>
      <trkpt lat="27.82745000" lon="-15.5747460">
        <ele>400.56600</ele>
        <time>2009-01-05T12:55:53Z</time>
      </trkpt>
      <trkpt lat="27.82738800" lon="-15.5746780">
        <ele>400.22200</ele>
        <time>2009-01-05T12:55:54Z</time>
      </trkpt>
      <trkpt lat="27.82730200" lon="-15.5746340">
        <ele>400.61800</ele>
        <time>2009-01-05T12:55:55Z</time>
      </trkpt>
      <trkpt lat="27.82722400" lon="-15.5746580">
        <ele>400.63900</ele>
        <time>2009-01-05T12:55:56Z</time>
      </trkpt>
      <trkpt lat="27.82715200" lon="-15.5746920">
        <ele>400.86300</ele>
        <time>2009-01-05T12:55:57Z</time>
      </trkpt>
      <trkpt lat="27.82708700" lon="-15.5747510">
        <ele>400.73500</ele>
        <time>2009-01-05T12:55:58Z</time>
      </trkpt>
      <trkpt lat="27.82703100" lon="-15.5747900">
        <ele>401.44700</ele>
        <time>2009-01-05T12:55:59Z</time>
      </trkpt>
      <trkpt lat="27.82696800" lon="-15.5748150">
        <ele>401.39100</ele>
        <time>2009-01-05T12:56:00Z</time>
      </trkpt>
      <trkpt lat="27.82689600" lon="-15.5748160">
        <ele>401.54800</ele>
        <time>2009-01-05T12:56:01Z</time>
      </trkpt>
      <trkpt lat="27.82682600" lon="-15.5747990">
        <ele>401.83400</ele>
        <time>2009-01-05T12:56:02Z</time>
      </trkpt>
      <trkpt lat="27.82676000" lon="-15.5747730">
        <ele>402.00400</ele>
        <time>2009-01-05T12:56:03Z</time>
      </trkpt>
      <trkpt lat="27.82669100" lon="-15.5747670">
        <ele>402.40500</ele>
        <time>2009-01-05T12:56:04Z</time>
      </trkpt>
      <trkpt lat="27.82662000" lon="-15.5747850">
        <ele>403.02700</ele>
        <time>2009-01-05T12:56:05Z</time>
      </trkpt>
      <trkpt lat="27.82655400" lon="-15.5748260">
        <ele>403.49100</ele>
        <time>2009-01-05T12:56:06Z</time>
      </trkpt>
      <trkpt lat="27.82649600" lon="-15.5748820">
        <ele>403.61700</ele>
        <time>2009-01-05T12:56:07Z</time>
      </trkpt>
      <trkpt lat="27.82645000" lon="-15.5749470">
        <ele>403.73000</ele>
        <time>2009-01-05T12:56:08Z</time>
      </trkpt>
      <trkpt lat="27.82641200" lon="-15.5750160">
        <ele>404.47500</ele>
        <time>2009-01-05T12:56:09Z</time>
      </trkpt>
      <trkpt lat="27.82637600" lon="-15.5750820">
        <ele>404.52000</ele>
        <time>2009-01-05T12:56:10Z</time>
      </trkpt>
      <trkpt lat="27.82633800" lon="-15.5751460">
        <ele>405.20700</ele>
        <time>2009-01-05T12:56:11Z</time>
      </trkpt>
      <trkpt lat="27.82629700" lon="-15.5752050">
        <ele>405.59300</ele>
        <time>2009-01-05T12:56:12Z</time>
      </trkpt>
      <trkpt lat="27.82625600" lon="-15.5752610">
        <ele>405.86200</ele>
        <time>2009-01-05T12:56:13Z</time>
      </trkpt>
      <trkpt lat="27.82621700" lon="-15.5753110">
        <ele>405.87900</ele>
        <time>2009-01-05T12:56:14Z</time>
      </trkpt>
      <trkpt lat="27.82618000" lon="-15.5753570">
        <ele>405.75500</ele>
        <time>2009-01-05T12:56:15Z</time>
      </trkpt>
      <trkpt lat="27.82614300" lon="-15.5753980">
        <ele>406.09600</ele>
        <time>2009-01-05T12:56:16Z</time>
      </trkpt>
      <trkpt lat="27.82610400" lon="-15.5754350">
        <ele>406.90300</ele>
        <time>2009-01-05T12:56:17Z</time>
      </trkpt>
      <trkpt lat="27.82606200" lon="-15.5754680">
        <ele>407.00700</ele>
        <time>2009-01-05T12:56:18Z</time>
      </trkpt>
      <trkpt lat="27.82602000" lon="-15.5754990">
        <ele>407.37000</ele>
        <time>2009-01-05T12:56:19Z</time>
      </trkpt>
      <trkpt lat="27.82597800" lon="-15.5755290">
        <ele>407.67300</ele>
        <time>2009-01-05T12:56:20Z</time>
      </trkpt>
      <trkpt lat="27.82593500" lon="-15.5755560">
        <ele>407.89800</ele>
        <time>2009-01-05T12:56:21Z</time>
      </trkpt>
      <trkpt lat="27.82589300" lon="-15.5755800">
        <ele>407.87300</ele>
        <time>2009-01-05T12:56:22Z</time>
      </trkpt>
      <trkpt lat="27.82585100" lon="-15.5756010">
        <ele>408.37300</ele>
        <time>2009-01-05T12:56:23Z</time>
      </trkpt>
      <trkpt lat="27.82580900" lon="-15.5756180">
        <ele>408.66300</ele>
        <time>2009-01-05T12:56:24Z</time>
      </trkpt>
      <trkpt lat="27.82576700" lon="-15.5756350">
        <ele>408.85400</ele>
        <time>2009-01-05T12:56:25Z</time>
      </trkpt>
      <trkpt lat="27.82572600" lon="-15.5756520">
        <ele>409.01100</ele>
        <time>2009-01-05T12:56:26Z</time>
      </trkpt>
      <trkpt lat="27.82568600" lon="-15.5756700">
        <ele>409.05400</ele>
        <time>2009-01-05T12:56:27Z</time>
      </trkpt>
      <trkpt lat="27.82564600" lon="-15.5756900">
        <ele>409.47200</ele>
        <time>2009-01-05T12:56:28Z</time>
      </trkpt>
      <trkpt lat="27.82560700" lon="-15.5757110">
        <ele>409.83400</ele>
        <time>2009-01-05T12:56:29Z</time>
      </trkpt>
      <trkpt lat="27.82557000" lon="-15.5757290">
        <ele>409.91400</ele>
        <time>2009-01-05T12:56:30Z</time>
      </trkpt>
      <trkpt lat="27.82553300" lon="-15.5757480">
        <ele>409.84600</ele>
        <time>2009-01-05T12:56:31Z</time>
      </trkpt>
      <trkpt lat="27.82549600" lon="-15.5757680">
        <ele>410.10500</ele>
        <time>2009-01-05T12:56:32Z</time>
      </trkpt>
      <trkpt lat="27.82546000" lon="-15.5757890">
        <ele>410.37200</ele>
        <time>2009-01-05T12:56:33Z</time>
      </trkpt>
      <trkpt lat="27.82542400" lon="-15.5758140">
        <ele>410.55800</ele>
        <time>2009-01-05T12:56:34Z</time>
      </trkpt>
      <trkpt lat="27.82539100" lon="-15.5758440">
        <ele>410.51300</ele>
        <time>2009-01-05T12:56:35Z</time>
      </trkpt>
      <trkpt lat="27.82536200" lon="-15.5758760">
        <ele>410.77300</ele>
        <time>2009-01-05T12:56:36Z</time>
      </trkpt>
      <trkpt lat="27.82533600" lon="-15.5759120">
        <ele>411.03000</ele>
        <time>2009-01-05T12:56:37Z</time>
      </trkpt>
      <trkpt lat="27.82531200" lon="-15.5759500">
        <ele>410.89800</ele>
        <time>2009-01-05T12:56:38Z</time>
      </trkpt>
      <trkpt lat="27.82529100" lon="-15.5759890">
        <ele>411.83400</ele>
        <time>2009-01-05T12:56:39Z</time>
      </trkpt>
      <trkpt lat="27.82527200" lon="-15.5760290">
        <ele>411.63900</ele>
        <time>2009-01-05T12:56:40Z</time>
      </trkpt>
      <trkpt lat="27.82525600" lon="-15.5760710">
        <ele>411.77900</ele>
        <time>2009-01-05T12:56:41Z</time>
      </trkpt>
      <trkpt lat="27.82523900" lon="-15.5761150">
        <ele>412.54500</ele>
        <time>2009-01-05T12:56:42Z</time>
      </trkpt>
      <trkpt lat="27.82522300" lon="-15.5761570">
        <ele>413.03400</ele>
        <time>2009-01-05T12:56:43Z</time>
      </trkpt>
      <trkpt lat="27.82520400" lon="-15.5761980">
        <ele>412.82200</ele>
        <time>2009-01-05T12:56:44Z</time>
      </trkpt>
      <trkpt lat="27.82500400" lon="-15.5763100">
        <ele>414.36200</ele>
        <time>2009-01-05T12:56:50Z</time>
      </trkpt>
      <trkpt lat="27.82496700" lon="-15.5763030">
        <ele>414.36200</ele>
        <time>2009-01-05T12:56:51Z</time>
      </trkpt>
      <trkpt lat="27.82493100" lon="-15.5762930">
        <ele>414.53600</ele>
        <time>2009-01-05T12:56:52Z</time>
      </trkpt>
      <trkpt lat="27.82489700" lon="-15.5762840">
        <ele>414.53600</ele>
        <time>2009-01-05T12:56:53Z</time>
      </trkpt>
      <trkpt lat="27.82486200" lon="-15.5762770">
        <ele>414.88500</ele>
        <time>2009-01-05T12:56:54Z</time>
      </trkpt>
      <trkpt lat="27.82482900" lon="-15.5762750">
        <ele>415.02500</ele>
        <time>2009-01-05T12:56:55Z</time>
      </trkpt>
      <trkpt lat="27.82479600" lon="-15.5762770">
        <ele>414.95900</ele>
        <time>2009-01-05T12:56:56Z</time>
      </trkpt>
      <trkpt lat="27.82476500" lon="-15.5762800">
        <ele>415.48500</ele>
        <time>2009-01-05T12:56:57Z</time>
      </trkpt>
      <trkpt lat="27.82473500" lon="-15.5762840">
        <ele>416.06700</ele>
        <time>2009-01-05T12:56:58Z</time>
      </trkpt>
      <trkpt lat="27.82470700" lon="-15.5762920">
        <ele>416.31500</ele>
        <time>2009-01-05T12:56:59Z</time>
      </trkpt>
      <trkpt lat="27.82468000" lon="-15.5763040">
        <ele>416.43400</ele>
        <time>2009-01-05T12:57:00Z</time>
      </trkpt>
      <trkpt lat="27.82465300" lon="-15.5763180">
        <ele>416.85000</ele>
        <time>2009-01-05T12:57:01Z</time>
      </trkpt>
      <trkpt lat="27.82462500" lon="-15.5763310">
        <ele>417.14100</ele>
        <time>2009-01-05T12:57:02Z</time>
      </trkpt>
      <trkpt lat="27.82459700" lon="-15.5763410">
        <ele>417.53500</ele>
        <time>2009-01-05T12:57:03Z</time>
      </trkpt>
      <trkpt lat="27.82456900" lon="-15.5763480">
        <ele>418.09600</ele>
        <time>2009-01-05T12:57:04Z</time>
      </trkpt>
      <trkpt lat="27.82454000" lon="-15.5763530">
        <ele>418.47900</ele>
        <time>2009-01-05T12:57:05Z</time>
      </trkpt>
      <trkpt lat="27.82451200" lon="-15.5763550">
        <ele>419.06900</ele>
        <time>2009-01-05T12:57:06Z</time>
      </trkpt>
      <trkpt lat="27.82448400" lon="-15.5763550">
        <ele>419.14100</ele>
        <time>2009-01-05T12:57:07Z</time>
      </trkpt>
      <trkpt lat="27.82445600" lon="-15.5763550">
        <ele>419.30500</ele>
        <time>2009-01-05T12:57:08Z</time>
      </trkpt>
      <trkpt lat="27.82442900" lon="-15.5763530">
        <ele>419.23900</ele>
        <time>2009-01-05T12:57:09Z</time>
      </trkpt>
      <trkpt lat="27.82440000" lon="-15.5763500">
        <ele>419.41400</ele>
        <time>2009-01-05T12:57:10Z</time>
      </trkpt>
      <trkpt lat="27.82437100" lon="-15.5763490">
        <ele>419.76900</ele>
        <time>2009-01-05T12:57:11Z</time>
      </trkpt>
      <trkpt lat="27.82434200" lon="-15.5763470">
        <ele>419.95500</ele>
        <time>2009-01-05T12:57:12Z</time>
      </trkpt>
      <trkpt lat="27.82431300" lon="-15.5763470">
        <ele>420.25700</ele>
        <time>2009-01-05T12:57:13Z</time>
      </trkpt>
      <trkpt lat="27.82428400" lon="-15.5763510">
        <ele>420.66200</ele>
        <time>2009-01-05T12:57:14Z</time>
      </trkpt>
      <trkpt lat="27.82425600" lon="-15.5763550">
        <ele>420.49600</ele>
        <time>2009-01-05T12:57:15Z</time>
      </trkpt>
      <trkpt lat="27.82422800" lon="-15.5763610">
        <ele>420.43100</ele>
        <time>2009-01-05T12:57:16Z</time>
      </trkpt>
      <trkpt lat="27.82420000" lon="-15.5763680">
        <ele>420.59000</ele>
        <time>2009-01-05T12:57:17Z</time>
      </trkpt>
      <trkpt lat="27.82417200" lon="-15.5763760">
        <ele>421.03500</ele>
        <time>2009-01-05T12:57:18Z</time>
      </trkpt>
      <trkpt lat="27.82414500" lon="-15.5763870">
        <ele>421.25000</ele>
        <time>2009-01-05T12:57:19Z</time>
      </trkpt>
      <trkpt lat="27.82411900" lon="-15.5763970">
        <ele>421.67600</ele>
        <time>2009-01-05T12:57:20Z</time>
      </trkpt>
      <trkpt lat="27.82409200" lon="-15.5764070">
        <ele>421.88400</ele>
        <time>2009-01-05T12:57:21Z</time>
      </trkpt>
      <trkpt lat="27.82406700" lon="-15.5764180">
        <ele>422.10600</ele>
        <time>2009-01-05T12:57:22Z</time>
      </trkpt>
      <trkpt lat="27.82404100" lon="-15.5764290">
        <ele>422.12300</ele>
        <time>2009-01-05T12:57:23Z</time>
      </trkpt>
      <trkpt lat="27.82401600" lon="-15.5764410">
        <ele>422.32200</ele>
        <time>2009-01-05T12:57:24Z</time>
      </trkpt>
      <trkpt lat="27.82399200" lon="-15.5764550">
        <ele>422.86000</ele>
        <time>2009-01-05T12:57:25Z</time>
      </trkpt>
      <trkpt lat="27.82396800" lon="-15.5764690">
        <ele>423.08000</ele>
        <time>2009-01-05T12:57:26Z</time>
      </trkpt>
      <trkpt lat="27.82394500" lon="-15.5764830">
        <ele>423.24500</ele>
        <time>2009-01-05T12:57:27Z</time>
      </trkpt>
      <trkpt lat="27.82392300" lon="-15.5764970">
        <ele>423.62200</ele>
        <time>2009-01-05T12:57:28Z</time>
      </trkpt>
      <trkpt lat="27.82390100" lon="-15.5765120">
        <ele>423.78900</ele>
        <time>2009-01-05T12:57:29Z</time>
      </trkpt>
      <trkpt lat="27.82388000" lon="-15.5765260">
        <ele>424.02000</ele>
        <time>2009-01-05T12:57:30Z</time>
      </trkpt>
      <trkpt lat="27.82385800" lon="-15.5765410">
        <ele>424.28900</ele>
        <time>2009-01-05T12:57:31Z</time>
      </trkpt>
      <trkpt lat="27.82383600" lon="-15.5765550">
        <ele>424.64400</ele>
        <time>2009-01-05T12:57:32Z</time>
      </trkpt>
      <trkpt lat="27.82381400" lon="-15.5765680">
        <ele>425.04900</ele>
        <time>2009-01-05T12:57:33Z</time>
      </trkpt>
      <trkpt lat="27.82379100" lon="-15.5765800">
        <ele>425.32600</ele>
        <time>2009-01-05T12:57:34Z</time>
      </trkpt>
      <trkpt lat="27.82376700" lon="-15.5765910">
        <ele>425.76800</ele>
        <time>2009-01-05T12:57:35Z</time>
      </trkpt>
      <trkpt lat="27.82374400" lon="-15.5766000">
        <ele>425.97300</ele>
        <time>2009-01-05T12:57:36Z</time>
      </trkpt>
      <trkpt lat="27.82372000" lon="-15.5766040">
        <ele>426.50200</ele>
        <time>2009-01-05T12:57:37Z</time>
      </trkpt>
      <trkpt lat="27.82369600" lon="-15.5766010">
        <ele>426.47500</ele>
        <time>2009-01-05T12:57:38Z</time>
      </trkpt>
      <trkpt lat="27.82367400" lon="-15.5765920">
        <ele>426.93300</ele>
        <time>2009-01-05T12:57:39Z</time>
      </trkpt>
      <trkpt lat="27.82365200" lon="-15.5765770">
        <ele>427.28100</ele>
        <time>2009-01-05T12:57:40Z</time>
      </trkpt>
      <trkpt lat="27.82363400" lon="-15.5765580">
        <ele>427.46700</ele>
        <time>2009-01-05T12:57:41Z</time>
      </trkpt>
      <trkpt lat="27.82362100" lon="-15.5765340">
        <ele>427.88500</ele>
        <time>2009-01-05T12:57:42Z</time>
      </trkpt>
      <trkpt lat="27.82361600" lon="-15.5765070">
        <ele>428.28100</ele>
        <time>2009-01-05T12:57:43Z</time>
      </trkpt>
      <trkpt lat="27.82362100" lon="-15.5764800">
        <ele>428.58600</ele>
        <time>2009-01-05T12:57:44Z</time>
      </trkpt>
      <trkpt lat="27.82363200" lon="-15.5764550">
        <ele>428.84600</ele>
        <time>2009-01-05T12:57:45Z</time>
      </trkpt>
      <trkpt lat="27.82364500" lon="-15.5764330">
        <ele>429.40700</ele>
        <time>2009-01-05T12:57:46Z</time>
      </trkpt>
      <trkpt lat="27.82366100" lon="-15.5764120">
        <ele>429.99000</ele>
        <time>2009-01-05T12:57:47Z</time>
      </trkpt>
      <trkpt lat="27.82368100" lon="-15.5763930">
        <ele>430.18200</ele>
        <time>2009-01-05T12:57:48Z</time>
      </trkpt>
      <trkpt lat="27.82370400" lon="-15.5763750">
        <ele>430.36800</ele>
        <time>2009-01-05T12:57:49Z</time>
      </trkpt>
      <trkpt lat="27.82372900" lon="-15.5763600">
        <ele>430.54900</ele>
        <time>2009-01-05T12:57:50Z</time>
      </trkpt>
      <trkpt lat="27.82375500" lon="-15.5763470">
        <ele>430.78000</ele>
        <time>2009-01-05T12:57:51Z</time>
      </trkpt>
      <trkpt lat="27.82378300" lon="-15.5763340">
        <ele>430.50400</ele>
        <time>2009-01-05T12:57:52Z</time>
      </trkpt>
      <trkpt lat="27.82381000" lon="-15.5763200">
        <ele>430.87000</ele>
        <time>2009-01-05T12:57:53Z</time>
      </trkpt>
      <trkpt lat="27.82383700" lon="-15.5763070">
        <ele>431.35200</ele>
        <time>2009-01-05T12:57:54Z</time>
      </trkpt>
      <trkpt lat="27.82386400" lon="-15.5762940">
        <ele>431.40300</ele>
        <time>2009-01-05T12:57:55Z</time>
      </trkpt>
      <trkpt lat="27.82389000" lon="-15.5762800">
        <ele>431.63200</ele>
        <time>2009-01-05T12:57:56Z</time>
      </trkpt>
      <trkpt lat="27.82391600" lon="-15.5762660">
        <ele>431.56200</ele>
        <time>2009-01-05T12:57:57Z</time>
      </trkpt>
      <trkpt lat="27.82394200" lon="-15.5762530">
        <ele>431.91400</ele>
        <time>2009-01-05T12:57:58Z</time>
      </trkpt>
      <trkpt lat="27.82396700" lon="-15.5762390">
        <ele>432.09800</ele>
        <time>2009-01-05T12:57:59Z</time>
      </trkpt>
      <trkpt lat="27.82399300" lon="-15.5762260">
        <ele>432.26800</ele>
        <time>2009-01-05T12:58:00Z</time>
      </trkpt>
      <trkpt lat="27.82401900" lon="-15.5762130">
        <ele>432.50500</ele>
        <time>2009-01-05T12:58:01Z</time>
      </trkpt>
      <trkpt lat="27.82404400" lon="-15.5762010">
        <ele>432.63500</ele>
        <time>2009-01-05T12:58:02Z</time>
      </trkpt>
      <trkpt lat="27.82407000" lon="-15.5761890">
        <ele>432.96400</ele>
        <time>2009-01-05T12:58:03Z</time>
      </trkpt>
      <trkpt lat="27.82409500" lon="-15.5761780">
        <ele>433.25100</ele>
        <time>2009-01-05T12:58:04Z</time>
      </trkpt>
      <trkpt lat="27.82411900" lon="-15.5761650">
        <ele>433.51100</ele>
        <time>2009-01-05T12:58:05Z</time>
      </trkpt>
      <trkpt lat="27.82414200" lon="-15.5761500">
        <ele>433.66000</ele>
        <time>2009-01-05T12:58:06Z</time>
      </trkpt>
      <trkpt lat="27.82415900" lon="-15.5761290">
        <ele>434.19500</ele>
        <time>2009-01-05T12:58:07Z</time>
      </trkpt>
      <trkpt lat="27.82416900" lon="-15.5761030">
        <ele>434.38100</ele>
        <time>2009-01-05T12:58:08Z</time>
      </trkpt>
      <trkpt lat="27.82417200" lon="-15.5760760">
        <ele>434.83400</ele>
        <time>2009-01-05T12:58:09Z</time>
      </trkpt>
      <trkpt lat="27.82417100" lon="-15.5760510">
        <ele>435.27700</ele>
        <time>2009-01-05T12:58:10Z</time>
      </trkpt>
      <trkpt lat="27.82416400" lon="-15.5760300">
        <ele>435.69000</ele>
        <time>2009-01-05T12:58:11Z</time>
      </trkpt>
      <trkpt lat="27.82415000" lon="-15.5760140">
        <ele>436.24900</ele>
        <time>2009-01-05T12:58:12Z</time>
      </trkpt>
      <trkpt lat="27.82413100" lon="-15.5760050">
        <ele>436.55900</ele>
        <time>2009-01-05T12:58:13Z</time>
      </trkpt>
      <trkpt lat="27.82411000" lon="-15.5759990">
        <ele>436.94300</ele>
        <time>2009-01-05T12:58:14Z</time>
      </trkpt>
      <trkpt lat="27.82408700" lon="-15.5759970">
        <ele>437.54100</ele>
        <time>2009-01-05T12:58:15Z</time>
      </trkpt>
      <trkpt lat="27.82406500" lon="-15.5760030">
        <ele>437.95400</ele>
        <time>2009-01-05T12:58:16Z</time>
      </trkpt>
      <trkpt lat="27.82404400" lon="-15.5760140">
        <ele>438.47300</ele>
        <time>2009-01-05T12:58:17Z</time>
      </trkpt>
      <trkpt lat="27.82402400" lon="-15.5760280">
        <ele>438.57400</ele>
        <time>2009-01-05T12:58:18Z</time>
      </trkpt>
      <trkpt lat="27.82400300" lon="-15.5760410">
        <ele>438.96900</ele>
        <time>2009-01-05T12:58:19Z</time>
      </trkpt>
      <trkpt lat="27.82398100" lon="-15.5760520">
        <ele>439.24200</ele>
        <time>2009-01-05T12:58:20Z</time>
      </trkpt>
      <trkpt lat="27.82395800" lon="-15.5760640">
        <ele>439.41000</ele>
        <time>2009-01-05T12:58:21Z</time>
      </trkpt>
      <trkpt lat="27.82393600" lon="-15.5760770">
        <ele>439.76700</ele>
        <time>2009-01-05T12:58:22Z</time>
      </trkpt>
      <trkpt lat="27.82391400" lon="-15.5760900">
        <ele>440.16000</ele>
        <time>2009-01-05T12:58:23Z</time>
      </trkpt>
      <trkpt lat="27.82389100" lon="-15.5761010">
        <ele>440.40400</ele>
        <time>2009-01-05T12:58:24Z</time>
      </trkpt>
      <trkpt lat="27.82386700" lon="-15.5761110">
        <ele>440.80900</ele>
        <time>2009-01-05T12:58:25Z</time>
      </trkpt>
      <trkpt lat="27.82384500" lon="-15.5761200">
        <ele>441.16000</ele>
        <time>2009-01-05T12:58:26Z</time>
      </trkpt>
      <trkpt lat="27.82382300" lon="-15.5761300">
        <ele>441.35600</ele>
        <time>2009-01-05T12:58:27Z</time>
      </trkpt>
      <trkpt lat="27.82380000" lon="-15.5761380">
        <ele>441.67200</ele>
        <time>2009-01-05T12:58:28Z</time>
      </trkpt>
      <trkpt lat="27.82377800" lon="-15.5761450">
        <ele>441.95900</ele>
        <time>2009-01-05T12:58:29Z</time>
      </trkpt>
      <trkpt lat="27.82375500" lon="-15.5761520">
        <ele>442.34500</ele>
        <time>2009-01-05T12:58:30Z</time>
      </trkpt>
      <trkpt lat="27.82373400" lon="-15.5761610">
        <ele>442.53200</ele>
        <time>2009-01-05T12:58:31Z</time>
      </trkpt>
      <trkpt lat="27.82371300" lon="-15.5761700">
        <ele>442.72000</ele>
        <time>2009-01-05T12:58:32Z</time>
      </trkpt>
      <trkpt lat="27.82369200" lon="-15.5761760">
        <ele>442.73700</ele>
        <time>2009-01-05T12:58:33Z</time>
      </trkpt>
      <trkpt lat="27.82367100" lon="-15.5761790">
        <ele>443.23300</ele>
        <time>2009-01-05T12:58:34Z</time>
      </trkpt>
      <trkpt lat="27.82364900" lon="-15.5761820">
        <ele>443.54900</ele>
        <time>2009-01-05T12:58:35Z</time>
      </trkpt>
      <trkpt lat="27.82362700" lon="-15.5761840">
        <ele>444.04100</ele>
        <time>2009-01-05T12:58:36Z</time>
      </trkpt>
      <trkpt lat="27.82360500" lon="-15.5761860">
        <ele>444.03200</ele>
        <time>2009-01-05T12:58:37Z</time>
      </trkpt>
      <trkpt lat="27.82358400" lon="-15.5761890">
        <ele>444.24200</ele>
        <time>2009-01-05T12:58:38Z</time>
      </trkpt>
      <trkpt lat="27.82356200" lon="-15.5761900">
        <ele>444.76100</ele>
        <time>2009-01-05T12:58:39Z</time>
      </trkpt>
      <trkpt lat="27.82354000" lon="-15.5761900">
        <ele>444.73800</ele>
        <time>2009-01-05T12:58:40Z</time>
      </trkpt>
      <trkpt lat="27.82351800" lon="-15.5761920">
        <ele>445.03500</ele>
        <time>2009-01-05T12:58:41Z</time>
      </trkpt>
      <trkpt lat="27.82349500" lon="-15.5761930">
        <ele>445.10000</ele>
        <time>2009-01-05T12:58:42Z</time>
      </trkpt>
      <trkpt lat="27.82347200" lon="-15.5761920">
        <ele>445.11500</ele>
        <time>2009-01-05T12:58:43Z</time>
      </trkpt>
      <trkpt lat="27.82344700" lon="-15.5761900">
        <ele>445.29800</ele>
        <time>2009-01-05T12:58:44Z</time>
      </trkpt>
      <trkpt lat="27.82342300" lon="-15.5761880">
        <ele>445.79600</ele>
        <time>2009-01-05T12:58:45Z</time>
      </trkpt>
      <trkpt lat="27.82339900" lon="-15.5761870">
        <ele>445.89800</ele>
        <time>2009-01-05T12:58:46Z</time>
      </trkpt>
      <trkpt lat="27.82337500" lon="-15.5761890">
        <ele>446.06900</ele>
        <time>2009-01-05T12:58:47Z</time>
      </trkpt>
      <trkpt lat="27.82335200" lon="-15.5761910">
        <ele>445.86700</ele>
        <time>2009-01-05T12:58:48Z</time>
      </trkpt>
      <trkpt lat="27.82332900" lon="-15.5761930">
        <ele>446.47300</ele>
        <time>2009-01-05T12:58:49Z</time>
      </trkpt>
      <trkpt lat="27.82330500" lon="-15.5761970">
        <ele>446.69400</ele>
        <time>2009-01-05T12:58:50Z</time>
      </trkpt>
      <trkpt lat="27.82328100" lon="-15.5762000">
        <ele>446.83500</ele>
        <time>2009-01-05T12:58:51Z</time>
      </trkpt>
      <trkpt lat="27.82325700" lon="-15.5762040">
        <ele>446.78700</ele>
        <time>2009-01-05T12:58:52Z</time>
      </trkpt>
      <trkpt lat="27.82323400" lon="-15.5762100">
        <ele>446.81200</ele>
        <time>2009-01-05T12:58:53Z</time>
      </trkpt>
      <trkpt lat="27.82321300" lon="-15.5762190">
        <ele>447.41100</ele>
        <time>2009-01-05T12:58:54Z</time>
      </trkpt>
      <trkpt lat="27.82319100" lon="-15.5762290">
        <ele>447.77700</ele>
        <time>2009-01-05T12:58:55Z</time>
      </trkpt>
      <trkpt lat="27.82316900" lon="-15.5762370">
        <ele>448.17800</ele>
        <time>2009-01-05T12:58:56Z</time>
      </trkpt>
      <trkpt lat="27.82314700" lon="-15.5762450">
        <ele>448.24000</ele>
        <time>2009-01-05T12:58:57Z</time>
      </trkpt>
      <trkpt lat="27.82312600" lon="-15.5762550">
        <ele>448.42400</ele>
        <time>2009-01-05T12:58:58Z</time>
      </trkpt>
      <trkpt lat="27.82310500" lon="-15.5762670">
        <ele>448.30900</ele>
        <time>2009-01-05T12:58:59Z</time>
      </trkpt>
      <trkpt lat="27.82308300" lon="-15.5762780">
        <ele>449.01600</ele>
        <time>2009-01-05T12:59:00Z</time>
      </trkpt>
      <trkpt lat="27.82306200" lon="-15.5762890">
        <ele>449.16100</ele>
        <time>2009-01-05T12:59:01Z</time>
      </trkpt>
      <trkpt lat="27.82304200" lon="-15.5763010">
        <ele>449.36100</ele>
        <time>2009-01-05T12:59:02Z</time>
      </trkpt>
      <trkpt lat="27.82302300" lon="-15.5763160">
        <ele>449.43100</ele>
        <time>2009-01-05T12:59:03Z</time>
      </trkpt>
      <trkpt lat="27.82300300" lon="-15.5763320">
        <ele>450.04300</ele>
        <time>2009-01-05T12:59:04Z</time>
      </trkpt>
      <trkpt lat="27.82298400" lon="-15.5763470">
        <ele>449.96600</ele>
        <time>2009-01-05T12:59:05Z</time>
      </trkpt>
      <trkpt lat="27.82296300" lon="-15.5763620">
        <ele>450.38000</ele>
        <time>2009-01-05T12:59:06Z</time>
      </trkpt>
      <trkpt lat="27.82294200" lon="-15.5763780">
        <ele>450.44800</ele>
        <time>2009-01-05T12:59:07Z</time>
      </trkpt>
      <trkpt lat="27.82292000" lon="-15.5763940">
        <ele>450.72900</ele>
        <time>2009-01-05T12:59:08Z</time>
      </trkpt>
      <trkpt lat="27.82289900" lon="-15.5764120">
        <ele>451.11200</ele>
        <time>2009-01-05T12:59:09Z</time>
      </trkpt>
      <trkpt lat="27.82287800" lon="-15.5764320">
        <ele>451.04400</ele>
        <time>2009-01-05T12:59:10Z</time>
      </trkpt>
      <trkpt lat="27.82285800" lon="-15.5764530">
        <ele>451.42700</ele>
        <time>2009-01-05T12:59:11Z</time>
      </trkpt>
      <trkpt lat="27.82284000" lon="-15.5764750">
        <ele>451.61600</ele>
        <time>2009-01-05T12:59:12Z</time>
      </trkpt>
      <trkpt lat="27.82282300" lon="-15.5764970">
        <ele>451.72100</ele>
        <time>2009-01-05T12:59:13Z</time>
      </trkpt>
      <trkpt lat="27.82280600" lon="-15.5765220">
        <ele>452.01000</ele>
        <time>2009-01-05T12:59:14Z</time>
      </trkpt>
      <trkpt lat="27.82278900" lon="-15.5765500">
        <ele>452.36600</ele>
        <time>2009-01-05T12:59:15Z</time>
      </trkpt>
      <trkpt lat="27.82277300" lon="-15.5765820">
        <ele>452.62100</ele>
        <time>2009-01-05T12:59:16Z</time>
      </trkpt>
      <trkpt lat="27.82275600" lon="-15.5766150">
        <ele>452.87700</ele>
        <time>2009-01-05T12:59:17Z</time>
      </trkpt>
      <trkpt lat="27.82273500" lon="-15.5766480">
        <ele>453.33800</ele>
        <time>2009-01-05T12:59:18Z</time>
      </trkpt>
      <trkpt lat="27.82271600" lon="-15.5766820">
        <ele>453.76300</ele>
        <time>2009-01-05T12:59:19Z</time>
      </trkpt>
      <trkpt lat="27.82269800" lon="-15.5767140">
        <ele>454.07100</ele>
        <time>2009-01-05T12:59:20Z</time>
      </trkpt>
      <trkpt lat="27.82267900" lon="-15.5767450">
        <ele>454.25700</ele>
        <time>2009-01-05T12:59:21Z</time>
      </trkpt>
      <trkpt lat="27.82266000" lon="-15.5767740">
        <ele>454.59900</ele>
        <time>2009-01-05T12:59:22Z</time>
      </trkpt>
      <trkpt lat="27.82264000" lon="-15.5768030">
        <ele>455.21100</ele>
        <time>2009-01-05T12:59:23Z</time>
      </trkpt>
      <trkpt lat="27.82261600" lon="-15.5768290">
        <ele>455.65900</ele>
        <time>2009-01-05T12:59:24Z</time>
      </trkpt>
      <trkpt lat="27.82259100" lon="-15.5768520">
        <ele>456.14700</ele>
        <time>2009-01-05T12:59:25Z</time>
      </trkpt>
      <trkpt lat="27.82256500" lon="-15.5768710">
        <ele>456.38300</ele>
        <time>2009-01-05T12:59:26Z</time>
      </trkpt>
      <trkpt lat="27.82253900" lon="-15.5768880">
        <ele>456.69600</ele>
        <time>2009-01-05T12:59:27Z</time>
      </trkpt>
      <trkpt lat="27.82251200" lon="-15.5769020">
        <ele>457.00700</ele>
        <time>2009-01-05T12:59:28Z</time>
      </trkpt>
      <trkpt lat="27.82248600" lon="-15.5769140">
        <ele>456.96300</ele>
        <time>2009-01-05T12:59:29Z</time>
      </trkpt>
      <trkpt lat="27.82245900" lon="-15.5769240">
        <ele>457.26500</ele>
        <time>2009-01-05T12:59:30Z</time>
      </trkpt>
      <trkpt lat="27.82243400" lon="-15.5769340">
        <ele>457.54900</ele>
        <time>2009-01-05T12:59:31Z</time>
      </trkpt>
      <trkpt lat="27.82240900" lon="-15.5769430">
        <ele>458.21700</ele>
        <time>2009-01-05T12:59:32Z</time>
      </trkpt>
      <trkpt lat="27.82238400" lon="-15.5769530">
        <ele>458.49800</ele>
        <time>2009-01-05T12:59:33Z</time>
      </trkpt>
      <trkpt lat="27.82235900" lon="-15.5769650">
        <ele>458.60500</ele>
        <time>2009-01-05T12:59:34Z</time>
      </trkpt>
      <trkpt lat="27.82233500" lon="-15.5769780">
        <ele>459.12700</ele>
        <time>2009-01-05T12:59:35Z</time>
      </trkpt>
      <trkpt lat="27.82231100" lon="-15.5769920">
        <ele>459.04700</ele>
        <time>2009-01-05T12:59:36Z</time>
      </trkpt>
      <trkpt lat="27.82228800" lon="-15.5770070">
        <ele>459.29400</ele>
        <time>2009-01-05T12:59:37Z</time>
      </trkpt>
      <trkpt lat="27.82226700" lon="-15.5770230">
        <ele>459.70800</ele>
        <time>2009-01-05T12:59:38Z</time>
      </trkpt>
      <trkpt lat="27.82224600" lon="-15.5770390">
        <ele>460.03400</ele>
        <time>2009-01-05T12:59:39Z</time>
      </trkpt>
      <trkpt lat="27.82222500" lon="-15.5770570">
        <ele>460.33200</ele>
        <time>2009-01-05T12:59:40Z</time>
      </trkpt>
      <trkpt lat="27.82220300" lon="-15.5770760">
        <ele>460.40200</ele>
        <time>2009-01-05T12:59:41Z</time>
      </trkpt>
      <trkpt lat="27.82218100" lon="-15.5770960">
        <ele>460.54700</ele>
        <time>2009-01-05T12:59:42Z</time>
      </trkpt>
      <trkpt lat="27.82215600" lon="-15.5771150">
        <ele>461.13500</ele>
        <time>2009-01-05T12:59:43Z</time>
      </trkpt>
      <trkpt lat="27.82213300" lon="-15.5771350">
        <ele>461.15500</ele>
        <time>2009-01-05T12:59:44Z</time>
      </trkpt>
      <trkpt lat="27.82211200" lon="-15.5771610">
        <ele>461.59600</ele>
        <time>2009-01-05T12:59:45Z</time>
      </trkpt>
      <trkpt lat="27.82209200" lon="-15.5771880">
        <ele>461.83500</ele>
        <time>2009-01-05T12:59:46Z</time>
      </trkpt>
      <trkpt lat="27.82207300" lon="-15.5772150">
        <ele>461.77800</ele>
        <time>2009-01-05T12:59:47Z</time>
      </trkpt>
      <trkpt lat="27.82205500" lon="-15.5772410">
        <ele>462.39300</ele>
        <time>2009-01-05T12:59:48Z</time>
      </trkpt>
      <trkpt lat="27.82203900" lon="-15.5772680">
        <ele>462.96700</ele>
        <time>2009-01-05T12:59:49Z</time>
      </trkpt>
      <trkpt lat="27.82202300" lon="-15.5772950">
        <ele>463.23500</ele>
        <time>2009-01-05T12:59:50Z</time>
      </trkpt>
      <trkpt lat="27.82200700" lon="-15.5773190">
        <ele>463.09100</ele>
        <time>2009-01-05T12:59:51Z</time>
      </trkpt>
      <trkpt lat="27.82199300" lon="-15.5773450">
        <ele>463.59100</ele>
        <time>2009-01-05T12:59:52Z</time>
      </trkpt>
      <trkpt lat="27.82198000" lon="-15.5773730">
        <ele>463.64900</ele>
        <time>2009-01-05T12:59:53Z</time>
      </trkpt>
      <trkpt lat="27.82196900" lon="-15.5774020">
        <ele>463.97200</ele>
        <time>2009-01-05T12:59:54Z</time>
      </trkpt>
      <trkpt lat="27.82196000" lon="-15.5774310">
        <ele>464.40800</ele>
        <time>2009-01-05T12:59:55Z</time>
      </trkpt>
      <trkpt lat="27.82195000" lon="-15.5774600">
        <ele>464.31100</ele>
        <time>2009-01-05T12:59:56Z</time>
      </trkpt>
      <trkpt lat="27.82194000" lon="-15.5774890">
        <ele>464.54300</ele>
        <time>2009-01-05T12:59:57Z</time>
      </trkpt>
      <trkpt lat="27.82192800" lon="-15.5775180">
        <ele>464.61200</ele>
        <time>2009-01-05T12:59:58Z</time>
      </trkpt>
      <trkpt lat="27.82191500" lon="-15.5775480">
        <ele>464.86100</ele>
        <time>2009-01-05T12:59:59Z</time>
      </trkpt>
      <trkpt lat="27.82190100" lon="-15.5775780">
        <ele>465.25800</ele>
        <time>2009-01-05T13:00:00Z</time>
      </trkpt>
      <trkpt lat="27.82188700" lon="-15.5776090">
        <ele>464.81100</ele>
        <time>2009-01-05T13:00:01Z</time>
      </trkpt>
      <trkpt lat="27.82187100" lon="-15.5776390">
        <ele>465.53300</ele>
        <time>2009-01-05T13:00:02Z</time>
      </trkpt>
      <trkpt lat="27.82185100" lon="-15.5776680">
        <ele>465.87400</ele>
        <time>2009-01-05T13:00:03Z</time>
      </trkpt>
      <trkpt lat="27.82182600" lon="-15.5776930">
        <ele>466.21000</ele>
        <time>2009-01-05T13:00:04Z</time>
      </trkpt>
      <trkpt lat="27.82179700" lon="-15.5777150">
        <ele>466.49000</ele>
        <time>2009-01-05T13:00:05Z</time>
      </trkpt>
      <trkpt lat="27.82176600" lon="-15.5777340">
        <ele>466.74400</ele>
        <time>2009-01-05T13:00:06Z</time>
      </trkpt>
      <trkpt lat="27.82173400" lon="-15.5777490">
        <ele>467.02400</ele>
        <time>2009-01-05T13:00:07Z</time>
      </trkpt>
      <trkpt lat="27.82170100" lon="-15.5777620">
        <ele>467.19600</ele>
        <time>2009-01-05T13:00:08Z</time>
      </trkpt>
      <trkpt lat="27.82166800" lon="-15.5777730">
        <ele>467.41300</ele>
        <time>2009-01-05T13:00:09Z</time>
      </trkpt>
      <trkpt lat="27.82163700" lon="-15.5777850">
        <ele>467.43400</ele>
        <time>2009-01-05T13:00:10Z</time>
      </trkpt>
      <trkpt lat="27.82160700" lon="-15.5777950">
        <ele>467.53200</ele>
        <time>2009-01-05T13:00:11Z</time>
      </trkpt>
      <trkpt lat="27.82157700" lon="-15.5778060">
        <ele>467.86800</ele>
        <time>2009-01-05T13:00:12Z</time>
      </trkpt>
      <trkpt lat="27.82154800" lon="-15.5778180">
        <ele>468.25400</ele>
        <time>2009-01-05T13:00:13Z</time>
      </trkpt>
      <trkpt lat="27.82152000" lon="-15.5778290">
        <ele>468.36800</ele>
        <time>2009-01-05T13:00:14Z</time>
      </trkpt>
      <trkpt lat="27.82149200" lon="-15.5778390">
        <ele>468.77500</ele>
        <time>2009-01-05T13:00:15Z</time>
      </trkpt>
      <trkpt lat="27.82146500" lon="-15.5778480">
        <ele>469.05800</ele>
        <time>2009-01-05T13:00:16Z</time>
      </trkpt>
      <trkpt lat="27.82143700" lon="-15.5778560">
        <ele>469.09000</ele>
        <time>2009-01-05T13:00:17Z</time>
      </trkpt>
      <trkpt lat="27.82140900" lon="-15.5778620">
        <ele>469.36000</ele>
        <time>2009-01-05T13:00:18Z</time>
      </trkpt>
      <trkpt lat="27.82138100" lon="-15.5778670">
        <ele>469.53000</ele>
        <time>2009-01-05T13:00:19Z</time>
      </trkpt>
      <trkpt lat="27.82135200" lon="-15.5778710">
        <ele>469.70500</ele>
        <time>2009-01-05T13:00:20Z</time>
      </trkpt>
      <trkpt lat="27.82132400" lon="-15.5778750">
        <ele>469.97700</ele>
        <time>2009-01-05T13:00:21Z</time>
      </trkpt>
      <trkpt lat="27.82129600" lon="-15.5778790">
        <ele>470.30800</ele>
        <time>2009-01-05T13:00:22Z</time>
      </trkpt>
      <trkpt lat="27.82126800" lon="-15.5778830">
        <ele>470.28000</ele>
        <time>2009-01-05T13:00:23Z</time>
      </trkpt>
      <trkpt lat="27.82124000" lon="-15.5778880">
        <ele>471.01700</ele>
        <time>2009-01-05T13:00:24Z</time>
      </trkpt>
      <trkpt lat="27.82121200" lon="-15.5778900">
        <ele>471.18200</ele>
        <time>2009-01-05T13:00:25Z</time>
      </trkpt>
      <trkpt lat="27.82118500" lon="-15.5778920">
        <ele>471.24300</ele>
        <time>2009-01-05T13:00:26Z</time>
      </trkpt>
      <trkpt lat="27.82115900" lon="-15.5778910">
        <ele>471.67200</ele>
        <time>2009-01-05T13:00:27Z</time>
      </trkpt>
      <trkpt lat="27.82113300" lon="-15.5778900">
        <ele>471.99700</ele>
        <time>2009-01-05T13:00:28Z</time>
      </trkpt>
      <trkpt lat="27.82110400" lon="-15.5778850">
        <ele>472.20900</ele>
        <time>2009-01-05T13:00:29Z</time>
      </trkpt>
      <trkpt lat="27.82107200" lon="-15.5778740">
        <ele>472.16700</ele>
        <time>2009-01-05T13:00:30Z</time>
      </trkpt>
      <trkpt lat="27.82103900" lon="-15.5778570">
        <ele>472.43200</ele>
        <time>2009-01-05T13:00:31Z</time>
      </trkpt>
      <trkpt lat="27.82100500" lon="-15.5778360">
        <ele>472.51700</ele>
        <time>2009-01-05T13:00:32Z</time>
      </trkpt>
      <trkpt lat="27.82097100" lon="-15.5778110">
        <ele>472.87200</ele>
        <time>2009-01-05T13:00:33Z</time>
      </trkpt>
      <trkpt lat="27.82093400" lon="-15.5777840">
        <ele>472.81700</ele>
        <time>2009-01-05T13:00:34Z</time>
      </trkpt>
      <trkpt lat="27.82089800" lon="-15.5777570">
        <ele>472.78000</ele>
        <time>2009-01-05T13:00:35Z</time>
      </trkpt>
      <trkpt lat="27.82085900" lon="-15.5777300">
        <ele>473.21700</ele>
        <time>2009-01-05T13:00:36Z</time>
      </trkpt>
      <trkpt lat="27.82081700" lon="-15.5777050">
        <ele>473.05000</ele>
        <time>2009-01-05T13:00:37Z</time>
      </trkpt>
      <trkpt lat="27.82077100" lon="-15.5776860">
        <ele>472.89500</ele>
        <time>2009-01-05T13:00:38Z</time>
      </trkpt>
      <trkpt lat="27.82072300" lon="-15.5776760">
        <ele>472.96100</ele>
        <time>2009-01-05T13:00:39Z</time>
      </trkpt>
      <trkpt lat="27.82067400" lon="-15.5776760">
        <ele>473.23600</ele>
        <time>2009-01-05T13:00:40Z</time>
      </trkpt>
      <trkpt lat="27.82062700" lon="-15.5776800">
        <ele>473.30300</ele>
        <time>2009-01-05T13:00:41Z</time>
      </trkpt>
      <trkpt lat="27.82058200" lon="-15.5776870">
        <ele>473.54300</ele>
        <time>2009-01-05T13:00:42Z</time>
      </trkpt>
      <trkpt lat="27.82053800" lon="-15.5776960">
        <ele>473.68400</ele>
        <time>2009-01-05T13:00:43Z</time>
      </trkpt>
      <trkpt lat="27.82049600" lon="-15.5777070">
        <ele>473.73700</ele>
        <time>2009-01-05T13:00:44Z</time>
      </trkpt>
      <trkpt lat="27.82045500" lon="-15.5777170">
        <ele>473.74800</ele>
        <time>2009-01-05T13:00:45Z</time>
      </trkpt>
      <trkpt lat="27.82041500" lon="-15.5777290">
        <ele>474.01800</ele>
        <time>2009-01-05T13:00:46Z</time>
      </trkpt>
      <trkpt lat="27.82037700" lon="-15.5777440">
        <ele>474.49400</ele>
        <time>2009-01-05T13:00:47Z</time>
      </trkpt>
      <trkpt lat="27.82034100" lon="-15.5777630">
        <ele>474.85100</ele>
        <time>2009-01-05T13:00:48Z</time>
      </trkpt>
      <trkpt lat="27.82030800" lon="-15.5777860">
        <ele>475.00700</ele>
        <time>2009-01-05T13:00:49Z</time>
      </trkpt>
      <trkpt lat="27.82027700" lon="-15.5778150">
        <ele>475.10300</ele>
        <time>2009-01-05T13:00:50Z</time>
      </trkpt>
      <trkpt lat="27.82025100" lon="-15.5778440">
        <ele>475.43300</ele>
        <time>2009-01-05T13:00:51Z</time>
      </trkpt>
      <trkpt lat="27.82022800" lon="-15.5778730">
        <ele>475.75100</ele>
        <time>2009-01-05T13:00:52Z</time>
      </trkpt>
      <trkpt lat="27.82020800" lon="-15.5779020">
        <ele>476.13000</ele>
        <time>2009-01-05T13:00:53Z</time>
      </trkpt>
      <trkpt lat="27.82018600" lon="-15.5779300">
        <ele>476.73000</ele>
        <time>2009-01-05T13:00:54Z</time>
      </trkpt>
      <trkpt lat="27.82016500" lon="-15.5779590">
        <ele>477.03500</ele>
        <time>2009-01-05T13:00:55Z</time>
      </trkpt>
      <trkpt lat="27.82014400" lon="-15.5779920">
        <ele>476.99900</ele>
        <time>2009-01-05T13:00:56Z</time>
      </trkpt>
      <trkpt lat="27.82012500" lon="-15.5780260">
        <ele>477.35100</ele>
        <time>2009-01-05T13:00:57Z</time>
      </trkpt>
      <trkpt lat="27.82010400" lon="-15.5780600">
        <ele>477.57900</ele>
        <time>2009-01-05T13:00:58Z</time>
      </trkpt>
      <trkpt lat="27.82008100" lon="-15.5780930">
        <ele>477.84400</ele>
        <time>2009-01-05T13:00:59Z</time>
      </trkpt>
      <trkpt lat="27.82005700" lon="-15.5781250">
        <ele>477.92100</ele>
        <time>2009-01-05T13:01:00Z</time>
      </trkpt>
      <trkpt lat="27.82003200" lon="-15.5781540">
        <ele>478.04600</ele>
        <time>2009-01-05T13:01:01Z</time>
      </trkpt>
      <trkpt lat="27.82000800" lon="-15.5781830">
        <ele>478.38200</ele>
        <time>2009-01-05T13:01:02Z</time>
      </trkpt>
      <trkpt lat="27.81998300" lon="-15.5782110">
        <ele>478.33000</ele>
        <time>2009-01-05T13:01:03Z</time>
      </trkpt>
      <trkpt lat="27.81996100" lon="-15.5782400">
        <ele>478.77700</ele>
        <time>2009-01-05T13:01:04Z</time>
      </trkpt>
      <trkpt lat="27.81994000" lon="-15.5782690">
        <ele>478.75200</ele>
        <time>2009-01-05T13:01:05Z</time>
      </trkpt>
      <trkpt lat="27.81992000" lon="-15.5782970">
        <ele>479.21200</ele>
        <time>2009-01-05T13:01:06Z</time>
      </trkpt>
      <trkpt lat="27.81990000" lon="-15.5783250">
        <ele>479.32700</ele>
        <time>2009-01-05T13:01:07Z</time>
      </trkpt>
      <trkpt lat="27.81987800" lon="-15.5783520">
        <ele>479.97500</ele>
        <time>2009-01-05T13:01:08Z</time>
      </trkpt>
      <trkpt lat="27.81985700" lon="-15.5783790">
        <ele>479.97600</ele>
        <time>2009-01-05T13:01:09Z</time>
      </trkpt>
      <trkpt lat="27.81983600" lon="-15.5784060">
        <ele>480.10400</ele>
        <time>2009-01-05T13:01:10Z</time>
      </trkpt>
      <trkpt lat="27.81981500" lon="-15.5784330">
        <ele>480.42900</ele>
        <time>2009-01-05T13:01:11Z</time>
      </trkpt>
      <trkpt lat="27.81979400" lon="-15.5784600">
        <ele>480.56800</ele>
        <time>2009-01-05T13:01:12Z</time>
      </trkpt>
      <trkpt lat="27.81977400" lon="-15.5784870">
        <ele>480.90200</ele>
        <time>2009-01-05T13:01:13Z</time>
      </trkpt>
      <trkpt lat="27.81975500" lon="-15.5785140">
        <ele>481.13200</ele>
        <time>2009-01-05T13:01:14Z</time>
      </trkpt>
      <trkpt lat="27.81973700" lon="-15.5785430">
        <ele>481.24900</ele>
        <time>2009-01-05T13:01:15Z</time>
      </trkpt>
      <trkpt lat="27.81971800" lon="-15.5785700">
        <ele>481.65200</ele>
        <time>2009-01-05T13:01:16Z</time>
      </trkpt>
      <trkpt lat="27.81969700" lon="-15.5785950">
        <ele>481.86400</ele>
        <time>2009-01-05T13:01:17Z</time>
      </trkpt>
      <trkpt lat="27.81967600" lon="-15.5786180">
        <ele>482.22700</ele>
        <time>2009-01-05T13:01:18Z</time>
      </trkpt>
      <trkpt lat="27.81965500" lon="-15.5786410">
        <ele>482.41500</ele>
        <time>2009-01-05T13:01:19Z</time>
      </trkpt>
      <trkpt lat="27.81963500" lon="-15.5786650">
        <ele>482.58000</ele>
        <time>2009-01-05T13:01:20Z</time>
      </trkpt>
      <trkpt lat="27.81961500" lon="-15.5786900">
        <ele>482.86800</ele>
        <time>2009-01-05T13:01:21Z</time>
      </trkpt>
      <trkpt lat="27.81959600" lon="-15.5787150">
        <ele>483.16500</ele>
        <time>2009-01-05T13:01:22Z</time>
      </trkpt>
      <trkpt lat="27.81957600" lon="-15.5787400">
        <ele>483.18400</ele>
        <time>2009-01-05T13:01:23Z</time>
      </trkpt>
      <trkpt lat="27.81955500" lon="-15.5787640">
        <ele>483.45200</ele>
        <time>2009-01-05T13:01:24Z</time>
      </trkpt>
      <trkpt lat="27.81953400" lon="-15.5787870">
        <ele>483.69000</ele>
        <time>2009-01-05T13:01:25Z</time>
      </trkpt>
      <trkpt lat="27.81951000" lon="-15.5788070">
        <ele>483.76700</ele>
        <time>2009-01-05T13:01:26Z</time>
      </trkpt>
      <trkpt lat="27.81948500" lon="-15.5788260">
        <ele>483.83400</ele>
        <time>2009-01-05T13:01:27Z</time>
      </trkpt>
      <trkpt lat="27.81945600" lon="-15.5788420">
        <ele>484.17300</ele>
        <time>2009-01-05T13:01:28Z</time>
      </trkpt>
      <trkpt lat="27.81942300" lon="-15.5788490">
        <ele>483.98400</ele>
        <time>2009-01-05T13:01:29Z</time>
      </trkpt>
      <trkpt lat="27.81938600" lon="-15.5788420">
        <ele>483.93400</ele>
        <time>2009-01-05T13:01:30Z</time>
      </trkpt>
      <trkpt lat="27.81934900" lon="-15.5788180">
        <ele>483.64400</ele>
        <time>2009-01-05T13:01:31Z</time>
      </trkpt>
      <trkpt lat="27.81931700" lon="-15.5787790">
        <ele>483.48300</ele>
        <time>2009-01-05T13:01:32Z</time>
      </trkpt>
      <trkpt lat="27.81929300" lon="-15.5787250">
        <ele>483.22500</ele>
        <time>2009-01-05T13:01:33Z</time>
      </trkpt>
      <trkpt lat="27.81927100" lon="-15.5786600">
        <ele>482.82900</ele>
        <time>2009-01-05T13:01:34Z</time>
      </trkpt>
      <trkpt lat="27.81925200" lon="-15.5785870">
        <ele>482.43300</ele>
        <time>2009-01-05T13:01:35Z</time>
      </trkpt>
      <trkpt lat="27.81923500" lon="-15.5785070">
        <ele>481.92900</ele>
        <time>2009-01-05T13:01:36Z</time>
      </trkpt>
      <trkpt lat="27.81921500" lon="-15.5784230">
        <ele>481.40900</ele>
        <time>2009-01-05T13:01:37Z</time>
      </trkpt>
      <trkpt lat="27.81918700" lon="-15.5783350">
        <ele>480.96100</ele>
        <time>2009-01-05T13:01:38Z</time>
      </trkpt>
      <trkpt lat="27.81914600" lon="-15.5782480">
        <ele>480.64700</ele>
        <time>2009-01-05T13:01:39Z</time>
      </trkpt>
      <trkpt lat="27.81909100" lon="-15.5781670">
        <ele>480.17900</ele>
        <time>2009-01-05T13:01:40Z</time>
      </trkpt>
      <trkpt lat="27.81902400" lon="-15.5780910">
        <ele>479.35200</ele>
        <time>2009-01-05T13:01:41Z</time>
      </trkpt>
      <trkpt lat="27.81894900" lon="-15.5780200">
        <ele>479.37800</ele>
        <time>2009-01-05T13:01:42Z</time>
      </trkpt>
      <trkpt lat="27.81886700" lon="-15.5779520">
        <ele>478.55400</ele>
        <time>2009-01-05T13:01:43Z</time>
      </trkpt>
      <trkpt lat="27.81878200" lon="-15.5778860">
        <ele>478.07000</ele>
        <time>2009-01-05T13:01:44Z</time>
      </trkpt>
      <trkpt lat="27.81869200" lon="-15.5778240">
        <ele>477.55100</ele>
        <time>2009-01-05T13:01:45Z</time>
      </trkpt>
      <trkpt lat="27.81859800" lon="-15.5777680">
        <ele>476.27400</ele>
        <time>2009-01-05T13:01:46Z</time>
      </trkpt>
      <trkpt lat="27.81849700" lon="-15.5777280">
        <ele>475.90300</ele>
        <time>2009-01-05T13:01:47Z</time>
      </trkpt>
      <trkpt lat="27.81838900" lon="-15.5777110">
        <ele>474.87200</ele>
        <time>2009-01-05T13:01:48Z</time>
      </trkpt>
      <trkpt lat="27.81827800" lon="-15.5777120">
        <ele>474.34000</ele>
        <time>2009-01-05T13:01:49Z</time>
      </trkpt>
      <trkpt lat="27.81816500" lon="-15.5777210">
        <ele>473.54600</ele>
        <time>2009-01-05T13:01:50Z</time>
      </trkpt>
      <trkpt lat="27.81805200" lon="-15.5777310">
        <ele>472.51900</ele>
        <time>2009-01-05T13:01:51Z</time>
      </trkpt>
      <trkpt lat="27.81794700" lon="-15.5777450">
        <ele>471.64900</ele>
        <time>2009-01-05T13:01:52Z</time>
      </trkpt>
      <trkpt lat="27.81786500" lon="-15.5777740">
        <ele>470.68800</ele>
        <time>2009-01-05T13:01:53Z</time>
      </trkpt>
      <trkpt lat="27.81781900" lon="-15.5778520">
        <ele>470.20100</ele>
        <time>2009-01-05T13:01:54Z</time>
      </trkpt>
      <trkpt lat="27.81782900" lon="-15.5779300">
        <ele>469.30200</ele>
        <time>2009-01-05T13:01:55Z</time>
      </trkpt>
      <trkpt lat="27.81788500" lon="-15.5779900">
        <ele>468.33700</ele>
        <time>2009-01-05T13:01:56Z</time>
      </trkpt>
      <trkpt lat="27.81795400" lon="-15.5780390">
        <ele>468.01900</ele>
        <time>2009-01-05T13:01:57Z</time>
      </trkpt>
      <trkpt lat="27.81802800" lon="-15.5780860">
        <ele>467.94300</ele>
        <time>2009-01-05T13:01:58Z</time>
      </trkpt>
      <trkpt lat="27.81810400" lon="-15.5781360">
        <ele>467.10400</ele>
        <time>2009-01-05T13:01:59Z</time>
      </trkpt>
      <trkpt lat="27.81818200" lon="-15.5781900">
        <ele>466.38800</ele>
        <time>2009-01-05T13:02:00Z</time>
      </trkpt>
      <trkpt lat="27.81825800" lon="-15.5782520">
        <ele>465.77200</ele>
        <time>2009-01-05T13:02:01Z</time>
      </trkpt>
      <trkpt lat="27.81832700" lon="-15.5783290">
        <ele>465.30100</ele>
        <time>2009-01-05T13:02:02Z</time>
      </trkpt>
      <trkpt lat="27.81838400" lon="-15.5784190">
        <ele>464.89900</ele>
        <time>2009-01-05T13:02:03Z</time>
      </trkpt>
      <trkpt lat="27.81842500" lon="-15.5785230">
        <ele>464.22200</ele>
        <time>2009-01-05T13:02:04Z</time>
      </trkpt>
      <trkpt lat="27.81845200" lon="-15.5786380">
        <ele>463.73600</ele>
        <time>2009-01-05T13:02:05Z</time>
      </trkpt>
      <trkpt lat="27.81846400" lon="-15.5787550">
        <ele>462.92400</ele>
        <time>2009-01-05T13:02:06Z</time>
      </trkpt>
      <trkpt lat="27.81846600" lon="-15.5788740">
        <ele>462.48700</ele>
        <time>2009-01-05T13:02:07Z</time>
      </trkpt>
      <trkpt lat="27.81846100" lon="-15.5789950">
        <ele>462.32000</ele>
        <time>2009-01-05T13:02:08Z</time>
      </trkpt>
      <trkpt lat="27.81844900" lon="-15.5791170">
        <ele>461.47900</ele>
        <time>2009-01-05T13:02:09Z</time>
      </trkpt>
      <trkpt lat="27.81843000" lon="-15.5792370">
        <ele>460.92300</ele>
        <time>2009-01-05T13:02:10Z</time>
      </trkpt>
      <trkpt lat="27.81839700" lon="-15.5793490">
        <ele>460.31200</ele>
        <time>2009-01-05T13:02:11Z</time>
      </trkpt>
      <trkpt lat="27.81831100" lon="-15.5794520">
        <ele>458.15700</ele>
        <time>2009-01-05T13:02:12Z</time>
      </trkpt>
      <trkpt lat="27.81819900" lon="-15.5794950">
        <ele>457.94800</ele>
        <time>2009-01-05T13:02:13Z</time>
      </trkpt>
      <trkpt lat="27.81808400" lon="-15.5794830">
        <ele>457.28700</ele>
        <time>2009-01-05T13:02:14Z</time>
      </trkpt>
      <trkpt lat="27.81797600" lon="-15.5794500">
        <ele>456.68200</ele>
        <time>2009-01-05T13:02:15Z</time>
      </trkpt>
      <trkpt lat="27.81787300" lon="-15.5794040">
        <ele>456.11300</ele>
        <time>2009-01-05T13:02:16Z</time>
      </trkpt>
      <trkpt lat="27.81776600" lon="-15.5793610">
        <ele>454.94500</ele>
        <time>2009-01-05T13:02:17Z</time>
      </trkpt>
      <trkpt lat="27.81765400" lon="-15.5793330">
        <ele>454.83000</ele>
        <time>2009-01-05T13:02:18Z</time>
      </trkpt>
      <trkpt lat="27.81753600" lon="-15.5793180">
        <ele>453.92800</ele>
        <time>2009-01-05T13:02:19Z</time>
      </trkpt>
      <trkpt lat="27.81741500" lon="-15.5793110">
        <ele>453.28300</ele>
        <time>2009-01-05T13:02:20Z</time>
      </trkpt>
      <trkpt lat="27.81729400" lon="-15.5793100">
        <ele>453.23600</ele>
        <time>2009-01-05T13:02:21Z</time>
      </trkpt>
      <trkpt lat="27.81717300" lon="-15.5793110">
        <ele>452.83300</ele>
        <time>2009-01-05T13:02:22Z</time>
      </trkpt>
      <trkpt lat="27.81705300" lon="-15.5793050">
        <ele>452.45100</ele>
        <time>2009-01-05T13:02:23Z</time>
      </trkpt>
      <trkpt lat="27.81693500" lon="-15.5792910">
        <ele>451.17500</ele>
        <time>2009-01-05T13:02:24Z</time>
      </trkpt>
      <trkpt lat="27.81681700" lon="-15.5792720">
        <ele>449.89900</ele>
        <time>2009-01-05T13:02:25Z</time>
      </trkpt>
      <trkpt lat="27.81669900" lon="-15.5792530">
        <ele>447.91500</ele>
        <time>2009-01-05T13:02:26Z</time>
      </trkpt>
      <trkpt lat="27.81657900" lon="-15.5792410">
        <ele>447.68300</ele>
        <time>2009-01-05T13:02:27Z</time>
      </trkpt>
      <trkpt lat="27.81645900" lon="-15.5792450">
        <ele>447.49900</ele>
        <time>2009-01-05T13:02:28Z</time>
      </trkpt>
      <trkpt lat="27.81634200" lon="-15.5792680">
        <ele>446.50600</ele>
        <time>2009-01-05T13:02:29Z</time>
      </trkpt>
      <trkpt lat="27.81622800" lon="-15.5793000">
        <ele>446.31200</ele>
        <time>2009-01-05T13:02:30Z</time>
      </trkpt>
      <trkpt lat="27.81611600" lon="-15.5793370">
        <ele>445.96900</ele>
        <time>2009-01-05T13:02:31Z</time>
      </trkpt>
      <trkpt lat="27.81600700" lon="-15.5793760">
        <ele>445.63400</ele>
        <time>2009-01-05T13:02:32Z</time>
      </trkpt>
      <trkpt lat="27.81590100" lon="-15.5794120">
        <ele>445.10400</ele>
        <time>2009-01-05T13:02:33Z</time>
      </trkpt>
      <trkpt lat="27.81579600" lon="-15.5794420">
        <ele>444.99900</ele>
        <time>2009-01-05T13:02:34Z</time>
      </trkpt>
      <trkpt lat="27.81569100" lon="-15.5794660">
        <ele>444.34400</ele>
        <time>2009-01-05T13:02:35Z</time>
      </trkpt>
      <trkpt lat="27.81558600" lon="-15.5794880">
        <ele>443.83800</ele>
        <time>2009-01-05T13:02:36Z</time>
      </trkpt>
      <trkpt lat="27.81548200" lon="-15.5795070">
        <ele>443.53700</ele>
        <time>2009-01-05T13:02:37Z</time>
      </trkpt>
      <trkpt lat="27.81538000" lon="-15.5795260">
        <ele>443.46700</ele>
        <time>2009-01-05T13:02:38Z</time>
      </trkpt>
      <trkpt lat="27.81527900" lon="-15.5795510">
        <ele>443.18200</ele>
        <time>2009-01-05T13:02:39Z</time>
      </trkpt>
      <trkpt lat="27.81518300" lon="-15.5795870">
        <ele>442.95900</ele>
        <time>2009-01-05T13:02:40Z</time>
      </trkpt>
      <trkpt lat="27.81509200" lon="-15.5796340">
        <ele>442.39900</ele>
        <time>2009-01-05T13:02:41Z</time>
      </trkpt>
      <trkpt lat="27.81500600" lon="-15.5796880">
        <ele>442.44700</ele>
        <time>2009-01-05T13:02:42Z</time>
      </trkpt>
      <trkpt lat="27.81492100" lon="-15.5797420">
        <ele>441.81100</ele>
        <time>2009-01-05T13:02:43Z</time>
      </trkpt>
      <trkpt lat="27.81483900" lon="-15.5797980">
        <ele>440.98000</ele>
        <time>2009-01-05T13:02:44Z</time>
      </trkpt>
      <trkpt lat="27.81476100" lon="-15.5798610">
        <ele>440.45000</ele>
        <time>2009-01-05T13:02:45Z</time>
      </trkpt>
      <trkpt lat="27.81468700" lon="-15.5799290">
        <ele>439.97000</ele>
        <time>2009-01-05T13:02:46Z</time>
      </trkpt>
      <trkpt lat="27.81461500" lon="-15.5800030">
        <ele>439.32700</ele>
        <time>2009-01-05T13:02:47Z</time>
      </trkpt>
      <trkpt lat="27.81454900" lon="-15.5800850">
        <ele>438.27100</ele>
        <time>2009-01-05T13:02:48Z</time>
      </trkpt>
      <trkpt lat="27.81449700" lon="-15.5801800">
        <ele>437.49800</ele>
        <time>2009-01-05T13:02:49Z</time>
      </trkpt>
      <trkpt lat="27.81447200" lon="-15.5802890">
        <ele>436.70900</ele>
        <time>2009-01-05T13:02:50Z</time>
      </trkpt>
      <trkpt lat="27.81447200" lon="-15.5804030">
        <ele>436.65000</ele>
        <time>2009-01-05T13:02:51Z</time>
      </trkpt>
      <trkpt lat="27.81448900" lon="-15.5805160">
        <ele>436.43500</ele>
        <time>2009-01-05T13:02:52Z</time>
      </trkpt>
      <trkpt lat="27.81451700" lon="-15.5806260">
        <ele>436.09800</ele>
        <time>2009-01-05T13:02:53Z</time>
      </trkpt>
      <trkpt lat="27.81455100" lon="-15.5807360">
        <ele>435.55400</ele>
        <time>2009-01-05T13:02:54Z</time>
      </trkpt>
      <trkpt lat="27.81458800" lon="-15.5808450">
        <ele>435.40500</ele>
        <time>2009-01-05T13:02:55Z</time>
      </trkpt>
      <trkpt lat="27.81463000" lon="-15.5809540">
        <ele>435.16500</ele>
        <time>2009-01-05T13:02:56Z</time>
      </trkpt>
      <trkpt lat="27.81467200" lon="-15.5810630">
        <ele>434.57400</ele>
        <time>2009-01-05T13:02:57Z</time>
      </trkpt>
      <trkpt lat="27.81470800" lon="-15.5811740">
        <ele>433.71900</ele>
        <time>2009-01-05T13:02:58Z</time>
      </trkpt>
      <trkpt lat="27.81473300" lon="-15.5812900">
        <ele>433.11000</ele>
        <time>2009-01-05T13:02:59Z</time>
      </trkpt>
      <trkpt lat="27.81474100" lon="-15.5814090">
        <ele>432.78900</ele>
        <time>2009-01-05T13:03:00Z</time>
      </trkpt>
      <trkpt lat="27.81473000" lon="-15.5815250">
        <ele>431.96900</ele>
        <time>2009-01-05T13:03:01Z</time>
      </trkpt>
      <trkpt lat="27.81469500" lon="-15.5816340">
        <ele>432.02300</ele>
        <time>2009-01-05T13:03:02Z</time>
      </trkpt>
      <trkpt lat="27.81463200" lon="-15.5817240">
        <ele>431.33500</ele>
        <time>2009-01-05T13:03:03Z</time>
      </trkpt>
      <trkpt lat="27.81454300" lon="-15.5817910">
        <ele>430.45400</ele>
        <time>2009-01-05T13:03:04Z</time>
      </trkpt>
      <trkpt lat="27.81445000" lon="-15.5818300">
        <ele>429.84500</ele>
        <time>2009-01-05T13:03:05Z</time>
      </trkpt>
      <trkpt lat="27.81434900" lon="-15.5818430">
        <ele>430.30600</ele>
        <time>2009-01-05T13:03:06Z</time>
      </trkpt>
      <trkpt lat="27.81424800" lon="-15.5818460">
        <ele>430.65100</ele>
        <time>2009-01-05T13:03:07Z</time>
      </trkpt>
      <trkpt lat="27.81414300" lon="-15.5818360">
        <ele>430.19800</ele>
        <time>2009-01-05T13:03:08Z</time>
      </trkpt>
      <trkpt lat="27.81404100" lon="-15.5818230">
        <ele>430.51900</ele>
        <time>2009-01-05T13:03:09Z</time>
      </trkpt>
      <trkpt lat="27.81393900" lon="-15.5818090">
        <ele>430.03100</ele>
        <time>2009-01-05T13:03:10Z</time>
      </trkpt>
      <trkpt lat="27.81384000" lon="-15.5817990">
        <ele>429.02200</ele>
        <time>2009-01-05T13:03:11Z</time>
      </trkpt>
      <trkpt lat="27.81374300" lon="-15.5817900">
        <ele>429.45700</ele>
        <time>2009-01-05T13:03:12Z</time>
      </trkpt>
      <trkpt lat="27.81364700" lon="-15.5817800">
        <ele>428.71600</ele>
        <time>2009-01-05T13:03:13Z</time>
      </trkpt>
      <trkpt lat="27.81355100" lon="-15.5817700">
        <ele>428.36100</ele>
        <time>2009-01-05T13:03:14Z</time>
      </trkpt>
      <trkpt lat="27.81345600" lon="-15.5817600">
        <ele>428.12700</ele>
        <time>2009-01-05T13:03:15Z</time>
      </trkpt>
      <trkpt lat="27.81336000" lon="-15.5817510">
        <ele>428.64700</ele>
        <time>2009-01-05T13:03:16Z</time>
      </trkpt>
      <trkpt lat="27.81326600" lon="-15.5817410">
        <ele>428.30700</ele>
        <time>2009-01-05T13:03:17Z</time>
      </trkpt>
      <trkpt lat="27.81317200" lon="-15.5817310">
        <ele>427.52900</ele>
        <time>2009-01-05T13:03:18Z</time>
      </trkpt>
      <trkpt lat="27.81307700" lon="-15.5817240">
        <ele>427.54200</ele>
        <time>2009-01-05T13:03:19Z</time>
      </trkpt>
      <trkpt lat="27.81298200" lon="-15.5817240">
        <ele>427.76300</ele>
        <time>2009-01-05T13:03:20Z</time>
      </trkpt>
      <trkpt lat="27.81288700" lon="-15.5817310">
        <ele>426.93700</ele>
        <time>2009-01-05T13:03:21Z</time>
      </trkpt>
      <trkpt lat="27.81279200" lon="-15.5817450">
        <ele>426.15900</ele>
        <time>2009-01-05T13:03:22Z</time>
      </trkpt>
      <trkpt lat="27.81269600" lon="-15.5817630">
        <ele>426.10000</ele>
        <time>2009-01-05T13:03:23Z</time>
      </trkpt>
      <trkpt lat="27.81259900" lon="-15.5817810">
        <ele>425.61800</ele>
        <time>2009-01-05T13:03:24Z</time>
      </trkpt>
      <trkpt lat="27.81250200" lon="-15.5817990">
        <ele>425.46100</ele>
        <time>2009-01-05T13:03:25Z</time>
      </trkpt>
      <trkpt lat="27.81240500" lon="-15.5818160">
        <ele>425.01100</ele>
        <time>2009-01-05T13:03:26Z</time>
      </trkpt>
      <trkpt lat="27.81230800" lon="-15.5818330">
        <ele>424.45700</ele>
        <time>2009-01-05T13:03:27Z</time>
      </trkpt>
      <trkpt lat="27.81221200" lon="-15.5818500">
        <ele>423.36700</ele>
        <time>2009-01-05T13:03:28Z</time>
      </trkpt>
      <trkpt lat="27.81211700" lon="-15.5818680">
        <ele>423.69400</ele>
        <time>2009-01-05T13:03:29Z</time>
      </trkpt>
      <trkpt lat="27.81202300" lon="-15.5818860">
        <ele>423.22300</ele>
        <time>2009-01-05T13:03:30Z</time>
      </trkpt>
      <trkpt lat="27.81193000" lon="-15.5819050">
        <ele>422.99200</ele>
        <time>2009-01-05T13:03:31Z</time>
      </trkpt>
      <trkpt lat="27.81183800" lon="-15.5819240">
        <ele>422.17200</ele>
        <time>2009-01-05T13:03:32Z</time>
      </trkpt>
      <trkpt lat="27.81174700" lon="-15.5819410">
        <ele>422.12100</ele>
        <time>2009-01-05T13:03:33Z</time>
      </trkpt>
      <trkpt lat="27.81165700" lon="-15.5819620">
        <ele>421.54200</ele>
        <time>2009-01-05T13:03:34Z</time>
      </trkpt>
      <trkpt lat="27.81157700" lon="-15.5820190">
        <ele>421.19500</ele>
        <time>2009-01-05T13:03:35Z</time>
      </trkpt>
      <trkpt lat="27.81151300" lon="-15.5820950">
        <ele>420.65500</ele>
        <time>2009-01-05T13:03:36Z</time>
      </trkpt>
      <trkpt lat="27.81146900" lon="-15.5821880">
        <ele>420.13600</ele>
        <time>2009-01-05T13:03:37Z</time>
      </trkpt>
      <trkpt lat="27.81143300" lon="-15.5822870">
        <ele>419.35400</ele>
        <time>2009-01-05T13:03:38Z</time>
      </trkpt>
      <trkpt lat="27.81139400" lon="-15.5823860">
        <ele>418.63700</ele>
        <time>2009-01-05T13:03:39Z</time>
      </trkpt>
      <trkpt lat="27.81135000" lon="-15.5824830">
        <ele>418.27200</ele>
        <time>2009-01-05T13:03:40Z</time>
      </trkpt>
      <trkpt lat="27.81129900" lon="-15.5825780">
        <ele>418.03900</ele>
        <time>2009-01-05T13:03:41Z</time>
      </trkpt>
      <trkpt lat="27.81124100" lon="-15.5826710">
        <ele>417.30100</ele>
        <time>2009-01-05T13:03:42Z</time>
      </trkpt>
      <trkpt lat="27.81118600" lon="-15.5827670">
        <ele>417.05800</ele>
        <time>2009-01-05T13:03:43Z</time>
      </trkpt>
      <trkpt lat="27.81114100" lon="-15.5828700">
        <ele>416.34900</ele>
        <time>2009-01-05T13:03:44Z</time>
      </trkpt>
      <trkpt lat="27.81110100" lon="-15.5829770">
        <ele>415.83300</ele>
        <time>2009-01-05T13:03:45Z</time>
      </trkpt>
      <trkpt lat="27.81104700" lon="-15.5830790">
        <ele>416.06500</ele>
        <time>2009-01-05T13:03:46Z</time>
      </trkpt>
      <trkpt lat="27.81097400" lon="-15.5831690">
        <ele>414.26500</ele>
        <time>2009-01-05T13:03:47Z</time>
      </trkpt>
      <trkpt lat="27.81089100" lon="-15.5832500">
        <ele>413.31500</ele>
        <time>2009-01-05T13:03:48Z</time>
      </trkpt>
      <trkpt lat="27.81080100" lon="-15.5833250">
        <ele>411.68100</ele>
        <time>2009-01-05T13:03:49Z</time>
      </trkpt>
      <trkpt lat="27.81069700" lon="-15.5833820">
        <ele>409.67700</ele>
        <time>2009-01-05T13:03:50Z</time>
      </trkpt>
      <trkpt lat="27.81057400" lon="-15.5834020">
        <ele>409.32500</ele>
        <time>2009-01-05T13:03:51Z</time>
      </trkpt>
      <trkpt lat="27.81045000" lon="-15.5834000">
        <ele>408.79100</ele>
        <time>2009-01-05T13:03:52Z</time>
      </trkpt>
      <trkpt lat="27.81032400" lon="-15.5833900">
        <ele>407.25000</ele>
        <time>2009-01-05T13:03:53Z</time>
      </trkpt>
      <trkpt lat="27.81019700" lon="-15.5833780">
        <ele>405.77700</ele>
        <time>2009-01-05T13:03:54Z</time>
      </trkpt>
      <trkpt lat="27.81006700" lon="-15.5833620">
        <ele>404.24700</ele>
        <time>2009-01-05T13:03:55Z</time>
      </trkpt>
      <trkpt lat="27.80993000" lon="-15.5833400">
        <ele>403.54300</ele>
        <time>2009-01-05T13:03:56Z</time>
      </trkpt>
      <trkpt lat="27.80979600" lon="-15.5833020">
        <ele>403.95500</ele>
        <time>2009-01-05T13:03:57Z</time>
      </trkpt>
      <trkpt lat="27.80966900" lon="-15.5832420">
        <ele>402.64100</ele>
        <time>2009-01-05T13:03:58Z</time>
      </trkpt>
      <trkpt lat="27.80954900" lon="-15.5831630">
        <ele>401.39200</ele>
        <time>2009-01-05T13:03:59Z</time>
      </trkpt>
      <trkpt lat="27.80943300" lon="-15.5830780">
        <ele>399.74100</ele>
        <time>2009-01-05T13:04:00Z</time>
      </trkpt>
      <trkpt lat="27.80931300" lon="-15.5829960">
        <ele>399.32700</ele>
        <time>2009-01-05T13:04:01Z</time>
      </trkpt>
      <trkpt lat="27.80918800" lon="-15.5829190">
        <ele>397.31700</ele>
        <time>2009-01-05T13:04:02Z</time>
      </trkpt>
      <trkpt lat="27.80906100" lon="-15.5828450">
        <ele>396.40000</ele>
        <time>2009-01-05T13:04:03Z</time>
      </trkpt>
      <trkpt lat="27.80893400" lon="-15.5827740">
        <ele>394.44800</ele>
        <time>2009-01-05T13:04:04Z</time>
      </trkpt>
      <trkpt lat="27.80880600" lon="-15.5827100">
        <ele>393.10100</ele>
        <time>2009-01-05T13:04:05Z</time>
      </trkpt>
      <trkpt lat="27.80867600" lon="-15.5826540">
        <ele>392.25200</ele>
        <time>2009-01-05T13:04:06Z</time>
      </trkpt>
      <trkpt lat="27.80854500" lon="-15.5826060">
        <ele>391.80400</ele>
        <time>2009-01-05T13:04:07Z</time>
      </trkpt>
      <trkpt lat="27.80841600" lon="-15.5825610">
        <ele>391.24500</ele>
        <time>2009-01-05T13:04:08Z</time>
      </trkpt>
      <trkpt lat="27.80829000" lon="-15.5825190">
        <ele>390.91900</ele>
        <time>2009-01-05T13:04:09Z</time>
      </trkpt>
      <trkpt lat="27.80816500" lon="-15.5824760">
        <ele>390.35700</ele>
        <time>2009-01-05T13:04:10Z</time>
      </trkpt>
      <trkpt lat="27.80804300" lon="-15.5824330">
        <ele>389.71100</ele>
        <time>2009-01-05T13:04:11Z</time>
      </trkpt>
      <trkpt lat="27.80792300" lon="-15.5823910">
        <ele>389.40300</ele>
        <time>2009-01-05T13:04:12Z</time>
      </trkpt>
      <trkpt lat="27.80780500" lon="-15.5823500">
        <ele>389.17700</ele>
        <time>2009-01-05T13:04:13Z</time>
      </trkpt>
      <trkpt lat="27.80769000" lon="-15.5823140">
        <ele>388.83500</ele>
        <time>2009-01-05T13:04:14Z</time>
      </trkpt>
      <trkpt lat="27.80757500" lon="-15.5822870">
        <ele>388.06900</ele>
        <time>2009-01-05T13:04:15Z</time>
      </trkpt>
      <trkpt lat="27.80746300" lon="-15.5822670">
        <ele>387.39900</ele>
        <time>2009-01-05T13:04:16Z</time>
      </trkpt>
      <trkpt lat="27.80735400" lon="-15.5822490">
        <ele>386.53600</ele>
        <time>2009-01-05T13:04:17Z</time>
      </trkpt>
      <trkpt lat="27.80724600" lon="-15.5822360">
        <ele>385.94800</ele>
        <time>2009-01-05T13:04:18Z</time>
      </trkpt>
      <trkpt lat="27.80714000" lon="-15.5822290">
        <ele>385.24100</ele>
        <time>2009-01-05T13:04:19Z</time>
      </trkpt>
      <trkpt lat="27.80703500" lon="-15.5822310">
        <ele>384.81900</ele>
        <time>2009-01-05T13:04:20Z</time>
      </trkpt>
      <trkpt lat="27.80693700" lon="-15.5822560">
        <ele>384.37700</ele>
        <time>2009-01-05T13:04:21Z</time>
      </trkpt>
      <trkpt lat="27.80684400" lon="-15.5823070">
        <ele>383.54600</ele>
        <time>2009-01-05T13:04:22Z</time>
      </trkpt>
      <trkpt lat="27.80675600" lon="-15.5823780">
        <ele>382.80000</ele>
        <time>2009-01-05T13:04:23Z</time>
      </trkpt>
      <trkpt lat="27.80667500" lon="-15.5824620">
        <ele>381.44800</ele>
        <time>2009-01-05T13:04:24Z</time>
      </trkpt>
      <trkpt lat="27.80660100" lon="-15.5825570">
        <ele>381.03200</ele>
        <time>2009-01-05T13:04:25Z</time>
      </trkpt>
      <trkpt lat="27.80653400" lon="-15.5826610">
        <ele>380.35200</ele>
        <time>2009-01-05T13:04:26Z</time>
      </trkpt>
      <trkpt lat="27.80646900" lon="-15.5827710">
        <ele>378.95500</ele>
        <time>2009-01-05T13:04:27Z</time>
      </trkpt>
      <trkpt lat="27.80640300" lon="-15.5828840">
        <ele>377.54500</ele>
        <time>2009-01-05T13:04:28Z</time>
      </trkpt>
      <trkpt lat="27.80633700" lon="-15.5830010">
        <ele>376.62400</ele>
        <time>2009-01-05T13:04:29Z</time>
      </trkpt>
      <trkpt lat="27.80626600" lon="-15.5831130">
        <ele>375.70900</ele>
        <time>2009-01-05T13:04:30Z</time>
      </trkpt>
      <trkpt lat="27.80618000" lon="-15.5832130">
        <ele>373.91100</ele>
        <time>2009-01-05T13:04:31Z</time>
      </trkpt>
      <trkpt lat="27.80607500" lon="-15.5832880">
        <ele>372.59300</ele>
        <time>2009-01-05T13:04:32Z</time>
      </trkpt>
      <trkpt lat="27.80595900" lon="-15.5833390">
        <ele>371.74400</ele>
        <time>2009-01-05T13:04:33Z</time>
      </trkpt>
      <trkpt lat="27.80583600" lon="-15.5833770">
        <ele>370.97400</ele>
        <time>2009-01-05T13:04:34Z</time>
      </trkpt>
      <trkpt lat="27.80571000" lon="-15.5834090">
        <ele>370.54500</ele>
        <time>2009-01-05T13:04:35Z</time>
      </trkpt>
      <trkpt lat="27.80558200" lon="-15.5834390">
        <ele>369.28900</ele>
        <time>2009-01-05T13:04:36Z</time>
      </trkpt>
      <trkpt lat="27.80545300" lon="-15.5834670">
        <ele>368.25400</ele>
        <time>2009-01-05T13:04:37Z</time>
      </trkpt>
      <trkpt lat="27.80532200" lon="-15.5834900">
        <ele>366.78100</ele>
        <time>2009-01-05T13:04:38Z</time>
      </trkpt>
      <trkpt lat="27.80518900" lon="-15.5835020">
        <ele>365.37600</ele>
        <time>2009-01-05T13:04:39Z</time>
      </trkpt>
      <trkpt lat="27.80505500" lon="-15.5835010">
        <ele>364.79900</ele>
        <time>2009-01-05T13:04:40Z</time>
      </trkpt>
      <trkpt lat="27.80492100" lon="-15.5834860">
        <ele>362.95600</ele>
        <time>2009-01-05T13:04:41Z</time>
      </trkpt>
      <trkpt lat="27.80479000" lon="-15.5834510">
        <ele>361.42000</ele>
        <time>2009-01-05T13:04:42Z</time>
      </trkpt>
      <trkpt lat="27.80466400" lon="-15.5833960">
        <ele>360.82200</ele>
        <time>2009-01-05T13:04:43Z</time>
      </trkpt>
      <trkpt lat="27.80454100" lon="-15.5833320">
        <ele>360.06300</ele>
        <time>2009-01-05T13:04:44Z</time>
      </trkpt>
      <trkpt lat="27.80442500" lon="-15.5832750">
        <ele>359.29300</ele>
        <time>2009-01-05T13:04:45Z</time>
      </trkpt>
      <trkpt lat="27.80431900" lon="-15.5832370">
        <ele>357.93600</ele>
        <time>2009-01-05T13:04:46Z</time>
      </trkpt>
      <trkpt lat="27.80420800" lon="-15.5832480">
        <ele>356.49300</ele>
        <time>2009-01-05T13:04:47Z</time>
      </trkpt>
      <trkpt lat="27.80410700" lon="-15.5833080">
        <ele>355.61200</ele>
        <time>2009-01-05T13:04:48Z</time>
      </trkpt>
      <trkpt lat="27.80400800" lon="-15.5833740">
        <ele>354.95400</ele>
        <time>2009-01-05T13:04:49Z</time>
      </trkpt>
      <trkpt lat="27.80390400" lon="-15.5834300">
        <ele>354.59600</ele>
        <time>2009-01-05T13:04:50Z</time>
      </trkpt>
      <trkpt lat="27.80379300" lon="-15.5834690">
        <ele>353.97500</ele>
        <time>2009-01-05T13:04:51Z</time>
      </trkpt>
      <trkpt lat="27.80367600" lon="-15.5834910">
        <ele>352.69700</ele>
        <time>2009-01-05T13:04:52Z</time>
      </trkpt>
      <trkpt lat="27.80355600" lon="-15.5835050">
        <ele>351.37200</ele>
        <time>2009-01-05T13:04:53Z</time>
      </trkpt>
      <trkpt lat="27.80343400" lon="-15.5835170">
        <ele>350.89800</ele>
        <time>2009-01-05T13:04:54Z</time>
      </trkpt>
      <trkpt lat="27.80331000" lon="-15.5835290">
        <ele>349.67700</ele>
        <time>2009-01-05T13:04:55Z</time>
      </trkpt>
      <trkpt lat="27.80318200" lon="-15.5835330">
        <ele>348.12700</ele>
        <time>2009-01-05T13:04:56Z</time>
      </trkpt>
      <trkpt lat="27.80305100" lon="-15.5835290">
        <ele>346.65500</ele>
        <time>2009-01-05T13:04:57Z</time>
      </trkpt>
      <trkpt lat="27.80292000" lon="-15.5835160">
        <ele>345.31100</ele>
        <time>2009-01-05T13:04:58Z</time>
      </trkpt>
      <trkpt lat="27.80278600" lon="-15.5834980">
        <ele>344.68100</ele>
        <time>2009-01-05T13:04:59Z</time>
      </trkpt>
      <trkpt lat="27.80265200" lon="-15.5834760">
        <ele>343.82700</ele>
        <time>2009-01-05T13:05:00Z</time>
      </trkpt>
      <trkpt lat="27.80251600" lon="-15.5834590">
        <ele>342.18800</ele>
        <time>2009-01-05T13:05:01Z</time>
      </trkpt>
      <trkpt lat="27.80237900" lon="-15.5834630">
        <ele>341.28300</ele>
        <time>2009-01-05T13:05:02Z</time>
      </trkpt>
      <trkpt lat="27.80224300" lon="-15.5835090">
        <ele>339.93400</ele>
        <time>2009-01-05T13:05:03Z</time>
      </trkpt>
      <trkpt lat="27.80211600" lon="-15.5835810">
        <ele>338.90700</ele>
        <time>2009-01-05T13:05:04Z</time>
      </trkpt>
      <trkpt lat="27.80199400" lon="-15.5836670">
        <ele>337.58100</ele>
        <time>2009-01-05T13:05:05Z</time>
      </trkpt>
      <trkpt lat="27.80187100" lon="-15.5837500">
        <ele>335.14300</ele>
        <time>2009-01-05T13:05:06Z</time>
      </trkpt>
      <trkpt lat="27.80173800" lon="-15.5838150">
        <ele>333.18000</ele>
        <time>2009-01-05T13:05:07Z</time>
      </trkpt>
      <trkpt lat="27.80159900" lon="-15.5838460">
        <ele>330.70500</ele>
        <time>2009-01-05T13:05:08Z</time>
      </trkpt>
      <trkpt lat="27.80145000" lon="-15.5838390">
        <ele>330.32600</ele>
        <time>2009-01-05T13:05:09Z</time>
      </trkpt>
      <trkpt lat="27.80130500" lon="-15.5838090">
        <ele>329.74100</ele>
        <time>2009-01-05T13:05:10Z</time>
      </trkpt>
      <trkpt lat="27.80116500" lon="-15.5837710">
        <ele>328.77500</ele>
        <time>2009-01-05T13:05:11Z</time>
      </trkpt>
      <trkpt lat="27.80102400" lon="-15.5837390">
        <ele>326.39200</ele>
        <time>2009-01-05T13:05:12Z</time>
      </trkpt>
      <trkpt lat="27.80089300" lon="-15.5837080">
        <ele>323.77100</ele>
        <time>2009-01-05T13:05:13Z</time>
      </trkpt>
      <trkpt lat="27.80078600" lon="-15.5836380">
        <ele>322.76500</ele>
        <time>2009-01-05T13:05:14Z</time>
      </trkpt>
      <trkpt lat="27.80070700" lon="-15.5835270">
        <ele>321.52200</ele>
        <time>2009-01-05T13:05:15Z</time>
      </trkpt>
      <trkpt lat="27.80065900" lon="-15.5833880">
        <ele>319.74000</ele>
        <time>2009-01-05T13:05:16Z</time>
      </trkpt>
      <trkpt lat="27.80062400" lon="-15.5832470">
        <ele>318.48300</ele>
        <time>2009-01-05T13:05:17Z</time>
      </trkpt>
      <trkpt lat="27.80059500" lon="-15.5831010">
        <ele>317.19800</ele>
        <time>2009-01-05T13:05:18Z</time>
      </trkpt>
      <trkpt lat="27.80056600" lon="-15.5829510">
        <ele>316.52300</ele>
        <time>2009-01-05T13:05:19Z</time>
      </trkpt>
      <trkpt lat="27.80053500" lon="-15.5827990">
        <ele>315.18000</ele>
        <time>2009-01-05T13:05:20Z</time>
      </trkpt>
      <trkpt lat="27.80050200" lon="-15.5826460">
        <ele>314.06900</ele>
        <time>2009-01-05T13:05:21Z</time>
      </trkpt>
      <trkpt lat="27.80046500" lon="-15.5824910">
        <ele>312.51400</ele>
        <time>2009-01-05T13:05:22Z</time>
      </trkpt>
      <trkpt lat="27.80042400" lon="-15.5823400">
        <ele>311.48100</ele>
        <time>2009-01-05T13:05:23Z</time>
      </trkpt>
      <trkpt lat="27.80038100" lon="-15.5822010">
        <ele>310.40700</ele>
        <time>2009-01-05T13:05:24Z</time>
      </trkpt>
      <trkpt lat="27.80034100" lon="-15.5820910">
        <ele>308.41100</ele>
        <time>2009-01-05T13:05:25Z</time>
      </trkpt>
      <trkpt lat="27.80030100" lon="-15.5820230">
        <ele>307.27800</ele>
        <time>2009-01-05T13:05:26Z</time>
      </trkpt>
      <trkpt lat="27.80024900" lon="-15.5820020">
        <ele>306.83300</ele>
        <time>2009-01-05T13:05:27Z</time>
      </trkpt>
      <trkpt lat="27.80019500" lon="-15.5820310">
        <ele>306.04700</ele>
        <time>2009-01-05T13:05:28Z</time>
      </trkpt>
      <trkpt lat="27.80015500" lon="-15.5820900">
        <ele>305.50700</ele>
        <time>2009-01-05T13:05:29Z</time>
      </trkpt>
      <trkpt lat="27.80011800" lon="-15.5821640">
        <ele>305.90700</ele>
        <time>2009-01-05T13:05:30Z</time>
      </trkpt>
      <trkpt lat="27.80007300" lon="-15.5822430">
        <ele>304.67500</ele>
        <time>2009-01-05T13:05:31Z</time>
      </trkpt>
      <trkpt lat="27.80001900" lon="-15.5823250">
        <ele>303.44400</ele>
        <time>2009-01-05T13:05:32Z</time>
      </trkpt>
      <trkpt lat="27.79996600" lon="-15.5824090">
        <ele>302.33900</ele>
        <time>2009-01-05T13:05:33Z</time>
      </trkpt>
      <trkpt lat="27.79991900" lon="-15.5825000">
        <ele>302.09200</ele>
        <time>2009-01-05T13:05:34Z</time>
      </trkpt>
      <trkpt lat="27.79987800" lon="-15.5825980">
        <ele>301.06800</ele>
        <time>2009-01-05T13:05:35Z</time>
      </trkpt>
      <trkpt lat="27.79984200" lon="-15.5826990">
        <ele>299.71400</ele>
        <time>2009-01-05T13:05:36Z</time>
      </trkpt>
      <trkpt lat="27.79980500" lon="-15.5827880">
        <ele>298.30400</ele>
        <time>2009-01-05T13:05:37Z</time>
      </trkpt>
      <trkpt lat="27.79975400" lon="-15.5828370">
        <ele>297.63100</ele>
        <time>2009-01-05T13:05:38Z</time>
      </trkpt>
      <trkpt lat="27.79968400" lon="-15.5828270">
        <ele>296.43100</ele>
        <time>2009-01-05T13:05:39Z</time>
      </trkpt>
      <trkpt lat="27.79962700" lon="-15.5827630">
        <ele>295.43700</ele>
        <time>2009-01-05T13:05:40Z</time>
      </trkpt>
      <trkpt lat="27.79959000" lon="-15.5826800">
        <ele>295.09500</ele>
        <time>2009-01-05T13:05:41Z</time>
      </trkpt>
      <trkpt lat="27.79956100" lon="-15.5825870">
        <ele>294.74100</ele>
        <time>2009-01-05T13:05:42Z</time>
      </trkpt>
      <trkpt lat="27.79953200" lon="-15.5824880">
        <ele>294.14500</ele>
        <time>2009-01-05T13:05:43Z</time>
      </trkpt>
      <trkpt lat="27.79950000" lon="-15.5823830">
        <ele>293.57400</ele>
        <time>2009-01-05T13:05:44Z</time>
      </trkpt>
      <trkpt lat="27.79946100" lon="-15.5822660">
        <ele>292.96000</ele>
        <time>2009-01-05T13:05:45Z</time>
      </trkpt>
      <trkpt lat="27.79942300" lon="-15.5821500">
        <ele>292.19000</ele>
        <time>2009-01-05T13:05:46Z</time>
      </trkpt>
      <trkpt lat="27.79938100" lon="-15.5820420">
        <ele>291.63100</ele>
        <time>2009-01-05T13:05:47Z</time>
      </trkpt>
      <trkpt lat="27.79932900" lon="-15.5819430">
        <ele>291.10600</ele>
        <time>2009-01-05T13:05:48Z</time>
      </trkpt>
      <trkpt lat="27.79926300" lon="-15.5818810">
        <ele>289.62000</ele>
        <time>2009-01-05T13:05:49Z</time>
      </trkpt>
      <trkpt lat="27.79919400" lon="-15.5818620">
        <ele>288.87800</ele>
        <time>2009-01-05T13:05:50Z</time>
      </trkpt>
      <trkpt lat="27.79914200" lon="-15.5818950">
        <ele>287.12500</ele>
        <time>2009-01-05T13:05:51Z</time>
      </trkpt>
      <trkpt lat="27.79910900" lon="-15.5819690">
        <ele>286.26900</ele>
        <time>2009-01-05T13:05:52Z</time>
      </trkpt>
      <trkpt lat="27.79909400" lon="-15.5820460">
        <ele>286.38100</ele>
        <time>2009-01-05T13:05:53Z</time>
      </trkpt>
      <trkpt lat="27.79907500" lon="-15.5821370">
        <ele>285.69800</ele>
        <time>2009-01-05T13:05:54Z</time>
      </trkpt>
      <trkpt lat="27.79905400" lon="-15.5822340">
        <ele>285.07100</ele>
        <time>2009-01-05T13:05:55Z</time>
      </trkpt>
      <trkpt lat="27.79903200" lon="-15.5823340">
        <ele>284.79700</ele>
        <time>2009-01-05T13:05:56Z</time>
      </trkpt>
      <trkpt lat="27.79900100" lon="-15.5824370">
        <ele>284.64800</ele>
        <time>2009-01-05T13:05:57Z</time>
      </trkpt>
      <trkpt lat="27.79896000" lon="-15.5825410">
        <ele>283.89300</ele>
        <time>2009-01-05T13:05:58Z</time>
      </trkpt>
      <trkpt lat="27.79890900" lon="-15.5826450">
        <ele>282.60400</ele>
        <time>2009-01-05T13:05:59Z</time>
      </trkpt>
      <trkpt lat="27.79884600" lon="-15.5827440">
        <ele>280.88700</ele>
        <time>2009-01-05T13:06:00Z</time>
      </trkpt>
      <trkpt lat="27.79876900" lon="-15.5828360">
        <ele>279.36000</ele>
        <time>2009-01-05T13:06:01Z</time>
      </trkpt>
      <trkpt lat="27.79867800" lon="-15.5829170">
        <ele>278.27500</ele>
        <time>2009-01-05T13:06:02Z</time>
      </trkpt>
      <trkpt lat="27.79857800" lon="-15.5829900">
        <ele>278.58300</ele>
        <time>2009-01-05T13:06:03Z</time>
      </trkpt>
      <trkpt lat="27.79847500" lon="-15.5830630">
        <ele>277.83300</ele>
        <time>2009-01-05T13:06:04Z</time>
      </trkpt>
      <trkpt lat="27.79836800" lon="-15.5831340">
        <ele>276.61600</ele>
        <time>2009-01-05T13:06:05Z</time>
      </trkpt>
      <trkpt lat="27.79825100" lon="-15.5831930">
        <ele>274.53100</ele>
        <time>2009-01-05T13:06:06Z</time>
      </trkpt>
      <trkpt lat="27.79810400" lon="-15.5832070">
        <ele>272.63900</ele>
        <time>2009-01-05T13:06:07Z</time>
      </trkpt>
      <trkpt lat="27.79796000" lon="-15.5831810">
        <ele>271.76400</ele>
        <time>2009-01-05T13:06:08Z</time>
      </trkpt>
      <trkpt lat="27.79782700" lon="-15.5831250">
        <ele>270.34600</ele>
        <time>2009-01-05T13:06:09Z</time>
      </trkpt>
      <trkpt lat="27.79770400" lon="-15.5830420">
        <ele>269.39200</ele>
        <time>2009-01-05T13:06:10Z</time>
      </trkpt>
      <trkpt lat="27.79758600" lon="-15.5829580">
        <ele>269.03300</ele>
        <time>2009-01-05T13:06:11Z</time>
      </trkpt>
      <trkpt lat="27.79745800" lon="-15.5828830">
        <ele>267.15700</ele>
        <time>2009-01-05T13:06:12Z</time>
      </trkpt>
      <trkpt lat="27.79732900" lon="-15.5828070">
        <ele>266.14700</ele>
        <time>2009-01-05T13:06:13Z</time>
      </trkpt>
      <trkpt lat="27.79720700" lon="-15.5827150">
        <ele>264.51300</ele>
        <time>2009-01-05T13:06:14Z</time>
      </trkpt>
      <trkpt lat="27.79709500" lon="-15.5826020">
        <ele>261.93100</ele>
        <time>2009-01-05T13:06:15Z</time>
      </trkpt>
      <trkpt lat="27.79699400" lon="-15.5824770">
        <ele>260.42400</ele>
        <time>2009-01-05T13:06:16Z</time>
      </trkpt>
      <trkpt lat="27.79689200" lon="-15.5823490">
        <ele>258.78800</ele>
        <time>2009-01-05T13:06:17Z</time>
      </trkpt>
      <trkpt lat="27.79678300" lon="-15.5822250">
        <ele>257.88600</ele>
        <time>2009-01-05T13:06:18Z</time>
      </trkpt>
      <trkpt lat="27.79666500" lon="-15.5821090">
        <ele>256.48600</ele>
        <time>2009-01-05T13:06:19Z</time>
      </trkpt>
      <trkpt lat="27.79653900" lon="-15.5820010">
        <ele>255.35900</ele>
        <time>2009-01-05T13:06:20Z</time>
      </trkpt>
      <trkpt lat="27.79640500" lon="-15.5819040">
        <ele>253.95500</ele>
        <time>2009-01-05T13:06:21Z</time>
      </trkpt>
      <trkpt lat="27.79626300" lon="-15.5818190">
        <ele>252.92900</ele>
        <time>2009-01-05T13:06:22Z</time>
      </trkpt>
      <trkpt lat="27.79611500" lon="-15.5817490">
        <ele>251.68600</ele>
        <time>2009-01-05T13:06:23Z</time>
      </trkpt>
      <trkpt lat="27.79596400" lon="-15.5816910">
        <ele>250.08400</ele>
        <time>2009-01-05T13:06:24Z</time>
      </trkpt>
      <trkpt lat="27.79581200" lon="-15.5816410">
        <ele>248.80900</ele>
        <time>2009-01-05T13:06:25Z</time>
      </trkpt>
      <trkpt lat="27.79566000" lon="-15.5815940">
        <ele>247.02100</ele>
        <time>2009-01-05T13:06:26Z</time>
      </trkpt>
      <trkpt lat="27.79550700" lon="-15.5815500">
        <ele>246.16900</ele>
        <time>2009-01-05T13:06:27Z</time>
      </trkpt>
      <trkpt lat="27.79535300" lon="-15.5815160">
        <ele>245.19800</ele>
        <time>2009-01-05T13:06:28Z</time>
      </trkpt>
      <trkpt lat="27.79520000" lon="-15.5814930">
        <ele>243.87100</ele>
        <time>2009-01-05T13:06:29Z</time>
      </trkpt>
      <trkpt lat="27.79504600" lon="-15.5814730">
        <ele>242.15700</ele>
        <time>2009-01-05T13:06:30Z</time>
      </trkpt>
      <trkpt lat="27.79489400" lon="-15.5814480">
        <ele>240.27900</ele>
        <time>2009-01-05T13:06:31Z</time>
      </trkpt>
      <trkpt lat="27.79474500" lon="-15.5814160">
        <ele>239.57200</ele>
        <time>2009-01-05T13:06:32Z</time>
      </trkpt>
      <trkpt lat="27.79459500" lon="-15.5813840">
        <ele>238.72900</ele>
        <time>2009-01-05T13:06:33Z</time>
      </trkpt>
      <trkpt lat="27.79444500" lon="-15.5813660">
        <ele>237.77100</ele>
        <time>2009-01-05T13:06:34Z</time>
      </trkpt>
      <trkpt lat="27.79429400" lon="-15.5813690">
        <ele>236.06800</ele>
        <time>2009-01-05T13:06:35Z</time>
      </trkpt>
      <trkpt lat="27.79414400" lon="-15.5813880">
        <ele>235.16300</ele>
        <time>2009-01-05T13:06:36Z</time>
      </trkpt>
      <trkpt lat="27.79399600" lon="-15.5814180">
        <ele>234.41500</ele>
        <time>2009-01-05T13:06:37Z</time>
      </trkpt>
      <trkpt lat="27.79385000" lon="-15.5814540">
        <ele>233.16900</ele>
        <time>2009-01-05T13:06:38Z</time>
      </trkpt>
      <trkpt lat="27.79370500" lon="-15.5814980">
        <ele>231.80400</ele>
        <time>2009-01-05T13:06:39Z</time>
      </trkpt>
      <trkpt lat="27.79356300" lon="-15.5815490">
        <ele>231.10100</ele>
        <time>2009-01-05T13:06:40Z</time>
      </trkpt>
      <trkpt lat="27.79342300" lon="-15.5816020">
        <ele>229.88900</ele>
        <time>2009-01-05T13:06:41Z</time>
      </trkpt>
      <trkpt lat="27.79328600" lon="-15.5816500">
        <ele>229.01900</ele>
        <time>2009-01-05T13:06:42Z</time>
      </trkpt>
      <trkpt lat="27.79315900" lon="-15.5816870">
        <ele>227.36100</ele>
        <time>2009-01-05T13:06:43Z</time>
      </trkpt>
      <trkpt lat="27.79304300" lon="-15.5817110">
        <ele>226.34200</ele>
        <time>2009-01-05T13:06:44Z</time>
      </trkpt>
      <trkpt lat="27.79294900" lon="-15.5816840">
        <ele>225.52800</ele>
        <time>2009-01-05T13:06:45Z</time>
      </trkpt>
      <trkpt lat="27.79288400" lon="-15.5816100">
        <ele>224.31100</ele>
        <time>2009-01-05T13:06:46Z</time>
      </trkpt>
      <trkpt lat="27.79285200" lon="-15.5815090">
        <ele>223.88500</ele>
        <time>2009-01-05T13:06:47Z</time>
      </trkpt>
      <trkpt lat="27.79283700" lon="-15.5814030">
        <ele>223.44900</ele>
        <time>2009-01-05T13:06:48Z</time>
      </trkpt>
      <trkpt lat="27.79283400" lon="-15.5812910">
        <ele>223.78200</ele>
        <time>2009-01-05T13:06:49Z</time>
      </trkpt>
      <trkpt lat="27.79283400" lon="-15.5811770">
        <ele>223.62600</ele>
        <time>2009-01-05T13:06:50Z</time>
      </trkpt>
      <trkpt lat="27.79283400" lon="-15.5810630">
        <ele>223.14300</ele>
        <time>2009-01-05T13:06:51Z</time>
      </trkpt>
      <trkpt lat="27.79282800" lon="-15.5809480">
        <ele>223.29600</ele>
        <time>2009-01-05T13:06:52Z</time>
      </trkpt>
      <trkpt lat="27.79281100" lon="-15.5808340">
        <ele>222.64100</ele>
        <time>2009-01-05T13:06:53Z</time>
      </trkpt>
      <trkpt lat="27.79278200" lon="-15.5807220">
        <ele>222.53000</ele>
        <time>2009-01-05T13:06:54Z</time>
      </trkpt>
      <trkpt lat="27.79273500" lon="-15.5806190">
        <ele>221.95900</ele>
        <time>2009-01-05T13:06:55Z</time>
      </trkpt>
      <trkpt lat="27.79265100" lon="-15.5805480">
        <ele>221.63600</ele>
        <time>2009-01-05T13:06:56Z</time>
      </trkpt>
      <trkpt lat="27.79255100" lon="-15.5805030">
        <ele>221.11600</ele>
        <time>2009-01-05T13:06:57Z</time>
      </trkpt>
      <trkpt lat="27.79244400" lon="-15.5804900">
        <ele>220.28300</ele>
        <time>2009-01-05T13:06:58Z</time>
      </trkpt>
      <trkpt lat="27.79233700" lon="-15.5804950">
        <ele>220.06700</ele>
        <time>2009-01-05T13:06:59Z</time>
      </trkpt>
      <trkpt lat="27.79222500" lon="-15.5805090">
        <ele>219.17600</ele>
        <time>2009-01-05T13:07:00Z</time>
      </trkpt>
      <trkpt lat="27.79211000" lon="-15.5805280">
        <ele>217.73300</ele>
        <time>2009-01-05T13:07:01Z</time>
      </trkpt>
      <trkpt lat="27.79199100" lon="-15.5805460">
        <ele>216.78400</ele>
        <time>2009-01-05T13:07:02Z</time>
      </trkpt>
      <trkpt lat="27.79186900" lon="-15.5805540">
        <ele>215.73900</ele>
        <time>2009-01-05T13:07:03Z</time>
      </trkpt>
      <trkpt lat="27.79174600" lon="-15.5805410">
        <ele>214.36200</ele>
        <time>2009-01-05T13:07:04Z</time>
      </trkpt>
      <trkpt lat="27.79162400" lon="-15.5805080">
        <ele>212.98800</ele>
        <time>2009-01-05T13:07:05Z</time>
      </trkpt>
      <trkpt lat="27.79150300" lon="-15.5804650">
        <ele>212.48500</ele>
        <time>2009-01-05T13:07:06Z</time>
      </trkpt>
      <trkpt lat="27.79138100" lon="-15.5804160">
        <ele>210.77800</ele>
        <time>2009-01-05T13:07:07Z</time>
      </trkpt>
      <trkpt lat="27.79125800" lon="-15.5803620">
        <ele>209.33200</ele>
        <time>2009-01-05T13:07:08Z</time>
      </trkpt>
      <trkpt lat="27.79113400" lon="-15.5803000">
        <ele>207.79400</ele>
        <time>2009-01-05T13:07:09Z</time>
      </trkpt>
      <trkpt lat="27.79101900" lon="-15.5802160">
        <ele>206.47000</ele>
        <time>2009-01-05T13:07:10Z</time>
      </trkpt>
      <trkpt lat="27.79092100" lon="-15.5801070">
        <ele>206.53500</ele>
        <time>2009-01-05T13:07:11Z</time>
      </trkpt>
      <trkpt lat="27.79083300" lon="-15.5799870">
        <ele>205.33300</ele>
        <time>2009-01-05T13:07:12Z</time>
      </trkpt>
      <trkpt lat="27.79074400" lon="-15.5798680">
        <ele>204.53700</ele>
        <time>2009-01-05T13:07:13Z</time>
      </trkpt>
      <trkpt lat="27.79064800" lon="-15.5797640">
        <ele>203.25400</ele>
        <time>2009-01-05T13:07:14Z</time>
      </trkpt>
      <trkpt lat="27.79054100" lon="-15.5796880">
        <ele>201.49100</ele>
        <time>2009-01-05T13:07:15Z</time>
      </trkpt>
      <trkpt lat="27.79041800" lon="-15.5796630">
        <ele>200.58900</ele>
        <time>2009-01-05T13:07:16Z</time>
      </trkpt>
      <trkpt lat="27.79029800" lon="-15.5796900">
        <ele>199.45200</ele>
        <time>2009-01-05T13:07:17Z</time>
      </trkpt>
      <trkpt lat="27.79018700" lon="-15.5797380">
        <ele>198.70700</ele>
        <time>2009-01-05T13:07:18Z</time>
      </trkpt>
      <trkpt lat="27.79007500" lon="-15.5797820">
        <ele>197.42200</ele>
        <time>2009-01-05T13:07:19Z</time>
      </trkpt>
      <trkpt lat="27.78995400" lon="-15.5798090">
        <ele>195.51600</ele>
        <time>2009-01-05T13:07:20Z</time>
      </trkpt>
      <trkpt lat="27.78983200" lon="-15.5797920">
        <ele>194.55700</ele>
        <time>2009-01-05T13:07:21Z</time>
      </trkpt>
      <trkpt lat="27.78970500" lon="-15.5797580">
        <ele>192.63600</ele>
        <time>2009-01-05T13:07:22Z</time>
      </trkpt>
      <trkpt lat="27.78957500" lon="-15.5797130">
        <ele>190.92900</ele>
        <time>2009-01-05T13:07:23Z</time>
      </trkpt>
      <trkpt lat="27.78944000" lon="-15.5796700">
        <ele>189.63500</ele>
        <time>2009-01-05T13:07:24Z</time>
      </trkpt>
      <trkpt lat="27.78930000" lon="-15.5796420">
        <ele>188.21300</ele>
        <time>2009-01-05T13:07:25Z</time>
      </trkpt>
      <trkpt lat="27.78915500" lon="-15.5796340">
        <ele>187.04200</ele>
        <time>2009-01-05T13:07:26Z</time>
      </trkpt>
      <trkpt lat="27.78900900" lon="-15.5796440">
        <ele>185.19500</ele>
        <time>2009-01-05T13:07:27Z</time>
      </trkpt>
      <trkpt lat="27.78886200" lon="-15.5796700">
        <ele>184.24800</ele>
        <time>2009-01-05T13:07:28Z</time>
      </trkpt>
      <trkpt lat="27.78871500" lon="-15.5797010">
        <ele>182.18100</ele>
        <time>2009-01-05T13:07:29Z</time>
      </trkpt>
      <trkpt lat="27.78856700" lon="-15.5797310">
        <ele>180.32600</ele>
        <time>2009-01-05T13:07:30Z</time>
      </trkpt>
      <trkpt lat="27.78842000" lon="-15.5797590">
        <ele>179.76200</ele>
        <time>2009-01-05T13:07:31Z</time>
      </trkpt>
      <trkpt lat="27.78827600" lon="-15.5797900">
        <ele>179.32100</ele>
        <time>2009-01-05T13:07:32Z</time>
      </trkpt>
      <trkpt lat="27.78813800" lon="-15.5798200">
        <ele>178.65500</ele>
        <time>2009-01-05T13:07:33Z</time>
      </trkpt>
      <trkpt lat="27.78800300" lon="-15.5798530">
        <ele>178.70500</ele>
        <time>2009-01-05T13:07:34Z</time>
      </trkpt>
      <trkpt lat="27.78787500" lon="-15.5798920">
        <ele>179.12800</ele>
        <time>2009-01-05T13:07:35Z</time>
      </trkpt>
      <trkpt lat="27.78775200" lon="-15.5799380">
        <ele>178.81400</ele>
        <time>2009-01-05T13:07:36Z</time>
      </trkpt>
      <trkpt lat="27.78763700" lon="-15.5799920">
        <ele>179.12500</ele>
        <time>2009-01-05T13:07:37Z</time>
      </trkpt>
      <trkpt lat="27.78752500" lon="-15.5800490">
        <ele>178.19400</ele>
        <time>2009-01-05T13:07:38Z</time>
      </trkpt>
      <trkpt lat="27.78741600" lon="-15.5801090">
        <ele>177.57000</ele>
        <time>2009-01-05T13:07:39Z</time>
      </trkpt>
      <trkpt lat="27.78730600" lon="-15.5801730">
        <ele>176.12400</ele>
        <time>2009-01-05T13:07:40Z</time>
      </trkpt>
      <trkpt lat="27.78719400" lon="-15.5802360">
        <ele>175.33600</ele>
        <time>2009-01-05T13:07:41Z</time>
      </trkpt>
      <trkpt lat="27.78708100" lon="-15.5802980">
        <ele>174.57700</ele>
        <time>2009-01-05T13:07:42Z</time>
      </trkpt>
      <trkpt lat="27.78696800" lon="-15.5803620">
        <ele>173.91900</ele>
        <time>2009-01-05T13:07:43Z</time>
      </trkpt>
      <trkpt lat="27.78685800" lon="-15.5804260">
        <ele>173.21600</ele>
        <time>2009-01-05T13:07:44Z</time>
      </trkpt>
      <trkpt lat="27.78674900" lon="-15.5804890">
        <ele>172.77400</ele>
        <time>2009-01-05T13:07:45Z</time>
      </trkpt>
      <trkpt lat="27.78664300" lon="-15.5805480">
        <ele>172.46000</ele>
        <time>2009-01-05T13:07:46Z</time>
      </trkpt>
      <trkpt lat="27.78654000" lon="-15.5806050">
        <ele>172.45400</ele>
        <time>2009-01-05T13:07:47Z</time>
      </trkpt>
      <trkpt lat="27.78644000" lon="-15.5806620">
        <ele>172.47300</ele>
        <time>2009-01-05T13:07:48Z</time>
      </trkpt>
      <trkpt lat="27.78634400" lon="-15.5807190">
        <ele>172.12100</ele>
        <time>2009-01-05T13:07:49Z</time>
      </trkpt>
      <trkpt lat="27.78625300" lon="-15.5807800">
        <ele>171.94400</ele>
        <time>2009-01-05T13:07:50Z</time>
      </trkpt>
      <trkpt lat="27.78616700" lon="-15.5808440">
        <ele>171.97800</ele>
        <time>2009-01-05T13:07:51Z</time>
      </trkpt>
      <trkpt lat="27.78608300" lon="-15.5809070">
        <ele>171.27800</ele>
        <time>2009-01-05T13:07:52Z</time>
      </trkpt>
      <trkpt lat="27.78599900" lon="-15.5809710">
        <ele>170.89200</ele>
        <time>2009-01-05T13:07:53Z</time>
      </trkpt>
      <trkpt lat="27.78591700" lon="-15.5810340">
        <ele>170.41100</ele>
        <time>2009-01-05T13:07:54Z</time>
      </trkpt>
      <trkpt lat="27.78583400" lon="-15.5810990">
        <ele>170.12000</ele>
        <time>2009-01-05T13:07:55Z</time>
      </trkpt>
      <trkpt lat="27.78575200" lon="-15.5811630">
        <ele>169.40200</ele>
        <time>2009-01-05T13:07:56Z</time>
      </trkpt>
      <trkpt lat="27.78566900" lon="-15.5812270">
        <ele>169.22000</ele>
        <time>2009-01-05T13:07:57Z</time>
      </trkpt>
      <trkpt lat="27.78558500" lon="-15.5812900">
        <ele>169.21700</ele>
        <time>2009-01-05T13:07:58Z</time>
      </trkpt>
      <trkpt lat="27.78550200" lon="-15.5813500">
        <ele>168.44600</ele>
        <time>2009-01-05T13:07:59Z</time>
      </trkpt>
      <trkpt lat="27.78541800" lon="-15.5814090">
        <ele>168.25000</ele>
        <time>2009-01-05T13:08:00Z</time>
      </trkpt>
      <trkpt lat="27.78533500" lon="-15.5814660">
        <ele>168.27700</ele>
        <time>2009-01-05T13:08:01Z</time>
      </trkpt>
      <trkpt lat="27.78525200" lon="-15.5815210">
        <ele>167.72200</ele>
        <time>2009-01-05T13:08:02Z</time>
      </trkpt>
      <trkpt lat="27.78516800" lon="-15.5815740">
        <ele>167.47100</ele>
        <time>2009-01-05T13:08:03Z</time>
      </trkpt>
      <trkpt lat="27.78508400" lon="-15.5816230">
        <ele>167.09400</ele>
        <time>2009-01-05T13:08:04Z</time>
      </trkpt>
      <trkpt lat="27.78499900" lon="-15.5816700">
        <ele>167.19200</ele>
        <time>2009-01-05T13:08:05Z</time>
      </trkpt>
      <trkpt lat="27.78491500" lon="-15.5817180">
        <ele>167.31400</ele>
        <time>2009-01-05T13:08:06Z</time>
      </trkpt>
      <trkpt lat="27.78483200" lon="-15.5817660">
        <ele>167.34300</ele>
        <time>2009-01-05T13:08:07Z</time>
      </trkpt>
      <trkpt lat="27.78475100" lon="-15.5818150">
        <ele>166.88900</ele>
        <time>2009-01-05T13:08:08Z</time>
      </trkpt>
      <trkpt lat="27.78467100" lon="-15.5818630">
        <ele>166.70400</ele>
        <time>2009-01-05T13:08:09Z</time>
      </trkpt>
      <trkpt lat="27.78459200" lon="-15.5819100">
        <ele>166.79900</ele>
        <time>2009-01-05T13:08:10Z</time>
      </trkpt>
      <trkpt lat="27.78451400" lon="-15.5819570">
        <ele>165.79700</ele>
        <time>2009-01-05T13:08:11Z</time>
      </trkpt>
      <trkpt lat="27.78443600" lon="-15.5820020">
        <ele>165.69900</ele>
        <time>2009-01-05T13:08:12Z</time>
      </trkpt>
      <trkpt lat="27.78436000" lon="-15.5820470">
        <ele>165.62000</ele>
        <time>2009-01-05T13:08:13Z</time>
      </trkpt>
      <trkpt lat="27.78428500" lon="-15.5820910">
        <ele>165.19800</ele>
        <time>2009-01-05T13:08:14Z</time>
      </trkpt>
      <trkpt lat="27.78421000" lon="-15.5821360">
        <ele>165.40700</ele>
        <time>2009-01-05T13:08:15Z</time>
      </trkpt>
      <trkpt lat="27.78413600" lon="-15.5821810">
        <ele>164.71500</ele>
        <time>2009-01-05T13:08:16Z</time>
      </trkpt>
      <trkpt lat="27.78406200" lon="-15.5822230">
        <ele>164.41700</ele>
        <time>2009-01-05T13:08:17Z</time>
      </trkpt>
      <trkpt lat="27.78398700" lon="-15.5822600">
        <ele>164.82400</ele>
        <time>2009-01-05T13:08:18Z</time>
      </trkpt>
      <trkpt lat="27.78391000" lon="-15.5822890">
        <ele>164.22800</ele>
        <time>2009-01-05T13:08:19Z</time>
      </trkpt>
      <trkpt lat="27.78383100" lon="-15.5823060">
        <ele>163.74700</ele>
        <time>2009-01-05T13:08:20Z</time>
      </trkpt>
      <trkpt lat="27.78375000" lon="-15.5823110">
        <ele>163.72100</ele>
        <time>2009-01-05T13:08:21Z</time>
      </trkpt>
      <trkpt lat="27.78366700" lon="-15.5823100">
        <ele>164.17100</ele>
        <time>2009-01-05T13:08:22Z</time>
      </trkpt>
      <trkpt lat="27.78358200" lon="-15.5823090">
        <ele>163.74400</ele>
        <time>2009-01-05T13:08:23Z</time>
      </trkpt>
      <trkpt lat="27.78349800" lon="-15.5823080">
        <ele>163.94000</ele>
        <time>2009-01-05T13:08:24Z</time>
      </trkpt>
      <trkpt lat="27.78341400" lon="-15.5823080">
        <ele>163.38000</ele>
        <time>2009-01-05T13:08:25Z</time>
      </trkpt>
      <trkpt lat="27.78332800" lon="-15.5823070">
        <ele>163.24300</ele>
        <time>2009-01-05T13:08:26Z</time>
      </trkpt>
      <trkpt lat="27.78324200" lon="-15.5823060">
        <ele>162.68100</ele>
        <time>2009-01-05T13:08:27Z</time>
      </trkpt>
      <trkpt lat="27.78315600" lon="-15.5823060">
        <ele>162.03100</ele>
        <time>2009-01-05T13:08:28Z</time>
      </trkpt>
      <trkpt lat="27.78307000" lon="-15.5823080">
        <ele>162.66300</ele>
        <time>2009-01-05T13:08:29Z</time>
      </trkpt>
      <trkpt lat="27.78298500" lon="-15.5823120">
        <ele>162.76200</ele>
        <time>2009-01-05T13:08:30Z</time>
      </trkpt>
      <trkpt lat="27.78290000" lon="-15.5823210">
        <ele>161.59400</ele>
        <time>2009-01-05T13:08:31Z</time>
      </trkpt>
      <trkpt lat="27.78281400" lon="-15.5823350">
        <ele>160.92500</ele>
        <time>2009-01-05T13:08:32Z</time>
      </trkpt>
      <trkpt lat="27.78272700" lon="-15.5823580">
        <ele>160.66700</ele>
        <time>2009-01-05T13:08:33Z</time>
      </trkpt>
      <trkpt lat="27.78263900" lon="-15.5823900">
        <ele>160.30300</ele>
        <time>2009-01-05T13:08:34Z</time>
      </trkpt>
      <trkpt lat="27.78255000" lon="-15.5824250">
        <ele>159.33300</ele>
        <time>2009-01-05T13:08:35Z</time>
      </trkpt>
      <trkpt lat="27.78246000" lon="-15.5824620">
        <ele>159.51300</ele>
        <time>2009-01-05T13:08:36Z</time>
      </trkpt>
      <trkpt lat="27.78236900" lon="-15.5824960">
        <ele>158.88200</ele>
        <time>2009-01-05T13:08:37Z</time>
      </trkpt>
      <trkpt lat="27.78227700" lon="-15.5825270">
        <ele>158.57800</ele>
        <time>2009-01-05T13:08:38Z</time>
      </trkpt>
      <trkpt lat="27.78218600" lon="-15.5825570">
        <ele>158.01000</ele>
        <time>2009-01-05T13:08:39Z</time>
      </trkpt>
      <trkpt lat="27.78209400" lon="-15.5825880">
        <ele>157.95000</ele>
        <time>2009-01-05T13:08:40Z</time>
      </trkpt>
      <trkpt lat="27.78200400" lon="-15.5826190">
        <ele>157.35800</ele>
        <time>2009-01-05T13:08:41Z</time>
      </trkpt>
      <trkpt lat="27.78191500" lon="-15.5826510">
        <ele>157.13600</ele>
        <time>2009-01-05T13:08:42Z</time>
      </trkpt>
      <trkpt lat="27.78182600" lon="-15.5826830">
        <ele>156.93800</ele>
        <time>2009-01-05T13:08:43Z</time>
      </trkpt>
      <trkpt lat="27.78173700" lon="-15.5827140">
        <ele>155.95000</ele>
        <time>2009-01-05T13:08:44Z</time>
      </trkpt>
      <trkpt lat="27.78164800" lon="-15.5827430">
        <ele>155.51700</ele>
        <time>2009-01-05T13:08:45Z</time>
      </trkpt>
      <trkpt lat="27.78155700" lon="-15.5827740">
        <ele>155.10300</ele>
        <time>2009-01-05T13:08:46Z</time>
      </trkpt>
      <trkpt lat="27.78146600" lon="-15.5828080">
        <ele>154.64900</ele>
        <time>2009-01-05T13:08:47Z</time>
      </trkpt>
      <trkpt lat="27.78137400" lon="-15.5828430">
        <ele>153.78900</ele>
        <time>2009-01-05T13:08:48Z</time>
      </trkpt>
      <trkpt lat="27.78128100" lon="-15.5828780">
        <ele>152.97000</ele>
        <time>2009-01-05T13:08:49Z</time>
      </trkpt>
      <trkpt lat="27.78118600" lon="-15.5829150">
        <ele>152.95500</ele>
        <time>2009-01-05T13:08:50Z</time>
      </trkpt>
      <trkpt lat="27.78109100" lon="-15.5829510">
        <ele>152.08200</ele>
        <time>2009-01-05T13:08:51Z</time>
      </trkpt>
      <trkpt lat="27.78099400" lon="-15.5829870">
        <ele>151.37700</ele>
        <time>2009-01-05T13:08:52Z</time>
      </trkpt>
      <trkpt lat="27.78089700" lon="-15.5830210">
        <ele>150.49300</ele>
        <time>2009-01-05T13:08:53Z</time>
      </trkpt>
      <trkpt lat="27.78080000" lon="-15.5830510">
        <ele>149.70300</ele>
        <time>2009-01-05T13:08:54Z</time>
      </trkpt>
      <trkpt lat="27.78070200" lon="-15.5830790">
        <ele>148.93000</ele>
        <time>2009-01-05T13:08:55Z</time>
      </trkpt>
      <trkpt lat="27.78060300" lon="-15.5831040">
        <ele>148.21500</ele>
        <time>2009-01-05T13:08:56Z</time>
      </trkpt>
      <trkpt lat="27.78050400" lon="-15.5831260">
        <ele>147.57100</ele>
        <time>2009-01-05T13:08:57Z</time>
      </trkpt>
      <trkpt lat="27.78040400" lon="-15.5831430">
        <ele>147.22600</ele>
        <time>2009-01-05T13:08:58Z</time>
      </trkpt>
      <trkpt lat="27.78030400" lon="-15.5831570">
        <ele>146.43700</ele>
        <time>2009-01-05T13:08:59Z</time>
      </trkpt>
      <trkpt lat="27.78020400" lon="-15.5831710">
        <ele>145.74600</ele>
        <time>2009-01-05T13:09:00Z</time>
      </trkpt>
      <trkpt lat="27.78010300" lon="-15.5831840">
        <ele>145.11300</ele>
        <time>2009-01-05T13:09:01Z</time>
      </trkpt>
      <trkpt lat="27.78000100" lon="-15.5831950">
        <ele>144.22700</ele>
        <time>2009-01-05T13:09:02Z</time>
      </trkpt>
      <trkpt lat="27.77989900" lon="-15.5832070">
        <ele>143.73600</ele>
        <time>2009-01-05T13:09:03Z</time>
      </trkpt>
      <trkpt lat="27.77979600" lon="-15.5832250">
        <ele>142.30000</ele>
        <time>2009-01-05T13:09:04Z</time>
      </trkpt>
      <trkpt lat="27.77969400" lon="-15.5832520">
        <ele>141.37700</ele>
        <time>2009-01-05T13:09:05Z</time>
      </trkpt>
      <trkpt lat="27.77959300" lon="-15.5832830">
        <ele>140.87900</ele>
        <time>2009-01-05T13:09:06Z</time>
      </trkpt>
      <trkpt lat="27.77949100" lon="-15.5833130">
        <ele>138.90900</ele>
        <time>2009-01-05T13:09:07Z</time>
      </trkpt>
      <trkpt lat="27.77938700" lon="-15.5833410">
        <ele>138.74600</ele>
        <time>2009-01-05T13:09:08Z</time>
      </trkpt>
      <trkpt lat="27.77928200" lon="-15.5833630">
        <ele>137.84700</ele>
        <time>2009-01-05T13:09:09Z</time>
      </trkpt>
      <trkpt lat="27.77917600" lon="-15.5833720">
        <ele>137.99400</ele>
        <time>2009-01-05T13:09:10Z</time>
      </trkpt>
      <trkpt lat="27.77907000" lon="-15.5833610">
        <ele>136.81400</ele>
        <time>2009-01-05T13:09:11Z</time>
      </trkpt>
      <trkpt lat="27.77896800" lon="-15.5833310">
        <ele>136.44000</ele>
        <time>2009-01-05T13:09:12Z</time>
      </trkpt>
      <trkpt lat="27.77886900" lon="-15.5832870">
        <ele>135.38100</ele>
        <time>2009-01-05T13:09:13Z</time>
      </trkpt>
      <trkpt lat="27.77877200" lon="-15.5832400">
        <ele>134.74000</ele>
        <time>2009-01-05T13:09:14Z</time>
      </trkpt>
      <trkpt lat="27.77867400" lon="-15.5831920">
        <ele>134.19700</ele>
        <time>2009-01-05T13:09:15Z</time>
      </trkpt>
      <trkpt lat="27.77857400" lon="-15.5831460">
        <ele>133.35800</ele>
        <time>2009-01-05T13:09:16Z</time>
      </trkpt>
      <trkpt lat="27.77847100" lon="-15.5831010">
        <ele>133.06300</ele>
        <time>2009-01-05T13:09:17Z</time>
      </trkpt>
      <trkpt lat="27.77836800" lon="-15.5830550">
        <ele>132.33500</ele>
        <time>2009-01-05T13:09:18Z</time>
      </trkpt>
      <trkpt lat="27.77826600" lon="-15.5830100">
        <ele>131.43000</ele>
        <time>2009-01-05T13:09:19Z</time>
      </trkpt>
      <trkpt lat="27.77816300" lon="-15.5829650">
        <ele>131.10800</ele>
        <time>2009-01-05T13:09:20Z</time>
      </trkpt>
      <trkpt lat="27.77806000" lon="-15.5829220">
        <ele>130.10800</ele>
        <time>2009-01-05T13:09:21Z</time>
      </trkpt>
      <trkpt lat="27.77795800" lon="-15.5828780">
        <ele>129.29700</ele>
        <time>2009-01-05T13:09:22Z</time>
      </trkpt>
      <trkpt lat="27.77785600" lon="-15.5828330">
        <ele>128.51300</ele>
        <time>2009-01-05T13:09:23Z</time>
      </trkpt>
      <trkpt lat="27.77775500" lon="-15.5827880">
        <ele>127.96200</ele>
        <time>2009-01-05T13:09:24Z</time>
      </trkpt>
      <trkpt lat="27.77765400" lon="-15.5827410">
        <ele>127.78600</ele>
        <time>2009-01-05T13:09:25Z</time>
      </trkpt>
      <trkpt lat="27.77755100" lon="-15.5826960">
        <ele>126.84900</ele>
        <time>2009-01-05T13:09:26Z</time>
      </trkpt>
      <trkpt lat="27.77744700" lon="-15.5826560">
        <ele>125.82400</ele>
        <time>2009-01-05T13:09:27Z</time>
      </trkpt>
      <trkpt lat="27.77734100" lon="-15.5826270">
        <ele>125.52400</ele>
        <time>2009-01-05T13:09:28Z</time>
      </trkpt>
      <trkpt lat="27.77723300" lon="-15.5826100">
        <ele>124.59700</ele>
        <time>2009-01-05T13:09:29Z</time>
      </trkpt>
      <trkpt lat="27.77712500" lon="-15.5826030">
        <ele>123.78100</ele>
        <time>2009-01-05T13:09:30Z</time>
      </trkpt>
      <trkpt lat="27.77701800" lon="-15.5826060">
        <ele>123.33500</ele>
        <time>2009-01-05T13:09:31Z</time>
      </trkpt>
      <trkpt lat="27.77691200" lon="-15.5826210">
        <ele>123.31800</ele>
        <time>2009-01-05T13:09:32Z</time>
      </trkpt>
      <trkpt lat="27.77680700" lon="-15.5826450">
        <ele>122.91400</ele>
        <time>2009-01-05T13:09:33Z</time>
      </trkpt>
      <trkpt lat="27.77670300" lon="-15.5826900">
        <ele>122.55800</ele>
        <time>2009-01-05T13:09:34Z</time>
      </trkpt>
      <trkpt lat="27.77660400" lon="-15.5827240">
        <ele>121.59900</ele>
        <time>2009-01-05T13:09:35Z</time>
      </trkpt>
      <trkpt lat="27.77650700" lon="-15.5827580">
        <ele>121.15500</ele>
        <time>2009-01-05T13:09:36Z</time>
      </trkpt>
      <trkpt lat="27.77640900" lon="-15.5827880">
        <ele>120.98200</ele>
        <time>2009-01-05T13:09:37Z</time>
      </trkpt>
      <trkpt lat="27.77631700" lon="-15.5828220">
        <ele>120.17900</ele>
        <time>2009-01-05T13:09:38Z</time>
      </trkpt>
      <trkpt lat="27.77622900" lon="-15.5828600">
        <ele>119.60700</ele>
        <time>2009-01-05T13:09:39Z</time>
      </trkpt>
      <trkpt lat="27.77614200" lon="-15.5828930">
        <ele>119.63700</ele>
        <time>2009-01-05T13:09:40Z</time>
      </trkpt>
      <trkpt lat="27.77605600" lon="-15.5829270">
        <ele>119.83100</ele>
        <time>2009-01-05T13:09:41Z</time>
      </trkpt>
      <trkpt lat="27.77596800" lon="-15.5829640">
        <ele>119.57900</ele>
        <time>2009-01-05T13:09:42Z</time>
      </trkpt>
      <trkpt lat="27.77588000" lon="-15.5829980">
        <ele>118.98000</ele>
        <time>2009-01-05T13:09:43Z</time>
      </trkpt>
      <trkpt lat="27.77579000" lon="-15.5830320">
        <ele>119.35000</ele>
        <time>2009-01-05T13:09:44Z</time>
      </trkpt>
      <trkpt lat="27.77569800" lon="-15.5830630">
        <ele>118.49300</ele>
        <time>2009-01-05T13:09:45Z</time>
      </trkpt>
      <trkpt lat="27.77560500" lon="-15.5830940">
        <ele>118.69600</ele>
        <time>2009-01-05T13:09:46Z</time>
      </trkpt>
      <trkpt lat="27.77551100" lon="-15.5831240">
        <ele>118.47800</ele>
        <time>2009-01-05T13:09:47Z</time>
      </trkpt>
      <trkpt lat="27.77541400" lon="-15.5831480">
        <ele>117.81500</ele>
        <time>2009-01-05T13:09:48Z</time>
      </trkpt>
      <trkpt lat="27.77531500" lon="-15.5831580">
        <ele>117.07200</ele>
        <time>2009-01-05T13:09:49Z</time>
      </trkpt>
      <trkpt lat="27.77521500" lon="-15.5831600">
        <ele>116.26400</ele>
        <time>2009-01-05T13:09:50Z</time>
      </trkpt>
      <trkpt lat="27.77511700" lon="-15.5831540">
        <ele>116.31700</ele>
        <time>2009-01-05T13:09:51Z</time>
      </trkpt>
      <trkpt lat="27.77502000" lon="-15.5831460">
        <ele>115.70700</ele>
        <time>2009-01-05T13:09:52Z</time>
      </trkpt>
      <trkpt lat="27.77492300" lon="-15.5831440">
        <ele>115.48900</ele>
        <time>2009-01-05T13:09:53Z</time>
      </trkpt>
      <trkpt lat="27.77482600" lon="-15.5831560">
        <ele>115.46800</ele>
        <time>2009-01-05T13:09:54Z</time>
      </trkpt>
      <trkpt lat="27.77472600" lon="-15.5831680">
        <ele>114.45400</ele>
        <time>2009-01-05T13:09:55Z</time>
      </trkpt>
      <trkpt lat="27.77462900" lon="-15.5831620">
        <ele>113.83100</ele>
        <time>2009-01-05T13:09:56Z</time>
      </trkpt>
      <trkpt lat="27.77453500" lon="-15.5831100">
        <ele>113.43800</ele>
        <time>2009-01-05T13:09:57Z</time>
      </trkpt>
      <trkpt lat="27.77446600" lon="-15.5830490">
        <ele>113.14700</ele>
        <time>2009-01-05T13:09:58Z</time>
      </trkpt>
      <trkpt lat="27.77439800" lon="-15.5829800">
        <ele>113.18300</ele>
        <time>2009-01-05T13:09:59Z</time>
      </trkpt>
      <trkpt lat="27.77432100" lon="-15.5829230">
        <ele>113.17200</ele>
        <time>2009-01-05T13:10:00Z</time>
      </trkpt>
      <trkpt lat="27.77423800" lon="-15.5828790">
        <ele>113.01300</ele>
        <time>2009-01-05T13:10:01Z</time>
      </trkpt>
      <trkpt lat="27.77415400" lon="-15.5828450">
        <ele>112.63900</ele>
        <time>2009-01-05T13:10:02Z</time>
      </trkpt>
      <trkpt lat="27.77406800" lon="-15.5828120">
        <ele>112.19200</ele>
        <time>2009-01-05T13:10:03Z</time>
      </trkpt>
      <trkpt lat="27.77398100" lon="-15.5827810">
        <ele>111.90300</ele>
        <time>2009-01-05T13:10:04Z</time>
      </trkpt>
      <trkpt lat="27.77389100" lon="-15.5827540">
        <ele>112.18000</ele>
        <time>2009-01-05T13:10:05Z</time>
      </trkpt>
      <trkpt lat="27.77380000" lon="-15.5827320">
        <ele>111.47600</ele>
        <time>2009-01-05T13:10:06Z</time>
      </trkpt>
      <trkpt lat="27.77370700" lon="-15.5827200">
        <ele>110.49400</ele>
        <time>2009-01-05T13:10:07Z</time>
      </trkpt>
      <trkpt lat="27.77361300" lon="-15.5827140">
        <ele>109.85400</ele>
        <time>2009-01-05T13:10:08Z</time>
      </trkpt>
      <trkpt lat="27.77351800" lon="-15.5827120">
        <ele>109.70500</ele>
        <time>2009-01-05T13:10:09Z</time>
      </trkpt>
      <trkpt lat="27.77342300" lon="-15.5827110">
        <ele>109.05700</ele>
        <time>2009-01-05T13:10:10Z</time>
      </trkpt>
      <trkpt lat="27.77332600" lon="-15.5827090">
        <ele>108.54400</ele>
        <time>2009-01-05T13:10:11Z</time>
      </trkpt>
      <trkpt lat="27.77322900" lon="-15.5827020">
        <ele>107.95900</ele>
        <time>2009-01-05T13:10:12Z</time>
      </trkpt>
      <trkpt lat="27.77313100" lon="-15.5826880">
        <ele>107.54200</ele>
        <time>2009-01-05T13:10:13Z</time>
      </trkpt>
      <trkpt lat="27.77303400" lon="-15.5826700">
        <ele>107.55900</ele>
        <time>2009-01-05T13:10:14Z</time>
      </trkpt>
      <trkpt lat="27.77293900" lon="-15.5826440">
        <ele>106.98300</ele>
        <time>2009-01-05T13:10:15Z</time>
      </trkpt>
      <trkpt lat="27.77284800" lon="-15.5826080">
        <ele>107.10600</ele>
        <time>2009-01-05T13:10:16Z</time>
      </trkpt>
      <trkpt lat="27.77276100" lon="-15.5825630">
        <ele>106.52100</ele>
        <time>2009-01-05T13:10:17Z</time>
      </trkpt>
      <trkpt lat="27.77267400" lon="-15.5825110">
        <ele>104.98200</ele>
        <time>2009-01-05T13:10:18Z</time>
      </trkpt>
      <trkpt lat="27.77258600" lon="-15.5824570">
        <ele>104.58400</ele>
        <time>2009-01-05T13:10:19Z</time>
      </trkpt>
      <trkpt lat="27.77249700" lon="-15.5824020">
        <ele>104.78700</ele>
        <time>2009-01-05T13:10:20Z</time>
      </trkpt>
      <trkpt lat="27.77240900" lon="-15.5823480">
        <ele>104.43700</ele>
        <time>2009-01-05T13:10:21Z</time>
      </trkpt>
      <trkpt lat="27.77232400" lon="-15.5822940">
        <ele>103.21200</ele>
        <time>2009-01-05T13:10:22Z</time>
      </trkpt>
      <trkpt lat="27.77224100" lon="-15.5822390">
        <ele>102.53400</ele>
        <time>2009-01-05T13:10:23Z</time>
      </trkpt>
      <trkpt lat="27.77215700" lon="-15.5821860">
        <ele>101.96200</ele>
        <time>2009-01-05T13:10:24Z</time>
      </trkpt>
      <trkpt lat="27.77207000" lon="-15.5821360">
        <ele>101.07000</ele>
        <time>2009-01-05T13:10:25Z</time>
      </trkpt>
      <trkpt lat="27.77198300" lon="-15.5820920">
        <ele>99.734000</ele>
        <time>2009-01-05T13:10:26Z</time>
      </trkpt>
      <trkpt lat="27.77189700" lon="-15.5820550">
        <ele>98.792000</ele>
        <time>2009-01-05T13:10:27Z</time>
      </trkpt>
      <trkpt lat="27.77180700" lon="-15.5820220">
        <ele>97.636000</ele>
        <time>2009-01-05T13:10:28Z</time>
      </trkpt>
      <trkpt lat="27.77171500" lon="-15.5819840">
        <ele>97.241000</ele>
        <time>2009-01-05T13:10:29Z</time>
      </trkpt>
      <trkpt lat="27.77162400" lon="-15.5819370">
        <ele>96.769000</ele>
        <time>2009-01-05T13:10:30Z</time>
      </trkpt>
      <trkpt lat="27.77153500" lon="-15.5818830">
        <ele>96.018000</ele>
        <time>2009-01-05T13:10:31Z</time>
      </trkpt>
      <trkpt lat="27.77144800" lon="-15.5818230">
        <ele>95.517000</ele>
        <time>2009-01-05T13:10:32Z</time>
      </trkpt>
      <trkpt lat="27.77136800" lon="-15.5817630">
        <ele>94.771000</ele>
        <time>2009-01-05T13:10:33Z</time>
      </trkpt>
      <trkpt lat="27.77129800" lon="-15.5817060">
        <ele>93.935000</ele>
        <time>2009-01-05T13:10:34Z</time>
      </trkpt>
      <trkpt lat="27.77123800" lon="-15.5816540">
        <ele>93.815000</ele>
        <time>2009-01-05T13:10:35Z</time>
      </trkpt>
      <trkpt lat="27.77118600" lon="-15.5816100">
        <ele>92.936000</ele>
        <time>2009-01-05T13:10:36Z</time>
      </trkpt>
      <trkpt lat="27.77114200" lon="-15.5815750">
        <ele>93.099000</ele>
        <time>2009-01-05T13:10:37Z</time>
      </trkpt>
      <trkpt lat="27.77110700" lon="-15.5815490">
        <ele>92.626000</ele>
        <time>2009-01-05T13:10:38Z</time>
      </trkpt>
      <trkpt lat="27.77108500" lon="-15.5815350">
        <ele>92.144000</ele>
        <time>2009-01-05T13:10:39Z</time>
      </trkpt>
      <trkpt lat="27.77106900" lon="-15.5815320">
        <ele>92.288000</ele>
        <time>2009-01-05T13:10:40Z</time>
      </trkpt>
      <trkpt lat="27.77105300" lon="-15.5815310">
        <ele>92.060000</ele>
        <time>2009-01-05T13:10:41Z</time>
      </trkpt>
      <trkpt lat="27.77102900" lon="-15.5815290">
        <ele>92.176000</ele>
        <time>2009-01-05T13:10:42Z</time>
      </trkpt>
      <trkpt lat="27.77099600" lon="-15.5815240">
        <ele>91.629000</ele>
        <time>2009-01-05T13:10:43Z</time>
      </trkpt>
      <trkpt lat="27.77095600" lon="-15.5815150">
        <ele>91.800000</ele>
        <time>2009-01-05T13:10:44Z</time>
      </trkpt>
      <trkpt lat="27.77091000" lon="-15.5814920">
        <ele>91.884000</ele>
        <time>2009-01-05T13:10:45Z</time>
      </trkpt>
      <trkpt lat="27.77086600" lon="-15.5814500">
        <ele>91.506000</ele>
        <time>2009-01-05T13:10:46Z</time>
      </trkpt>
      <trkpt lat="27.77083000" lon="-15.5813920">
        <ele>91.241000</ele>
        <time>2009-01-05T13:10:47Z</time>
      </trkpt>
      <trkpt lat="27.77080300" lon="-15.5813230">
        <ele>91.209000</ele>
        <time>2009-01-05T13:10:48Z</time>
      </trkpt>
      <trkpt lat="27.77077500" lon="-15.5812480">
        <ele>91.140000</ele>
        <time>2009-01-05T13:10:49Z</time>
      </trkpt>
      <trkpt lat="27.77073800" lon="-15.5811490">
        <ele>91.136000</ele>
        <time>2009-01-05T13:10:50Z</time>
      </trkpt>
      <trkpt lat="27.77069200" lon="-15.5810620">
        <ele>90.708000</ele>
        <time>2009-01-05T13:10:51Z</time>
      </trkpt>
      <trkpt lat="27.77064900" lon="-15.5809920">
        <ele>90.644000</ele>
        <time>2009-01-05T13:10:52Z</time>
      </trkpt>
      <trkpt lat="27.77059700" lon="-15.5809200">
        <ele>91.022000</ele>
        <time>2009-01-05T13:10:53Z</time>
      </trkpt>
      <trkpt lat="27.77054400" lon="-15.5808480">
        <ele>90.711000</ele>
        <time>2009-01-05T13:10:54Z</time>
      </trkpt>
      <trkpt lat="27.77048800" lon="-15.5807760">
        <ele>91.215000</ele>
        <time>2009-01-05T13:10:55Z</time>
      </trkpt>
      <trkpt lat="27.77043200" lon="-15.5807010">
        <ele>91.220000</ele>
        <time>2009-01-05T13:10:56Z</time>
      </trkpt>
      <trkpt lat="27.77037600" lon="-15.5806250">
        <ele>90.366000</ele>
        <time>2009-01-05T13:10:57Z</time>
      </trkpt>
      <trkpt lat="27.77032100" lon="-15.5805450">
        <ele>89.980000</ele>
        <time>2009-01-05T13:10:58Z</time>
      </trkpt>
      <trkpt lat="27.77026800" lon="-15.5804620">
        <ele>89.779000</ele>
        <time>2009-01-05T13:10:59Z</time>
      </trkpt>
      <trkpt lat="27.77021500" lon="-15.5803750">
        <ele>89.443000</ele>
        <time>2009-01-05T13:11:00Z</time>
      </trkpt>
      <trkpt lat="27.77015500" lon="-15.5802890">
        <ele>89.156000</ele>
        <time>2009-01-05T13:11:01Z</time>
      </trkpt>
      <trkpt lat="27.77008800" lon="-15.5802070">
        <ele>88.614000</ele>
        <time>2009-01-05T13:11:02Z</time>
      </trkpt>
      <trkpt lat="27.77001200" lon="-15.5801290">
        <ele>88.296000</ele>
        <time>2009-01-05T13:11:03Z</time>
      </trkpt>
      <trkpt lat="27.76993600" lon="-15.5800510">
        <ele>88.446000</ele>
        <time>2009-01-05T13:11:04Z</time>
      </trkpt>
      <trkpt lat="27.76986000" lon="-15.5799720">
        <ele>88.860000</ele>
        <time>2009-01-05T13:11:05Z</time>
      </trkpt>
      <trkpt lat="27.76978400" lon="-15.5798910">
        <ele>87.615000</ele>
        <time>2009-01-05T13:11:06Z</time>
      </trkpt>
      <trkpt lat="27.76970800" lon="-15.5798090">
        <ele>87.656000</ele>
        <time>2009-01-05T13:11:07Z</time>
      </trkpt>
      <trkpt lat="27.76963300" lon="-15.5797260">
        <ele>87.262000</ele>
        <time>2009-01-05T13:11:08Z</time>
      </trkpt>
      <trkpt lat="27.76955500" lon="-15.5796460">
        <ele>86.989000</ele>
        <time>2009-01-05T13:11:09Z</time>
      </trkpt>
      <trkpt lat="27.76947500" lon="-15.5795690">
        <ele>86.571000</ele>
        <time>2009-01-05T13:11:10Z</time>
      </trkpt>
      <trkpt lat="27.76939100" lon="-15.5794980">
        <ele>86.105000</ele>
        <time>2009-01-05T13:11:11Z</time>
      </trkpt>
      <trkpt lat="27.76930500" lon="-15.5794330">
        <ele>86.167000</ele>
        <time>2009-01-05T13:11:12Z</time>
      </trkpt>
      <trkpt lat="27.76921400" lon="-15.5793750">
        <ele>85.464000</ele>
        <time>2009-01-05T13:11:13Z</time>
      </trkpt>
      <trkpt lat="27.76912400" lon="-15.5793200">
        <ele>85.434000</ele>
        <time>2009-01-05T13:11:14Z</time>
      </trkpt>
      <trkpt lat="27.76903300" lon="-15.5792630">
        <ele>85.337000</ele>
        <time>2009-01-05T13:11:15Z</time>
      </trkpt>
      <trkpt lat="27.76894500" lon="-15.5792040">
        <ele>84.776000</ele>
        <time>2009-01-05T13:11:16Z</time>
      </trkpt>
      <trkpt lat="27.76886000" lon="-15.5791410">
        <ele>83.866000</ele>
        <time>2009-01-05T13:11:17Z</time>
      </trkpt>
      <trkpt lat="27.76877800" lon="-15.5790770">
        <ele>84.142000</ele>
        <time>2009-01-05T13:11:18Z</time>
      </trkpt>
      <trkpt lat="27.76869900" lon="-15.5790150">
        <ele>84.178000</ele>
        <time>2009-01-05T13:11:19Z</time>
      </trkpt>
      <trkpt lat="27.76863200" lon="-15.5789640">
        <ele>83.275000</ele>
        <time>2009-01-05T13:11:20Z</time>
      </trkpt>
      <trkpt lat="27.76858400" lon="-15.5789290">
        <ele>82.378000</ele>
        <time>2009-01-05T13:11:21Z</time>
      </trkpt>
      <trkpt lat="27.76855200" lon="-15.5789090">
        <ele>81.904000</ele>
        <time>2009-01-05T13:11:22Z</time>
      </trkpt>
      <trkpt lat="27.76852400" lon="-15.5788970">
        <ele>81.731000</ele>
        <time>2009-01-05T13:11:23Z</time>
      </trkpt>
      <trkpt lat="27.76849400" lon="-15.5788890">
        <ele>81.815000</ele>
        <time>2009-01-05T13:11:24Z</time>
      </trkpt>
      <trkpt lat="27.76845900" lon="-15.5788780">
        <ele>81.595000</ele>
        <time>2009-01-05T13:11:25Z</time>
      </trkpt>
      <trkpt lat="27.76841900" lon="-15.5788610">
        <ele>82.229000</ele>
        <time>2009-01-05T13:11:26Z</time>
      </trkpt>
      <trkpt lat="27.76837500" lon="-15.5788390">
        <ele>81.885000</ele>
        <time>2009-01-05T13:11:27Z</time>
      </trkpt>
      <trkpt lat="27.76832600" lon="-15.5788110">
        <ele>81.749000</ele>
        <time>2009-01-05T13:11:28Z</time>
      </trkpt>
      <trkpt lat="27.76827300" lon="-15.5787840">
        <ele>81.587000</ele>
        <time>2009-01-05T13:11:29Z</time>
      </trkpt>
      <trkpt lat="27.76821500" lon="-15.5787630">
        <ele>81.383000</ele>
        <time>2009-01-05T13:11:30Z</time>
      </trkpt>
      <trkpt lat="27.76815200" lon="-15.5787520">
        <ele>81.474000</ele>
        <time>2009-01-05T13:11:31Z</time>
      </trkpt>
      <trkpt lat="27.76808700" lon="-15.5787520">
        <ele>81.643000</ele>
        <time>2009-01-05T13:11:32Z</time>
      </trkpt>
      <trkpt lat="27.76801600" lon="-15.5787580">
        <ele>81.692000</ele>
        <time>2009-01-05T13:11:33Z</time>
      </trkpt>
      <trkpt lat="27.76794200" lon="-15.5787630">
        <ele>81.519000</ele>
        <time>2009-01-05T13:11:34Z</time>
      </trkpt>
      <trkpt lat="27.76786400" lon="-15.5787670">
        <ele>81.146000</ele>
        <time>2009-01-05T13:11:35Z</time>
      </trkpt>
      <trkpt lat="27.76778600" lon="-15.5787730">
        <ele>81.618000</ele>
        <time>2009-01-05T13:11:36Z</time>
      </trkpt>
      <trkpt lat="27.76770800" lon="-15.5787780">
        <ele>81.350000</ele>
        <time>2009-01-05T13:11:37Z</time>
      </trkpt>
      <trkpt lat="27.76762900" lon="-15.5787830">
        <ele>81.492000</ele>
        <time>2009-01-05T13:11:38Z</time>
      </trkpt>
      <trkpt lat="27.76754800" lon="-15.5787890">
        <ele>81.565000</ele>
        <time>2009-01-05T13:11:39Z</time>
      </trkpt>
      <trkpt lat="27.76746800" lon="-15.5787950">
        <ele>81.381000</ele>
        <time>2009-01-05T13:11:40Z</time>
      </trkpt>
      <trkpt lat="27.76738600" lon="-15.5788010">
        <ele>80.894000</ele>
        <time>2009-01-05T13:11:41Z</time>
      </trkpt>
      <trkpt lat="27.76730300" lon="-15.5788060">
        <ele>80.544000</ele>
        <time>2009-01-05T13:11:42Z</time>
      </trkpt>
      <trkpt lat="27.76722000" lon="-15.5788120">
        <ele>81.031000</ele>
        <time>2009-01-05T13:11:43Z</time>
      </trkpt>
      <trkpt lat="27.76713700" lon="-15.5788180">
        <ele>80.605000</ele>
        <time>2009-01-05T13:11:44Z</time>
      </trkpt>
      <trkpt lat="27.76705500" lon="-15.5788250">
        <ele>80.426000</ele>
        <time>2009-01-05T13:11:45Z</time>
      </trkpt>
      <trkpt lat="27.76697400" lon="-15.5788300">
        <ele>80.187000</ele>
        <time>2009-01-05T13:11:46Z</time>
      </trkpt>
      <trkpt lat="27.76689500" lon="-15.5788360">
        <ele>79.826000</ele>
        <time>2009-01-05T13:11:47Z</time>
      </trkpt>
      <trkpt lat="27.76681700" lon="-15.5788440">
        <ele>79.436000</ele>
        <time>2009-01-05T13:11:48Z</time>
      </trkpt>
      <trkpt lat="27.76674200" lon="-15.5788520">
        <ele>79.447000</ele>
        <time>2009-01-05T13:11:49Z</time>
      </trkpt>
      <trkpt lat="27.76667000" lon="-15.5788610">
        <ele>78.666000</ele>
        <time>2009-01-05T13:11:50Z</time>
      </trkpt>
      <trkpt lat="27.76660300" lon="-15.5788720">
        <ele>78.321000</ele>
        <time>2009-01-05T13:11:51Z</time>
      </trkpt>
      <trkpt lat="27.76653700" lon="-15.5788830">
        <ele>78.335000</ele>
        <time>2009-01-05T13:11:52Z</time>
      </trkpt>
      <trkpt lat="27.76647300" lon="-15.5788960">
        <ele>78.318000</ele>
        <time>2009-01-05T13:11:53Z</time>
      </trkpt>
      <trkpt lat="27.76641000" lon="-15.5789150">
        <ele>78.093000</ele>
        <time>2009-01-05T13:11:54Z</time>
      </trkpt>
      <trkpt lat="27.76635000" lon="-15.5789390">
        <ele>77.978000</ele>
        <time>2009-01-05T13:11:55Z</time>
      </trkpt>
      <trkpt lat="27.76629300" lon="-15.5789590">
        <ele>77.478000</ele>
        <time>2009-01-05T13:11:56Z</time>
      </trkpt>
      <trkpt lat="27.76623700" lon="-15.5789680">
        <ele>77.144000</ele>
        <time>2009-01-05T13:11:57Z</time>
      </trkpt>
      <trkpt lat="27.76617900" lon="-15.5789610">
        <ele>76.958000</ele>
        <time>2009-01-05T13:11:58Z</time>
      </trkpt>
      <trkpt lat="27.76611800" lon="-15.5789440">
        <ele>76.838000</ele>
        <time>2009-01-05T13:11:59Z</time>
      </trkpt>
      <trkpt lat="27.76605200" lon="-15.5789270">
        <ele>76.676000</ele>
        <time>2009-01-05T13:12:00Z</time>
      </trkpt>
      <trkpt lat="27.76598200" lon="-15.5789160">
        <ele>76.855000</ele>
        <time>2009-01-05T13:12:01Z</time>
      </trkpt>
      <trkpt lat="27.76590900" lon="-15.5789100">
        <ele>76.571000</ele>
        <time>2009-01-05T13:12:02Z</time>
      </trkpt>
      <trkpt lat="27.76583300" lon="-15.5789060">
        <ele>76.279000</ele>
        <time>2009-01-05T13:12:03Z</time>
      </trkpt>
      <trkpt lat="27.76575400" lon="-15.5789060">
        <ele>76.402000</ele>
        <time>2009-01-05T13:12:04Z</time>
      </trkpt>
      <trkpt lat="27.76567300" lon="-15.5789070">
        <ele>75.714000</ele>
        <time>2009-01-05T13:12:05Z</time>
      </trkpt>
      <trkpt lat="27.76559100" lon="-15.5789090">
        <ele>75.686000</ele>
        <time>2009-01-05T13:12:06Z</time>
      </trkpt>
      <trkpt lat="27.76550600" lon="-15.5789100">
        <ele>75.466000</ele>
        <time>2009-01-05T13:12:07Z</time>
      </trkpt>
      <trkpt lat="27.76542000" lon="-15.5789110">
        <ele>75.877000</ele>
        <time>2009-01-05T13:12:08Z</time>
      </trkpt>
      <trkpt lat="27.76533100" lon="-15.5789100">
        <ele>75.020000</ele>
        <time>2009-01-05T13:12:09Z</time>
      </trkpt>
      <trkpt lat="27.76524200" lon="-15.5789090">
        <ele>74.464000</ele>
        <time>2009-01-05T13:12:10Z</time>
      </trkpt>
      <trkpt lat="27.76515100" lon="-15.5789090">
        <ele>74.384000</ele>
        <time>2009-01-05T13:12:11Z</time>
      </trkpt>
      <trkpt lat="27.76506000" lon="-15.5789100">
        <ele>74.206000</ele>
        <time>2009-01-05T13:12:12Z</time>
      </trkpt>
      <trkpt lat="27.76496700" lon="-15.5789110">
        <ele>73.756000</ele>
        <time>2009-01-05T13:12:13Z</time>
      </trkpt>
      <trkpt lat="27.76487400" lon="-15.5789120">
        <ele>73.776000</ele>
        <time>2009-01-05T13:12:14Z</time>
      </trkpt>
      <trkpt lat="27.76478100" lon="-15.5789130">
        <ele>73.480000</ele>
        <time>2009-01-05T13:12:15Z</time>
      </trkpt>
      <trkpt lat="27.76468900" lon="-15.5789150">
        <ele>73.399000</ele>
        <time>2009-01-05T13:12:16Z</time>
      </trkpt>
      <trkpt lat="27.76459700" lon="-15.5789160">
        <ele>73.057000</ele>
        <time>2009-01-05T13:12:17Z</time>
      </trkpt>
      <trkpt lat="27.76450700" lon="-15.5789210">
        <ele>72.501000</ele>
        <time>2009-01-05T13:12:18Z</time>
      </trkpt>
      <trkpt lat="27.76442400" lon="-15.5789310">
        <ele>71.728000</ele>
        <time>2009-01-05T13:12:19Z</time>
      </trkpt>
      <trkpt lat="27.76435100" lon="-15.5789460">
        <ele>71.439000</ele>
        <time>2009-01-05T13:12:20Z</time>
      </trkpt>
      <trkpt lat="27.76428600" lon="-15.5789700">
        <ele>71.140000</ele>
        <time>2009-01-05T13:12:21Z</time>
      </trkpt>
      <trkpt lat="27.76422500" lon="-15.5790040">
        <ele>71.170000</ele>
        <time>2009-01-05T13:12:22Z</time>
      </trkpt>
      <trkpt lat="27.76416400" lon="-15.5790480">
        <ele>71.051000</ele>
        <time>2009-01-05T13:12:23Z</time>
      </trkpt>
      <trkpt lat="27.76410000" lon="-15.5790940">
        <ele>71.044000</ele>
        <time>2009-01-05T13:12:24Z</time>
      </trkpt>
      <trkpt lat="27.76403000" lon="-15.5791310">
        <ele>70.742000</ele>
        <time>2009-01-05T13:12:25Z</time>
      </trkpt>
      <trkpt lat="27.76395200" lon="-15.5791570">
        <ele>70.546000</ele>
        <time>2009-01-05T13:12:26Z</time>
      </trkpt>
      <trkpt lat="27.76386800" lon="-15.5791680">
        <ele>70.558000</ele>
        <time>2009-01-05T13:12:27Z</time>
      </trkpt>
      <trkpt lat="27.76378400" lon="-15.5791620">
        <ele>70.443000</ele>
        <time>2009-01-05T13:12:28Z</time>
      </trkpt>
      <trkpt lat="27.76370500" lon="-15.5791350">
        <ele>70.375000</ele>
        <time>2009-01-05T13:12:29Z</time>
      </trkpt>
      <trkpt lat="27.76363700" lon="-15.5790840">
        <ele>69.967000</ele>
        <time>2009-01-05T13:12:30Z</time>
      </trkpt>
      <trkpt lat="27.76358700" lon="-15.5790090">
        <ele>69.271000</ele>
        <time>2009-01-05T13:12:31Z</time>
      </trkpt>
      <trkpt lat="27.76356100" lon="-15.5789200">
        <ele>69.203000</ele>
        <time>2009-01-05T13:12:32Z</time>
      </trkpt>
      <trkpt lat="27.76355700" lon="-15.5788290">
        <ele>68.848000</ele>
        <time>2009-01-05T13:12:33Z</time>
      </trkpt>
      <trkpt lat="27.76356200" lon="-15.5787470">
        <ele>68.588000</ele>
        <time>2009-01-05T13:12:34Z</time>
      </trkpt>
      <trkpt lat="27.76357400" lon="-15.5786760">
        <ele>68.481000</ele>
        <time>2009-01-05T13:12:35Z</time>
      </trkpt>
      <trkpt lat="27.76359800" lon="-15.5786160">
        <ele>68.765000</ele>
        <time>2009-01-05T13:12:36Z</time>
      </trkpt>
      <trkpt lat="27.76362700" lon="-15.5785690">
        <ele>68.577000</ele>
        <time>2009-01-05T13:12:37Z</time>
      </trkpt>
      <trkpt lat="27.76365200" lon="-15.5785270">
        <ele>68.689000</ele>
        <time>2009-01-05T13:12:38Z</time>
      </trkpt>
      <trkpt lat="27.76367700" lon="-15.5784820">
        <ele>68.820000</ele>
        <time>2009-01-05T13:12:39Z</time>
      </trkpt>
      <trkpt lat="27.76370200" lon="-15.5784300">
        <ele>68.906000</ele>
        <time>2009-01-05T13:12:40Z</time>
      </trkpt>
      <trkpt lat="27.76373000" lon="-15.5783710">
        <ele>68.808000</ele>
        <time>2009-01-05T13:12:41Z</time>
      </trkpt>
      <trkpt lat="27.76375800" lon="-15.5783040">
        <ele>68.926000</ele>
        <time>2009-01-05T13:12:42Z</time>
      </trkpt>
      <trkpt lat="27.76378300" lon="-15.5782290">
        <ele>69.095000</ele>
        <time>2009-01-05T13:12:43Z</time>
      </trkpt>
      <trkpt lat="27.76379800" lon="-15.5781440">
        <ele>69.593000</ele>
        <time>2009-01-05T13:12:44Z</time>
      </trkpt>
      <trkpt lat="27.76380400" lon="-15.5780550">
        <ele>69.722000</ele>
        <time>2009-01-05T13:12:45Z</time>
      </trkpt>
      <trkpt lat="27.76380700" lon="-15.5779640">
        <ele>69.740000</ele>
        <time>2009-01-05T13:12:46Z</time>
      </trkpt>
      <trkpt lat="27.76381100" lon="-15.5778720">
        <ele>69.567000</ele>
        <time>2009-01-05T13:12:47Z</time>
      </trkpt>
      <trkpt lat="27.76381600" lon="-15.5777770">
        <ele>69.291000</ele>
        <time>2009-01-05T13:12:48Z</time>
      </trkpt>
      <trkpt lat="27.76382200" lon="-15.5776810">
        <ele>69.343000</ele>
        <time>2009-01-05T13:12:49Z</time>
      </trkpt>
      <trkpt lat="27.76382800" lon="-15.5775840">
        <ele>69.294000</ele>
        <time>2009-01-05T13:12:50Z</time>
      </trkpt>
      <trkpt lat="27.76383900" lon="-15.5774860">
        <ele>68.825000</ele>
        <time>2009-01-05T13:12:51Z</time>
      </trkpt>
      <trkpt lat="27.76385200" lon="-15.5773880">
        <ele>68.711000</ele>
        <time>2009-01-05T13:12:52Z</time>
      </trkpt>
      <trkpt lat="27.76386800" lon="-15.5772910">
        <ele>68.871000</ele>
        <time>2009-01-05T13:12:53Z</time>
      </trkpt>
      <trkpt lat="27.76388700" lon="-15.5771940">
        <ele>68.864000</ele>
        <time>2009-01-05T13:12:54Z</time>
      </trkpt>
      <trkpt lat="27.76391000" lon="-15.5770980">
        <ele>69.109000</ele>
        <time>2009-01-05T13:12:55Z</time>
      </trkpt>
      <trkpt lat="27.76393700" lon="-15.5770030">
        <ele>69.448000</ele>
        <time>2009-01-05T13:12:56Z</time>
      </trkpt>
      <trkpt lat="27.76396400" lon="-15.5769080">
        <ele>68.609000</ele>
        <time>2009-01-05T13:12:57Z</time>
      </trkpt>
      <trkpt lat="27.76399200" lon="-15.5768130">
        <ele>68.626000</ele>
        <time>2009-01-05T13:12:58Z</time>
      </trkpt>
      <trkpt lat="27.76402200" lon="-15.5767180">
        <ele>68.316000</ele>
        <time>2009-01-05T13:12:59Z</time>
      </trkpt>
      <trkpt lat="27.76405200" lon="-15.5766220">
        <ele>68.785000</ele>
        <time>2009-01-05T13:13:00Z</time>
      </trkpt>
      <trkpt lat="27.76408200" lon="-15.5765270">
        <ele>68.633000</ele>
        <time>2009-01-05T13:13:01Z</time>
      </trkpt>
      <trkpt lat="27.76411200" lon="-15.5764330">
        <ele>68.510000</ele>
        <time>2009-01-05T13:13:02Z</time>
      </trkpt>
      <trkpt lat="27.76414200" lon="-15.5763370">
        <ele>67.983000</ele>
        <time>2009-01-05T13:13:03Z</time>
      </trkpt>
      <trkpt lat="27.76417200" lon="-15.5762400">
        <ele>67.556000</ele>
        <time>2009-01-05T13:13:04Z</time>
      </trkpt>
      <trkpt lat="27.76420200" lon="-15.5761410">
        <ele>67.824000</ele>
        <time>2009-01-05T13:13:05Z</time>
      </trkpt>
      <trkpt lat="27.76423300" lon="-15.5760430">
        <ele>68.243000</ele>
        <time>2009-01-05T13:13:06Z</time>
      </trkpt>
      <trkpt lat="27.76426400" lon="-15.5759440">
        <ele>67.906000</ele>
        <time>2009-01-05T13:13:07Z</time>
      </trkpt>
      <trkpt lat="27.76429500" lon="-15.5758450">
        <ele>67.955000</ele>
        <time>2009-01-05T13:13:08Z</time>
      </trkpt>
      <trkpt lat="27.76432600" lon="-15.5757470">
        <ele>67.905000</ele>
        <time>2009-01-05T13:13:09Z</time>
      </trkpt>
      <trkpt lat="27.76435700" lon="-15.5756480">
        <ele>68.213000</ele>
        <time>2009-01-05T13:13:10Z</time>
      </trkpt>
      <trkpt lat="27.76438700" lon="-15.5755490">
        <ele>67.709000</ele>
        <time>2009-01-05T13:13:11Z</time>
      </trkpt>
      <trkpt lat="27.76441600" lon="-15.5754510">
        <ele>67.662000</ele>
        <time>2009-01-05T13:13:12Z</time>
      </trkpt>
      <trkpt lat="27.76444600" lon="-15.5753520">
        <ele>67.380000</ele>
        <time>2009-01-05T13:13:13Z</time>
      </trkpt>
      <trkpt lat="27.76447600" lon="-15.5752520">
        <ele>67.262000</ele>
        <time>2009-01-05T13:13:14Z</time>
      </trkpt>
      <trkpt lat="27.76450600" lon="-15.5751530">
        <ele>67.684000</ele>
        <time>2009-01-05T13:13:15Z</time>
      </trkpt>
      <trkpt lat="27.76453700" lon="-15.5750540">
        <ele>67.270000</ele>
        <time>2009-01-05T13:13:16Z</time>
      </trkpt>
      <trkpt lat="27.76456600" lon="-15.5749540">
        <ele>67.807000</ele>
        <time>2009-01-05T13:13:17Z</time>
      </trkpt>
      <trkpt lat="27.76459300" lon="-15.5748550">
        <ele>67.089000</ele>
        <time>2009-01-05T13:13:18Z</time>
      </trkpt>
      <trkpt lat="27.76462000" lon="-15.5747540">
        <ele>67.399000</ele>
        <time>2009-01-05T13:13:19Z</time>
      </trkpt>
      <trkpt lat="27.76464500" lon="-15.5746530">
        <ele>67.144000</ele>
        <time>2009-01-05T13:13:20Z</time>
      </trkpt>
      <trkpt lat="27.76466900" lon="-15.5745500">
        <ele>66.815000</ele>
        <time>2009-01-05T13:13:21Z</time>
      </trkpt>
      <trkpt lat="27.76469100" lon="-15.5744460">
        <ele>66.676000</ele>
        <time>2009-01-05T13:13:22Z</time>
      </trkpt>
      <trkpt lat="27.76470900" lon="-15.5743400">
        <ele>67.052000</ele>
        <time>2009-01-05T13:13:23Z</time>
      </trkpt>
      <trkpt lat="27.76472400" lon="-15.5742340">
        <ele>66.940000</ele>
        <time>2009-01-05T13:13:24Z</time>
      </trkpt>
      <trkpt lat="27.76473600" lon="-15.5741280">
        <ele>66.959000</ele>
        <time>2009-01-05T13:13:25Z</time>
      </trkpt>
      <trkpt lat="27.76474400" lon="-15.5740210">
        <ele>66.429000</ele>
        <time>2009-01-05T13:13:26Z</time>
      </trkpt>
      <trkpt lat="27.76474700" lon="-15.5739140">
        <ele>66.585000</ele>
        <time>2009-01-05T13:13:27Z</time>
      </trkpt>
      <trkpt lat="27.76474700" lon="-15.5738060">
        <ele>66.726000</ele>
        <time>2009-01-05T13:13:28Z</time>
      </trkpt>
      <trkpt lat="27.76474600" lon="-15.5736980">
        <ele>66.740000</ele>
        <time>2009-01-05T13:13:29Z</time>
      </trkpt>
      <trkpt lat="27.76474400" lon="-15.5735900">
        <ele>65.919000</ele>
        <time>2009-01-05T13:13:30Z</time>
      </trkpt>
      <trkpt lat="27.76474100" lon="-15.5734810">
        <ele>65.288000</ele>
        <time>2009-01-05T13:13:31Z</time>
      </trkpt>
      <trkpt lat="27.76473800" lon="-15.5733720">
        <ele>65.164000</ele>
        <time>2009-01-05T13:13:32Z</time>
      </trkpt>
      <trkpt lat="27.76473600" lon="-15.5732610">
        <ele>64.838000</ele>
        <time>2009-01-05T13:13:33Z</time>
      </trkpt>
      <trkpt lat="27.76473400" lon="-15.5731510">
        <ele>64.646000</ele>
        <time>2009-01-05T13:13:34Z</time>
      </trkpt>
      <trkpt lat="27.76473100" lon="-15.5730400">
        <ele>64.335000</ele>
        <time>2009-01-05T13:13:35Z</time>
      </trkpt>
      <trkpt lat="27.76472900" lon="-15.5729280">
        <ele>64.312000</ele>
        <time>2009-01-05T13:13:36Z</time>
      </trkpt>
      <trkpt lat="27.76472600" lon="-15.5728160">
        <ele>63.858000</ele>
        <time>2009-01-05T13:13:37Z</time>
      </trkpt>
      <trkpt lat="27.76472700" lon="-15.5727070">
        <ele>63.740000</ele>
        <time>2009-01-05T13:13:38Z</time>
      </trkpt>
      <trkpt lat="27.76472700" lon="-15.5725970">
        <ele>63.490000</ele>
        <time>2009-01-05T13:13:39Z</time>
      </trkpt>
      <trkpt lat="27.76472400" lon="-15.5724830">
        <ele>63.451000</ele>
        <time>2009-01-05T13:13:40Z</time>
      </trkpt>
      <trkpt lat="27.76472100" lon="-15.5723680">
        <ele>62.919000</ele>
        <time>2009-01-05T13:13:41Z</time>
      </trkpt>
      <trkpt lat="27.76471800" lon="-15.5722520">
        <ele>62.811000</ele>
        <time>2009-01-05T13:13:42Z</time>
      </trkpt>
      <trkpt lat="27.76471400" lon="-15.5721350">
        <ele>63.018000</ele>
        <time>2009-01-05T13:13:43Z</time>
      </trkpt>
      <trkpt lat="27.76471000" lon="-15.5720180">
        <ele>62.966000</ele>
        <time>2009-01-05T13:13:44Z</time>
      </trkpt>
      <trkpt lat="27.76470600" lon="-15.5719010">
        <ele>62.639000</ele>
        <time>2009-01-05T13:13:45Z</time>
      </trkpt>
      <trkpt lat="27.76470200" lon="-15.5717840">
        <ele>62.375000</ele>
        <time>2009-01-05T13:13:46Z</time>
      </trkpt>
      <trkpt lat="27.76469700" lon="-15.5716650">
        <ele>62.122000</ele>
        <time>2009-01-05T13:13:47Z</time>
      </trkpt>
      <trkpt lat="27.76469200" lon="-15.5715480">
        <ele>61.948000</ele>
        <time>2009-01-05T13:13:48Z</time>
      </trkpt>
      <trkpt lat="27.76468900" lon="-15.5714320">
        <ele>61.336000</ele>
        <time>2009-01-05T13:13:49Z</time>
      </trkpt>
      <trkpt lat="27.76468600" lon="-15.5713170">
        <ele>61.793000</ele>
        <time>2009-01-05T13:13:50Z</time>
      </trkpt>
      <trkpt lat="27.76468300" lon="-15.5712000">
        <ele>61.670000</ele>
        <time>2009-01-05T13:13:51Z</time>
      </trkpt>
      <trkpt lat="27.76468000" lon="-15.5710850">
        <ele>61.200000</ele>
        <time>2009-01-05T13:13:52Z</time>
      </trkpt>
      <trkpt lat="27.76467700" lon="-15.5709710">
        <ele>60.852000</ele>
        <time>2009-01-05T13:13:53Z</time>
      </trkpt>
      <trkpt lat="27.76467300" lon="-15.5708580">
        <ele>59.910000</ele>
        <time>2009-01-05T13:13:54Z</time>
      </trkpt>
      <trkpt lat="27.76466900" lon="-15.5707430">
        <ele>60.040000</ele>
        <time>2009-01-05T13:13:55Z</time>
      </trkpt>
      <trkpt lat="27.76466500" lon="-15.5706300">
        <ele>59.749000</ele>
        <time>2009-01-05T13:13:56Z</time>
      </trkpt>
      <trkpt lat="27.76466100" lon="-15.5705160">
        <ele>59.206000</ele>
        <time>2009-01-05T13:13:57Z</time>
      </trkpt>
      <trkpt lat="27.76465900" lon="-15.5704020">
        <ele>59.339000</ele>
        <time>2009-01-05T13:13:58Z</time>
      </trkpt>
      <trkpt lat="27.76465600" lon="-15.5702880">
        <ele>59.100000</ele>
        <time>2009-01-05T13:13:59Z</time>
      </trkpt>
      <trkpt lat="27.76465300" lon="-15.5701730">
        <ele>59.463000</ele>
        <time>2009-01-05T13:14:00Z</time>
      </trkpt>
      <trkpt lat="27.76463100" lon="-15.5694830">
        <ele>58.356000</ele>
        <time>2009-01-05T13:14:06Z</time>
      </trkpt>
      <trkpt lat="27.76462800" lon="-15.5693680">
        <ele>57.706000</ele>
        <time>2009-01-05T13:14:07Z</time>
      </trkpt>
      <trkpt lat="27.76462500" lon="-15.5692520">
        <ele>57.706000</ele>
        <time>2009-01-05T13:14:08Z</time>
      </trkpt>
      <trkpt lat="27.76462100" lon="-15.5691350">
        <ele>57.244000</ele>
        <time>2009-01-05T13:14:09Z</time>
      </trkpt>
      <trkpt lat="27.76461800" lon="-15.5690170">
        <ele>56.946000</ele>
        <time>2009-01-05T13:14:10Z</time>
      </trkpt>
      <trkpt lat="27.76461400" lon="-15.5688980">
        <ele>56.887000</ele>
        <time>2009-01-05T13:14:11Z</time>
      </trkpt>
      <trkpt lat="27.76461000" lon="-15.5687790">
        <ele>56.700000</ele>
        <time>2009-01-05T13:14:12Z</time>
      </trkpt>
      <trkpt lat="27.76460600" lon="-15.5686600">
        <ele>56.395000</ele>
        <time>2009-01-05T13:14:13Z</time>
      </trkpt>
      <trkpt lat="27.76460200" lon="-15.5685420">
        <ele>57.096000</ele>
        <time>2009-01-05T13:14:14Z</time>
      </trkpt>
      <trkpt lat="27.76459900" lon="-15.5684250">
        <ele>56.574000</ele>
        <time>2009-01-05T13:14:15Z</time>
      </trkpt>
      <trkpt lat="27.76459600" lon="-15.5683070">
        <ele>56.636000</ele>
        <time>2009-01-05T13:14:16Z</time>
      </trkpt>
      <trkpt lat="27.76459300" lon="-15.5681890">
        <ele>55.746000</ele>
        <time>2009-01-05T13:14:17Z</time>
      </trkpt>
      <trkpt lat="27.76459000" lon="-15.5680700">
        <ele>55.380000</ele>
        <time>2009-01-05T13:14:18Z</time>
      </trkpt>
      <trkpt lat="27.76458600" lon="-15.5679490">
        <ele>55.545000</ele>
        <time>2009-01-05T13:14:19Z</time>
      </trkpt>
      <trkpt lat="27.76458400" lon="-15.5678270">
        <ele>55.351000</ele>
        <time>2009-01-05T13:14:20Z</time>
      </trkpt>
      <trkpt lat="27.76458000" lon="-15.5677060">
        <ele>55.212000</ele>
        <time>2009-01-05T13:14:21Z</time>
      </trkpt>
      <trkpt lat="27.76457600" lon="-15.5675840">
        <ele>55.514000</ele>
        <time>2009-01-05T13:14:22Z</time>
      </trkpt>
      <trkpt lat="27.76457300" lon="-15.5674640">
        <ele>55.400000</ele>
        <time>2009-01-05T13:14:23Z</time>
      </trkpt>
      <trkpt lat="27.76457000" lon="-15.5673460">
        <ele>55.229000</ele>
        <time>2009-01-05T13:14:24Z</time>
      </trkpt>
      <trkpt lat="27.76456600" lon="-15.5672290">
        <ele>54.000000</ele>
        <time>2009-01-05T13:14:25Z</time>
      </trkpt>
      <trkpt lat="27.76456300" lon="-15.5671110">
        <ele>53.322000</ele>
        <time>2009-01-05T13:14:26Z</time>
      </trkpt>
      <trkpt lat="27.76456000" lon="-15.5669930">
        <ele>53.139000</ele>
        <time>2009-01-05T13:14:27Z</time>
      </trkpt>
      <trkpt lat="27.76455700" lon="-15.5668730">
        <ele>52.775000</ele>
        <time>2009-01-05T13:14:28Z</time>
      </trkpt>
      <trkpt lat="27.76455300" lon="-15.5667530">
        <ele>52.632000</ele>
        <time>2009-01-05T13:14:29Z</time>
      </trkpt>
      <trkpt lat="27.76454900" lon="-15.5666330">
        <ele>52.994000</ele>
        <time>2009-01-05T13:14:30Z</time>
      </trkpt>
      <trkpt lat="27.76454500" lon="-15.5665120">
        <ele>53.024000</ele>
        <time>2009-01-05T13:14:31Z</time>
      </trkpt>
      <trkpt lat="27.76454200" lon="-15.5663910">
        <ele>52.775000</ele>
        <time>2009-01-05T13:14:32Z</time>
      </trkpt>
      <trkpt lat="27.76454000" lon="-15.5662710">
        <ele>52.405000</ele>
        <time>2009-01-05T13:14:33Z</time>
      </trkpt>
      <trkpt lat="27.76453800" lon="-15.5661510">
        <ele>52.260000</ele>
        <time>2009-01-05T13:14:34Z</time>
      </trkpt>
      <trkpt lat="27.76453500" lon="-15.5660310">
        <ele>52.112000</ele>
        <time>2009-01-05T13:14:35Z</time>
      </trkpt>
      <trkpt lat="27.76453200" lon="-15.5659110">
        <ele>52.704000</ele>
        <time>2009-01-05T13:14:36Z</time>
      </trkpt>
      <trkpt lat="27.76452700" lon="-15.5657900">
        <ele>51.932000</ele>
        <time>2009-01-05T13:14:37Z</time>
      </trkpt>
      <trkpt lat="27.76452400" lon="-15.5656700">
        <ele>51.077000</ele>
        <time>2009-01-05T13:14:38Z</time>
      </trkpt>
      <trkpt lat="27.76452000" lon="-15.5655500">
        <ele>50.567000</ele>
        <time>2009-01-05T13:14:39Z</time>
      </trkpt>
      <trkpt lat="27.76451500" lon="-15.5654300">
        <ele>50.173000</ele>
        <time>2009-01-05T13:14:40Z</time>
      </trkpt>
      <trkpt lat="27.76451100" lon="-15.5653100">
        <ele>49.787000</ele>
        <time>2009-01-05T13:14:41Z</time>
      </trkpt>
      <trkpt lat="27.76450700" lon="-15.5651880">
        <ele>49.610000</ele>
        <time>2009-01-05T13:14:42Z</time>
      </trkpt>
      <trkpt lat="27.76450400" lon="-15.5650670">
        <ele>48.973000</ele>
        <time>2009-01-05T13:14:43Z</time>
      </trkpt>
      <trkpt lat="27.76450100" lon="-15.5649450">
        <ele>48.775000</ele>
        <time>2009-01-05T13:14:44Z</time>
      </trkpt>
      <trkpt lat="27.76449800" lon="-15.5648220">
        <ele>48.432000</ele>
        <time>2009-01-05T13:14:45Z</time>
      </trkpt>
      <trkpt lat="27.76449400" lon="-15.5647010">
        <ele>49.568000</ele>
        <time>2009-01-05T13:14:46Z</time>
      </trkpt>
      <trkpt lat="27.76448900" lon="-15.5645810">
        <ele>48.810000</ele>
        <time>2009-01-05T13:14:47Z</time>
      </trkpt>
      <trkpt lat="27.76448500" lon="-15.5644610">
        <ele>48.326000</ele>
        <time>2009-01-05T13:14:48Z</time>
      </trkpt>
      <trkpt lat="27.76448200" lon="-15.5643430">
        <ele>47.779000</ele>
        <time>2009-01-05T13:14:49Z</time>
      </trkpt>
      <trkpt lat="27.76448200" lon="-15.5642250">
        <ele>47.348000</ele>
        <time>2009-01-05T13:14:50Z</time>
      </trkpt>
      <trkpt lat="27.76448600" lon="-15.5641070">
        <ele>47.045000</ele>
        <time>2009-01-05T13:14:51Z</time>
      </trkpt>
      <trkpt lat="27.76449500" lon="-15.5639900">
        <ele>46.651000</ele>
        <time>2009-01-05T13:14:52Z</time>
      </trkpt>
      <trkpt lat="27.76450700" lon="-15.5638740">
        <ele>47.165000</ele>
        <time>2009-01-05T13:14:53Z</time>
      </trkpt>
      <trkpt lat="27.76452300" lon="-15.5637590">
        <ele>46.880000</ele>
        <time>2009-01-05T13:14:54Z</time>
      </trkpt>
      <trkpt lat="27.76454300" lon="-15.5636440">
        <ele>46.135000</ele>
        <time>2009-01-05T13:14:55Z</time>
      </trkpt>
      <trkpt lat="27.76456600" lon="-15.5635310">
        <ele>46.315000</ele>
        <time>2009-01-05T13:14:56Z</time>
      </trkpt>
      <trkpt lat="27.76459300" lon="-15.5634180">
        <ele>45.777000</ele>
        <time>2009-01-05T13:14:57Z</time>
      </trkpt>
      <trkpt lat="27.76462400" lon="-15.5633060">
        <ele>45.606000</ele>
        <time>2009-01-05T13:14:58Z</time>
      </trkpt>
      <trkpt lat="27.76465900" lon="-15.5631940">
        <ele>44.891000</ele>
        <time>2009-01-05T13:14:59Z</time>
      </trkpt>
      <trkpt lat="27.76469700" lon="-15.5630830">
        <ele>44.374000</ele>
        <time>2009-01-05T13:15:00Z</time>
      </trkpt>
      <trkpt lat="27.76473700" lon="-15.5629710">
        <ele>44.346000</ele>
        <time>2009-01-05T13:15:01Z</time>
      </trkpt>
      <trkpt lat="27.76477800" lon="-15.5628580">
        <ele>44.757000</ele>
        <time>2009-01-05T13:15:02Z</time>
      </trkpt>
      <trkpt lat="27.76481900" lon="-15.5627450">
        <ele>44.080000</ele>
        <time>2009-01-05T13:15:03Z</time>
      </trkpt>
      <trkpt lat="27.76485900" lon="-15.5626310">
        <ele>43.571000</ele>
        <time>2009-01-05T13:15:04Z</time>
      </trkpt>
      <trkpt lat="27.76490100" lon="-15.5625160">
        <ele>43.599000</ele>
        <time>2009-01-05T13:15:05Z</time>
      </trkpt>
      <trkpt lat="27.76494300" lon="-15.5623990">
        <ele>43.181000</ele>
        <time>2009-01-05T13:15:06Z</time>
      </trkpt>
      <trkpt lat="27.76498600" lon="-15.5622810">
        <ele>43.106000</ele>
        <time>2009-01-05T13:15:07Z</time>
      </trkpt>
      <trkpt lat="27.76503000" lon="-15.5621590">
        <ele>42.215000</ele>
        <time>2009-01-05T13:15:08Z</time>
      </trkpt>
      <trkpt lat="27.76507400" lon="-15.5620350">
        <ele>41.711000</ele>
        <time>2009-01-05T13:15:09Z</time>
      </trkpt>
      <trkpt lat="27.76511900" lon="-15.5619080">
        <ele>40.912000</ele>
        <time>2009-01-05T13:15:10Z</time>
      </trkpt>
      <trkpt lat="27.76516500" lon="-15.5617780">
        <ele>41.141000</ele>
        <time>2009-01-05T13:15:11Z</time>
      </trkpt>
      <trkpt lat="27.76521100" lon="-15.5616470">
        <ele>40.265000</ele>
        <time>2009-01-05T13:15:12Z</time>
      </trkpt>
      <trkpt lat="27.76526000" lon="-15.5615150">
        <ele>39.527000</ele>
        <time>2009-01-05T13:15:13Z</time>
      </trkpt>
      <trkpt lat="27.76530900" lon="-15.5613820">
        <ele>39.660000</ele>
        <time>2009-01-05T13:15:14Z</time>
      </trkpt>
      <trkpt lat="27.76535900" lon="-15.5612470">
        <ele>38.148000</ele>
        <time>2009-01-05T13:15:15Z</time>
      </trkpt>
      <trkpt lat="27.76540800" lon="-15.5611100">
        <ele>37.829000</ele>
        <time>2009-01-05T13:15:16Z</time>
      </trkpt>
      <trkpt lat="27.76545600" lon="-15.5609720">
        <ele>37.007000</ele>
        <time>2009-01-05T13:15:17Z</time>
      </trkpt>
      <trkpt lat="27.76550500" lon="-15.5608320">
        <ele>36.213000</ele>
        <time>2009-01-05T13:15:18Z</time>
      </trkpt>
      <trkpt lat="27.76555400" lon="-15.5606890">
        <ele>35.779000</ele>
        <time>2009-01-05T13:15:19Z</time>
      </trkpt>
      <trkpt lat="27.76559900" lon="-15.5605450">
        <ele>35.281000</ele>
        <time>2009-01-05T13:15:20Z</time>
      </trkpt>
      <trkpt lat="27.76563800" lon="-15.5603960">
        <ele>35.040000</ele>
        <time>2009-01-05T13:15:21Z</time>
      </trkpt>
      <trkpt lat="27.76567100" lon="-15.5602450">
        <ele>34.933000</ele>
        <time>2009-01-05T13:15:22Z</time>
      </trkpt>
      <trkpt lat="27.76569600" lon="-15.5600920">
        <ele>34.195000</ele>
        <time>2009-01-05T13:15:23Z</time>
      </trkpt>
      <trkpt lat="27.76571200" lon="-15.5599360">
        <ele>33.107000</ele>
        <time>2009-01-05T13:15:24Z</time>
      </trkpt>
      <trkpt lat="27.76571900" lon="-15.5597780">
        <ele>32.236000</ele>
        <time>2009-01-05T13:15:25Z</time>
      </trkpt>
      <trkpt lat="27.76571800" lon="-15.5596180">
        <ele>32.570000</ele>
        <time>2009-01-05T13:15:26Z</time>
      </trkpt>
      <trkpt lat="27.76570800" lon="-15.5594590">
        <ele>31.576000</ele>
        <time>2009-01-05T13:15:27Z</time>
      </trkpt>
      <trkpt lat="27.76569200" lon="-15.5593000">
        <ele>31.487000</ele>
        <time>2009-01-05T13:15:28Z</time>
      </trkpt>
      <trkpt lat="27.76567200" lon="-15.5591420">
        <ele>30.420000</ele>
        <time>2009-01-05T13:15:29Z</time>
      </trkpt>
      <trkpt lat="27.76564700" lon="-15.5589860">
        <ele>29.589000</ele>
        <time>2009-01-05T13:15:30Z</time>
      </trkpt>
      <trkpt lat="27.76562000" lon="-15.5588290">
        <ele>28.612000</ele>
        <time>2009-01-05T13:15:31Z</time>
      </trkpt>
      <trkpt lat="27.76559400" lon="-15.5586730">
        <ele>28.674000</ele>
        <time>2009-01-05T13:15:32Z</time>
      </trkpt>
      <trkpt lat="27.76556700" lon="-15.5585180">
        <ele>27.557000</ele>
        <time>2009-01-05T13:15:33Z</time>
      </trkpt>
      <trkpt lat="27.76554000" lon="-15.5583640">
        <ele>26.800000</ele>
        <time>2009-01-05T13:15:34Z</time>
      </trkpt>
      <trkpt lat="27.76551200" lon="-15.5582090">
        <ele>27.166000</ele>
        <time>2009-01-05T13:15:35Z</time>
      </trkpt>
      <trkpt lat="27.76548500" lon="-15.5580550">
        <ele>25.322000</ele>
        <time>2009-01-05T13:15:36Z</time>
      </trkpt>
      <trkpt lat="27.76545900" lon="-15.5579010">
        <ele>24.644000</ele>
        <time>2009-01-05T13:15:37Z</time>
      </trkpt>
      <trkpt lat="27.76543800" lon="-15.5577450">
        <ele>24.096000</ele>
        <time>2009-01-05T13:15:38Z</time>
      </trkpt>
      <trkpt lat="27.76542200" lon="-15.5575880">
        <ele>23.441000</ele>
        <time>2009-01-05T13:15:39Z</time>
      </trkpt>
      <trkpt lat="27.76541400" lon="-15.5574310">
        <ele>22.940000</ele>
        <time>2009-01-05T13:15:40Z</time>
      </trkpt>
      <trkpt lat="27.76541100" lon="-15.5572760">
        <ele>22.730000</ele>
        <time>2009-01-05T13:15:41Z</time>
      </trkpt>
      <trkpt lat="27.76541800" lon="-15.5571240">
        <ele>22.919000</ele>
        <time>2009-01-05T13:15:42Z</time>
      </trkpt>
      <trkpt lat="27.76543300" lon="-15.5569750">
        <ele>23.037000</ele>
        <time>2009-01-05T13:15:43Z</time>
      </trkpt>
      <trkpt lat="27.76545400" lon="-15.5568300">
        <ele>22.705000</ele>
        <time>2009-01-05T13:15:44Z</time>
      </trkpt>
      <trkpt lat="27.76547800" lon="-15.5566900">
        <ele>22.643000</ele>
        <time>2009-01-05T13:15:45Z</time>
      </trkpt>
      <trkpt lat="27.76550200" lon="-15.5565530">
        <ele>22.440000</ele>
        <time>2009-01-05T13:15:46Z</time>
      </trkpt>
      <trkpt lat="27.76552700" lon="-15.5564170">
        <ele>23.116000</ele>
        <time>2009-01-05T13:15:47Z</time>
      </trkpt>
      <trkpt lat="27.76555300" lon="-15.5562860">
        <ele>22.827000</ele>
        <time>2009-01-05T13:15:48Z</time>
      </trkpt>
      <trkpt lat="27.76557900" lon="-15.5561580">
        <ele>22.688000</ele>
        <time>2009-01-05T13:15:49Z</time>
      </trkpt>
      <trkpt lat="27.76560600" lon="-15.5560330">
        <ele>22.198000</ele>
        <time>2009-01-05T13:15:50Z</time>
      </trkpt>
      <trkpt lat="27.76563400" lon="-15.5559120">
        <ele>22.019000</ele>
        <time>2009-01-05T13:15:51Z</time>
      </trkpt>
      <trkpt lat="27.76566400" lon="-15.5557950">
        <ele>22.547000</ele>
        <time>2009-01-05T13:15:52Z</time>
      </trkpt>
      <trkpt lat="27.76570000" lon="-15.5556820">
        <ele>22.657000</ele>
        <time>2009-01-05T13:15:53Z</time>
      </trkpt>
      <trkpt lat="27.76573900" lon="-15.5555730">
        <ele>22.028000</ele>
        <time>2009-01-05T13:15:54Z</time>
      </trkpt>
      <trkpt lat="27.76578000" lon="-15.5554650">
        <ele>22.230000</ele>
        <time>2009-01-05T13:15:55Z</time>
      </trkpt>
      <trkpt lat="27.76582400" lon="-15.5553600">
        <ele>22.166000</ele>
        <time>2009-01-05T13:15:56Z</time>
      </trkpt>
      <trkpt lat="27.76587200" lon="-15.5552580">
        <ele>21.904000</ele>
        <time>2009-01-05T13:15:57Z</time>
      </trkpt>
      <trkpt lat="27.76592200" lon="-15.5551580">
        <ele>21.855000</ele>
        <time>2009-01-05T13:15:58Z</time>
      </trkpt>
      <trkpt lat="27.76597400" lon="-15.5550580">
        <ele>21.759000</ele>
        <time>2009-01-05T13:15:59Z</time>
      </trkpt>
      <trkpt lat="27.76602600" lon="-15.5549600">
        <ele>21.742000</ele>
        <time>2009-01-05T13:16:00Z</time>
      </trkpt>
      <trkpt lat="27.76607900" lon="-15.5548620">
        <ele>21.633000</ele>
        <time>2009-01-05T13:16:01Z</time>
      </trkpt>
      <trkpt lat="27.76613100" lon="-15.5547660">
        <ele>21.946000</ele>
        <time>2009-01-05T13:16:02Z</time>
      </trkpt>
      <trkpt lat="27.76618200" lon="-15.5546700">
        <ele>21.451000</ele>
        <time>2009-01-05T13:16:03Z</time>
      </trkpt>
      <trkpt lat="27.76623400" lon="-15.5545760">
        <ele>21.196000</ele>
        <time>2009-01-05T13:16:04Z</time>
      </trkpt>
      <trkpt lat="27.76628600" lon="-15.5544830">
        <ele>20.951000</ele>
        <time>2009-01-05T13:16:05Z</time>
      </trkpt>
      <trkpt lat="27.76633800" lon="-15.5543900">
        <ele>20.847000</ele>
        <time>2009-01-05T13:16:06Z</time>
      </trkpt>
      <trkpt lat="27.76638900" lon="-15.5542970">
        <ele>21.039000</ele>
        <time>2009-01-05T13:16:07Z</time>
      </trkpt>
      <trkpt lat="27.76644000" lon="-15.5542050">
        <ele>21.347000</ele>
        <time>2009-01-05T13:16:08Z</time>
      </trkpt>
      <trkpt lat="27.76648900" lon="-15.5541130">
        <ele>21.552000</ele>
        <time>2009-01-05T13:16:09Z</time>
      </trkpt>
      <trkpt lat="27.76653800" lon="-15.5540230">
        <ele>21.788000</ele>
        <time>2009-01-05T13:16:10Z</time>
      </trkpt>
      <trkpt lat="27.76658600" lon="-15.5539330">
        <ele>21.663000</ele>
        <time>2009-01-05T13:16:11Z</time>
      </trkpt>
      <trkpt lat="27.76663300" lon="-15.5538450">
        <ele>21.162000</ele>
        <time>2009-01-05T13:16:12Z</time>
      </trkpt>
      <trkpt lat="27.76668000" lon="-15.5537570">
        <ele>21.147000</ele>
        <time>2009-01-05T13:16:13Z</time>
      </trkpt>
      <trkpt lat="27.76672700" lon="-15.5536710">
        <ele>20.979000</ele>
        <time>2009-01-05T13:16:14Z</time>
      </trkpt>
      <trkpt lat="27.76677400" lon="-15.5535850">
        <ele>21.332000</ele>
        <time>2009-01-05T13:16:15Z</time>
      </trkpt>
      <trkpt lat="27.76682000" lon="-15.5535000">
        <ele>20.877000</ele>
        <time>2009-01-05T13:16:16Z</time>
      </trkpt>
      <trkpt lat="27.76686700" lon="-15.5534150">
        <ele>21.317000</ele>
        <time>2009-01-05T13:16:17Z</time>
      </trkpt>
      <trkpt lat="27.76691300" lon="-15.5533310">
        <ele>21.282000</ele>
        <time>2009-01-05T13:16:18Z</time>
      </trkpt>
      <trkpt lat="27.76695800" lon="-15.5532460">
        <ele>21.133000</ele>
        <time>2009-01-05T13:16:19Z</time>
      </trkpt>
      <trkpt lat="27.76700300" lon="-15.5531600">
        <ele>20.627000</ele>
        <time>2009-01-05T13:16:20Z</time>
      </trkpt>
      <trkpt lat="27.76704900" lon="-15.5530730">
        <ele>20.991000</ele>
        <time>2009-01-05T13:16:21Z</time>
      </trkpt>
      <trkpt lat="27.76709500" lon="-15.5529870">
        <ele>20.414000</ele>
        <time>2009-01-05T13:16:22Z</time>
      </trkpt>
      <trkpt lat="27.76714000" lon="-15.5529010">
        <ele>22.665000</ele>
        <time>2009-01-05T13:16:23Z</time>
      </trkpt>
      <trkpt lat="27.76718600" lon="-15.5528170">
        <ele>21.951000</ele>
        <time>2009-01-05T13:16:24Z</time>
      </trkpt>
      <trkpt lat="27.76723100" lon="-15.5527340">
        <ele>21.495000</ele>
        <time>2009-01-05T13:16:25Z</time>
      </trkpt>
      <trkpt lat="27.76727600" lon="-15.5526520">
        <ele>21.592000</ele>
        <time>2009-01-05T13:16:26Z</time>
      </trkpt>
      <trkpt lat="27.76732100" lon="-15.5525710">
        <ele>21.797000</ele>
        <time>2009-01-05T13:16:27Z</time>
      </trkpt>
      <trkpt lat="27.76736500" lon="-15.5524900">
        <ele>21.868000</ele>
        <time>2009-01-05T13:16:28Z</time>
      </trkpt>
      <trkpt lat="27.76740900" lon="-15.5524110">
        <ele>22.187000</ele>
        <time>2009-01-05T13:16:29Z</time>
      </trkpt>
      <trkpt lat="27.76745100" lon="-15.5523320">
        <ele>22.580000</ele>
        <time>2009-01-05T13:16:30Z</time>
      </trkpt>
      <trkpt lat="27.76749200" lon="-15.5522550">
        <ele>23.131000</ele>
        <time>2009-01-05T13:16:31Z</time>
      </trkpt>
      <trkpt lat="27.76753400" lon="-15.5521790">
        <ele>23.733000</ele>
        <time>2009-01-05T13:16:32Z</time>
      </trkpt>
      <trkpt lat="27.76757500" lon="-15.5521040">
        <ele>23.505000</ele>
        <time>2009-01-05T13:16:33Z</time>
      </trkpt>
      <trkpt lat="27.76761600" lon="-15.5520310">
        <ele>23.703000</ele>
        <time>2009-01-05T13:16:34Z</time>
      </trkpt>
      <trkpt lat="27.76765500" lon="-15.5519570">
        <ele>23.950000</ele>
        <time>2009-01-05T13:16:35Z</time>
      </trkpt>
      <trkpt lat="27.76769500" lon="-15.5518850">
        <ele>24.245000</ele>
        <time>2009-01-05T13:16:36Z</time>
      </trkpt>
      <trkpt lat="27.76773400" lon="-15.5518130">
        <ele>24.620000</ele>
        <time>2009-01-05T13:16:37Z</time>
      </trkpt>
      <trkpt lat="27.76777400" lon="-15.5517420">
        <ele>24.788000</ele>
        <time>2009-01-05T13:16:38Z</time>
      </trkpt>
      <trkpt lat="27.76781300" lon="-15.5516710">
        <ele>25.178000</ele>
        <time>2009-01-05T13:16:39Z</time>
      </trkpt>
      <trkpt lat="27.76785100" lon="-15.5516020">
        <ele>25.385000</ele>
        <time>2009-01-05T13:16:40Z</time>
      </trkpt>
      <trkpt lat="27.76788900" lon="-15.5515320">
        <ele>25.765000</ele>
        <time>2009-01-05T13:16:41Z</time>
      </trkpt>
      <trkpt lat="27.76792700" lon="-15.5514620">
        <ele>26.025000</ele>
        <time>2009-01-05T13:16:42Z</time>
      </trkpt>
      <trkpt lat="27.76796500" lon="-15.5513930">
        <ele>26.317000</ele>
        <time>2009-01-05T13:16:43Z</time>
      </trkpt>
      <trkpt lat="27.76800200" lon="-15.5513240">
        <ele>26.345000</ele>
        <time>2009-01-05T13:16:44Z</time>
      </trkpt>
      <trkpt lat="27.76803900" lon="-15.5512570">
        <ele>26.766000</ele>
        <time>2009-01-05T13:16:45Z</time>
      </trkpt>
      <trkpt lat="27.76807500" lon="-15.5511910">
        <ele>27.233000</ele>
        <time>2009-01-05T13:16:46Z</time>
      </trkpt>
      <trkpt lat="27.76811000" lon="-15.5511270">
        <ele>27.073000</ele>
        <time>2009-01-05T13:16:47Z</time>
      </trkpt>
      <trkpt lat="27.76814400" lon="-15.5510650">
        <ele>28.117000</ele>
        <time>2009-01-05T13:16:48Z</time>
      </trkpt>
      <trkpt lat="27.76817700" lon="-15.5510040">
        <ele>27.884000</ele>
        <time>2009-01-05T13:16:49Z</time>
      </trkpt>
      <trkpt lat="27.76821000" lon="-15.5509440">
        <ele>27.863000</ele>
        <time>2009-01-05T13:16:50Z</time>
      </trkpt>
      <trkpt lat="27.76824300" lon="-15.5508860">
        <ele>28.496000</ele>
        <time>2009-01-05T13:16:51Z</time>
      </trkpt>
      <trkpt lat="27.76827400" lon="-15.5508280">
        <ele>28.209000</ele>
        <time>2009-01-05T13:16:52Z</time>
      </trkpt>
      <trkpt lat="27.76830400" lon="-15.5507710">
        <ele>28.757000</ele>
        <time>2009-01-05T13:16:53Z</time>
      </trkpt>
      <trkpt lat="27.76833400" lon="-15.5507140">
        <ele>29.077000</ele>
        <time>2009-01-05T13:16:54Z</time>
      </trkpt>
      <trkpt lat="27.76836400" lon="-15.5506590">
        <ele>29.236000</ele>
        <time>2009-01-05T13:16:55Z</time>
      </trkpt>
      <trkpt lat="27.76839400" lon="-15.5506030">
        <ele>29.559000</ele>
        <time>2009-01-05T13:16:56Z</time>
      </trkpt>
      <trkpt lat="27.76842400" lon="-15.5505490">
        <ele>29.996000</ele>
        <time>2009-01-05T13:16:57Z</time>
      </trkpt>
      <trkpt lat="27.76845400" lon="-15.5504960">
        <ele>30.226000</ele>
        <time>2009-01-05T13:16:58Z</time>
      </trkpt>
      <trkpt lat="27.76848300" lon="-15.5504430">
        <ele>30.557000</ele>
        <time>2009-01-05T13:16:59Z</time>
      </trkpt>
      <trkpt lat="27.76851000" lon="-15.5503910">
        <ele>30.956000</ele>
        <time>2009-01-05T13:17:00Z</time>
      </trkpt>
      <trkpt lat="27.76853700" lon="-15.5503400">
        <ele>31.582000</ele>
        <time>2009-01-05T13:17:01Z</time>
      </trkpt>
      <trkpt lat="27.76856400" lon="-15.5502900">
        <ele>31.916000</ele>
        <time>2009-01-05T13:17:02Z</time>
      </trkpt>
      <trkpt lat="27.76859000" lon="-15.5502420">
        <ele>32.140000</ele>
        <time>2009-01-05T13:17:03Z</time>
      </trkpt>
      <trkpt lat="27.76861600" lon="-15.5501930">
        <ele>32.111000</ele>
        <time>2009-01-05T13:17:04Z</time>
      </trkpt>
      <trkpt lat="27.76864200" lon="-15.5501460">
        <ele>32.623000</ele>
        <time>2009-01-05T13:17:05Z</time>
      </trkpt>
      <trkpt lat="27.76866800" lon="-15.5500960">
        <ele>32.528000</ele>
        <time>2009-01-05T13:17:06Z</time>
      </trkpt>
      <trkpt lat="27.76869500" lon="-15.5500460">
        <ele>33.345000</ele>
        <time>2009-01-05T13:17:07Z</time>
      </trkpt>
      <trkpt lat="27.76872300" lon="-15.5499970">
        <ele>33.284000</ele>
        <time>2009-01-05T13:17:08Z</time>
      </trkpt>
      <trkpt lat="27.76874900" lon="-15.5499490">
        <ele>33.511000</ele>
        <time>2009-01-05T13:17:09Z</time>
      </trkpt>
      <trkpt lat="27.76877400" lon="-15.5499000">
        <ele>33.802000</ele>
        <time>2009-01-05T13:17:10Z</time>
      </trkpt>
      <trkpt lat="27.76879900" lon="-15.5498510">
        <ele>34.077000</ele>
        <time>2009-01-05T13:17:11Z</time>
      </trkpt>
      <trkpt lat="27.76882300" lon="-15.5498010">
        <ele>34.162000</ele>
        <time>2009-01-05T13:17:12Z</time>
      </trkpt>
      <trkpt lat="27.76884900" lon="-15.5497500">
        <ele>34.188000</ele>
        <time>2009-01-05T13:17:13Z</time>
      </trkpt>
      <trkpt lat="27.76887200" lon="-15.5497000">
        <ele>34.458000</ele>
        <time>2009-01-05T13:17:14Z</time>
      </trkpt>
      <trkpt lat="27.76889400" lon="-15.5496520">
        <ele>34.999000</ele>
        <time>2009-01-05T13:17:15Z</time>
      </trkpt>
      <trkpt lat="27.76891500" lon="-15.5496040">
        <ele>35.023000</ele>
        <time>2009-01-05T13:17:16Z</time>
      </trkpt>
      <trkpt lat="27.76893600" lon="-15.5495560">
        <ele>35.089000</ele>
        <time>2009-01-05T13:17:17Z</time>
      </trkpt>
      <trkpt lat="27.76895800" lon="-15.5495070">
        <ele>35.461000</ele>
        <time>2009-01-05T13:17:18Z</time>
      </trkpt>
      <trkpt lat="27.76897800" lon="-15.5494580">
        <ele>35.899000</ele>
        <time>2009-01-05T13:17:19Z</time>
      </trkpt>
      <trkpt lat="27.76899700" lon="-15.5494070">
        <ele>35.891000</ele>
        <time>2009-01-05T13:17:20Z</time>
      </trkpt>
      <trkpt lat="27.76901600" lon="-15.5493550">
        <ele>35.993000</ele>
        <time>2009-01-05T13:17:21Z</time>
      </trkpt>
      <trkpt lat="27.76903600" lon="-15.5493020">
        <ele>35.889000</ele>
        <time>2009-01-05T13:17:22Z</time>
      </trkpt>
      <trkpt lat="27.76905500" lon="-15.5492470">
        <ele>35.999000</ele>
        <time>2009-01-05T13:17:23Z</time>
      </trkpt>
      <trkpt lat="27.76907500" lon="-15.5491920">
        <ele>36.397000</ele>
        <time>2009-01-05T13:17:24Z</time>
      </trkpt>
      <trkpt lat="27.76909400" lon="-15.5491350">
        <ele>36.254000</ele>
        <time>2009-01-05T13:17:25Z</time>
      </trkpt>
      <trkpt lat="27.76911300" lon="-15.5490770">
        <ele>36.292000</ele>
        <time>2009-01-05T13:17:26Z</time>
      </trkpt>
      <trkpt lat="27.76913100" lon="-15.5490190">
        <ele>36.312000</ele>
        <time>2009-01-05T13:17:27Z</time>
      </trkpt>
      <trkpt lat="27.76914900" lon="-15.5489580">
        <ele>36.644000</ele>
        <time>2009-01-05T13:17:28Z</time>
      </trkpt>
      <trkpt lat="27.76916700" lon="-15.5488980">
        <ele>36.559000</ele>
        <time>2009-01-05T13:17:29Z</time>
      </trkpt>
      <trkpt lat="27.76918500" lon="-15.5488370">
        <ele>36.462000</ele>
        <time>2009-01-05T13:17:30Z</time>
      </trkpt>
      <trkpt lat="27.76920300" lon="-15.5487750">
        <ele>36.252000</ele>
        <time>2009-01-05T13:17:31Z</time>
      </trkpt>
      <trkpt lat="27.76922100" lon="-15.5487120">
        <ele>36.394000</ele>
        <time>2009-01-05T13:17:32Z</time>
      </trkpt>
      <trkpt lat="27.76923900" lon="-15.5486480">
        <ele>36.620000</ele>
        <time>2009-01-05T13:17:33Z</time>
      </trkpt>
      <trkpt lat="27.76925600" lon="-15.5485840">
        <ele>36.509000</ele>
        <time>2009-01-05T13:17:34Z</time>
      </trkpt>
      <trkpt lat="27.76927200" lon="-15.5485220">
        <ele>36.801000</ele>
        <time>2009-01-05T13:17:35Z</time>
      </trkpt>
      <trkpt lat="27.76928600" lon="-15.5484610">
        <ele>36.919000</ele>
        <time>2009-01-05T13:17:36Z</time>
      </trkpt>
      <trkpt lat="27.76929600" lon="-15.5483990">
        <ele>36.910000</ele>
        <time>2009-01-05T13:17:37Z</time>
      </trkpt>
      <trkpt lat="27.76930100" lon="-15.5483350">
        <ele>37.389000</ele>
        <time>2009-01-05T13:17:38Z</time>
      </trkpt>
      <trkpt lat="27.76929700" lon="-15.5482690">
        <ele>37.745000</ele>
        <time>2009-01-05T13:17:39Z</time>
      </trkpt>
      <trkpt lat="27.76929000" lon="-15.5482000">
        <ele>36.956000</ele>
        <time>2009-01-05T13:17:40Z</time>
      </trkpt>
      <trkpt lat="27.76928500" lon="-15.5481280">
        <ele>37.062000</ele>
        <time>2009-01-05T13:17:41Z</time>
      </trkpt>
      <trkpt lat="27.76929100" lon="-15.5480540">
        <ele>37.172000</ele>
        <time>2009-01-05T13:17:42Z</time>
      </trkpt>
      <trkpt lat="27.76931600" lon="-15.5479810">
        <ele>37.030000</ele>
        <time>2009-01-05T13:17:43Z</time>
      </trkpt>
      <trkpt lat="27.76936100" lon="-15.5479210">
        <ele>37.261000</ele>
        <time>2009-01-05T13:17:44Z</time>
      </trkpt>
      <trkpt lat="27.76942300" lon="-15.5478850">
        <ele>37.217000</ele>
        <time>2009-01-05T13:17:45Z</time>
      </trkpt>
      <trkpt lat="27.76950400" lon="-15.5478970">
        <ele>37.089000</ele>
        <time>2009-01-05T13:17:46Z</time>
      </trkpt>
      <trkpt lat="27.76957400" lon="-15.5479310">
        <ele>37.238000</ele>
        <time>2009-01-05T13:17:47Z</time>
      </trkpt>
      <trkpt lat="27.76963100" lon="-15.5479810">
        <ele>37.371000</ele>
        <time>2009-01-05T13:17:48Z</time>
      </trkpt>
      <trkpt lat="27.76967800" lon="-15.5480370">
        <ele>37.565000</ele>
        <time>2009-01-05T13:17:49Z</time>
      </trkpt>
      <trkpt lat="27.76972700" lon="-15.5480840">
        <ele>37.986000</ele>
        <time>2009-01-05T13:17:50Z</time>
      </trkpt>
      <trkpt lat="27.76978400" lon="-15.5481080">
        <ele>38.465000</ele>
        <time>2009-01-05T13:17:51Z</time>
      </trkpt>
      <trkpt lat="27.76984300" lon="-15.5480950">
        <ele>38.831000</ele>
        <time>2009-01-05T13:17:52Z</time>
      </trkpt>
      <trkpt lat="27.76989000" lon="-15.5480530">
        <ele>38.913000</ele>
        <time>2009-01-05T13:17:53Z</time>
      </trkpt>
      <trkpt lat="27.76992400" lon="-15.5479980">
        <ele>38.655000</ele>
        <time>2009-01-05T13:17:54Z</time>
      </trkpt>
      <trkpt lat="27.76995900" lon="-15.5479370">
        <ele>38.616000</ele>
        <time>2009-01-05T13:17:55Z</time>
      </trkpt>
      <trkpt lat="27.77000200" lon="-15.5478750">
        <ele>38.405000</ele>
        <time>2009-01-05T13:17:56Z</time>
      </trkpt>
      <trkpt lat="27.77005300" lon="-15.5478170">
        <ele>38.245000</ele>
        <time>2009-01-05T13:17:57Z</time>
      </trkpt>
      <trkpt lat="27.77011200" lon="-15.5477660">
        <ele>38.324000</ele>
        <time>2009-01-05T13:17:58Z</time>
      </trkpt>
      <trkpt lat="27.77017400" lon="-15.5477240">
        <ele>38.262000</ele>
        <time>2009-01-05T13:17:59Z</time>
      </trkpt>
      <trkpt lat="27.77023600" lon="-15.5476890">
        <ele>38.587000</ele>
        <time>2009-01-05T13:18:00Z</time>
      </trkpt>
      <trkpt lat="27.77029700" lon="-15.5476600">
        <ele>38.553000</ele>
        <time>2009-01-05T13:18:01Z</time>
      </trkpt>
      <trkpt lat="27.77035700" lon="-15.5476380">
        <ele>38.601000</ele>
        <time>2009-01-05T13:18:02Z</time>
      </trkpt>
      <trkpt lat="27.77041900" lon="-15.5476210">
        <ele>39.013000</ele>
        <time>2009-01-05T13:18:03Z</time>
      </trkpt>
      <trkpt lat="27.77048100" lon="-15.5476090">
        <ele>38.939000</ele>
        <time>2009-01-05T13:18:04Z</time>
      </trkpt>
      <trkpt lat="27.77054200" lon="-15.5476020">
        <ele>38.905000</ele>
        <time>2009-01-05T13:18:05Z</time>
      </trkpt>
      <trkpt lat="27.77060200" lon="-15.5476010">
        <ele>39.283000</ele>
        <time>2009-01-05T13:18:06Z</time>
      </trkpt>
      <trkpt lat="27.77066000" lon="-15.5476070">
        <ele>39.563000</ele>
        <time>2009-01-05T13:18:07Z</time>
      </trkpt>
      <trkpt lat="27.77071900" lon="-15.5476120">
        <ele>39.444000</ele>
        <time>2009-01-05T13:18:08Z</time>
      </trkpt>
      <trkpt lat="27.77077900" lon="-15.5476080">
        <ele>39.682000</ele>
        <time>2009-01-05T13:18:09Z</time>
      </trkpt>
      <trkpt lat="27.77083900" lon="-15.5475980">
        <ele>39.777000</ele>
        <time>2009-01-05T13:18:10Z</time>
      </trkpt>
      <trkpt lat="27.77089900" lon="-15.5475870">
        <ele>39.800000</ele>
        <time>2009-01-05T13:18:11Z</time>
      </trkpt>
      <trkpt lat="27.77096200" lon="-15.5475780">
        <ele>40.110000</ele>
        <time>2009-01-05T13:18:12Z</time>
      </trkpt>
      <trkpt lat="27.77102700" lon="-15.5475710">
        <ele>40.273000</ele>
        <time>2009-01-05T13:18:13Z</time>
      </trkpt>
      <trkpt lat="27.77109400" lon="-15.5475640">
        <ele>40.048000</ele>
        <time>2009-01-05T13:18:14Z</time>
      </trkpt>
      <trkpt lat="27.77116200" lon="-15.5475500">
        <ele>39.958000</ele>
        <time>2009-01-05T13:18:15Z</time>
      </trkpt>
      <trkpt lat="27.77122800" lon="-15.5475250">
        <ele>39.865000</ele>
        <time>2009-01-05T13:18:16Z</time>
      </trkpt>
      <trkpt lat="27.77128800" lon="-15.5474870">
        <ele>40.024000</ele>
        <time>2009-01-05T13:18:17Z</time>
      </trkpt>
      <trkpt lat="27.77134300" lon="-15.5474390">
        <ele>39.984000</ele>
        <time>2009-01-05T13:18:18Z</time>
      </trkpt>
      <trkpt lat="27.77139000" lon="-15.5473850">
        <ele>40.287000</ele>
        <time>2009-01-05T13:18:19Z</time>
      </trkpt>
      <trkpt lat="27.77143100" lon="-15.5473220">
        <ele>40.397000</ele>
        <time>2009-01-05T13:18:20Z</time>
      </trkpt>
      <trkpt lat="27.77146100" lon="-15.5472510">
        <ele>40.611000</ele>
        <time>2009-01-05T13:18:21Z</time>
      </trkpt>
      <trkpt lat="27.77147800" lon="-15.5471770">
        <ele>40.882000</ele>
        <time>2009-01-05T13:18:22Z</time>
      </trkpt>
      <trkpt lat="27.77148700" lon="-15.5471030">
        <ele>41.169000</ele>
        <time>2009-01-05T13:18:23Z</time>
      </trkpt>
      <trkpt lat="27.77149300" lon="-15.5470320">
        <ele>40.912000</ele>
        <time>2009-01-05T13:18:24Z</time>
      </trkpt>
      <trkpt lat="27.77150400" lon="-15.5469660">
        <ele>41.232000</ele>
        <time>2009-01-05T13:18:25Z</time>
      </trkpt>
      <trkpt lat="27.77151400" lon="-15.5469060">
        <ele>41.631000</ele>
        <time>2009-01-05T13:18:26Z</time>
      </trkpt>
      <trkpt lat="27.77152500" lon="-15.5468480">
        <ele>42.796000</ele>
        <time>2009-01-05T13:18:27Z</time>
      </trkpt>
      <trkpt lat="27.77153600" lon="-15.5467950">
        <ele>42.874000</ele>
        <time>2009-01-05T13:18:28Z</time>
      </trkpt>
      <trkpt lat="27.77154800" lon="-15.5467460">
        <ele>43.717000</ele>
        <time>2009-01-05T13:18:29Z</time>
      </trkpt>
      <trkpt lat="27.77156200" lon="-15.5467010">
        <ele>43.969000</ele>
        <time>2009-01-05T13:18:30Z</time>
      </trkpt>
      <trkpt lat="27.77157600" lon="-15.5466580">
        <ele>44.385000</ele>
        <time>2009-01-05T13:18:31Z</time>
      </trkpt>
      <trkpt lat="27.77159000" lon="-15.5466170">
        <ele>44.909000</ele>
        <time>2009-01-05T13:18:32Z</time>
      </trkpt>
      <trkpt lat="27.77160600" lon="-15.5465790">
        <ele>45.250000</ele>
        <time>2009-01-05T13:18:33Z</time>
      </trkpt>
      <trkpt lat="27.77162500" lon="-15.5465430">
        <ele>45.791000</ele>
        <time>2009-01-05T13:18:34Z</time>
      </trkpt>
      <trkpt lat="27.77164500" lon="-15.5465100">
        <ele>46.098000</ele>
        <time>2009-01-05T13:18:35Z</time>
      </trkpt>
      <trkpt lat="27.77166600" lon="-15.5464790">
        <ele>46.083000</ele>
        <time>2009-01-05T13:18:36Z</time>
      </trkpt>
      <trkpt lat="27.77168800" lon="-15.5464480">
        <ele>46.079000</ele>
        <time>2009-01-05T13:18:37Z</time>
      </trkpt>
      <trkpt lat="27.77171200" lon="-15.5464180">
        <ele>46.075000</ele>
        <time>2009-01-05T13:18:38Z</time>
      </trkpt>
      <trkpt lat="27.77174100" lon="-15.5463940">
        <ele>46.071000</ele>
        <time>2009-01-05T13:18:39Z</time>
      </trkpt>
      <trkpt lat="27.77177300" lon="-15.5463760">
        <ele>47.211000</ele>
        <time>2009-01-05T13:18:40Z</time>
      </trkpt>
      <trkpt lat="27.77180600" lon="-15.5463610">
        <ele>47.517000</ele>
        <time>2009-01-05T13:18:41Z</time>
      </trkpt>
      <trkpt lat="27.77184100" lon="-15.5463510">
        <ele>48.139000</ele>
        <time>2009-01-05T13:18:42Z</time>
      </trkpt>
      <trkpt lat="27.77187500" lon="-15.5463430">
        <ele>48.590000</ele>
        <time>2009-01-05T13:18:43Z</time>
      </trkpt>
      <trkpt lat="27.77190800" lon="-15.5463340">
        <ele>48.753000</ele>
        <time>2009-01-05T13:18:44Z</time>
      </trkpt>
      <trkpt lat="27.77194100" lon="-15.5463260">
        <ele>48.786000</ele>
        <time>2009-01-05T13:18:45Z</time>
      </trkpt>
      <trkpt lat="27.77197300" lon="-15.5463200">
        <ele>49.314000</ele>
        <time>2009-01-05T13:18:46Z</time>
      </trkpt>
      <trkpt lat="27.77200400" lon="-15.5463170">
        <ele>49.297000</ele>
        <time>2009-01-05T13:18:47Z</time>
      </trkpt>
      <trkpt lat="27.77203700" lon="-15.5463150">
        <ele>49.912000</ele>
        <time>2009-01-05T13:18:48Z</time>
      </trkpt>
      <trkpt lat="27.77206900" lon="-15.5463140">
        <ele>49.976000</ele>
        <time>2009-01-05T13:18:49Z</time>
      </trkpt>
      <trkpt lat="27.77210100" lon="-15.5463150">
        <ele>50.390000</ele>
        <time>2009-01-05T13:18:50Z</time>
      </trkpt>
      <trkpt lat="27.77213300" lon="-15.5463160">
        <ele>50.625000</ele>
        <time>2009-01-05T13:18:51Z</time>
      </trkpt>
      <trkpt lat="27.77216500" lon="-15.5463170">
        <ele>50.772000</ele>
        <time>2009-01-05T13:18:52Z</time>
      </trkpt>
      <trkpt lat="27.77219700" lon="-15.5463190">
        <ele>51.300000</ele>
        <time>2009-01-05T13:18:53Z</time>
      </trkpt>
      <trkpt lat="27.77222800" lon="-15.5463220">
        <ele>51.287000</ele>
        <time>2009-01-05T13:18:54Z</time>
      </trkpt>
      <trkpt lat="27.77225800" lon="-15.5463270">
        <ele>51.849000</ele>
        <time>2009-01-05T13:18:55Z</time>
      </trkpt>
      <trkpt lat="27.77228700" lon="-15.5463320">
        <ele>52.190000</ele>
        <time>2009-01-05T13:18:56Z</time>
      </trkpt>
      <trkpt lat="27.77231700" lon="-15.5463390">
        <ele>52.800000</ele>
        <time>2009-01-05T13:18:57Z</time>
      </trkpt>
      <trkpt lat="27.77234700" lon="-15.5463460">
        <ele>52.856000</ele>
        <time>2009-01-05T13:18:58Z</time>
      </trkpt>
      <trkpt lat="27.77237700" lon="-15.5463540">
        <ele>53.004000</ele>
        <time>2009-01-05T13:18:59Z</time>
      </trkpt>
      <trkpt lat="27.77240700" lon="-15.5463610">
        <ele>52.779000</ele>
        <time>2009-01-05T13:19:00Z</time>
      </trkpt>
      <trkpt lat="27.77243900" lon="-15.5463660">
        <ele>52.753000</ele>
        <time>2009-01-05T13:19:01Z</time>
      </trkpt>
      <trkpt lat="27.77247400" lon="-15.5463690">
        <ele>53.073000</ele>
        <time>2009-01-05T13:19:02Z</time>
      </trkpt>
      <trkpt lat="27.77250600" lon="-15.5463750">
        <ele>53.068000</ele>
        <time>2009-01-05T13:19:03Z</time>
      </trkpt>
      <trkpt lat="27.77253500" lon="-15.5463780">
        <ele>53.293000</ele>
        <time>2009-01-05T13:19:04Z</time>
      </trkpt>
      <trkpt lat="27.77256700" lon="-15.5463800">
        <ele>53.528000</ele>
        <time>2009-01-05T13:19:05Z</time>
      </trkpt>
      <trkpt lat="27.77260100" lon="-15.5463770">
        <ele>53.666000</ele>
        <time>2009-01-05T13:19:06Z</time>
      </trkpt>
      <trkpt lat="27.77263700" lon="-15.5463770">
        <ele>53.744000</ele>
        <time>2009-01-05T13:19:07Z</time>
      </trkpt>
      <trkpt lat="27.77267300" lon="-15.5463870">
        <ele>53.636000</ele>
        <time>2009-01-05T13:19:08Z</time>
      </trkpt>
      <trkpt lat="27.77270700" lon="-15.5464040">
        <ele>53.689000</ele>
        <time>2009-01-05T13:19:09Z</time>
      </trkpt>
      <trkpt lat="27.77273900" lon="-15.5464240">
        <ele>53.912000</ele>
        <time>2009-01-05T13:19:10Z</time>
      </trkpt>
      <trkpt lat="27.77276900" lon="-15.5464470">
        <ele>54.071000</ele>
        <time>2009-01-05T13:19:11Z</time>
      </trkpt>
      <trkpt lat="27.77279400" lon="-15.5464760">
        <ele>53.738000</ele>
        <time>2009-01-05T13:19:12Z</time>
      </trkpt>
      <trkpt lat="27.77281400" lon="-15.5465080">
        <ele>53.989000</ele>
        <time>2009-01-05T13:19:13Z</time>
      </trkpt>
      <trkpt lat="27.77283000" lon="-15.5465420">
        <ele>53.828000</ele>
        <time>2009-01-05T13:19:14Z</time>
      </trkpt>
      <trkpt lat="27.77284100" lon="-15.5465780">
        <ele>53.875000</ele>
        <time>2009-01-05T13:19:15Z</time>
      </trkpt>
      <trkpt lat="27.77285000" lon="-15.5466120">
        <ele>53.862000</ele>
        <time>2009-01-05T13:19:16Z</time>
      </trkpt>
      <trkpt lat="27.77285500" lon="-15.5466450">
        <ele>54.139000</ele>
        <time>2009-01-05T13:19:17Z</time>
      </trkpt>
      <trkpt lat="27.77285200" lon="-15.5466790">
        <ele>54.196000</ele>
        <time>2009-01-05T13:19:18Z</time>
      </trkpt>
      <trkpt lat="27.77284900" lon="-15.5467130">
        <ele>54.185000</ele>
        <time>2009-01-05T13:19:19Z</time>
      </trkpt>
      <trkpt lat="27.77284000" lon="-15.5467490">
        <ele>54.284000</ele>
        <time>2009-01-05T13:19:20Z</time>
      </trkpt>
      <trkpt lat="27.77282800" lon="-15.5467870">
        <ele>54.257000</ele>
        <time>2009-01-05T13:19:21Z</time>
      </trkpt>
      <trkpt lat="27.77281600" lon="-15.5468250">
        <ele>54.261000</ele>
        <time>2009-01-05T13:19:22Z</time>
      </trkpt>
      <trkpt lat="27.77280300" lon="-15.5468650">
        <ele>54.134000</ele>
        <time>2009-01-05T13:19:23Z</time>
      </trkpt>
      <trkpt lat="27.77279000" lon="-15.5469030">
        <ele>54.167000</ele>
        <time>2009-01-05T13:19:24Z</time>
      </trkpt>
      <trkpt lat="27.77277400" lon="-15.5469380">
        <ele>54.392000</ele>
        <time>2009-01-05T13:19:25Z</time>
      </trkpt>
      <trkpt lat="27.77275800" lon="-15.5469680">
        <ele>54.370000</ele>
        <time>2009-01-05T13:19:26Z</time>
      </trkpt>
      <trkpt lat="27.77274600" lon="-15.5469930">
        <ele>54.410000</ele>
        <time>2009-01-05T13:19:27Z</time>
      </trkpt>
      <trkpt lat="27.77273900" lon="-15.5470140">
        <ele>54.390000</ele>
        <time>2009-01-05T13:19:28Z</time>
      </trkpt>
      <trkpt lat="27.77273500" lon="-15.5470330">
        <ele>54.149000</ele>
        <time>2009-01-05T13:19:29Z</time>
      </trkpt>
      <trkpt lat="27.77272500" lon="-15.5470510">
        <ele>54.341000</ele>
        <time>2009-01-05T13:19:30Z</time>
      </trkpt>
      <trkpt lat="27.77271600" lon="-15.5470640">
        <ele>54.202000</ele>
        <time>2009-01-05T13:19:31Z</time>
      </trkpt>
      <trkpt lat="27.77271000" lon="-15.5470670">
        <ele>54.093000</ele>
        <time>2009-01-05T13:19:32Z</time>
      </trkpt>
    </trkseg>
  </trk>
</gpx>

